<?xml version='1.0' encoding='UTF-8'?><gpx version="1.1" creator="JPX - https://github.com/jenetics/jpx" xmlns="http://www.topografix.com/GPX/1/1"><trk><trkseg><trkpt lat="41.680897241960785" lon="13.373236919790868"><ele>246.0</ele><time>2026-04-10T13:30:15.869Z</time></trkpt><trkpt lat="41.680767696681144" lon="13.373317781857677"><ele>246.0</ele><time>2026-04-10T13:30:17.869Z</time></trkpt><trkpt lat="41.68058681121082" lon="13.37348921402612"><ele>246.0</ele><time>2026-04-10T13:30:18.869Z</time></trkpt><trkpt lat="41.68060533294491" lon="13.373570575689438"><ele>246.0</ele><time>2026-04-10T13:30:22.869Z</time></trkpt><trkpt lat="41.68056510392501" lon="13.373666193603341"><ele>246.00000000000003</ele><time>2026-04-10T13:31:51.001Z</time></trkpt><trkpt lat="41.680497605568995" lon="13.373685709552111"><ele>246.0</ele><time>2026-04-10T13:31:55.001Z</time></trkpt><trkpt lat="41.680441378069794" lon="13.373631449115253"><ele>246.00000000000003</ele><time>2026-04-10T13:31:59.001Z</time></trkpt><trkpt lat="41.68042490678517" lon="13.37353855832021"><ele>246.00000000000003</ele><time>2026-04-10T13:32:03.001Z</time></trkpt><trkpt lat="41.68040045883242" lon="13.373436232383783"><ele>246.0</ele><time>2026-04-10T13:32:07.001Z</time></trkpt><trkpt lat="41.68039057253966" lon="13.373351884867576"><ele>246.00000000000003</ele><time>2026-04-10T13:32:10.001Z</time></trkpt><trkpt lat="41.680371715022815" lon="13.373262385626028"><ele>246.00000000000003</ele><time>2026-04-10T13:32:15.001Z</time></trkpt><trkpt lat="41.68032227421773" lon="13.37316287178674"><ele>245.60000000000002</ele><time>2026-04-10T13:32:27.002Z</time></trkpt><trkpt lat="41.68021832837434" lon="13.373166015219585"><ele>245.20000000000002</ele><time>2026-04-10T13:32:29.001Z</time></trkpt><trkpt lat="41.68015130175165" lon="13.373183374387558"><ele>244.79999999999998</ele><time>2026-04-10T13:32:30.001Z</time></trkpt><trkpt lat="41.68008105032186" lon="13.373182113855936"><ele>244.39999999999998</ele><time>2026-04-10T13:32:31.001Z</time></trkpt><trkpt lat="41.67996042672878" lon="13.373205840290849"><ele>244.0</ele><time>2026-04-10T13:32:33.001Z</time></trkpt><trkpt lat="41.679828336673545" lon="13.37324251170253"><ele>243.99999999999997</ele><time>2026-04-10T13:32:35.001Z</time></trkpt><trkpt lat="41.67974803814923" lon="13.373256020394612"><ele>244.0</ele><time>2026-04-10T13:32:36.001Z</time></trkpt><trkpt lat="41.67966538707662" lon="13.373272010367202"><ele>244.0</ele><time>2026-04-10T13:32:37.001Z</time></trkpt><trkpt lat="41.679584498227605" lon="13.373293511131426"><ele>244.0</ele><time>2026-04-10T13:32:38.001Z</time></trkpt><trkpt lat="41.67950041436777" lon="13.373309056203375"><ele>243.99999999999997</ele><time>2026-04-10T13:32:39.001Z</time></trkpt><trkpt lat="41.67942313350085" lon="13.373328545503862"><ele>244.0</ele><time>2026-04-10T13:32:40Z</time></trkpt><trkpt lat="41.67935747791696" lon="13.373343465533257"><ele>243.49999999999997</ele><time>2026-04-10T13:32:41Z</time></trkpt><trkpt lat="41.67928767700693" lon="13.373354392766224"><ele>243.0</ele><time>2026-04-10T13:32:43Z</time></trkpt><trkpt lat="41.67920185592216" lon="13.373286948722411"><ele>242.5</ele><time>2026-04-10T13:32:59Z</time></trkpt><trkpt lat="41.679185405984114" lon="13.373201968067844"><ele>242.0</ele><time>2026-04-10T13:33:00Z</time></trkpt><trkpt lat="41.67915752317718" lon="13.37311735919471"><ele>241.49999999999997</ele><time>2026-04-10T13:33:01Z</time></trkpt><trkpt lat="41.67911400702744" lon="13.373031166816178"><ele>241.0</ele><time>2026-04-10T13:33:02Z</time></trkpt><trkpt lat="41.67905451847571" lon="13.37296029460709"><ele>240.4</ele><time>2026-04-10T13:33:03Z</time></trkpt><trkpt lat="41.67897814711666" lon="13.372924157434474"><ele>239.8</ele><time>2026-04-10T13:33:04Z</time></trkpt><trkpt lat="41.67889211500654" lon="13.372913396183922"><ele>239.20000000000002</ele><time>2026-04-10T13:33:05Z</time></trkpt><trkpt lat="41.678797009332925" lon="13.372906057831752"><ele>238.60000000000002</ele><time>2026-04-10T13:33:06Z</time></trkpt><trkpt lat="41.678687925952296" lon="13.372879408032603"><ele>238.0</ele><time>2026-04-10T13:33:07Z</time></trkpt><trkpt lat="41.6785773186731" lon="13.372853026703345"><ele>237.60000000000002</ele><time>2026-04-10T13:33:08Z</time></trkpt><trkpt lat="41.67847591157569" lon="13.372810316821502"><ele>237.20000000000002</ele><time>2026-04-10T13:33:09Z</time></trkpt><trkpt lat="41.678392585385375" lon="13.372744127473664"><ele>236.8</ele><time>2026-04-10T13:33:10Z</time></trkpt><trkpt lat="41.67831914071472" lon="13.372663217480316"><ele>236.4</ele><time>2026-04-10T13:33:11Z</time></trkpt><trkpt lat="41.67826444097428" lon="13.372538019865047"><ele>236.0</ele><time>2026-04-10T13:33:12Z</time></trkpt><trkpt lat="41.678215103994994" lon="13.372396404410255"><ele>236.0</ele><time>2026-04-10T13:33:13Z</time></trkpt><trkpt lat="41.678167950309124" lon="13.37224435194242"><ele>236.00000000000003</ele><time>2026-04-10T13:33:14Z</time></trkpt><trkpt lat="41.67811508804709" lon="13.372099115370583"><ele>236.00000000000003</ele><time>2026-04-10T13:33:15Z</time></trkpt><trkpt lat="41.67806976700025" lon="13.371998789042483"><ele>236.0</ele><time>2026-04-10T13:33:16Z</time></trkpt><trkpt lat="41.67801751901639" lon="13.371888307170646"><ele>236.0</ele><time>2026-04-10T13:33:18Z</time></trkpt><trkpt lat="41.67800444655254" lon="13.371753528870704"><ele>235.8</ele><time>2026-04-10T13:33:20Z</time></trkpt><trkpt lat="41.67803631583387" lon="13.3716075830114"><ele>235.60000000000002</ele><time>2026-04-10T13:33:22Z</time></trkpt><trkpt lat="41.67807115202149" lon="13.371437579544141"><ele>235.4</ele><time>2026-04-10T13:33:24Z</time></trkpt><trkpt lat="41.6780929342201" lon="13.371335050498923"><ele>235.2</ele><time>2026-04-10T13:33:25Z</time></trkpt><trkpt lat="41.67813343440212" lon="13.371236176722899"><ele>235.0</ele><time>2026-04-10T13:33:26Z</time></trkpt><trkpt lat="41.67815910889335" lon="13.371140269681804"><ele>235.66666666666666</ele><time>2026-04-10T13:33:27Z</time></trkpt><trkpt lat="41.678176151857045" lon="13.37103973670759"><ele>236.33333333333331</ele><time>2026-04-10T13:33:28Z</time></trkpt><trkpt lat="41.678204114503636" lon="13.370944538354847"><ele>237.0</ele><time>2026-04-10T13:33:28.999Z</time></trkpt><trkpt lat="41.67823098903454" lon="13.370840946426227"><ele>237.66666666666669</ele><time>2026-04-10T13:33:29.999Z</time></trkpt><trkpt lat="41.67826253700613" lon="13.370733985571261"><ele>238.33333333333334</ele><time>2026-04-10T13:33:30.999Z</time></trkpt><trkpt lat="41.67828797476107" lon="13.370621714049792"><ele>239.0</ele><time>2026-04-10T13:33:31.999Z</time></trkpt><trkpt lat="41.678283203923726" lon="13.370510250103882"><ele>239.33333333333334</ele><time>2026-04-10T13:33:32.999Z</time></trkpt><trkpt lat="41.678287620554904" lon="13.370402787083078"><ele>239.66666666666669</ele><time>2026-04-10T13:33:33.999Z</time></trkpt><trkpt lat="41.67831355230448" lon="13.370296716408967"><ele>240.0</ele><time>2026-04-10T13:33:34.999Z</time></trkpt><trkpt lat="41.67831784857413" lon="13.37017950541885"><ele>240.33333333333331</ele><time>2026-04-10T13:33:35.999Z</time></trkpt><trkpt lat="41.678330115023606" lon="13.370071514058024"><ele>240.66666666666666</ele><time>2026-04-10T13:33:36.999Z</time></trkpt><trkpt lat="41.67834135546582" lon="13.36996331377483"><ele>241.0</ele><time>2026-04-10T13:33:37.999Z</time></trkpt><trkpt lat="41.67836224274335" lon="13.369828166761394"><ele>241.0</ele><time>2026-04-10T13:33:39.999Z</time></trkpt><trkpt lat="41.67839598026691" lon="13.369750523558059"><ele>241.00000000000003</ele><time>2026-04-10T13:33:41.999Z</time></trkpt><trkpt lat="41.67851607813092" lon="13.369718136973654"><ele>241.00000000000003</ele><time>2026-04-10T13:33:43.999Z</time></trkpt><trkpt lat="41.67860578048287" lon="13.369708231939825"><ele>241.0</ele><time>2026-04-10T13:33:44.999Z</time></trkpt><trkpt lat="41.67869630905972" lon="13.36968820335666"><ele>241.0</ele><time>2026-04-10T13:33:45.999Z</time></trkpt><trkpt lat="41.67879351695632" lon="13.36964791252504"><ele>241.0</ele><time>2026-04-10T13:33:46.999Z</time></trkpt><trkpt lat="41.678898186508825" lon="13.369582543663446"><ele>241.0</ele><time>2026-04-10T13:33:47.999Z</time></trkpt><trkpt lat="41.6789995609586" lon="13.369494740529555"><ele>241.0</ele><time>2026-04-10T13:33:48.999Z</time></trkpt><trkpt lat="41.67910072466629" lon="13.369397278594683"><ele>241.0</ele><time>2026-04-10T13:33:49.999Z</time></trkpt><trkpt lat="41.67920777311876" lon="13.369299014912981"><ele>241.0</ele><time>2026-04-10T13:33:50.999Z</time></trkpt><trkpt lat="41.679323361850635" lon="13.369198172010796"><ele>241.0</ele><time>2026-04-10T13:33:51.999Z</time></trkpt><trkpt lat="41.67944474084794" lon="13.369095730974598"><ele>241.0</ele><time>2026-04-10T13:33:52.999Z</time></trkpt><trkpt lat="41.67956914967001" lon="13.368983322176005"><ele>241.0</ele><time>2026-04-10T13:33:53.999Z</time></trkpt><trkpt lat="41.679697354461986" lon="13.36887403030337"><ele>241.33333333333331</ele><time>2026-04-10T13:33:54.999Z</time></trkpt><trkpt lat="41.679836709448104" lon="13.36877225222134"><ele>241.66666666666669</ele><time>2026-04-10T13:33:55.999Z</time></trkpt><trkpt lat="41.67998748928435" lon="13.368711131715525"><ele>242.0</ele><time>2026-04-10T13:33:56.999Z</time></trkpt><trkpt lat="41.680149508026496" lon="13.368686266295084"><ele>243.33333333333334</ele><time>2026-04-10T13:33:57.999Z</time></trkpt><trkpt lat="41.680314852920304" lon="13.368685875076999"><ele>244.66666666666669</ele><time>2026-04-10T13:33:58.999Z</time></trkpt><trkpt lat="41.680479825129424" lon="13.36869713130484"><ele>246.0</ele><time>2026-04-10T13:33:59.999Z</time></trkpt><trkpt lat="41.68064801364171" lon="13.36870819128126"><ele>246.0</ele><time>2026-04-10T13:34:00.999Z</time></trkpt><trkpt lat="41.68081961081908" lon="13.368702180453838"><ele>246.0</ele><time>2026-04-10T13:34:01.999Z</time></trkpt><trkpt lat="41.68099090886394" lon="13.368689594153356"><ele>246.0</ele><time>2026-04-10T13:34:02.999Z</time></trkpt><trkpt lat="41.681165596259945" lon="13.368678483485864"><ele>246.33333333333331</ele><time>2026-04-10T13:34:03.999Z</time></trkpt><trkpt lat="41.681331793026544" lon="13.368673500457682"><ele>246.66666666666666</ele><time>2026-04-10T13:34:04.999Z</time></trkpt><trkpt lat="41.68150501357311" lon="13.368673237213239"><ele>247.0</ele><time>2026-04-10T13:34:05.999Z</time></trkpt><trkpt lat="41.68168162837059" lon="13.36865550475427"><ele>247.0</ele><time>2026-04-10T13:34:06.999Z</time></trkpt><trkpt lat="41.68186193613907" lon="13.368630060909293"><ele>247.0</ele><time>2026-04-10T13:34:07.999Z</time></trkpt><trkpt lat="41.68205155658864" lon="13.368600458726313"><ele>247.0</ele><time>2026-04-10T13:34:08.999Z</time></trkpt><trkpt lat="41.682240019499574" lon="13.36857144634581"><ele>247.33333333333331</ele><time>2026-04-10T13:34:09.999Z</time></trkpt><trkpt lat="41.682441147615435" lon="13.36855435011072"><ele>247.66666666666669</ele><time>2026-04-10T13:34:10.999Z</time></trkpt><trkpt lat="41.68263921904279" lon="13.368544495337723"><ele>248.0</ele><time>2026-04-10T13:34:11.999Z</time></trkpt><trkpt lat="41.68280476669073" lon="13.368526482894884"><ele>248.25</ele><time>2026-04-10T13:34:12.999Z</time></trkpt><trkpt lat="41.682960835590876" lon="13.368524918126553"><ele>248.5</ele><time>2026-04-10T13:34:13.999Z</time></trkpt><trkpt lat="41.68309975092631" lon="13.368519611217739"><ele>248.75</ele><time>2026-04-10T13:34:14.999Z</time></trkpt><trkpt lat="41.68322808566437" lon="13.368513963099918"><ele>249.0</ele><time>2026-04-10T13:34:15.999Z</time></trkpt><trkpt lat="41.6833445989107" lon="13.368507655235033"><ele>249.0</ele><time>2026-04-10T13:34:16.999Z</time></trkpt><trkpt lat="41.68344426243542" lon="13.36850769693879"><ele>249.0</ele><time>2026-04-10T13:34:17.999Z</time></trkpt><trkpt lat="41.68352942318757" lon="13.368510336144267"><ele>249.0</ele><time>2026-04-10T13:34:18.999Z</time></trkpt><trkpt lat="41.68360064580435" lon="13.368513367835366"><ele>249.0</ele><time>2026-04-10T13:34:19.999Z</time></trkpt><trkpt lat="41.68369344927141" lon="13.368528213383838"><ele>249.0</ele><time>2026-04-10T13:34:21.999Z</time></trkpt><trkpt lat="41.683754734317496" lon="13.368466644082"><ele>249.0</ele><time>2026-04-10T13:34:25.999Z</time></trkpt><trkpt lat="41.6837808138156" lon="13.368351075196463"><ele>249.75</ele><time>2026-04-10T13:34:26.999Z</time></trkpt><trkpt lat="41.68380284970439" lon="13.368150746457886"><ele>250.5</ele><time>2026-04-10T13:34:27.999Z</time></trkpt><trkpt lat="41.68382377884167" lon="13.367976811907461"><ele>251.25</ele><time>2026-04-10T13:34:28.999Z</time></trkpt><trkpt lat="41.683844028739166" lon="13.367781328767576"><ele>252.0</ele><time>2026-04-10T13:34:30Z</time></trkpt><trkpt lat="41.68387069977387" lon="13.367566780351131"><ele>252.0</ele><time>2026-04-10T13:34:31Z</time></trkpt><trkpt lat="41.68389501657669" lon="13.367353136843986"><ele>252.0</ele><time>2026-04-10T13:34:32Z</time></trkpt><trkpt lat="41.683918435284326" lon="13.367136404468638"><ele>252.0</ele><time>2026-04-10T13:34:33Z</time></trkpt><trkpt lat="41.683942272779866" lon="13.366895551396569"><ele>252.0</ele><time>2026-04-10T13:34:34Z</time></trkpt><trkpt lat="41.68397100135424" lon="13.366608140670502"><ele>252.0</ele><time>2026-04-10T13:34:35Z</time></trkpt><trkpt lat="41.6840073711477" lon="13.366300598951229"><ele>252.0</ele><time>2026-04-10T13:34:36Z</time></trkpt><trkpt lat="41.68405062907344" lon="13.366055384293803"><ele>252.0</ele><time>2026-04-10T13:34:37Z</time></trkpt><trkpt lat="41.68408787898057" lon="13.365840607802374"><ele>252.0</ele><time>2026-04-10T13:34:38Z</time></trkpt><trkpt lat="41.68413476602708" lon="13.365639449211121"><ele>252.0</ele><time>2026-04-10T13:34:39Z</time></trkpt><trkpt lat="41.684213706888904" lon="13.36546653489574"><ele>252.2</ele><time>2026-04-10T13:34:40Z</time></trkpt><trkpt lat="41.68427118499199" lon="13.365301341714748"><ele>252.39999999999998</ele><time>2026-04-10T13:34:41Z</time></trkpt><trkpt lat="41.684333557418256" lon="13.365177469003587"><ele>252.60000000000002</ele><time>2026-04-10T13:34:42Z</time></trkpt><trkpt lat="41.684411773357525" lon="13.365097135562491"><ele>252.8</ele><time>2026-04-10T13:34:43Z</time></trkpt><trkpt lat="41.68449610961549" lon="13.365063145502262"><ele>253.0</ele><time>2026-04-10T13:34:44Z</time></trkpt><trkpt lat="41.684593199875" lon="13.365069308330979"><ele>253.2</ele><time>2026-04-10T13:34:45Z</time></trkpt><trkpt lat="41.684706358145476" lon="13.365046326800782"><ele>253.4</ele><time>2026-04-10T13:34:46Z</time></trkpt><trkpt lat="41.684820562769936" lon="13.365057373452046"><ele>253.59999999999997</ele><time>2026-04-10T13:34:47Z</time></trkpt><trkpt lat="41.68490084729346" lon="13.365017967060906"><ele>253.79999999999998</ele><time>2026-04-10T13:34:48Z</time></trkpt><trkpt lat="41.68496985653697" lon="13.364903452631127"><ele>254.0</ele><time>2026-04-10T13:34:49Z</time></trkpt><trkpt lat="41.68500108973927" lon="13.36472139481782"><ele>254.33333333333334</ele><time>2026-04-10T13:34:50Z</time></trkpt><trkpt lat="41.685065048109706" lon="13.364494984490397"><ele>254.66666666666669</ele><time>2026-04-10T13:34:51Z</time></trkpt><trkpt lat="41.68511658703182" lon="13.364240634859032"><ele>255.0</ele><time>2026-04-10T13:34:52Z</time></trkpt><trkpt lat="41.685187322957944" lon="13.364012162925379"><ele>255.0</ele><time>2026-04-10T13:34:53Z</time></trkpt><trkpt lat="41.685249228945615" lon="13.363775453354151"><ele>255.0</ele><time>2026-04-10T13:34:54Z</time></trkpt><trkpt lat="41.685298936025774" lon="13.363543383697733"><ele>255.0</ele><time>2026-04-10T13:34:55Z</time></trkpt><trkpt lat="41.685337095091775" lon="13.363303515680302"><ele>255.0</ele><time>2026-04-10T13:34:56Z</time></trkpt><trkpt lat="41.685375966019585" lon="13.363049823871364"><ele>255.0</ele><time>2026-04-10T13:34:57Z</time></trkpt><trkpt lat="41.68541103600142" lon="13.362767363240593"><ele>255.0</ele><time>2026-04-10T13:34:58Z</time></trkpt><trkpt lat="41.68545638191871" lon="13.362467869126032"><ele>255.33333333333331</ele><time>2026-04-10T13:34:59Z</time></trkpt><trkpt lat="41.68549089589104" lon="13.362220279589197"><ele>255.66666666666666</ele><time>2026-04-10T13:35:00Z</time></trkpt><trkpt lat="41.685517143955344" lon="13.36202646928575"><ele>256.0</ele><time>2026-04-10T13:35:01Z</time></trkpt><trkpt lat="41.6855535130229" lon="13.361870319677031"><ele>255.5</ele><time>2026-04-10T13:35:02Z</time></trkpt><trkpt lat="41.685604024953705" lon="13.361745154452212"><ele>255.0</ele><time>2026-04-10T13:35:03Z</time></trkpt><trkpt lat="41.68567466402532" lon="13.361646173902733"><ele>254.5</ele><time>2026-04-10T13:35:04Z</time></trkpt><trkpt lat="41.68578605734342" lon="13.361601160996743"><ele>254.0</ele><time>2026-04-10T13:35:05Z</time></trkpt><trkpt lat="41.685908255597404" lon="13.361527273149992"><ele>254.0</ele><time>2026-04-10T13:35:06Z</time></trkpt><trkpt lat="41.686029558826185" lon="13.361465681741787"><ele>254.0</ele><time>2026-04-10T13:35:07Z</time></trkpt><trkpt lat="41.68612411212285" lon="13.361337014278638"><ele>254.0</ele><time>2026-04-10T13:35:08Z</time></trkpt><trkpt lat="41.686170021044596" lon="13.361151746273947"><ele>254.0</ele><time>2026-04-10T13:35:09Z</time></trkpt><trkpt lat="41.68624957734091" lon="13.360939425741828"><ele>254.0</ele><time>2026-04-10T13:35:10Z</time></trkpt><trkpt lat="41.68631735225844" lon="13.36070163299106"><ele>254.0</ele><time>2026-04-10T13:35:11Z</time></trkpt><trkpt lat="41.68641305314132" lon="13.360486169331114"><ele>254.0</ele><time>2026-04-10T13:35:12Z</time></trkpt><trkpt lat="41.68651138384473" lon="13.36025309508198"><ele>253.66666666666669</ele><time>2026-04-10T13:35:13Z</time></trkpt><trkpt lat="41.686613964930935" lon="13.360007227987097"><ele>253.33333333333331</ele><time>2026-04-10T13:35:14Z</time></trkpt><trkpt lat="41.68671618263441" lon="13.359746024608201"><ele>253.0</ele><time>2026-04-10T13:35:15Z</time></trkpt><trkpt lat="41.686825961328076" lon="13.359473419010136"><ele>253.5</ele><time>2026-04-10T13:35:16Z</time></trkpt><trkpt lat="41.6869492311701" lon="13.359160019427916"><ele>254.0</ele><time>2026-04-10T13:35:17Z</time></trkpt><trkpt lat="41.687062512328936" lon="13.358898750367704"><ele>253.66666666666669</ele><time>2026-04-10T13:35:18Z</time></trkpt><trkpt lat="41.68716248045883" lon="13.358668565516819"><ele>253.33333333333331</ele><time>2026-04-10T13:35:19Z</time></trkpt><trkpt lat="41.68725706645896" lon="13.358438458919718"><ele>253.0</ele><time>2026-04-10T13:35:20Z</time></trkpt><trkpt lat="41.68734115506335" lon="13.358201799392196"><ele>252.66666666666666</ele><time>2026-04-10T13:35:21Z</time></trkpt><trkpt lat="41.687406499252745" lon="13.357949182845333"><ele>252.33333333333331</ele><time>2026-04-10T13:35:22Z</time></trkpt><trkpt lat="41.687459408652096" lon="13.357672624781904"><ele>252.0</ele><time>2026-04-10T13:35:23Z</time></trkpt><trkpt lat="41.687522101348414" lon="13.357389969614317"><ele>252.33333333333331</ele><time>2026-04-10T13:35:24Z</time></trkpt><trkpt lat="41.68757549239891" lon="13.357147142821017"><ele>252.66666666666666</ele><time>2026-04-10T13:35:25Z</time></trkpt><trkpt lat="41.68762314020305" lon="13.356944139775738"><ele>253.0</ele><time>2026-04-10T13:35:26Z</time></trkpt><trkpt lat="41.68766996304342" lon="13.3567899078394"><ele>253.0</ele><time>2026-04-10T13:35:27Z</time></trkpt><trkpt lat="41.687710378093286" lon="13.356649689518864"><ele>253.0</ele><time>2026-04-10T13:35:28Z</time></trkpt><trkpt lat="41.68775640966561" lon="13.356541831140197"><ele>253.0</ele><time>2026-04-10T13:35:29Z</time></trkpt><trkpt lat="41.68782536976332" lon="13.356459479695424"><ele>253.0</ele><time>2026-04-10T13:35:30Z</time></trkpt><trkpt lat="41.68792174727202" lon="13.356415995541143"><ele>253.0</ele><time>2026-04-10T13:35:31Z</time></trkpt><trkpt lat="41.68803255037318" lon="13.356442098930208"><ele>253.25</ele><time>2026-04-10T13:35:32Z</time></trkpt><trkpt lat="41.68815031512846" lon="13.356466481320396"><ele>253.5</ele><time>2026-04-10T13:35:33Z</time></trkpt><trkpt lat="41.68827464517387" lon="13.356492360890195"><ele>253.75</ele><time>2026-04-10T13:35:33.999Z</time></trkpt><trkpt lat="41.68840611615099" lon="13.356511331458718"><ele>254.0</ele><time>2026-04-10T13:35:34.999Z</time></trkpt><trkpt lat="41.68853198082607" lon="13.356461388544762"><ele>254.33333333333334</ele><time>2026-04-10T13:35:35.999Z</time></trkpt><trkpt lat="41.688644321049466" lon="13.35634579278975"><ele>254.66666666666669</ele><time>2026-04-10T13:35:36.999Z</time></trkpt><trkpt lat="41.68872133803538" lon="13.356154001637975"><ele>255.0</ele><time>2026-04-10T13:35:37.999Z</time></trkpt><trkpt lat="41.68881765681617" lon="13.355956867940444"><ele>255.0</ele><time>2026-04-10T13:35:38.999Z</time></trkpt><trkpt lat="41.688916489574915" lon="13.355750887892881"><ele>255.0</ele><time>2026-04-10T13:35:39.999Z</time></trkpt><trkpt lat="41.68900967084926" lon="13.355578638715356"><ele>255.0</ele><time>2026-04-10T13:35:40.999Z</time></trkpt><trkpt lat="41.68909455852833" lon="13.355380004125921"><ele>255.0</ele><time>2026-04-10T13:35:41.999Z</time></trkpt><trkpt lat="41.68918505386048" lon="13.355168195548444"><ele>255.0</ele><time>2026-04-10T13:35:42.999Z</time></trkpt><trkpt lat="41.68929319866775" lon="13.354935544458279"><ele>255.0</ele><time>2026-04-10T13:35:43.999Z</time></trkpt><trkpt lat="41.689398334728104" lon="13.354696650185907"><ele>256.0</ele><time>2026-04-10T13:35:44.999Z</time></trkpt><trkpt lat="41.68948842059915" lon="13.354481413248163"><ele>257.0</ele><time>2026-04-10T13:35:45.999Z</time></trkpt><trkpt lat="41.689569797940564" lon="13.354293366533831"><ele>258.0</ele><time>2026-04-10T13:35:46.999Z</time></trkpt><trkpt lat="41.689646248115565" lon="13.354113265044205"><ele>258.0</ele><time>2026-04-10T13:35:47.999Z</time></trkpt><trkpt lat="41.6897162161361" lon="13.353955695062698"><ele>258.0</ele><time>2026-04-10T13:35:48.999Z</time></trkpt><trkpt lat="41.68977592037174" lon="13.353821885685617"><ele>258.0</ele><time>2026-04-10T13:35:49.999Z</time></trkpt><trkpt lat="41.68982772648443" lon="13.353705412582068"><ele>258.0</ele><time>2026-04-10T13:35:50.999Z</time></trkpt><trkpt lat="41.68988175823694" lon="13.35359097177095"><ele>258.0</ele><time>2026-04-10T13:35:52.999Z</time></trkpt><trkpt lat="41.690041432107975" lon="13.353633682478561"><ele>258.0</ele><time>2026-04-10T13:35:55.999Z</time></trkpt><trkpt lat="41.69013846411762" lon="13.353678553573376"><ele>258.0</ele><time>2026-04-10T13:35:56.999Z</time></trkpt><trkpt lat="41.69027981214645" lon="13.353725850960327"><ele>258.0</ele><time>2026-04-10T13:35:57.999Z</time></trkpt><trkpt lat="41.69044289592086" lon="13.353788447745382"><ele>258.0</ele><time>2026-04-10T13:35:58.999Z</time></trkpt><trkpt lat="41.69055812600655" lon="13.353823490097412"><ele>258.0</ele><time>2026-04-10T13:35:59.999Z</time></trkpt><trkpt lat="41.6906631909652" lon="13.353807942136115"><ele>258.0</ele><time>2026-04-10T13:36:00.999Z</time></trkpt><trkpt lat="41.69078206627306" lon="13.353743214989228"><ele>258.0</ele><time>2026-04-10T13:36:01.999Z</time></trkpt><trkpt lat="41.690919751784726" lon="13.353634976811676"><ele>258.0</ele><time>2026-04-10T13:36:02.999Z</time></trkpt><trkpt lat="41.6910231838976" lon="13.353557495310607"><ele>258.0</ele><time>2026-04-10T13:36:03.999Z</time></trkpt><trkpt lat="41.69110619286144" lon="13.353483251082187"><ele>258.0</ele><time>2026-04-10T13:36:04.999Z</time></trkpt><trkpt lat="41.69117392678008" lon="13.353430374214293"><ele>258.0</ele><time>2026-04-10T13:36:05.999Z</time></trkpt><trkpt lat="41.69125065742428" lon="13.35328818030475"><ele>258.0</ele><time>2026-04-10T13:36:07.999Z</time></trkpt><trkpt lat="41.691264468658126" lon="13.353150665326819"><ele>258.25</ele><time>2026-04-10T13:36:08.999Z</time></trkpt><trkpt lat="41.69126682276305" lon="13.352976794053177"><ele>258.5</ele><time>2026-04-10T13:36:09.999Z</time></trkpt><trkpt lat="41.69126581010786" lon="13.352792788856929"><ele>258.75</ele><time>2026-04-10T13:36:10.999Z</time></trkpt><trkpt lat="41.69127028713523" lon="13.35262216025021"><ele>259.0</ele><time>2026-04-10T13:36:11.999Z</time></trkpt><trkpt lat="41.69128580078457" lon="13.352488568664471"><ele>259.0</ele><time>2026-04-10T13:36:12.999Z</time></trkpt><trkpt lat="41.69130526287215" lon="13.352387134996444"><ele>259.0</ele><time>2026-04-10T13:36:13.999Z</time></trkpt><trkpt lat="41.691319479263925" lon="13.352303995160145"><ele>259.0</ele><time>2026-04-10T13:36:14.999Z</time></trkpt><trkpt lat="41.69132864300374" lon="13.352213899739763"><ele>259.0</ele><time>2026-04-10T13:36:16.999Z</time></trkpt><trkpt lat="41.691241091970106" lon="13.352073433534452"><ele>259.0</ele><time>2026-04-10T13:36:19.999Z</time></trkpt><trkpt lat="41.691170800954886" lon="13.352071375123042"><ele>259.0</ele><time>2026-04-10T13:36:22.999Z</time></trkpt><trkpt lat="41.69110821580576" lon="13.352061848731598"><ele>259.0</ele><time>2026-04-10T13:36:25.999Z</time></trkpt><trkpt lat="41.69107674015436" lon="13.352242892476731"><ele>259.0</ele><time>2026-04-10T13:36:32.999Z</time></trkpt><trkpt lat="41.69124549557656" lon="13.352295659438163"><ele>259.0</ele><time>2026-04-10T13:36:51Z</time></trkpt><trkpt lat="41.69107907125238" lon="13.352058103553109"><ele>259.0</ele><time>2026-04-10T13:36:57Z</time></trkpt><trkpt lat="41.69124538965467" lon="13.352296685828202"><ele>259.0</ele><time>2026-04-10T13:36:58Z</time></trkpt><trkpt lat="41.69107880905177" lon="13.352058062790274"><ele>258.8</ele><time>2026-04-10T13:37:02Z</time></trkpt><trkpt lat="41.69106203498396" lon="13.352261323091598"><ele>258.59999999999997</ele><time>2026-04-10T13:37:07Z</time></trkpt><trkpt lat="41.690971497837985" lon="13.352239615967568"><ele>258.4</ele><time>2026-04-10T13:40:58Z</time></trkpt><trkpt lat="41.690922582452764" lon="13.352165942998528"><ele>258.2</ele><time>2026-04-10T13:41:00Z</time></trkpt><trkpt lat="41.69096648174993" lon="13.352093368248594"><ele>258.0</ele><time>2026-04-10T13:41:03Z</time></trkpt><trkpt lat="41.69103484112907" lon="13.352093652835487"><ele>258.25</ele><time>2026-04-10T13:41:04Z</time></trkpt><trkpt lat="41.69112906353041" lon="13.352115751180657"><ele>258.5</ele><time>2026-04-10T13:41:05Z</time></trkpt><trkpt lat="41.691251240955104" lon="13.352126884224612"><ele>258.75</ele><time>2026-04-10T13:41:06Z</time></trkpt><trkpt lat="41.69138021284464" lon="13.352139044243923"><ele>259.0</ele><time>2026-04-10T13:41:07Z</time></trkpt><trkpt lat="41.69150687954712" lon="13.352134523154891"><ele>259.0</ele><time>2026-04-10T13:41:08Z</time></trkpt><trkpt lat="41.691618427022014" lon="13.352128684615908"><ele>259.0</ele><time>2026-04-10T13:41:09Z</time></trkpt><trkpt lat="41.69172201256786" lon="13.352122147887508"><ele>259.0</ele><time>2026-04-10T13:41:10Z</time></trkpt><trkpt lat="41.69182253326112" lon="13.352115955287651"><ele>259.0</ele><time>2026-04-10T13:41:11Z</time></trkpt><trkpt lat="41.691926490991094" lon="13.352111392375985"><ele>259.0</ele><time>2026-04-10T13:41:12Z</time></trkpt><trkpt lat="41.69203783796293" lon="13.352104304122967"><ele>259.0</ele><time>2026-04-10T13:41:13Z</time></trkpt><trkpt lat="41.69215159797579" lon="13.35210093499963"><ele>259.0</ele><time>2026-04-10T13:41:14Z</time></trkpt><trkpt lat="41.69226126517022" lon="13.35210643056976"><ele>259.0</ele><time>2026-04-10T13:41:15Z</time></trkpt><trkpt lat="41.692386330927675" lon="13.352099212670925"><ele>259.0</ele><time>2026-04-10T13:41:16Z</time></trkpt><trkpt lat="41.692545849245604" lon="13.35209544936516"><ele>259.0</ele><time>2026-04-10T13:41:17Z</time></trkpt><trkpt lat="41.692737870214366" lon="13.352095939112022"><ele>259.0</ele><time>2026-04-10T13:41:18Z</time></trkpt><trkpt lat="41.69289362798118" lon="13.352098825318336"><ele>259.0</ele><time>2026-04-10T13:41:19Z</time></trkpt><trkpt lat="41.69304091569549" lon="13.352110547703075"><ele>259.66666666666663</ele><time>2026-04-10T13:41:20Z</time></trkpt><trkpt lat="41.69320699045943" lon="13.352138237172609"><ele>260.3333333333333</ele><time>2026-04-10T13:41:21Z</time></trkpt><trkpt lat="41.69339265443777" lon="13.352191418304775"><ele>261.0</ele><time>2026-04-10T13:41:22Z</time></trkpt><trkpt lat="41.69359352311127" lon="13.352260300102623"><ele>261.3333333333333</ele><time>2026-04-10T13:41:23Z</time></trkpt><trkpt lat="41.693796503351756" lon="13.352325856582661"><ele>261.66666666666663</ele><time>2026-04-10T13:41:24Z</time></trkpt><trkpt lat="41.69399683399196" lon="13.352381352067288"><ele>262.0</ele><time>2026-04-10T13:41:25Z</time></trkpt><trkpt lat="41.69418529623445" lon="13.352442677046236"><ele>262.0</ele><time>2026-04-10T13:41:26Z</time></trkpt><trkpt lat="41.69436048450297" lon="13.352498706640079"><ele>262.0</ele><time>2026-04-10T13:41:27Z</time></trkpt><trkpt lat="41.694531921650444" lon="13.352552494315843"><ele>262.0</ele><time>2026-04-10T13:41:28Z</time></trkpt><trkpt lat="41.694684455167135" lon="13.352605820070112"><ele>262.5</ele><time>2026-04-10T13:41:29Z</time></trkpt><trkpt lat="41.69481981992418" lon="13.352657611676928"><ele>263.0</ele><time>2026-04-10T13:41:30Z</time></trkpt><trkpt lat="41.694946179587554" lon="13.352700758742616"><ele>263.5</ele><time>2026-04-10T13:41:31Z</time></trkpt><trkpt lat="41.69505790277031" lon="13.352743694351847"><ele>264.0</ele><time>2026-04-10T13:41:32Z</time></trkpt><trkpt lat="41.69516992527378" lon="13.352793224809151"><ele>264.25</ele><time>2026-04-10T13:41:33Z</time></trkpt><trkpt lat="41.695291800687706" lon="13.352852018712994"><ele>264.5</ele><time>2026-04-10T13:41:34Z</time></trkpt><trkpt lat="41.695418237405924" lon="13.352916862346904"><ele>264.75</ele><time>2026-04-10T13:41:35Z</time></trkpt><trkpt lat="41.695549618028146" lon="13.352988851175047"><ele>265.0</ele><time>2026-04-10T13:41:36Z</time></trkpt><trkpt lat="41.695679731820405" lon="13.353076137742063"><ele>265.25</ele><time>2026-04-10T13:41:37Z</time></trkpt><trkpt lat="41.695807600676304" lon="13.353168923641997"><ele>265.5</ele><time>2026-04-10T13:41:38Z</time></trkpt><trkpt lat="41.69592563224364" lon="13.353260517420173"><ele>265.75</ele><time>2026-04-10T13:41:39Z</time></trkpt><trkpt lat="41.69603292422628" lon="13.353351405000673"><ele>266.0</ele><time>2026-04-10T13:41:40Z</time></trkpt><trkpt lat="41.69613300927507" lon="13.353439458893638"><ele>266.5</ele><time>2026-04-10T13:41:41Z</time></trkpt><trkpt lat="41.69623372793133" lon="13.353525523105988"><ele>267.0</ele><time>2026-04-10T13:41:42Z</time></trkpt><trkpt lat="41.69633566380942" lon="13.353610929363446"><ele>267.5</ele><time>2026-04-10T13:41:43Z</time></trkpt><trkpt lat="41.69643677857857" lon="13.353694542289283"><ele>268.0</ele><time>2026-04-10T13:41:44Z</time></trkpt><trkpt lat="41.69653658739058" lon="13.353779890457142"><ele>268.0</ele><time>2026-04-10T13:41:45Z</time></trkpt><trkpt lat="41.69663714843541" lon="13.35386162590819"><ele>268.0</ele><time>2026-04-10T13:41:46Z</time></trkpt><trkpt lat="41.69673841803955" lon="13.353946250642615"><ele>268.0</ele><time>2026-04-10T13:41:47Z</time></trkpt><trkpt lat="41.69684252686427" lon="13.35403834585519"><ele>268.0</ele><time>2026-04-10T13:41:48Z</time></trkpt><trkpt lat="41.69694650438572" lon="13.354135862411006"><ele>268.75</ele><time>2026-04-10T13:41:49Z</time></trkpt><trkpt lat="41.69704507070664" lon="13.354241828837118"><ele>269.5</ele><time>2026-04-10T13:41:50Z</time></trkpt><trkpt lat="41.697125584297076" lon="13.354344411812361"><ele>270.25</ele><time>2026-04-10T13:41:51Z</time></trkpt><trkpt lat="41.697193677442066" lon="13.354454816160546"><ele>271.0</ele><time>2026-04-10T13:41:52Z</time></trkpt><trkpt lat="41.69725580081771" lon="13.354589324980887"><ele>270.5</ele><time>2026-04-10T13:41:53Z</time></trkpt><trkpt lat="41.6973279254886" lon="13.354729830530026"><ele>270.0</ele><time>2026-04-10T13:41:54Z</time></trkpt><trkpt lat="41.697406187365786" lon="13.35488280392789"><ele>269.5</ele><time>2026-04-10T13:41:55Z</time></trkpt><trkpt lat="41.69749011401824" lon="13.355039362333414"><ele>269.0</ele><time>2026-04-10T13:41:56Z</time></trkpt><trkpt lat="41.69757099463484" lon="13.355173613392648"><ele>269.0</ele><time>2026-04-10T13:41:57Z</time></trkpt><trkpt lat="41.69766104406014" lon="13.355320377093912"><ele>269.0</ele><time>2026-04-10T13:41:58Z</time></trkpt><trkpt lat="41.697782915394484" lon="13.355482731600892"><ele>269.0</ele><time>2026-04-10T13:41:59Z</time></trkpt><trkpt lat="41.69790615395615" lon="13.355630921292024"><ele>269.6666666666667</ele><time>2026-04-10T13:42:00Z</time></trkpt><trkpt lat="41.698022913589824" lon="13.355765204878114"><ele>270.3333333333333</ele><time>2026-04-10T13:42:01Z</time></trkpt><trkpt lat="41.69814143541567" lon="13.35588890735247"><ele>271.0</ele><time>2026-04-10T13:42:02Z</time></trkpt><trkpt lat="41.698268520102964" lon="13.356005380469442"><ele>271.0</ele><time>2026-04-10T13:42:03Z</time></trkpt><trkpt lat="41.69838395534065" lon="13.35609892064684"><ele>271.0</ele><time>2026-04-10T13:42:04Z</time></trkpt><trkpt lat="41.69850392808696" lon="13.356187165251958"><ele>271.0</ele><time>2026-04-10T13:42:05Z</time></trkpt><trkpt lat="41.698629384936694" lon="13.356278797574085"><ele>271.0</ele><time>2026-04-10T13:42:06Z</time></trkpt><trkpt lat="41.69876191439509" lon="13.356365831146562"><ele>271.75</ele><time>2026-04-10T13:42:07Z</time></trkpt><trkpt lat="41.69888829951257" lon="13.356436408919794"><ele>272.5</ele><time>2026-04-10T13:42:08Z</time></trkpt><trkpt lat="41.69901666687843" lon="13.35649568181366"><ele>273.25</ele><time>2026-04-10T13:42:09Z</time></trkpt><trkpt lat="41.69914801835647" lon="13.35654571512412"><ele>274.0</ele><time>2026-04-10T13:42:10Z</time></trkpt><trkpt lat="41.69928251383632" lon="13.356592795438182"><ele>274.0</ele><time>2026-04-10T13:42:11Z</time></trkpt><trkpt lat="41.699408227044806" lon="13.356633203954903"><ele>274.0</ele><time>2026-04-10T13:42:12Z</time></trkpt><trkpt lat="41.69954148059141" lon="13.35667783892044"><ele>274.0</ele><time>2026-04-10T13:42:13Z</time></trkpt><trkpt lat="41.699676966238776" lon="13.356723463564087"><ele>274.0</ele><time>2026-04-10T13:42:14Z</time></trkpt><trkpt lat="41.699809239423566" lon="13.356769582981789"><ele>274.0</ele><time>2026-04-10T13:42:15Z</time></trkpt><trkpt lat="41.699944904407666" lon="13.356820374588372"><ele>274.0</ele><time>2026-04-10T13:42:16Z</time></trkpt><trkpt lat="41.700073520078696" lon="13.356870673892068"><ele>274.0</ele><time>2026-04-10T13:42:17Z</time></trkpt><trkpt lat="41.70020385461078" lon="13.356927672432146"><ele>274.0</ele><time>2026-04-10T13:42:18Z</time></trkpt><trkpt lat="41.70034623174687" lon="13.356987264238382"><ele>274.66666666666663</ele><time>2026-04-10T13:42:19Z</time></trkpt><trkpt lat="41.700497800192636" lon="13.357045424921026"><ele>275.3333333333333</ele><time>2026-04-10T13:42:20Z</time></trkpt><trkpt lat="41.70064448362006" lon="13.357096643897869"><ele>276.0</ele><time>2026-04-10T13:42:21Z</time></trkpt><trkpt lat="41.70078883102852" lon="13.3571429900405"><ele>276.0</ele><time>2026-04-10T13:42:22Z</time></trkpt><trkpt lat="41.70093742584375" lon="13.35718740155095"><ele>276.0</ele><time>2026-04-10T13:42:23Z</time></trkpt><trkpt lat="41.70108780576395" lon="13.357230626702147"><ele>276.0</ele><time>2026-04-10T13:42:24Z</time></trkpt><trkpt lat="41.701242367240006" lon="13.357273571245434"><ele>276.3333333333333</ele><time>2026-04-10T13:42:25Z</time></trkpt><trkpt lat="41.70141125714627" lon="13.35732049166565"><ele>276.66666666666663</ele><time>2026-04-10T13:42:26Z</time></trkpt><trkpt lat="41.70160877081204" lon="13.357363787465584"><ele>277.0</ele><time>2026-04-10T13:42:27Z</time></trkpt><trkpt lat="41.701849805732486" lon="13.357421529636266"><ele>277.5</ele><time>2026-04-10T13:42:28Z</time></trkpt><trkpt lat="41.70211257925218" lon="13.35749509731044"><ele>278.0</ele><time>2026-04-10T13:42:29Z</time></trkpt><trkpt lat="41.702390090454465" lon="13.357573523433894"><ele>278.0</ele><time>2026-04-10T13:42:30Z</time></trkpt><trkpt lat="41.70263831006028" lon="13.357641775526718"><ele>278.0</ele><time>2026-04-10T13:42:31Z</time></trkpt><trkpt lat="41.70285446400684" lon="13.357695527802381"><ele>279.0</ele><time>2026-04-10T13:42:32Z</time></trkpt><trkpt lat="41.703055178964554" lon="13.357730514195044"><ele>280.0</ele><time>2026-04-10T13:42:33Z</time></trkpt><trkpt lat="41.70324285221899" lon="13.357761959022872"><ele>281.0</ele><time>2026-04-10T13:42:34Z</time></trkpt><trkpt lat="41.703418677738846" lon="13.357794285792725"><ele>281.33333333333337</ele><time>2026-04-10T13:42:35Z</time></trkpt><trkpt lat="41.70359619355753" lon="13.357827290667005"><ele>281.6666666666667</ele><time>2026-04-10T13:42:36Z</time></trkpt><trkpt lat="41.7037778804058" lon="13.35786410352464"><ele>282.0</ele><time>2026-04-10T13:42:37Z</time></trkpt><trkpt lat="41.703962460451585" lon="13.357903353231224"><ele>282.0</ele><time>2026-04-10T13:42:38Z</time></trkpt><trkpt lat="41.70413941193275" lon="13.357946616409599"><ele>282.0</ele><time>2026-04-10T13:42:39Z</time></trkpt><trkpt lat="41.704300957586476" lon="13.357988714199994"><ele>282.0</ele><time>2026-04-10T13:42:40Z</time></trkpt><trkpt lat="41.70444969462233" lon="13.3580303659505"><ele>282.5</ele><time>2026-04-10T13:42:41Z</time></trkpt><trkpt lat="41.704596493123084" lon="13.358070691648848"><ele>283.0</ele><time>2026-04-10T13:42:42Z</time></trkpt><trkpt lat="41.70474045366667" lon="13.358109134927293"><ele>283.5</ele><time>2026-04-10T13:42:43Z</time></trkpt><trkpt lat="41.70488825590093" lon="13.358151584393298"><ele>284.0</ele><time>2026-04-10T13:42:44Z</time></trkpt><trkpt lat="41.70506679544494" lon="13.358203194674127"><ele>284.0</ele><time>2026-04-10T13:42:45Z</time></trkpt><trkpt lat="41.70527330700771" lon="13.358280760355415"><ele>284.0</ele><time>2026-04-10T13:42:46Z</time></trkpt><trkpt lat="41.70544896856484" lon="13.358371521509696"><ele>284.0</ele><time>2026-04-10T13:42:47Z</time></trkpt><trkpt lat="41.705608994136696" lon="13.35844238272546"><ele>284.0</ele><time>2026-04-10T13:42:48Z</time></trkpt><trkpt lat="41.705752976223586" lon="13.358496588585137"><ele>284.0</ele><time>2026-04-10T13:42:49Z</time></trkpt><trkpt lat="41.705924709773456" lon="13.35855805868486"><ele>284.0</ele><time>2026-04-10T13:42:50Z</time></trkpt><trkpt lat="41.70614165813817" lon="13.358623324470747"><ele>283.6666666666667</ele><time>2026-04-10T13:42:51Z</time></trkpt><trkpt lat="41.70635369989796" lon="13.35867210449059"><ele>283.3333333333333</ele><time>2026-04-10T13:42:52Z</time></trkpt><trkpt lat="41.70654137257208" lon="13.358687247294826"><ele>283.0</ele><time>2026-04-10T13:42:53Z</time></trkpt><trkpt lat="41.706706450171" lon="13.35869713237528"><ele>283.0</ele><time>2026-04-10T13:42:54Z</time></trkpt><trkpt lat="41.70687236003621" lon="13.358704370677827"><ele>283.0</ele><time>2026-04-10T13:42:55Z</time></trkpt><trkpt lat="41.7070614568648" lon="13.358718828596253"><ele>283.0</ele><time>2026-04-10T13:42:56Z</time></trkpt><trkpt lat="41.70727626993117" lon="13.358727221302221"><ele>285.0</ele><time>2026-04-10T13:42:57Z</time></trkpt><trkpt lat="41.70751263490642" lon="13.358743298138132"><ele>287.0</ele><time>2026-04-10T13:42:58Z</time></trkpt><trkpt lat="41.70776464061029" lon="13.358768069429141"><ele>289.0</ele><time>2026-04-10T13:42:59Z</time></trkpt><trkpt lat="41.708003303575694" lon="13.358800171357663"><ele>291.0</ele><time>2026-04-10T13:43:00Z</time></trkpt><trkpt lat="41.70822035317603" lon="13.358829853785398"><ele>291.0</ele><time>2026-04-10T13:43:01Z</time></trkpt><trkpt lat="41.70841625887073" lon="13.35885228326701"><ele>291.0</ele><time>2026-04-10T13:43:02Z</time></trkpt><trkpt lat="41.70859684638849" lon="13.358867471822025"><ele>291.0</ele><time>2026-04-10T13:43:03Z</time></trkpt><trkpt lat="41.70877209460051" lon="13.358877750373804"><ele>291.6666666666667</ele><time>2026-04-10T13:43:04Z</time></trkpt><trkpt lat="41.70894430111671" lon="13.358874472346233"><ele>292.33333333333337</ele><time>2026-04-10T13:43:05Z</time></trkpt><trkpt lat="41.709104654988394" lon="13.35884284181697"><ele>293.0</ele><time>2026-04-10T13:43:06Z</time></trkpt><trkpt lat="41.7092573602005" lon="13.358763203922221"><ele>293.6666666666667</ele><time>2026-04-10T13:43:07Z</time></trkpt><trkpt lat="41.709405514435524" lon="13.358640071471083"><ele>294.3333333333333</ele><time>2026-04-10T13:43:08Z</time></trkpt><trkpt lat="41.709550716093275" lon="13.35847416421087"><ele>295.0</ele><time>2026-04-10T13:43:09Z</time></trkpt><trkpt lat="41.70968798596392" lon="13.358272264087386"><ele>296.0</ele><time>2026-04-10T13:43:10Z</time></trkpt><trkpt lat="41.709827879268445" lon="13.358063612484532"><ele>297.0</ele><time>2026-04-10T13:43:11Z</time></trkpt><trkpt lat="41.70996882263384" lon="13.357858998265224"><ele>298.0</ele><time>2026-04-10T13:43:12Z</time></trkpt><trkpt lat="41.71009787053156" lon="13.35766680799185"><ele>298.0</ele><time>2026-04-10T13:43:13Z</time></trkpt><trkpt lat="41.710220938195455" lon="13.357489086106925"><ele>298.0</ele><time>2026-04-10T13:43:14Z</time></trkpt><trkpt lat="41.71034642015365" lon="13.35731108594918"><ele>298.0</ele><time>2026-04-10T13:43:15Z</time></trkpt><trkpt lat="41.71045862318737" lon="13.357157001465648"><ele>299.25</ele><time>2026-04-10T13:43:16Z</time></trkpt><trkpt lat="41.71055922140057" lon="13.357015262623932"><ele>300.5</ele><time>2026-04-10T13:43:17Z</time></trkpt><trkpt lat="41.71065778438348" lon="13.356876438738315"><ele>301.75</ele><time>2026-04-10T13:43:18Z</time></trkpt><trkpt lat="41.71075707603094" lon="13.356735294729669"><ele>303.0</ele><time>2026-04-10T13:43:19Z</time></trkpt><trkpt lat="41.7108544987308" lon="13.35659550094338"><ele>303.0</ele><time>2026-04-10T13:43:20Z</time></trkpt><trkpt lat="41.71094624400047" lon="13.356462554162464"><ele>303.0</ele><time>2026-04-10T13:43:21Z</time></trkpt><trkpt lat="41.71104422293632" lon="13.356322158561014"><ele>303.0</ele><time>2026-04-10T13:43:22Z</time></trkpt><trkpt lat="41.71115751004366" lon="13.356151362276023"><ele>303.0</ele><time>2026-04-10T13:43:23Z</time></trkpt><trkpt lat="41.711281018342675" lon="13.355961300836626"><ele>303.6666666666667</ele><time>2026-04-10T13:43:24Z</time></trkpt><trkpt lat="41.71141626954948" lon="13.355782320694223"><ele>304.33333333333337</ele><time>2026-04-10T13:43:25Z</time></trkpt><trkpt lat="41.71154956231371" lon="13.355597523892834"><ele>305.0</ele><time>2026-04-10T13:43:26Z</time></trkpt><trkpt lat="41.71167693586272" lon="13.355412793342394"><ele>305.0</ele><time>2026-04-10T13:43:27Z</time></trkpt><trkpt lat="41.71180024809176" lon="13.355237405071417"><ele>305.0</ele><time>2026-04-10T13:43:28Z</time></trkpt><trkpt lat="41.711921934211475" lon="13.3550703619885"><ele>305.0</ele><time>2026-04-10T13:43:29Z</time></trkpt><trkpt lat="41.712039001394736" lon="13.354905105366047"><ele>307.0</ele><time>2026-04-10T13:43:30Z</time></trkpt><trkpt lat="41.71215721908119" lon="13.354739240588355"><ele>309.0</ele><time>2026-04-10T13:43:31Z</time></trkpt><trkpt lat="41.712277610593034" lon="13.354567060429057"><ele>311.0</ele><time>2026-04-10T13:43:32Z</time></trkpt><trkpt lat="41.71239312717017" lon="13.354404110535803"><ele>311.0</ele><time>2026-04-10T13:43:33Z</time></trkpt><trkpt lat="41.712503613763424" lon="13.354247987396127"><ele>311.0</ele><time>2026-04-10T13:43:34Z</time></trkpt><trkpt lat="41.712613686791165" lon="13.354092564646614"><ele>311.0</ele><time>2026-04-10T13:43:35Z</time></trkpt><trkpt lat="41.7127288393713" lon="13.353930675674464"><ele>312.33333333333337</ele><time>2026-04-10T13:43:36Z</time></trkpt><trkpt lat="41.712846170983894" lon="13.353762553989899"><ele>313.6666666666667</ele><time>2026-04-10T13:43:37Z</time></trkpt><trkpt lat="41.712966520580224" lon="13.353592150683948"><ele>315.0</ele><time>2026-04-10T13:43:38Z</time></trkpt><trkpt lat="41.71309473789757" lon="13.353427268015475"><ele>315.0</ele><time>2026-04-10T13:43:39Z</time></trkpt><trkpt lat="41.71322392274368" lon="13.353262652486558"><ele>315.0</ele><time>2026-04-10T13:43:40Z</time></trkpt><trkpt lat="41.71336352173129" lon="13.353105876236869"><ele>315.0</ele><time>2026-04-10T13:43:41Z</time></trkpt><trkpt lat="41.71351560951992" lon="13.352957829334072"><ele>316.3333333333333</ele><time>2026-04-10T13:43:42Z</time></trkpt><trkpt lat="41.71368497061023" lon="13.352813231617004"><ele>317.66666666666663</ele><time>2026-04-10T13:43:43Z</time></trkpt><trkpt lat="41.71386623460845" lon="13.352679152182946"><ele>319.0</ele><time>2026-04-10T13:43:44Z</time></trkpt><trkpt lat="41.71404783879679" lon="13.352564836695795"><ele>319.0</ele><time>2026-04-10T13:43:45Z</time></trkpt><trkpt lat="41.71422786819302" lon="13.352474326984474"><ele>319.0</ele><time>2026-04-10T13:43:46Z</time></trkpt><trkpt lat="41.71441440033327" lon="13.352393227848781"><ele>319.0</ele><time>2026-04-10T13:43:47Z</time></trkpt><trkpt lat="41.714604322749615" lon="13.352324663287797"><ele>321.3333333333333</ele><time>2026-04-10T13:43:48Z</time></trkpt><trkpt lat="41.714791596590125" lon="13.352271948976076"><ele>323.6666666666667</ele><time>2026-04-10T13:43:49Z</time></trkpt><trkpt lat="41.71497634276323" lon="13.352241328987342"><ele>326.0</ele><time>2026-04-10T13:43:50Z</time></trkpt><trkpt lat="41.715178302889086" lon="13.352211046412599"><ele>323.5</ele><time>2026-04-10T13:43:51Z</time></trkpt><trkpt lat="41.71540111159387" lon="13.352186435488669"><ele>321.0</ele><time>2026-04-10T13:43:52Z</time></trkpt><trkpt lat="41.71563270086279" lon="13.35217237863106"><ele>321.0</ele><time>2026-04-10T13:43:53Z</time></trkpt><trkpt lat="41.71584682330029" lon="13.352157088555334"><ele>321.0</ele><time>2026-04-10T13:43:54Z</time></trkpt><trkpt lat="41.71604247613303" lon="13.352140973949007"><ele>321.0</ele><time>2026-04-10T13:43:55Z</time></trkpt><trkpt lat="41.71622436560018" lon="13.352124566798942"><ele>322.6666666666667</ele><time>2026-04-10T13:43:56Z</time></trkpt><trkpt lat="41.71639256318347" lon="13.352106886350814"><ele>324.33333333333337</ele><time>2026-04-10T13:43:57Z</time></trkpt><trkpt lat="41.7165481229602" lon="13.352071110497022"><ele>326.0</ele><time>2026-04-10T13:43:58Z</time></trkpt><trkpt lat="41.71670237222229" lon="13.35201550951523"><ele>326.0</ele><time>2026-04-10T13:43:59Z</time></trkpt><trkpt lat="41.71685892288982" lon="13.351939197177117"><ele>326.0</ele><time>2026-04-10T13:44:00Z</time></trkpt><trkpt lat="41.717013482207435" lon="13.351840267238908"><ele>326.0</ele><time>2026-04-10T13:44:01Z</time></trkpt><trkpt lat="41.71715978615196" lon="13.351710816751872"><ele>325.6666666666667</ele><time>2026-04-10T13:44:02Z</time></trkpt><trkpt lat="41.717292384195225" lon="13.351558007598943"><ele>325.3333333333333</ele><time>2026-04-10T13:44:03Z</time></trkpt><trkpt lat="41.717412320877166" lon="13.351406121979082"><ele>325.0</ele><time>2026-04-10T13:44:04Z</time></trkpt><trkpt lat="41.717532067253906" lon="13.351248987569418"><ele>324.66666666666663</ele><time>2026-04-10T13:44:05Z</time></trkpt><trkpt lat="41.71764165401687" lon="13.351079720324703"><ele>324.3333333333333</ele><time>2026-04-10T13:44:06Z</time></trkpt><trkpt lat="41.71773033019887" lon="13.350909647567747"><ele>324.0</ele><time>2026-04-10T13:44:07Z</time></trkpt><trkpt lat="41.717810853323094" lon="13.350735079827409"><ele>324.0</ele><time>2026-04-10T13:44:08Z</time></trkpt><trkpt lat="41.71788755236821" lon="13.350560890500773"><ele>324.0</ele><time>2026-04-10T13:44:09Z</time></trkpt><trkpt lat="41.71796103984061" lon="13.350389250973773"><ele>324.0</ele><time>2026-04-10T13:44:10Z</time></trkpt><trkpt lat="41.71803630779399" lon="13.350214184203493"><ele>324.0</ele><time>2026-04-10T13:44:11Z</time></trkpt><trkpt lat="41.718115457946425" lon="13.350036163729724"><ele>324.0</ele><time>2026-04-10T13:44:12Z</time></trkpt><trkpt lat="41.71819407178842" lon="13.349861439251766"><ele>324.0</ele><time>2026-04-10T13:44:13Z</time></trkpt><trkpt lat="41.71826854021713" lon="13.34969365522873"><ele>324.0</ele><time>2026-04-10T13:44:14Z</time></trkpt><trkpt lat="41.71833756691258" lon="13.349533910551703"><ele>324.0</ele><time>2026-04-10T13:44:15Z</time></trkpt><trkpt lat="41.718407356887475" lon="13.349380195775808"><ele>323.5</ele><time>2026-04-10T13:44:16Z</time></trkpt><trkpt lat="41.71847086563672" lon="13.349232162966793"><ele>323.0</ele><time>2026-04-10T13:44:17Z</time></trkpt><trkpt lat="41.71853616335706" lon="13.349080590030379"><ele>322.5</ele><time>2026-04-10T13:44:18Z</time></trkpt><trkpt lat="41.718604525329475" lon="13.348927820446916"><ele>322.0</ele><time>2026-04-10T13:44:19Z</time></trkpt><trkpt lat="41.718668668152745" lon="13.348783328857849"><ele>323.5</ele><time>2026-04-10T13:44:20Z</time></trkpt><trkpt lat="41.71872738513129" lon="13.348646074736475"><ele>325.0</ele><time>2026-04-10T13:44:21Z</time></trkpt><trkpt lat="41.71878668563926" lon="13.348512852871712"><ele>326.5</ele><time>2026-04-10T13:44:22Z</time></trkpt><trkpt lat="41.71884414175932" lon="13.348381277217575"><ele>328.0</ele><time>2026-04-10T13:44:23Z</time></trkpt><trkpt lat="41.718896677149345" lon="13.348258015378216"><ele>328.0</ele><time>2026-04-10T13:44:24Z</time></trkpt><trkpt lat="41.718944116287894" lon="13.348146120311265"><ele>328.0</ele><time>2026-04-10T13:44:25Z</time></trkpt><trkpt lat="41.71899970298203" lon="13.348044813012429"><ele>328.0</ele><time>2026-04-10T13:44:26Z</time></trkpt><trkpt lat="41.719064641078944" lon="13.34796150786813"><ele>328.0</ele><time>2026-04-10T13:44:27Z</time></trkpt><trkpt lat="41.71914616357646" lon="13.34790468507124"><ele>328.0</ele><time>2026-04-10T13:44:28Z</time></trkpt><trkpt lat="41.71924281165541" lon="13.347895448233682"><ele>329.25</ele><time>2026-04-10T13:44:29Z</time></trkpt><trkpt lat="41.71934093010692" lon="13.347940303823048"><ele>330.5</ele><time>2026-04-10T13:44:30Z</time></trkpt><trkpt lat="41.71944689774201" lon="13.348016029344585"><ele>331.75</ele><time>2026-04-10T13:44:31Z</time></trkpt><trkpt lat="41.71958592809102" lon="13.34807644690311"><ele>333.0</ele><time>2026-04-10T13:44:32Z</time></trkpt><trkpt lat="41.71972872981691" lon="13.348144646990585"><ele>333.25</ele><time>2026-04-10T13:44:33Z</time></trkpt><trkpt lat="41.71985966550358" lon="13.348214088711492"><ele>333.5</ele><time>2026-04-10T13:44:34Z</time></trkpt><trkpt lat="41.719971548083" lon="13.348284205397277"><ele>333.75</ele><time>2026-04-10T13:44:35Z</time></trkpt><trkpt lat="41.72007747341" lon="13.348383463300951"><ele>334.0</ele><time>2026-04-10T13:44:36Z</time></trkpt><trkpt lat="41.72017750946739" lon="13.348510693253377"><ele>338.25</ele><time>2026-04-10T13:44:37Z</time></trkpt><trkpt lat="41.720254127243095" lon="13.348661260503997"><ele>342.5</ele><time>2026-04-10T13:44:38Z</time></trkpt><trkpt lat="41.72030417306659" lon="13.348823084994812"><ele>346.75</ele><time>2026-04-10T13:44:39Z</time></trkpt><trkpt lat="41.7203445039832" lon="13.348995531041366"><ele>351.0</ele><time>2026-04-10T13:44:40Z</time></trkpt><trkpt lat="41.720386865641316" lon="13.349164901514193"><ele>351.0</ele><time>2026-04-10T13:44:41Z</time></trkpt><trkpt lat="41.72042799616122" lon="13.349329844549638"><ele>351.0</ele><time>2026-04-10T13:44:42Z</time></trkpt><trkpt lat="41.720472862563575" lon="13.349497278106439"><ele>351.0</ele><time>2026-04-10T13:44:43Z</time></trkpt><trkpt lat="41.72051887106193" lon="13.34965846780777"><ele>351.0</ele><time>2026-04-10T13:44:44Z</time></trkpt><trkpt lat="41.72058484110154" lon="13.349815858296523"><ele>349.0</ele><time>2026-04-10T13:44:45Z</time></trkpt><trkpt lat="41.720684622964434" lon="13.349962460991806"><ele>347.0</ele><time>2026-04-10T13:44:46Z</time></trkpt><trkpt lat="41.72081930353666" lon="13.350093652520657"><ele>345.0</ele><time>2026-04-10T13:44:47Z</time></trkpt><trkpt lat="41.720977989131306" lon="13.350254412725027"><ele>346.0</ele><time>2026-04-10T13:44:48Z</time></trkpt><trkpt lat="41.72115248942913" lon="13.350401358966923"><ele>347.0</ele><time>2026-04-10T13:44:49Z</time></trkpt><trkpt lat="41.72131595903982" lon="13.350563129016614"><ele>348.0</ele><time>2026-04-10T13:44:50Z</time></trkpt><trkpt lat="41.72149144473302" lon="13.350746107379447"><ele>348.0</ele><time>2026-04-10T13:44:51Z</time></trkpt><trkpt lat="41.721687869221526" lon="13.350916174115351"><ele>348.0</ele><time>2026-04-10T13:44:52Z</time></trkpt><trkpt lat="41.72183008575894" lon="13.35107221551032"><ele>348.0</ele><time>2026-04-10T13:44:53Z</time></trkpt><trkpt lat="41.721946942235526" lon="13.351188685465354"><ele>349.2</ele><time>2026-04-10T13:44:54Z</time></trkpt><trkpt lat="41.72204382405377" lon="13.351274945265375"><ele>350.4</ele><time>2026-04-10T13:44:55Z</time></trkpt><trkpt lat="41.72213832875249" lon="13.351335729344418"><ele>351.59999999999997</ele><time>2026-04-10T13:44:56Z</time></trkpt><trkpt lat="41.72223559497653" lon="13.351349273563548"><ele>352.79999999999995</ele><time>2026-04-10T13:44:57Z</time></trkpt><trkpt lat="41.72233006569566" lon="13.351302407450893"><ele>354.0</ele><time>2026-04-10T13:44:58Z</time></trkpt><trkpt lat="41.722394817543105" lon="13.351207628374178"><ele>354.0</ele><time>2026-04-10T13:44:59Z</time></trkpt><trkpt lat="41.72242503544059" lon="13.351083140310212"><ele>354.0</ele><time>2026-04-10T13:45:00.001Z</time></trkpt><trkpt lat="41.72241578150901" lon="13.350951781755233"><ele>354.0</ele><time>2026-04-10T13:45:01.001Z</time></trkpt><trkpt lat="41.72237800858812" lon="13.350800572289979"><ele>354.0</ele><time>2026-04-10T13:45:02Z</time></trkpt><trkpt lat="41.722294543177625" lon="13.350628255210847"><ele>357.0</ele><time>2026-04-10T13:45:03.001Z</time></trkpt><trkpt lat="41.72221154750889" lon="13.350469453968755"><ele>360.0</ele><time>2026-04-10T13:45:04.001Z</time></trkpt><trkpt lat="41.72211898910711" lon="13.350294249297788"><ele>363.0</ele><time>2026-04-10T13:45:05.001Z</time></trkpt><trkpt lat="41.722005886940295" lon="13.350079281553217"><ele>364.5</ele><time>2026-04-10T13:45:06.001Z</time></trkpt><trkpt lat="41.7218669997124" lon="13.349844739299767"><ele>366.0</ele><time>2026-04-10T13:45:07.001Z</time></trkpt><trkpt lat="41.72173497222794" lon="13.34958500787139"><ele>366.0</ele><time>2026-04-10T13:45:08.001Z</time></trkpt><trkpt lat="41.72158619059231" lon="13.349306025013666"><ele>366.0</ele><time>2026-04-10T13:45:09.001Z</time></trkpt><trkpt lat="41.72144418885705" lon="13.349036527528524"><ele>369.0</ele><time>2026-04-10T13:45:10.001Z</time></trkpt><trkpt lat="41.72132532113572" lon="13.34880036193623"><ele>372.0</ele><time>2026-04-10T13:45:11.001Z</time></trkpt><trkpt lat="41.72123879148466" lon="13.348569054652641"><ele>375.0</ele><time>2026-04-10T13:45:12.001Z</time></trkpt><trkpt lat="41.72119594269973" lon="13.348317933410192"><ele>376.3333333333333</ele><time>2026-04-10T13:45:13.001Z</time></trkpt><trkpt lat="41.72119583671154" lon="13.348037033523864"><ele>377.66666666666663</ele><time>2026-04-10T13:45:14.001Z</time></trkpt><trkpt lat="41.72120524803106" lon="13.347764676454664"><ele>379.0</ele><time>2026-04-10T13:45:15Z</time></trkpt><trkpt lat="41.721211123142126" lon="13.347522462450002"><ele>379.0</ele><time>2026-04-10T13:45:16Z</time></trkpt><trkpt lat="41.721215831360745" lon="13.347291781923037"><ele>379.0</ele><time>2026-04-10T13:45:17Z</time></trkpt><trkpt lat="41.72122487574266" lon="13.347061422177221"><ele>379.0</ele><time>2026-04-10T13:45:18Z</time></trkpt><trkpt lat="41.721237510488464" lon="13.346821316843817"><ele>379.66666666666663</ele><time>2026-04-10T13:45:19Z</time></trkpt><trkpt lat="41.721248375213385" lon="13.346578665591462"><ele>380.3333333333333</ele><time>2026-04-10T13:45:20Z</time></trkpt><trkpt lat="41.72125591967091" lon="13.34634027760369"><ele>381.0</ele><time>2026-04-10T13:45:21Z</time></trkpt><trkpt lat="41.72126442334624" lon="13.346113881214096"><ele>381.25</ele><time>2026-04-10T13:45:22Z</time></trkpt><trkpt lat="41.72127530534994" lon="13.345915213782064"><ele>381.5</ele><time>2026-04-10T13:45:23Z</time></trkpt><trkpt lat="41.72127963483669" lon="13.345745090464384"><ele>381.75</ele><time>2026-04-10T13:45:24Z</time></trkpt><trkpt lat="41.72128359338133" lon="13.345605937242604"><ele>382.0</ele><time>2026-04-10T13:45:25Z</time></trkpt><trkpt lat="41.721308557626394" lon="13.345496669612427"><ele>382.20000000000005</ele><time>2026-04-10T13:45:26Z</time></trkpt><trkpt lat="41.72136307022568" lon="13.34539493043909"><ele>382.4</ele><time>2026-04-10T13:45:27Z</time></trkpt><trkpt lat="41.72144832614294" lon="13.345323559734748"><ele>382.6</ele><time>2026-04-10T13:45:28Z</time></trkpt><trkpt lat="41.7215528833148" lon="13.345311100807887"><ele>382.79999999999995</ele><time>2026-04-10T13:45:29Z</time></trkpt><trkpt lat="41.72165305771775" lon="13.345358843257502"><ele>383.0</ele><time>2026-04-10T13:45:30Z</time></trkpt><trkpt lat="41.721728227968235" lon="13.345476183608534"><ele>382.6666666666667</ele><time>2026-04-10T13:45:31Z</time></trkpt><trkpt lat="41.72175604256927" lon="13.345651888702456"><ele>382.3333333333333</ele><time>2026-04-10T13:45:32Z</time></trkpt><trkpt lat="41.72178525981444" lon="13.34585740739612"><ele>382.0</ele><time>2026-04-10T13:45:33Z</time></trkpt><trkpt lat="41.72182167467944" lon="13.346121423109071"><ele>382.0</ele><time>2026-04-10T13:45:34Z</time></trkpt><trkpt lat="41.72185803644465" lon="13.346368179022335"><ele>382.0</ele><time>2026-04-10T13:45:35Z</time></trkpt><trkpt lat="41.72189309599992" lon="13.346634501957528"><ele>382.0</ele><time>2026-04-10T13:45:36Z</time></trkpt><trkpt lat="41.7219311613614" lon="13.346941061160498"><ele>385.66666666666663</ele><time>2026-04-10T13:45:37Z</time></trkpt><trkpt lat="41.72197404888879" lon="13.34723376720231"><ele>389.3333333333333</ele><time>2026-04-10T13:45:38Z</time></trkpt><trkpt lat="41.72200960323552" lon="13.347482296099917"><ele>393.0</ele><time>2026-04-10T13:45:39Z</time></trkpt><trkpt lat="41.72205404081438" lon="13.347680135931217"><ele>393.0</ele><time>2026-04-10T13:45:40Z</time></trkpt><trkpt lat="41.72212422213907" lon="13.347846219700179"><ele>393.0</ele><time>2026-04-10T13:45:41Z</time></trkpt><trkpt lat="41.72223323838772" lon="13.347977381034495"><ele>393.0</ele><time>2026-04-10T13:45:42Z</time></trkpt><trkpt lat="41.72237619536864" lon="13.348049087726155"><ele>393.0</ele><time>2026-04-10T13:45:43Z</time></trkpt><trkpt lat="41.72253948201928" lon="13.348060747300503"><ele>393.0</ele><time>2026-04-10T13:45:44Z</time></trkpt><trkpt lat="41.72272083030359" lon="13.348012288363435"><ele>393.0</ele><time>2026-04-10T13:45:45Z</time></trkpt><trkpt lat="41.722928380253435" lon="13.347928437051754"><ele>393.0</ele><time>2026-04-10T13:45:46Z</time></trkpt><trkpt lat="41.72316167558622" lon="13.347857928867203"><ele>397.0</ele><time>2026-04-10T13:45:47Z</time></trkpt><trkpt lat="41.7234061167625" lon="13.347806548301108"><ele>401.0</ele><time>2026-04-10T13:45:48Z</time></trkpt><trkpt lat="41.72366809341318" lon="13.347761262891995"><ele>402.0</ele><time>2026-04-10T13:45:49Z</time></trkpt><trkpt lat="41.72391742902017" lon="13.347718286427577"><ele>403.0</ele><time>2026-04-10T13:45:50Z</time></trkpt><trkpt lat="41.72413741849437" lon="13.347696520079337"><ele>403.0</ele><time>2026-04-10T13:45:51Z</time></trkpt><trkpt lat="41.72435460985152" lon="13.347664938705247"><ele>403.0</ele><time>2026-04-10T13:45:52Z</time></trkpt><trkpt lat="41.7245791923908" lon="13.347625724862754"><ele>403.0</ele><time>2026-04-10T13:45:53Z</time></trkpt><trkpt lat="41.72480882702632" lon="13.347583431046116"><ele>404.0</ele><time>2026-04-10T13:45:54Z</time></trkpt><trkpt lat="41.725048640269" lon="13.347520489178866"><ele>405.0</ele><time>2026-04-10T13:45:55Z</time></trkpt><trkpt lat="41.72530937413077" lon="13.347448332960134"><ele>406.0</ele><time>2026-04-10T13:45:56Z</time></trkpt><trkpt lat="41.72559285066638" lon="13.347367977039731"><ele>407.0</ele><time>2026-04-10T13:45:57Z</time></trkpt><trkpt lat="41.72589714161383" lon="13.34728887755783"><ele>420.5</ele><time>2026-04-10T13:45:58Z</time></trkpt><trkpt lat="41.72618374158307" lon="13.347198347995226"><ele>434.0</ele><time>2026-04-10T13:45:59Z</time></trkpt><trkpt lat="41.726489716956316" lon="13.347114819037532"><ele>434.0</ele><time>2026-04-10T13:46:00Z</time></trkpt><trkpt lat="41.72680704976197" lon="13.347027709856437"><ele>434.0</ele><time>2026-04-10T13:46:01Z</time></trkpt><trkpt lat="41.72708411603285" lon="13.346953038184012"><ele>431.0</ele><time>2026-04-10T13:46:02Z</time></trkpt><trkpt lat="41.72733605821866" lon="13.346876463015231"><ele>428.0</ele><time>2026-04-10T13:46:03Z</time></trkpt><trkpt lat="41.72757058771392" lon="13.346781479723282"><ele>424.0</ele><time>2026-04-10T13:46:04Z</time></trkpt><trkpt lat="41.72778723688804" lon="13.346677963952049"><ele>420.0</ele><time>2026-04-10T13:46:05Z</time></trkpt><trkpt lat="41.72798577744608" lon="13.3465574363966"><ele>416.0</ele><time>2026-04-10T13:46:06Z</time></trkpt><trkpt lat="41.72817573331405" lon="13.346430068730307"><ele>420.0</ele><time>2026-04-10T13:46:07Z</time></trkpt><trkpt lat="41.72836046810902" lon="13.34631997441834"><ele>424.0</ele><time>2026-04-10T13:46:08Z</time></trkpt><trkpt lat="41.728537981247925" lon="13.34622316489689"><ele>428.0</ele><time>2026-04-10T13:46:09Z</time></trkpt><trkpt lat="41.728691565553724" lon="13.346129560079621"><ele>428.0</ele><time>2026-04-10T13:46:10Z</time></trkpt><trkpt lat="41.7288531032416" lon="13.346030094040126"><ele>428.0</ele><time>2026-04-10T13:46:11Z</time></trkpt><trkpt lat="41.72901790236906" lon="13.34593518717291"><ele>428.0</ele><time>2026-04-10T13:46:12Z</time></trkpt><trkpt lat="41.72918191131425" lon="13.345837455746397"><ele>428.0</ele><time>2026-04-10T13:46:13Z</time></trkpt><trkpt lat="41.72934702849137" lon="13.34573949683306"><ele>428.0</ele><time>2026-04-10T13:46:14Z</time></trkpt><trkpt lat="41.72951038890926" lon="13.345641288144218"><ele>428.0</ele><time>2026-04-10T13:46:15Z</time></trkpt><trkpt lat="41.729671772443176" lon="13.345544639672099"><ele>432.0</ele><time>2026-04-10T13:46:16Z</time></trkpt><trkpt lat="41.72982991438714" lon="13.345456907188568"><ele>436.0</ele><time>2026-04-10T13:46:17Z</time></trkpt><trkpt lat="41.729983339386415" lon="13.34538589447142"><ele>440.0</ele><time>2026-04-10T13:46:18Z</time></trkpt><trkpt lat="41.730125010440474" lon="13.345332496182444"><ele>439.6</ele><time>2026-04-10T13:46:19Z</time></trkpt><trkpt lat="41.7302491410705" lon="13.345300912408538"><ele>439.2</ele><time>2026-04-10T13:46:20Z</time></trkpt><trkpt lat="41.73036003381453" lon="13.34527668213801"><ele>438.79999999999995</ele><time>2026-04-10T13:46:21Z</time></trkpt><trkpt lat="41.730452890487555" lon="13.345251678415098"><ele>438.4</ele><time>2026-04-10T13:46:22Z</time></trkpt><trkpt lat="41.73053513516672" lon="13.345222178365995"><ele>438.0</ele><time>2026-04-10T13:46:23Z</time></trkpt><trkpt lat="41.73060381478569" lon="13.345187391305087"><ele>438.0</ele><time>2026-04-10T13:46:24Z</time></trkpt><trkpt lat="41.73066934580564" lon="13.345152947300376"><ele>438.0</ele><time>2026-04-10T13:46:25Z</time></trkpt><trkpt lat="41.730763014058326" lon="13.345101242804882"><ele>438.0</ele><time>2026-04-10T13:46:27Z</time></trkpt><trkpt lat="41.73083185266382" lon="13.345067431596908"><ele>438.0</ele><time>2026-04-10T13:46:30Z</time></trkpt><trkpt lat="41.730912670334355" lon="13.345056876138266"><ele>438.0</ele><time>2026-04-10T13:46:33Z</time></trkpt><trkpt lat="41.73100461196872" lon="13.345043492549312"><ele>438.0</ele><time>2026-04-10T13:46:35Z</time></trkpt><trkpt lat="41.731051235688426" lon="13.344985976398364"><ele>439.79999999999995</ele><time>2026-04-10T13:46:36Z</time></trkpt><trkpt lat="41.73110702672648" lon="13.344867718510782"><ele>441.59999999999997</ele><time>2026-04-10T13:46:37Z</time></trkpt><trkpt lat="41.73116822087424" lon="13.344749733591422"><ele>443.40000000000003</ele><time>2026-04-10T13:46:38Z</time></trkpt><trkpt lat="41.73121941097408" lon="13.34466874416006"><ele>445.20000000000005</ele><time>2026-04-10T13:46:39Z</time></trkpt><trkpt lat="41.731296425689216" lon="13.34460407014095"><ele>447.0</ele><time>2026-04-10T13:46:40Z</time></trkpt><trkpt lat="41.731418626889784" lon="13.34454787410364"><ele>440.0</ele><time>2026-04-10T13:46:41Z</time></trkpt><trkpt lat="41.73154402924072" lon="13.34449733262478"><ele>433.0</ele><time>2026-04-10T13:46:42Z</time></trkpt><trkpt lat="41.731697661929864" lon="13.344434015362909"><ele>426.0</ele><time>2026-04-10T13:46:43Z</time></trkpt><trkpt lat="41.73186269638077" lon="13.344361158626844"><ele>429.33333333333337</ele><time>2026-04-10T13:46:44Z</time></trkpt><trkpt lat="41.732035309135235" lon="13.344283815821552"><ele>432.6666666666667</ele><time>2026-04-10T13:46:45Z</time></trkpt><trkpt lat="41.73222131002219" lon="13.344204763488504"><ele>436.0</ele><time>2026-04-10T13:46:46Z</time></trkpt><trkpt lat="41.732410827786104" lon="13.344124583501488"><ele>436.0</ele><time>2026-04-10T13:46:47Z</time></trkpt><trkpt lat="41.732609294336726" lon="13.344041093165098"><ele>436.0</ele><time>2026-04-10T13:46:48Z</time></trkpt><trkpt lat="41.73281440489284" lon="13.343954568368833"><ele>436.0</ele><time>2026-04-10T13:46:49Z</time></trkpt><trkpt lat="41.733027023811715" lon="13.343868952835832"><ele>426.0</ele><time>2026-04-10T13:46:50Z</time></trkpt><trkpt lat="41.73324843848874" lon="13.343799719424492"><ele>416.0</ele><time>2026-04-10T13:46:51Z</time></trkpt><trkpt lat="41.73347680825032" lon="13.343748931738698"><ele>415.0</ele><time>2026-04-10T13:46:52Z</time></trkpt><trkpt lat="41.7337108343553" lon="13.343711536176855"><ele>414.0</ele><time>2026-04-10T13:46:53Z</time></trkpt><trkpt lat="41.73395203083461" lon="13.343678648904133"><ele>414.0</ele><time>2026-04-10T13:46:54Z</time></trkpt><trkpt lat="41.73421243466652" lon="13.343646711372873"><ele>414.0</ele><time>2026-04-10T13:46:55Z</time></trkpt><trkpt lat="41.73446959761566" lon="13.34363520310205"><ele>413.0</ele><time>2026-04-10T13:46:56Z</time></trkpt><trkpt lat="41.73470742119919" lon="13.343651791299171"><ele>412.0</ele><time>2026-04-10T13:46:57Z</time></trkpt><trkpt lat="41.734949306747495" lon="13.343696169499962"><ele>412.0</ele><time>2026-04-10T13:46:58Z</time></trkpt><trkpt lat="41.73518952252378" lon="13.343780604124058"><ele>412.0</ele><time>2026-04-10T13:46:59Z</time></trkpt><trkpt lat="41.73542782969968" lon="13.343897979948004"><ele>415.5</ele><time>2026-04-10T13:47:00Z</time></trkpt><trkpt lat="41.73566109649096" lon="13.3440328810982"><ele>419.0</ele><time>2026-04-10T13:47:01Z</time></trkpt><trkpt lat="41.735874407996356" lon="13.344169784781105"><ele>417.66666666666663</ele><time>2026-04-10T13:47:02Z</time></trkpt><trkpt lat="41.736075793739424" lon="13.344295192927753"><ele>416.33333333333337</ele><time>2026-04-10T13:47:03Z</time></trkpt><trkpt lat="41.73628583764569" lon="13.344409704059156"><ele>415.0</ele><time>2026-04-10T13:47:04Z</time></trkpt><trkpt lat="41.73651053616976" lon="13.344493364777984"><ele>415.0</ele><time>2026-04-10T13:47:05Z</time></trkpt><trkpt lat="41.73674556409643" lon="13.34454427007498"><ele>415.0</ele><time>2026-04-10T13:47:06.001Z</time></trkpt><trkpt lat="41.7369825784602" lon="13.344573982499702"><ele>413.0</ele><time>2026-04-10T13:47:07.001Z</time></trkpt><trkpt lat="41.73722216916265" lon="13.344573761207789"><ele>411.0</ele><time>2026-04-10T13:47:08.001Z</time></trkpt><trkpt lat="41.737460608933105" lon="13.344551612873877"><ele>411.0</ele><time>2026-04-10T13:47:09.001Z</time></trkpt><trkpt lat="41.73769858125842" lon="13.344507283664692"><ele>411.0</ele><time>2026-04-10T13:47:10.001Z</time></trkpt><trkpt lat="41.73793605888624" lon="13.34443633093637"><ele>409.5</ele><time>2026-04-10T13:47:11.001Z</time></trkpt><trkpt lat="41.73817006552957" lon="13.344345485075516"><ele>408.0</ele><time>2026-04-10T13:47:12.001Z</time></trkpt><trkpt lat="41.73839703794335" lon="13.344253286443335"><ele>407.0</ele><time>2026-04-10T13:47:13.001Z</time></trkpt><trkpt lat="41.738609092164545" lon="13.344175829589302"><ele>406.0</ele><time>2026-04-10T13:47:14.001Z</time></trkpt><trkpt lat="41.73881531943786" lon="13.344101562068188"><ele>405.0</ele><time>2026-04-10T13:47:15.001Z</time></trkpt><trkpt lat="41.73902902267963" lon="13.344023469471756"><ele>405.0</ele><time>2026-04-10T13:47:16.001Z</time></trkpt><trkpt lat="41.739236283289635" lon="13.343947992774186"><ele>405.0</ele><time>2026-04-10T13:47:17Z</time></trkpt><trkpt lat="41.73945319425042" lon="13.343861251513587"><ele>405.0</ele><time>2026-04-10T13:47:18Z</time></trkpt><trkpt lat="41.739691530333985" lon="13.343775442014921"><ele>401.0</ele><time>2026-04-10T13:47:19Z</time></trkpt><trkpt lat="41.73995863786391" lon="13.343701873713101"><ele>397.0</ele><time>2026-04-10T13:47:20Z</time></trkpt><trkpt lat="41.74020073177201" lon="13.343619373255814"><ele>397.0</ele><time>2026-04-10T13:47:21Z</time></trkpt><trkpt lat="41.740425257770696" lon="13.343538176252542"><ele>397.0</ele><time>2026-04-10T13:47:22Z</time></trkpt><trkpt lat="41.74063811645593" lon="13.343464275658155"><ele>397.0</ele><time>2026-04-10T13:47:23Z</time></trkpt><trkpt lat="41.74083914216953" lon="13.343396108799325"><ele>397.0</ele><time>2026-04-10T13:47:24Z</time></trkpt><trkpt lat="41.74102410276934" lon="13.34332169238157"><ele>397.0</ele><time>2026-04-10T13:47:25Z</time></trkpt><trkpt lat="41.74119353784013" lon="13.343242836211639"><ele>396.0</ele><time>2026-04-10T13:47:26Z</time></trkpt><trkpt lat="41.74134764755016" lon="13.34314705554095"><ele>395.0</ele><time>2026-04-10T13:47:27Z</time></trkpt><trkpt lat="41.74148071929221" lon="13.343028670384975"><ele>394.0</ele><time>2026-04-10T13:47:28Z</time></trkpt><trkpt lat="41.74159051157423" lon="13.342880899919669"><ele>394.0</ele><time>2026-04-10T13:47:29Z</time></trkpt><trkpt lat="41.74168074375863" lon="13.342699935263179"><ele>394.0</ele><time>2026-04-10T13:47:30Z</time></trkpt><trkpt lat="41.741739735657255" lon="13.3424951672347"><ele>394.0</ele><time>2026-04-10T13:47:31Z</time></trkpt><trkpt lat="41.74176322477435" lon="13.342278776676382"><ele>393.0</ele><time>2026-04-10T13:47:32Z</time></trkpt><trkpt lat="41.74176620435367" lon="13.34207044578154"><ele>392.0</ele><time>2026-04-10T13:47:33Z</time></trkpt><trkpt lat="41.74175835788334" lon="13.341876879127522"><ele>391.0</ele><time>2026-04-10T13:47:34Z</time></trkpt><trkpt lat="41.741746616704305" lon="13.34169587201103"><ele>390.0</ele><time>2026-04-10T13:47:35Z</time></trkpt><trkpt lat="41.74173763267758" lon="13.341525929463875"><ele>390.2</ele><time>2026-04-10T13:47:36Z</time></trkpt><trkpt lat="41.741728378708395" lon="13.341360369094009"><ele>390.4</ele><time>2026-04-10T13:47:37Z</time></trkpt><trkpt lat="41.74172030265871" lon="13.3412026238049"><ele>390.6</ele><time>2026-04-10T13:47:38Z</time></trkpt><trkpt lat="41.741717946945926" lon="13.34105784448355"><ele>390.8</ele><time>2026-04-10T13:47:39Z</time></trkpt><trkpt lat="41.74172071970708" lon="13.340925973052503"><ele>391.0</ele><time>2026-04-10T13:47:40Z</time></trkpt><trkpt lat="41.741729185979004" lon="13.34080225776522"><ele>391.0</ele><time>2026-04-10T13:47:41Z</time></trkpt><trkpt lat="41.741742554803835" lon="13.340662168668583"><ele>391.0</ele><time>2026-04-10T13:47:42Z</time></trkpt><trkpt lat="41.741764733031026" lon="13.3405190354477"><ele>391.0</ele><time>2026-04-10T13:47:43Z</time></trkpt><trkpt lat="41.74179265524773" lon="13.34037614746982"><ele>391.0</ele><time>2026-04-10T13:47:44Z</time></trkpt><trkpt lat="41.74181563831306" lon="13.340227426247075"><ele>391.0</ele><time>2026-04-10T13:47:45Z</time></trkpt><trkpt lat="41.74185393817789" lon="13.34006936122029"><ele>391.0</ele><time>2026-04-10T13:47:46Z</time></trkpt><trkpt lat="41.74191051419315" lon="13.339903644533655"><ele>391.0</ele><time>2026-04-10T13:47:47Z</time></trkpt><trkpt lat="41.74198046702825" lon="13.339730848948896"><ele>391.0</ele><time>2026-04-10T13:47:48Z</time></trkpt><trkpt lat="41.742049727362314" lon="13.339545656159816"><ele>391.0</ele><time>2026-04-10T13:47:49Z</time></trkpt><trkpt lat="41.74213142708561" lon="13.339349251214013"><ele>391.0</ele><time>2026-04-10T13:47:50Z</time></trkpt><trkpt lat="41.742208092801725" lon="13.33913898484323"><ele>391.0</ele><time>2026-04-10T13:47:51Z</time></trkpt><trkpt lat="41.742283853508674" lon="13.338955242671577"><ele>391.0</ele><time>2026-04-10T13:47:52Z</time></trkpt><trkpt lat="41.742352607277375" lon="13.33878551345941"><ele>390.0</ele><time>2026-04-10T13:47:53Z</time></trkpt><trkpt lat="41.742422330135625" lon="13.338622364192718"><ele>389.0</ele><time>2026-04-10T13:47:54Z</time></trkpt><trkpt lat="41.742506105580254" lon="13.338479721848616"><ele>388.0</ele><time>2026-04-10T13:47:55Z</time></trkpt><trkpt lat="41.7425990436624" lon="13.33835787583343"><ele>387.0</ele><time>2026-04-10T13:47:56Z</time></trkpt><trkpt lat="41.742707449799234" lon="13.338256936219212"><ele>387.0</ele><time>2026-04-10T13:47:57Z</time></trkpt><trkpt lat="41.742831548785716" lon="13.338176556324864"><ele>387.0</ele><time>2026-04-10T13:47:58Z</time></trkpt><trkpt lat="41.7429604992624" lon="13.338128963246021"><ele>387.0</ele><time>2026-04-10T13:47:59Z</time></trkpt><trkpt lat="41.74310102817284" lon="13.338101709979647"><ele>387.0</ele><time>2026-04-10T13:48:00Z</time></trkpt><trkpt lat="41.74326047861538" lon="13.338105634913637"><ele>387.0</ele><time>2026-04-10T13:48:01Z</time></trkpt><trkpt lat="41.7434323187034" lon="13.33813196084887"><ele>387.0</ele><time>2026-04-10T13:48:02Z</time></trkpt><trkpt lat="41.743611435519796" lon="13.338171038411403"><ele>387.0</ele><time>2026-04-10T13:48:03Z</time></trkpt><trkpt lat="41.743792670295825" lon="13.338220437440537"><ele>385.6666666666667</ele><time>2026-04-10T13:48:04Z</time></trkpt><trkpt lat="41.743977102784214" lon="13.338273327869013"><ele>384.33333333333337</ele><time>2026-04-10T13:48:05Z</time></trkpt><trkpt lat="41.744178653623145" lon="13.338325216700742"><ele>383.0</ele><time>2026-04-10T13:48:06Z</time></trkpt><trkpt lat="41.744424976376" lon="13.338381774389518"><ele>381.6666666666667</ele><time>2026-04-10T13:48:07Z</time></trkpt><trkpt lat="41.74463742320985" lon="13.338453195923881"><ele>380.3333333333333</ele><time>2026-04-10T13:48:08Z</time></trkpt><trkpt lat="41.74483448502251" lon="13.338505424524225"><ele>379.0</ele><time>2026-04-10T13:48:09Z</time></trkpt><trkpt lat="41.745018783315494" lon="13.338555302104975"><ele>379.0</ele><time>2026-04-10T13:48:10Z</time></trkpt><trkpt lat="41.74518753559382" lon="13.33859816623959"><ele>379.0</ele><time>2026-04-10T13:48:11Z</time></trkpt><trkpt lat="41.74534397659109" lon="13.338617288677213"><ele>379.0</ele><time>2026-04-10T13:48:12Z</time></trkpt><trkpt lat="41.74548950286764" lon="13.338607710691178"><ele>377.0</ele><time>2026-04-10T13:48:13Z</time></trkpt><trkpt lat="41.74564340430061" lon="13.338570238057512"><ele>375.0</ele><time>2026-04-10T13:48:14Z</time></trkpt><trkpt lat="41.745804348913225" lon="13.338508459343503"><ele>373.0</ele><time>2026-04-10T13:48:15Z</time></trkpt><trkpt lat="41.745964372973724" lon="13.338421401515227"><ele>373.66666666666663</ele><time>2026-04-10T13:48:16Z</time></trkpt><trkpt lat="41.74611932689233" lon="13.338325130785579"><ele>374.3333333333333</ele><time>2026-04-10T13:48:17Z</time></trkpt><trkpt lat="41.74626463368452" lon="13.338225128793027"><ele>375.0</ele><time>2026-04-10T13:48:18Z</time></trkpt><trkpt lat="41.74640425364229" lon="13.338104735596614"><ele>375.0</ele><time>2026-04-10T13:48:19Z</time></trkpt><trkpt lat="41.746539930816105" lon="13.337941269184455"><ele>375.0</ele><time>2026-04-10T13:48:20Z</time></trkpt><trkpt lat="41.74668786507033" lon="13.337725237353524"><ele>375.0</ele><time>2026-04-10T13:48:21Z</time></trkpt><trkpt lat="41.746856959556354" lon="13.337486069945188"><ele>377.5</ele><time>2026-04-10T13:48:22Z</time></trkpt><trkpt lat="41.74702653614772" lon="13.337252400703083"><ele>380.0</ele><time>2026-04-10T13:48:23Z</time></trkpt><trkpt lat="41.74719552345019" lon="13.337019981666382"><ele>380.5</ele><time>2026-04-10T13:48:24Z</time></trkpt><trkpt lat="41.74736368824068" lon="13.336780453021042"><ele>381.0</ele><time>2026-04-10T13:48:25Z</time></trkpt><trkpt lat="41.74753042595733" lon="13.336534690483653"><ele>380.0</ele><time>2026-04-10T13:48:26Z</time></trkpt><trkpt lat="41.747696723011295" lon="13.336289059249385"><ele>379.0</ele><time>2026-04-10T13:48:27Z</time></trkpt><trkpt lat="41.74786509005374" lon="13.336049770491549"><ele>381.5</ele><time>2026-04-10T13:48:28Z</time></trkpt><trkpt lat="41.74803274070888" lon="13.335810750716277"><ele>384.0</ele><time>2026-04-10T13:48:29Z</time></trkpt><trkpt lat="41.74819825177035" lon="13.335569739414748"><ele>384.5</ele><time>2026-04-10T13:48:30Z</time></trkpt><trkpt lat="41.74836103400003" lon="13.335324676747662"><ele>385.0</ele><time>2026-04-10T13:48:31Z</time></trkpt><trkpt lat="41.74851534647334" lon="13.335072914552075"><ele>386.5</ele><time>2026-04-10T13:48:32Z</time></trkpt><trkpt lat="41.74866148378988" lon="13.334812750774827"><ele>388.0</ele><time>2026-04-10T13:48:33Z</time></trkpt><trkpt lat="41.74879702585631" lon="13.334539746007646"><ele>389.5</ele><time>2026-04-10T13:48:34Z</time></trkpt><trkpt lat="41.74891478373718" lon="13.334257947072741"><ele>391.0</ele><time>2026-04-10T13:48:35Z</time></trkpt><trkpt lat="41.74901445812754" lon="13.333995219950822"><ele>391.33333333333337</ele><time>2026-04-10T13:48:36Z</time></trkpt><trkpt lat="41.74910395714829" lon="13.333737792460594"><ele>391.66666666666663</ele><time>2026-04-10T13:48:37Z</time></trkpt><trkpt lat="41.74917897311288" lon="13.33348326499761"><ele>392.0</ele><time>2026-04-10T13:48:38Z</time></trkpt><trkpt lat="41.74924243560937" lon="13.33322843422237"><ele>391.66666666666663</ele><time>2026-04-10T13:48:39Z</time></trkpt><trkpt lat="41.74930256814796" lon="13.332978912796557"><ele>391.33333333333337</ele><time>2026-04-10T13:48:40Z</time></trkpt><trkpt lat="41.74936261800441" lon="13.332739421674821"><ele>391.0</ele><time>2026-04-10T13:48:41Z</time></trkpt><trkpt lat="41.74941823391335" lon="13.332519417147116"><ele>391.0</ele><time>2026-04-10T13:48:42Z</time></trkpt><trkpt lat="41.74946925098085" lon="13.332312870736965"><ele>391.0</ele><time>2026-04-10T13:48:43Z</time></trkpt><trkpt lat="41.749523680379035" lon="13.332107549063497"><ele>391.0</ele><time>2026-04-10T13:48:44Z</time></trkpt><trkpt lat="41.749574589288635" lon="13.33192061209302"><ele>393.5</ele><time>2026-04-10T13:48:45Z</time></trkpt><trkpt lat="41.74962825271489" lon="13.331750900155313"><ele>396.0</ele><time>2026-04-10T13:48:46Z</time></trkpt><trkpt lat="41.74969493483348" lon="13.331610688635608"><ele>398.5</ele><time>2026-04-10T13:48:47Z</time></trkpt><trkpt lat="41.7497768198612" lon="13.331500663624261"><ele>401.0</ele><time>2026-04-10T13:48:48Z</time></trkpt><trkpt lat="41.74987712513735" lon="13.331414284393018"><ele>405.25</ele><time>2026-04-10T13:48:49Z</time></trkpt><trkpt lat="41.749998253871986" lon="13.331346269835"><ele>409.5</ele><time>2026-04-10T13:48:50Z</time></trkpt><trkpt lat="41.75012612255729" lon="13.331300597894462"><ele>413.75</ele><time>2026-04-10T13:48:51Z</time></trkpt><trkpt lat="41.75025091134299" lon="13.331274451374663"><ele>418.0</ele><time>2026-04-10T13:48:52Z</time></trkpt><trkpt lat="41.7503691023169" lon="13.331255197060141"><ele>418.0</ele><time>2026-04-10T13:48:53Z</time></trkpt><trkpt lat="41.750490531768506" lon="13.331234771183818"><ele>418.0</ele><time>2026-04-10T13:48:54Z</time></trkpt><trkpt lat="41.750614922401866" lon="13.331197372576899"><ele>418.0</ele><time>2026-04-10T13:48:55Z</time></trkpt><trkpt lat="41.75074874037493" lon="13.331124199285583"><ele>418.0</ele><time>2026-04-10T13:48:56Z</time></trkpt><trkpt lat="41.7508964192675" lon="13.33101828673053"><ele>413.33333333333337</ele><time>2026-04-10T13:48:57Z</time></trkpt><trkpt lat="41.751061318307435" lon="13.330902415489764"><ele>408.66666666666663</ele><time>2026-04-10T13:48:58Z</time></trkpt><trkpt lat="41.75124332942251" lon="13.330779462121438"><ele>404.0</ele><time>2026-04-10T13:48:59Z</time></trkpt><trkpt lat="41.75142442445503" lon="13.330662768415857"><ele>407.3333333333333</ele><time>2026-04-10T13:49:00Z</time></trkpt><trkpt lat="41.751592899506115" lon="13.33055467643473"><ele>410.66666666666663</ele><time>2026-04-10T13:49:01Z</time></trkpt><trkpt lat="41.75174147305307" lon="13.330457125823239"><ele>414.0</ele><time>2026-04-10T13:49:02Z</time></trkpt><trkpt lat="41.75187711043875" lon="13.330373784558285"><ele>414.0</ele><time>2026-04-10T13:49:03Z</time></trkpt><trkpt lat="41.75200320289192" lon="13.330299807255363"><ele>414.0</ele><time>2026-04-10T13:49:04Z</time></trkpt><trkpt lat="41.75213002226994" lon="13.33023569846774"><ele>414.0</ele><time>2026-04-10T13:49:05Z</time></trkpt><trkpt lat="41.752253619863765" lon="13.330194003264618"><ele>414.0</ele><time>2026-04-10T13:49:06Z</time></trkpt><trkpt lat="41.75238467080858" lon="13.33016598891581"><ele>414.0</ele><time>2026-04-10T13:49:07Z</time></trkpt><trkpt lat="41.75251551341755" lon="13.33014571081414"><ele>414.0</ele><time>2026-04-10T13:49:08Z</time></trkpt><trkpt lat="41.75264199351452" lon="13.330138313095246"><ele>414.0</ele><time>2026-04-10T13:49:09Z</time></trkpt><trkpt lat="41.752772510689354" lon="13.330146165686374"><ele>414.0</ele><time>2026-04-10T13:49:10Z</time></trkpt><trkpt lat="41.75290465550826" lon="13.330170193134537"><ele>415.75</ele><time>2026-04-10T13:49:11Z</time></trkpt><trkpt lat="41.75303745000649" lon="13.330198979204964"><ele>417.5</ele><time>2026-04-10T13:49:12Z</time></trkpt><trkpt lat="41.75317323460736" lon="13.330224435940627"><ele>419.25</ele><time>2026-04-10T13:49:13Z</time></trkpt><trkpt lat="41.75329644707026" lon="13.330237582668467"><ele>421.0</ele><time>2026-04-10T13:49:14Z</time></trkpt><trkpt lat="41.75342210215343" lon="13.330222085107943"><ele>419.25</ele><time>2026-04-10T13:49:15Z</time></trkpt><trkpt lat="41.753546830391066" lon="13.330158226459252"><ele>417.5</ele><time>2026-04-10T13:49:16Z</time></trkpt><trkpt lat="41.75366635871703" lon="13.330047327935825"><ele>415.75</ele><time>2026-04-10T13:49:17Z</time></trkpt><trkpt lat="41.75377988418064" lon="13.32990248194903"><ele>414.0</ele><time>2026-04-10T13:49:18Z</time></trkpt><trkpt lat="41.753886209041745" lon="13.32975245676449"><ele>416.75</ele><time>2026-04-10T13:49:19Z</time></trkpt><trkpt lat="41.753978364369345" lon="13.329609924029327"><ele>419.5</ele><time>2026-04-10T13:49:20Z</time></trkpt><trkpt lat="41.7540680442523" lon="13.329467530043638"><ele>422.25</ele><time>2026-04-10T13:49:21Z</time></trkpt><trkpt lat="41.75415902502194" lon="13.329320719040345"><ele>425.0</ele><time>2026-04-10T13:49:22Z</time></trkpt><trkpt lat="41.75424669015948" lon="13.329170235165012"><ele>425.0</ele><time>2026-04-10T13:49:23Z</time></trkpt><trkpt lat="41.75432915146984" lon="13.329017863438906"><ele>425.0</ele><time>2026-04-10T13:49:24Z</time></trkpt><trkpt lat="41.75440896898783" lon="13.328869713374155"><ele>425.0</ele><time>2026-04-10T13:49:25Z</time></trkpt><trkpt lat="41.75449298748324" lon="13.328714394327095"><ele>425.0</ele><time>2026-04-10T13:49:26Z</time></trkpt><trkpt lat="41.75458299942914" lon="13.328544877980129"><ele>425.66666666666663</ele><time>2026-04-10T13:49:27Z</time></trkpt><trkpt lat="41.75467900644398" lon="13.328367196458137"><ele>426.33333333333337</ele><time>2026-04-10T13:49:28Z</time></trkpt><trkpt lat="41.75478161961477" lon="13.3281686024348"><ele>427.0</ele><time>2026-04-10T13:49:29Z</time></trkpt><trkpt lat="41.75489337838069" lon="13.327964909626738"><ele>427.0</ele><time>2026-04-10T13:49:30Z</time></trkpt><trkpt lat="41.75501059755397" lon="13.327760040401797"><ele>427.0</ele><time>2026-04-10T13:49:31Z</time></trkpt><trkpt lat="41.755131977180696" lon="13.327556825576565"><ele>427.0</ele><time>2026-04-10T13:49:32Z</time></trkpt><trkpt lat="41.75524555173156" lon="13.327359324076522"><ele>424.33333333333337</ele><time>2026-04-10T13:49:33Z</time></trkpt><trkpt lat="41.75535852519846" lon="13.327150283339975"><ele>421.66666666666663</ele><time>2026-04-10T13:49:34Z</time></trkpt><trkpt lat="41.75547389131998" lon="13.32693366100969"><ele>419.0</ele><time>2026-04-10T13:49:35Z</time></trkpt><trkpt lat="41.755589991108565" lon="13.326713549667101"><ele>419.0</ele><time>2026-04-10T13:49:36Z</time></trkpt><trkpt lat="41.75571118766022" lon="13.326492909833721"><ele>419.0</ele><time>2026-04-10T13:49:37Z</time></trkpt><trkpt lat="41.755831876230324" lon="13.326270795370762"><ele>419.0</ele><time>2026-04-10T13:49:38Z</time></trkpt><trkpt lat="41.75595014940214" lon="13.326048829421591"><ele>419.0</ele><time>2026-04-10T13:49:39Z</time></trkpt><trkpt lat="41.75606895772513" lon="13.325829987819064"><ele>419.0</ele><time>2026-04-10T13:49:40Z</time></trkpt><trkpt lat="41.75618818339085" lon="13.32561406849305"><ele>419.0</ele><time>2026-04-10T13:49:41Z</time></trkpt><trkpt lat="41.75630543209807" lon="13.325398806304264"><ele>420.3333333333333</ele><time>2026-04-10T13:49:42Z</time></trkpt><trkpt lat="41.75642124622499" lon="13.325186754938166"><ele>421.66666666666663</ele><time>2026-04-10T13:49:43Z</time></trkpt><trkpt lat="41.756532489009736" lon="13.324985390192243"><ele>423.0</ele><time>2026-04-10T13:49:44Z</time></trkpt><trkpt lat="41.75663055094239" lon="13.324802965835142"><ele>424.33333333333337</ele><time>2026-04-10T13:49:45Z</time></trkpt><trkpt lat="41.75671941941921" lon="13.32463218786316"><ele>425.6666666666667</ele><time>2026-04-10T13:49:46Z</time></trkpt><trkpt lat="41.75680746489186" lon="13.324462445531456"><ele>427.0</ele><time>2026-04-10T13:49:47Z</time></trkpt><trkpt lat="41.75690311130245" lon="13.324277923494627"><ele>426.0</ele><time>2026-04-10T13:49:48Z</time></trkpt><trkpt lat="41.75700623414644" lon="13.324082158472988"><ele>425.0</ele><time>2026-04-10T13:49:49Z</time></trkpt><trkpt lat="41.75711133287443" lon="13.323873407875254"><ele>424.0</ele><time>2026-04-10T13:49:50Z</time></trkpt><trkpt lat="41.75722053727281" lon="13.323657495349861"><ele>424.0</ele><time>2026-04-10T13:49:51Z</time></trkpt><trkpt lat="41.7573373954114" lon="13.32344118464359"><ele>424.0</ele><time>2026-04-10T13:49:52Z</time></trkpt><trkpt lat="41.75746553136928" lon="13.323233497047832"><ele>424.0</ele><time>2026-04-10T13:49:53Z</time></trkpt><trkpt lat="41.757616329293086" lon="13.323042896486573"><ele>425.0</ele><time>2026-04-10T13:49:54Z</time></trkpt><trkpt lat="41.75779815135142" lon="13.322869732412844"><ele>426.0</ele><time>2026-04-10T13:49:55Z</time></trkpt><trkpt lat="41.75801290814727" lon="13.3227177502353"><ele>426.0</ele><time>2026-04-10T13:49:56Z</time></trkpt><trkpt lat="41.75825053592969" lon="13.32259210756829"><ele>426.0</ele><time>2026-04-10T13:49:57Z</time></trkpt><trkpt lat="41.758503222278804" lon="13.322482155776003"><ele>426.5</ele><time>2026-04-10T13:49:58Z</time></trkpt><trkpt lat="41.75875780038925" lon="13.322375374552555"><ele>427.0</ele><time>2026-04-10T13:49:59Z</time></trkpt><trkpt lat="41.758999640297525" lon="13.322269095217669"><ele>430.0</ele><time>2026-04-10T13:50:00Z</time></trkpt><trkpt lat="41.75924439591612" lon="13.322169959444723"><ele>433.0</ele><time>2026-04-10T13:50:01Z</time></trkpt><trkpt lat="41.75949024992052" lon="13.322073213011507"><ele>433.0</ele><time>2026-04-10T13:50:02Z</time></trkpt><trkpt lat="41.75974353317829" lon="13.32198157525649"><ele>433.0</ele><time>2026-04-10T13:50:03Z</time></trkpt><trkpt lat="41.76000391959363" lon="13.32189662955429"><ele>431.0</ele><time>2026-04-10T13:50:04Z</time></trkpt><trkpt lat="41.76027098811275" lon="13.321807087626926"><ele>429.0</ele><time>2026-04-10T13:50:05Z</time></trkpt><trkpt lat="41.760542873969136" lon="13.32171185560796"><ele>429.0</ele><time>2026-04-10T13:50:06Z</time></trkpt><trkpt lat="41.76082384781717" lon="13.321616963423692"><ele>429.0</ele><time>2026-04-10T13:50:07Z</time></trkpt><trkpt lat="41.761128168347504" lon="13.321510767573"><ele>430.5</ele><time>2026-04-10T13:50:08Z</time></trkpt><trkpt lat="41.76145339729728" lon="13.321398368133995"><ele>432.0</ele><time>2026-04-10T13:50:09Z</time></trkpt><trkpt lat="41.761797150378186" lon="13.321285489718857"><ele>433.5</ele><time>2026-04-10T13:50:10Z</time></trkpt><trkpt lat="41.76213529539401" lon="13.321172417989763"><ele>435.0</ele><time>2026-04-10T13:50:11Z</time></trkpt><trkpt lat="41.76245282051249" lon="13.32104438915422"><ele>435.5</ele><time>2026-04-10T13:50:12Z</time></trkpt><trkpt lat="41.76276846305055" lon="13.320876652969037"><ele>436.0</ele><time>2026-04-10T13:50:13Z</time></trkpt><trkpt lat="41.76307545128334" lon="13.320683809943322"><ele>438.0</ele><time>2026-04-10T13:50:14Z</time></trkpt><trkpt lat="41.76335563407846" lon="13.32051282970685"><ele>440.0</ele><time>2026-04-10T13:50:15Z</time></trkpt><trkpt lat="41.76361410698041" lon="13.320360051555376"><ele>440.0</ele><time>2026-04-10T13:50:16Z</time></trkpt><trkpt lat="41.76384785619672" lon="13.320228324485894"><ele>440.0</ele><time>2026-04-10T13:50:17Z</time></trkpt><trkpt lat="41.764066856486046" lon="13.320115781087859"><ele>440.0</ele><time>2026-04-10T13:50:18Z</time></trkpt><trkpt lat="41.7642741734893" lon="13.320020693122924"><ele>440.0</ele><time>2026-04-10T13:50:19Z</time></trkpt><trkpt lat="41.7644707135776" lon="13.319940043028108"><ele>440.0</ele><time>2026-04-10T13:50:20Z</time></trkpt><trkpt lat="41.764654303315616" lon="13.319873427304438"><ele>441.3333333333333</ele><time>2026-04-10T13:50:21Z</time></trkpt><trkpt lat="41.76482701989282" lon="13.319824059207443"><ele>442.66666666666663</ele><time>2026-04-10T13:50:22Z</time></trkpt><trkpt lat="41.764998920515474" lon="13.319789351957883"><ele>444.0</ele><time>2026-04-10T13:50:23Z</time></trkpt><trkpt lat="41.76517613324005" lon="13.319767352378017"><ele>445.66666666666663</ele><time>2026-04-10T13:50:24Z</time></trkpt><trkpt lat="41.765357692555476" lon="13.319759515813349"><ele>447.3333333333333</ele><time>2026-04-10T13:50:25Z</time></trkpt><trkpt lat="41.76554612872069" lon="13.319767032524222"><ele>449.0</ele><time>2026-04-10T13:50:26Z</time></trkpt><trkpt lat="41.7657494330127" lon="13.319801208223982"><ele>449.0</ele><time>2026-04-10T13:50:27Z</time></trkpt><trkpt lat="41.76595983877865" lon="13.319831923686003"><ele>449.0</ele><time>2026-04-10T13:50:28Z</time></trkpt><trkpt lat="41.76617583359197" lon="13.319859233897555"><ele>449.0</ele><time>2026-04-10T13:50:29Z</time></trkpt><trkpt lat="41.76639372526651" lon="13.319939682293585"><ele>450.5</ele><time>2026-04-10T13:50:30Z</time></trkpt><trkpt lat="41.76660951052403" lon="13.320037090739307"><ele>452.0</ele><time>2026-04-10T13:50:31Z</time></trkpt><trkpt lat="41.76683366889131" lon="13.320134866197714"><ele>454.5</ele><time>2026-04-10T13:50:32Z</time></trkpt><trkpt lat="41.76708563348961" lon="13.32022142406806"><ele>457.0</ele><time>2026-04-10T13:50:33Z</time></trkpt><trkpt lat="41.76735106738584" lon="13.320265320212913"><ele>457.0</ele><time>2026-04-10T13:50:34Z</time></trkpt><trkpt lat="41.76759433210045" lon="13.320240242807143"><ele>457.0</ele><time>2026-04-10T13:50:35Z</time></trkpt><trkpt lat="41.767832684956424" lon="13.320156502738145"><ele>457.5</ele><time>2026-04-10T13:50:36Z</time></trkpt><trkpt lat="41.768080354544665" lon="13.32002864040192"><ele>458.0</ele><time>2026-04-10T13:50:37Z</time></trkpt><trkpt lat="41.768340560000944" lon="13.31987553511415"><ele>461.0</ele><time>2026-04-10T13:50:38Z</time></trkpt><trkpt lat="41.768595940213615" lon="13.319724472451872"><ele>464.0</ele><time>2026-04-10T13:50:39Z</time></trkpt><trkpt lat="41.76885137179445" lon="13.319578942608057"><ele>464.0</ele><time>2026-04-10T13:50:40Z</time></trkpt><trkpt lat="41.76910468980021" lon="13.319433109935066"><ele>464.0</ele><time>2026-04-10T13:50:41Z</time></trkpt><trkpt lat="41.76935414421851" lon="13.31928689468666"><ele>464.0</ele><time>2026-04-10T13:50:42Z</time></trkpt><trkpt lat="41.76960643765989" lon="13.319137322649352"><ele>464.0</ele><time>2026-04-10T13:50:43Z</time></trkpt><trkpt lat="41.769836289956324" lon="13.31899896533484"><ele>466.5</ele><time>2026-04-10T13:50:44Z</time></trkpt><trkpt lat="41.77005114821165" lon="13.318870860055595"><ele>469.0</ele><time>2026-04-10T13:50:45Z</time></trkpt><trkpt lat="41.77026357110648" lon="13.318740849476251"><ele>469.33333333333337</ele><time>2026-04-10T13:50:46Z</time></trkpt><trkpt lat="41.770469548332784" lon="13.318613106383443"><ele>469.66666666666663</ele><time>2026-04-10T13:50:47Z</time></trkpt><trkpt lat="41.77066971338875" lon="13.318492061779827"><ele>470.0</ele><time>2026-04-10T13:50:48Z</time></trkpt><trkpt lat="41.77086732901097" lon="13.31838179503951"><ele>471.3333333333333</ele><time>2026-04-10T13:50:49Z</time></trkpt><trkpt lat="41.77106555561428" lon="13.318297318717944"><ele>472.66666666666663</ele><time>2026-04-10T13:50:50Z</time></trkpt><trkpt lat="41.771263165562495" lon="13.31825369174029"><ele>474.0</ele><time>2026-04-10T13:50:51Z</time></trkpt><trkpt lat="41.771456860404314" lon="13.318249604269475"><ele>474.0</ele><time>2026-04-10T13:50:52Z</time></trkpt><trkpt lat="41.77164333365763" lon="13.318278950516396"><ele>474.0</ele><time>2026-04-10T13:50:53Z</time></trkpt><trkpt lat="41.77181926790981" lon="13.31833163935399"><ele>474.0</ele><time>2026-04-10T13:50:54Z</time></trkpt><trkpt lat="41.77197541017665" lon="13.318398617286585"><ele>475.33333333333337</ele><time>2026-04-10T13:50:55Z</time></trkpt><trkpt lat="41.77212274045393" lon="13.318498441351323"><ele>476.6666666666667</ele><time>2026-04-10T13:50:56Z</time></trkpt><trkpt lat="41.772260953063864" lon="13.318630575663153"><ele>478.0</ele><time>2026-04-10T13:50:57Z</time></trkpt><trkpt lat="41.77239186478671" lon="13.31878376355122"><ele>477.0</ele><time>2026-04-10T13:50:58Z</time></trkpt><trkpt lat="41.77251907639301" lon="13.318947968793806"><ele>476.0</ele><time>2026-04-10T13:50:59Z</time></trkpt><trkpt lat="41.77264341824517" lon="13.31910687962116"><ele>475.0</ele><time>2026-04-10T13:51:00Z</time></trkpt><trkpt lat="41.77275883235795" lon="13.319247833651364"><ele>477.0</ele><time>2026-04-10T13:51:01Z</time></trkpt><trkpt lat="41.77286715494157" lon="13.319384799781503"><ele>479.0</ele><time>2026-04-10T13:51:02Z</time></trkpt><trkpt lat="41.772978343554726" lon="13.31952468931924"><ele>481.0</ele><time>2026-04-10T13:51:03Z</time></trkpt><trkpt lat="41.77309740554814" lon="13.31967118528089"><ele>480.33333333333337</ele><time>2026-04-10T13:51:04Z</time></trkpt><trkpt lat="41.773222294992365" lon="13.319825105423662"><ele>479.66666666666663</ele><time>2026-04-10T13:51:05Z</time></trkpt><trkpt lat="41.77335210270054" lon="13.31998797614038"><ele>479.0</ele><time>2026-04-10T13:51:06Z</time></trkpt><trkpt lat="41.773484404006496" lon="13.32015290483335"><ele>480.3333333333333</ele><time>2026-04-10T13:51:07Z</time></trkpt><trkpt lat="41.773608417193834" lon="13.320302038848162"><ele>481.66666666666663</ele><time>2026-04-10T13:51:08Z</time></trkpt><trkpt lat="41.773726159477796" lon="13.320432690718388"><ele>483.0</ele><time>2026-04-10T13:51:09Z</time></trkpt><trkpt lat="41.773849399052864" lon="13.32053388412039"><ele>483.0</ele><time>2026-04-10T13:51:10Z</time></trkpt><trkpt lat="41.77398549443655" lon="13.3205985544848"><ele>483.0</ele><time>2026-04-10T13:51:11Z</time></trkpt><trkpt lat="41.77412881072627" lon="13.320618621597367"><ele>483.0</ele><time>2026-04-10T13:51:12Z</time></trkpt><trkpt lat="41.77427837245565" lon="13.320606508115166"><ele>483.0</ele><time>2026-04-10T13:51:13Z</time></trkpt><trkpt lat="41.774430068608176" lon="13.32056571915178"><ele>483.0</ele><time>2026-04-10T13:51:14Z</time></trkpt><trkpt lat="41.77458576778485" lon="13.320502719381524"><ele>483.0</ele><time>2026-04-10T13:51:15Z</time></trkpt><trkpt lat="41.77474150616768" lon="13.320437237252559"><ele>483.0</ele><time>2026-04-10T13:51:16Z</time></trkpt><trkpt lat="41.77489684613525" lon="13.320362081351739"><ele>483.0</ele><time>2026-04-10T13:51:17Z</time></trkpt><trkpt lat="41.77505549767166" lon="13.320282942157267"><ele>483.0</ele><time>2026-04-10T13:51:18Z</time></trkpt><trkpt lat="41.77521926418271" lon="13.320203360589352"><ele>483.0</ele><time>2026-04-10T13:51:19Z</time></trkpt><trkpt lat="41.77538995632015" lon="13.320122610439524"><ele>483.33333333333337</ele><time>2026-04-10T13:51:20Z</time></trkpt><trkpt lat="41.77557152093286" lon="13.320042341264967"><ele>483.6666666666667</ele><time>2026-04-10T13:51:21Z</time></trkpt><trkpt lat="41.775759025201644" lon="13.319952034918044"><ele>484.0</ele><time>2026-04-10T13:51:22Z</time></trkpt><trkpt lat="41.775956517027765" lon="13.31986135662332"><ele>484.0</ele><time>2026-04-10T13:51:23Z</time></trkpt><trkpt lat="41.77616224337121" lon="13.319768245858361"><ele>484.0</ele><time>2026-04-10T13:51:24Z</time></trkpt><trkpt lat="41.77638446345581" lon="13.319669228609746"><ele>487.0</ele><time>2026-04-10T13:51:25Z</time></trkpt><trkpt lat="41.776634332464994" lon="13.319558707238103"><ele>490.0</ele><time>2026-04-10T13:51:26Z</time></trkpt><trkpt lat="41.776910273039356" lon="13.319431284500105"><ele>490.0</ele><time>2026-04-10T13:51:27Z</time></trkpt><trkpt lat="41.77716045558383" lon="13.319312901050276"><ele>490.0</ele><time>2026-04-10T13:51:28Z</time></trkpt><trkpt lat="41.7774031378749" lon="13.319199343230277"><ele>490.0</ele><time>2026-04-10T13:51:29Z</time></trkpt><trkpt lat="41.77764290926704" lon="13.319091233390239"><ele>490.0</ele><time>2026-04-10T13:51:30Z</time></trkpt><trkpt lat="41.777890875610886" lon="13.318974223406437"><ele>493.0</ele><time>2026-04-10T13:51:31Z</time></trkpt><trkpt lat="41.77813952043603" lon="13.318856085045798"><ele>496.0</ele><time>2026-04-10T13:51:32Z</time></trkpt><trkpt lat="41.77837206412094" lon="13.318754679652143"><ele>495.0</ele><time>2026-04-10T13:51:33Z</time></trkpt><trkpt lat="41.778586004440335" lon="13.31865095859066"><ele>494.0</ele><time>2026-04-10T13:51:34Z</time></trkpt><trkpt lat="41.778795753968865" lon="13.318520423614657"><ele>494.0</ele><time>2026-04-10T13:51:35Z</time></trkpt><trkpt lat="41.77898533045069" lon="13.318346474122276"><ele>494.0</ele><time>2026-04-10T13:51:36Z</time></trkpt><trkpt lat="41.7791621487819" lon="13.318131509833423"><ele>493.5</ele><time>2026-04-10T13:51:37Z</time></trkpt><trkpt lat="41.7793343271549" lon="13.317887944740507"><ele>493.0</ele><time>2026-04-10T13:51:38Z</time></trkpt><trkpt lat="41.77950231176678" lon="13.317621036620926"><ele>493.0</ele><time>2026-04-10T13:51:39Z</time></trkpt><trkpt lat="41.779671944775984" lon="13.317346673798877"><ele>493.0</ele><time>2026-04-10T13:51:40Z</time></trkpt><trkpt lat="41.77984520925835" lon="13.317072039849647"><ele>492.5</ele><time>2026-04-10T13:51:41Z</time></trkpt><trkpt lat="41.78001764880887" lon="13.316793913539522"><ele>492.0</ele><time>2026-04-10T13:51:42Z</time></trkpt><trkpt lat="41.78018686011772" lon="13.316519757996605"><ele>492.5</ele><time>2026-04-10T13:51:43Z</time></trkpt><trkpt lat="41.78035086525241" lon="13.316261724438782"><ele>493.0</ele><time>2026-04-10T13:51:44Z</time></trkpt><trkpt lat="41.78050470506483" lon="13.316015493220227"><ele>493.0</ele><time>2026-04-10T13:51:45Z</time></trkpt><trkpt lat="41.7806539620813" lon="13.315776209805358"><ele>493.0</ele><time>2026-04-10T13:51:46Z</time></trkpt><trkpt lat="41.78080501797412" lon="13.31555332599386"><ele>495.0</ele><time>2026-04-10T13:51:47Z</time></trkpt><trkpt lat="41.780969154357635" lon="13.3153504989448"><ele>497.0</ele><time>2026-04-10T13:51:48Z</time></trkpt><trkpt lat="41.78115176690566" lon="13.315201845398883"><ele>499.0</ele><time>2026-04-10T13:51:49Z</time></trkpt><trkpt lat="41.78134682203827" lon="13.31509537071785"><ele>499.0</ele><time>2026-04-10T13:51:50Z</time></trkpt><trkpt lat="41.78155150424647" lon="13.31502557199632"><ele>499.0</ele><time>2026-04-10T13:51:51Z</time></trkpt><trkpt lat="41.78176091715973" lon="13.314996121885068"><ele>499.0</ele><time>2026-04-10T13:51:52Z</time></trkpt><trkpt lat="41.78196958481628" lon="13.314983034076606"><ele>498.6666666666667</ele><time>2026-04-10T13:51:53Z</time></trkpt><trkpt lat="41.782161283969245" lon="13.314979374903546"><ele>498.33333333333337</ele><time>2026-04-10T13:51:54Z</time></trkpt><trkpt lat="41.78233248601851" lon="13.314983227978889"><ele>498.0</ele><time>2026-04-10T13:51:55Z</time></trkpt><trkpt lat="41.782475411216915" lon="13.314983851465026"><ele>498.0</ele><time>2026-04-10T13:51:56Z</time></trkpt><trkpt lat="41.78259761086868" lon="13.314983485730314"><ele>498.0</ele><time>2026-04-10T13:51:57Z</time></trkpt><trkpt lat="41.78271048619706" lon="13.314985166034743"><ele>498.0</ele><time>2026-04-10T13:51:58Z</time></trkpt><trkpt lat="41.78281880881955" lon="13.314985378905378"><ele>498.0</ele><time>2026-04-10T13:51:59Z</time></trkpt><trkpt lat="41.78294132327506" lon="13.314986176321376"><ele>498.75</ele><time>2026-04-10T13:52:00Z</time></trkpt><trkpt lat="41.783071149167334" lon="13.314981700276595"><ele>499.5</ele><time>2026-04-10T13:52:01Z</time></trkpt><trkpt lat="41.78320593938171" lon="13.314979757279787"><ele>500.25</ele><time>2026-04-10T13:52:02Z</time></trkpt><trkpt lat="41.783346674894965" lon="13.3149797509019"><ele>501.0</ele><time>2026-04-10T13:52:03Z</time></trkpt><trkpt lat="41.783480127555556" lon="13.314978616161541"><ele>501.66666666666663</ele><time>2026-04-10T13:52:04Z</time></trkpt><trkpt lat="41.78364220655998" lon="13.314969695204136"><ele>502.3333333333333</ele><time>2026-04-10T13:52:05Z</time></trkpt><trkpt lat="41.783837586938155" lon="13.314985151174012"><ele>503.0</ele><time>2026-04-10T13:52:06Z</time></trkpt><trkpt lat="41.78403550477551" lon="13.314963771515043"><ele>503.0</ele><time>2026-04-10T13:52:07Z</time></trkpt><trkpt lat="41.78423117366867" lon="13.314979923962296"><ele>503.0</ele><time>2026-04-10T13:52:08Z</time></trkpt><trkpt lat="41.784433200124475" lon="13.314989842954533"><ele>503.0</ele><time>2026-04-10T13:52:09Z</time></trkpt><trkpt lat="41.784638395215" lon="13.314990466280365"><ele>504.66666666666663</ele><time>2026-04-10T13:52:10Z</time></trkpt><trkpt lat="41.784846500388014" lon="13.314987032449132"><ele>506.33333333333337</ele><time>2026-04-10T13:52:11Z</time></trkpt><trkpt lat="41.7850599337197" lon="13.314974179504143"><ele>508.0</ele><time>2026-04-10T13:52:12Z</time></trkpt><trkpt lat="41.78528459389043" lon="13.314933325403544"><ele>510.0</ele><time>2026-04-10T13:52:13Z</time></trkpt><trkpt lat="41.7855093534113" lon="13.314844714212745"><ele>512.0</ele><time>2026-04-10T13:52:14Z</time></trkpt><trkpt lat="41.78572434278772" lon="13.314701117847731"><ele>513.0</ele><time>2026-04-10T13:52:15Z</time></trkpt><trkpt lat="41.785927218128236" lon="13.31451670859117"><ele>514.0</ele><time>2026-04-10T13:52:16Z</time></trkpt><trkpt lat="41.78613142282031" lon="13.314313064949959"><ele>514.0</ele><time>2026-04-10T13:52:17Z</time></trkpt><trkpt lat="41.78633078353579" lon="13.31411338144093"><ele>514.0</ele><time>2026-04-10T13:52:18Z</time></trkpt><trkpt lat="41.7865321515328" lon="13.313913778654047"><ele>516.0</ele><time>2026-04-10T13:52:19Z</time></trkpt><trkpt lat="41.78673777447771" lon="13.31371751214477"><ele>518.0</ele><time>2026-04-10T13:52:20Z</time></trkpt><trkpt lat="41.786941696464524" lon="13.313518375162264"><ele>519.5</ele><time>2026-04-10T13:52:21Z</time></trkpt><trkpt lat="41.78714393448397" lon="13.31331646515885"><ele>521.0</ele><time>2026-04-10T13:52:22Z</time></trkpt><trkpt lat="41.787344884168576" lon="13.313120334092929"><ele>522.0</ele><time>2026-04-10T13:52:23Z</time></trkpt><trkpt lat="41.787541665374285" lon="13.312928466241447"><ele>523.0</ele><time>2026-04-10T13:52:24Z</time></trkpt><trkpt lat="41.787733638409236" lon="13.312734460603714"><ele>524.0</ele><time>2026-04-10T13:52:25Z</time></trkpt><trkpt lat="41.78792328919522" lon="13.312542276438384"><ele>525.0</ele><time>2026-04-10T13:52:26Z</time></trkpt><trkpt lat="41.7880971523267" lon="13.312367189704007"><ele>525.6666666666666</ele><time>2026-04-10T13:52:27Z</time></trkpt><trkpt lat="41.78825986567741" lon="13.31221130485392"><ele>526.3333333333333</ele><time>2026-04-10T13:52:28Z</time></trkpt><trkpt lat="41.78841911896351" lon="13.312084890733992"><ele>527.0</ele><time>2026-04-10T13:52:29Z</time></trkpt><trkpt lat="41.78858175903591" lon="13.311994247821346"><ele>528.6666666666666</ele><time>2026-04-10T13:52:30Z</time></trkpt><trkpt lat="41.78875626588445" lon="13.311949023166575"><ele>530.3333333333334</ele><time>2026-04-10T13:52:31Z</time></trkpt><trkpt lat="41.78893430735337" lon="13.311945835506524"><ele>532.0</ele><time>2026-04-10T13:52:32Z</time></trkpt><trkpt lat="41.7891096581287" lon="13.311985075049002"><ele>532.0</ele><time>2026-04-10T13:52:33Z</time></trkpt><trkpt lat="41.78927438722321" lon="13.312072068055109"><ele>532.0</ele><time>2026-04-10T13:52:34Z</time></trkpt><trkpt lat="41.789427234086176" lon="13.312198963183194"><ele>532.0</ele><time>2026-04-10T13:52:35Z</time></trkpt><trkpt lat="41.78956369121843" lon="13.312366921715642"><ele>535.0</ele><time>2026-04-10T13:52:36Z</time></trkpt><trkpt lat="41.78967397245537" lon="13.312571650021"><ele>538.0</ele><time>2026-04-10T13:52:37Z</time></trkpt><trkpt lat="41.7897580601041" lon="13.312813538030351"><ele>541.0</ele><time>2026-04-10T13:52:38Z</time></trkpt><trkpt lat="41.78980201740318" lon="13.313077629211712"><ele>541.0</ele><time>2026-04-10T13:52:39Z</time></trkpt><trkpt lat="41.789835693352984" lon="13.31337192110754"><ele>541.0</ele><time>2026-04-10T13:52:40Z</time></trkpt><trkpt lat="41.78986588453662" lon="13.31367008378463"><ele>541.0</ele><time>2026-04-10T13:52:41Z</time></trkpt><trkpt lat="41.78990102382533" lon="13.313964038152664"><ele>540.6666666666667</ele><time>2026-04-10T13:52:42Z</time></trkpt><trkpt lat="41.789949387028166" lon="13.314252116825331"><ele>540.3333333333334</ele><time>2026-04-10T13:52:43Z</time></trkpt><trkpt lat="41.79002077667605" lon="13.314535165383061"><ele>540.0</ele><time>2026-04-10T13:52:44Z</time></trkpt><trkpt lat="41.79011495182917" lon="13.314807380925476"><ele>544.0</ele><time>2026-04-10T13:52:45Z</time></trkpt><trkpt lat="41.7902177408417" lon="13.315072590316829"><ele>548.0</ele><time>2026-04-10T13:52:46Z</time></trkpt><trkpt lat="41.79031756522171" lon="13.315335608212372"><ele>552.0</ele><time>2026-04-10T13:52:47Z</time></trkpt><trkpt lat="41.79040437228653" lon="13.315571697168764"><ele>552.0</ele><time>2026-04-10T13:52:48Z</time></trkpt><trkpt lat="41.79048390884653" lon="13.3157824272017"><ele>552.0</ele><time>2026-04-10T13:52:49Z</time></trkpt><trkpt lat="41.790579122574606" lon="13.315976089032773"><ele>552.0</ele><time>2026-04-10T13:52:50Z</time></trkpt><trkpt lat="41.79070985698402" lon="13.316151258610907"><ele>552.0</ele><time>2026-04-10T13:52:51Z</time></trkpt><trkpt lat="41.79087057331109" lon="13.31629852394578"><ele>552.0</ele><time>2026-04-10T13:52:52Z</time></trkpt><trkpt lat="41.79105578521969" lon="13.316423013103375"><ele>552.0</ele><time>2026-04-10T13:52:53Z</time></trkpt><trkpt lat="41.79125360162774" lon="13.316527525123975"><ele>551.3333333333334</ele><time>2026-04-10T13:52:54Z</time></trkpt><trkpt lat="41.79146120833501" lon="13.316613171218373"><ele>550.6666666666667</ele><time>2026-04-10T13:52:55Z</time></trkpt><trkpt lat="41.79167117294965" lon="13.316656960219051"><ele>550.0</ele><time>2026-04-10T13:52:56Z</time></trkpt><trkpt lat="41.79186206853684" lon="13.316662163293426"><ele>551.3333333333334</ele><time>2026-04-10T13:52:57Z</time></trkpt><trkpt lat="41.79206064477024" lon="13.316627085343514"><ele>552.6666666666666</ele><time>2026-04-10T13:52:58Z</time></trkpt><trkpt lat="41.79228068992919" lon="13.316537097463089"><ele>554.0</ele><time>2026-04-10T13:52:59Z</time></trkpt><trkpt lat="41.7925318712142" lon="13.31640892268723"><ele>563.0</ele><time>2026-04-10T13:53:00Z</time></trkpt><trkpt lat="41.792783591716045" lon="13.316275624163454"><ele>572.0</ele><time>2026-04-10T13:53:01Z</time></trkpt><trkpt lat="41.793061812626775" lon="13.31613004828006"><ele>572.0</ele><time>2026-04-10T13:53:02Z</time></trkpt><trkpt lat="41.79334341558398" lon="13.315975680268958"><ele>572.0</ele><time>2026-04-10T13:53:03Z</time></trkpt><trkpt lat="41.79362798646654" lon="13.315792306910042"><ele>566.5</ele><time>2026-04-10T13:53:04Z</time></trkpt><trkpt lat="41.79392520638257" lon="13.315590101940392"><ele>561.0</ele><time>2026-04-10T13:53:05Z</time></trkpt><trkpt lat="41.79419181461366" lon="13.315395056661176"><ele>567.5</ele><time>2026-04-10T13:53:06Z</time></trkpt><trkpt lat="41.794426447701845" lon="13.315202513358418"><ele>574.0</ele><time>2026-04-10T13:53:07Z</time></trkpt><trkpt lat="41.79462334406595" lon="13.315029160173035"><ele>574.0</ele><time>2026-04-10T13:53:08Z</time></trkpt><trkpt lat="41.79478531135058" lon="13.314889125504378"><ele>574.0</ele><time>2026-04-10T13:53:09Z</time></trkpt><trkpt lat="41.79491680614206" lon="13.3147812708311"><ele>574.0</ele><time>2026-04-10T13:53:10Z</time></trkpt><trkpt lat="41.79501344775332" lon="13.314705236861952"><ele>574.6666666666667</ele><time>2026-04-10T13:53:11Z</time></trkpt><trkpt lat="41.79508094116501" lon="13.314654764865736"><ele>575.3333333333334</ele><time>2026-04-10T13:53:12Z</time></trkpt><trkpt lat="41.79514572199511" lon="13.314610761310155"><ele>576.0</ele><time>2026-04-10T13:53:13Z</time></trkpt><trkpt lat="41.79524202227844" lon="13.31453667452844"><ele>576.6666666666666</ele><time>2026-04-10T13:53:15Z</time></trkpt><trkpt lat="41.79531120657797" lon="13.314508916195436"><ele>577.3333333333333</ele><time>2026-04-10T13:53:17Z</time></trkpt><trkpt lat="41.79537080306264" lon="13.314575154541549"><ele>578.0</ele><time>2026-04-10T13:53:21Z</time></trkpt><trkpt lat="41.7953534225951" lon="13.314658805610929"><ele>578.0</ele><time>2026-04-10T13:53:24Z</time></trkpt><trkpt lat="41.7953844726096" lon="13.314583596466907"><ele>578.0</ele><time>2026-04-10T14:09:11Z</time></trkpt><trkpt lat="41.79535667576956" lon="13.31449973129799"><ele>578.0</ele><time>2026-04-10T14:09:17Z</time></trkpt><trkpt lat="41.79538822372067" lon="13.314378316510052"><ele>578.0</ele><time>2026-04-10T14:09:24Z</time></trkpt><trkpt lat="41.795462571300966" lon="13.314314207904125"><ele>578.0</ele><time>2026-04-10T14:09:26Z</time></trkpt><trkpt lat="41.7955473562204" lon="13.314251312329995"><ele>578.0</ele><time>2026-04-10T14:09:28Z</time></trkpt><trkpt lat="41.79560563101989" lon="13.314214116113755"><ele>578.0</ele><time>2026-04-10T14:09:29Z</time></trkpt><trkpt lat="41.79566777550396" lon="13.314175110950977"><ele>578.0</ele><time>2026-04-10T14:09:30Z</time></trkpt><trkpt lat="41.79573486198871" lon="13.314141951103817"><ele>578.0</ele><time>2026-04-10T14:09:31Z</time></trkpt><trkpt lat="41.795813674669965" lon="13.314118974913667"><ele>578.0</ele><time>2026-04-10T14:09:32Z</time></trkpt><trkpt lat="41.795895737525754" lon="13.31412714663966"><ele>578.0</ele><time>2026-04-10T14:09:33Z</time></trkpt><trkpt lat="41.79597217819677" lon="13.31418651852279"><ele>578.0</ele><time>2026-04-10T14:09:34Z</time></trkpt><trkpt lat="41.796030344602784" lon="13.314288494214686"><ele>578.4</ele><time>2026-04-10T14:09:35Z</time></trkpt><trkpt lat="41.79606870131975" lon="13.31440197063497"><ele>578.8</ele><time>2026-04-10T14:09:36Z</time></trkpt><trkpt lat="41.79610399444675" lon="13.314516459130749"><ele>579.2</ele><time>2026-04-10T14:09:37Z</time></trkpt><trkpt lat="41.79614442099354" lon="13.314633421897623"><ele>579.6</ele><time>2026-04-10T14:09:38Z</time></trkpt><trkpt lat="41.79619338250757" lon="13.314760580387405"><ele>580.0</ele><time>2026-04-10T14:09:39Z</time></trkpt><trkpt lat="41.79624342099872" lon="13.314892970745412"><ele>580.0</ele><time>2026-04-10T14:09:40Z</time></trkpt><trkpt lat="41.79629756603922" lon="13.315021561997769"><ele>580.0</ele><time>2026-04-10T14:09:41Z</time></trkpt><trkpt lat="41.796353659114324" lon="13.31515194299771"><ele>580.0</ele><time>2026-04-10T14:09:42Z</time></trkpt><trkpt lat="41.796403351336885" lon="13.315283734299138"><ele>580.0</ele><time>2026-04-10T14:09:43Z</time></trkpt><trkpt lat="41.7964523339225" lon="13.315424449785201"><ele>580.0</ele><time>2026-04-10T14:09:44Z</time></trkpt><trkpt lat="41.79649430072721" lon="13.315538058413319"><ele>579.6666666666667</ele><time>2026-04-10T14:09:45Z</time></trkpt><trkpt lat="41.79654390394937" lon="13.31563617339038"><ele>579.3333333333334</ele><time>2026-04-10T14:09:46Z</time></trkpt><trkpt lat="41.796607532695404" lon="13.315714160639795"><ele>579.0</ele><time>2026-04-10T14:09:47Z</time></trkpt><trkpt lat="41.79668253025432" lon="13.315759204344403"><ele>578.6666666666666</ele><time>2026-04-10T14:09:48Z</time></trkpt><trkpt lat="41.796760157577005" lon="13.315768891927561"><ele>578.3333333333333</ele><time>2026-04-10T14:09:49Z</time></trkpt><trkpt lat="41.796841589229395" lon="13.315757780955614"><ele>578.0</ele><time>2026-04-10T14:09:50Z</time></trkpt><trkpt lat="41.79692428355961" lon="13.315728704258403"><ele>578.8</ele><time>2026-04-10T14:09:51Z</time></trkpt><trkpt lat="41.797011183641466" lon="13.315706031550587"><ele>579.5999999999999</ele><time>2026-04-10T14:09:52Z</time></trkpt><trkpt lat="41.79710138406796" lon="13.315679958718215"><ele>580.4000000000001</ele><time>2026-04-10T14:09:53Z</time></trkpt><trkpt lat="41.7971929170409" lon="13.315622887966779"><ele>581.2</ele><time>2026-04-10T14:09:54Z</time></trkpt><trkpt lat="41.79728225092613" lon="13.315552418319205"><ele>582.0</ele><time>2026-04-10T14:09:55Z</time></trkpt><trkpt lat="41.79737535560873" lon="13.315491343751845"><ele>583.6</ele><time>2026-04-10T14:09:56Z</time></trkpt><trkpt lat="41.79746655580724" lon="13.3154237532368"><ele>585.2</ele><time>2026-04-10T14:09:57Z</time></trkpt><trkpt lat="41.797579156575374" lon="13.315340413663462"><ele>586.8</ele><time>2026-04-10T14:09:58Z</time></trkpt><trkpt lat="41.797681434471194" lon="13.315274943128568"><ele>588.4</ele><time>2026-04-10T14:09:59Z</time></trkpt><trkpt lat="41.79776853840571" lon="13.31524887133124"><ele>590.0</ele><time>2026-04-10T14:10:00Z</time></trkpt><trkpt lat="41.79784664439466" lon="13.315281201131814"><ele>590.4</ele><time>2026-04-10T14:10:01Z</time></trkpt><trkpt lat="41.79791875734184" lon="13.315358790323115"><ele>590.8</ele><time>2026-04-10T14:10:02Z</time></trkpt><trkpt lat="41.79798011039963" lon="13.315475450268147"><ele>591.2</ele><time>2026-04-10T14:10:03Z</time></trkpt><trkpt lat="41.79805199519897" lon="13.315588099085208"><ele>591.6</ele><time>2026-04-10T14:10:04Z</time></trkpt><trkpt lat="41.79812110596848" lon="13.315708547539346"><ele>592.0</ele><time>2026-04-10T14:10:05Z</time></trkpt><trkpt lat="41.7981849441857" lon="13.315833413044212"><ele>592.0</ele><time>2026-04-10T14:10:06Z</time></trkpt><trkpt lat="41.79826568620979" lon="13.315966084268103"><ele>592.0</ele><time>2026-04-10T14:10:07Z</time></trkpt><trkpt lat="41.79834332332028" lon="13.316109131525142"><ele>592.0</ele><time>2026-04-10T14:10:08Z</time></trkpt><trkpt lat="41.79842109125124" lon="13.316254016092898"><ele>592.0</ele><time>2026-04-10T14:10:09Z</time></trkpt><trkpt lat="41.79847951708821" lon="13.316343159898215"><ele>593.0</ele><time>2026-04-10T14:10:10Z</time></trkpt><trkpt lat="41.79854877123515" lon="13.316406458612281"><ele>594.0</ele><time>2026-04-10T14:10:11Z</time></trkpt><trkpt lat="41.79862307029727" lon="13.316468414607428"><ele>595.0</ele><time>2026-04-10T14:10:12Z</time></trkpt><trkpt lat="41.79875454146485" lon="13.31644946874265"><ele>596.0</ele><time>2026-04-10T14:10:14Z</time></trkpt><trkpt lat="41.79883100194111" lon="13.316406030505366"><ele>597.0</ele><time>2026-04-10T14:10:15Z</time></trkpt><trkpt lat="41.79888088948805" lon="13.316296527935767"><ele>598.6</ele><time>2026-04-10T14:10:16Z</time></trkpt><trkpt lat="41.798871992849925" lon="13.31616256031364"><ele>600.2</ele><time>2026-04-10T14:10:17Z</time></trkpt><trkpt lat="41.79884097240196" lon="13.316036042114979"><ele>601.8</ele><time>2026-04-10T14:10:18Z</time></trkpt><trkpt lat="41.79880056198666" lon="13.315906991015572"><ele>603.4</ele><time>2026-04-10T14:10:19Z</time></trkpt><trkpt lat="41.79874825880913" lon="13.31575556485238"><ele>605.0</ele><time>2026-04-10T14:10:20Z</time></trkpt><trkpt lat="41.798693876655335" lon="13.315599779770851"><ele>604.25</ele><time>2026-04-10T14:10:21Z</time></trkpt><trkpt lat="41.79863498787902" lon="13.315441946156541"><ele>603.5</ele><time>2026-04-10T14:10:22Z</time></trkpt><trkpt lat="41.7985831181442" lon="13.315278729490506"><ele>602.75</ele><time>2026-04-10T14:10:23Z</time></trkpt><trkpt lat="41.79853014248543" lon="13.315115211357982"><ele>602.0</ele><time>2026-04-10T14:10:24Z</time></trkpt><trkpt lat="41.79847862757773" lon="13.314961394051263"><ele>602.0</ele><time>2026-04-10T14:10:25Z</time></trkpt><trkpt lat="41.79844151645535" lon="13.314843147902407"><ele>602.0</ele><time>2026-04-10T14:10:26Z</time></trkpt><trkpt lat="41.79841653152597" lon="13.314743955897011"><ele>602.0</ele><time>2026-04-10T14:10:27Z</time></trkpt><trkpt lat="41.798464572705846" lon="13.314622655658908"><ele>602.0</ele><time>2026-04-10T14:10:29Z</time></trkpt><trkpt lat="41.79852736998493" lon="13.314609918099961"><ele>602.0</ele><time>2026-04-10T14:10:30Z</time></trkpt><trkpt lat="41.79858853481247" lon="13.314700050750018"><ele>602.0</ele><time>2026-04-10T14:10:31Z</time></trkpt><trkpt lat="41.79863251946254" lon="13.314785500465398"><ele>605.4</ele><time>2026-04-10T14:10:32Z</time></trkpt><trkpt lat="41.79869732767365" lon="13.31488608959887"><ele>608.8000000000001</ele><time>2026-04-10T14:10:33Z</time></trkpt><trkpt lat="41.79877125822558" lon="13.315010260663142"><ele>612.2</ele><time>2026-04-10T14:10:34Z</time></trkpt><trkpt lat="41.798832525076584" lon="13.315121566034126"><ele>615.6</ele><time>2026-04-10T14:10:35Z</time></trkpt><trkpt lat="41.798900677881505" lon="13.315251535548118"><ele>619.0</ele><time>2026-04-10T14:10:36Z</time></trkpt><trkpt lat="41.79897738480224" lon="13.315388608309163"><ele>619.0</ele><time>2026-04-10T14:10:37Z</time></trkpt><trkpt lat="41.799078957134526" lon="13.315512828840719"><ele>619.0</ele><time>2026-04-10T14:10:38Z</time></trkpt><trkpt lat="41.79919079028743" lon="13.315598105209954"><ele>619.0</ele><time>2026-04-10T14:10:39Z</time></trkpt><trkpt lat="41.79931053320389" lon="13.3156711199031"><ele>619.0</ele><time>2026-04-10T14:10:40Z</time></trkpt><trkpt lat="41.79943950463887" lon="13.315726321293912"><ele>621.75</ele><time>2026-04-10T14:10:41Z</time></trkpt><trkpt lat="41.79955526810357" lon="13.31580738670356"><ele>624.5</ele><time>2026-04-10T14:10:42Z</time></trkpt><trkpt lat="41.799673043625724" lon="13.315880563768356"><ele>627.25</ele><time>2026-04-10T14:10:43Z</time></trkpt><trkpt lat="41.79977506336845" lon="13.315973646024727"><ele>630.0</ele><time>2026-04-10T14:10:44Z</time></trkpt><trkpt lat="41.79986047871971" lon="13.316091042089"><ele>630.0</ele><time>2026-04-10T14:10:45Z</time></trkpt><trkpt lat="41.79994252274404" lon="13.316216511890698"><ele>630.0</ele><time>2026-04-10T14:10:46Z</time></trkpt><trkpt lat="41.800014953248535" lon="13.316353086714193"><ele>630.0</ele><time>2026-04-10T14:10:47Z</time></trkpt><trkpt lat="41.80009036541664" lon="13.316479976946649"><ele>630.0</ele><time>2026-04-10T14:10:48Z</time></trkpt><trkpt lat="41.80016386954508" lon="13.316628117860507"><ele>633.25</ele><time>2026-04-10T14:10:49Z</time></trkpt><trkpt lat="41.80023628041611" lon="13.316801802734783"><ele>636.5</ele><time>2026-04-10T14:10:50Z</time></trkpt><trkpt lat="41.800305890464664" lon="13.316958503935073"><ele>639.75</ele><time>2026-04-10T14:10:51Z</time></trkpt><trkpt lat="41.8003702389899" lon="13.317091749944565"><ele>643.0</ele><time>2026-04-10T14:10:52Z</time></trkpt><trkpt lat="41.800413118112225" lon="13.317162544116675"><ele>643.0</ele><time>2026-04-10T14:10:53Z</time></trkpt><trkpt lat="41.800521517339156" lon="13.31712449969439"><ele>643.0</ele><time>2026-04-10T14:10:55Z</time></trkpt><trkpt lat="41.8005769574734" lon="13.317041365128794"><ele>643.0</ele><time>2026-04-10T14:10:56Z</time></trkpt><trkpt lat="41.80062634743417" lon="13.316961438546402"><ele>643.0</ele><time>2026-04-10T14:10:57Z</time></trkpt><trkpt lat="41.80053756792047" lon="13.316792173044862"><ele>643.0</ele><time>2026-04-10T14:10:58Z</time></trkpt><trkpt lat="41.80047413873201" lon="13.316633520435532"><ele>643.0</ele><time>2026-04-10T14:10:59Z</time></trkpt><trkpt lat="41.800401943778006" lon="13.316479090408041"><ele>643.0</ele><time>2026-04-10T14:11:00Z</time></trkpt><trkpt lat="41.800334218202956" lon="13.316336348642631"><ele>643.0</ele><time>2026-04-10T14:11:01Z</time></trkpt><trkpt lat="41.80025978950678" lon="13.316181850035505"><ele>643.0</ele><time>2026-04-10T14:11:02Z</time></trkpt><trkpt lat="41.80018339067551" lon="13.316018478487305"><ele>643.25</ele><time>2026-04-10T14:11:03Z</time></trkpt><trkpt lat="41.80009942892739" lon="13.315852344501584"><ele>643.5</ele><time>2026-04-10T14:11:04Z</time></trkpt><trkpt lat="41.80002355337752" lon="13.315706233918364"><ele>643.75</ele><time>2026-04-10T14:11:05Z</time></trkpt><trkpt lat="41.799956229954304" lon="13.315579817206922"><ele>644.0</ele><time>2026-04-10T14:11:06Z</time></trkpt><trkpt lat="41.79989023834813" lon="13.31544088576481"><ele>644.0</ele><time>2026-04-10T14:11:07Z</time></trkpt><trkpt lat="41.79981751529886" lon="13.315301305811635"><ele>644.0</ele><time>2026-04-10T14:11:08Z</time></trkpt><trkpt lat="41.799755272395984" lon="13.315186549054657"><ele>644.0</ele><time>2026-04-10T14:11:09Z</time></trkpt><trkpt lat="41.799694678973246" lon="13.31507147760257"><ele>644.0</ele><time>2026-04-10T14:11:10Z</time></trkpt><trkpt lat="41.799649310476106" lon="13.314946678573428"><ele>644.0</ele><time>2026-04-10T14:11:11Z</time></trkpt><trkpt lat="41.79959841933279" lon="13.31484411686226"><ele>644.0</ele><time>2026-04-10T14:11:12Z</time></trkpt><trkpt lat="41.79953256657075" lon="13.314764399297594"><ele>644.0</ele><time>2026-04-10T14:11:13Z</time></trkpt><trkpt lat="41.79953351452905" lon="13.314580503080515"><ele>644.0</ele><time>2026-04-10T14:11:14Z</time></trkpt><trkpt lat="41.79953098115206" lon="13.31442225190057"><ele>644.0</ele><time>2026-04-10T14:11:15Z</time></trkpt><trkpt lat="41.799528646532195" lon="13.314304483423337"><ele>644.0</ele><time>2026-04-10T14:11:16Z</time></trkpt><trkpt lat="41.79953030488338" lon="13.314210276601257"><ele>644.7142857142857</ele><time>2026-04-10T14:11:17Z</time></trkpt><trkpt lat="41.79953813567952" lon="13.31411206874301"><ele>645.4285714285714</ele><time>2026-04-10T14:11:18Z</time></trkpt><trkpt lat="41.79953663291071" lon="13.314014466727183"><ele>646.1428571428571</ele><time>2026-04-10T14:11:19Z</time></trkpt><trkpt lat="41.79952908938533" lon="13.31391339039953"><ele>646.8571428571429</ele><time>2026-04-10T14:11:20Z</time></trkpt><trkpt lat="41.79952558342308" lon="13.31382545249913"><ele>647.5714285714286</ele><time>2026-04-10T14:11:21Z</time></trkpt><trkpt lat="41.799532501533335" lon="13.313738305367195"><ele>648.2857142857142</ele><time>2026-04-10T14:11:22Z</time></trkpt><trkpt lat="41.79953121721163" lon="13.313646154327207"><ele>649.0</ele><time>2026-04-10T14:11:23Z</time></trkpt><trkpt lat="41.799539159165384" lon="13.313541996458083"><ele>649.1666666666667</ele><time>2026-04-10T14:11:24Z</time></trkpt><trkpt lat="41.79958030718343" lon="13.31346948079888"><ele>649.3333333333334</ele><time>2026-04-10T14:11:25Z</time></trkpt><trkpt lat="41.79964859433908" lon="13.313445105010414"><ele>649.5</ele><time>2026-04-10T14:11:26Z</time></trkpt><trkpt lat="41.79970706538175" lon="13.313478922543775"><ele>649.6666666666666</ele><time>2026-04-10T14:11:27Z</time></trkpt><trkpt lat="41.799751163945864" lon="13.313564732026473"><ele>649.8333333333333</ele><time>2026-04-10T14:11:28Z</time></trkpt><trkpt lat="41.799778273906654" lon="13.31368239274751"><ele>650.0</ele><time>2026-04-10T14:11:29Z</time></trkpt><trkpt lat="41.79977940889055" lon="13.313803205520962"><ele>649.8</ele><time>2026-04-10T14:11:30Z</time></trkpt><trkpt lat="41.799801975683884" lon="13.313956504625407"><ele>649.6</ele><time>2026-04-10T14:11:31Z</time></trkpt><trkpt lat="41.79982525075366" lon="13.314091364289048"><ele>649.4000000000001</ele><time>2026-04-10T14:11:32Z</time></trkpt><trkpt lat="41.79985567364442" lon="13.314180014882444"><ele>649.2</ele><time>2026-04-10T14:11:33Z</time></trkpt><trkpt lat="41.799976149328025" lon="13.314159014946187"><ele>649.0</ele><time>2026-04-10T14:11:35Z</time></trkpt><trkpt lat="41.80003109875192" lon="13.314104012966192"><ele>649.0</ele><time>2026-04-10T14:11:36Z</time></trkpt><trkpt lat="41.80002434799677" lon="13.313974346105407"><ele>649.0</ele><time>2026-04-10T14:11:37Z</time></trkpt><trkpt lat="41.79999549420895" lon="13.313862147667145"><ele>649.0</ele><time>2026-04-10T14:11:38Z</time></trkpt><trkpt lat="41.79995633923026" lon="13.313723919355821"><ele>649.0</ele><time>2026-04-10T14:11:39Z</time></trkpt><trkpt lat="41.799920179520825" lon="13.313601494655488"><ele>649.0</ele><time>2026-04-10T14:11:40Z</time></trkpt><trkpt lat="41.79987770911474" lon="13.313473836735533"><ele>649.2</ele><time>2026-04-10T14:11:41Z</time></trkpt><trkpt lat="41.79981629930355" lon="13.313304778759264"><ele>649.4000000000001</ele><time>2026-04-10T14:11:42Z</time></trkpt><trkpt lat="41.79976127550914" lon="13.31316123591499"><ele>649.6</ele><time>2026-04-10T14:11:43Z</time></trkpt><trkpt lat="41.799720830349436" lon="13.31307696197654"><ele>649.8</ele><time>2026-04-10T14:11:44Z</time></trkpt><trkpt lat="41.799644584999776" lon="13.313011366025403"><ele>650.0</ele><time>2026-04-10T14:11:45Z</time></trkpt><trkpt lat="41.79958172684774" lon="13.31295618482442"><ele>651.5</ele><time>2026-04-10T14:11:46Z</time></trkpt><trkpt lat="41.79952115346306" lon="13.312900120511966"><ele>653.0</ele><time>2026-04-10T14:11:47Z</time></trkpt><trkpt lat="41.7994609959258" lon="13.3128475475986"><ele>654.5</ele><time>2026-04-10T14:11:48Z</time></trkpt><trkpt lat="41.79938296735475" lon="13.312736161453238"><ele>656.0</ele><time>2026-04-10T14:11:50Z</time></trkpt><trkpt lat="41.799390567650775" lon="13.31261061099678"><ele>657.5</ele><time>2026-04-10T14:11:52Z</time></trkpt><trkpt lat="41.799412550661444" lon="13.312529884870392"><ele>659.0</ele><time>2026-04-10T14:11:54Z</time></trkpt><trkpt lat="41.799599081991495" lon="13.312645093855862"><ele>659.0</ele><time>2026-04-10T14:11:59Z</time></trkpt><trkpt lat="41.799663099542705" lon="13.312687966768006"><ele>659.0</ele><time>2026-04-10T14:12:00Z</time></trkpt><trkpt lat="41.79972767545996" lon="13.312734285676571"><ele>659.0</ele><time>2026-04-10T14:12:01Z</time></trkpt><trkpt lat="41.799782430362676" lon="13.312778059376042"><ele>659.0</ele><time>2026-04-10T14:12:02Z</time></trkpt><trkpt lat="41.79983585669791" lon="13.312823065230026"><ele>659.0</ele><time>2026-04-10T14:12:03Z</time></trkpt><trkpt lat="41.79992460146766" lon="13.312906384531953"><ele>659.0</ele><time>2026-04-10T14:12:05Z</time></trkpt><trkpt lat="41.8000082984137" lon="13.313028976646388"><ele>657.2</ele><time>2026-04-10T14:12:07Z</time></trkpt><trkpt lat="41.800057704453934" lon="13.313129840691001"><ele>655.4000000000001</ele><time>2026-04-10T14:12:08Z</time></trkpt><trkpt lat="41.80011690198813" lon="13.313262293290954"><ele>653.6</ele><time>2026-04-10T14:12:09Z</time></trkpt><trkpt lat="41.80017061144081" lon="13.313394749037936"><ele>651.8</ele><time>2026-04-10T14:12:10Z</time></trkpt><trkpt lat="41.800219992415315" lon="13.313527203871443"><ele>650.0</ele><time>2026-04-10T14:12:11Z</time></trkpt><trkpt lat="41.800262807688426" lon="13.313671973965219"><ele>656.25</ele><time>2026-04-10T14:12:12Z</time></trkpt><trkpt lat="41.80029582391143" lon="13.313821936546468"><ele>662.5</ele><time>2026-04-10T14:12:13Z</time></trkpt><trkpt lat="41.800336233411976" lon="13.313985122183675"><ele>668.75</ele><time>2026-04-10T14:12:14Z</time></trkpt><trkpt lat="41.800395383594434" lon="13.314151043249316"><ele>675.0</ele><time>2026-04-10T14:12:15Z</time></trkpt><trkpt lat="41.80045561261038" lon="13.314348852994247"><ele>675.0</ele><time>2026-04-10T14:12:16Z</time></trkpt><trkpt lat="41.800548245772056" lon="13.314502357730593"><ele>675.0</ele><time>2026-04-10T14:12:17Z</time></trkpt><trkpt lat="41.80060689198921" lon="13.314598031840438"><ele>675.0</ele><time>2026-04-10T14:12:18Z</time></trkpt><trkpt lat="41.80067605578495" lon="13.314651176170045"><ele>675.0</ele><time>2026-04-10T14:12:19Z</time></trkpt><trkpt lat="41.80075127482391" lon="13.314665668262446"><ele>675.0</ele><time>2026-04-10T14:12:20Z</time></trkpt><trkpt lat="41.80083773419736" lon="13.314600890617474"><ele>675.0</ele><time>2026-04-10T14:12:21Z</time></trkpt><trkpt lat="41.800912790465176" lon="13.314479523769592"><ele>675.0</ele><time>2026-04-10T14:12:22Z</time></trkpt><trkpt lat="41.80097124834613" lon="13.314333480206777"><ele>675.0</ele><time>2026-04-10T14:12:23Z</time></trkpt><trkpt lat="41.80098437876306" lon="13.314185332136914"><ele>675.0</ele><time>2026-04-10T14:12:24Z</time></trkpt><trkpt lat="41.80095457615174" lon="13.314041908699972"><ele>675.0</ele><time>2026-04-10T14:12:25Z</time></trkpt><trkpt lat="41.800889846677876" lon="13.313910036090205"><ele>675.0</ele><time>2026-04-10T14:12:26Z</time></trkpt><trkpt lat="41.80077312861544" lon="13.31366800867224"><ele>675.0</ele><time>2026-04-10T14:12:27Z</time></trkpt><trkpt lat="41.80072128066814" lon="13.3135191013886"><ele>676.25</ele><time>2026-04-10T14:12:28Z</time></trkpt><trkpt lat="41.800674044316494" lon="13.313382522912937"><ele>677.5</ele><time>2026-04-10T14:12:29Z</time></trkpt><trkpt lat="41.800677560024006" lon="13.313231309025737"><ele>678.75</ele><time>2026-04-10T14:12:30Z</time></trkpt><trkpt lat="41.800708303781725" lon="13.313072861939444"><ele>680.0</ele><time>2026-04-10T14:12:31Z</time></trkpt><trkpt lat="41.80073467008815" lon="13.312885761444905"><ele>680.25</ele><time>2026-04-10T14:12:32Z</time></trkpt><trkpt lat="41.800750002844374" lon="13.312682676968503"><ele>680.5</ele><time>2026-04-10T14:12:33Z</time></trkpt><trkpt lat="41.8007623663697" lon="13.312497882796796"><ele>680.75</ele><time>2026-04-10T14:12:34Z</time></trkpt><trkpt lat="41.80075477203489" lon="13.312320013623218"><ele>681.0</ele><time>2026-04-10T14:12:35Z</time></trkpt><trkpt lat="41.8007415926464" lon="13.312134820739239"><ele>681.0</ele><time>2026-04-10T14:12:36Z</time></trkpt><trkpt lat="41.80075402019127" lon="13.311983201678935"><ele>681.0</ele><time>2026-04-10T14:12:37Z</time></trkpt><trkpt lat="41.80079076608039" lon="13.31187171979939"><ele>681.0</ele><time>2026-04-10T14:12:38Z</time></trkpt><trkpt lat="41.800862381611616" lon="13.311761118929379"><ele>681.0</ele><time>2026-04-10T14:12:39Z</time></trkpt><trkpt lat="41.80093682046926" lon="13.31166671645311"><ele>681.0</ele><time>2026-04-10T14:12:40Z</time></trkpt><trkpt lat="41.80102103406923" lon="13.311547423609866"><ele>684.8</ele><time>2026-04-10T14:12:41Z</time></trkpt><trkpt lat="41.80109470180783" lon="13.311422601768097"><ele>688.5999999999999</ele><time>2026-04-10T14:12:42Z</time></trkpt><trkpt lat="41.801159068269094" lon="13.311332070389556"><ele>692.4</ele><time>2026-04-10T14:12:43Z</time></trkpt><trkpt lat="41.80121553123781" lon="13.311248655407514"><ele>696.2</ele><time>2026-04-10T14:12:44Z</time></trkpt><trkpt lat="41.801267734996415" lon="13.311181571913314"><ele>700.0</ele><time>2026-04-10T14:12:45Z</time></trkpt><trkpt lat="41.80132989913452" lon="13.311091948848889"><ele>700.0</ele><time>2026-04-10T14:12:46Z</time></trkpt><trkpt lat="41.80142191628547" lon="13.311006363183807"><ele>700.0</ele><time>2026-04-10T14:12:47Z</time></trkpt><trkpt lat="41.80150107950347" lon="13.310880949654928"><ele>700.0</ele><time>2026-04-10T14:12:48Z</time></trkpt><trkpt lat="41.80156143992938" lon="13.310759384983164"><ele>700.0</ele><time>2026-04-10T14:12:49Z</time></trkpt><trkpt lat="41.80162566336114" lon="13.310623903358893"><ele>692.6666666666667</ele><time>2026-04-10T14:12:50Z</time></trkpt><trkpt lat="41.80169762304955" lon="13.31047767600733"><ele>685.3333333333334</ele><time>2026-04-10T14:12:51Z</time></trkpt><trkpt lat="41.80177900797842" lon="13.310306989956185"><ele>678.0</ele><time>2026-04-10T14:12:52Z</time></trkpt><trkpt lat="41.80187239249849" lon="13.310119376461241"><ele>688.6666666666666</ele><time>2026-04-10T14:12:53Z</time></trkpt><trkpt lat="41.80197389944652" lon="13.309912239674768"><ele>699.3333333333333</ele><time>2026-04-10T14:12:54Z</time></trkpt><trkpt lat="41.80207365448534" lon="13.309738931787843"><ele>710.0</ele><time>2026-04-10T14:12:55Z</time></trkpt><trkpt lat="41.80216348511515" lon="13.309564342497396"><ele>710.0</ele><time>2026-04-10T14:12:56Z</time></trkpt><trkpt lat="41.80223734467424" lon="13.30938150143165"><ele>710.0</ele><time>2026-04-10T14:12:57Z</time></trkpt><trkpt lat="41.80232548849569" lon="13.309192554884376"><ele>710.0</ele><time>2026-04-10T14:12:58Z</time></trkpt><trkpt lat="41.80244282497946" lon="13.309035955387015"><ele>705.3333333333333</ele><time>2026-04-10T14:12:59Z</time></trkpt><trkpt lat="41.80256922767672" lon="13.308860412463241"><ele>700.6666666666666</ele><time>2026-04-10T14:13:00Z</time></trkpt><trkpt lat="41.80270192500261" lon="13.308679137833341"><ele>696.0</ele><time>2026-04-10T14:13:01Z</time></trkpt><trkpt lat="41.80282603356131" lon="13.30848066545648"><ele>710.6666666666666</ele><time>2026-04-10T14:13:02Z</time></trkpt><trkpt lat="41.802915694868254" lon="13.308238120832701"><ele>725.3333333333333</ele><time>2026-04-10T14:13:03Z</time></trkpt><trkpt lat="41.802966510502756" lon="13.307937357015396"><ele>740.0</ele><time>2026-04-10T14:13:04Z</time></trkpt><trkpt lat="41.803021590432586" lon="13.307627858692845"><ele>740.0</ele><time>2026-04-10T14:13:05Z</time></trkpt><trkpt lat="41.8031276422818" lon="13.307309438106618"><ele>740.0</ele><time>2026-04-10T14:13:06Z</time></trkpt><trkpt lat="41.80328010807797" lon="13.307058626636316"><ele>730.5</ele><time>2026-04-10T14:13:07Z</time></trkpt><trkpt lat="41.80342386288208" lon="13.30678021533485"><ele>721.0</ele><time>2026-04-10T14:13:08Z</time></trkpt><trkpt lat="41.80353122730768" lon="13.306489564935376"><ele>731.0</ele><time>2026-04-10T14:13:09Z</time></trkpt><trkpt lat="41.80361769482091" lon="13.30621848304997"><ele>741.0</ele><time>2026-04-10T14:13:10Z</time></trkpt><trkpt lat="41.80371308826687" lon="13.306016357585301"><ele>751.0</ele><time>2026-04-10T14:13:11Z</time></trkpt><trkpt lat="41.80381182637528" lon="13.305872059220512"><ele>751.0</ele><time>2026-04-10T14:13:12Z</time></trkpt><trkpt lat="41.80392614881517" lon="13.305746879036983"><ele>751.0</ele><time>2026-04-10T14:13:13Z</time></trkpt><trkpt lat="41.80406072849135" lon="13.305634513173466"><ele>751.0</ele><time>2026-04-10T14:13:14Z</time></trkpt><trkpt lat="41.80413096422266" lon="13.305524025511945"><ele>751.0</ele><time>2026-04-10T14:13:15Z</time></trkpt><trkpt lat="41.80414529616559" lon="13.305345172107932"><ele>749.6666666666667</ele><time>2026-04-10T14:13:16Z</time></trkpt><trkpt lat="41.8041646021199" lon="13.305126548653774"><ele>748.3333333333334</ele><time>2026-04-10T14:13:17Z</time></trkpt><trkpt lat="41.8042289961035" lon="13.304886992907"><ele>747.0</ele><time>2026-04-10T14:13:18Z</time></trkpt><trkpt lat="41.804358831607594" lon="13.3047382288502"><ele>747.0</ele><time>2026-04-10T14:13:19Z</time></trkpt><trkpt lat="41.804484530506265" lon="13.304605570865666"><ele>747.0</ele><time>2026-04-10T14:13:20Z</time></trkpt><trkpt lat="41.804673782996346" lon="13.304407661773977"><ele>747.0</ele><time>2026-04-10T14:13:21Z</time></trkpt><trkpt lat="41.80481759619157" lon="13.304274559616323"><ele>747.0</ele><time>2026-04-10T14:13:22Z</time></trkpt><trkpt lat="41.804638530714406" lon="13.30444411232006"><ele>747.0</ele><time>2026-04-10T14:13:23Z</time></trkpt><trkpt lat="41.804777265687434" lon="13.304302331627683"><ele>747.0</ele><time>2026-04-10T14:13:24Z</time></trkpt><trkpt lat="41.80487270956247" lon="13.304240301958567"><ele>764.5</ele><time>2026-04-10T14:13:25Z</time></trkpt><trkpt lat="41.80520457478466" lon="13.304128260890847"><ele>782.0</ele><time>2026-04-10T14:13:27Z</time></trkpt><trkpt lat="41.80544018053882" lon="13.304123300939553"><ele>782.0</ele><time>2026-04-10T14:13:28Z</time></trkpt><trkpt lat="41.80558955641895" lon="13.303960659739921"><ele>782.0</ele><time>2026-04-10T14:13:29Z</time></trkpt><trkpt lat="41.80564223646556" lon="13.303786651564463"><ele>782.0</ele><time>2026-04-10T14:13:30Z</time></trkpt><trkpt lat="41.8056560037093" lon="13.303596781068835"><ele>782.25</ele><time>2026-04-10T14:13:31Z</time></trkpt><trkpt lat="41.805633127115875" lon="13.30339516144008"><ele>782.5</ele><time>2026-04-10T14:13:33Z</time></trkpt><trkpt lat="41.80561606006142" lon="13.303256527790086"><ele>782.75</ele><time>2026-04-10T14:13:34Z</time></trkpt><trkpt lat="41.80560226616585" lon="13.303142700131925"><ele>783.0</ele><time>2026-04-10T14:13:36Z</time></trkpt><trkpt lat="41.80557099352413" lon="13.302843892819244"><ele>783.0</ele><time>2026-04-10T14:13:37Z</time></trkpt><trkpt lat="41.80553753464445" lon="13.302513830046783"><ele>783.0</ele><time>2026-04-10T14:13:38Z</time></trkpt><trkpt lat="41.805531840670604" lon="13.302357811283532"><ele>783.0</ele><time>2026-04-10T14:13:39Z</time></trkpt><trkpt lat="41.805525685746545" lon="13.302256755048653"><ele>783.0</ele><time>2026-04-10T14:13:40Z</time></trkpt><trkpt lat="41.8055268403966" lon="13.302080561755979"><ele>782.4</ele><time>2026-04-10T14:13:41Z</time></trkpt><trkpt lat="41.805546421121534" lon="13.30187116397744"><ele>781.8</ele><time>2026-04-10T14:13:42Z</time></trkpt><trkpt lat="41.80558385814567" lon="13.301786076219692"><ele>781.2</ele><time>2026-04-10T14:13:43Z</time></trkpt><trkpt lat="41.80566105351646" lon="13.301884378680809"><ele>780.6</ele><time>2026-04-10T14:13:45Z</time></trkpt><trkpt lat="41.80565366521549" lon="13.301988709802535"><ele>780.0</ele><time>2026-04-10T14:13:46Z</time></trkpt><trkpt lat="41.805659822639896" lon="13.302139088853874"><ele>781.0</ele><time>2026-04-10T14:13:47Z</time></trkpt><trkpt lat="41.805706211252726" lon="13.302509067727197"><ele>782.0</ele><time>2026-04-10T14:13:49Z</time></trkpt><trkpt lat="41.80573226296539" lon="13.302691518155568"><ele>783.0</ele><time>2026-04-10T14:13:50Z</time></trkpt><trkpt lat="41.80574918635491" lon="13.302834348615933"><ele>782.6666666666667</ele><time>2026-04-10T14:13:51Z</time></trkpt><trkpt lat="41.80581663557432" lon="13.303095732827696"><ele>782.3333333333334</ele><time>2026-04-10T14:13:53Z</time></trkpt><trkpt lat="41.80589482737706" lon="13.303401030679899"><ele>782.0</ele><time>2026-04-10T14:13:58Z</time></trkpt><trkpt lat="41.80591951550533" lon="13.304586939565002"><ele>782.0</ele><time>2026-04-10T14:14:06Z</time></trkpt><trkpt lat="41.80584337744478" lon="13.304647078979876"><ele>782.0</ele><time>2026-04-10T14:14:07Z</time></trkpt><trkpt lat="41.806161084805154" lon="13.305927347751714"><ele>800.3333333333334</ele><time>2026-04-10T14:14:54Z</time></trkpt><trkpt lat="41.806111487670904" lon="13.306076424936855"><ele>818.6666666666667</ele><time>2026-04-10T14:14:55Z</time></trkpt><trkpt lat="41.8060245573569" lon="13.306270201065844"><ele>837.0</ele><time>2026-04-10T14:14:56Z</time></trkpt><trkpt lat="41.80679653772395" lon="13.30542143207842"><ele>851.6666666666667</ele><time>2026-04-10T14:14:58Z</time></trkpt><trkpt lat="41.80701532441193" lon="13.305347701059002"><ele>866.3333333333334</ele><time>2026-04-10T14:14:59Z</time></trkpt><trkpt lat="41.807139191441735" lon="13.30523881408376"><ele>881.0</ele><time>2026-04-10T14:15:00Z</time></trkpt><trkpt lat="41.80724905716535" lon="13.30509386445044"><ele>881.0</ele><time>2026-04-10T14:15:01Z</time></trkpt><trkpt lat="41.80729914184591" lon="13.304932623617846"><ele>881.0</ele><time>2026-04-10T14:15:02Z</time></trkpt><trkpt lat="41.80732776035447" lon="13.304714103562205"><ele>881.0</ele><time>2026-04-10T14:15:03Z</time></trkpt><trkpt lat="41.807315748112586" lon="13.304453056306714"><ele>880.0</ele><time>2026-04-10T14:15:04Z</time></trkpt><trkpt lat="41.807276559522755" lon="13.304165552019352"><ele>879.0</ele><time>2026-04-10T14:15:05Z</time></trkpt><trkpt lat="41.80723269632625" lon="13.303851153589523"><ele>883.5</ele><time>2026-04-10T14:15:06Z</time></trkpt><trkpt lat="41.807192716306204" lon="13.303557530877516"><ele>888.0</ele><time>2026-04-10T14:15:07Z</time></trkpt><trkpt lat="41.807157921723075" lon="13.303255966274934"><ele>890.3333333333333</ele><time>2026-04-10T14:15:08Z</time></trkpt><trkpt lat="41.80712325350206" lon="13.30296454018805"><ele>892.6666666666666</ele><time>2026-04-10T14:15:09Z</time></trkpt><trkpt lat="41.80708494458914" lon="13.302674671935184"><ele>895.0</ele><time>2026-04-10T14:15:10Z</time></trkpt><trkpt lat="41.807060499535254" lon="13.302422223173322"><ele>895.3333333333333</ele><time>2026-04-10T14:15:11Z</time></trkpt><trkpt lat="41.80704190062867" lon="13.302183637422166"><ele>895.6666666666667</ele><time>2026-04-10T14:15:12Z</time></trkpt><trkpt lat="41.80704141668764" lon="13.301940022782725"><ele>896.0</ele><time>2026-04-10T14:15:13Z</time></trkpt><trkpt lat="41.80706682219349" lon="13.301704031984745"><ele>896.0</ele><time>2026-04-10T14:15:14Z</time></trkpt><trkpt lat="41.80710394482699" lon="13.30149933156973"><ele>896.0</ele><time>2026-04-10T14:15:15Z</time></trkpt><trkpt lat="41.80716880715747" lon="13.301312930827859"><ele>896.0</ele><time>2026-04-10T14:15:16Z</time></trkpt><trkpt lat="41.80726726754148" lon="13.301138840867175"><ele>891.6666666666667</ele><time>2026-04-10T14:15:17Z</time></trkpt><trkpt lat="41.80737541620938" lon="13.30096827713635"><ele>887.3333333333333</ele><time>2026-04-10T14:15:18Z</time></trkpt><trkpt lat="41.80748105783928" lon="13.300792386658198"><ele>883.0</ele><time>2026-04-10T14:15:19Z</time></trkpt><trkpt lat="41.80753106946846" lon="13.300577995288188"><ele>878.0</ele><time>2026-04-10T14:15:20Z</time></trkpt><trkpt lat="41.80753819570758" lon="13.300321013528398"><ele>873.0</ele><time>2026-04-10T14:15:21Z</time></trkpt><trkpt lat="41.80759334631558" lon="13.300123210493181"><ele>868.0</ele><time>2026-04-10T14:15:22Z</time></trkpt><trkpt lat="41.80766330714485" lon="13.299957461012236"><ele>872.25</ele><time>2026-04-10T14:15:23Z</time></trkpt><trkpt lat="41.80776083801212" lon="13.299822728158135"><ele>876.5</ele><time>2026-04-10T14:15:24Z</time></trkpt><trkpt lat="41.807870418076064" lon="13.29974790640671"><ele>880.75</ele><time>2026-04-10T14:15:25Z</time></trkpt><trkpt lat="41.80798856357451" lon="13.29971546954035"><ele>885.0</ele><time>2026-04-10T14:15:26Z</time></trkpt><trkpt lat="41.80812605183219" lon="13.299754367524462"><ele>888.5</ele><time>2026-04-10T14:15:27Z</time></trkpt><trkpt lat="41.80825856433983" lon="13.299827342605884"><ele>892.0</ele><time>2026-04-10T14:15:28Z</time></trkpt><trkpt lat="41.8083733228562" lon="13.29990444726542"><ele>895.5</ele><time>2026-04-10T14:15:29Z</time></trkpt><trkpt lat="41.80847981846689" lon="13.299895950612827"><ele>899.0</ele><time>2026-04-10T14:15:30Z</time></trkpt><trkpt lat="41.80859286899666" lon="13.299812212606275"><ele>905.0</ele><time>2026-04-10T14:15:31Z</time></trkpt><trkpt lat="41.80868481907919" lon="13.299660763029276"><ele>911.0</ele><time>2026-04-10T14:15:32Z</time></trkpt><trkpt lat="41.808737775069766" lon="13.299464553133651"><ele>917.0</ele><time>2026-04-10T14:15:33Z</time></trkpt><trkpt lat="41.80875571786305" lon="13.299220515637318"><ele>917.0</ele><time>2026-04-10T14:15:34Z</time></trkpt><trkpt lat="41.808771535622846" lon="13.29892296070036"><ele>917.0</ele><time>2026-04-10T14:15:35Z</time></trkpt><trkpt lat="41.80877993771139" lon="13.298694795177994"><ele>917.0</ele><time>2026-04-10T14:15:36Z</time></trkpt><trkpt lat="41.80886263010692" lon="13.298558551207787"><ele>912.3333333333334</ele><time>2026-04-10T14:15:37Z</time></trkpt><trkpt lat="41.80895818767482" lon="13.298460485914225"><ele>907.6666666666667</ele><time>2026-04-10T14:15:38Z</time></trkpt><trkpt lat="41.809080426602186" lon="13.298349141666172"><ele>903.0</ele><time>2026-04-10T14:15:39Z</time></trkpt><trkpt lat="41.8092828314394" lon="13.298165903172581"><ele>902.3333333333333</ele><time>2026-04-10T14:15:40Z</time></trkpt><trkpt lat="41.80944667842825" lon="13.29800827135099"><ele>901.6666666666666</ele><time>2026-04-10T14:15:41Z</time></trkpt><trkpt lat="41.80960463067696" lon="13.297956044157035"><ele>901.0</ele><time>2026-04-10T14:15:42Z</time></trkpt><trkpt lat="41.80972680177128" lon="13.297949012273987"><ele>901.0</ele><time>2026-04-10T14:15:43Z</time></trkpt><trkpt lat="41.8098797409356" lon="13.297914218437745"><ele>901.0</ele><time>2026-04-10T14:15:44Z</time></trkpt><trkpt lat="41.81001256465306" lon="13.297889205907216"><ele>901.0</ele><time>2026-04-10T14:15:45Z</time></trkpt><trkpt lat="41.8101261893602" lon="13.297750079033412"><ele>901.0</ele><time>2026-04-10T14:15:46Z</time></trkpt><trkpt lat="41.81019662412543" lon="13.297579815187843"><ele>904.25</ele><time>2026-04-10T14:15:47Z</time></trkpt><trkpt lat="41.810267153000986" lon="13.297345943133982"><ele>907.5</ele><time>2026-04-10T14:15:48Z</time></trkpt><trkpt lat="41.810361366380064" lon="13.29718312997525"><ele>910.75</ele><time>2026-04-10T14:15:49Z</time></trkpt><trkpt lat="41.81044361457116" lon="13.297108545587914"><ele>914.0</ele><time>2026-04-10T14:15:50Z</time></trkpt><trkpt lat="41.810569191820804" lon="13.297044167407785"><ele>914.0</ele><time>2026-04-10T14:15:51Z</time></trkpt><trkpt lat="41.81072300108673" lon="13.29702917586583"><ele>914.0</ele><time>2026-04-10T14:15:52Z</time></trkpt><trkpt lat="41.81089455580899" lon="13.297009571356902"><ele>914.0</ele><time>2026-04-10T14:15:53Z</time></trkpt><trkpt lat="41.81110083341712" lon="13.297010048769794"><ele>913.0</ele><time>2026-04-10T14:15:54Z</time></trkpt><trkpt lat="41.81126751886023" lon="13.297034682886062"><ele>912.0</ele><time>2026-04-10T14:15:55Z</time></trkpt><trkpt lat="41.81141716341523" lon="13.297070723460514"><ele>911.0</ele><time>2026-04-10T14:15:56Z</time></trkpt><trkpt lat="41.81150527881896" lon="13.297148939334491"><ele>910.0</ele><time>2026-04-10T14:15:57Z</time></trkpt><trkpt lat="41.81158399072752" lon="13.297256950193912"><ele>914.0</ele><time>2026-04-10T14:15:58Z</time></trkpt><trkpt lat="41.81165112562764" lon="13.297434990920122"><ele>918.0</ele><time>2026-04-10T14:15:59Z</time></trkpt><trkpt lat="41.81171633539527" lon="13.297667866087151"><ele>922.0</ele><time>2026-04-10T14:16:00Z</time></trkpt><trkpt lat="41.811827499658854" lon="13.297874296994083"><ele>922.3333333333333</ele><time>2026-04-10T14:16:01Z</time></trkpt><trkpt lat="41.81193724897333" lon="13.297989720843969"><ele>922.6666666666667</ele><time>2026-04-10T14:16:02Z</time></trkpt><trkpt lat="41.81209228683262" lon="13.29808854606676"><ele>923.0</ele><time>2026-04-10T14:16:03Z</time></trkpt><trkpt lat="41.81219831036786" lon="13.298229860746066"><ele>926.0</ele><time>2026-04-10T14:16:04Z</time></trkpt><trkpt lat="41.81224628563288" lon="13.298399434901125"><ele>929.0</ele><time>2026-04-10T14:16:05Z</time></trkpt><trkpt lat="41.81228334760653" lon="13.298615229516754"><ele>932.0</ele><time>2026-04-10T14:16:06Z</time></trkpt><trkpt lat="41.81233245334306" lon="13.298888886097838"><ele>938.0</ele><time>2026-04-10T14:16:07Z</time></trkpt><trkpt lat="41.812420200649754" lon="13.299224420910404"><ele>944.0</ele><time>2026-04-10T14:16:08Z</time></trkpt><trkpt lat="41.812532687319965" lon="13.299484992814575"><ele>944.0</ele><time>2026-04-10T14:16:09Z</time></trkpt><trkpt lat="41.8126331823554" lon="13.299665941972819"><ele>944.0</ele><time>2026-04-10T14:16:10Z</time></trkpt><trkpt lat="41.81273629028424" lon="13.299834034958444"><ele>944.0</ele><time>2026-04-10T14:16:11Z</time></trkpt><trkpt lat="41.812821164533304" lon="13.29995066012058"><ele>947.0</ele><time>2026-04-10T14:16:12Z</time></trkpt><trkpt lat="41.81292000578046" lon="13.300038688165037"><ele>950.0</ele><time>2026-04-10T14:16:13Z</time></trkpt><trkpt lat="41.813043499689336" lon="13.30006818763994"><ele>953.0</ele><time>2026-04-10T14:16:14Z</time></trkpt><trkpt lat="41.813169831184915" lon="13.300054075971763"><ele>956.0</ele><time>2026-04-10T14:16:15Z</time></trkpt><trkpt lat="41.81327928719965" lon="13.299985991137184"><ele>956.0</ele><time>2026-04-10T14:16:16Z</time></trkpt><trkpt lat="41.8133762695869" lon="13.299833885559279"><ele>956.0</ele><time>2026-04-10T14:16:17Z</time></trkpt><trkpt lat="41.81341900949739" lon="13.299653670743634"><ele>956.0</ele><time>2026-04-10T14:16:18Z</time></trkpt><trkpt lat="41.81343183594931" lon="13.299465356825689"><ele>956.0</ele><time>2026-04-10T14:16:19Z</time></trkpt><trkpt lat="41.813399943549214" lon="13.299249330891012"><ele>954.8</ele><time>2026-04-10T14:16:20Z</time></trkpt><trkpt lat="41.81336130397985" lon="13.299081188205946"><ele>953.5999999999999</ele><time>2026-04-10T14:16:21Z</time></trkpt><trkpt lat="41.81338202586729" lon="13.298959145881511"><ele>952.4</ele><time>2026-04-10T14:16:22Z</time></trkpt><trkpt lat="41.8134452670255" lon="13.298872950072404"><ele>951.2</ele><time>2026-04-10T14:16:23Z</time></trkpt><trkpt lat="41.813516448855076" lon="13.298798171738513"><ele>950.0</ele><time>2026-04-10T14:16:24Z</time></trkpt><trkpt lat="41.81363093750041" lon="13.298832962672034"><ele>950.75</ele><time>2026-04-10T14:16:25Z</time></trkpt><trkpt lat="41.81373574773165" lon="13.298903682997539"><ele>951.5</ele><time>2026-04-10T14:16:26Z</time></trkpt><trkpt lat="41.81383290209411" lon="13.299016266071698"><ele>952.25</ele><time>2026-04-10T14:16:27Z</time></trkpt><trkpt lat="41.81393195084803" lon="13.29921306911572"><ele>953.0</ele><time>2026-04-10T14:16:28Z</time></trkpt><trkpt lat="41.81403603932099" lon="13.299502344331504"><ele>956.3333333333334</ele><time>2026-04-10T14:16:29Z</time></trkpt><trkpt lat="41.81414166737615" lon="13.299766222477917"><ele>959.6666666666667</ele><time>2026-04-10T14:16:30Z</time></trkpt><trkpt lat="41.814259701406456" lon="13.300005483153772"><ele>963.0</ele><time>2026-04-10T14:16:31Z</time></trkpt><trkpt lat="41.8143955018165" lon="13.300235255542193"><ele>965.75</ele><time>2026-04-10T14:16:32Z</time></trkpt><trkpt lat="41.81447543999399" lon="13.300426123920337"><ele>968.5</ele><time>2026-04-10T14:16:33Z</time></trkpt><trkpt lat="41.81448769830609" lon="13.300557160489408"><ele>971.25</ele><time>2026-04-10T14:16:34Z</time></trkpt><trkpt lat="41.814473196581645" lon="13.30074633316431"><ele>974.0</ele><time>2026-04-10T14:16:35Z</time></trkpt><trkpt lat="41.81444665402776" lon="13.300957062167006"><ele>973.5</ele><time>2026-04-10T14:16:36Z</time></trkpt><trkpt lat="41.8143890500987" lon="13.301127912323746"><ele>973.0</ele><time>2026-04-10T14:16:37Z</time></trkpt><trkpt lat="41.81430261941609" lon="13.30124720422505"><ele>972.5</ele><time>2026-04-10T14:16:38Z</time></trkpt><trkpt lat="41.81418320412231" lon="13.301351373850277"><ele>972.0</ele><time>2026-04-10T14:16:39Z</time></trkpt><trkpt lat="41.81404666594094" lon="13.30138961239997"><ele>972.0</ele><time>2026-04-10T14:16:40Z</time></trkpt><trkpt lat="41.81391429360438" lon="13.301371826360597"><ele>972.0</ele><time>2026-04-10T14:16:41Z</time></trkpt><trkpt lat="41.81376209334446" lon="13.301316897284961"><ele>972.0</ele><time>2026-04-10T14:16:42Z</time></trkpt><trkpt lat="41.813619991554226" lon="13.301305092715"><ele>972.0</ele><time>2026-04-10T14:16:43Z</time></trkpt><trkpt lat="41.81348334708253" lon="13.301343981341889"><ele>975.6666666666667</ele><time>2026-04-10T14:16:44Z</time></trkpt><trkpt lat="41.81336819866086" lon="13.30146992215747"><ele>979.3333333333334</ele><time>2026-04-10T14:16:45Z</time></trkpt><trkpt lat="41.81328325789767" lon="13.301644160902528"><ele>983.0</ele><time>2026-04-10T14:16:46Z</time></trkpt><trkpt lat="41.81315698373239" lon="13.301781932393746"><ele>983.0</ele><time>2026-04-10T14:16:47Z</time></trkpt><trkpt lat="41.81300968204734" lon="13.301835832119911"><ele>983.0</ele><time>2026-04-10T14:16:48Z</time></trkpt><trkpt lat="41.81283628080638" lon="13.301906892114394"><ele>983.0</ele><time>2026-04-10T14:16:49Z</time></trkpt><trkpt lat="41.8126911496001" lon="13.301999673342063"><ele>983.0</ele><time>2026-04-10T14:16:50Z</time></trkpt><trkpt lat="41.81261745569413" lon="13.302166595613848"><ele>983.0</ele><time>2026-04-10T14:16:51Z</time></trkpt><trkpt lat="41.812567894379114" lon="13.302376348253219"><ele>983.0</ele><time>2026-04-10T14:16:52Z</time></trkpt><trkpt lat="41.81256591387167" lon="13.302578154783498"><ele>985.4</ele><time>2026-04-10T14:16:53Z</time></trkpt><trkpt lat="41.812557706027164" lon="13.302684669459053"><ele>987.8</ele><time>2026-04-10T14:16:54Z</time></trkpt><trkpt lat="41.812554067879724" lon="13.302815898945642"><ele>990.2</ele><time>2026-04-10T14:16:55Z</time></trkpt><trkpt lat="41.81250351465355" lon="13.302899288581681"><ele>992.6</ele><time>2026-04-10T14:16:56Z</time></trkpt><trkpt lat="41.81241258348782" lon="13.302936856491327"><ele>995.0</ele><time>2026-04-10T14:16:57Z</time></trkpt><trkpt lat="41.81229613403819" lon="13.302924768420041"><ele>995.0</ele><time>2026-04-10T14:16:58Z</time></trkpt><trkpt lat="41.81212070552248" lon="13.302872992024206"><ele>995.0</ele><time>2026-04-10T14:16:59Z</time></trkpt><trkpt lat="41.81200078062335" lon="13.302752319508919"><ele>995.0</ele><time>2026-04-10T14:17:00Z</time></trkpt><trkpt lat="41.81195073099223" lon="13.30257070670537"><ele>995.0</ele><time>2026-04-10T14:17:01Z</time></trkpt><trkpt lat="41.81188847345641" lon="13.302373968812914"><ele>995.0</ele><time>2026-04-10T14:17:02Z</time></trkpt><trkpt lat="41.81179155985261" lon="13.3022088988322"><ele>995.0</ele><time>2026-04-10T14:17:03Z</time></trkpt><trkpt lat="41.811659934503574" lon="13.302143072536287"><ele>995.3333333333334</ele><time>2026-04-10T14:17:04Z</time></trkpt><trkpt lat="41.811515572333406" lon="13.302094531795493"><ele>995.6666666666667</ele><time>2026-04-10T14:17:05Z</time></trkpt><trkpt lat="41.8113535935425" lon="13.302111639665556"><ele>996.0</ele><time>2026-04-10T14:17:06Z</time></trkpt><trkpt lat="41.81119980605459" lon="13.302191128547317"><ele>999.0</ele><time>2026-04-10T14:17:07Z</time></trkpt><trkpt lat="41.811042940762064" lon="13.30229875465883"><ele>1002.0</ele><time>2026-04-10T14:17:08Z</time></trkpt><trkpt lat="41.81092858994714" lon="13.30242685011941"><ele>1005.0</ele><time>2026-04-10T14:17:09Z</time></trkpt><trkpt lat="41.81082601890647" lon="13.302577849083258"><ele>1005.0</ele><time>2026-04-10T14:17:10Z</time></trkpt><trkpt lat="41.81079543614479" lon="13.302727920660569"><ele>1005.0</ele><time>2026-04-10T14:17:11Z</time></trkpt><trkpt lat="41.81078062325925" lon="13.302930258227647"><ele>1005.0</ele><time>2026-04-10T14:17:12Z</time></trkpt><trkpt lat="41.81078133711254" lon="13.303185643643863"><ele>1007.5</ele><time>2026-04-10T14:17:13Z</time></trkpt><trkpt lat="41.810803519303086" lon="13.30341932695648"><ele>1010.0</ele><time>2026-04-10T14:17:14Z</time></trkpt><trkpt lat="41.810809959201315" lon="13.303616144162369"><ele>1012.5</ele><time>2026-04-10T14:17:15Z</time></trkpt><trkpt lat="41.81078849724126" lon="13.303762282451817"><ele>1015.0</ele><time>2026-04-10T14:17:16Z</time></trkpt><trkpt lat="41.810725527925726" lon="13.303869326133857"><ele>1018.6666666666666</ele><time>2026-04-10T14:17:17Z</time></trkpt><trkpt lat="41.81060231331732" lon="13.303936270241385"><ele>1022.3333333333333</ele><time>2026-04-10T14:17:18Z</time></trkpt><trkpt lat="41.810392853034784" lon="13.304068138100192"><ele>1026.0</ele><time>2026-04-10T14:17:19Z</time></trkpt><trkpt lat="41.81021430094144" lon="13.304144515078654"><ele>1025.25</ele><time>2026-04-10T14:17:20Z</time></trkpt><trkpt lat="41.810075670371695" lon="13.304223793415035"><ele>1024.5</ele><time>2026-04-10T14:17:21Z</time></trkpt><trkpt lat="41.80999182619865" lon="13.304375655226888"><ele>1023.75</ele><time>2026-04-10T14:17:22Z</time></trkpt><trkpt lat="41.809932017994456" lon="13.304560000016947"><ele>1023.0</ele><time>2026-04-10T14:17:23Z</time></trkpt><trkpt lat="41.80991151977239" lon="13.304811125584287"><ele>1023.0</ele><time>2026-04-10T14:17:24Z</time></trkpt><trkpt lat="41.80987916412884" lon="13.305121092168957"><ele>1023.0</ele><time>2026-04-10T14:17:25Z</time></trkpt><trkpt lat="41.80985642201699" lon="13.305406323901774"><ele>1023.0</ele><time>2026-04-10T14:17:26Z</time></trkpt><trkpt lat="41.80982228995961" lon="13.305687759711605"><ele>1025.6666666666667</ele><time>2026-04-10T14:17:27Z</time></trkpt><trkpt lat="41.80982156026557" lon="13.305929680810552"><ele>1028.3333333333335</ele><time>2026-04-10T14:17:28Z</time></trkpt><trkpt lat="41.809860715809606" lon="13.306094640613454"><ele>1031.0</ele><time>2026-04-10T14:17:29Z</time></trkpt><trkpt lat="41.80988053131744" lon="13.306302464366293"><ele>1034.3333333333335</ele><time>2026-04-10T14:17:30Z</time></trkpt><trkpt lat="41.80985002664794" lon="13.306505359162962"><ele>1037.6666666666667</ele><time>2026-04-10T14:17:31Z</time></trkpt><trkpt lat="41.809758293795056" lon="13.30668855056889"><ele>1041.0</ele><time>2026-04-10T14:17:32Z</time></trkpt><trkpt lat="41.80963564396056" lon="13.306885867264784"><ele>1041.0</ele><time>2026-04-10T14:17:33Z</time></trkpt><trkpt lat="41.809518364866655" lon="13.307131252994877"><ele>1041.0</ele><time>2026-04-10T14:17:34Z</time></trkpt><trkpt lat="41.80946045383433" lon="13.30737202454642"><ele>1041.0</ele><time>2026-04-10T14:17:35Z</time></trkpt><trkpt lat="41.809445693110646" lon="13.307576025158095"><ele>1038.6666666666667</ele><time>2026-04-10T14:17:36Z</time></trkpt><trkpt lat="41.80939947785413" lon="13.30775591445026"><ele>1036.3333333333335</ele><time>2026-04-10T14:17:37Z</time></trkpt><trkpt lat="41.8093295112033" lon="13.307932891868012"><ele>1034.0</ele><time>2026-04-10T14:17:38Z</time></trkpt><trkpt lat="41.80917706787741" lon="13.308049156609993"><ele>1039.3333333333335</ele><time>2026-04-10T14:17:39Z</time></trkpt><trkpt lat="41.8090208348981" lon="13.308142416201093"><ele>1044.6666666666667</ele><time>2026-04-10T14:17:40Z</time></trkpt><trkpt lat="41.80890657795783" lon="13.308269169713096"><ele>1050.0</ele><time>2026-04-10T14:17:41Z</time></trkpt><trkpt lat="41.80882145338935" lon="13.30844994434669"><ele>1050.0</ele><time>2026-04-10T14:17:42Z</time></trkpt><trkpt lat="41.80876602572435" lon="13.308680036362379"><ele>1050.0</ele><time>2026-04-10T14:17:43Z</time></trkpt><trkpt lat="41.80870120559344" lon="13.308892719979662"><ele>1050.0</ele><time>2026-04-10T14:17:44Z</time></trkpt><trkpt lat="41.808606569106615" lon="13.30903839872404"><ele>1048.25</ele><time>2026-04-10T14:17:45Z</time></trkpt><trkpt lat="41.80847859130641" lon="13.309100179869485"><ele>1046.5</ele><time>2026-04-10T14:17:46Z</time></trkpt><trkpt lat="41.80834477015639" lon="13.309142291285411"><ele>1044.75</ele><time>2026-04-10T14:17:47Z</time></trkpt><trkpt lat="41.80823846934813" lon="13.309225965228276"><ele>1043.0</ele><time>2026-04-10T14:17:48Z</time></trkpt><trkpt lat="41.80819519747218" lon="13.309370223198522"><ele>1043.0</ele><time>2026-04-10T14:17:49Z</time></trkpt><trkpt lat="41.808165968361905" lon="13.309579615585514"><ele>1043.0</ele><time>2026-04-10T14:17:50Z</time></trkpt><trkpt lat="41.80819356584286" lon="13.309814431375637"><ele>1043.0</ele><time>2026-04-10T14:17:51Z</time></trkpt><trkpt lat="41.80822165579226" lon="13.31010273416714"><ele>1047.5</ele><time>2026-04-10T14:17:52Z</time></trkpt><trkpt lat="41.808262238712146" lon="13.310435450453218"><ele>1052.0</ele><time>2026-04-10T14:17:53Z</time></trkpt><trkpt lat="41.80830421411616" lon="13.310742897113277"><ele>1052.3333333333335</ele><time>2026-04-10T14:17:54Z</time></trkpt><trkpt lat="41.808359130824876" lon="13.311007257576714"><ele>1052.6666666666667</ele><time>2026-04-10T14:17:55Z</time></trkpt><trkpt lat="41.808424432560784" lon="13.311214769503474"><ele>1053.0</ele><time>2026-04-10T14:17:56Z</time></trkpt><trkpt lat="41.8084775430741" lon="13.311363310843197"><ele>1059.25</ele><time>2026-04-10T14:17:57Z</time></trkpt><trkpt lat="41.80852685479365" lon="13.311485732252562"><ele>1065.5</ele><time>2026-04-10T14:17:58Z</time></trkpt><trkpt lat="41.80863162977751" lon="13.311540904365472"><ele>1071.75</ele><time>2026-04-10T14:17:59Z</time></trkpt><trkpt lat="41.80876937884556" lon="13.311547651522702"><ele>1078.0</ele><time>2026-04-10T14:18:00Z</time></trkpt><trkpt lat="41.80887671301695" lon="13.31150098321028"><ele>1078.25</ele><time>2026-04-10T14:18:01Z</time></trkpt><trkpt lat="41.808961755045026" lon="13.311379479219562"><ele>1078.5</ele><time>2026-04-10T14:18:02Z</time></trkpt><trkpt lat="41.80902636876058" lon="13.311235855718845"><ele>1078.75</ele><time>2026-04-10T14:18:03Z</time></trkpt><trkpt lat="41.80906030899347" lon="13.311012341261986"><ele>1079.0</ele><time>2026-04-10T14:18:04Z</time></trkpt><trkpt lat="41.80904745929644" lon="13.31080463501827"><ele>1079.0</ele><time>2026-04-10T14:18:05Z</time></trkpt><trkpt lat="41.809027446425866" lon="13.310605313434046"><ele>1079.0</ele><time>2026-04-10T14:18:06Z</time></trkpt><trkpt lat="41.809063529859614" lon="13.310391006029086"><ele>1079.0</ele><time>2026-04-10T14:18:07Z</time></trkpt><trkpt lat="41.80911969897585" lon="13.310160198841597"><ele>1078.5</ele><time>2026-04-10T14:18:08Z</time></trkpt><trkpt lat="41.809190533570074" lon="13.309978894373703"><ele>1078.0</ele><time>2026-04-10T14:18:09Z</time></trkpt><trkpt lat="41.80929853742308" lon="13.30987946818941"><ele>1077.5</ele><time>2026-04-10T14:18:10Z</time></trkpt><trkpt lat="41.80940504813463" lon="13.309806844498766"><ele>1077.0</ele><time>2026-04-10T14:18:11Z</time></trkpt><trkpt lat="41.80954245649832" lon="13.30973785645969"><ele>1077.0</ele><time>2026-04-10T14:18:12Z</time></trkpt><trkpt lat="41.809713263836386" lon="13.309656831634447"><ele>1077.0</ele><time>2026-04-10T14:18:13Z</time></trkpt><trkpt lat="41.80987853125229" lon="13.309584428436334"><ele>1077.0</ele><time>2026-04-10T14:18:14Z</time></trkpt><trkpt lat="41.810013769751244" lon="13.309551119626951"><ele>1080.75</ele><time>2026-04-10T14:18:15Z</time></trkpt><trkpt lat="41.81016110164207" lon="13.309524651193192"><ele>1084.5</ele><time>2026-04-10T14:18:16Z</time></trkpt><trkpt lat="41.810273585839134" lon="13.309437980277943"><ele>1088.25</ele><time>2026-04-10T14:18:17Z</time></trkpt><trkpt lat="41.81036783456494" lon="13.309316397657936"><ele>1092.0</ele><time>2026-04-10T14:18:18Z</time></trkpt><trkpt lat="41.8104520852488" lon="13.309096235009223"><ele>1092.0</ele><time>2026-04-10T14:18:19Z</time></trkpt><trkpt lat="41.81054097380876" lon="13.308910299434437"><ele>1092.0</ele><time>2026-04-10T14:18:20Z</time></trkpt><trkpt lat="41.810662295759535" lon="13.30876963051223"><ele>1092.0</ele><time>2026-04-10T14:18:21Z</time></trkpt><trkpt lat="41.810769413917036" lon="13.308679792774894"><ele>1092.0</ele><time>2026-04-10T14:18:22Z</time></trkpt><trkpt lat="41.81086870527718" lon="13.308662479599123"><ele>1092.0</ele><time>2026-04-10T14:18:23Z</time></trkpt><trkpt lat="41.810964205918424" lon="13.308719119985426"><ele>1092.0</ele><time>2026-04-10T14:18:24Z</time></trkpt><trkpt lat="41.811066406632946" lon="13.308820514821724"><ele>1092.0</ele><time>2026-04-10T14:18:25Z</time></trkpt><trkpt lat="41.811146363433615" lon="13.308940801561452"><ele>1092.0</ele><time>2026-04-10T14:18:26Z</time></trkpt><trkpt lat="41.81121579340364" lon="13.309123257839126"><ele>1092.0</ele><time>2026-04-10T14:18:27Z</time></trkpt><trkpt lat="41.81127259122317" lon="13.309322494361739"><ele>1092.0</ele><time>2026-04-10T14:18:28Z</time></trkpt><trkpt lat="41.81131340387399" lon="13.30955016550426"><ele>1094.3333333333333</ele><time>2026-04-10T14:18:29Z</time></trkpt><trkpt lat="41.811339581453545" lon="13.309759377070003"><ele>1096.6666666666665</ele><time>2026-04-10T14:18:30Z</time></trkpt><trkpt lat="41.811362421105265" lon="13.309974611414608"><ele>1099.0</ele><time>2026-04-10T14:18:31Z</time></trkpt><trkpt lat="41.811390801071376" lon="13.310200897315966"><ele>1099.0</ele><time>2026-04-10T14:18:32Z</time></trkpt><trkpt lat="41.81143844847537" lon="13.310391098548978"><ele>1099.0</ele><time>2026-04-10T14:18:33Z</time></trkpt><trkpt lat="41.811472830555026" lon="13.310620485316223"><ele>1099.0</ele><time>2026-04-10T14:18:34Z</time></trkpt><trkpt lat="41.81149865722739" lon="13.310845201044316"><ele>1099.3333333333333</ele><time>2026-04-10T14:18:35Z</time></trkpt><trkpt lat="41.81151898067726" lon="13.311066483640838"><ele>1099.6666666666667</ele><time>2026-04-10T14:18:36Z</time></trkpt><trkpt lat="41.81152583196535" lon="13.31128759651368"><ele>1100.0</ele><time>2026-04-10T14:18:37Z</time></trkpt><trkpt lat="41.81153240631107" lon="13.311469334578096"><ele>1101.25</ele><time>2026-04-10T14:18:38Z</time></trkpt><trkpt lat="41.811533770135696" lon="13.311635300733665"><ele>1102.5</ele><time>2026-04-10T14:18:39Z</time></trkpt><trkpt lat="41.8114961714097" lon="13.311786741375279"><ele>1103.75</ele><time>2026-04-10T14:18:40Z</time></trkpt><trkpt lat="41.81141049295394" lon="13.311919178416737"><ele>1105.0</ele><time>2026-04-10T14:18:41Z</time></trkpt><trkpt lat="41.81131234583319" lon="13.312041921490115"><ele>1105.0</ele><time>2026-04-10T14:18:42Z</time></trkpt><trkpt lat="41.81121979968949" lon="13.312150235042992"><ele>1105.0</ele><time>2026-04-10T14:18:43Z</time></trkpt><trkpt lat="41.81116004477589" lon="13.312263985398548"><ele>1105.0</ele><time>2026-04-10T14:18:44Z</time></trkpt><trkpt lat="41.811092039101396" lon="13.31238054887567"><ele>1105.0</ele><time>2026-04-10T14:18:45Z</time></trkpt><trkpt lat="41.811174918127755" lon="13.31249563552097"><ele>1106.3333333333333</ele><time>2026-04-10T14:18:46Z</time></trkpt><trkpt lat="41.8112908980787" lon="13.312707249479116"><ele>1107.6666666666667</ele><time>2026-04-10T14:18:47Z</time></trkpt><trkpt lat="41.81133863288856" lon="13.312903922713382"><ele>1109.0</ele><time>2026-04-10T14:18:48Z</time></trkpt><trkpt lat="41.81138145974981" lon="13.31310663493202"><ele>1110.25</ele><time>2026-04-10T14:18:49Z</time></trkpt><trkpt lat="41.8113868753766" lon="13.313305942697086"><ele>1111.5</ele><time>2026-04-10T14:18:50Z</time></trkpt><trkpt lat="41.811309168453064" lon="13.313430566205922"><ele>1112.75</ele><time>2026-04-10T14:18:51Z</time></trkpt><trkpt lat="41.81120888029037" lon="13.313602085605192"><ele>1114.0</ele><time>2026-04-10T14:18:52Z</time></trkpt><trkpt lat="41.81108941226528" lon="13.313743641496778"><ele>1113.75</ele><time>2026-04-10T14:18:53Z</time></trkpt><trkpt lat="41.81098795309547" lon="13.313900825305117"><ele>1113.5</ele><time>2026-04-10T14:18:54Z</time></trkpt><trkpt lat="41.8109259022914" lon="13.314054213614732"><ele>1113.25</ele><time>2026-04-10T14:18:55Z</time></trkpt><trkpt lat="41.81093108595722" lon="13.31417787902126"><ele>1113.0</ele><time>2026-04-10T14:18:56Z</time></trkpt><trkpt lat="41.810935110338875" lon="13.314332482368764"><ele>1115.5</ele><time>2026-04-10T14:18:57Z</time></trkpt><trkpt lat="41.81102144380714" lon="13.314474739308032"><ele>1118.0</ele><time>2026-04-10T14:18:58Z</time></trkpt><trkpt lat="41.811114757490806" lon="13.314614191394167"><ele>1120.5</ele><time>2026-04-10T14:18:59Z</time></trkpt><trkpt lat="41.81125231790056" lon="13.31469554411548"><ele>1123.0</ele><time>2026-04-10T14:19:00Z</time></trkpt><trkpt lat="41.811379299541564" lon="13.314694028228311"><ele>1123.0</ele><time>2026-04-10T14:19:01Z</time></trkpt><trkpt lat="41.81150410705306" lon="13.314618653215403"><ele>1123.0</ele><time>2026-04-10T14:19:02Z</time></trkpt><trkpt lat="41.8116100394787" lon="13.314487768700438"><ele>1123.0</ele><time>2026-04-10T14:19:03Z</time></trkpt><trkpt lat="41.811732999517254" lon="13.314339464367793"><ele>1123.0</ele><time>2026-04-10T14:19:04Z</time></trkpt><trkpt lat="41.81189961139089" lon="13.314115785402715"><ele>1130.0</ele><time>2026-04-10T14:19:05Z</time></trkpt><trkpt lat="41.812047643184904" lon="13.313868891220817"><ele>1137.0</ele><time>2026-04-10T14:19:06Z</time></trkpt><trkpt lat="41.812227680489045" lon="13.313713470450764"><ele>1137.0</ele><time>2026-04-10T14:19:07Z</time></trkpt><trkpt lat="41.81241835891255" lon="13.313595735686581"><ele>1137.0</ele><time>2026-04-10T14:19:08Z</time></trkpt><trkpt lat="41.81257418423741" lon="13.313419364565023"><ele>1137.0</ele><time>2026-04-10T14:19:09Z</time></trkpt><trkpt lat="41.81267127924769" lon="13.313186245469574"><ele>1148.0</ele><time>2026-04-10T14:19:10Z</time></trkpt><trkpt lat="41.81279301528891" lon="13.312896490059682"><ele>1159.0</ele><time>2026-04-10T14:19:11Z</time></trkpt><trkpt lat="41.812925304569546" lon="13.31263006515024"><ele>1159.0</ele><time>2026-04-10T14:19:12Z</time></trkpt><trkpt lat="41.81305868937546" lon="13.31236571354259"><ele>1159.0</ele><time>2026-04-10T14:19:13Z</time></trkpt><trkpt lat="41.81315942899265" lon="13.312117269479112"><ele>1159.0</ele><time>2026-04-10T14:19:14Z</time></trkpt><trkpt lat="41.81324782741248" lon="13.311939333112162"><ele>1160.0</ele><time>2026-04-10T14:19:15Z</time></trkpt><trkpt lat="41.81331276390149" lon="13.31187383096633"><ele>1161.0</ele><time>2026-04-10T14:19:16Z</time></trkpt><trkpt lat="41.81343191426971" lon="13.311797407946656"><ele>1162.0</ele><time>2026-04-10T14:19:17Z</time></trkpt><trkpt lat="41.81355336559137" lon="13.311675198107862"><ele>1163.0</ele><time>2026-04-10T14:19:18Z</time></trkpt><trkpt lat="41.8136418115917" lon="13.31145534178092"><ele>1162.0</ele><time>2026-04-10T14:19:19Z</time></trkpt><trkpt lat="41.81369906037867" lon="13.311230300019986"><ele>1161.0</ele><time>2026-04-10T14:19:20Z</time></trkpt><trkpt lat="41.813776308728656" lon="13.310973721296232"><ele>1160.0</ele><time>2026-04-10T14:19:21Z</time></trkpt><trkpt lat="41.8137931089259" lon="13.31074991913392"><ele>1160.0</ele><time>2026-04-10T14:19:22Z</time></trkpt><trkpt lat="41.81377681281987" lon="13.310612522651425"><ele>1160.0</ele><time>2026-04-10T14:19:23Z</time></trkpt><trkpt lat="41.81372852643501" lon="13.310443884047691"><ele>1160.0</ele><time>2026-04-10T14:19:24Z</time></trkpt><trkpt lat="41.8137236235369" lon="13.31031034896375"><ele>1160.0</ele><time>2026-04-10T14:19:25Z</time></trkpt><trkpt lat="41.81378902523108" lon="13.310202911847977"><ele>1160.0</ele><time>2026-04-10T14:19:26Z</time></trkpt><trkpt lat="41.81387539862911" lon="13.310049718925109"><ele>1157.5</ele><time>2026-04-10T14:19:27Z</time></trkpt><trkpt lat="41.81398851646992" lon="13.30998931103975"><ele>1155.0</ele><time>2026-04-10T14:19:28Z</time></trkpt><trkpt lat="41.814088201133316" lon="13.309959639593146"><ele>1152.5</ele><time>2026-04-10T14:19:29Z</time></trkpt><trkpt lat="41.81417944218884" lon="13.310005884479116"><ele>1150.0</ele><time>2026-04-10T14:19:30Z</time></trkpt><trkpt lat="41.8143103145294" lon="13.310118728296551"><ele>1150.6666666666665</ele><time>2026-04-10T14:19:31Z</time></trkpt><trkpt lat="41.81442100504214" lon="13.310269965033026"><ele>1151.3333333333333</ele><time>2026-04-10T14:19:32Z</time></trkpt><trkpt lat="41.814538305970856" lon="13.310419298118717"><ele>1152.0</ele><time>2026-04-10T14:19:33Z</time></trkpt><trkpt lat="41.81460733830895" lon="13.310612646157892"><ele>1152.0</ele><time>2026-04-10T14:19:34Z</time></trkpt><trkpt lat="41.814642832849195" lon="13.310775007242887"><ele>1152.0</ele><time>2026-04-10T14:19:35Z</time></trkpt><trkpt lat="41.81464793007991" lon="13.310920854660898"><ele>1152.0</ele><time>2026-04-10T14:19:36Z</time></trkpt><trkpt lat="41.814604551662164" lon="13.311094471503552"><ele>1152.0</ele><time>2026-04-10T14:19:37Z</time></trkpt><trkpt lat="41.81451070498547" lon="13.311231001123575"><ele>1152.0</ele><time>2026-04-10T14:19:38Z</time></trkpt><trkpt lat="41.814399281133795" lon="13.311314019195871"><ele>1152.0</ele><time>2026-04-10T14:19:39Z</time></trkpt><trkpt lat="41.81426895548169" lon="13.311412228564773"><ele>1152.0</ele><time>2026-04-10T14:19:40Z</time></trkpt><trkpt lat="41.81415031633783" lon="13.311566746068612"><ele>1152.0</ele><time>2026-04-10T14:19:41Z</time></trkpt><trkpt lat="41.81405171752714" lon="13.311710734734215"><ele>1155.6666666666667</ele><time>2026-04-10T14:19:42Z</time></trkpt><trkpt lat="41.81394636270167" lon="13.311864163268552"><ele>1159.3333333333335</ele><time>2026-04-10T14:19:43Z</time></trkpt><trkpt lat="41.813829171622544" lon="13.312056484084824"><ele>1163.0</ele><time>2026-04-10T14:19:44Z</time></trkpt><trkpt lat="41.813688894023166" lon="13.312220696585845"><ele>1161.6666666666667</ele><time>2026-04-10T14:19:45Z</time></trkpt><trkpt lat="41.813543677746026" lon="13.312362691336293"><ele>1160.3333333333333</ele><time>2026-04-10T14:19:46Z</time></trkpt><trkpt lat="41.81341399493457" lon="13.312582628825982"><ele>1159.0</ele><time>2026-04-10T14:19:47Z</time></trkpt><trkpt lat="41.81330009386227" lon="13.312779973978596"><ele>1159.0</ele><time>2026-04-10T14:19:48Z</time></trkpt><trkpt lat="41.81322836554141" lon="13.313006121922468"><ele>1159.0</ele><time>2026-04-10T14:19:49Z</time></trkpt><trkpt lat="41.813189256648315" lon="13.313248171040554"><ele>1159.0</ele><time>2026-04-10T14:19:50Z</time></trkpt><trkpt lat="41.81319051650447" lon="13.313519535891839"><ele>1164.6666666666665</ele><time>2026-04-10T14:19:51Z</time></trkpt><trkpt lat="41.813178172689966" lon="13.313781735509602"><ele>1170.3333333333333</ele><time>2026-04-10T14:19:52Z</time></trkpt><trkpt lat="41.813174354692734" lon="13.314009278742278"><ele>1176.0</ele><time>2026-04-10T14:19:53Z</time></trkpt><trkpt lat="41.81312560898217" lon="13.314220491873597"><ele>1179.0</ele><time>2026-04-10T14:19:54Z</time></trkpt><trkpt lat="41.81304329983789" lon="13.314348374606938"><ele>1182.0</ele><time>2026-04-10T14:19:55Z</time></trkpt><trkpt lat="41.812962152133316" lon="13.314469899826046"><ele>1185.0</ele><time>2026-04-10T14:19:56Z</time></trkpt><trkpt lat="41.812854442280894" lon="13.31466635486043"><ele>1188.0</ele><time>2026-04-10T14:19:57Z</time></trkpt><trkpt lat="41.81278750747192" lon="13.314900240741903"><ele>1184.0</ele><time>2026-04-10T14:19:58Z</time></trkpt><trkpt lat="41.81269834030601" lon="13.3151737540037"><ele>1180.0</ele><time>2026-04-10T14:19:59Z</time></trkpt><trkpt lat="41.81266058398977" lon="13.315417082053024"><ele>1176.0</ele><time>2026-04-10T14:20:00Z</time></trkpt><trkpt lat="41.81263505085213" lon="13.315645627856847"><ele>1176.0</ele><time>2026-04-10T14:20:01Z</time></trkpt><trkpt lat="41.8126428237243" lon="13.315888617001551"><ele>1176.0</ele><time>2026-04-10T14:20:02Z</time></trkpt><trkpt lat="41.812666063664004" lon="13.316123988542556"><ele>1176.0</ele><time>2026-04-10T14:20:03Z</time></trkpt><trkpt lat="41.812679697341196" lon="13.316326556834126"><ele>1182.0</ele><time>2026-04-10T14:20:04Z</time></trkpt><trkpt lat="41.812700344116315" lon="13.316508688909291"><ele>1188.0</ele><time>2026-04-10T14:20:05Z</time></trkpt><trkpt lat="41.81275050042618" lon="13.316671439801032"><ele>1194.0</ele><time>2026-04-10T14:20:06Z</time></trkpt><trkpt lat="41.812842301544755" lon="13.316824193419382"><ele>1200.0</ele><time>2026-04-10T14:20:07Z</time></trkpt><trkpt lat="41.812957083345786" lon="13.316923934438867"><ele>1200.0</ele><time>2026-04-10T14:20:08Z</time></trkpt><trkpt lat="41.81307135919866" lon="13.316992120463611"><ele>1200.0</ele><time>2026-04-10T14:20:09Z</time></trkpt><trkpt lat="41.81315655408418" lon="13.31705339008151"><ele>1200.0</ele><time>2026-04-10T14:20:10Z</time></trkpt><trkpt lat="41.81323880466355" lon="13.317069056410272"><ele>1200.0</ele><time>2026-04-10T14:20:11Z</time></trkpt><trkpt lat="41.81333442284682" lon="13.317023164369283"><ele>1200.0</ele><time>2026-04-10T14:20:12Z</time></trkpt><trkpt lat="41.81340004494303" lon="13.316948616900705"><ele>1200.0</ele><time>2026-04-10T14:20:13Z</time></trkpt><trkpt lat="41.81341397890449" lon="13.316832039980296"><ele>1200.0</ele><time>2026-04-10T14:20:14Z</time></trkpt><trkpt lat="41.8133776732632" lon="13.316714684466282"><ele>1200.0</ele><time>2026-04-10T14:20:15Z</time></trkpt><trkpt lat="41.81329303629553" lon="13.316608715332421"><ele>1200.0</ele><time>2026-04-10T14:20:16Z</time></trkpt><trkpt lat="41.813199501139025" lon="13.316503849985907"><ele>1200.0</ele><time>2026-04-10T14:20:17Z</time></trkpt><trkpt lat="41.81315236662811" lon="13.316367557221175"><ele>1201.75</ele><time>2026-04-10T14:20:18Z</time></trkpt><trkpt lat="41.81313923461337" lon="13.316208506434672"><ele>1203.5</ele><time>2026-04-10T14:20:19Z</time></trkpt><trkpt lat="41.81311884817565" lon="13.31605391864368"><ele>1205.25</ele><time>2026-04-10T14:20:20Z</time></trkpt><trkpt lat="41.81312415055207" lon="13.31588212872348"><ele>1207.0</ele><time>2026-04-10T14:20:21Z</time></trkpt><trkpt lat="41.8131536229692" lon="13.315726026517241"><ele>1207.0</ele><time>2026-04-10T14:20:22Z</time></trkpt><trkpt lat="41.813198888699915" lon="13.315583162181595"><ele>1207.0</ele><time>2026-04-10T14:20:23Z</time></trkpt><trkpt lat="41.8132626680966" lon="13.315460923746594"><ele>1207.0</ele><time>2026-04-10T14:20:24Z</time></trkpt><trkpt lat="41.813341178497524" lon="13.315387285197811"><ele>1207.0</ele><time>2026-04-10T14:20:25Z</time></trkpt><trkpt lat="41.8133976232562" lon="13.315338366526255"><ele>1207.0</ele><time>2026-04-10T14:20:26Z</time></trkpt><trkpt lat="41.81348419820737" lon="13.315284357116786"><ele>1207.8333333333333</ele><time>2026-04-10T14:20:27Z</time></trkpt><trkpt lat="41.81357726873459" lon="13.31529810458372"><ele>1208.6666666666665</ele><time>2026-04-10T14:20:28Z</time></trkpt><trkpt lat="41.81365331762403" lon="13.315287738473934"><ele>1209.5</ele><time>2026-04-10T14:20:29Z</time></trkpt><trkpt lat="41.81370872608756" lon="13.315337242928692"><ele>1210.3333333333333</ele><time>2026-04-10T14:20:30Z</time></trkpt><trkpt lat="41.8137407872621" lon="13.315469501760445"><ele>1211.1666666666667</ele><time>2026-04-10T14:20:31Z</time></trkpt><trkpt lat="41.81379548088878" lon="13.315581579021558"><ele>1212.0</ele><time>2026-04-10T14:20:32Z</time></trkpt><trkpt lat="41.81383940112597" lon="13.315700310173439"><ele>1212.0</ele><time>2026-04-10T14:20:33Z</time></trkpt><trkpt lat="41.813859906751375" lon="13.315813727433468"><ele>1212.0</ele><time>2026-04-10T14:20:34Z</time></trkpt><trkpt lat="41.81387627563301" lon="13.31593395555045"><ele>1212.0</ele><time>2026-04-10T14:20:35Z</time></trkpt><trkpt lat="41.813867387969054" lon="13.316035950111056"><ele>1212.0</ele><time>2026-04-10T14:20:36Z</time></trkpt><trkpt lat="41.81381735399198" lon="13.316124183864195"><ele>1212.0</ele><time>2026-04-10T14:20:37Z</time></trkpt><trkpt lat="41.81378755971713" lon="13.316213760074135"><ele>1212.0</ele><time>2026-04-10T14:20:38Z</time></trkpt><trkpt lat="41.81377386057662" lon="13.31631232707085"><ele>1213.0</ele><time>2026-04-10T14:20:39Z</time></trkpt><trkpt lat="41.8138265737035" lon="13.316447816465223"><ele>1214.0</ele><time>2026-04-10T14:20:41Z</time></trkpt><trkpt lat="41.81387603738384" lon="13.31651905002892"><ele>1215.0</ele><time>2026-04-10T14:20:43Z</time></trkpt><trkpt lat="41.813940400590305" lon="13.316620353035157"><ele>1216.0</ele><time>2026-04-10T14:34:08Z</time></trkpt><trkpt lat="41.813993767652065" lon="13.316684813123711"><ele>1217.0</ele><time>2026-04-10T14:34:10Z</time></trkpt><trkpt lat="41.81407109592486" lon="13.316770891828716"><ele>1217.0</ele><time>2026-04-10T14:34:12Z</time></trkpt><trkpt lat="41.81412277201609" lon="13.316834861807418"><ele>1217.0</ele><time>2026-04-10T14:34:13Z</time></trkpt><trkpt lat="41.81418494769445" lon="13.316907202224577"><ele>1217.0</ele><time>2026-04-10T14:34:14Z</time></trkpt><trkpt lat="41.8142561083076" lon="13.316981783844675"><ele>1217.0</ele><time>2026-04-10T14:34:15Z</time></trkpt><trkpt lat="41.81433311269021" lon="13.317059594613307"><ele>1217.0</ele><time>2026-04-10T14:34:16Z</time></trkpt><trkpt lat="41.81441549716597" lon="13.317139834007422"><ele>1217.0</ele><time>2026-04-10T14:34:17Z</time></trkpt><trkpt lat="41.8144958744685" lon="13.317214191138321"><ele>1220.0</ele><time>2026-04-10T14:34:18Z</time></trkpt><trkpt lat="41.814585783745166" lon="13.317292935680692"><ele>1223.0</ele><time>2026-04-10T14:34:19Z</time></trkpt><trkpt lat="41.81468388102707" lon="13.317382738128849"><ele>1226.0</ele><time>2026-04-10T14:34:20Z</time></trkpt><trkpt lat="41.81478475278688" lon="13.317474769795554"><ele>1229.0</ele><time>2026-04-10T14:34:21Z</time></trkpt><trkpt lat="41.81488388948829" lon="13.317568111350427"><ele>1229.0</ele><time>2026-04-10T14:34:22Z</time></trkpt><trkpt lat="41.814989747219414" lon="13.317666276232773"><ele>1229.0</ele><time>2026-04-10T14:34:23Z</time></trkpt><trkpt lat="41.81510157003385" lon="13.317762855154204"><ele>1229.0</ele><time>2026-04-10T14:34:24Z</time></trkpt><trkpt lat="41.81522332975541" lon="13.31785091991861"><ele>1229.0</ele><time>2026-04-10T14:34:25Z</time></trkpt><trkpt lat="41.81535991997708" lon="13.317921025128047"><ele>1228.6666666666667</ele><time>2026-04-10T14:34:26Z</time></trkpt><trkpt lat="41.815504288428336" lon="13.317993382401243"><ele>1228.3333333333333</ele><time>2026-04-10T14:34:27Z</time></trkpt><trkpt lat="41.81565353305614" lon="13.318064412303704"><ele>1228.0</ele><time>2026-04-10T14:34:28Z</time></trkpt><trkpt lat="41.81581100387295" lon="13.318126470638365"><ele>1228.0</ele><time>2026-04-10T14:34:29Z</time></trkpt><trkpt lat="41.81597480503902" lon="13.318178311518558"><ele>1228.0</ele><time>2026-04-10T14:34:30Z</time></trkpt><trkpt lat="41.81614723198307" lon="13.318220000692502"><ele>1228.0</ele><time>2026-04-10T14:34:31Z</time></trkpt><trkpt lat="41.81632938140969" lon="13.318269852640688"><ele>1233.6666666666665</ele><time>2026-04-10T14:34:32Z</time></trkpt><trkpt lat="41.81653525835595" lon="13.318327518802144"><ele>1239.3333333333333</ele><time>2026-04-10T14:34:33Z</time></trkpt><trkpt lat="41.81675849947907" lon="13.318389592651988"><ele>1245.0</ele><time>2026-04-10T14:34:34Z</time></trkpt><trkpt lat="41.81694265051911" lon="13.3184394496394"><ele>1249.3333333333333</ele><time>2026-04-10T14:34:35Z</time></trkpt><trkpt lat="41.817130601395036" lon="13.318489491935475"><ele>1253.6666666666665</ele><time>2026-04-10T14:34:36Z</time></trkpt><trkpt lat="41.81731389420879" lon="13.318574310108767"><ele>1258.0</ele><time>2026-04-10T14:34:37Z</time></trkpt><trkpt lat="41.817479345003385" lon="13.318632208632911"><ele>1258.0</ele><time>2026-04-10T14:34:38Z</time></trkpt><trkpt lat="41.81763032737051" lon="13.318678014404785"><ele>1258.0</ele><time>2026-04-10T14:34:39Z</time></trkpt><trkpt lat="41.81774002986595" lon="13.318708587233788"><ele>1258.0</ele><time>2026-04-10T14:34:40Z</time></trkpt><trkpt lat="41.817830493298004" lon="13.318740958607817"><ele>1258.0</ele><time>2026-04-10T14:34:41Z</time></trkpt><trkpt lat="41.81790700119125" lon="13.318796854288756"><ele>1258.0</ele><time>2026-04-10T14:34:42Z</time></trkpt><trkpt lat="41.81792420616755" lon="13.31890216862689"><ele>1262.4</ele><time>2026-04-10T14:34:43Z</time></trkpt><trkpt lat="41.8179202645662" lon="13.319021057548635"><ele>1266.8</ele><time>2026-04-10T14:34:44Z</time></trkpt><trkpt lat="41.81789251267056" lon="13.319146130296192"><ele>1271.2</ele><time>2026-04-10T14:34:45Z</time></trkpt><trkpt lat="41.81784323586247" lon="13.319274628952405"><ele>1275.6</ele><time>2026-04-10T14:34:46Z</time></trkpt><trkpt lat="41.81778337128021" lon="13.319414639511063"><ele>1280.0</ele><time>2026-04-10T14:34:47Z</time></trkpt><trkpt lat="41.81771409014444" lon="13.319563956385545"><ele>1275.5</ele><time>2026-04-10T14:34:48Z</time></trkpt><trkpt lat="41.817636333227114" lon="13.31972144956204"><ele>1271.0</ele><time>2026-04-10T14:34:49Z</time></trkpt><trkpt lat="41.81756925316822" lon="13.319901712073959"><ele>1266.5</ele><time>2026-04-10T14:34:50Z</time></trkpt><trkpt lat="41.81750201273908" lon="13.320039695848427"><ele>1262.0</ele><time>2026-04-10T14:34:51Z</time></trkpt><trkpt lat="41.81746911117727" lon="13.32016263574315"><ele>1262.0</ele><time>2026-04-10T14:34:52Z</time></trkpt><trkpt lat="41.817491739300955" lon="13.320294826522401"><ele>1262.0</ele><time>2026-04-10T14:34:53Z</time></trkpt><trkpt lat="41.81757127208287" lon="13.320406299083205"><ele>1262.0</ele><time>2026-04-10T14:34:54Z</time></trkpt><trkpt lat="41.81767579215445" lon="13.320481015386807"><ele>1262.0</ele><time>2026-04-10T14:34:55Z</time></trkpt><trkpt lat="41.81777590430916" lon="13.32056418418466"><ele>1269.75</ele><time>2026-04-10T14:34:56Z</time></trkpt><trkpt lat="41.81785018662355" lon="13.320696090651104"><ele>1277.5</ele><time>2026-04-10T14:34:57Z</time></trkpt><trkpt lat="41.817871512594785" lon="13.320857965648301"><ele>1285.25</ele><time>2026-04-10T14:34:58Z</time></trkpt><trkpt lat="41.81788233707648" lon="13.321069305561585"><ele>1293.0</ele><time>2026-04-10T14:34:59Z</time></trkpt><trkpt lat="41.817895792181886" lon="13.32123745818519"><ele>1293.0</ele><time>2026-04-10T14:35:00Z</time></trkpt><trkpt lat="41.81797541599144" lon="13.321393330747373"><ele>1293.0</ele><time>2026-04-10T14:35:01Z</time></trkpt><trkpt lat="41.81809898631999" lon="13.321517684043265"><ele>1293.0</ele><time>2026-04-10T14:35:02Z</time></trkpt><trkpt lat="41.818228017182456" lon="13.32163690203021"><ele>1288.6666666666667</ele><time>2026-04-10T14:35:03Z</time></trkpt><trkpt lat="41.81835046350222" lon="13.321775809916819"><ele>1284.3333333333335</ele><time>2026-04-10T14:35:04Z</time></trkpt><trkpt lat="41.818478730871824" lon="13.32191443680349"><ele>1280.0</ele><time>2026-04-10T14:35:05Z</time></trkpt><trkpt lat="41.818611126275975" lon="13.322048635247668"><ele>1288.6666666666667</ele><time>2026-04-10T14:35:06Z</time></trkpt><trkpt lat="41.81874395030892" lon="13.322187317699742"><ele>1297.3333333333333</ele><time>2026-04-10T14:35:07Z</time></trkpt><trkpt lat="41.81885591920098" lon="13.322316575728046"><ele>1306.0</ele><time>2026-04-10T14:35:08Z</time></trkpt><trkpt lat="41.81896067284408" lon="13.322435512199853"><ele>1306.0</ele><time>2026-04-10T14:35:09Z</time></trkpt><trkpt lat="41.819025214274795" lon="13.322539778755237"><ele>1306.0</ele><time>2026-04-10T14:35:10Z</time></trkpt><trkpt lat="41.81908017320894" lon="13.322658684188365"><ele>1306.0</ele><time>2026-04-10T14:35:11Z</time></trkpt><trkpt lat="41.81911109008438" lon="13.32278060784571"><ele>1306.0</ele><time>2026-04-10T14:35:12Z</time></trkpt><trkpt lat="41.81910440817615" lon="13.322891638728493"><ele>1306.0</ele><time>2026-04-10T14:35:13Z</time></trkpt><trkpt lat="41.8190714960826" lon="13.322966432667705"><ele>1306.0</ele><time>2026-04-10T14:35:14Z</time></trkpt><trkpt lat="41.81901059532931" lon="13.32304136604216"><ele>1310.0</ele><time>2026-04-10T14:35:15Z</time></trkpt><trkpt lat="41.81891082143209" lon="13.323135412804978"><ele>1314.0</ele><time>2026-04-10T14:35:16Z</time></trkpt><trkpt lat="41.8187757668016" lon="13.323309229589837"><ele>1318.0</ele><time>2026-04-10T14:35:17Z</time></trkpt><trkpt lat="41.81860178058479" lon="13.323445937449303"><ele>1307.6666666666665</ele><time>2026-04-10T14:35:18Z</time></trkpt><trkpt lat="41.818426348730604" lon="13.323592849379093"><ele>1297.3333333333333</ele><time>2026-04-10T14:35:19Z</time></trkpt><trkpt lat="41.8182702011159" lon="13.323717136675821"><ele>1287.0</ele><time>2026-04-10T14:35:20Z</time></trkpt><trkpt lat="41.8181573672861" lon="13.323879710417188"><ele>1289.8</ele><time>2026-04-10T14:35:21Z</time></trkpt><trkpt lat="41.81810539041681" lon="13.323997565291643"><ele>1292.6</ele><time>2026-04-10T14:35:22Z</time></trkpt><trkpt lat="41.81808423072063" lon="13.324095506247122"><ele>1295.3999999999999</ele><time>2026-04-10T14:35:23Z</time></trkpt><trkpt lat="41.81812308113037" lon="13.324253102720522"><ele>1298.1999999999998</ele><time>2026-04-10T14:35:24Z</time></trkpt><trkpt lat="41.8181859337093" lon="13.324399653643157"><ele>1301.0</ele><time>2026-04-10T14:35:25Z</time></trkpt><trkpt lat="41.818249476014984" lon="13.324575027548256"><ele>1299.0</ele><time>2026-04-10T14:35:26Z</time></trkpt><trkpt lat="41.81833655877674" lon="13.324745807458232"><ele>1297.0</ele><time>2026-04-10T14:35:27Z</time></trkpt><trkpt lat="41.81844471728992" lon="13.32488963947703"><ele>1295.0</ele><time>2026-04-10T14:35:28Z</time></trkpt><trkpt lat="41.818561009025125" lon="13.325047788807803"><ele>1307.0</ele><time>2026-04-10T14:35:29Z</time></trkpt><trkpt lat="41.81865214263755" lon="13.325194039290006"><ele>1319.0</ele><time>2026-04-10T14:35:30Z</time></trkpt><trkpt lat="41.81874243848171" lon="13.325340700232278"><ele>1331.0</ele><time>2026-04-10T14:35:31Z</time></trkpt><trkpt lat="41.818781788886426" lon="13.32550028637295"><ele>1343.0</ele><time>2026-04-10T14:35:32Z</time></trkpt><trkpt lat="41.818802459015515" lon="13.325643606195166"><ele>1343.5</ele><time>2026-04-10T14:35:33Z</time></trkpt><trkpt lat="41.81878511981817" lon="13.325777705389633"><ele>1344.0</ele><time>2026-04-10T14:35:34Z</time></trkpt><trkpt lat="41.81873668094419" lon="13.325919178267629"><ele>1344.5</ele><time>2026-04-10T14:35:35Z</time></trkpt><trkpt lat="41.818654771817634" lon="13.326071099866612"><ele>1345.0</ele><time>2026-04-10T14:35:36Z</time></trkpt><trkpt lat="41.818548438630984" lon="13.326228889858308"><ele>1337.3333333333333</ele><time>2026-04-10T14:35:37Z</time></trkpt><trkpt lat="41.818412563571535" lon="13.326426302848773"><ele>1329.6666666666667</ele><time>2026-04-10T14:35:38Z</time></trkpt><trkpt lat="41.81829803483522" lon="13.326638722919162"><ele>1322.0</ele><time>2026-04-10T14:35:39Z</time></trkpt><trkpt lat="41.81821492359819" lon="13.32688503554531"><ele>1322.0</ele><time>2026-04-10T14:35:40Z</time></trkpt><trkpt lat="41.81812806655092" lon="13.327128961814864"><ele>1322.0</ele><time>2026-04-10T14:35:41Z</time></trkpt><trkpt lat="41.81800695492013" lon="13.327295019126021"><ele>1322.0</ele><time>2026-04-10T14:35:42Z</time></trkpt><trkpt lat="41.8178856609641" lon="13.327417847601023"><ele>1318.0</ele><time>2026-04-10T14:35:43Z</time></trkpt><trkpt lat="41.81772241084087" lon="13.32756999985387"><ele>1314.0</ele><time>2026-04-10T14:35:44Z</time></trkpt><trkpt lat="41.81758582513693" lon="13.327725925707455"><ele>1310.0</ele><time>2026-04-10T14:35:45Z</time></trkpt><trkpt lat="41.817454842311506" lon="13.327871423318825"><ele>1310.0</ele><time>2026-04-10T14:35:46Z</time></trkpt><trkpt lat="41.81736412080982" lon="13.3280596206454"><ele>1310.0</ele><time>2026-04-10T14:35:47Z</time></trkpt><trkpt lat="41.817295195733045" lon="13.32827444349919"><ele>1310.0</ele><time>2026-04-10T14:35:48Z</time></trkpt><trkpt lat="41.81723868398796" lon="13.32849737886282"><ele>1317.3333333333335</ele><time>2026-04-10T14:35:49Z</time></trkpt><trkpt lat="41.817213053429825" lon="13.328730956260976"><ele>1324.6666666666667</ele><time>2026-04-10T14:35:50Z</time></trkpt><trkpt lat="41.817193626831454" lon="13.328962997610192"><ele>1332.0</ele><time>2026-04-10T14:35:51Z</time></trkpt><trkpt lat="41.817170467726406" lon="13.32918824356623"><ele>1334.3333333333333</ele><time>2026-04-10T14:35:52Z</time></trkpt><trkpt lat="41.81718253857278" lon="13.329409819660308"><ele>1336.6666666666665</ele><time>2026-04-10T14:35:53Z</time></trkpt><trkpt lat="41.817220185073694" lon="13.329648743859432"><ele>1339.0</ele><time>2026-04-10T14:35:54Z</time></trkpt><trkpt lat="41.81731712353224" lon="13.329866839310991"><ele>1339.0</ele><time>2026-04-10T14:35:55Z</time></trkpt><trkpt lat="41.81738376798053" lon="13.330124318091396"><ele>1339.0</ele><time>2026-04-10T14:35:56Z</time></trkpt><trkpt lat="41.81747975564707" lon="13.330399223429756"><ele>1339.0</ele><time>2026-04-10T14:35:57Z</time></trkpt><trkpt lat="41.81761530346829" lon="13.330662707905532"><ele>1349.0</ele><time>2026-04-10T14:35:58Z</time></trkpt><trkpt lat="41.81774324469226" lon="13.330888408344432"><ele>1359.0</ele><time>2026-04-10T14:35:59Z</time></trkpt><trkpt lat="41.81784330354882" lon="13.331082259769769"><ele>1369.0</ele><time>2026-04-10T14:36:00Z</time></trkpt><trkpt lat="41.817914058500946" lon="13.33128259858723"><ele>1365.6666666666665</ele><time>2026-04-10T14:36:01Z</time></trkpt><trkpt lat="41.817973169747496" lon="13.331499653789006"><ele>1362.3333333333333</ele><time>2026-04-10T14:36:02Z</time></trkpt><trkpt lat="41.817992323260235" lon="13.33170603429825"><ele>1359.0</ele><time>2026-04-10T14:36:03Z</time></trkpt><trkpt lat="41.81797050198595" lon="13.331885747980248"><ele>1359.0</ele><time>2026-04-10T14:36:04Z</time></trkpt><trkpt lat="41.81793916824925" lon="13.33205262726952"><ele>1359.0</ele><time>2026-04-10T14:36:05Z</time></trkpt><trkpt lat="41.81791698593043" lon="13.332187080057434"><ele>1359.0</ele><time>2026-04-10T14:36:06Z</time></trkpt><trkpt lat="41.81793099613336" lon="13.332321771138524"><ele>1359.0</ele><time>2026-04-10T14:36:07Z</time></trkpt><trkpt lat="41.81799283175564" lon="13.332426408178097"><ele>1359.0</ele><time>2026-04-10T14:36:08Z</time></trkpt><trkpt lat="41.818084192239496" lon="13.332470418176676"><ele>1359.0</ele><time>2026-04-10T14:36:09Z</time></trkpt><trkpt lat="41.81819223472988" lon="13.3324499749345"><ele>1359.0</ele><time>2026-04-10T14:36:10Z</time></trkpt><trkpt lat="41.81827797912202" lon="13.33236491470431"><ele>1359.0</ele><time>2026-04-10T14:36:11Z</time></trkpt><trkpt lat="41.81832354691435" lon="13.332221199000033"><ele>1359.0</ele><time>2026-04-10T14:36:12Z</time></trkpt><trkpt lat="41.818336986069916" lon="13.332018182614233"><ele>1359.0</ele><time>2026-04-10T14:36:13Z</time></trkpt><trkpt lat="41.818318484981674" lon="13.331750992945725"><ele>1359.0</ele><time>2026-04-10T14:36:14Z</time></trkpt><trkpt lat="41.81828750753141" lon="13.331462692755148"><ele>1359.0</ele><time>2026-04-10T14:36:15Z</time></trkpt><trkpt lat="41.81825635707093" lon="13.331151166123208"><ele>1362.3333333333333</ele><time>2026-04-10T14:36:16Z</time></trkpt><trkpt lat="41.81821617224625" lon="13.330885966757574"><ele>1365.6666666666665</ele><time>2026-04-10T14:36:17Z</time></trkpt><trkpt lat="41.81815520518986" lon="13.330660768318971"><ele>1369.0</ele><time>2026-04-10T14:36:18Z</time></trkpt><trkpt lat="41.81805960818229" lon="13.330459694821705"><ele>1373.0</ele><time>2026-04-10T14:36:19Z</time></trkpt><trkpt lat="41.8179629855396" lon="13.330278285585184"><ele>1377.0</ele><time>2026-04-10T14:36:20Z</time></trkpt><trkpt lat="41.817909017974706" lon="13.330064720930856"><ele>1381.0</ele><time>2026-04-10T14:36:21Z</time></trkpt><trkpt lat="41.81791403149709" lon="13.329816595549246"><ele>1383.0</ele><time>2026-04-10T14:36:22Z</time></trkpt><trkpt lat="41.81792879638512" lon="13.329544636563163"><ele>1385.0</ele><time>2026-04-10T14:36:23Z</time></trkpt><trkpt lat="41.81793657504938" lon="13.329266257615128"><ele>1387.0</ele><time>2026-04-10T14:36:24Z</time></trkpt><trkpt lat="41.81795729965556" lon="13.328956191279458"><ele>1384.6666666666665</ele><time>2026-04-10T14:36:25Z</time></trkpt><trkpt lat="41.81798989168398" lon="13.328710170247817"><ele>1382.3333333333333</ele><time>2026-04-10T14:36:26Z</time></trkpt><trkpt lat="41.81804346222296" lon="13.328506884978019"><ele>1380.0</ele><time>2026-04-10T14:36:27Z</time></trkpt><trkpt lat="41.81811591015012" lon="13.328315378855327"><ele>1380.0</ele><time>2026-04-10T14:36:28Z</time></trkpt><trkpt lat="41.81820422490432" lon="13.328129963293101"><ele>1380.0</ele><time>2026-04-10T14:36:29Z</time></trkpt><trkpt lat="41.81850862956978" lon="13.327742607919124"><ele>1388.0</ele><time>2026-04-10T14:36:34Z</time></trkpt><trkpt lat="41.81857481395653" lon="13.327665733199142"><ele>1396.0</ele><time>2026-04-10T14:36:35Z</time></trkpt><trkpt lat="41.81935489623964" lon="13.326947199612759"><ele>1396.75</ele><time>2026-04-10T14:36:37Z</time></trkpt><trkpt lat="41.81949490960622" lon="13.32690000759468"><ele>1397.5</ele><time>2026-04-10T14:36:38Z</time></trkpt><trkpt lat="41.819645632553545" lon="13.32690328693267"><ele>1398.25</ele><time>2026-04-10T14:36:39Z</time></trkpt><trkpt lat="41.819764238664405" lon="13.326894604464268"><ele>1399.0</ele><time>2026-04-10T14:36:40Z</time></trkpt><trkpt lat="41.819834311239795" lon="13.326854013278739"><ele>1399.0</ele><time>2026-04-10T14:36:41Z</time></trkpt><trkpt lat="41.819901267400866" lon="13.326792925335926"><ele>1399.0</ele><time>2026-04-10T14:36:42Z</time></trkpt><trkpt lat="41.81994660956212" lon="13.326645628579087"><ele>1399.0</ele><time>2026-04-10T14:36:43Z</time></trkpt><trkpt lat="41.819947282336564" lon="13.326446848454786"><ele>1399.0</ele><time>2026-04-10T14:36:44Z</time></trkpt><trkpt lat="41.819919620712" lon="13.326254836506418"><ele>1395.0</ele><time>2026-04-10T14:36:45Z</time></trkpt><trkpt lat="41.81991915653543" lon="13.325943826945265"><ele>1391.0</ele><time>2026-04-10T14:36:46Z</time></trkpt><trkpt lat="41.81989993312976" lon="13.325635609523435"><ele>1390.6666666666667</ele><time>2026-04-10T14:36:47Z</time></trkpt><trkpt lat="41.81988561090705" lon="13.32541204076977"><ele>1390.3333333333333</ele><time>2026-04-10T14:36:48Z</time></trkpt><trkpt lat="41.81988379310703" lon="13.325207683858228"><ele>1390.0</ele><time>2026-04-10T14:36:49Z</time></trkpt><trkpt lat="41.81992313099273" lon="13.325040337718578"><ele>1390.0</ele><time>2026-04-10T14:36:50Z</time></trkpt><trkpt lat="41.81998497703697" lon="13.32490000915921"><ele>1390.0</ele><time>2026-04-10T14:36:51Z</time></trkpt><trkpt lat="41.82009498168218" lon="13.324834899349995"><ele>1390.0</ele><time>2026-04-10T14:36:52Z</time></trkpt><trkpt lat="41.82020545109135" lon="13.324800754101124"><ele>1390.0</ele><time>2026-04-10T14:36:53Z</time></trkpt><trkpt lat="41.82034653111462" lon="13.324740399598134"><ele>1392.6666666666665</ele><time>2026-04-10T14:36:54Z</time></trkpt><trkpt lat="41.82051160977438" lon="13.324723623765271"><ele>1395.3333333333333</ele><time>2026-04-10T14:36:55Z</time></trkpt><trkpt lat="41.82071203345596" lon="13.324658582314925"><ele>1398.0</ele><time>2026-04-10T14:36:56Z</time></trkpt><trkpt lat="41.82090258946962" lon="13.324595534605823"><ele>1407.6666666666667</ele><time>2026-04-10T14:36:57Z</time></trkpt><trkpt lat="41.82105411367335" lon="13.324516673257792"><ele>1417.3333333333335</ele><time>2026-04-10T14:36:58Z</time></trkpt><trkpt lat="41.821198476599015" lon="13.324424219093427"><ele>1427.0</ele><time>2026-04-10T14:36:59Z</time></trkpt><trkpt lat="41.82131349168962" lon="13.324350412477278"><ele>1427.0</ele><time>2026-04-10T14:37:00Z</time></trkpt><trkpt lat="41.82141750653781" lon="13.32425831443738"><ele>1427.0</ele><time>2026-04-10T14:37:01Z</time></trkpt><trkpt lat="41.82149443450137" lon="13.324158149598384"><ele>1427.0</ele><time>2026-04-10T14:37:02Z</time></trkpt><trkpt lat="41.82153712807092" lon="13.324060926646132"><ele>1427.0</ele><time>2026-04-10T14:37:03Z</time></trkpt><trkpt lat="41.8215400573592" lon="13.32389733984706"><ele>1427.0</ele><time>2026-04-10T14:37:04Z</time></trkpt><trkpt lat="41.821514650724524" lon="13.323761423067332"><ele>1424.3333333333335</ele><time>2026-04-10T14:37:05Z</time></trkpt><trkpt lat="41.82147908869075" lon="13.323587200811055"><ele>1421.6666666666667</ele><time>2026-04-10T14:37:06Z</time></trkpt><trkpt lat="41.82144988181727" lon="13.323321424831818"><ele>1419.0</ele><time>2026-04-10T14:37:07Z</time></trkpt><trkpt lat="41.82143408823172" lon="13.323079035387067"><ele>1420.0</ele><time>2026-04-10T14:37:08Z</time></trkpt><trkpt lat="41.82145312917074" lon="13.322864917887209"><ele>1421.0</ele><time>2026-04-10T14:37:09Z</time></trkpt><trkpt lat="41.821471106121756" lon="13.322636948243002"><ele>1422.0</ele><time>2026-04-10T14:37:10Z</time></trkpt><trkpt lat="41.82145448614228" lon="13.322381342185935"><ele>1424.0</ele><time>2026-04-10T14:37:11Z</time></trkpt><trkpt lat="41.82138606929916" lon="13.322147277446982"><ele>1426.0</ele><time>2026-04-10T14:37:12Z</time></trkpt><trkpt lat="41.82128946413532" lon="13.321936204850891"><ele>1428.0</ele><time>2026-04-10T14:37:13Z</time></trkpt><trkpt lat="41.82119868189924" lon="13.321758149337619"><ele>1428.0</ele><time>2026-04-10T14:37:14Z</time></trkpt><trkpt lat="41.8211331817652" lon="13.321592327596512"><ele>1428.0</ele><time>2026-04-10T14:37:15Z</time></trkpt><trkpt lat="41.821067822268674" lon="13.321475669082503"><ele>1428.0</ele><time>2026-04-10T14:37:16Z</time></trkpt><trkpt lat="41.8210430261968" lon="13.321361956779125"><ele>1428.0</ele><time>2026-04-10T14:37:17Z</time></trkpt><trkpt lat="41.82105656441596" lon="13.321273966426924"><ele>1428.0</ele><time>2026-04-10T14:37:18Z</time></trkpt><trkpt lat="41.82108775491792" lon="13.321166278222645"><ele>1428.0</ele><time>2026-04-10T14:37:19Z</time></trkpt><trkpt lat="41.82115536907142" lon="13.32113367608199"><ele>1428.0</ele><time>2026-04-10T14:37:20Z</time></trkpt><trkpt lat="41.82127533661742" lon="13.321263292803433"><ele>1428.0</ele><time>2026-04-10T14:37:22Z</time></trkpt><trkpt lat="41.82137673473091" lon="13.321465324915604"><ele>1428.0</ele><time>2026-04-10T14:37:23Z</time></trkpt><trkpt lat="41.821508586692836" lon="13.32165461011879"><ele>1428.0</ele><time>2026-04-10T14:37:24Z</time></trkpt><trkpt lat="41.821609735592" lon="13.321862005130704"><ele>1428.0</ele><time>2026-04-10T14:37:25Z</time></trkpt><trkpt lat="41.82172379575211" lon="13.322087675871867"><ele>1428.0</ele><time>2026-04-10T14:37:26Z</time></trkpt><trkpt lat="41.82180187993499" lon="13.322321490185079"><ele>1440.0</ele><time>2026-04-10T14:37:27Z</time></trkpt><trkpt lat="41.8218395441517" lon="13.322581478276526"><ele>1452.0</ele><time>2026-04-10T14:37:28Z</time></trkpt><trkpt lat="41.82186089004432" lon="13.322861698962901"><ele>1464.0</ele><time>2026-04-10T14:37:29Z</time></trkpt><trkpt lat="41.82187034432256" lon="13.323138308515905"><ele>1465.3333333333333</ele><time>2026-04-10T14:37:30Z</time></trkpt><trkpt lat="41.82188226198585" lon="13.3234254164439"><ele>1466.6666666666665</ele><time>2026-04-10T14:37:31Z</time></trkpt><trkpt lat="41.82197329264397" lon="13.323663804984365"><ele>1468.0</ele><time>2026-04-10T14:37:32Z</time></trkpt><trkpt lat="41.82206914459841" lon="13.323881607584948"><ele>1467.2</ele><time>2026-04-10T14:37:33Z</time></trkpt><trkpt lat="41.822127346159725" lon="13.32403598301533"><ele>1466.4</ele><time>2026-04-10T14:37:34Z</time></trkpt><trkpt lat="41.822173464541045" lon="13.324165222437134"><ele>1465.6000000000001</ele><time>2026-04-10T14:37:35Z</time></trkpt><trkpt lat="41.822175571105454" lon="13.32427821800531"><ele>1464.8000000000002</ele><time>2026-04-10T14:37:36Z</time></trkpt><trkpt lat="41.82211861337629" lon="13.324420219382848"><ele>1464.0</ele><time>2026-04-10T14:37:37Z</time></trkpt><trkpt lat="41.822026770569444" lon="13.324619481825104"><ele>1459.0</ele><time>2026-04-10T14:37:38Z</time></trkpt><trkpt lat="41.82191163391774" lon="13.324834120120633"><ele>1454.0</ele><time>2026-04-10T14:37:39Z</time></trkpt><trkpt lat="41.82174021732858" lon="13.325048155094956"><ele>1449.0</ele><time>2026-04-10T14:37:40Z</time></trkpt><trkpt lat="41.82156977313953" lon="13.325221709338743"><ele>1449.0</ele><time>2026-04-10T14:37:41Z</time></trkpt><trkpt lat="41.821397361855944" lon="13.325340684130593"><ele>1449.0</ele><time>2026-04-10T14:37:42Z</time></trkpt><trkpt lat="41.82126695103481" lon="13.325460175809999"><ele>1449.0</ele><time>2026-04-10T14:37:43Z</time></trkpt><trkpt lat="41.82119220496506" lon="13.325556709908184"><ele>1453.5</ele><time>2026-04-10T14:37:44Z</time></trkpt><trkpt lat="41.82114169939013" lon="13.32572448532956"><ele>1458.0</ele><time>2026-04-10T14:37:45Z</time></trkpt><trkpt lat="41.82110795611269" lon="13.325924036041359"><ele>1462.5</ele><time>2026-04-10T14:37:46Z</time></trkpt><trkpt lat="41.82112991935006" lon="13.326136616749334"><ele>1467.0</ele><time>2026-04-10T14:37:47Z</time></trkpt><trkpt lat="41.82116667590447" lon="13.326375315263343"><ele>1470.5</ele><time>2026-04-10T14:37:48Z</time></trkpt><trkpt lat="41.821247945541316" lon="13.326671664053821"><ele>1474.0</ele><time>2026-04-10T14:37:49Z</time></trkpt><trkpt lat="41.82134846020052" lon="13.32698508574549"><ele>1473.3333333333333</ele><time>2026-04-10T14:37:50Z</time></trkpt><trkpt lat="41.82143808094178" lon="13.327253092117335"><ele>1472.6666666666667</ele><time>2026-04-10T14:37:51Z</time></trkpt><trkpt lat="41.82152768715061" lon="13.327474584800546"><ele>1472.0</ele><time>2026-04-10T14:37:52Z</time></trkpt><trkpt lat="41.82160792840458" lon="13.327658857336012"><ele>1472.0</ele><time>2026-04-10T14:37:53Z</time></trkpt><trkpt lat="41.8216761415476" lon="13.327846833972947"><ele>1472.0</ele><time>2026-04-10T14:37:54Z</time></trkpt><trkpt lat="41.82168942273396" lon="13.328056618801673"><ele>1472.0</ele><time>2026-04-10T14:37:55Z</time></trkpt><trkpt lat="41.82168082327195" lon="13.328219372176939"><ele>1472.0</ele><time>2026-04-10T14:37:56Z</time></trkpt><trkpt lat="41.82161540131477" lon="13.328361252918311"><ele>1473.0</ele><time>2026-04-10T14:37:57Z</time></trkpt><trkpt lat="41.8215308544069" lon="13.32852170586429"><ele>1474.0</ele><time>2026-04-10T14:37:58Z</time></trkpt><trkpt lat="41.82140611322459" lon="13.328738049715266"><ele>1475.0</ele><time>2026-04-10T14:37:59Z</time></trkpt><trkpt lat="41.821270234284746" lon="13.328900925803529"><ele>1475.75</ele><time>2026-04-10T14:38:00Z</time></trkpt><trkpt lat="41.82112367057076" lon="13.32898236641582"><ele>1476.5</ele><time>2026-04-10T14:38:01Z</time></trkpt><trkpt lat="41.82098938361697" lon="13.329043521572796"><ele>1477.25</ele><time>2026-04-10T14:38:02Z</time></trkpt><trkpt lat="41.820864118066154" lon="13.329103665488015"><ele>1478.0</ele><time>2026-04-10T14:38:03Z</time></trkpt><trkpt lat="41.820779418852624" lon="13.329170669437994"><ele>1476.4</ele><time>2026-04-10T14:38:04Z</time></trkpt><trkpt lat="41.82068383527618" lon="13.32925903768439"><ele>1474.8000000000002</ele><time>2026-04-10T14:38:05Z</time></trkpt><trkpt lat="41.82067916283404" lon="13.329390840035"><ele>1473.2</ele><time>2026-04-10T14:38:06Z</time></trkpt><trkpt lat="41.820723028534154" lon="13.329518194281391"><ele>1471.6</ele><time>2026-04-10T14:38:07Z</time></trkpt><trkpt lat="41.820826026707834" lon="13.329612601736235"><ele>1470.0</ele><time>2026-04-10T14:38:08Z</time></trkpt><trkpt lat="41.82096902441578" lon="13.329667833653541"><ele>1472.6666666666667</ele><time>2026-04-10T14:38:09Z</time></trkpt><trkpt lat="41.82112906029263" lon="13.329641816352447"><ele>1475.3333333333335</ele><time>2026-04-10T14:38:10Z</time></trkpt><trkpt lat="41.82128126369077" lon="13.329585515706707"><ele>1478.0</ele><time>2026-04-10T14:38:11Z</time></trkpt><trkpt lat="41.82147971685163" lon="13.329512474547458"><ele>1478.0</ele><time>2026-04-10T14:38:12Z</time></trkpt><trkpt lat="41.82167027681174" lon="13.329426732158625"><ele>1478.0</ele><time>2026-04-10T14:38:13Z</time></trkpt><trkpt lat="41.821801592636604" lon="13.329272830292297"><ele>1478.0</ele><time>2026-04-10T14:38:14Z</time></trkpt><trkpt lat="41.82191351830505" lon="13.32907513797313"><ele>1486.6666666666667</ele><time>2026-04-10T14:38:15Z</time></trkpt><trkpt lat="41.8219952617218" lon="13.328867339642908"><ele>1495.3333333333333</ele><time>2026-04-10T14:38:16Z</time></trkpt><trkpt lat="41.82208177162808" lon="13.328636694680585"><ele>1504.0</ele><time>2026-04-10T14:38:17Z</time></trkpt><trkpt lat="41.82218383103277" lon="13.32839079994444"><ele>1504.0</ele><time>2026-04-10T14:38:18Z</time></trkpt><trkpt lat="41.82225932973585" lon="13.328163817939238"><ele>1504.0</ele><time>2026-04-10T14:38:19Z</time></trkpt><trkpt lat="41.822308438691806" lon="13.327905598669599"><ele>1504.0</ele><time>2026-04-10T14:38:20Z</time></trkpt><trkpt lat="41.822316583124575" lon="13.32766261768434"><ele>1506.0</ele><time>2026-04-10T14:38:21Z</time></trkpt><trkpt lat="41.82231294869675" lon="13.32738452768077"><ele>1508.0</ele><time>2026-04-10T14:38:22Z</time></trkpt><trkpt lat="41.82228908880624" lon="13.327099804549574"><ele>1510.0</ele><time>2026-04-10T14:38:23Z</time></trkpt><trkpt lat="41.82225783594086" lon="13.326865127354772"><ele>1510.75</ele><time>2026-04-10T14:38:24Z</time></trkpt><trkpt lat="41.822227594420056" lon="13.326666946773406"><ele>1511.5</ele><time>2026-04-10T14:38:25Z</time></trkpt><trkpt lat="41.82221800817646" lon="13.32650275308436"><ele>1512.25</ele><time>2026-04-10T14:38:26Z</time></trkpt><trkpt lat="41.822271787594104" lon="13.326345762305765"><ele>1513.0</ele><time>2026-04-10T14:38:27Z</time></trkpt><trkpt lat="41.82233768064345" lon="13.32623555637625"><ele>1510.5</ele><time>2026-04-10T14:38:28Z</time></trkpt><trkpt lat="41.822430081241244" lon="13.326119321199355"><ele>1508.0</ele><time>2026-04-10T14:38:29Z</time></trkpt><trkpt lat="41.82254843788787" lon="13.325999633506852"><ele>1505.5</ele><time>2026-04-10T14:38:30Z</time></trkpt><trkpt lat="41.82265652123385" lon="13.32588604666455"><ele>1503.0</ele><time>2026-04-10T14:38:31Z</time></trkpt><trkpt lat="41.82278518655721" lon="13.32574753479601"><ele>1509.6666666666667</ele><time>2026-04-10T14:38:32Z</time></trkpt><trkpt lat="41.82290212295031" lon="13.325623010947767"><ele>1516.3333333333335</ele><time>2026-04-10T14:38:33Z</time></trkpt><trkpt lat="41.82303054631201" lon="13.325479467725064"><ele>1523.0</ele><time>2026-04-10T14:38:34Z</time></trkpt><trkpt lat="41.82314237434239" lon="13.325333283951512"><ele>1523.0</ele><time>2026-04-10T14:38:35Z</time></trkpt><trkpt lat="41.8232428796968" lon="13.325197553909831"><ele>1523.0</ele><time>2026-04-10T14:38:36Z</time></trkpt><trkpt lat="41.823287451610675" lon="13.32503090502936"><ele>1523.0</ele><time>2026-04-10T14:38:37Z</time></trkpt><trkpt lat="41.823354258255286" lon="13.32484463977433"><ele>1523.0</ele><time>2026-04-10T14:38:38Z</time></trkpt><trkpt lat="41.82336005209224" lon="13.324604098214463"><ele>1520.3333333333335</ele><time>2026-04-10T14:38:39Z</time></trkpt><trkpt lat="41.8233736013826" lon="13.324355136586414"><ele>1517.6666666666667</ele><time>2026-04-10T14:38:40Z</time></trkpt><trkpt lat="41.823367647562925" lon="13.324130082254262"><ele>1515.0</ele><time>2026-04-10T14:38:41Z</time></trkpt><trkpt lat="41.82334071625706" lon="13.323904819107883"><ele>1514.0</ele><time>2026-04-10T14:38:42Z</time></trkpt><trkpt lat="41.82331338647551" lon="13.323685264463716"><ele>1513.0</ele><time>2026-04-10T14:38:43Z</time></trkpt><trkpt lat="41.82333185834622" lon="13.3235221982001"><ele>1512.0</ele><time>2026-04-10T14:38:44Z</time></trkpt><trkpt lat="41.82339512437213" lon="13.323357026781517"><ele>1511.0</ele><time>2026-04-10T14:38:45Z</time></trkpt><trkpt lat="41.82345814338124" lon="13.323205028335854"><ele>1515.25</ele><time>2026-04-10T14:38:46Z</time></trkpt><trkpt lat="41.823530814532184" lon="13.323056930073419"><ele>1519.5</ele><time>2026-04-10T14:38:47Z</time></trkpt><trkpt lat="41.82361066362736" lon="13.322929716277882"><ele>1523.75</ele><time>2026-04-10T14:38:48Z</time></trkpt><trkpt lat="41.823707981185265" lon="13.32284290472141"><ele>1528.0</ele><time>2026-04-10T14:38:49Z</time></trkpt><trkpt lat="41.82382193973632" lon="13.322739478876029"><ele>1528.0</ele><time>2026-04-10T14:38:50Z</time></trkpt><trkpt lat="41.82392143419477" lon="13.322652067827176"><ele>1528.0</ele><time>2026-04-10T14:38:51Z</time></trkpt><trkpt lat="41.82405414843063" lon="13.322545693398627"><ele>1528.0</ele><time>2026-04-10T14:38:52Z</time></trkpt><trkpt lat="41.82419734587508" lon="13.322437135245618"><ele>1528.0</ele><time>2026-04-10T14:38:53Z</time></trkpt><trkpt lat="41.82434687967091" lon="13.322334643301778"><ele>1525.0</ele><time>2026-04-10T14:38:54Z</time></trkpt><trkpt lat="41.8244813939068" lon="13.32224970274246"><ele>1522.0</ele><time>2026-04-10T14:38:55Z</time></trkpt><trkpt lat="41.82463180682972" lon="13.322181738406702"><ele>1519.0</ele><time>2026-04-10T14:38:56Z</time></trkpt><trkpt lat="41.82478796071365" lon="13.322126243539737"><ele>1519.0</ele><time>2026-04-10T14:38:57Z</time></trkpt><trkpt lat="41.82495695786312" lon="13.322069706465873"><ele>1519.0</ele><time>2026-04-10T14:38:58Z</time></trkpt><trkpt lat="41.82514724037554" lon="13.322003031967258"><ele>1519.0</ele><time>2026-04-10T14:38:59Z</time></trkpt><trkpt lat="41.82529298387736" lon="13.32193820943752"><ele>1530.5</ele><time>2026-04-10T14:39:00Z</time></trkpt><trkpt lat="41.82549875132562" lon="13.321839535902733"><ele>1542.0</ele><time>2026-04-10T14:39:01Z</time></trkpt><trkpt lat="41.825737663333015" lon="13.321730891864023"><ele>1551.0</ele><time>2026-04-10T14:39:02Z</time></trkpt><trkpt lat="41.825985082937805" lon="13.321633500775656"><ele>1560.0</ele><time>2026-04-10T14:39:03Z</time></trkpt><trkpt lat="41.82627513158788" lon="13.321567285997842"><ele>1560.0</ele><time>2026-04-10T14:39:04Z</time></trkpt><trkpt lat="41.826577104924944" lon="13.32144252022328"><ele>1560.0</ele><time>2026-04-10T14:39:05Z</time></trkpt><trkpt lat="41.82686726110297" lon="13.321251216555105"><ele>1557.0</ele><time>2026-04-10T14:39:06Z</time></trkpt><trkpt lat="41.82719586414193" lon="13.32110194385433"><ele>1554.0</ele><time>2026-04-10T14:39:07Z</time></trkpt><trkpt lat="41.827526199882406" lon="13.320887325211924"><ele>1552.5</ele><time>2026-04-10T14:39:08Z</time></trkpt><trkpt lat="41.82780041721097" lon="13.320677291785973"><ele>1551.0</ele><time>2026-04-10T14:39:09Z</time></trkpt><trkpt lat="41.828023373221804" lon="13.320490217515264"><ele>1551.0</ele><time>2026-04-10T14:39:10Z</time></trkpt><trkpt lat="41.82822163333739" lon="13.32032687434616"><ele>1551.0</ele><time>2026-04-10T14:39:11Z</time></trkpt><trkpt lat="41.828390847974454" lon="13.320200934787987"><ele>1551.0</ele><time>2026-04-10T14:39:12Z</time></trkpt><trkpt lat="41.82853572341436" lon="13.320105731808178"><ele>1557.3333333333335</ele><time>2026-04-10T14:39:13Z</time></trkpt><trkpt lat="41.82867719544587" lon="13.32003072615259"><ele>1563.6666666666667</ele><time>2026-04-10T14:39:14Z</time></trkpt><trkpt lat="41.828823860672" lon="13.319955666417671"><ele>1570.0</ele><time>2026-04-10T14:39:15Z</time></trkpt><trkpt lat="41.82896239025413" lon="13.319882670347406"><ele>1570.0</ele><time>2026-04-10T14:39:16Z</time></trkpt><trkpt lat="41.82910546853483" lon="13.319817871789137"><ele>1570.0</ele><time>2026-04-10T14:39:17Z</time></trkpt><trkpt lat="41.82926258168125" lon="13.31981016037384"><ele>1570.0</ele><time>2026-04-10T14:39:18Z</time></trkpt><trkpt lat="41.82944358430003" lon="13.319875828024331"><ele>1571.0</ele><time>2026-04-10T14:39:19Z</time></trkpt><trkpt lat="41.829632580703425" lon="13.31993954975077"><ele>1572.0</ele><time>2026-04-10T14:39:20Z</time></trkpt><trkpt lat="41.82983059947672" lon="13.319998171089537"><ele>1573.0</ele><time>2026-04-10T14:39:21Z</time></trkpt><trkpt lat="41.830023758002795" lon="13.320045835869172"><ele>1567.3333333333335</ele><time>2026-04-10T14:39:22Z</time></trkpt><trkpt lat="41.83023756734906" lon="13.320114739643769"><ele>1561.6666666666665</ele><time>2026-04-10T14:39:23Z</time></trkpt><trkpt lat="41.830422565262445" lon="13.320203298026978"><ele>1556.0</ele><time>2026-04-10T14:39:24Z</time></trkpt><trkpt lat="41.83058239032034" lon="13.320263360771767"><ele>1556.0</ele><time>2026-04-10T14:39:25Z</time></trkpt><trkpt lat="41.83070950973632" lon="13.320348201319943"><ele>1556.0</ele><time>2026-04-10T14:39:26Z</time></trkpt><trkpt lat="41.83081449812597" lon="13.320414937248962"><ele>1556.0</ele><time>2026-04-10T14:39:27Z</time></trkpt><trkpt lat="41.83090671728958" lon="13.320495462957375"><ele>1556.0</ele><time>2026-04-10T14:39:28Z</time></trkpt><trkpt lat="41.830977586926906" lon="13.3205989281526"><ele>1556.5</ele><time>2026-04-10T14:39:29Z</time></trkpt><trkpt lat="41.831024725966714" lon="13.320723814554201"><ele>1557.0</ele><time>2026-04-10T14:39:30Z</time></trkpt><trkpt lat="41.831041542895576" lon="13.320879388388448"><ele>1557.5</ele><time>2026-04-10T14:39:31Z</time></trkpt><trkpt lat="41.83103234510685" lon="13.321051676406437"><ele>1558.0</ele><time>2026-04-10T14:39:32Z</time></trkpt><trkpt lat="41.83103009551892" lon="13.321229294755124"><ele>1559.75</ele><time>2026-04-10T14:39:33Z</time></trkpt><trkpt lat="41.83103894543615" lon="13.321411180977293"><ele>1561.5</ele><time>2026-04-10T14:39:34Z</time></trkpt><trkpt lat="41.83103905231257" lon="13.321596606554099"><ele>1563.25</ele><time>2026-04-10T14:39:35Z</time></trkpt><trkpt lat="41.83103337132588" lon="13.321763391567107"><ele>1565.0</ele><time>2026-04-10T14:39:36Z</time></trkpt><trkpt lat="41.83102385401865" lon="13.321936296822571"><ele>1565.0</ele><time>2026-04-10T14:39:37Z</time></trkpt><trkpt lat="41.83099670100871" lon="13.322096617812768"><ele>1565.0</ele><time>2026-04-10T14:39:38Z</time></trkpt><trkpt lat="41.830964941450816" lon="13.322255927173119"><ele>1565.0</ele><time>2026-04-10T14:39:39Z</time></trkpt><trkpt lat="41.8309133979179" lon="13.3223920112961"><ele>1565.0</ele><time>2026-04-10T14:39:40Z</time></trkpt><trkpt lat="41.830899249914395" lon="13.322539867513534"><ele>1573.4</ele><time>2026-04-10T14:39:41Z</time></trkpt><trkpt lat="41.8308758717655" lon="13.32268839454279"><ele>1581.8</ele><time>2026-04-10T14:39:42Z</time></trkpt><trkpt lat="41.830864993883964" lon="13.322818821184631"><ele>1590.1999999999998</ele><time>2026-04-10T14:39:43Z</time></trkpt><trkpt lat="41.830893216709036" lon="13.322943008277473"><ele>1598.6</ele><time>2026-04-10T14:39:44Z</time></trkpt><trkpt lat="41.83095218114414" lon="13.323060463538535"><ele>1607.0</ele><time>2026-04-10T14:39:45Z</time></trkpt><trkpt lat="41.831051540774425" lon="13.323170322732821"><ele>1608.25</ele><time>2026-04-10T14:39:46Z</time></trkpt><trkpt lat="41.8311741066423" lon="13.32322400151641"><ele>1609.5</ele><time>2026-04-10T14:39:47Z</time></trkpt><trkpt lat="41.8313296870483" lon="13.323237862343907"><ele>1610.75</ele><time>2026-04-10T14:39:48Z</time></trkpt><trkpt lat="41.831486761239866" lon="13.32324552273878"><ele>1612.0</ele><time>2026-04-10T14:39:49Z</time></trkpt><trkpt lat="41.83158901399865" lon="13.32333481767364"><ele>1612.0</ele><time>2026-04-10T14:39:50Z</time></trkpt><trkpt lat="41.83175961280424" lon="13.32325091817512"><ele>1612.0</ele><time>2026-04-10T14:39:51Z</time></trkpt><trkpt lat="41.831920799125356" lon="13.323180806950125"><ele>1612.0</ele><time>2026-04-10T14:39:52Z</time></trkpt><trkpt lat="41.832069442298256" lon="13.323104268720463"><ele>1608.0</ele><time>2026-04-10T14:39:53Z</time></trkpt><trkpt lat="41.83219905948446" lon="13.323012495401128"><ele>1604.0</ele><time>2026-04-10T14:39:54Z</time></trkpt><trkpt lat="41.83230015670876" lon="13.322937641625838"><ele>1600.0</ele><time>2026-04-10T14:39:55Z</time></trkpt><trkpt lat="41.832418175040175" lon="13.322881193537281"><ele>1596.0</ele><time>2026-04-10T14:39:56Z</time></trkpt><trkpt lat="41.832526745515445" lon="13.322873982855642"><ele>1596.0</ele><time>2026-04-10T14:39:57Z</time></trkpt><trkpt lat="41.8326116171808" lon="13.322884253931022"><ele>1596.0</ele><time>2026-04-10T14:39:58Z</time></trkpt><trkpt lat="41.832669114392615" lon="13.32292273809132"><ele>1596.0</ele><time>2026-04-10T14:39:59Z</time></trkpt><trkpt lat="41.832761668519424" lon="13.323008314626533"><ele>1596.0</ele><time>2026-04-10T14:40:00Z</time></trkpt><trkpt lat="41.832842751339754" lon="13.323209244604067"><ele>1596.0</ele><time>2026-04-10T14:40:01Z</time></trkpt><trkpt lat="41.83294704206011" lon="13.323365987277054"><ele>1600.0</ele><time>2026-04-10T14:40:02Z</time></trkpt><trkpt lat="41.83303815382216" lon="13.323504966400987"><ele>1604.0</ele><time>2026-04-10T14:40:03Z</time></trkpt><trkpt lat="41.833124996569175" lon="13.323647759567807"><ele>1608.0</ele><time>2026-04-10T14:40:04Z</time></trkpt><trkpt lat="41.833202781917514" lon="13.32374292576037"><ele>1612.0</ele><time>2026-04-10T14:40:05Z</time></trkpt><trkpt lat="41.83335051451436" lon="13.323776744526292"><ele>1611.5</ele><time>2026-04-10T14:40:06Z</time></trkpt><trkpt lat="41.83349373356357" lon="13.3238235403932"><ele>1611.0</ele><time>2026-04-10T14:40:07Z</time></trkpt><trkpt lat="41.833635551634615" lon="13.323890029662602"><ele>1610.5</ele><time>2026-04-10T14:40:08Z</time></trkpt><trkpt lat="41.83376030386031" lon="13.323968762117161"><ele>1610.0</ele><time>2026-04-10T14:40:09Z</time></trkpt><trkpt lat="41.83391990292682" lon="13.323928865542"><ele>1610.0</ele><time>2026-04-10T14:40:10Z</time></trkpt><trkpt lat="41.83406468058679" lon="13.323924894348249"><ele>1610.0</ele><time>2026-04-10T14:40:11Z</time></trkpt><trkpt lat="41.834196984434165" lon="13.323880053614403"><ele>1610.0</ele><time>2026-04-10T14:40:12Z</time></trkpt><trkpt lat="41.83433567295725" lon="13.323834211311079"><ele>1610.0</ele><time>2026-04-10T14:40:13Z</time></trkpt><trkpt lat="41.83449479725756" lon="13.32379690836982"><ele>1613.0</ele><time>2026-04-10T14:40:14Z</time></trkpt><trkpt lat="41.83465739029097" lon="13.323771895441594"><ele>1616.0</ele><time>2026-04-10T14:40:15Z</time></trkpt><trkpt lat="41.834817979442796" lon="13.323743100990885"><ele>1619.0</ele><time>2026-04-10T14:40:16Z</time></trkpt><trkpt lat="41.834955451113906" lon="13.323720673559453"><ele>1619.0</ele><time>2026-04-10T14:40:17Z</time></trkpt><trkpt lat="41.83508348492043" lon="13.32365326784498"><ele>1619.0</ele><time>2026-04-10T14:40:18Z</time></trkpt><trkpt lat="41.83518872169047" lon="13.323602415101055"><ele>1619.0</ele><time>2026-04-10T14:40:19Z</time></trkpt><trkpt lat="41.83526170460261" lon="13.323579107532819"><ele>1619.0</ele><time>2026-04-10T14:40:20Z</time></trkpt><trkpt lat="41.83536180553034" lon="13.323555613101707"><ele>1619.0</ele><time>2026-04-10T14:40:21Z</time></trkpt><trkpt lat="41.835426364712355" lon="13.323588670905067"><ele>1618.8000000000002</ele><time>2026-04-10T14:40:22Z</time></trkpt><trkpt lat="41.83544040983505" lon="13.323711856387858"><ele>1618.6000000000001</ele><time>2026-04-10T14:40:23Z</time></trkpt><trkpt lat="41.835420187648474" lon="13.323822388269067"><ele>1618.4</ele><time>2026-04-10T14:40:24Z</time></trkpt><trkpt lat="41.83536474405958" lon="13.323922926204562"><ele>1618.2</ele><time>2026-04-10T14:40:25Z</time></trkpt><trkpt lat="41.83526414892306" lon="13.323943659110542"><ele>1618.0</ele><time>2026-04-10T14:40:26Z</time></trkpt><trkpt lat="41.83518644140757" lon="13.323959926533913"><ele>1623.25</ele><time>2026-04-10T14:40:27Z</time></trkpt><trkpt lat="41.83507241117595" lon="13.32401385210854"><ele>1628.5</ele><time>2026-04-10T14:40:28Z</time></trkpt><trkpt lat="41.83494069819755" lon="13.324044422429616"><ele>1633.75</ele><time>2026-04-10T14:40:29Z</time></trkpt><trkpt lat="41.83477739382415" lon="13.324076293198562"><ele>1639.0</ele><time>2026-04-10T14:40:30Z</time></trkpt><trkpt lat="41.83461492664153" lon="13.324104149892333"><ele>1639.0</ele><time>2026-04-10T14:40:31Z</time></trkpt><trkpt lat="41.83443210622916" lon="13.32414743559688"><ele>1639.0</ele><time>2026-04-10T14:40:32Z</time></trkpt><trkpt lat="41.834243038837464" lon="13.324220206260481"><ele>1639.0</ele><time>2026-04-10T14:40:33Z</time></trkpt><trkpt lat="41.83404882587605" lon="13.32427422757521"><ele>1639.0</ele><time>2026-04-10T14:40:34Z</time></trkpt><trkpt lat="41.833870871966425" lon="13.324374612823169"><ele>1639.0</ele><time>2026-04-10T14:40:35Z</time></trkpt><trkpt lat="41.83369106821626" lon="13.324430608222833"><ele>1639.0</ele><time>2026-04-10T14:40:36Z</time></trkpt><trkpt lat="41.83353488055461" lon="13.324464020955899"><ele>1640.0</ele><time>2026-04-10T14:40:37Z</time></trkpt><trkpt lat="41.83341362034849" lon="13.324437726221337"><ele>1641.0</ele><time>2026-04-10T14:40:38Z</time></trkpt><trkpt lat="41.83329156231772" lon="13.324380708092042"><ele>1642.0</ele><time>2026-04-10T14:40:39Z</time></trkpt><trkpt lat="41.833153005103306" lon="13.324368568712863"><ele>1643.0</ele><time>2026-04-10T14:40:40Z</time></trkpt><trkpt lat="41.833020486009396" lon="13.324347751473283"><ele>1643.0</ele><time>2026-04-10T14:40:41Z</time></trkpt><trkpt lat="41.83288143298131" lon="13.324292257334502"><ele>1643.0</ele><time>2026-04-10T14:40:42Z</time></trkpt><trkpt lat="41.832767082391996" lon="13.3241678527227"><ele>1643.0</ele><time>2026-04-10T14:40:43Z</time></trkpt><trkpt lat="41.832661648790136" lon="13.324072124615235"><ele>1643.0</ele><time>2026-04-10T14:40:44Z</time></trkpt><trkpt lat="41.83257099278175" lon="13.323998160165686"><ele>1646.25</ele><time>2026-04-10T14:40:45Z</time></trkpt><trkpt lat="41.832456876082716" lon="13.32397036352143"><ele>1649.5</ele><time>2026-04-10T14:40:46Z</time></trkpt><trkpt lat="41.832353001675095" lon="13.324008733709187"><ele>1652.75</ele><time>2026-04-10T14:40:47Z</time></trkpt><trkpt lat="41.83224187455941" lon="13.324054034981746"><ele>1656.0</ele><time>2026-04-10T14:40:48Z</time></trkpt><trkpt lat="41.832123621798395" lon="13.32412094132783"><ele>1656.0</ele><time>2026-04-10T14:40:49Z</time></trkpt><trkpt lat="41.83195692372253" lon="13.324208046330272"><ele>1656.0</ele><time>2026-04-10T14:40:50Z</time></trkpt><trkpt lat="41.831803522644925" lon="13.324287248938859"><ele>1656.0</ele><time>2026-04-10T14:40:51Z</time></trkpt><trkpt lat="41.83163563243254" lon="13.324419681709239"><ele>1654.5</ele><time>2026-04-10T14:40:52Z</time></trkpt><trkpt lat="41.831427257060994" lon="13.324557326909702"><ele>1653.0</ele><time>2026-04-10T14:40:53Z</time></trkpt><trkpt lat="41.831223656593814" lon="13.324662684057886"><ele>1659.6666666666665</ele><time>2026-04-10T14:40:54Z</time></trkpt><trkpt lat="41.8310250811514" lon="13.324736583234397"><ele>1666.3333333333333</ele><time>2026-04-10T14:40:55Z</time></trkpt><trkpt lat="41.83084163991441" lon="13.324803229445187"><ele>1673.0</ele><time>2026-04-10T14:40:56Z</time></trkpt><trkpt lat="41.83065198660259" lon="13.324881187986035"><ele>1673.0</ele><time>2026-04-10T14:40:57Z</time></trkpt><trkpt lat="41.83048717093067" lon="13.324986639087022"><ele>1673.0</ele><time>2026-04-10T14:40:58Z</time></trkpt><trkpt lat="41.830348499843765" lon="13.3250717974588"><ele>1673.0</ele><time>2026-04-10T14:40:59Z</time></trkpt><trkpt lat="41.83023383393345" lon="13.325122444141575"><ele>1673.2</ele><time>2026-04-10T14:41:00Z</time></trkpt><trkpt lat="41.830104287826664" lon="13.325152008870203"><ele>1673.4</ele><time>2026-04-10T14:41:01Z</time></trkpt><trkpt lat="41.83000017366955" lon="13.325167195986644"><ele>1673.6000000000001</ele><time>2026-04-10T14:41:02Z</time></trkpt><trkpt lat="41.82989700885059" lon="13.325178179151104"><ele>1673.8000000000002</ele><time>2026-04-10T14:41:03Z</time></trkpt><trkpt lat="41.82980014214493" lon="13.325158716237407"><ele>1674.0</ele><time>2026-04-10T14:41:04Z</time></trkpt><trkpt lat="41.82972660113574" lon="13.325125594057727"><ele>1674.0</ele><time>2026-04-10T14:41:05Z</time></trkpt><trkpt lat="41.829658521691805" lon="13.325036848800288"><ele>1674.0</ele><time>2026-04-10T14:41:06Z</time></trkpt><trkpt lat="41.82964714161949" lon="13.324899549571848"><ele>1674.0</ele><time>2026-04-10T14:41:07Z</time></trkpt><trkpt lat="41.829601744097786" lon="13.324764440309986"><ele>1674.0</ele><time>2026-04-10T14:41:08Z</time></trkpt><trkpt lat="41.82958811270253" lon="13.32459077075937"><ele>1674.0</ele><time>2026-04-10T14:41:09Z</time></trkpt><trkpt lat="41.82956192042122" lon="13.324395015268117"><ele>1670.75</ele><time>2026-04-10T14:41:10Z</time></trkpt><trkpt lat="41.82953641359377" lon="13.324195351301793"><ele>1667.5</ele><time>2026-04-10T14:41:11Z</time></trkpt><trkpt lat="41.829500480088065" lon="13.32400356218663"><ele>1664.25</ele><time>2026-04-10T14:41:12Z</time></trkpt><trkpt lat="41.82948346627292" lon="13.323812304395258"><ele>1661.0</ele><time>2026-04-10T14:41:13Z</time></trkpt><trkpt lat="41.829459692460595" lon="13.323640753930857"><ele>1660.1999999999998</ele><time>2026-04-10T14:41:14Z</time></trkpt><trkpt lat="41.82943571721632" lon="13.32351517669412"><ele>1659.3999999999999</ele><time>2026-04-10T14:41:15Z</time></trkpt><trkpt lat="41.82940101073797" lon="13.323372731631055"><ele>1658.6</ele><time>2026-04-10T14:41:16Z</time></trkpt><trkpt lat="41.82935562590581" lon="13.32323975676012"><ele>1657.8</ele><time>2026-04-10T14:41:17Z</time></trkpt><trkpt lat="41.829320371165686" lon="13.32310318733955"><ele>1657.0</ele><time>2026-04-10T14:41:18Z</time></trkpt><trkpt lat="41.82923353558168" lon="13.322997804489173"><ele>1660.0</ele><time>2026-04-10T14:41:19Z</time></trkpt><trkpt lat="41.829159004727515" lon="13.322935346978905"><ele>1663.0</ele><time>2026-04-10T14:41:20Z</time></trkpt><trkpt lat="41.82907226311254" lon="13.322916553085339"><ele>1666.0</ele><time>2026-04-10T14:41:21Z</time></trkpt><trkpt lat="41.82897387232576" lon="13.322929526607355"><ele>1669.0</ele><time>2026-04-10T14:41:22Z</time></trkpt><trkpt lat="41.82886791971313" lon="13.32297080255819"><ele>1672.0</ele><time>2026-04-10T14:41:23Z</time></trkpt><trkpt lat="41.82876778674322" lon="13.323021292467294"><ele>1674.6</ele><time>2026-04-10T14:41:24Z</time></trkpt><trkpt lat="41.82867890566987" lon="13.323105911505428"><ele>1677.1999999999998</ele><time>2026-04-10T14:41:25Z</time></trkpt><trkpt lat="41.82861046275467" lon="13.323205757165036"><ele>1679.8</ele><time>2026-04-10T14:41:26Z</time></trkpt><trkpt lat="41.828548542470806" lon="13.323317890792108"><ele>1682.4</ele><time>2026-04-10T14:41:27Z</time></trkpt><trkpt lat="41.82848389931793" lon="13.323422146960471"><ele>1685.0</ele><time>2026-04-10T14:41:28Z</time></trkpt><trkpt lat="41.828397407825264" lon="13.323508679621668"><ele>1685.0</ele><time>2026-04-10T14:41:29Z</time></trkpt><trkpt lat="41.828295244931496" lon="13.323570896975209"><ele>1685.0</ele><time>2026-04-10T14:41:30Z</time></trkpt><trkpt lat="41.82817759893506" lon="13.323577306441088"><ele>1685.0</ele><time>2026-04-10T14:41:31Z</time></trkpt><trkpt lat="41.82806144518522" lon="13.323558073072467"><ele>1685.0</ele><time>2026-04-10T14:41:32Z</time></trkpt><trkpt lat="41.82795604601213" lon="13.323548565099717"><ele>1685.0</ele><time>2026-04-10T14:41:33Z</time></trkpt><trkpt lat="41.82786992411752" lon="13.323593668722983"><ele>1685.0</ele><time>2026-04-10T14:41:34Z</time></trkpt><trkpt lat="41.82778555495679" lon="13.323681107672899"><ele>1685.0</ele><time>2026-04-10T14:41:35Z</time></trkpt><trkpt lat="41.82769790350416" lon="13.323789565830198"><ele>1685.0</ele><time>2026-04-10T14:41:36Z</time></trkpt><trkpt lat="41.82761990382331" lon="13.323895177651362"><ele>1685.0</ele><time>2026-04-10T14:41:37Z</time></trkpt><trkpt lat="41.82753512425902" lon="13.323994110970443"><ele>1690.0</ele><time>2026-04-10T14:41:38Z</time></trkpt><trkpt lat="41.82744449272483" lon="13.32407502288678"><ele>1695.0</ele><time>2026-04-10T14:41:39Z</time></trkpt><trkpt lat="41.82733042679333" lon="13.32414694622063"><ele>1700.0</ele><time>2026-04-10T14:41:40Z</time></trkpt><trkpt lat="41.82721045108572" lon="13.32422347891737"><ele>1705.0</ele><time>2026-04-10T14:41:41Z</time></trkpt><trkpt lat="41.82708128314462" lon="13.324293603789195"><ele>1705.0</ele><time>2026-04-10T14:41:42Z</time></trkpt><trkpt lat="41.82694021599304" lon="13.324362674747784"><ele>1705.0</ele><time>2026-04-10T14:41:43Z</time></trkpt><trkpt lat="41.826787482327816" lon="13.324426613172733"><ele>1705.0</ele><time>2026-04-10T14:41:44Z</time></trkpt><trkpt lat="41.82663085149041" lon="13.324507899607802"><ele>1697.3333333333335</ele><time>2026-04-10T14:41:45Z</time></trkpt><trkpt lat="41.82647143781516" lon="13.324590365129794"><ele>1689.6666666666665</ele><time>2026-04-10T14:41:46Z</time></trkpt><trkpt lat="41.82632260124869" lon="13.32466926430491"><ele>1682.0</ele><time>2026-04-10T14:41:47Z</time></trkpt><trkpt lat="41.82619017737616" lon="13.32471729620401"><ele>1685.75</ele><time>2026-04-10T14:41:48Z</time></trkpt><trkpt lat="41.82608791485111" lon="13.324806758633079"><ele>1689.5</ele><time>2026-04-10T14:41:49Z</time></trkpt><trkpt lat="41.825981485866066" lon="13.324906360621341"><ele>1693.25</ele><time>2026-04-10T14:41:50Z</time></trkpt><trkpt lat="41.82589177446767" lon="13.325024816012542"><ele>1697.0</ele><time>2026-04-10T14:41:51Z</time></trkpt><trkpt lat="41.82581334249204" lon="13.325160250303036"><ele>1697.0</ele><time>2026-04-10T14:41:52Z</time></trkpt><trkpt lat="41.82577052226278" lon="13.325342885541387"><ele>1697.0</ele><time>2026-04-10T14:41:53Z</time></trkpt><trkpt lat="41.82575379832734" lon="13.32554606872146"><ele>1697.0</ele><time>2026-04-10T14:41:54Z</time></trkpt><trkpt lat="41.82575605686855" lon="13.325758728269507"><ele>1702.0</ele><time>2026-04-10T14:41:55Z</time></trkpt><trkpt lat="41.82575951455109" lon="13.325966972573916"><ele>1707.0</ele><time>2026-04-10T14:41:56Z</time></trkpt><trkpt lat="41.82576403692899" lon="13.326164787080597"><ele>1712.0</ele><time>2026-04-10T14:41:57Z</time></trkpt><trkpt lat="41.825800931670685" lon="13.326357075141459"><ele>1712.6666666666665</ele><time>2026-04-10T14:41:58Z</time></trkpt><trkpt lat="41.82586780737152" lon="13.326559168188222"><ele>1713.3333333333335</ele><time>2026-04-10T14:41:59Z</time></trkpt><trkpt lat="41.82594048318118" lon="13.326755884204449"><ele>1714.0</ele><time>2026-04-10T14:42:00Z</time></trkpt><trkpt lat="41.826015347169715" lon="13.32694532240525"><ele>1722.3333333333335</ele><time>2026-04-10T14:42:01Z</time></trkpt><trkpt lat="41.82610021632106" lon="13.327125261266072"><ele>1730.6666666666665</ele><time>2026-04-10T14:42:02Z</time></trkpt><trkpt lat="41.82613955150227" lon="13.327299880186052"><ele>1739.0</ele><time>2026-04-10T14:42:03Z</time></trkpt><trkpt lat="41.826264521353835" lon="13.327462035088919"><ele>1739.0</ele><time>2026-04-10T14:42:04Z</time></trkpt><trkpt lat="41.82640542822853" lon="13.327633208685869"><ele>1739.0</ele><time>2026-04-10T14:42:05Z</time></trkpt><trkpt lat="41.826542248216086" lon="13.327821803043102"><ele>1739.0</ele><time>2026-04-10T14:42:06Z</time></trkpt><trkpt lat="41.826682501932005" lon="13.327979862405618"><ele>1745.0</ele><time>2026-04-10T14:42:07Z</time></trkpt><trkpt lat="41.82681682346077" lon="13.328123177071284"><ele>1751.0</ele><time>2026-04-10T14:42:08Z</time></trkpt><trkpt lat="41.82695033415046" lon="13.328271285562804"><ele>1757.0</ele><time>2026-04-10T14:42:09Z</time></trkpt><trkpt lat="41.827065517268814" lon="13.328434009085361"><ele>1757.0</ele><time>2026-04-10T14:42:10Z</time></trkpt><trkpt lat="41.82717024140694" lon="13.32862229112127"><ele>1757.0</ele><time>2026-04-10T14:42:11Z</time></trkpt><trkpt lat="41.82725780681258" lon="13.328814115438796"><ele>1757.0</ele><time>2026-04-10T14:42:12Z</time></trkpt><trkpt lat="41.82732541337627" lon="13.329027955239411"><ele>1750.0</ele><time>2026-04-10T14:42:13Z</time></trkpt><trkpt lat="41.82738637023632" lon="13.329232114705354"><ele>1743.0</ele><time>2026-04-10T14:42:14Z</time></trkpt><trkpt lat="41.82749605782154" lon="13.329425416267945"><ele>1736.0</ele><time>2026-04-10T14:42:15Z</time></trkpt><trkpt lat="41.82760665014554" lon="13.329617593829186"><ele>1743.0</ele><time>2026-04-10T14:42:16Z</time></trkpt><trkpt lat="41.82770615525827" lon="13.32980023735238"><ele>1750.0</ele><time>2026-04-10T14:42:17Z</time></trkpt><trkpt lat="41.827807257595346" lon="13.329982691723993"><ele>1757.0</ele><time>2026-04-10T14:42:18Z</time></trkpt><trkpt lat="41.82789678389907" lon="13.330153924149826"><ele>1757.0</ele><time>2026-04-10T14:42:19Z</time></trkpt><trkpt lat="41.827976245852106" lon="13.330311874404783"><ele>1757.0</ele><time>2026-04-10T14:42:20Z</time></trkpt><trkpt lat="41.8280546695172" lon="13.330457707539281"><ele>1757.0</ele><time>2026-04-10T14:42:21Z</time></trkpt><trkpt lat="41.8281465991281" lon="13.330581204151962"><ele>1757.0</ele><time>2026-04-10T14:42:22Z</time></trkpt><trkpt lat="41.828256670627745" lon="13.330674876649892"><ele>1757.25</ele><time>2026-04-10T14:42:23Z</time></trkpt><trkpt lat="41.82839209363365" lon="13.330733024832066"><ele>1757.5</ele><time>2026-04-10T14:42:24Z</time></trkpt><trkpt lat="41.82852574617601" lon="13.330820602602614"><ele>1757.75</ele><time>2026-04-10T14:42:25Z</time></trkpt><trkpt lat="41.828661009646446" lon="13.330916971648625"><ele>1758.0</ele><time>2026-04-10T14:42:26Z</time></trkpt><trkpt lat="41.82877550080664" lon="13.330996945154899"><ele>1758.0</ele><time>2026-04-10T14:42:27Z</time></trkpt><trkpt lat="41.82888755603864" lon="13.331042527380353"><ele>1758.0</ele><time>2026-04-10T14:42:28Z</time></trkpt><trkpt lat="41.82900075741687" lon="13.331043476674175"><ele>1758.0</ele><time>2026-04-10T14:42:29Z</time></trkpt><trkpt lat="41.82913687414962" lon="13.331065468131884"><ele>1758.0</ele><time>2026-04-10T14:42:30Z</time></trkpt><trkpt lat="41.829265781062304" lon="13.33111920991545"><ele>1756.75</ele><time>2026-04-10T14:42:31Z</time></trkpt><trkpt lat="41.8293845713819" lon="13.33117827842458"><ele>1755.5</ele><time>2026-04-10T14:42:32Z</time></trkpt><trkpt lat="41.82951098937741" lon="13.33125089874037"><ele>1754.25</ele><time>2026-04-10T14:42:33Z</time></trkpt><trkpt lat="41.82962964907825" lon="13.331340431965378"><ele>1753.0</ele><time>2026-04-10T14:42:34Z</time></trkpt><trkpt lat="41.82974207393477" lon="13.331445608796809"><ele>1753.0</ele><time>2026-04-10T14:42:35Z</time></trkpt><trkpt lat="41.82985551747711" lon="13.331544499135548"><ele>1753.0</ele><time>2026-04-10T14:42:36Z</time></trkpt><trkpt lat="41.82996914929185" lon="13.331658381816855"><ele>1753.0</ele><time>2026-04-10T14:42:37Z</time></trkpt><trkpt lat="41.83008579622445" lon="13.33176827276203"><ele>1753.0</ele><time>2026-04-10T14:42:38Z</time></trkpt><trkpt lat="41.83021409332307" lon="13.33188494186649"><ele>1758.3333333333335</ele><time>2026-04-10T14:42:39Z</time></trkpt><trkpt lat="41.8303326972397" lon="13.332008963963107"><ele>1763.6666666666665</ele><time>2026-04-10T14:42:40Z</time></trkpt><trkpt lat="41.83043673438212" lon="13.332149750421134"><ele>1769.0</ele><time>2026-04-10T14:42:41Z</time></trkpt><trkpt lat="41.83053561885113" lon="13.332307501945198"><ele>1769.0</ele><time>2026-04-10T14:42:42Z</time></trkpt><trkpt lat="41.83062110353165" lon="13.332468893476536"><ele>1769.0</ele><time>2026-04-10T14:42:43Z</time></trkpt><trkpt lat="41.83064863259905" lon="13.332656773320442"><ele>1769.0</ele><time>2026-04-10T14:42:44Z</time></trkpt><trkpt lat="41.83067491268558" lon="13.332829364967425"><ele>1769.0</ele><time>2026-04-10T14:42:45Z</time></trkpt><trkpt lat="41.83070069745953" lon="13.33301844673357"><ele>1767.25</ele><time>2026-04-10T14:42:46Z</time></trkpt><trkpt lat="41.830727723201306" lon="13.33320325727608"><ele>1765.5</ele><time>2026-04-10T14:42:47Z</time></trkpt><trkpt lat="41.83076156136363" lon="13.333396120960797"><ele>1763.75</ele><time>2026-04-10T14:42:48Z</time></trkpt><trkpt lat="41.83082107590212" lon="13.33357907034543"><ele>1762.0</ele><time>2026-04-10T14:42:49Z</time></trkpt><trkpt lat="41.83088995907238" lon="13.333745465479643"><ele>1763.25</ele><time>2026-04-10T14:42:50Z</time></trkpt><trkpt lat="41.83097871445225" lon="13.333875403367225"><ele>1764.5</ele><time>2026-04-10T14:42:51Z</time></trkpt><trkpt lat="41.8310802074566" lon="13.333970925348222"><ele>1765.75</ele><time>2026-04-10T14:42:52Z</time></trkpt><trkpt lat="41.831173554433256" lon="13.334077524807366"><ele>1767.0</ele><time>2026-04-10T14:42:53Z</time></trkpt><trkpt lat="41.83124387145697" lon="13.334210812141327"><ele>1768.5</ele><time>2026-04-10T14:42:54Z</time></trkpt><trkpt lat="41.831263895340236" lon="13.334378565071578"><ele>1770.0</ele><time>2026-04-10T14:42:55Z</time></trkpt><trkpt lat="41.831286273656026" lon="13.334561612846565"><ele>1771.5</ele><time>2026-04-10T14:42:56Z</time></trkpt><trkpt lat="41.831308001936655" lon="13.33476396566687"><ele>1773.0</ele><time>2026-04-10T14:42:57Z</time></trkpt><trkpt lat="41.83134599776739" lon="13.334961645908454"><ele>1774.3333333333335</ele><time>2026-04-10T14:42:58Z</time></trkpt><trkpt lat="41.831393894145165" lon="13.335149093419222"><ele>1775.6666666666667</ele><time>2026-04-10T14:42:59Z</time></trkpt><trkpt lat="41.83145890845202" lon="13.335340768344937"><ele>1777.0</ele><time>2026-04-10T14:43:00Z</time></trkpt><trkpt lat="41.83154626418573" lon="13.335516940659819"><ele>1775.3333333333335</ele><time>2026-04-10T14:43:01Z</time></trkpt><trkpt lat="41.83163957847935" lon="13.33569158245074"><ele>1773.6666666666665</ele><time>2026-04-10T14:43:02Z</time></trkpt><trkpt lat="41.8317279453815" lon="13.335855893829134"><ele>1772.0</ele><time>2026-04-10T14:43:03Z</time></trkpt><trkpt lat="41.8318269566126" lon="13.33601655297953"><ele>1774.0</ele><time>2026-04-10T14:43:04Z</time></trkpt><trkpt lat="41.83191884110242" lon="13.336171616360616"><ele>1776.0</ele><time>2026-04-10T14:43:05Z</time></trkpt><trkpt lat="41.832025973528204" lon="13.336314183313366"><ele>1778.0</ele><time>2026-04-10T14:43:06Z</time></trkpt><trkpt lat="41.83213479261611" lon="13.336428758007806"><ele>1780.0</ele><time>2026-04-10T14:43:07Z</time></trkpt><trkpt lat="41.832254915292296" lon="13.33653278579007"><ele>1780.0</ele><time>2026-04-10T14:43:08Z</time></trkpt><trkpt lat="41.832374703720454" lon="13.336619004546364"><ele>1780.0</ele><time>2026-04-10T14:43:09Z</time></trkpt><trkpt lat="41.83249052226259" lon="13.336701670439018"><ele>1780.0</ele><time>2026-04-10T14:43:10Z</time></trkpt><trkpt lat="41.832602418377846" lon="13.336773302325708"><ele>1780.0</ele><time>2026-04-10T14:43:11Z</time></trkpt><trkpt lat="41.832708880166855" lon="13.336821961787244"><ele>1782.0</ele><time>2026-04-10T14:43:12Z</time></trkpt><trkpt lat="41.83281126353764" lon="13.336861042593144"><ele>1784.0</ele><time>2026-04-10T14:43:13Z</time></trkpt><trkpt lat="41.83290511289516" lon="13.336871931560767"><ele>1786.0</ele><time>2026-04-10T14:43:14Z</time></trkpt><trkpt lat="41.832993534953715" lon="13.336865049399155"><ele>1788.0</ele><time>2026-04-10T14:43:15Z</time></trkpt><trkpt lat="41.83307928182001" lon="13.336857673685069"><ele>1790.0</ele><time>2026-04-10T14:43:16Z</time></trkpt><trkpt lat="41.83317394405819" lon="13.33678748378384"><ele>1790.0</ele><time>2026-04-10T14:43:18Z</time></trkpt><trkpt lat="41.83329599506321" lon="13.336818192649913"><ele>1790.0</ele><time>2026-04-10T14:43:20Z</time></trkpt><trkpt lat="41.833382310404204" lon="13.336792239839038"><ele>1790.0</ele><time>2026-04-10T14:43:23Z</time></trkpt><trkpt lat="41.83347269005875" lon="13.336780025126073"><ele>1790.0</ele><time>2026-04-10T14:43:25Z</time></trkpt><trkpt lat="41.83358376034291" lon="13.336736141351285"><ele>1790.0</ele><time>2026-04-10T14:43:27Z</time></trkpt><trkpt lat="41.83366231177008" lon="13.336750104301228"><ele>1790.9999999999998</ele><time>2026-04-10T14:43:28Z</time></trkpt><trkpt lat="41.83373506691347" lon="13.336779845754933"><ele>1792.0</ele><time>2026-04-10T14:43:29Z</time></trkpt><trkpt lat="41.83380373044608" lon="13.336826823801434"><ele>1793.0</ele><time>2026-04-10T14:43:31Z</time></trkpt><trkpt lat="41.83388006432993" lon="13.336871570210292"><ele>1794.0</ele><time>2026-04-10T14:43:33Z</time></trkpt><trkpt lat="41.833976900911544" lon="13.336911183353939"><ele>1794.9999999999998</ele><time>2026-04-10T14:43:35Z</time></trkpt><trkpt lat="41.83408544017479" lon="13.336927741977549"><ele>1796.0</ele><time>2026-04-10T14:43:37Z</time></trkpt><trkpt lat="41.83418460835021" lon="13.336928986957544"><ele>1796.0</ele><time>2026-04-10T14:43:39Z</time></trkpt><trkpt lat="41.83430263103398" lon="13.336928957675095"><ele>1796.0</ele><time>2026-04-10T14:43:41Z</time></trkpt><trkpt lat="41.834418571760814" lon="13.33694726335272"><ele>1796.0</ele><time>2026-04-10T14:43:43Z</time></trkpt><trkpt lat="41.83450961503491" lon="13.336972539057422"><ele>1796.0</ele><time>2026-04-10T14:43:45Z</time></trkpt><trkpt lat="41.83459073007687" lon="13.337001196953748"><ele>1796.0</ele><time>2026-04-10T14:43:48Z</time></trkpt><trkpt lat="41.83466527651031" lon="13.337030879378148"><ele>1796.4</ele><time>2026-04-10T14:43:51Z</time></trkpt><trkpt lat="41.83476232876775" lon="13.337074678726475"><ele>1796.8</ele><time>2026-04-10T14:43:53Z</time></trkpt><trkpt lat="41.83487061902161" lon="13.337132463770542"><ele>1797.2000000000003</ele><time>2026-04-10T14:43:55Z</time></trkpt><trkpt lat="41.83493301339652" lon="13.337172422676662"><ele>1797.6000000000001</ele><time>2026-04-10T14:43:56Z</time></trkpt><trkpt lat="41.834990124168016" lon="13.337217861975855"><ele>1798.0</ele><time>2026-04-10T14:43:57Z</time></trkpt><trkpt lat="41.83508168717201" lon="13.337294084704839"><ele>1798.0000000000002</ele><time>2026-04-10T14:43:59Z</time></trkpt><trkpt lat="41.83511533339653" lon="13.337382136097334"><ele>1798.0</ele><time>2026-04-10T14:44:00Z</time></trkpt><trkpt lat="41.83518548244018" lon="13.337485933620467"><ele>1798.0</ele><time>2026-04-10T14:44:02Z</time></trkpt><trkpt lat="41.83528730564362" lon="13.33748947769668"><ele>1798.0</ele><time>2026-04-10T14:44:04Z</time></trkpt><trkpt lat="41.83535223810665" lon="13.337511925897946"><ele>1798.0000000000002</ele><time>2026-04-10T14:44:06Z</time></trkpt><trkpt lat="41.83539924154896" lon="13.337571536996832"><ele>1798.0</ele><time>2026-04-10T14:44:09Z</time></trkpt><trkpt lat="41.83540872214097" lon="13.337487247898215"><ele>1797.9999999999998</ele><time>2026-04-10T14:49:54Z</time></trkpt><trkpt lat="41.83542461073055" lon="13.337405218526849"><ele>1798.0</ele><time>2026-04-10T14:50:51Z</time></trkpt><trkpt lat="41.8354490810834" lon="13.337315756850932"><ele>1797.9999999999998</ele><time>2026-04-10T14:50:59Z</time></trkpt><trkpt lat="41.835472714685885" lon="13.3372325348387"><ele>1797.9999999999998</ele><time>2026-04-10T14:51:08Z</time></trkpt><trkpt lat="41.83553512711024" lon="13.33719678447277"><ele>1798.0</ele><time>2026-04-10T14:51:19Z</time></trkpt><trkpt lat="41.83558630033993" lon="13.337136952640567"><ele>1797.9999999999998</ele><time>2026-04-10T14:51:35Z</time></trkpt><trkpt lat="41.835530122833504" lon="13.33718684665075"><ele>1797.9999999999998</ele><time>2026-04-10T14:54:21Z</time></trkpt><trkpt lat="41.83547533285145" lon="13.337242457739562"><ele>1797.9999999999998</ele><time>2026-04-10T14:54:35Z</time></trkpt><trkpt lat="41.835431590541994" lon="13.337306027261869"><ele>1798.0</ele><time>2026-04-10T14:54:53Z</time></trkpt><trkpt lat="41.835415657371385" lon="13.337388047956248"><ele>1797.9999999999998</ele><time>2026-04-10T14:55:06Z</time></trkpt><trkpt lat="41.83540989537759" lon="13.337477134733676"><ele>1797.9999999999998</ele><time>2026-04-10T14:55:21Z</time></trkpt><trkpt lat="41.83533989168021" lon="13.337414138326253"><ele>1798.0</ele><time>2026-04-10T15:22:19Z</time></trkpt><trkpt lat="41.83530200068147" lon="13.337312309082572"><ele>1797.9999999999998</ele><time>2026-04-10T15:22:22Z</time></trkpt><trkpt lat="41.835238634895404" lon="13.33724227054264"><ele>1797.9999999999998</ele><time>2026-04-10T15:22:25Z</time></trkpt><trkpt lat="41.83516808212717" lon="13.337181916824111"><ele>1798.5000000000002</ele><time>2026-04-10T15:22:27.999Z</time></trkpt><trkpt lat="41.835098092675494" lon="13.337119256447773"><ele>1799.0</ele><time>2026-04-10T15:22:30.999Z</time></trkpt><trkpt lat="41.83502162131223" lon="13.337063681496195"><ele>1799.5</ele><time>2026-04-10T15:22:33.999Z</time></trkpt><trkpt lat="41.83493178171866" lon="13.337022539422307"><ele>1800.0</ele><time>2026-04-10T15:22:36.999Z</time></trkpt><trkpt lat="41.83486047726494" lon="13.337018428023057"><ele>1800.5000000000002</ele><time>2026-04-10T15:22:38.999Z</time></trkpt><trkpt lat="41.8347842656242" lon="13.337032997741897"><ele>1801.0</ele><time>2026-04-10T15:22:40.999Z</time></trkpt><trkpt lat="41.83471135494693" lon="13.337047057137687"><ele>1801.0000000000002</ele><time>2026-04-10T15:22:42.999Z</time></trkpt><trkpt lat="41.834627561844165" lon="13.33703503017405"><ele>1801.0</ele><time>2026-04-10T15:22:45.999Z</time></trkpt><trkpt lat="41.834548259664984" lon="13.337006619279864"><ele>1801.0</ele><time>2026-04-10T15:22:48.999Z</time></trkpt><trkpt lat="41.834467178904184" lon="13.336982923746545"><ele>1801.0</ele><time>2026-04-10T15:22:51.999Z</time></trkpt><trkpt lat="41.83438918684285" lon="13.336946973712795"><ele>1801.0000000000002</ele><time>2026-04-10T15:22:53.999Z</time></trkpt><trkpt lat="41.83430882857482" lon="13.336924423468217"><ele>1801.0</ele><time>2026-04-10T15:22:55.999Z</time></trkpt><trkpt lat="41.83422283869821" lon="13.336908689341245"><ele>1800.1666666666667</ele><time>2026-04-10T15:22:57.999Z</time></trkpt><trkpt lat="41.83414003383213" lon="13.33689990408061"><ele>1799.3333333333335</ele><time>2026-04-10T15:22:59.999Z</time></trkpt><trkpt lat="41.83406616801224" lon="13.336880936539638"><ele>1798.5</ele><time>2026-04-10T15:23:01.999Z</time></trkpt><trkpt lat="41.8339841904151" lon="13.33683714501794"><ele>1797.6666666666665</ele><time>2026-04-10T15:23:03.999Z</time></trkpt><trkpt lat="41.83390329366082" lon="13.336788431261597"><ele>1796.8333333333333</ele><time>2026-04-10T15:23:05.999Z</time></trkpt><trkpt lat="41.83382663928354" lon="13.33673370085806"><ele>1796.0</ele><time>2026-04-10T15:23:07.999Z</time></trkpt><trkpt lat="41.833746773899676" lon="13.336703146648794"><ele>1796.0</ele><time>2026-04-10T15:23:09.999Z</time></trkpt><trkpt lat="41.833681462873585" lon="13.33671435004181"><ele>1795.9999999999998</ele><time>2026-04-10T15:23:11.999Z</time></trkpt><trkpt lat="41.833606490437255" lon="13.336743874218158"><ele>1796.0</ele><time>2026-04-10T15:23:14.999Z</time></trkpt><trkpt lat="41.83353332179325" lon="13.336752975219243"><ele>1796.0</ele><time>2026-04-10T15:23:17.999Z</time></trkpt><trkpt lat="41.83343796458945" lon="13.33676339265524"><ele>1795.9999999999998</ele><time>2026-04-10T15:23:19.999Z</time></trkpt><trkpt lat="41.83337459031102" lon="13.336738390562905"><ele>1796.0</ele><time>2026-04-10T15:23:21.999Z</time></trkpt><trkpt lat="41.833316454596186" lon="13.33669299299205"><ele>1796.0</ele><time>2026-04-10T15:23:23.999Z</time></trkpt><trkpt lat="41.83327212337963" lon="13.3366008714488"><ele>1794.9999999999998</ele><time>2026-04-10T15:23:25.999Z</time></trkpt><trkpt lat="41.833244706160656" lon="13.336477446742908"><ele>1794.0</ele><time>2026-04-10T15:23:27.999Z</time></trkpt><trkpt lat="41.83320890214578" lon="13.33636778302694"><ele>1793.0</ele><time>2026-04-10T15:23:29.999Z</time></trkpt><trkpt lat="41.83316398560267" lon="13.336279960898109"><ele>1792.0</ele><time>2026-04-10T15:23:31.999Z</time></trkpt><trkpt lat="41.83311729865714" lon="13.336200052296945"><ele>1790.9999999999998</ele><time>2026-04-10T15:23:33.999Z</time></trkpt><trkpt lat="41.833062407505" lon="13.336119372958494"><ele>1790.0</ele><time>2026-04-10T15:23:36Z</time></trkpt><trkpt lat="41.83299838602868" lon="13.336091450666414"><ele>1788.8</ele><time>2026-04-10T15:23:38Z</time></trkpt><trkpt lat="41.83291884714766" lon="13.336095570915743"><ele>1787.6</ele><time>2026-04-10T15:23:40Z</time></trkpt><trkpt lat="41.83283638758391" lon="13.336135114837882"><ele>1786.4</ele><time>2026-04-10T15:23:42Z</time></trkpt><trkpt lat="41.832755008765105" lon="13.336202705038119"><ele>1785.2</ele><time>2026-04-10T15:23:44Z</time></trkpt><trkpt lat="41.83265740357026" lon="13.336268590399252"><ele>1784.0</ele><time>2026-04-10T15:23:46Z</time></trkpt><trkpt lat="41.83254592397555" lon="13.336329583647561"><ele>1784.0</ele><time>2026-04-10T15:23:48Z</time></trkpt><trkpt lat="41.8324210917961" lon="13.336359557966555"><ele>1784.0</ele><time>2026-04-10T15:23:50Z</time></trkpt><trkpt lat="41.83230090971968" lon="13.336356967008028"><ele>1784.0</ele><time>2026-04-10T15:23:52Z</time></trkpt><trkpt lat="41.832189398823125" lon="13.3363333090857"><ele>1784.0</ele><time>2026-04-10T15:23:54Z</time></trkpt><trkpt lat="41.832112621576556" lon="13.33627962197544"><ele>1784.0</ele><time>2026-04-10T15:23:56Z</time></trkpt><trkpt lat="41.83205555897582" lon="13.336212273831018"><ele>1784.0</ele><time>2026-04-10T15:23:58Z</time></trkpt><trkpt lat="41.83201024307166" lon="13.336147324955165"><ele>1784.0</ele><time>2026-04-10T15:24:00Z</time></trkpt><trkpt lat="41.831943926897864" lon="13.336054627666554"><ele>1784.0</ele><time>2026-04-10T15:24:03Z</time></trkpt><trkpt lat="41.83174182552584" lon="13.336280043910797"><ele>1784.0</ele><time>2026-04-10T15:24:09Z</time></trkpt><trkpt lat="41.831728848512896" lon="13.336370393764945"><ele>1783.9999999999998</ele><time>2026-04-10T15:27:16.999Z</time></trkpt><trkpt lat="41.83178637968084" lon="13.336422729281123"><ele>1784.0</ele><time>2026-04-10T15:27:18.999Z</time></trkpt><trkpt lat="41.831858481679745" lon="13.336380607385474"><ele>1784.0</ele><time>2026-04-10T15:27:20.999Z</time></trkpt><trkpt lat="41.83192139800315" lon="13.336299841238718"><ele>1784.0</ele><time>2026-04-10T15:27:23.999Z</time></trkpt><trkpt lat="41.83193692467565" lon="13.336210142673105"><ele>1783.9999999999998</ele><time>2026-04-10T15:27:25.999Z</time></trkpt><trkpt lat="41.83192200157072" lon="13.336100676108776"><ele>1784.0</ele><time>2026-04-10T15:27:27.999Z</time></trkpt><trkpt lat="41.831879524114676" lon="13.33596803429444"><ele>1784.0</ele><time>2026-04-10T15:27:29.999Z</time></trkpt><trkpt lat="41.83181524638064" lon="13.335811491278216"><ele>1784.0</ele><time>2026-04-10T15:27:31.999Z</time></trkpt><trkpt lat="41.8317727818635" lon="13.335726968434866"><ele>1784.0</ele><time>2026-04-10T15:27:32.999Z</time></trkpt><trkpt lat="41.83172637479664" lon="13.335637516104764"><ele>1784.0</ele><time>2026-04-10T15:27:33.999Z</time></trkpt><trkpt lat="41.83167744606601" lon="13.335546999468994"><ele>1784.0</ele><time>2026-04-10T15:27:34.999Z</time></trkpt><trkpt lat="41.83162627150121" lon="13.335453687369066"><ele>1782.6</ele><time>2026-04-10T15:27:35.999Z</time></trkpt><trkpt lat="41.83157539382025" lon="13.33535827934994"><ele>1781.2</ele><time>2026-04-10T15:27:36.999Z</time></trkpt><trkpt lat="41.8315256708929" lon="13.335260300120526"><ele>1779.7999999999997</ele><time>2026-04-10T15:27:37.999Z</time></trkpt><trkpt lat="41.83148053419587" lon="13.335149016412194"><ele>1778.3999999999999</ele><time>2026-04-10T15:27:38.999Z</time></trkpt><trkpt lat="41.83144333299101" lon="13.335028130290048"><ele>1777.0</ele><time>2026-04-10T15:27:39.999Z</time></trkpt><trkpt lat="41.83140857401535" lon="13.334901350714897"><ele>1777.0</ele><time>2026-04-10T15:27:40.999Z</time></trkpt><trkpt lat="41.8313800027912" lon="13.334773568787822"><ele>1776.9999999999998</ele><time>2026-04-10T15:27:41.999Z</time></trkpt><trkpt lat="41.831352136668" lon="13.334643786994196"><ele>1776.9999999999998</ele><time>2026-04-10T15:27:42.999Z</time></trkpt><trkpt lat="41.831327685178856" lon="13.334513717882695"><ele>1777.0</ele><time>2026-04-10T15:27:43.999Z</time></trkpt><trkpt lat="41.831306453475065" lon="13.334381716530466"><ele>1777.0</ele><time>2026-04-10T15:27:44.999Z</time></trkpt><trkpt lat="41.83128640075177" lon="13.334250860429576"><ele>1776.1999999999998</ele><time>2026-04-10T15:27:45.999Z</time></trkpt><trkpt lat="41.831251609021734" lon="13.334125378107228"><ele>1775.3999999999999</ele><time>2026-04-10T15:27:46.999Z</time></trkpt><trkpt lat="41.831200723422754" lon="13.334010428841239"><ele>1774.6000000000001</ele><time>2026-04-10T15:27:47.999Z</time></trkpt><trkpt lat="41.83113362296808" lon="13.333912247408739"><ele>1773.8000000000002</ele><time>2026-04-10T15:27:48.999Z</time></trkpt><trkpt lat="41.831055169273306" lon="13.333831647755286"><ele>1773.0</ele><time>2026-04-10T15:27:49.999Z</time></trkpt><trkpt lat="41.83097374363997" lon="13.333759029726338"><ele>1770.8000000000002</ele><time>2026-04-10T15:27:50.999Z</time></trkpt><trkpt lat="41.83090987513096" lon="13.333666234109629"><ele>1768.6000000000001</ele><time>2026-04-10T15:27:51.999Z</time></trkpt><trkpt lat="41.830854057550205" lon="13.333556788344062"><ele>1766.3999999999999</ele><time>2026-04-10T15:27:52.999Z</time></trkpt><trkpt lat="41.830815689308494" lon="13.333432293491724"><ele>1764.1999999999998</ele><time>2026-04-10T15:27:53.999Z</time></trkpt><trkpt lat="41.83079332313664" lon="13.333298682102951"><ele>1762.0</ele><time>2026-04-10T15:27:54.999Z</time></trkpt><trkpt lat="41.83077333856261" lon="13.333160366145655"><ele>1763.75</ele><time>2026-04-10T15:27:55.999Z</time></trkpt><trkpt lat="41.83075328450529" lon="13.33301960637243"><ele>1765.5</ele><time>2026-04-10T15:27:56.999Z</time></trkpt><trkpt lat="41.83073154423773" lon="13.33286924588566"><ele>1767.25</ele><time>2026-04-10T15:27:57.999Z</time></trkpt><trkpt lat="41.83070889616049" lon="13.332708058288732"><ele>1769.0</ele><time>2026-04-10T15:27:58.999Z</time></trkpt><trkpt lat="41.83067588545426" lon="13.332558402518115"><ele>1769.0</ele><time>2026-04-10T15:27:59.999Z</time></trkpt><trkpt lat="41.83063969241182" lon="13.332442463795175"><ele>1769.0</ele><time>2026-04-10T15:28:00.999Z</time></trkpt><trkpt lat="41.83059018147447" lon="13.3323122033994"><ele>1769.0</ele><time>2026-04-10T15:28:01.999Z</time></trkpt><trkpt lat="41.83052283017617" lon="13.332172800224633"><ele>1769.0</ele><time>2026-04-10T15:28:02.999Z</time></trkpt><trkpt lat="41.830441649511116" lon="13.332049916828662"><ele>1769.0</ele><time>2026-04-10T15:28:03.999Z</time></trkpt><trkpt lat="41.83035591982117" lon="13.331931941568811"><ele>1771.5</ele><time>2026-04-10T15:28:04.999Z</time></trkpt><trkpt lat="41.830267199130596" lon="13.33181831176724"><ele>1774.0</ele><time>2026-04-10T15:28:05.999Z</time></trkpt><trkpt lat="41.830173170106065" lon="13.331712020926544"><ele>1776.5</ele><time>2026-04-10T15:28:06.999Z</time></trkpt><trkpt lat="41.83007322617048" lon="13.331613755884957"><ele>1779.0</ele><time>2026-04-10T15:28:07.999Z</time></trkpt><trkpt lat="41.82997100504333" lon="13.33151768251472"><ele>1777.75</ele><time>2026-04-10T15:28:08.999Z</time></trkpt><trkpt lat="41.82986584552612" lon="13.331420163780587"><ele>1776.5</ele><time>2026-04-10T15:28:09.999Z</time></trkpt><trkpt lat="41.82975389953431" lon="13.331322637465432"><ele>1775.25</ele><time>2026-04-10T15:28:10.999Z</time></trkpt><trkpt lat="41.82963660322615" lon="13.331231837364586"><ele>1774.0</ele><time>2026-04-10T15:28:11.999Z</time></trkpt><trkpt lat="41.82951505409787" lon="13.331153028232409"><ele>1774.0</ele><time>2026-04-10T15:28:12.999Z</time></trkpt><trkpt lat="41.82939650176428" lon="13.331088556399733"><ele>1774.0</ele><time>2026-04-10T15:28:13.999Z</time></trkpt><trkpt lat="41.829287455697575" lon="13.331038368428896"><ele>1774.0</ele><time>2026-04-10T15:28:14.999Z</time></trkpt><trkpt lat="41.82917416783476" lon="13.330997940377888"><ele>1774.0</ele><time>2026-04-10T15:28:15.999Z</time></trkpt><trkpt lat="41.829060409714224" lon="13.330945707353067"><ele>1770.0</ele><time>2026-04-10T15:28:16.999Z</time></trkpt><trkpt lat="41.82893670088801" lon="13.33095604436102"><ele>1766.0</ele><time>2026-04-10T15:28:17.999Z</time></trkpt><trkpt lat="41.82882352358876" lon="13.330934762447717"><ele>1762.0</ele><time>2026-04-10T15:28:18.999Z</time></trkpt><trkpt lat="41.82871702418888" lon="13.330843846590156"><ele>1758.0</ele><time>2026-04-10T15:28:19.999Z</time></trkpt><trkpt lat="41.82858782769873" lon="13.330775519434333"><ele>1757.75</ele><time>2026-04-10T15:28:20.999Z</time></trkpt><trkpt lat="41.82845953038554" lon="13.330682859310281"><ele>1757.5</ele><time>2026-04-10T15:28:21.999Z</time></trkpt><trkpt lat="41.828333760267306" lon="13.33061016384751"><ele>1757.25</ele><time>2026-04-10T15:28:22.999Z</time></trkpt><trkpt lat="41.82821693201847" lon="13.330554708481916"><ele>1757.0</ele><time>2026-04-10T15:28:23.999Z</time></trkpt><trkpt lat="41.82813281262106" lon="13.330447154950118"><ele>1757.0</ele><time>2026-04-10T15:28:24.999Z</time></trkpt><trkpt lat="41.82804509818925" lon="13.330325580136417"><ele>1757.0</ele><time>2026-04-10T15:28:25.999Z</time></trkpt><trkpt lat="41.827953144035924" lon="13.330193947357026"><ele>1757.0</ele><time>2026-04-10T15:28:26.999Z</time></trkpt><trkpt lat="41.827877117431676" lon="13.330042083827387"><ele>1757.0</ele><time>2026-04-10T15:28:27.999Z</time></trkpt><trkpt lat="41.827800816009386" lon="13.329881942035959"><ele>1759.75</ele><time>2026-04-10T15:28:28.999Z</time></trkpt><trkpt lat="41.827717876830086" lon="13.329723042776893"><ele>1762.5</ele><time>2026-04-10T15:28:29.999Z</time></trkpt><trkpt lat="41.827639554805785" lon="13.329555822234306"><ele>1765.25</ele><time>2026-04-10T15:28:30.999Z</time></trkpt><trkpt lat="41.827547287938025" lon="13.32940394949749"><ele>1768.0</ele><time>2026-04-10T15:28:31.999Z</time></trkpt><trkpt lat="41.827463230332285" lon="13.329243736013185"><ele>1765.25</ele><time>2026-04-10T15:28:32.999Z</time></trkpt><trkpt lat="41.827387919305835" lon="13.329072584319574"><ele>1762.5</ele><time>2026-04-10T15:28:33.999Z</time></trkpt><trkpt lat="41.82732294219606" lon="13.328891815986596"><ele>1759.75</ele><time>2026-04-10T15:28:34.999Z</time></trkpt><trkpt lat="41.82725951795175" lon="13.328708655539954"><ele>1757.0</ele><time>2026-04-10T15:28:35.999Z</time></trkpt><trkpt lat="41.82718826219238" lon="13.328526649518107"><ele>1757.0</ele><time>2026-04-10T15:28:36.999Z</time></trkpt><trkpt lat="41.82709999400518" lon="13.32836077143536"><ele>1757.0</ele><time>2026-04-10T15:28:37.999Z</time></trkpt><trkpt lat="41.826991454369335" lon="13.328216422950774"><ele>1757.0</ele><time>2026-04-10T15:28:38.999Z</time></trkpt><trkpt lat="41.826878214924506" lon="13.328077155734622"><ele>1751.0</ele><time>2026-04-10T15:28:39.999Z</time></trkpt><trkpt lat="41.826760375704964" lon="13.327946482455177"><ele>1745.0</ele><time>2026-04-10T15:28:40.999Z</time></trkpt><trkpt lat="41.82664187029577" lon="13.327817156518725"><ele>1739.0</ele><time>2026-04-10T15:28:41.999Z</time></trkpt><trkpt lat="41.826529439044364" lon="13.32767861275412"><ele>1739.0</ele><time>2026-04-10T15:28:42.999Z</time></trkpt><trkpt lat="41.82643130188942" lon="13.32754032493429"><ele>1739.0</ele><time>2026-04-10T15:28:43.999Z</time></trkpt><trkpt lat="41.8263416071884" lon="13.327406063391038"><ele>1739.0</ele><time>2026-04-10T15:28:44.999Z</time></trkpt><trkpt lat="41.82625404985093" lon="13.32728329139034"><ele>1739.0</ele><time>2026-04-10T15:28:45.999Z</time></trkpt><trkpt lat="41.826166197760365" lon="13.327169601973461"><ele>1743.0</ele><time>2026-04-10T15:28:46.999Z</time></trkpt><trkpt lat="41.82608676352037" lon="13.32704020978905"><ele>1747.0</ele><time>2026-04-10T15:28:47.999Z</time></trkpt><trkpt lat="41.82602304024949" lon="13.326885543301428"><ele>1751.0</ele><time>2026-04-10T15:28:48.999Z</time></trkpt><trkpt lat="41.825965295237076" lon="13.326724404442553"><ele>1755.0</ele><time>2026-04-10T15:28:49.999Z</time></trkpt><trkpt lat="41.82592178755933" lon="13.326575694591611"><ele>1746.8</ele><time>2026-04-10T15:28:50.999Z</time></trkpt><trkpt lat="41.825876259356086" lon="13.326440156517414"><ele>1738.6</ele><time>2026-04-10T15:28:51.999Z</time></trkpt><trkpt lat="41.82583930350281" lon="13.326306905630117"><ele>1730.4</ele><time>2026-04-10T15:28:52.999Z</time></trkpt><trkpt lat="41.82582196647238" lon="13.326168251498446"><ele>1722.2</ele><time>2026-04-10T15:28:53.999Z</time></trkpt><trkpt lat="41.82582688970266" lon="13.326024968701317"><ele>1714.0</ele><time>2026-04-10T15:28:54.999Z</time></trkpt><trkpt lat="41.82583752049262" lon="13.325886289601709"><ele>1713.6</ele><time>2026-04-10T15:28:55.999Z</time></trkpt><trkpt lat="41.82584607374665" lon="13.325738862771562"><ele>1713.2</ele><time>2026-04-10T15:28:56.999Z</time></trkpt><trkpt lat="41.82584081470536" lon="13.32558595368471"><ele>1712.7999999999997</ele><time>2026-04-10T15:28:57.999Z</time></trkpt><trkpt lat="41.825854983902815" lon="13.325439329434316"><ele>1712.3999999999999</ele><time>2026-04-10T15:28:58.999Z</time></trkpt><trkpt lat="41.8258876213937" lon="13.32529770634854"><ele>1712.0</ele><time>2026-04-10T15:28:59.999Z</time></trkpt><trkpt lat="41.825937475607965" lon="13.325168265473392"><ele>1714.5</ele><time>2026-04-10T15:29:00.999Z</time></trkpt><trkpt lat="41.826005096890974" lon="13.325055954340659"><ele>1717.0</ele><time>2026-04-10T15:29:01.999Z</time></trkpt><trkpt lat="41.82609594592341" lon="13.324961377844664"><ele>1719.5</ele><time>2026-04-10T15:29:02.999Z</time></trkpt><trkpt lat="41.826192519482795" lon="13.324885850376914"><ele>1722.0</ele><time>2026-04-10T15:29:03.999Z</time></trkpt><trkpt lat="41.82629371405192" lon="13.324810179917275"><ele>1722.0</ele><time>2026-04-10T15:29:04.999Z</time></trkpt><trkpt lat="41.826409970100634" lon="13.324766264834206"><ele>1722.0</ele><time>2026-04-10T15:29:05.999Z</time></trkpt><trkpt lat="41.82653133836412" lon="13.324692610327162"><ele>1722.0</ele><time>2026-04-10T15:29:06.999Z</time></trkpt><trkpt lat="41.82665901339462" lon="13.324623652656125"><ele>1722.0</ele><time>2026-04-10T15:29:07.999Z</time></trkpt><trkpt lat="41.82678252375601" lon="13.324554710639282"><ele>1717.75</ele><time>2026-04-10T15:29:08.999Z</time></trkpt><trkpt lat="41.82691187587354" lon="13.324497799752885"><ele>1713.5</ele><time>2026-04-10T15:29:09.999Z</time></trkpt><trkpt lat="41.827043336091776" lon="13.324446646388866"><ele>1709.25</ele><time>2026-04-10T15:29:10.999Z</time></trkpt><trkpt lat="41.82717270296199" lon="13.324378960551977"><ele>1705.0</ele><time>2026-04-10T15:29:11.999Z</time></trkpt><trkpt lat="41.82730006610509" lon="13.324300278583635"><ele>1705.0</ele><time>2026-04-10T15:29:12.999Z</time></trkpt><trkpt lat="41.827424121127756" lon="13.324214136944718"><ele>1705.0</ele><time>2026-04-10T15:29:13.999Z</time></trkpt><trkpt lat="41.8275374527892" lon="13.324113751718048"><ele>1705.0</ele><time>2026-04-10T15:29:14.999Z</time></trkpt><trkpt lat="41.82764207871345" lon="13.324005396531648"><ele>1705.0</ele><time>2026-04-10T15:29:15.999Z</time></trkpt><trkpt lat="41.82773419610526" lon="13.32387848369402"><ele>1700.0</ele><time>2026-04-10T15:29:16.999Z</time></trkpt><trkpt lat="41.82782448630504" lon="13.32375416010497"><ele>1695.0</ele><time>2026-04-10T15:29:17.999Z</time></trkpt><trkpt lat="41.82792275089773" lon="13.323667740638141"><ele>1690.0</ele><time>2026-04-10T15:29:18.999Z</time></trkpt><trkpt lat="41.82802658705836" lon="13.323641340211914"><ele>1685.0</ele><time>2026-04-10T15:29:19.999Z</time></trkpt><trkpt lat="41.82814043333177" lon="13.323629102437259"><ele>1685.0</ele><time>2026-04-10T15:29:20.999Z</time></trkpt><trkpt lat="41.82826745639114" lon="13.32365593156581"><ele>1685.0</ele><time>2026-04-10T15:29:21.999Z</time></trkpt><trkpt lat="41.828372065059646" lon="13.323628614198133"><ele>1685.0</ele><time>2026-04-10T15:29:22.999Z</time></trkpt><trkpt lat="41.82846813044467" lon="13.323553684535122"><ele>1685.0</ele><time>2026-04-10T15:29:23.999Z</time></trkpt><trkpt lat="41.82856108839571" lon="13.323474662874563"><ele>1685.5</ele><time>2026-04-10T15:29:24.999Z</time></trkpt><trkpt lat="41.82863737214161" lon="13.32329563844456"><ele>1686.0</ele><time>2026-04-10T15:29:25.999Z</time></trkpt><trkpt lat="41.82869019111513" lon="13.323170536807757"><ele>1686.5</ele><time>2026-04-10T15:29:26.999Z</time></trkpt><trkpt lat="41.82877221513751" lon="13.323081870512548"><ele>1687.0</ele><time>2026-04-10T15:29:27.999Z</time></trkpt><trkpt lat="41.828872785591436" lon="13.323010057555038"><ele>1687.0</ele><time>2026-04-10T15:29:28.999Z</time></trkpt><trkpt lat="41.828990152755516" lon="13.322981648742076"><ele>1687.0</ele><time>2026-04-10T15:29:29.999Z</time></trkpt><trkpt lat="41.82909833542432" lon="13.322972159291746"><ele>1687.0</ele><time>2026-04-10T15:29:30.999Z</time></trkpt><trkpt lat="41.82919322893204" lon="13.322992718692204"><ele>1687.0</ele><time>2026-04-10T15:29:31.999Z</time></trkpt><trkpt lat="41.82926997105047" lon="13.323081766114507"><ele>1687.0</ele><time>2026-04-10T15:29:32.999Z</time></trkpt><trkpt lat="41.82933632645798" lon="13.32316858045698"><ele>1679.5</ele><time>2026-04-10T15:29:33.999Z</time></trkpt><trkpt lat="41.829350323350965" lon="13.323292667995467"><ele>1672.0</ele><time>2026-04-10T15:29:34.999Z</time></trkpt><trkpt lat="41.82939316180629" lon="13.323462298654107"><ele>1664.5</ele><time>2026-04-10T15:29:35.999Z</time></trkpt><trkpt lat="41.829433864646504" lon="13.323672452226855"><ele>1657.0</ele><time>2026-04-10T15:29:36.999Z</time></trkpt><trkpt lat="41.82946512137741" lon="13.323861378117865"><ele>1658.0</ele><time>2026-04-10T15:29:37.999Z</time></trkpt><trkpt lat="41.829485252774155" lon="13.32403205960452"><ele>1659.0</ele><time>2026-04-10T15:29:38.999Z</time></trkpt><trkpt lat="41.82950249100641" lon="13.324193644330093"><ele>1660.0</ele><time>2026-04-10T15:29:39.999Z</time></trkpt><trkpt lat="41.829533706835385" lon="13.32434604660026"><ele>1661.0</ele><time>2026-04-10T15:29:40.999Z</time></trkpt><trkpt lat="41.82953756186839" lon="13.324467070382426"><ele>1661.0</ele><time>2026-04-10T15:29:41.999Z</time></trkpt><trkpt lat="41.8295714625789" lon="13.324594540115521"><ele>1661.0</ele><time>2026-04-10T15:29:42.999Z</time></trkpt><trkpt lat="41.8295730171594" lon="13.32471729990329"><ele>1661.0</ele><time>2026-04-10T15:29:43.999Z</time></trkpt><trkpt lat="41.829596729518464" lon="13.324843132778412"><ele>1661.0</ele><time>2026-04-10T15:29:44.999Z</time></trkpt><trkpt lat="41.82963623493715" lon="13.324963189902713"><ele>1661.0</ele><time>2026-04-10T15:29:45.999Z</time></trkpt><trkpt lat="41.82966540577312" lon="13.325065937915323"><ele>1662.9999999999998</ele><time>2026-04-10T15:29:46.999Z</time></trkpt><trkpt lat="41.829686916336634" lon="13.325149173026249"><ele>1665.0</ele><time>2026-04-10T15:29:47.999Z</time></trkpt><trkpt lat="41.8297545382596" lon="13.325205201569743"><ele>1667.0</ele><time>2026-04-10T15:29:48.999Z</time></trkpt><trkpt lat="41.82984296352039" lon="13.325234948176236"><ele>1669.0</ele><time>2026-04-10T15:29:49.999Z</time></trkpt><trkpt lat="41.82994179525969" lon="13.325231068871831"><ele>1670.9999999999998</ele><time>2026-04-10T15:29:50.999Z</time></trkpt><trkpt lat="41.830050758424235" lon="13.325210164766995"><ele>1673.0</ele><time>2026-04-10T15:29:51.999Z</time></trkpt><trkpt lat="41.83016446129921" lon="13.325174090406577"><ele>1673.0</ele><time>2026-04-10T15:29:53Z</time></trkpt><trkpt lat="41.8302724285207" lon="13.32513885961888"><ele>1673.0</ele><time>2026-04-10T15:29:54Z</time></trkpt><trkpt lat="41.83036863226009" lon="13.325102645324531"><ele>1673.0</ele><time>2026-04-10T15:29:55Z</time></trkpt><trkpt lat="41.8304689407818" lon="13.325057006462746"><ele>1673.0</ele><time>2026-04-10T15:29:56Z</time></trkpt><trkpt lat="41.83057415892981" lon="13.32500695245552"><ele>1673.0</ele><time>2026-04-10T15:29:57Z</time></trkpt><trkpt lat="41.83068043426517" lon="13.324936789187559"><ele>1673.0</ele><time>2026-04-10T15:29:58Z</time></trkpt><trkpt lat="41.83079539482824" lon="13.324871984201542"><ele>1673.0</ele><time>2026-04-10T15:29:59Z</time></trkpt><trkpt lat="41.830915482796215" lon="13.324818127435815"><ele>1673.0</ele><time>2026-04-10T15:30:00Z</time></trkpt><trkpt lat="41.831043042414585" lon="13.324766966699167"><ele>1673.0</ele><time>2026-04-10T15:30:01Z</time></trkpt><trkpt lat="41.83117090437589" lon="13.324724405182597"><ele>1668.0</ele><time>2026-04-10T15:30:02Z</time></trkpt><trkpt lat="41.831291212136314" lon="13.324676982721119"><ele>1663.0</ele><time>2026-04-10T15:30:03Z</time></trkpt><trkpt lat="41.8314120450081" lon="13.324629629256794"><ele>1658.0</ele><time>2026-04-10T15:30:04Z</time></trkpt><trkpt lat="41.83152865614165" lon="13.324555414422935"><ele>1653.0</ele><time>2026-04-10T15:30:05Z</time></trkpt><trkpt lat="41.831646862162955" lon="13.324491036252924"><ele>1653.0</ele><time>2026-04-10T15:30:06Z</time></trkpt><trkpt lat="41.83176480490919" lon="13.324423582005256"><ele>1653.0</ele><time>2026-04-10T15:30:07Z</time></trkpt><trkpt lat="41.831875802093585" lon="13.32432799414937"><ele>1653.0</ele><time>2026-04-10T15:30:08Z</time></trkpt><trkpt lat="41.83199898522604" lon="13.324255648708156"><ele>1653.0</ele><time>2026-04-10T15:30:09Z</time></trkpt><trkpt lat="41.83212901532482" lon="13.32421167600593"><ele>1653.6000000000001</ele><time>2026-04-10T15:30:10Z</time></trkpt><trkpt lat="41.83224345205513" lon="13.324158047504085"><ele>1654.2</ele><time>2026-04-10T15:30:11Z</time></trkpt><trkpt lat="41.832348320158864" lon="13.324106685887983"><ele>1654.8</ele><time>2026-04-10T15:30:12Z</time></trkpt><trkpt lat="41.83243960940498" lon="13.324043036130353"><ele>1655.4</ele><time>2026-04-10T15:30:13Z</time></trkpt><trkpt lat="41.83254484397461" lon="13.324040618810333"><ele>1656.0</ele><time>2026-04-10T15:30:14Z</time></trkpt><trkpt lat="41.83265014948928" lon="13.32408622849146"><ele>1652.75</ele><time>2026-04-10T15:30:15Z</time></trkpt><trkpt lat="41.83273833713731" lon="13.324177128880935"><ele>1649.5</ele><time>2026-04-10T15:30:16Z</time></trkpt><trkpt lat="41.832832399269506" lon="13.324288609926349"><ele>1646.25</ele><time>2026-04-10T15:30:17Z</time></trkpt><trkpt lat="41.83293679895561" lon="13.32437975146656"><ele>1643.0</ele><time>2026-04-10T15:30:18Z</time></trkpt><trkpt lat="41.83304821667154" lon="13.324462555319165"><ele>1643.0</ele><time>2026-04-10T15:30:19Z</time></trkpt><trkpt lat="41.83317879302967" lon="13.324490266061877"><ele>1643.0</ele><time>2026-04-10T15:30:20Z</time></trkpt><trkpt lat="41.83330796475883" lon="13.3244869647081"><ele>1643.0</ele><time>2026-04-10T15:30:20.999Z</time></trkpt><trkpt lat="41.83343391452129" lon="13.324496476844608"><ele>1643.0</ele><time>2026-04-10T15:30:21.999Z</time></trkpt><trkpt lat="41.83356122838676" lon="13.324546764261381"><ele>1642.0</ele><time>2026-04-10T15:30:22.999Z</time></trkpt><trkpt lat="41.83368685321849" lon="13.324576290264165"><ele>1641.0</ele><time>2026-04-10T15:30:23.999Z</time></trkpt><trkpt lat="41.83381467559653" lon="13.32456510555547"><ele>1640.0</ele><time>2026-04-10T15:30:24.999Z</time></trkpt><trkpt lat="41.833931055820784" lon="13.324515930909847"><ele>1639.0</ele><time>2026-04-10T15:30:25.999Z</time></trkpt><trkpt lat="41.83404812195411" lon="13.324446285876428"><ele>1639.0</ele><time>2026-04-10T15:30:26.999Z</time></trkpt><trkpt lat="41.834180439822156" lon="13.324382009642218"><ele>1639.0</ele><time>2026-04-10T15:30:27.999Z</time></trkpt><trkpt lat="41.83435222528695" lon="13.32430688313883"><ele>1639.0</ele><time>2026-04-10T15:30:28.999Z</time></trkpt><trkpt lat="41.834538061836525" lon="13.324223649245377"><ele>1639.0</ele><time>2026-04-10T15:30:29.999Z</time></trkpt><trkpt lat="41.834699584206724" lon="13.324167176850882"><ele>1639.0</ele><time>2026-04-10T15:30:30.999Z</time></trkpt><trkpt lat="41.83485275688653" lon="13.324127926083904"><ele>1639.0</ele><time>2026-04-10T15:30:31.999Z</time></trkpt><trkpt lat="41.8350078205637" lon="13.324087723297001"><ele>1634.8000000000002</ele><time>2026-04-10T15:30:32.999Z</time></trkpt><trkpt lat="41.83514027011229" lon="13.32406052375768"><ele>1630.6000000000001</ele><time>2026-04-10T15:30:33.999Z</time></trkpt><trkpt lat="41.835254447783996" lon="13.324031024393358"><ele>1626.4</ele><time>2026-04-10T15:30:34.999Z</time></trkpt><trkpt lat="41.83534774005184" lon="13.32400830767505"><ele>1622.2</ele><time>2026-04-10T15:30:35.999Z</time></trkpt><trkpt lat="41.83542900739143" lon="13.323969800113803"><ele>1618.0</ele><time>2026-04-10T15:30:36.999Z</time></trkpt><trkpt lat="41.835483764780626" lon="13.323865546391014"><ele>1618.1666666666667</ele><time>2026-04-10T15:30:37.999Z</time></trkpt><trkpt lat="41.83549947912439" lon="13.32376479066694"><ele>1618.3333333333335</ele><time>2026-04-10T15:30:38.999Z</time></trkpt><trkpt lat="41.83550070432455" lon="13.32365734574828"><ele>1618.5</ele><time>2026-04-10T15:30:39.999Z</time></trkpt><trkpt lat="41.835441055206" lon="13.323559679770568"><ele>1618.6666666666665</ele><time>2026-04-10T15:30:40.999Z</time></trkpt><trkpt lat="41.83534374272535" lon="13.32350061495943"><ele>1618.8333333333333</ele><time>2026-04-10T15:30:41.999Z</time></trkpt><trkpt lat="41.835275224423775" lon="13.323428455521471"><ele>1619.0</ele><time>2026-04-10T15:30:42.999Z</time></trkpt><trkpt lat="41.835070709635026" lon="13.32356245226127"><ele>1619.0</ele><time>2026-04-10T15:30:43.999Z</time></trkpt><trkpt lat="41.834959760443596" lon="13.323617452894874"><ele>1619.0</ele><time>2026-04-10T15:30:44.999Z</time></trkpt><trkpt lat="41.834823850275036" lon="13.323667829512534"><ele>1619.0</ele><time>2026-04-10T15:30:45.999Z</time></trkpt><trkpt lat="41.83468992653641" lon="13.323665095490906"><ele>1619.0</ele><time>2026-04-10T15:30:46.999Z</time></trkpt><trkpt lat="41.83454450332781" lon="13.323687548196759"><ele>1619.0</ele><time>2026-04-10T15:30:47.999Z</time></trkpt><trkpt lat="41.83439263182839" lon="13.323716673970047"><ele>1619.0</ele><time>2026-04-10T15:30:48.999Z</time></trkpt><trkpt lat="41.83421704439864" lon="13.323767114774252"><ele>1619.0</ele><time>2026-04-10T15:30:49.999Z</time></trkpt><trkpt lat="41.834017160487484" lon="13.32381010506324"><ele>1616.75</ele><time>2026-04-10T15:30:50.999Z</time></trkpt><trkpt lat="41.83384788639713" lon="13.323850592241648"><ele>1614.5</ele><time>2026-04-10T15:30:51.999Z</time></trkpt><trkpt lat="41.83373286945333" lon="13.323874234584002"><ele>1612.25</ele><time>2026-04-10T15:30:52.999Z</time></trkpt><trkpt lat="41.83359117834545" lon="13.32387745563974"><ele>1610.0</ele><time>2026-04-10T15:30:53.999Z</time></trkpt><trkpt lat="41.83348677974623" lon="13.32377699600676"><ele>1610.5</ele><time>2026-04-10T15:30:54.999Z</time></trkpt><trkpt lat="41.8333543109568" lon="13.323713453930806"><ele>1611.0</ele><time>2026-04-10T15:30:55.999Z</time></trkpt><trkpt lat="41.83322678850762" lon="13.323668566385464"><ele>1611.5</ele><time>2026-04-10T15:30:56.999Z</time></trkpt><trkpt lat="41.83311016125324" lon="13.323593375583807"><ele>1612.0</ele><time>2026-04-10T15:30:57.999Z</time></trkpt><trkpt lat="41.83301165909092" lon="13.323425950609824"><ele>1612.0</ele><time>2026-04-10T15:30:58.999Z</time></trkpt><trkpt lat="41.83294391622531" lon="13.323244355545663"><ele>1612.0</ele><time>2026-04-10T15:30:59.999Z</time></trkpt><trkpt lat="41.832836013647835" lon="13.323092413426917"><ele>1612.0</ele><time>2026-04-10T15:31:00.999Z</time></trkpt><trkpt lat="41.83274229908664" lon="13.322960719881127"><ele>1612.0</ele><time>2026-04-10T15:31:01.999Z</time></trkpt><trkpt lat="41.83268284384387" lon="13.322872328558605"><ele>1608.8</ele><time>2026-04-10T15:31:02.999Z</time></trkpt><trkpt lat="41.83260861513631" lon="13.322774472334913"><ele>1605.6</ele><time>2026-04-10T15:31:03.999Z</time></trkpt><trkpt lat="41.83254228096002" lon="13.322746724410973"><ele>1602.3999999999999</ele><time>2026-04-10T15:31:04.999Z</time></trkpt><trkpt lat="41.83243776272914" lon="13.322791299603175"><ele>1599.1999999999998</ele><time>2026-04-10T15:31:05.999Z</time></trkpt><trkpt lat="41.8323309420339" lon="13.322872329956931"><ele>1596.0</ele><time>2026-04-10T15:31:06.999Z</time></trkpt><trkpt lat="41.83219358323296" lon="13.322962431067214"><ele>1596.0</ele><time>2026-04-10T15:31:07.999Z</time></trkpt><trkpt lat="41.832061920912565" lon="13.323030367159447"><ele>1596.0</ele><time>2026-04-10T15:31:08.999Z</time></trkpt><trkpt lat="41.83193087674346" lon="13.323083221530426"><ele>1596.0</ele><time>2026-04-10T15:31:09.999Z</time></trkpt><trkpt lat="41.83179383198324" lon="13.323140775360619"><ele>1596.0</ele><time>2026-04-10T15:31:10.999Z</time></trkpt><trkpt lat="41.83165957458248" lon="13.323182375783317"><ele>1600.0</ele><time>2026-04-10T15:31:11.999Z</time></trkpt><trkpt lat="41.83153453729444" lon="13.323223541864593"><ele>1604.0</ele><time>2026-04-10T15:31:12.999Z</time></trkpt><trkpt lat="41.831403966634596" lon="13.323247929187303"><ele>1608.0</ele><time>2026-04-10T15:31:13.999Z</time></trkpt><trkpt lat="41.83127761468993" lon="13.32324849629271"><ele>1612.0</ele><time>2026-04-10T15:31:14.999Z</time></trkpt><trkpt lat="41.83116220243975" lon="13.323251056302542"><ele>1612.0</ele><time>2026-04-10T15:31:15.999Z</time></trkpt><trkpt lat="41.831063110923566" lon="13.32318402221863"><ele>1612.0</ele><time>2026-04-10T15:31:16.999Z</time></trkpt><trkpt lat="41.83098487000915" lon="13.323122918397715"><ele>1612.0</ele><time>2026-04-10T15:31:17.999Z</time></trkpt><trkpt lat="41.83092048033678" lon="13.323011464178434"><ele>1612.0</ele><time>2026-04-10T15:31:18.999Z</time></trkpt><trkpt lat="41.8308917060057" lon="13.322869668307664"><ele>1612.0</ele><time>2026-04-10T15:31:19.999Z</time></trkpt><trkpt lat="41.83088835198499" lon="13.322719336198709"><ele>1610.3333333333335</ele><time>2026-04-10T15:31:20.999Z</time></trkpt><trkpt lat="41.830917036982086" lon="13.322553972609143"><ele>1608.6666666666665</ele><time>2026-04-10T15:31:21.999Z</time></trkpt><trkpt lat="41.83095166196384" lon="13.322342305145835"><ele>1607.0</ele><time>2026-04-10T15:31:22.999Z</time></trkpt><trkpt lat="41.83098622486381" lon="13.32212012285036"><ele>1593.0</ele><time>2026-04-10T15:31:23.999Z</time></trkpt><trkpt lat="41.831002274413315" lon="13.321912697566399"><ele>1579.0</ele><time>2026-04-10T15:31:24.999Z</time></trkpt><trkpt lat="41.83103792419463" lon="13.321704809565123"><ele>1565.0</ele><time>2026-04-10T15:31:25.999Z</time></trkpt><trkpt lat="41.83107412877742" lon="13.321510496380387"><ele>1563.25</ele><time>2026-04-10T15:31:26.999Z</time></trkpt><trkpt lat="41.831070613928325" lon="13.321326065402888"><ele>1561.5</ele><time>2026-04-10T15:31:27.999Z</time></trkpt><trkpt lat="41.831061541557254" lon="13.321137662389884"><ele>1559.75</ele><time>2026-04-10T15:31:28.999Z</time></trkpt><trkpt lat="41.8310535500903" lon="13.320963456150793"><ele>1558.0</ele><time>2026-04-10T15:31:29.999Z</time></trkpt><trkpt lat="41.831049438898084" lon="13.320808540688715"><ele>1558.0</ele><time>2026-04-10T15:31:30.999Z</time></trkpt><trkpt lat="41.83104155094308" lon="13.320692698742953"><ele>1558.0</ele><time>2026-04-10T15:31:31.999Z</time></trkpt><trkpt lat="41.83100679334173" lon="13.320599472288961"><ele>1558.0</ele><time>2026-04-10T15:31:32.999Z</time></trkpt><trkpt lat="41.83090218033097" lon="13.320518928003148"><ele>1558.0</ele><time>2026-04-10T15:31:33.999Z</time></trkpt><trkpt lat="41.830784033565244" lon="13.320467828493218"><ele>1558.0</ele><time>2026-04-10T15:31:34.999Z</time></trkpt><trkpt lat="41.8306594781418" lon="13.320409692162979"><ele>1557.5</ele><time>2026-04-10T15:31:35.999Z</time></trkpt><trkpt lat="41.830529738446685" lon="13.320337670492703"><ele>1557.0</ele><time>2026-04-10T15:31:36.999Z</time></trkpt><trkpt lat="41.83040518385941" lon="13.320269022196978"><ele>1556.5</ele><time>2026-04-10T15:31:37.999Z</time></trkpt><trkpt lat="41.830279703841406" lon="13.320206896931893"><ele>1556.0</ele><time>2026-04-10T15:31:38.999Z</time></trkpt><trkpt lat="41.83013582178624" lon="13.32015203955923"><ele>1561.6666666666665</ele><time>2026-04-10T15:31:39.999Z</time></trkpt><trkpt lat="41.82998442066603" lon="13.320107128562633"><ele>1567.3333333333335</ele><time>2026-04-10T15:31:40.999Z</time></trkpt><trkpt lat="41.829821359921276" lon="13.320077661316631"><ele>1573.0</ele><time>2026-04-10T15:31:41.999Z</time></trkpt><trkpt lat="41.829650729420784" lon="13.320054177720849"><ele>1573.0</ele><time>2026-04-10T15:31:42.999Z</time></trkpt><trkpt lat="41.82947812019404" lon="13.320012025238452"><ele>1573.0</ele><time>2026-04-10T15:31:43.999Z</time></trkpt><trkpt lat="41.82930277234235" lon="13.31996832557823"><ele>1573.0</ele><time>2026-04-10T15:31:44.999Z</time></trkpt><trkpt lat="41.82913737161854" lon="13.319932726125678"><ele>1572.0</ele><time>2026-04-10T15:31:45.999Z</time></trkpt><trkpt lat="41.82896881543161" lon="13.319922155662136"><ele>1571.0</ele><time>2026-04-10T15:31:46.999Z</time></trkpt><trkpt lat="41.828805012442" lon="13.31994745382597"><ele>1570.0</ele><time>2026-04-10T15:31:47.999Z</time></trkpt><trkpt lat="41.82863752950239" lon="13.320016788059176"><ele>1563.6666666666667</ele><time>2026-04-10T15:31:48.999Z</time></trkpt><trkpt lat="41.828473173381525" lon="13.320115830065289"><ele>1557.3333333333335</ele><time>2026-04-10T15:31:49.999Z</time></trkpt><trkpt lat="41.82830672935324" lon="13.320236040006545"><ele>1551.0</ele><time>2026-04-10T15:31:50.999Z</time></trkpt><trkpt lat="41.828129867494425" lon="13.320350175642147"><ele>1551.0</ele><time>2026-04-10T15:31:51.999Z</time></trkpt><trkpt lat="41.8279592923651" lon="13.32049099414399"><ele>1551.0</ele><time>2026-04-10T15:31:52.999Z</time></trkpt><trkpt lat="41.82778338721015" lon="13.320639025709122"><ele>1551.0</ele><time>2026-04-10T15:31:53.999Z</time></trkpt><trkpt lat="41.827603019905176" lon="13.320779652238654"><ele>1552.0</ele><time>2026-04-10T15:31:54.999Z</time></trkpt><trkpt lat="41.82742056190516" lon="13.320911998633074"><ele>1553.0</ele><time>2026-04-10T15:31:55.999Z</time></trkpt><trkpt lat="41.827239086696665" lon="13.321029168069913"><ele>1554.0</ele><time>2026-04-10T15:31:56.999Z</time></trkpt><trkpt lat="41.827056680925836" lon="13.321117631103784"><ele>1554.0</ele><time>2026-04-10T15:31:57.999Z</time></trkpt><trkpt lat="41.82688999704905" lon="13.321210326634146"><ele>1554.0</ele><time>2026-04-10T15:31:59Z</time></trkpt><trkpt lat="41.826709303629926" lon="13.321294187225547"><ele>1554.0</ele><time>2026-04-10T15:32:00Z</time></trkpt><trkpt lat="41.826527695439424" lon="13.321417120306696"><ele>1556.0</ele><time>2026-04-10T15:32:01Z</time></trkpt><trkpt lat="41.826338663749745" lon="13.32151506953935"><ele>1558.0</ele><time>2026-04-10T15:32:02Z</time></trkpt><trkpt lat="41.8261328482535" lon="13.321573163698082"><ele>1560.0</ele><time>2026-04-10T15:32:03Z</time></trkpt><trkpt lat="41.82592230469796" lon="13.321600953426643"><ele>1554.0</ele><time>2026-04-10T15:32:04Z</time></trkpt><trkpt lat="41.825718818993344" lon="13.321663145788044"><ele>1548.0</ele><time>2026-04-10T15:32:05Z</time></trkpt><trkpt lat="41.825510449245456" lon="13.321775085214998"><ele>1542.0</ele><time>2026-04-10T15:32:06Z</time></trkpt><trkpt lat="41.82531206094057" lon="13.32187375294022"><ele>1534.3333333333333</ele><time>2026-04-10T15:32:07Z</time></trkpt><trkpt lat="41.825122224235734" lon="13.321949962706922"><ele>1526.6666666666665</ele><time>2026-04-10T15:32:08Z</time></trkpt><trkpt lat="41.82494364951592" lon="13.322012401020652"><ele>1519.0</ele><time>2026-04-10T15:32:09Z</time></trkpt><trkpt lat="41.824770397484926" lon="13.322057917440285"><ele>1519.0</ele><time>2026-04-10T15:32:10Z</time></trkpt><trkpt lat="41.82458740029887" lon="13.322117832474817"><ele>1519.0</ele><time>2026-04-10T15:32:11Z</time></trkpt><trkpt lat="41.82440497325701" lon="13.322200792826903"><ele>1519.0</ele><time>2026-04-10T15:32:12Z</time></trkpt><trkpt lat="41.82422598389737" lon="13.322329823929508"><ele>1522.0</ele><time>2026-04-10T15:32:13Z</time></trkpt><trkpt lat="41.82405064302177" lon="13.322462937059118"><ele>1525.0</ele><time>2026-04-10T15:32:14Z</time></trkpt><trkpt lat="41.82389110573047" lon="13.322580925259258"><ele>1528.0</ele><time>2026-04-10T15:32:15Z</time></trkpt><trkpt lat="41.82374664909913" lon="13.322714231086007"><ele>1528.0</ele><time>2026-04-10T15:32:16Z</time></trkpt><trkpt lat="41.82361197029511" lon="13.322841237490904"><ele>1528.0</ele><time>2026-04-10T15:32:17Z</time></trkpt><trkpt lat="41.82349378805722" lon="13.322976655428638"><ele>1528.0</ele><time>2026-04-10T15:32:18Z</time></trkpt><trkpt lat="41.82340165959631" lon="13.323161024436468"><ele>1524.75</ele><time>2026-04-10T15:32:19Z</time></trkpt><trkpt lat="41.823347565171794" lon="13.323360319624763"><ele>1521.5</ele><time>2026-04-10T15:32:20Z</time></trkpt><trkpt lat="41.82329808715965" lon="13.323532966275442"><ele>1518.25</ele><time>2026-04-10T15:32:21Z</time></trkpt><trkpt lat="41.82328072943833" lon="13.323730191965867"><ele>1515.0</ele><time>2026-04-10T15:32:22Z</time></trkpt><trkpt lat="41.82329752882101" lon="13.323945904640194"><ele>1515.0</ele><time>2026-04-10T15:32:23Z</time></trkpt><trkpt lat="41.82333328567371" lon="13.324168920908546"><ele>1515.0</ele><time>2026-04-10T15:32:24Z</time></trkpt><trkpt lat="41.823320421515476" lon="13.324401946785091"><ele>1515.0</ele><time>2026-04-10T15:32:25Z</time></trkpt><trkpt lat="41.8233069839746" lon="13.324612993271893"><ele>1517.0</ele><time>2026-04-10T15:32:26Z</time></trkpt><trkpt lat="41.82330205385621" lon="13.324820086119853"><ele>1519.0</ele><time>2026-04-10T15:32:27Z</time></trkpt><trkpt lat="41.82327414394313" lon="13.325016746466158"><ele>1521.0</ele><time>2026-04-10T15:32:28Z</time></trkpt><trkpt lat="41.82322548328731" lon="13.325199219612344"><ele>1523.0</ele><time>2026-04-10T15:32:29Z</time></trkpt><trkpt lat="41.8231057273509" lon="13.325337250229328"><ele>1523.0</ele><time>2026-04-10T15:32:30Z</time></trkpt><trkpt lat="41.82298890229154" lon="13.325467998731044"><ele>1523.0</ele><time>2026-04-10T15:32:31Z</time></trkpt><trkpt lat="41.8228577052915" lon="13.325630045423678"><ele>1523.0</ele><time>2026-04-10T15:32:32Z</time></trkpt><trkpt lat="41.822731731723714" lon="13.325762900591258"><ele>1518.0</ele><time>2026-04-10T15:32:33Z</time></trkpt><trkpt lat="41.8226006954518" lon="13.32588238987164"><ele>1513.0</ele><time>2026-04-10T15:32:34Z</time></trkpt><trkpt lat="41.822497000307344" lon="13.326001091967763"><ele>1508.0</ele><time>2026-04-10T15:32:35Z</time></trkpt><trkpt lat="41.82237948524621" lon="13.326110610795737"><ele>1503.0</ele><time>2026-04-10T15:32:36Z</time></trkpt><trkpt lat="41.822298267203585" lon="13.326228660747576"><ele>1503.0</ele><time>2026-04-10T15:32:37Z</time></trkpt><trkpt lat="41.82221456955212" lon="13.326369319651999"><ele>1503.0</ele><time>2026-04-10T15:32:38Z</time></trkpt><trkpt lat="41.82217174041135" lon="13.326563217528314"><ele>1503.0</ele><time>2026-04-10T15:32:39Z</time></trkpt><trkpt lat="41.82215822070636" lon="13.326755214501365"><ele>1503.0</ele><time>2026-04-10T15:32:40Z</time></trkpt><trkpt lat="41.82219416398013" lon="13.326974330035226"><ele>1505.3333333333333</ele><time>2026-04-10T15:32:41Z</time></trkpt><trkpt lat="41.82224294574505" lon="13.327183187378342"><ele>1507.6666666666665</ele><time>2026-04-10T15:32:42Z</time></trkpt><trkpt lat="41.8222347931264" lon="13.327402161943498"><ele>1510.0</ele><time>2026-04-10T15:32:43Z</time></trkpt><trkpt lat="41.822240794407904" lon="13.327619508607459"><ele>1510.0</ele><time>2026-04-10T15:32:44Z</time></trkpt><trkpt lat="41.82225334890629" lon="13.327838704448318"><ele>1510.0</ele><time>2026-04-10T15:32:45Z</time></trkpt><trkpt lat="41.82222378247715" lon="13.32803963248852"><ele>1510.0</ele><time>2026-04-10T15:32:46Z</time></trkpt><trkpt lat="41.82218632330449" lon="13.328242314881432"><ele>1508.0</ele><time>2026-04-10T15:32:47Z</time></trkpt><trkpt lat="41.82211488852551" lon="13.328432695353568"><ele>1506.0</ele><time>2026-04-10T15:32:47.999Z</time></trkpt><trkpt lat="41.82203742951246" lon="13.328636850225752"><ele>1504.0</ele><time>2026-04-10T15:32:48.999Z</time></trkpt><trkpt lat="41.82195158375328" lon="13.328860683575895"><ele>1502.0</ele><time>2026-04-10T15:32:49.999Z</time></trkpt><trkpt lat="41.8218792657808" lon="13.329046398635509"><ele>1500.0</ele><time>2026-04-10T15:32:50.999Z</time></trkpt><trkpt lat="41.82178948803964" lon="13.329216569886496"><ele>1498.0</ele><time>2026-04-10T15:32:51.999Z</time></trkpt><trkpt lat="41.8216675491078" lon="13.329356731875475"><ele>1491.3333333333333</ele><time>2026-04-10T15:32:52.999Z</time></trkpt><trkpt lat="41.82151035067827" lon="13.3294379699275"><ele>1484.6666666666667</ele><time>2026-04-10T15:32:53.999Z</time></trkpt><trkpt lat="41.821340189847064" lon="13.329504163261566"><ele>1478.0</ele><time>2026-04-10T15:32:54.999Z</time></trkpt><trkpt lat="41.821179257037535" lon="13.329561373262553"><ele>1478.0</ele><time>2026-04-10T15:32:55.999Z</time></trkpt><trkpt lat="41.82105068146683" lon="13.329595234338193"><ele>1478.0</ele><time>2026-04-10T15:32:56.999Z</time></trkpt><trkpt lat="41.82096157842925" lon="13.32960203663324"><ele>1478.0</ele><time>2026-04-10T15:32:57.999Z</time></trkpt><trkpt lat="41.820882444002535" lon="13.329598032387793"><ele>1478.0</ele><time>2026-04-10T15:32:58.999Z</time></trkpt><trkpt lat="41.820819514168186" lon="13.329532611506815"><ele>1478.0</ele><time>2026-04-10T15:32:59.999Z</time></trkpt><trkpt lat="41.8207891055505" lon="13.329411051936859"><ele>1478.0</ele><time>2026-04-10T15:33:00.999Z</time></trkpt><trkpt lat="41.8208048154739" lon="13.329290059579268"><ele>1478.0</ele><time>2026-04-10T15:33:01.999Z</time></trkpt><trkpt lat="41.820861385948064" lon="13.32917810752696"><ele>1478.0</ele><time>2026-04-10T15:33:02.999Z</time></trkpt><trkpt lat="41.820969664782005" lon="13.329112458568398"><ele>1478.0</ele><time>2026-04-10T15:33:03.999Z</time></trkpt><trkpt lat="41.821139850000655" lon="13.329033200845071"><ele>1478.0</ele><time>2026-04-10T15:33:04.999Z</time></trkpt><trkpt lat="41.82129230170474" lon="13.328933389817179"><ele>1478.0</ele><time>2026-04-10T15:33:05.999Z</time></trkpt><trkpt lat="41.82142147293635" lon="13.328802981224667"><ele>1478.0</ele><time>2026-04-10T15:33:06.999Z</time></trkpt><trkpt lat="41.82154271438749" lon="13.328631313822891"><ele>1477.25</ele><time>2026-04-10T15:33:07.999Z</time></trkpt><trkpt lat="41.82163764185818" lon="13.328459699196317"><ele>1476.5</ele><time>2026-04-10T15:33:08.999Z</time></trkpt><trkpt lat="41.82169815873257" lon="13.328320780164587"><ele>1475.75</ele><time>2026-04-10T15:33:09.999Z</time></trkpt><trkpt lat="41.8217584497552" lon="13.328168442423243"><ele>1475.0</ele><time>2026-04-10T15:33:10.999Z</time></trkpt><trkpt lat="41.82176236694547" lon="13.328013803019795"><ele>1474.0</ele><time>2026-04-10T15:33:11.999Z</time></trkpt><trkpt lat="41.82170894912056" lon="13.327816215233982"><ele>1473.0</ele><time>2026-04-10T15:33:12.999Z</time></trkpt><trkpt lat="41.82165044833246" lon="13.32760551845755"><ele>1472.0</ele><time>2026-04-10T15:33:13.999Z</time></trkpt><trkpt lat="41.821562130697245" lon="13.327330826223427"><ele>1472.6666666666667</ele><time>2026-04-10T15:33:14.999Z</time></trkpt><trkpt lat="41.8214842629495" lon="13.327130891465924"><ele>1473.3333333333333</ele><time>2026-04-10T15:33:15.999Z</time></trkpt><trkpt lat="41.82141985668396" lon="13.32692788491027"><ele>1474.0</ele><time>2026-04-10T15:33:16.999Z</time></trkpt><trkpt lat="41.82137803048232" lon="13.326733136615022"><ele>1474.0</ele><time>2026-04-10T15:33:17.999Z</time></trkpt><trkpt lat="41.82130586707734" lon="13.326531608256028"><ele>1474.0</ele><time>2026-04-10T15:33:18.999Z</time></trkpt><trkpt lat="41.82125833844696" lon="13.326370198719616"><ele>1474.0</ele><time>2026-04-10T15:33:19.999Z</time></trkpt><trkpt lat="41.82122173159415" lon="13.326181807375093"><ele>1474.0</ele><time>2026-04-10T15:33:20.999Z</time></trkpt><trkpt lat="41.821205791668966" lon="13.325998983608244"><ele>1472.25</ele><time>2026-04-10T15:33:21.999Z</time></trkpt><trkpt lat="41.82120901826844" lon="13.325828200290497"><ele>1470.5</ele><time>2026-04-10T15:33:22.999Z</time></trkpt><trkpt lat="41.82123275498266" lon="13.325673232721675"><ele>1468.75</ele><time>2026-04-10T15:33:23.999Z</time></trkpt><trkpt lat="41.82130552539561" lon="13.325528944414152"><ele>1467.0</ele><time>2026-04-10T15:33:24.999Z</time></trkpt><trkpt lat="41.82144521581696" lon="13.325412316266508"><ele>1461.0</ele><time>2026-04-10T15:33:25.999Z</time></trkpt><trkpt lat="41.82157212010231" lon="13.325309389116704"><ele>1455.0</ele><time>2026-04-10T15:33:26.999Z</time></trkpt><trkpt lat="41.82172345772721" lon="13.325162643126548"><ele>1449.0</ele><time>2026-04-10T15:33:27.999Z</time></trkpt><trkpt lat="41.821847830897774" lon="13.32498205599584"><ele>1454.0</ele><time>2026-04-10T15:33:28.999Z</time></trkpt><trkpt lat="41.82195724450064" lon="13.324816968325225"><ele>1459.0</ele><time>2026-04-10T15:33:29.999Z</time></trkpt><trkpt lat="41.82205509205491" lon="13.324643023988228"><ele>1464.0</ele><time>2026-04-10T15:33:30.999Z</time></trkpt><trkpt lat="41.82213230422781" lon="13.32448428507654"><ele>1464.0</ele><time>2026-04-10T15:33:31.999Z</time></trkpt><trkpt lat="41.8221799887921" lon="13.324329709845312"><ele>1464.0</ele><time>2026-04-10T15:33:32.999Z</time></trkpt><trkpt lat="41.82221439443393" lon="13.32417480629809"><ele>1464.0</ele><time>2026-04-10T15:33:33.999Z</time></trkpt><trkpt lat="41.822188136811334" lon="13.32402881927681"><ele>1464.0</ele><time>2026-04-10T15:33:34.999Z</time></trkpt><trkpt lat="41.82211315590369" lon="13.32385073005673"><ele>1465.0</ele><time>2026-04-10T15:33:35.999Z</time></trkpt><trkpt lat="41.82204542396726" lon="13.323688567738516"><ele>1466.0</ele><time>2026-04-10T15:33:36.999Z</time></trkpt><trkpt lat="41.821983767042354" lon="13.323501633455129"><ele>1467.0</ele><time>2026-04-10T15:33:37.999Z</time></trkpt><trkpt lat="41.82193742205142" lon="13.32333856555375"><ele>1468.0</ele><time>2026-04-10T15:33:38.999Z</time></trkpt><trkpt lat="41.82191373515915" lon="13.323131577514452"><ele>1466.6666666666665</ele><time>2026-04-10T15:33:39.999Z</time></trkpt><trkpt lat="41.821905229445505" lon="13.322905460981962"><ele>1465.3333333333333</ele><time>2026-04-10T15:33:40.999Z</time></trkpt><trkpt lat="41.82189520912486" lon="13.322679468436009"><ele>1464.0</ele><time>2026-04-10T15:33:41.999Z</time></trkpt><trkpt lat="41.82187433835497" lon="13.32244393635377"><ele>1464.0</ele><time>2026-04-10T15:33:42.999Z</time></trkpt><trkpt lat="41.82183481159882" lon="13.322231738132526"><ele>1464.0</ele><time>2026-04-10T15:33:43.999Z</time></trkpt><trkpt lat="41.82176466419128" lon="13.322029061399327"><ele>1464.0</ele><time>2026-04-10T15:33:44.999Z</time></trkpt><trkpt lat="41.82167388403838" lon="13.321803699486967"><ele>1452.6666666666667</ele><time>2026-04-10T15:33:45.999Z</time></trkpt><trkpt lat="41.8215540025438" lon="13.321602522393798"><ele>1441.3333333333335</ele><time>2026-04-10T15:33:46.999Z</time></trkpt><trkpt lat="41.82145576477725" lon="13.321442611274302"><ele>1430.0</ele><time>2026-04-10T15:33:47.999Z</time></trkpt><trkpt lat="41.82138044284442" lon="13.321317202863137"><ele>1430.0</ele><time>2026-04-10T15:33:48.999Z</time></trkpt><trkpt lat="41.82132248974468" lon="13.32121273979728"><ele>1430.0</ele><time>2026-04-10T15:33:49.999Z</time></trkpt><trkpt lat="41.82126557802924" lon="13.321126049770255"><ele>1430.0</ele><time>2026-04-10T15:33:50.999Z</time></trkpt><trkpt lat="41.821196208018776" lon="13.321076015928522"><ele>1430.0</ele><time>2026-04-10T15:33:51.999Z</time></trkpt><trkpt lat="41.821123843379716" lon="13.321092094673743"><ele>1430.0</ele><time>2026-04-10T15:33:52.999Z</time></trkpt><trkpt lat="41.82104371467518" lon="13.32113065810951"><ele>1430.0</ele><time>2026-04-10T15:33:53.999Z</time></trkpt><trkpt lat="41.82099651552105" lon="13.321297918945094"><ele>1429.3333333333335</ele><time>2026-04-10T15:33:54.999Z</time></trkpt><trkpt lat="41.821061115745124" lon="13.321512029591549"><ele>1428.6666666666667</ele><time>2026-04-10T15:33:55.999Z</time></trkpt><trkpt lat="41.82115831282847" lon="13.321732432739003"><ele>1428.0</ele><time>2026-04-10T15:33:56.999Z</time></trkpt><trkpt lat="41.82126484865849" lon="13.321957138345944"><ele>1428.0</ele><time>2026-04-10T15:33:57.999Z</time></trkpt><trkpt lat="41.82135079883129" lon="13.322149326813937"><ele>1428.0</ele><time>2026-04-10T15:33:58.999Z</time></trkpt><trkpt lat="41.821407074274276" lon="13.322324553222803"><ele>1428.0</ele><time>2026-04-10T15:33:59.999Z</time></trkpt><trkpt lat="41.82144128383759" lon="13.322514118555619"><ele>1426.0</ele><time>2026-04-10T15:34:00.999Z</time></trkpt><trkpt lat="41.821434268869666" lon="13.322711389903064"><ele>1424.0</ele><time>2026-04-10T15:34:01.999Z</time></trkpt><trkpt lat="41.8214113756944" lon="13.32293346633726"><ele>1422.0</ele><time>2026-04-10T15:34:02.999Z</time></trkpt><trkpt lat="41.82140182229393" lon="13.323136033088062"><ele>1421.0</ele><time>2026-04-10T15:34:04Z</time></trkpt><trkpt lat="41.821420731581085" lon="13.323358543299086"><ele>1420.0</ele><time>2026-04-10T15:34:05Z</time></trkpt><trkpt lat="41.821454110816816" lon="13.323562601704419"><ele>1419.0</ele><time>2026-04-10T15:34:06Z</time></trkpt><trkpt lat="41.821485046873285" lon="13.323742530002145"><ele>1419.0</ele><time>2026-04-10T15:34:07Z</time></trkpt><trkpt lat="41.821500269314065" lon="13.32389297567886"><ele>1419.0</ele><time>2026-04-10T15:34:08Z</time></trkpt><trkpt lat="41.82150298877987" lon="13.32403325490503"><ele>1419.0</ele><time>2026-04-10T15:34:09Z</time></trkpt><trkpt lat="41.821470813927576" lon="13.32415638365766"><ele>1419.0</ele><time>2026-04-10T15:34:10Z</time></trkpt><trkpt lat="41.821380449288284" lon="13.32424227408699"><ele>1419.0</ele><time>2026-04-10T15:34:11Z</time></trkpt><trkpt lat="41.821249340379175" lon="13.324350756960749"><ele>1421.6666666666667</ele><time>2026-04-10T15:34:12Z</time></trkpt><trkpt lat="41.82108274648194" lon="13.324462204047983"><ele>1424.3333333333335</ele><time>2026-04-10T15:34:13Z</time></trkpt><trkpt lat="41.82090902715097" lon="13.324567840799977"><ele>1427.0</ele><time>2026-04-10T15:34:14Z</time></trkpt><trkpt lat="41.82072607336439" lon="13.324608108707084"><ele>1417.3333333333335</ele><time>2026-04-10T15:34:15Z</time></trkpt><trkpt lat="41.82055344841218" lon="13.324651249200235"><ele>1407.6666666666667</ele><time>2026-04-10T15:34:16Z</time></trkpt><trkpt lat="41.8204016067104" lon="13.32468012336564"><ele>1398.0</ele><time>2026-04-10T15:34:17Z</time></trkpt><trkpt lat="41.820263555085084" lon="13.324716934730755"><ele>1396.0</ele><time>2026-04-10T15:34:18Z</time></trkpt><trkpt lat="41.82014917453228" lon="13.324757367326825"><ele>1394.0</ele><time>2026-04-10T15:34:19Z</time></trkpt><trkpt lat="41.820044962407415" lon="13.32481423111275"><ele>1392.0</ele><time>2026-04-10T15:34:20Z</time></trkpt><trkpt lat="41.81994197385924" lon="13.324888511652675"><ele>1390.0</ele><time>2026-04-10T15:34:21Z</time></trkpt><trkpt lat="41.819820454564166" lon="13.325065281985546"><ele>1390.0</ele><time>2026-04-10T15:34:22Z</time></trkpt><trkpt lat="41.81982266519155" lon="13.325267899252276"><ele>1390.0</ele><time>2026-04-10T15:34:23Z</time></trkpt><trkpt lat="41.81982806446347" lon="13.325514535569123"><ele>1390.0</ele><time>2026-04-10T15:34:24Z</time></trkpt><trkpt lat="41.81985410214228" lon="13.325761585183836"><ele>1390.25</ele><time>2026-04-10T15:34:25Z</time></trkpt><trkpt lat="41.819868284430825" lon="13.325982413162155"><ele>1390.5</ele><time>2026-04-10T15:34:26Z</time></trkpt><trkpt lat="41.819884989569246" lon="13.32619224986112"><ele>1390.75</ele><time>2026-04-10T15:34:27Z</time></trkpt><trkpt lat="41.81989334254399" lon="13.32635630844616"><ele>1391.0</ele><time>2026-04-10T15:34:27.999Z</time></trkpt><trkpt lat="41.8199086427135" lon="13.326510601946538"><ele>1392.6</ele><time>2026-04-10T15:34:28.999Z</time></trkpt><trkpt lat="41.819902062056805" lon="13.326664662908275"><ele>1394.1999999999998</ele><time>2026-04-10T15:34:29.999Z</time></trkpt><trkpt lat="41.81984448617065" lon="13.326770079351942"><ele>1395.8000000000002</ele><time>2026-04-10T15:34:30.999Z</time></trkpt><trkpt lat="41.81975206113691" lon="13.326847112262751"><ele>1397.4</ele><time>2026-04-10T15:34:31.999Z</time></trkpt><trkpt lat="41.81963009838263" lon="13.326856966397377"><ele>1399.0</ele><time>2026-04-10T15:34:32.999Z</time></trkpt><trkpt lat="41.81950225855439" lon="13.326865281070896"><ele>1399.0</ele><time>2026-04-10T15:34:33.999Z</time></trkpt><trkpt lat="41.819335698225586" lon="13.326879511594155"><ele>1399.0</ele><time>2026-04-10T15:34:34.999Z</time></trkpt><trkpt lat="41.81918714788223" lon="13.326948782887408"><ele>1399.0</ele><time>2026-04-10T15:34:35.999Z</time></trkpt><trkpt lat="41.81900367841179" lon="13.327098036968605"><ele>1398.0</ele><time>2026-04-10T15:34:36.999Z</time></trkpt><trkpt lat="41.81885284073551" lon="13.327227591416646"><ele>1397.0</ele><time>2026-04-10T15:34:37.999Z</time></trkpt><trkpt lat="41.818696319881646" lon="13.327412537007618"><ele>1396.0</ele><time>2026-04-10T15:34:38.999Z</time></trkpt><trkpt lat="41.81856695579229" lon="13.327599706629357"><ele>1381.3333333333333</ele><time>2026-04-10T15:34:39.999Z</time></trkpt><trkpt lat="41.81844599548837" lon="13.327747306784982"><ele>1366.6666666666667</ele><time>2026-04-10T15:34:40.999Z</time></trkpt><trkpt lat="41.818330283713095" lon="13.327870067773633"><ele>1352.0</ele><time>2026-04-10T15:34:41.999Z</time></trkpt><trkpt lat="41.81821629021784" lon="13.328000660709284"><ele>1361.3333333333335</ele><time>2026-04-10T15:34:42.999Z</time></trkpt><trkpt lat="41.818127303833414" lon="13.32813852350241"><ele>1370.6666666666667</ele><time>2026-04-10T15:34:43.999Z</time></trkpt><trkpt lat="41.81804991755825" lon="13.328344750005083"><ele>1380.0</ele><time>2026-04-10T15:34:44.999Z</time></trkpt><trkpt lat="41.817984172527304" lon="13.328545706211383"><ele>1380.0</ele><time>2026-04-10T15:34:45.999Z</time></trkpt><trkpt lat="41.817935659359534" lon="13.32879004655433"><ele>1380.0</ele><time>2026-04-10T15:34:46.999Z</time></trkpt><trkpt lat="41.8179090205349" lon="13.329039396214686"><ele>1380.0</ele><time>2026-04-10T15:34:47.999Z</time></trkpt><trkpt lat="41.81789027186111" lon="13.329301775141435"><ele>1380.3333333333333</ele><time>2026-04-10T15:34:48.999Z</time></trkpt><trkpt lat="41.81787622278916" lon="13.329536742155716"><ele>1380.6666666666665</ele><time>2026-04-10T15:34:49.999Z</time></trkpt><trkpt lat="41.81787425187241" lon="13.329768862781842"><ele>1381.0</ele><time>2026-04-10T15:34:50.999Z</time></trkpt><trkpt lat="41.81787974393621" lon="13.329987634048402"><ele>1381.0</ele><time>2026-04-10T15:34:51.999Z</time></trkpt><trkpt lat="41.81790304219298" lon="13.330176241105333"><ele>1381.0</ele><time>2026-04-10T15:34:52.999Z</time></trkpt><trkpt lat="41.81796113265295" lon="13.330376837464282"><ele>1381.0</ele><time>2026-04-10T15:34:53.999Z</time></trkpt><trkpt lat="41.818019376588126" lon="13.330565873596328"><ele>1377.0</ele><time>2026-04-10T15:34:54.999Z</time></trkpt><trkpt lat="41.81811573854304" lon="13.330744663553414"><ele>1373.0</ele><time>2026-04-10T15:34:55.999Z</time></trkpt><trkpt lat="41.81816868285873" lon="13.330938930547426"><ele>1369.0</ele><time>2026-04-10T15:34:56.999Z</time></trkpt><trkpt lat="41.818204036411146" lon="13.331151510133262"><ele>1369.0</ele><time>2026-04-10T15:34:57.999Z</time></trkpt><trkpt lat="41.81822558092049" lon="13.331387945221755"><ele>1369.0</ele><time>2026-04-10T15:34:58.999Z</time></trkpt><trkpt lat="41.81824547541909" lon="13.331607738184141"><ele>1369.0</ele><time>2026-04-10T15:34:59.999Z</time></trkpt><trkpt lat="41.81826305040908" lon="13.331806461003382"><ele>1366.5</ele><time>2026-04-10T15:35:00.999Z</time></trkpt><trkpt lat="41.8182689121877" lon="13.3319835078656"><ele>1364.0</ele><time>2026-04-10T15:35:01.999Z</time></trkpt><trkpt lat="41.8182655331909" lon="13.332146401817235"><ele>1361.5</ele><time>2026-04-10T15:35:02.999Z</time></trkpt><trkpt lat="41.818251508883094" lon="13.332270564185158"><ele>1359.0</ele><time>2026-04-10T15:35:03.999Z</time></trkpt><trkpt lat="41.81817489867765" lon="13.332399990119619"><ele>1359.0</ele><time>2026-04-10T15:35:05.999Z</time></trkpt><trkpt lat="41.81807877484897" lon="13.332408417472546"><ele>1359.0</ele><time>2026-04-10T15:35:07.999Z</time></trkpt><trkpt lat="41.81799523832436" lon="13.332365066121673"><ele>1359.0</ele><time>2026-04-10T15:35:08.999Z</time></trkpt><trkpt lat="41.81796313493479" lon="13.332202591528011"><ele>1359.0</ele><time>2026-04-10T15:35:09.999Z</time></trkpt><trkpt lat="41.817987935715244" lon="13.332028985172418"><ele>1359.0</ele><time>2026-04-10T15:35:10.999Z</time></trkpt><trkpt lat="41.81803077493205" lon="13.33183573686536"><ele>1359.0</ele><time>2026-04-10T15:35:11.999Z</time></trkpt><trkpt lat="41.818027212037435" lon="13.331627271773849"><ele>1359.0</ele><time>2026-04-10T15:35:12.999Z</time></trkpt><trkpt lat="41.81797459438288" lon="13.33126266011266"><ele>1359.0</ele><time>2026-04-10T15:35:13.999Z</time></trkpt><trkpt lat="41.81787634820901" lon="13.331006801575155"><ele>1362.3333333333333</ele><time>2026-04-10T15:35:14.999Z</time></trkpt><trkpt lat="41.81778209516978" lon="13.33081490665731"><ele>1365.6666666666665</ele><time>2026-04-10T15:35:15.999Z</time></trkpt><trkpt lat="41.81766650978003" lon="13.330657928593743"><ele>1369.0</ele><time>2026-04-10T15:35:16.999Z</time></trkpt><trkpt lat="41.81757223174232" lon="13.33051681745703"><ele>1359.0</ele><time>2026-04-10T15:35:17.999Z</time></trkpt><trkpt lat="41.817483498136795" lon="13.330348289972614"><ele>1349.0</ele><time>2026-04-10T15:35:18.999Z</time></trkpt><trkpt lat="41.81742201962813" lon="13.330143194931606"><ele>1339.0</ele><time>2026-04-10T15:35:19.999Z</time></trkpt><trkpt lat="41.817367665680656" lon="13.329929465737992"><ele>1340.0</ele><time>2026-04-10T15:35:20.999Z</time></trkpt><trkpt lat="41.81732101664462" lon="13.329711975703628"><ele>1341.0</ele><time>2026-04-10T15:35:21.999Z</time></trkpt><trkpt lat="41.817280903910714" lon="13.329505252924648"><ele>1342.0</ele><time>2026-04-10T15:35:22.999Z</time></trkpt><trkpt lat="41.81726027966206" lon="13.329310669905716"><ele>1342.0</ele><time>2026-04-10T15:35:23.999Z</time></trkpt><trkpt lat="41.81726454350685" lon="13.329092852757764"><ele>1342.0</ele><time>2026-04-10T15:35:24.999Z</time></trkpt><trkpt lat="41.81728612835822" lon="13.328868798474849"><ele>1342.0</ele><time>2026-04-10T15:35:25.999Z</time></trkpt><trkpt lat="41.81731245610612" lon="13.328642194592415"><ele>1338.6666666666665</ele><time>2026-04-10T15:35:26.999Z</time></trkpt><trkpt lat="41.817344207088375" lon="13.32842592977163"><ele>1335.3333333333333</ele><time>2026-04-10T15:35:27.999Z</time></trkpt><trkpt lat="41.81739298673598" lon="13.328211014434954"><ele>1332.0</ele><time>2026-04-10T15:35:28.999Z</time></trkpt><trkpt lat="41.817453892009844" lon="13.328014534710144"><ele>1338.6666666666667</ele><time>2026-04-10T15:35:29.999Z</time></trkpt><trkpt lat="41.81753096093585" lon="13.327838018158493"><ele>1345.3333333333335</ele><time>2026-04-10T15:35:30.999Z</time></trkpt><trkpt lat="41.817646804881065" lon="13.327694178379657"><ele>1352.0</ele><time>2026-04-10T15:35:31.999Z</time></trkpt><trkpt lat="41.81778041343184" lon="13.32757099860119"><ele>1352.0</ele><time>2026-04-10T15:35:32.999Z</time></trkpt><trkpt lat="41.81791843896674" lon="13.327433157623291"><ele>1352.0</ele><time>2026-04-10T15:35:33.999Z</time></trkpt><trkpt lat="41.81805328750231" lon="13.327300678723613"><ele>1352.0</ele><time>2026-04-10T15:35:34.999Z</time></trkpt><trkpt lat="41.81815482619506" lon="13.327166993815032"><ele>1342.0</ele><time>2026-04-10T15:35:35.999Z</time></trkpt><trkpt lat="41.818245911207136" lon="13.326985224012223"><ele>1332.0</ele><time>2026-04-10T15:35:36.999Z</time></trkpt><trkpt lat="41.818314764872525" lon="13.32676568118831"><ele>1322.0</ele><time>2026-04-10T15:35:37.999Z</time></trkpt><trkpt lat="41.81840200152289" lon="13.326538328480776"><ele>1329.6666666666667</ele><time>2026-04-10T15:35:38.999Z</time></trkpt><trkpt lat="41.81850925335321" lon="13.326336287331923"><ele>1337.3333333333333</ele><time>2026-04-10T15:35:39.999Z</time></trkpt><trkpt lat="41.818623823988226" lon="13.326184695726246"><ele>1345.0</ele><time>2026-04-10T15:35:40.999Z</time></trkpt><trkpt lat="41.8187267386867" lon="13.326047149820077"><ele>1345.0</ele><time>2026-04-10T15:35:41.999Z</time></trkpt><trkpt lat="41.81880947720416" lon="13.32590343997346"><ele>1345.0</ele><time>2026-04-10T15:35:42.999Z</time></trkpt><trkpt lat="41.81886377113455" lon="13.325740139248767"><ele>1345.0</ele><time>2026-04-10T15:35:43.999Z</time></trkpt><trkpt lat="41.818868604296284" lon="13.325579702307662"><ele>1345.0</ele><time>2026-04-10T15:35:44.999Z</time></trkpt><trkpt lat="41.818788863812216" lon="13.325330306941208"><ele>1344.3333333333333</ele><time>2026-04-10T15:35:45.999Z</time></trkpt><trkpt lat="41.81873102682456" lon="13.325159149555624"><ele>1343.6666666666667</ele><time>2026-04-10T15:35:46.999Z</time></trkpt><trkpt lat="41.81861301168735" lon="13.325000196704483"><ele>1343.0</ele><time>2026-04-10T15:35:47.999Z</time></trkpt><trkpt lat="41.8184906465369" lon="13.324843985317994"><ele>1329.0</ele><time>2026-04-10T15:35:48.999Z</time></trkpt><trkpt lat="41.81837918319568" lon="13.324679320055088"><ele>1315.0</ele><time>2026-04-10T15:35:49.999Z</time></trkpt><trkpt lat="41.81827888096384" lon="13.3245129360922"><ele>1301.0</ele><time>2026-04-10T15:35:50.999Z</time></trkpt><trkpt lat="41.8182070266673" lon="13.324325945558005"><ele>1301.0</ele><time>2026-04-10T15:35:51.999Z</time></trkpt><trkpt lat="41.81818898584178" lon="13.324183930583809"><ele>1301.0</ele><time>2026-04-10T15:35:52.999Z</time></trkpt><trkpt lat="41.818197907453495" lon="13.324058913151143"><ele>1301.0</ele><time>2026-04-10T15:35:53.999Z</time></trkpt><trkpt lat="41.81823608306332" lon="13.323905860230692"><ele>1301.0</ele><time>2026-04-10T15:35:54.999Z</time></trkpt><trkpt lat="41.81831752078845" lon="13.323793428604171"><ele>1301.0</ele><time>2026-04-10T15:35:55.999Z</time></trkpt><trkpt lat="41.81844703838867" lon="13.323665914770494"><ele>1306.6666666666667</ele><time>2026-04-10T15:35:56.999Z</time></trkpt><trkpt lat="41.81860249009144" lon="13.323528126190332"><ele>1312.3333333333333</ele><time>2026-04-10T15:35:57.999Z</time></trkpt><trkpt lat="41.818764981092485" lon="13.323368024103534"><ele>1318.0</ele><time>2026-04-10T15:35:58.999Z</time></trkpt><trkpt lat="41.81890608282881" lon="13.323219386682641"><ele>1318.0</ele><time>2026-04-10T15:35:59.999Z</time></trkpt><trkpt lat="41.81902795610299" lon="13.32308544139686"><ele>1318.0</ele><time>2026-04-10T15:36:00.999Z</time></trkpt><trkpt lat="41.819096782767424" lon="13.322990407148199"><ele>1318.0</ele><time>2026-04-10T15:36:01.999Z</time></trkpt><trkpt lat="41.81914149674029" lon="13.322886022702068"><ele>1318.0</ele><time>2026-04-10T15:36:02.999Z</time></trkpt><trkpt lat="41.81915689112436" lon="13.32277720127943"><ele>1318.0</ele><time>2026-04-10T15:36:03.999Z</time></trkpt><trkpt lat="41.819139942490736" lon="13.322614759946875"><ele>1318.3333333333333</ele><time>2026-04-10T15:36:04.999Z</time></trkpt><trkpt lat="41.819054093087466" lon="13.322461355891395"><ele>1318.6666666666667</ele><time>2026-04-10T15:36:05.999Z</time></trkpt><trkpt lat="41.81894017618414" lon="13.322290649976102"><ele>1319.0</ele><time>2026-04-10T15:36:06.999Z</time></trkpt><trkpt lat="41.818778301523714" lon="13.322108532605252"><ele>1319.0</ele><time>2026-04-10T15:36:07.999Z</time></trkpt><trkpt lat="41.818611883167335" lon="13.321938442352566"><ele>1319.0</ele><time>2026-04-10T15:36:08.999Z</time></trkpt><trkpt lat="41.81846343639214" lon="13.321790885403344"><ele>1319.0</ele><time>2026-04-10T15:36:09.999Z</time></trkpt><trkpt lat="41.81833307570145" lon="13.321645633575606"><ele>1312.5</ele><time>2026-04-10T15:36:10.999Z</time></trkpt><trkpt lat="41.81821265966374" lon="13.3215185292426"><ele>1306.0</ele><time>2026-04-10T15:36:11.999Z</time></trkpt><trkpt lat="41.81810667557947" lon="13.321398663866693"><ele>1299.5</ele><time>2026-04-10T15:36:12.999Z</time></trkpt><trkpt lat="41.81800275884042" lon="13.321273495456404"><ele>1293.0</ele><time>2026-04-10T15:36:13.999Z</time></trkpt><trkpt lat="41.81793052252677" lon="13.32113993631217"><ele>1293.0</ele><time>2026-04-10T15:36:14.999Z</time></trkpt><trkpt lat="41.8178999072848" lon="13.320959393092503"><ele>1293.0</ele><time>2026-04-10T15:36:15.999Z</time></trkpt><trkpt lat="41.8178898294464" lon="13.320770236710137"><ele>1293.0</ele><time>2026-04-10T15:36:16.999Z</time></trkpt><trkpt lat="41.817856259284184" lon="13.320567455130861"><ele>1293.0</ele><time>2026-04-10T15:36:18Z</time></trkpt><trkpt lat="41.81778922318223" lon="13.320435796954905"><ele>1293.6000000000001</ele><time>2026-04-10T15:36:19Z</time></trkpt><trkpt lat="41.81767875556886" lon="13.32033326422876"><ele>1294.2</ele><time>2026-04-10T15:36:20Z</time></trkpt><trkpt lat="41.81760619485612" lon="13.320240080313837"><ele>1294.8</ele><time>2026-04-10T15:36:21Z</time></trkpt><trkpt lat="41.81754133208712" lon="13.320145116623603"><ele>1295.4</ele><time>2026-04-10T15:36:22Z</time></trkpt><trkpt lat="41.81754504428029" lon="13.320019424541373"><ele>1296.0</ele><time>2026-04-10T15:36:23Z</time></trkpt><trkpt lat="41.81761708784501" lon="13.319888699039794"><ele>1290.6666666666667</ele><time>2026-04-10T15:36:24Z</time></trkpt><trkpt lat="41.817726513685166" lon="13.31967228405871"><ele>1285.3333333333335</ele><time>2026-04-10T15:36:25Z</time></trkpt><trkpt lat="41.81782996255819" lon="13.319448375150552"><ele>1280.0</ele><time>2026-04-10T15:36:26Z</time></trkpt><trkpt lat="41.81790651301049" lon="13.319249287348015"><ele>1280.0</ele><time>2026-04-10T15:36:27Z</time></trkpt><trkpt lat="41.817969125319756" lon="13.319057180938522"><ele>1280.0</ele><time>2026-04-10T15:36:28Z</time></trkpt><trkpt lat="41.81797463356727" lon="13.318903268912768"><ele>1280.0</ele><time>2026-04-10T15:36:29Z</time></trkpt><trkpt lat="41.81794137636501" lon="13.318791406544197"><ele>1280.0</ele><time>2026-04-10T15:36:30Z</time></trkpt><trkpt lat="41.817887061275066" lon="13.31866812107318"><ele>1279.3333333333335</ele><time>2026-04-10T15:36:31Z</time></trkpt><trkpt lat="41.817777935441384" lon="13.318568635254035"><ele>1278.6666666666667</ele><time>2026-04-10T15:36:32Z</time></trkpt><trkpt lat="41.81762327518622" lon="13.318535800741772"><ele>1278.0</ele><time>2026-04-10T15:36:33Z</time></trkpt><trkpt lat="41.81741669164939" lon="13.318503114897409"><ele>1268.0</ele><time>2026-04-10T15:36:34Z</time></trkpt><trkpt lat="41.817138792447864" lon="13.318436396288929"><ele>1258.0</ele><time>2026-04-10T15:36:35Z</time></trkpt><trkpt lat="41.816883262063385" lon="13.318366171879942"><ele>1251.5</ele><time>2026-04-10T15:36:36Z</time></trkpt><trkpt lat="41.81665841131462" lon="13.318298933622978"><ele>1245.0</ele><time>2026-04-10T15:36:37Z</time></trkpt><trkpt lat="41.816439335299236" lon="13.318238009360865"><ele>1245.0</ele><time>2026-04-10T15:36:38Z</time></trkpt><trkpt lat="41.81625214873868" lon="13.31820251849013"><ele>1245.0</ele><time>2026-04-10T15:36:39Z</time></trkpt><trkpt lat="41.81608057587155" lon="13.318158998826284"><ele>1245.0</ele><time>2026-04-10T15:36:40Z</time></trkpt><trkpt lat="41.81589196505004" lon="13.318108940772046"><ele>1242.6666666666667</ele><time>2026-04-10T15:36:41Z</time></trkpt><trkpt lat="41.81571626829879" lon="13.318040072984816"><ele>1240.3333333333335</ele><time>2026-04-10T15:36:42Z</time></trkpt><trkpt lat="41.81555054825272" lon="13.317956020638333"><ele>1238.0</ele><time>2026-04-10T15:36:43Z</time></trkpt><trkpt lat="41.81538267899397" lon="13.317874785663017"><ele>1238.0</ele><time>2026-04-10T15:36:44Z</time></trkpt><trkpt lat="41.815231029768384" lon="13.317795769653044"><ele>1238.0</ele><time>2026-04-10T15:36:45Z</time></trkpt><trkpt lat="41.8151380098461" lon="13.317700564040203"><ele>1238.0</ele><time>2026-04-10T15:36:45.999Z</time></trkpt><trkpt lat="41.81498489124906" lon="13.317574135676784"><ele>1235.0</ele><time>2026-04-10T15:36:46.999Z</time></trkpt><trkpt lat="41.81483171548774" lon="13.317443686346133"><ele>1232.0</ele><time>2026-04-10T15:36:47.999Z</time></trkpt><trkpt lat="41.81467327895582" lon="13.317307834051126"><ele>1229.0</ele><time>2026-04-10T15:36:48.999Z</time></trkpt><trkpt lat="41.814521279187105" lon="13.317170167423143"><ele>1228.3333333333335</ele><time>2026-04-10T15:36:49.999Z</time></trkpt><trkpt lat="41.814379570206206" lon="13.317037255859198"><ele>1227.6666666666667</ele><time>2026-04-10T15:36:50.999Z</time></trkpt><trkpt lat="41.81424317349272" lon="13.316912288010855"><ele>1227.0</ele><time>2026-04-10T15:36:51.999Z</time></trkpt><trkpt lat="41.81412307801118" lon="13.316777882032587"><ele>1224.5</ele><time>2026-04-10T15:36:52.999Z</time></trkpt><trkpt lat="41.814024575558626" lon="13.31664994932857"><ele>1222.0</ele><time>2026-04-10T15:36:53.999Z</time></trkpt><trkpt lat="41.81395206925258" lon="13.316512982130323"><ele>1219.5</ele><time>2026-04-10T15:36:54.999Z</time></trkpt><trkpt lat="41.81390446893632" lon="13.316368671169101"><ele>1217.0</ele><time>2026-04-10T15:36:55.999Z</time></trkpt><trkpt lat="41.81390529391629" lon="13.316203319681108"><ele>1215.75</ele><time>2026-04-10T15:36:56.999Z</time></trkpt><trkpt lat="41.813944119315465" lon="13.31602539587665"><ele>1214.5</ele><time>2026-04-10T15:36:57.999Z</time></trkpt><trkpt lat="41.81395917883787" lon="13.315873800249497"><ele>1213.25</ele><time>2026-04-10T15:36:58.999Z</time></trkpt><trkpt lat="41.81395164733491" lon="13.315740236600488"><ele>1212.0</ele><time>2026-04-10T15:36:59.999Z</time></trkpt><trkpt lat="41.81391262096834" lon="13.315619781211357"><ele>1212.0</ele><time>2026-04-10T15:37:00.999Z</time></trkpt><trkpt lat="41.81386215467537" lon="13.315490215733723"><ele>1212.0</ele><time>2026-04-10T15:37:01.999Z</time></trkpt><trkpt lat="41.813803670873234" lon="13.3153715893951"><ele>1212.0</ele><time>2026-04-10T15:37:02.999Z</time></trkpt><trkpt lat="41.813742083732635" lon="13.31527298515792"><ele>1212.0</ele><time>2026-04-10T15:37:03.999Z</time></trkpt><trkpt lat="41.81364488123973" lon="13.315240197888492"><ele>1212.0</ele><time>2026-04-10T15:37:04.999Z</time></trkpt><trkpt lat="41.81353438496208" lon="13.315249382349611"><ele>1210.75</ele><time>2026-04-10T15:37:05.999Z</time></trkpt><trkpt lat="41.81342375841801" lon="13.315277285801344"><ele>1209.5</ele><time>2026-04-10T15:37:06.999Z</time></trkpt><trkpt lat="41.81331180649994" lon="13.315362522049647"><ele>1208.25</ele><time>2026-04-10T15:37:07.999Z</time></trkpt><trkpt lat="41.813222869495995" lon="13.315488290929625"><ele>1207.0</ele><time>2026-04-10T15:37:08.999Z</time></trkpt><trkpt lat="41.81314017153713" lon="13.315727899618448"><ele>1207.0</ele><time>2026-04-10T15:37:09.999Z</time></trkpt><trkpt lat="41.81310250280488" lon="13.315900579118786"><ele>1207.0</ele><time>2026-04-10T15:37:10.999Z</time></trkpt><trkpt lat="41.813091745332144" lon="13.316067727625658"><ele>1207.0</ele><time>2026-04-10T15:37:11.999Z</time></trkpt><trkpt lat="41.81310911959808" lon="13.316243561984058"><ele>1207.0</ele><time>2026-04-10T15:37:12.999Z</time></trkpt><trkpt lat="41.81313950665289" lon="13.316417336402855"><ele>1205.6</ele><time>2026-04-10T15:37:13.999Z</time></trkpt><trkpt lat="41.8131857820822" lon="13.316544314242309"><ele>1204.2</ele><time>2026-04-10T15:37:14.999Z</time></trkpt><trkpt lat="41.81325015733376" lon="13.316656232463258"><ele>1202.8</ele><time>2026-04-10T15:37:15.999Z</time></trkpt><trkpt lat="41.81332924503275" lon="13.316734921043171"><ele>1201.4</ele><time>2026-04-10T15:37:16.999Z</time></trkpt><trkpt lat="41.813385577934184" lon="13.316783227000979"><ele>1200.0</ele><time>2026-04-10T15:37:17.999Z</time></trkpt><trkpt lat="41.81336842097659" lon="13.316905565599797"><ele>1200.0</ele><time>2026-04-10T15:37:19.999Z</time></trkpt><trkpt lat="41.81331635107295" lon="13.316966851591182"><ele>1200.0</ele><time>2026-04-10T15:37:20.999Z</time></trkpt><trkpt lat="41.8132331956362" lon="13.316957962678508"><ele>1200.0</ele><time>2026-04-10T15:37:21.999Z</time></trkpt><trkpt lat="41.81313991849312" lon="13.31693259893744"><ele>1200.0</ele><time>2026-04-10T15:37:22.999Z</time></trkpt><trkpt lat="41.813016526910936" lon="13.316857872434333"><ele>1200.0</ele><time>2026-04-10T15:37:23.999Z</time></trkpt><trkpt lat="41.81288794208174" lon="13.316755987868381"><ele>1200.0</ele><time>2026-04-10T15:37:24.999Z</time></trkpt><trkpt lat="41.812803155176795" lon="13.316637824493544"><ele>1200.0</ele><time>2026-04-10T15:37:25.999Z</time></trkpt><trkpt lat="41.81275279032364" lon="13.31648303592797"><ele>1200.0</ele><time>2026-04-10T15:37:26.999Z</time></trkpt><trkpt lat="41.81273066199887" lon="13.31630890544418"><ele>1200.0</ele><time>2026-04-10T15:37:27.999Z</time></trkpt><trkpt lat="41.81272014157432" lon="13.316115578585272"><ele>1200.25</ele><time>2026-04-10T15:37:28.999Z</time></trkpt><trkpt lat="41.81271541215" lon="13.315932395427197"><ele>1200.5</ele><time>2026-04-10T15:37:29.999Z</time></trkpt><trkpt lat="41.8127120835916" lon="13.315764200259814"><ele>1200.75</ele><time>2026-04-10T15:37:30.999Z</time></trkpt><trkpt lat="41.81271065210981" lon="13.315603640035619"><ele>1201.0</ele><time>2026-04-10T15:37:31.999Z</time></trkpt><trkpt lat="41.81271395935954" lon="13.315445853333808"><ele>1201.0</ele><time>2026-04-10T15:37:32.999Z</time></trkpt><trkpt lat="41.81273123101084" lon="13.31527661558885"><ele>1201.0</ele><time>2026-04-10T15:37:33.999Z</time></trkpt><trkpt lat="41.81276348684319" lon="13.315071375757547"><ele>1201.0</ele><time>2026-04-10T15:37:34.999Z</time></trkpt><trkpt lat="41.81281286462446" lon="13.314879215135118"><ele>1201.0</ele><time>2026-04-10T15:37:35.999Z</time></trkpt><trkpt lat="41.81287230537832" lon="13.314738462792672"><ele>1197.75</ele><time>2026-04-10T15:37:36.999Z</time></trkpt><trkpt lat="41.8129315097599" lon="13.314593095341937"><ele>1194.5</ele><time>2026-04-10T15:37:37.999Z</time></trkpt><trkpt lat="41.813018922988356" lon="13.314448507976785"><ele>1191.25</ele><time>2026-04-10T15:37:38.999Z</time></trkpt><trkpt lat="41.81310546193202" lon="13.314323188906473"><ele>1188.0</ele><time>2026-04-10T15:37:39.999Z</time></trkpt><trkpt lat="41.81319313963991" lon="13.314185324836826"><ele>1188.0</ele><time>2026-04-10T15:37:40.999Z</time></trkpt><trkpt lat="41.81326631560157" lon="13.314035005522587"><ele>1188.0</ele><time>2026-04-10T15:37:41.999Z</time></trkpt><trkpt lat="41.813273534808324" lon="13.3138055392473"><ele>1188.0</ele><time>2026-04-10T15:37:42.999Z</time></trkpt><trkpt lat="41.81327822575215" lon="13.313586590531282"><ele>1185.0</ele><time>2026-04-10T15:37:43.999Z</time></trkpt><trkpt lat="41.813286771174006" lon="13.313399518170112"><ele>1182.0</ele><time>2026-04-10T15:37:44.999Z</time></trkpt><trkpt lat="41.81329981693924" lon="13.313228173126907"><ele>1179.0</ele><time>2026-04-10T15:37:45.999Z</time></trkpt><trkpt lat="41.813312630614824" lon="13.313067119351246"><ele>1176.0</ele><time>2026-04-10T15:37:46.999Z</time></trkpt><trkpt lat="41.81334150519922" lon="13.312921651527933"><ele>1176.25</ele><time>2026-04-10T15:37:47.999Z</time></trkpt><trkpt lat="41.813406172118235" lon="13.31277296124742"><ele>1176.5</ele><time>2026-04-10T15:37:48.999Z</time></trkpt><trkpt lat="41.81348227392387" lon="13.312621042539453"><ele>1176.75</ele><time>2026-04-10T15:37:49.999Z</time></trkpt><trkpt lat="41.81354695269855" lon="13.312481432203484"><ele>1177.0</ele><time>2026-04-10T15:37:50.999Z</time></trkpt><trkpt lat="41.813616044652036" lon="13.312352223013098"><ele>1177.0</ele><time>2026-04-10T15:37:51.999Z</time></trkpt><trkpt lat="41.81370285243792" lon="13.312269012838778"><ele>1177.0</ele><time>2026-04-10T15:37:52.999Z</time></trkpt><trkpt lat="41.813803290087456" lon="13.312175615570474"><ele>1177.0</ele><time>2026-04-10T15:37:53.999Z</time></trkpt><trkpt lat="41.8139202302435" lon="13.312079307414798"><ele>1177.0</ele><time>2026-04-10T15:37:54.999Z</time></trkpt><trkpt lat="41.8140118895248" lon="13.311957388955724"><ele>1173.5</ele><time>2026-04-10T15:37:55.999Z</time></trkpt><trkpt lat="41.814051789099075" lon="13.3117980749727"><ele>1170.0</ele><time>2026-04-10T15:37:56.999Z</time></trkpt><trkpt lat="41.814080599172506" lon="13.311632098043132"><ele>1166.5</ele><time>2026-04-10T15:37:57.999Z</time></trkpt><trkpt lat="41.8141267915698" lon="13.311479457485904"><ele>1163.0</ele><time>2026-04-10T15:37:58.999Z</time></trkpt><trkpt lat="41.81418291425331" lon="13.311340774501385"><ele>1162.25</ele><time>2026-04-10T15:37:59.999Z</time></trkpt><trkpt lat="41.81429644175715" lon="13.311242272858548"><ele>1161.5</ele><time>2026-04-10T15:38:00.999Z</time></trkpt><trkpt lat="41.81440360452338" lon="13.311183195280977"><ele>1160.75</ele><time>2026-04-10T15:38:01.999Z</time></trkpt><trkpt lat="41.81450504984265" lon="13.311135905894425"><ele>1160.0</ele><time>2026-04-10T15:38:02.999Z</time></trkpt><trkpt lat="41.81456885607734" lon="13.311044379710983"><ele>1158.4</ele><time>2026-04-10T15:38:03.999Z</time></trkpt><trkpt lat="41.81461448901189" lon="13.310910800463922"><ele>1156.8</ele><time>2026-04-10T15:38:04.999Z</time></trkpt><trkpt lat="41.814629431418474" lon="13.310782341501307"><ele>1155.2</ele><time>2026-04-10T15:38:05.999Z</time></trkpt><trkpt lat="41.81462104555447" lon="13.31065609237612"><ele>1153.6</ele><time>2026-04-10T15:38:06.999Z</time></trkpt><trkpt lat="41.81458542535203" lon="13.31051689795658"><ele>1152.0</ele><time>2026-04-10T15:38:07.999Z</time></trkpt><trkpt lat="41.814518626575286" lon="13.310378164171706"><ele>1151.5</ele><time>2026-04-10T15:38:08.999Z</time></trkpt><trkpt lat="41.81443753477341" lon="13.310240881314183"><ele>1151.0</ele><time>2026-04-10T15:38:09.999Z</time></trkpt><trkpt lat="41.81434679505828" lon="13.310124688011372"><ele>1150.5</ele><time>2026-04-10T15:38:10.999Z</time></trkpt><trkpt lat="41.81425257808357" lon="13.310036667819176"><ele>1150.0</ele><time>2026-04-10T15:38:11.999Z</time></trkpt><trkpt lat="41.8141673731728" lon="13.309957546382638"><ele>1150.0</ele><time>2026-04-10T15:38:12.999Z</time></trkpt><trkpt lat="41.81406521631799" lon="13.309929088462798"><ele>1150.0</ele><time>2026-04-10T15:38:13.999Z</time></trkpt><trkpt lat="41.81394665579619" lon="13.309954797255736"><ele>1150.0</ele><time>2026-04-10T15:38:14.999Z</time></trkpt><trkpt lat="41.8138303602904" lon="13.310053919926311"><ele>1150.0</ele><time>2026-04-10T15:38:16Z</time></trkpt><trkpt lat="41.813759574649595" lon="13.310221472936014"><ele>1150.0</ele><time>2026-04-10T15:38:17Z</time></trkpt><trkpt lat="41.8137121526122" lon="13.310383413040663"><ele>1150.0</ele><time>2026-04-10T15:38:18Z</time></trkpt><trkpt lat="41.8137057720985" lon="13.310536092162355"><ele>1150.0</ele><time>2026-04-10T15:38:19Z</time></trkpt><trkpt lat="41.813710466313054" lon="13.310685914334885"><ele>1150.0</ele><time>2026-04-10T15:38:20Z</time></trkpt><trkpt lat="41.813772078266354" lon="13.310788452860136"><ele>1152.5</ele><time>2026-04-10T15:38:21Z</time></trkpt><trkpt lat="41.81376070829989" lon="13.310971313443776"><ele>1155.0</ele><time>2026-04-10T15:38:22Z</time></trkpt><trkpt lat="41.81368802799714" lon="13.31114557725452"><ele>1157.5</ele><time>2026-04-10T15:38:23Z</time></trkpt><trkpt lat="41.81364846196224" lon="13.31129132172763"><ele>1160.0</ele><time>2026-04-10T15:38:24Z</time></trkpt><trkpt lat="41.813621854484" lon="13.311447834940386"><ele>1160.6</ele><time>2026-04-10T15:38:25Z</time></trkpt><trkpt lat="41.813566981036374" lon="13.311570037873999"><ele>1161.2</ele><time>2026-04-10T15:38:26Z</time></trkpt><trkpt lat="41.81350608459331" lon="13.311678471473817"><ele>1161.8</ele><time>2026-04-10T15:38:27Z</time></trkpt><trkpt lat="41.81342539305058" lon="13.311772984900964"><ele>1162.4</ele><time>2026-04-10T15:38:28Z</time></trkpt><trkpt lat="41.813309209412274" lon="13.31184204423046"><ele>1163.0</ele><time>2026-04-10T15:38:29Z</time></trkpt><trkpt lat="41.81319989879204" lon="13.311916017369882"><ele>1161.6666666666667</ele><time>2026-04-10T15:38:30Z</time></trkpt><trkpt lat="41.81313174783925" lon="13.312079737971555"><ele>1160.3333333333333</ele><time>2026-04-10T15:38:31Z</time></trkpt><trkpt lat="41.81306023149018" lon="13.312285849629932"><ele>1159.0</ele><time>2026-04-10T15:38:32Z</time></trkpt><trkpt lat="41.81294462212553" lon="13.312528544905398"><ele>1159.0</ele><time>2026-04-10T15:38:33Z</time></trkpt><trkpt lat="41.812785661907014" lon="13.312823756216435"><ele>1159.0</ele><time>2026-04-10T15:38:34Z</time></trkpt><trkpt lat="41.81267545267396" lon="13.31306929404657"><ele>1151.6666666666665</ele><time>2026-04-10T15:38:35Z</time></trkpt><trkpt lat="41.812592496604445" lon="13.313293177881416"><ele>1144.3333333333333</ele><time>2026-04-10T15:38:36Z</time></trkpt><trkpt lat="41.81249132787206" lon="13.313476335734807"><ele>1137.0</ele><time>2026-04-10T15:38:37Z</time></trkpt><trkpt lat="41.8123583812647" lon="13.313596320211564"><ele>1137.0</ele><time>2026-04-10T15:38:38Z</time></trkpt><trkpt lat="41.81220243394991" lon="13.313690452380614"><ele>1137.0</ele><time>2026-04-10T15:38:39Z</time></trkpt><trkpt lat="41.812043616290964" lon="13.313800699050221"><ele>1137.0</ele><time>2026-04-10T15:38:40Z</time></trkpt><trkpt lat="41.81191850675719" lon="13.313961966708625"><ele>1132.3333333333333</ele><time>2026-04-10T15:38:41Z</time></trkpt><trkpt lat="41.811819900500986" lon="13.314145704569905"><ele>1127.6666666666665</ele><time>2026-04-10T15:38:42Z</time></trkpt><trkpt lat="41.811728225870354" lon="13.31430117615466"><ele>1123.0</ele><time>2026-04-10T15:38:43Z</time></trkpt><trkpt lat="41.811635247656994" lon="13.314430525948932"><ele>1123.0</ele><time>2026-04-10T15:38:44Z</time></trkpt><trkpt lat="41.811534263392346" lon="13.314548544309018"><ele>1123.0</ele><time>2026-04-10T15:38:45Z</time></trkpt><trkpt lat="41.811432921239636" lon="13.314631428709049"><ele>1123.0</ele><time>2026-04-10T15:38:46Z</time></trkpt><trkpt lat="41.811327002153796" lon="13.31465305493572"><ele>1123.0</ele><time>2026-04-10T15:38:47Z</time></trkpt><trkpt lat="41.81121975651053" lon="13.314599700416995"><ele>1123.0</ele><time>2026-04-10T15:38:48Z</time></trkpt><trkpt lat="41.81111303857817" lon="13.314500844763693"><ele>1123.0</ele><time>2026-04-10T15:38:49Z</time></trkpt><trkpt lat="41.81104691079043" lon="13.314356829326151"><ele>1123.0</ele><time>2026-04-10T15:38:50Z</time></trkpt><trkpt lat="41.81099468129584" lon="13.314209324787315"><ele>1123.0</ele><time>2026-04-10T15:38:51Z</time></trkpt><trkpt lat="41.81098432155851" lon="13.314060350546354"><ele>1123.0</ele><time>2026-04-10T15:38:51.999Z</time></trkpt><trkpt lat="41.8110284486623" lon="13.313934888189916"><ele>1123.0</ele><time>2026-04-10T15:38:52.999Z</time></trkpt><trkpt lat="41.81112115378463" lon="13.313787482409044"><ele>1123.0</ele><time>2026-04-10T15:38:53.999Z</time></trkpt><trkpt lat="41.81124776782967" lon="13.313640427025897"><ele>1123.0</ele><time>2026-04-10T15:38:54.999Z</time></trkpt><trkpt lat="41.81134138419024" lon="13.313491389209926"><ele>1120.75</ele><time>2026-04-10T15:38:55.999Z</time></trkpt><trkpt lat="41.81140125105417" lon="13.31333068359506"><ele>1118.5</ele><time>2026-04-10T15:38:56.999Z</time></trkpt><trkpt lat="41.81144426416846" lon="13.313155152354812"><ele>1116.25</ele><time>2026-04-10T15:38:57.999Z</time></trkpt><trkpt lat="41.81145677421308" lon="13.313003461191228"><ele>1114.0</ele><time>2026-04-10T15:38:58.999Z</time></trkpt><trkpt lat="41.81142222356822" lon="13.31280748107888"><ele>1112.75</ele><time>2026-04-10T15:38:59.999Z</time></trkpt><trkpt lat="41.811360147969324" lon="13.312643813369183"><ele>1111.5</ele><time>2026-04-10T15:39:00.999Z</time></trkpt><trkpt lat="41.81129574233141" lon="13.312487700195932"><ele>1110.25</ele><time>2026-04-10T15:39:01.999Z</time></trkpt><trkpt lat="41.81124411868753" lon="13.312345407130692"><ele>1109.0</ele><time>2026-04-10T15:39:02.999Z</time></trkpt><trkpt lat="41.811222031749686" lon="13.312230171108398"><ele>1108.0</ele><time>2026-04-10T15:39:03.999Z</time></trkpt><trkpt lat="41.811260113256644" lon="13.312081484038105"><ele>1107.0</ele><time>2026-04-10T15:39:04.999Z</time></trkpt><trkpt lat="41.81132793289449" lon="13.31196500296019"><ele>1106.0</ele><time>2026-04-10T15:39:05.999Z</time></trkpt><trkpt lat="41.8114427685871" lon="13.31186113969054"><ele>1105.0</ele><time>2026-04-10T15:39:06.999Z</time></trkpt><trkpt lat="41.811557739744295" lon="13.311735211390632"><ele>1105.0</ele><time>2026-04-10T15:39:07.999Z</time></trkpt><trkpt lat="41.811602771861644" lon="13.311558181113975"><ele>1105.0</ele><time>2026-04-10T15:39:08.999Z</time></trkpt><trkpt lat="41.81159342653648" lon="13.311368197926305"><ele>1105.0</ele><time>2026-04-10T15:39:09.999Z</time></trkpt><trkpt lat="41.81157861589277" lon="13.311168890616994"><ele>1105.0</ele><time>2026-04-10T15:39:10.999Z</time></trkpt><trkpt lat="41.81155642108148" lon="13.310934307909069"><ele>1103.3333333333333</ele><time>2026-04-10T15:39:11.999Z</time></trkpt><trkpt lat="41.811529139351386" lon="13.310726788748644"><ele>1101.6666666666667</ele><time>2026-04-10T15:39:12.999Z</time></trkpt><trkpt lat="41.81149884750014" lon="13.310501474717446"><ele>1100.0</ele><time>2026-04-10T15:39:13.999Z</time></trkpt><trkpt lat="41.811466140156995" lon="13.310273023270062"><ele>1099.6666666666667</ele><time>2026-04-10T15:39:14.999Z</time></trkpt><trkpt lat="41.81143598846716" lon="13.310059331703977"><ele>1099.3333333333333</ele><time>2026-04-10T15:39:15.999Z</time></trkpt><trkpt lat="41.8114095230427" lon="13.30984596985138"><ele>1099.0</ele><time>2026-04-10T15:39:16.999Z</time></trkpt><trkpt lat="41.81137719347624" lon="13.30964951769168"><ele>1097.25</ele><time>2026-04-10T15:39:17.999Z</time></trkpt><trkpt lat="41.8113485053538" lon="13.309482470408009"><ele>1095.5</ele><time>2026-04-10T15:39:18.999Z</time></trkpt><trkpt lat="41.81131416952523" lon="13.309302943352224"><ele>1093.75</ele><time>2026-04-10T15:39:19.999Z</time></trkpt><trkpt lat="41.81127635765229" lon="13.30914279728524"><ele>1092.0</ele><time>2026-04-10T15:39:20.999Z</time></trkpt><trkpt lat="41.81122636635522" lon="13.308982300623606"><ele>1090.5</ele><time>2026-04-10T15:39:21.999Z</time></trkpt><trkpt lat="41.811180463604764" lon="13.308843003654106"><ele>1089.0</ele><time>2026-04-10T15:39:22.999Z</time></trkpt><trkpt lat="41.81111422829065" lon="13.308741861787658"><ele>1087.5</ele><time>2026-04-10T15:39:23.999Z</time></trkpt><trkpt lat="41.81101505791299" lon="13.308650083384638"><ele>1086.0</ele><time>2026-04-10T15:39:24.999Z</time></trkpt><trkpt lat="41.81089656337273" lon="13.308616174336938"><ele>1084.75</ele><time>2026-04-10T15:39:25.999Z</time></trkpt><trkpt lat="41.81077724940743" lon="13.308638807801255"><ele>1083.5</ele><time>2026-04-10T15:39:26.999Z</time></trkpt><trkpt lat="41.81066678433994" lon="13.30870728442629"><ele>1082.25</ele><time>2026-04-10T15:39:27.999Z</time></trkpt><trkpt lat="41.81058103967822" lon="13.308783339864153"><ele>1081.0</ele><time>2026-04-10T15:39:28.999Z</time></trkpt><trkpt lat="41.810486561694496" lon="13.308937556996844"><ele>1080.0</ele><time>2026-04-10T15:39:29.999Z</time></trkpt><trkpt lat="41.81040245142294" lon="13.309102880304247"><ele>1079.0</ele><time>2026-04-10T15:39:30.999Z</time></trkpt><trkpt lat="41.81029088402347" lon="13.30931650246083"><ele>1078.0</ele><time>2026-04-10T15:39:31.999Z</time></trkpt><trkpt lat="41.81022291733824" lon="13.309420318369556"><ele>1077.0</ele><time>2026-04-10T15:39:32.999Z</time></trkpt><trkpt lat="41.810146722466044" lon="13.309494218360987"><ele>1077.0</ele><time>2026-04-10T15:39:33.999Z</time></trkpt><trkpt lat="41.81002106135328" lon="13.309504890460294"><ele>1077.0</ele><time>2026-04-10T15:39:34.999Z</time></trkpt><trkpt lat="41.80989952732996" lon="13.309529933840352"><ele>1077.0</ele><time>2026-04-10T15:39:35.999Z</time></trkpt><trkpt lat="41.80974374632912" lon="13.309603374686041"><ele>1077.0</ele><time>2026-04-10T15:39:36.999Z</time></trkpt><trkpt lat="41.809589432237445" lon="13.30967599048958"><ele>1077.0</ele><time>2026-04-10T15:39:37.999Z</time></trkpt><trkpt lat="41.80945028651581" lon="13.309740934741864"><ele>1077.0</ele><time>2026-04-10T15:39:38.999Z</time></trkpt><trkpt lat="41.809325149591615" lon="13.309816598438237"><ele>1077.0</ele><time>2026-04-10T15:39:39.999Z</time></trkpt><trkpt lat="41.80920480529095" lon="13.309926733902808"><ele>1077.0</ele><time>2026-04-10T15:39:40.999Z</time></trkpt><trkpt lat="41.80910846577795" lon="13.310097174421996"><ele>1076.5</ele><time>2026-04-10T15:39:41.999Z</time></trkpt><trkpt lat="41.80904854836972" lon="13.310291050592866"><ele>1076.0</ele><time>2026-04-10T15:39:42.999Z</time></trkpt><trkpt lat="41.80900624673537" lon="13.310471929673431"><ele>1075.5</ele><time>2026-04-10T15:39:43.999Z</time></trkpt><trkpt lat="41.808985681707625" lon="13.310652670488095"><ele>1075.0</ele><time>2026-04-10T15:39:44.999Z</time></trkpt><trkpt lat="41.808996311456134" lon="13.310828724481654"><ele>1075.75</ele><time>2026-04-10T15:39:45.999Z</time></trkpt><trkpt lat="41.80902404802358" lon="13.311007097821955"><ele>1076.5</ele><time>2026-04-10T15:39:46.999Z</time></trkpt><trkpt lat="41.80902331060944" lon="13.311169768181282"><ele>1077.25</ele><time>2026-04-10T15:39:47.999Z</time></trkpt><trkpt lat="41.80897211239504" lon="13.311299677945838"><ele>1078.0</ele><time>2026-04-10T15:39:48.999Z</time></trkpt><trkpt lat="41.80891030085349" lon="13.3114332852506"><ele>1078.0</ele><time>2026-04-10T15:39:49.999Z</time></trkpt><trkpt lat="41.808821977230394" lon="13.311507363612368"><ele>1078.0</ele><time>2026-04-10T15:39:50.999Z</time></trkpt><trkpt lat="41.80869602181165" lon="13.311479480564227"><ele>1078.0</ele><time>2026-04-10T15:39:51.999Z</time></trkpt><trkpt lat="41.80860371038579" lon="13.31142265999322"><ele>1078.0</ele><time>2026-04-10T15:39:52.999Z</time></trkpt><trkpt lat="41.80852711239132" lon="13.311276686902486"><ele>1069.6666666666665</ele><time>2026-04-10T15:39:53.999Z</time></trkpt><trkpt lat="41.8084682669713" lon="13.311095573739061"><ele>1061.3333333333333</ele><time>2026-04-10T15:39:54.999Z</time></trkpt><trkpt lat="41.808428766390925" lon="13.310889922295175"><ele>1053.0</ele><time>2026-04-10T15:39:55.999Z</time></trkpt><trkpt lat="41.8083699880825" lon="13.310659429856653"><ele>1052.6666666666667</ele><time>2026-04-10T15:39:56.999Z</time></trkpt><trkpt lat="41.808329167561176" lon="13.31045224816396"><ele>1052.3333333333335</ele><time>2026-04-10T15:39:57.999Z</time></trkpt><trkpt lat="41.80831999443535" lon="13.310238364030877"><ele>1052.0</ele><time>2026-04-10T15:39:58.999Z</time></trkpt><trkpt lat="41.80830708225007" lon="13.31002493575507"><ele>1052.0</ele><time>2026-04-10T15:39:59.999Z</time></trkpt><trkpt lat="41.80828094142029" lon="13.309819373564196"><ele>1052.0</ele><time>2026-04-10T15:40:00.999Z</time></trkpt><trkpt lat="41.8082671842546" lon="13.309632612942854"><ele>1052.0</ele><time>2026-04-10T15:40:01.999Z</time></trkpt><trkpt lat="41.808270012933775" lon="13.309469393348664"><ele>1052.0</ele><time>2026-04-10T15:40:02.999Z</time></trkpt><trkpt lat="41.80829862367952" lon="13.309335705718961"><ele>1049.75</ele><time>2026-04-10T15:40:03.999Z</time></trkpt><trkpt lat="41.80836693967858" lon="13.309210954270288"><ele>1047.5</ele><time>2026-04-10T15:40:04.999Z</time></trkpt><trkpt lat="41.80850408445204" lon="13.30911420716033"><ele>1045.25</ele><time>2026-04-10T15:40:05.999Z</time></trkpt><trkpt lat="41.80865604807154" lon="13.309015764728626"><ele>1043.0</ele><time>2026-04-10T15:40:06.999Z</time></trkpt><trkpt lat="41.8087819659986" lon="13.308930444041314"><ele>1044.75</ele><time>2026-04-10T15:40:07.999Z</time></trkpt><trkpt lat="41.80884492773389" lon="13.308765320768915"><ele>1046.5</ele><time>2026-04-10T15:40:08.999Z</time></trkpt><trkpt lat="41.808906763049386" lon="13.308567977076311"><ele>1048.25</ele><time>2026-04-10T15:40:09.999Z</time></trkpt><trkpt lat="41.8089677573399" lon="13.308386471165038"><ele>1050.0</ele><time>2026-04-10T15:40:10.999Z</time></trkpt><trkpt lat="41.809041967224445" lon="13.308226618569279"><ele>1050.0</ele><time>2026-04-10T15:40:11.999Z</time></trkpt><trkpt lat="41.80912127366265" lon="13.308141125094451"><ele>1050.0</ele><time>2026-04-10T15:40:12.999Z</time></trkpt><trkpt lat="41.80925351133113" lon="13.30803163811836"><ele>1050.0</ele><time>2026-04-10T15:40:13.999Z</time></trkpt><trkpt lat="41.809371210591046" lon="13.307938905328626"><ele>1050.0</ele><time>2026-04-10T15:40:14.999Z</time></trkpt><trkpt lat="41.80946973445308" lon="13.30782395783892"><ele>1051.3333333333333</ele><time>2026-04-10T15:40:15.999Z</time></trkpt><trkpt lat="41.80953133046518" lon="13.30764195548538"><ele>1052.6666666666665</ele><time>2026-04-10T15:40:16.999Z</time></trkpt><trkpt lat="41.80957310915523" lon="13.307426374918128"><ele>1054.0</ele><time>2026-04-10T15:40:17.999Z</time></trkpt><trkpt lat="41.80960874727584" lon="13.307187683870046"><ele>1049.6666666666665</ele><time>2026-04-10T15:40:18.999Z</time></trkpt><trkpt lat="41.80967477385519" lon="13.306960348392845"><ele>1045.3333333333333</ele><time>2026-04-10T15:40:19.999Z</time></trkpt><trkpt lat="41.80976864883073" lon="13.306750299915366"><ele>1041.0</ele><time>2026-04-10T15:40:20.999Z</time></trkpt><trkpt lat="41.80985983675317" lon="13.3065588373213"><ele>1038.5</ele><time>2026-04-10T15:40:22Z</time></trkpt><trkpt lat="41.809933327793416" lon="13.306388511747128"><ele>1036.0</ele><time>2026-04-10T15:40:23Z</time></trkpt><trkpt lat="41.809983178559285" lon="13.30622045771747"><ele>1033.5</ele><time>2026-04-10T15:40:24Z</time></trkpt><trkpt lat="41.809978702928056" lon="13.30602467836307"><ele>1031.0</ele><time>2026-04-10T15:40:25Z</time></trkpt><trkpt lat="41.80994055150627" lon="13.30579165258613"><ele>1028.3333333333335</ele><time>2026-04-10T15:40:26Z</time></trkpt><trkpt lat="41.80990458847711" lon="13.305535284697337"><ele>1025.6666666666667</ele><time>2026-04-10T15:40:27Z</time></trkpt><trkpt lat="41.80992967242916" lon="13.305283018001576"><ele>1023.0</ele><time>2026-04-10T15:40:28Z</time></trkpt><trkpt lat="41.80995950678559" lon="13.305027488453515"><ele>1023.0</ele><time>2026-04-10T15:40:29Z</time></trkpt><trkpt lat="41.809987202866104" lon="13.304810578285668"><ele>1023.0</ele><time>2026-04-10T15:40:30Z</time></trkpt><trkpt lat="41.81000840937843" lon="13.304608723304483"><ele>1023.0</ele><time>2026-04-10T15:40:31Z</time></trkpt><trkpt lat="41.81003122320381" lon="13.304441124449609"><ele>1023.0</ele><time>2026-04-10T15:40:32Z</time></trkpt><trkpt lat="41.81009269916502" lon="13.304313574325944"><ele>1024.0</ele><time>2026-04-10T15:40:33Z</time></trkpt><trkpt lat="41.8102151041089" lon="13.304228045501779"><ele>1025.0</ele><time>2026-04-10T15:40:34Z</time></trkpt><trkpt lat="41.81036831728344" lon="13.304127733741492"><ele>1026.0</ele><time>2026-04-10T15:40:35Z</time></trkpt><trkpt lat="41.81053158537212" lon="13.304029760721107"><ele>1026.0</ele><time>2026-04-10T15:40:36Z</time></trkpt><trkpt lat="41.81066316849901" lon="13.303935575726774"><ele>1026.0</ele><time>2026-04-10T15:40:37Z</time></trkpt><trkpt lat="41.81079007756019" lon="13.30386023872431"><ele>1026.0</ele><time>2026-04-10T15:40:38Z</time></trkpt><trkpt lat="41.81090024911829" lon="13.303747474308887"><ele>1026.0</ele><time>2026-04-10T15:40:39Z</time></trkpt><trkpt lat="41.810908203613586" lon="13.303553881969767"><ele>1022.3333333333333</ele><time>2026-04-10T15:40:40Z</time></trkpt><trkpt lat="41.81091178731842" lon="13.303335419457134"><ele>1018.6666666666666</ele><time>2026-04-10T15:40:41Z</time></trkpt><trkpt lat="41.81090311134001" lon="13.30307411863534"><ele>1015.0</ele><time>2026-04-10T15:40:42Z</time></trkpt><trkpt lat="41.81088311678394" lon="13.302861589835791"><ele>1012.5</ele><time>2026-04-10T15:40:43Z</time></trkpt><trkpt lat="41.81088632187939" lon="13.302683722741683"><ele>1010.0</ele><time>2026-04-10T15:40:44Z</time></trkpt><trkpt lat="41.81093660138671" lon="13.302547378124219"><ele>1007.5</ele><time>2026-04-10T15:40:45Z</time></trkpt><trkpt lat="41.81104627707918" lon="13.302417811237985"><ele>1005.0</ele><time>2026-04-10T15:40:46Z</time></trkpt><trkpt lat="41.81119569267944" lon="13.302283172878417"><ele>1003.2</ele><time>2026-04-10T15:40:47Z</time></trkpt><trkpt lat="41.81130704046823" lon="13.302190688860216"><ele>1001.4</ele><time>2026-04-10T15:40:48Z</time></trkpt><trkpt lat="41.81144097219809" lon="13.302149874694619"><ele>999.5999999999999</ele><time>2026-04-10T15:40:49Z</time></trkpt><trkpt lat="41.81153228266281" lon="13.302148062383404"><ele>997.8</ele><time>2026-04-10T15:40:50Z</time></trkpt><trkpt lat="41.81160309063248" lon="13.302153499430238"><ele>996.0</ele><time>2026-04-10T15:40:51Z</time></trkpt><trkpt lat="41.81170548371809" lon="13.302219882199749"><ele>995.75</ele><time>2026-04-10T15:40:51.999Z</time></trkpt><trkpt lat="41.811798840043345" lon="13.30230118686072"><ele>995.5</ele><time>2026-04-10T15:40:52.999Z</time></trkpt><trkpt lat="41.81187810092456" lon="13.30243398409038"><ele>995.25</ele><time>2026-04-10T15:40:53.999Z</time></trkpt><trkpt lat="41.81192846931274" lon="13.30260979452483"><ele>995.0</ele><time>2026-04-10T15:40:54.999Z</time></trkpt><trkpt lat="41.81200820315568" lon="13.302761054553681"><ele>995.0</ele><time>2026-04-10T15:40:55.999Z</time></trkpt><trkpt lat="41.81208483180577" lon="13.302885972518682"><ele>995.0</ele><time>2026-04-10T15:40:56.999Z</time></trkpt><trkpt lat="41.812206924591315" lon="13.302942144750245"><ele>995.0</ele><time>2026-04-10T15:40:57.999Z</time></trkpt><trkpt lat="41.81234182125325" lon="13.302962634992397"><ele>995.0</ele><time>2026-04-10T15:40:58.999Z</time></trkpt><trkpt lat="41.812450430595874" lon="13.302957140646118"><ele>995.0</ele><time>2026-04-10T15:40:59.999Z</time></trkpt><trkpt lat="41.81254191316342" lon="13.302909689117234"><ele>995.0</ele><time>2026-04-10T15:41:00.999Z</time></trkpt><trkpt lat="41.81261325094233" lon="13.302797953751462"><ele>995.0</ele><time>2026-04-10T15:41:01.999Z</time></trkpt><trkpt lat="41.81263308815588" lon="13.302626926812342"><ele>995.0</ele><time>2026-04-10T15:41:02.999Z</time></trkpt><trkpt lat="41.812618792072094" lon="13.302454636088601"><ele>995.0</ele><time>2026-04-10T15:41:03.999Z</time></trkpt><trkpt lat="41.812630162578905" lon="13.302263531652633"><ele>995.0</ele><time>2026-04-10T15:41:04.999Z</time></trkpt><trkpt lat="41.81271250001221" lon="13.302091153224422"><ele>995.0</ele><time>2026-04-10T15:41:05.999Z</time></trkpt><trkpt lat="41.81280046392536" lon="13.301962651526232"><ele>995.0</ele><time>2026-04-10T15:41:06.999Z</time></trkpt><trkpt lat="41.81291867854116" lon="13.301895766927808"><ele>991.0</ele><time>2026-04-10T15:41:07.999Z</time></trkpt><trkpt lat="41.813058967630994" lon="13.301851453971203"><ele>987.0</ele><time>2026-04-10T15:41:08.999Z</time></trkpt><trkpt lat="41.81323129053488" lon="13.301781594599785"><ele>983.0</ele><time>2026-04-10T15:41:09.999Z</time></trkpt><trkpt lat="41.81335512777974" lon="13.30164465985324"><ele>983.0</ele><time>2026-04-10T15:41:10.999Z</time></trkpt><trkpt lat="41.813443537648716" lon="13.301486623510405"><ele>983.0</ele><time>2026-04-10T15:41:11.999Z</time></trkpt><trkpt lat="41.8135315878039" lon="13.301366280132806"><ele>983.0</ele><time>2026-04-10T15:41:12.999Z</time></trkpt><trkpt lat="41.81363965289296" lon="13.301319337995665"><ele>983.0</ele><time>2026-04-10T15:41:13.999Z</time></trkpt><trkpt lat="41.813776501349196" lon="13.301343876609433"><ele>983.5</ele><time>2026-04-10T15:41:14.999Z</time></trkpt><trkpt lat="41.81392038382549" lon="13.301400169081813"><ele>984.0</ele><time>2026-04-10T15:41:15.999Z</time></trkpt><trkpt lat="41.81404697541435" lon="13.301440598539111"><ele>984.5</ele><time>2026-04-10T15:41:16.999Z</time></trkpt><trkpt lat="41.814172728547874" lon="13.301414258956463"><ele>985.0</ele><time>2026-04-10T15:41:17.999Z</time></trkpt><trkpt lat="41.8142913198348" lon="13.301334006621806"><ele>985.25</ele><time>2026-04-10T15:41:18.999Z</time></trkpt><trkpt lat="41.814391882347955" lon="13.301226775981021"><ele>985.5</ele><time>2026-04-10T15:41:19.999Z</time></trkpt><trkpt lat="41.814472217271046" lon="13.301067588597355"><ele>985.75</ele><time>2026-04-10T15:41:20.999Z</time></trkpt><trkpt lat="41.814517005935606" lon="13.300870820826217"><ele>986.0</ele><time>2026-04-10T15:41:21.999Z</time></trkpt><trkpt lat="41.81454247236897" lon="13.300666554848393"><ele>983.0</ele><time>2026-04-10T15:41:22.999Z</time></trkpt><trkpt lat="41.81454083521665" lon="13.30045935450219"><ele>980.0</ele><time>2026-04-10T15:41:23.999Z</time></trkpt><trkpt lat="41.814489678156335" lon="13.300288825901179"><ele>977.0</ele><time>2026-04-10T15:41:24.999Z</time></trkpt><trkpt lat="41.81440068782263" lon="13.300120174473205"><ele>974.0</ele><time>2026-04-10T15:41:25.999Z</time></trkpt><trkpt lat="41.81428814042046" lon="13.299949360884485"><ele>970.3333333333334</ele><time>2026-04-10T15:41:26.999Z</time></trkpt><trkpt lat="41.814186624477436" lon="13.29976377832144"><ele>966.6666666666667</ele><time>2026-04-10T15:41:27.999Z</time></trkpt><trkpt lat="41.81412710506958" lon="13.299566268811581"><ele>963.0</ele><time>2026-04-10T15:41:28.999Z</time></trkpt><trkpt lat="41.81406429948365" lon="13.299379314656157"><ele>960.5</ele><time>2026-04-10T15:41:29.999Z</time></trkpt><trkpt lat="41.81401068523424" lon="13.299213124980367"><ele>958.0</ele><time>2026-04-10T15:41:30.999Z</time></trkpt><trkpt lat="41.81394746581768" lon="13.299041245520625"><ele>955.5</ele><time>2026-04-10T15:41:31.999Z</time></trkpt><trkpt lat="41.813856110017" lon="13.29890922309682"><ele>953.0</ele><time>2026-04-10T15:41:32.999Z</time></trkpt><trkpt lat="41.813759990018006" lon="13.29881228879187"><ele>952.4</ele><time>2026-04-10T15:41:33.999Z</time></trkpt><trkpt lat="41.81365073803901" lon="13.298749765188218"><ele>951.8</ele><time>2026-04-10T15:41:34.999Z</time></trkpt><trkpt lat="41.81354872150721" lon="13.298758969231029"><ele>951.2</ele><time>2026-04-10T15:41:35.999Z</time></trkpt><trkpt lat="41.81344299007474" lon="13.298831482765312"><ele>950.6</ele><time>2026-04-10T15:41:36.999Z</time></trkpt><trkpt lat="41.813370741034724" lon="13.298937289270114"><ele>950.0</ele><time>2026-04-10T15:41:37.999Z</time></trkpt><trkpt lat="41.81334488292807" lon="13.299100099312785"><ele>950.0</ele><time>2026-04-10T15:41:38.999Z</time></trkpt><trkpt lat="41.813363868288064" lon="13.29925760225352"><ele>950.0</ele><time>2026-04-10T15:41:39.999Z</time></trkpt><trkpt lat="41.81337897016379" lon="13.29946588454028"><ele>950.0</ele><time>2026-04-10T15:41:40.999Z</time></trkpt><trkpt lat="41.81337707924853" lon="13.299625136847649"><ele>950.0</ele><time>2026-04-10T15:41:41.999Z</time></trkpt><trkpt lat="41.81332029911585" lon="13.299800927022334"><ele>951.5</ele><time>2026-04-10T15:41:43.999Z</time></trkpt><trkpt lat="41.8131969861791" lon="13.299977912823374"><ele>953.0</ele><time>2026-04-10T15:41:44.999Z</time></trkpt><trkpt lat="41.81310232131784" lon="13.300014785134586"><ele>954.5</ele><time>2026-04-10T15:41:45.999Z</time></trkpt><trkpt lat="41.81299811201997" lon="13.299994226776892"><ele>956.0</ele><time>2026-04-10T15:41:46.999Z</time></trkpt><trkpt lat="41.81287080324798" lon="13.299965952151624"><ele>956.0</ele><time>2026-04-10T15:41:47.999Z</time></trkpt><trkpt lat="41.81276459564373" lon="13.299813649433732"><ele>956.0</ele><time>2026-04-10T15:41:48.999Z</time></trkpt><trkpt lat="41.81267659893234" lon="13.2996217600818"><ele>956.0</ele><time>2026-04-10T15:41:49.999Z</time></trkpt><trkpt lat="41.81255173002775" lon="13.29939579330304"><ele>952.0</ele><time>2026-04-10T15:41:50.999Z</time></trkpt><trkpt lat="41.812462679950656" lon="13.29919248292508"><ele>948.0</ele><time>2026-04-10T15:41:51.999Z</time></trkpt><trkpt lat="41.81238488438786" lon="13.29897734564779"><ele>944.0</ele><time>2026-04-10T15:41:52.999Z</time></trkpt><trkpt lat="41.812362080009144" lon="13.298743712854288"><ele>941.0</ele><time>2026-04-10T15:41:53.999Z</time></trkpt><trkpt lat="41.81234407027659" lon="13.298546601135303"><ele>938.0</ele><time>2026-04-10T15:41:54.999Z</time></trkpt><trkpt lat="41.81232542045866" lon="13.298371055977235"><ele>935.0</ele><time>2026-04-10T15:41:55.999Z</time></trkpt><trkpt lat="41.81227083780675" lon="13.298198859885586"><ele>932.0</ele><time>2026-04-10T15:41:56.999Z</time></trkpt><trkpt lat="41.81219288098217" lon="13.298066751483834"><ele>929.75</ele><time>2026-04-10T15:41:57.999Z</time></trkpt><trkpt lat="41.81208699161171" lon="13.297981487313006"><ele>927.5</ele><time>2026-04-10T15:41:58.999Z</time></trkpt><trkpt lat="41.811979064289" lon="13.297914923457608"><ele>925.25</ele><time>2026-04-10T15:41:59.999Z</time></trkpt><trkpt lat="41.81187638386825" lon="13.297838443075081"><ele>923.0</ele><time>2026-04-10T15:42:00.999Z</time></trkpt><trkpt lat="41.811794843555894" lon="13.297720259711452"><ele>922.75</ele><time>2026-04-10T15:42:01.999Z</time></trkpt><trkpt lat="41.811736342604675" lon="13.29758179211613"><ele>922.5</ele><time>2026-04-10T15:42:02.999Z</time></trkpt><trkpt lat="41.81170135829061" lon="13.297417834567183"><ele>922.25</ele><time>2026-04-10T15:42:03.999Z</time></trkpt><trkpt lat="41.81164530929488" lon="13.297265464758576"><ele>922.0</ele><time>2026-04-10T15:42:04.999Z</time></trkpt><trkpt lat="41.81157890355357" lon="13.297126782887974"><ele>919.0</ele><time>2026-04-10T15:42:05.999Z</time></trkpt><trkpt lat="41.81146795400036" lon="13.297025676863399"><ele>916.0</ele><time>2026-04-10T15:42:06.999Z</time></trkpt><trkpt lat="41.81134074267528" lon="13.296977444566133"><ele>913.0</ele><time>2026-04-10T15:42:07.999Z</time></trkpt><trkpt lat="41.81120792161775" lon="13.296963504916334"><ele>910.0</ele><time>2026-04-10T15:42:08.999Z</time></trkpt><trkpt lat="41.811073885376906" lon="13.296964630102346"><ele>911.0</ele><time>2026-04-10T15:42:09.999Z</time></trkpt><trkpt lat="41.810952593301295" lon="13.296973217854"><ele>912.0</ele><time>2026-04-10T15:42:10.999Z</time></trkpt><trkpt lat="41.810815522913956" lon="13.296982401956532"><ele>913.0</ele><time>2026-04-10T15:42:11.999Z</time></trkpt><trkpt lat="41.8106739498926" lon="13.296992194414424"><ele>914.0</ele><time>2026-04-10T15:42:12.999Z</time></trkpt><trkpt lat="41.810523207871256" lon="13.29701472024294"><ele>914.0</ele><time>2026-04-10T15:42:13.999Z</time></trkpt><trkpt lat="41.81040547778243" lon="13.297088156725852"><ele>914.0</ele><time>2026-04-10T15:42:14.999Z</time></trkpt><trkpt lat="41.81029740287911" lon="13.29718456073183"><ele>914.0</ele><time>2026-04-10T15:42:15.999Z</time></trkpt><trkpt lat="41.81022019274656" lon="13.29738676093925"><ele>914.0</ele><time>2026-04-10T15:42:16.999Z</time></trkpt><trkpt lat="41.81015114652193" lon="13.297575402113566"><ele>910.75</ele><time>2026-04-10T15:42:17.999Z</time></trkpt><trkpt lat="41.81008498154195" lon="13.297730496230578"><ele>907.5</ele><time>2026-04-10T15:42:18.999Z</time></trkpt><trkpt lat="41.810004726388854" lon="13.297834461688296"><ele>904.25</ele><time>2026-04-10T15:42:19.999Z</time></trkpt><trkpt lat="41.80990661922601" lon="13.29789991321286"><ele>901.0</ele><time>2026-04-10T15:42:20.999Z</time></trkpt><trkpt lat="41.80977384894326" lon="13.297901213795484"><ele>901.0</ele><time>2026-04-10T15:42:21.999Z</time></trkpt><trkpt lat="41.80963198295079" lon="13.297890727240894"><ele>901.0</ele><time>2026-04-10T15:42:22.999Z</time></trkpt><trkpt lat="41.80949045007331" lon="13.297928204351921"><ele>901.0</ele><time>2026-04-10T15:42:23.999Z</time></trkpt><trkpt lat="41.80934539214154" lon="13.2980651009731"><ele>901.6666666666666</ele><time>2026-04-10T15:42:24.999Z</time></trkpt><trkpt lat="41.8091826061179" lon="13.298203694708592"><ele>902.3333333333333</ele><time>2026-04-10T15:42:25.999Z</time></trkpt><trkpt lat="41.809050967252325" lon="13.298321928953104"><ele>903.0</ele><time>2026-04-10T15:42:26.999Z</time></trkpt><trkpt lat="41.80895151023647" lon="13.298432281688704"><ele>903.0</ele><time>2026-04-10T15:42:27.999Z</time></trkpt><trkpt lat="41.808855310927996" lon="13.298517735126113"><ele>903.0</ele><time>2026-04-10T15:42:29Z</time></trkpt><trkpt lat="41.80879835308902" lon="13.298610463715443"><ele>903.0</ele><time>2026-04-10T15:42:30Z</time></trkpt><trkpt lat="41.80875050632117" lon="13.298772597619909"><ele>903.0</ele><time>2026-04-10T15:42:31Z</time></trkpt><trkpt lat="41.80873753512973" lon="13.298957143041685"><ele>906.5</ele><time>2026-04-10T15:42:32Z</time></trkpt><trkpt lat="41.8087165007415" lon="13.299157321882142"><ele>910.0</ele><time>2026-04-10T15:42:33Z</time></trkpt><trkpt lat="41.80870402293898" lon="13.299347017404202"><ele>913.5</ele><time>2026-04-10T15:42:34Z</time></trkpt><trkpt lat="41.80867878823167" lon="13.299509816619146"><ele>917.0</ele><time>2026-04-10T15:42:35Z</time></trkpt><trkpt lat="41.808631150920185" lon="13.299658207095362"><ele>919.0</ele><time>2026-04-10T15:42:36Z</time></trkpt><trkpt lat="41.80857007588608" lon="13.299760352122576"><ele>921.0</ele><time>2026-04-10T15:42:37Z</time></trkpt><trkpt lat="41.80849851863888" lon="13.29981750967643"><ele>923.0</ele><time>2026-04-10T15:42:38Z</time></trkpt><trkpt lat="41.80841403994145" lon="13.299828946393134"><ele>925.0</ele><time>2026-04-10T15:42:39Z</time></trkpt><trkpt lat="41.80830097789281" lon="13.29974851685207"><ele>927.0</ele><time>2026-04-10T15:42:40Z</time></trkpt><trkpt lat="41.808176799033006" lon="13.299657050893646"><ele>920.0</ele><time>2026-04-10T15:42:41Z</time></trkpt><trkpt lat="41.80803442412709" lon="13.29964938635035"><ele>913.0</ele><time>2026-04-10T15:42:42Z</time></trkpt><trkpt lat="41.80790593482524" lon="13.299695486866849"><ele>906.0</ele><time>2026-04-10T15:42:43Z</time></trkpt><trkpt lat="41.80778784106029" lon="13.299764792370269"><ele>899.0</ele><time>2026-04-10T15:42:44Z</time></trkpt><trkpt lat="41.8076718801913" lon="13.299848438271708"><ele>888.6666666666667</ele><time>2026-04-10T15:42:45Z</time></trkpt><trkpt lat="41.80757981722297" lon="13.29998097737186"><ele>878.3333333333333</ele><time>2026-04-10T15:42:46Z</time></trkpt><trkpt lat="41.807500556000484" lon="13.300178257223603"><ele>868.0</ele><time>2026-04-10T15:42:47Z</time></trkpt><trkpt lat="41.807453570130555" lon="13.300404696863568"><ele>873.0</ele><time>2026-04-10T15:42:48Z</time></trkpt><trkpt lat="41.80742607010377" lon="13.300631274853291"><ele>878.0</ele><time>2026-04-10T15:42:49Z</time></trkpt><trkpt lat="41.807399225251295" lon="13.300818657529756"><ele>883.0</ele><time>2026-04-10T15:42:50Z</time></trkpt><trkpt lat="41.80733184502211" lon="13.300993577515431"><ele>883.0</ele><time>2026-04-10T15:42:50.999Z</time></trkpt><trkpt lat="41.80724921026412" lon="13.301144058772465"><ele>883.0</ele><time>2026-04-10T15:42:51.999Z</time></trkpt><trkpt lat="41.80713155772851" lon="13.301320983072479"><ele>883.0</ele><time>2026-04-10T15:42:52.999Z</time></trkpt><trkpt lat="41.80707700492781" lon="13.301518514742794"><ele>887.3333333333333</ele><time>2026-04-10T15:42:53.999Z</time></trkpt><trkpt lat="41.80703760673853" lon="13.301749707991295"><ele>891.6666666666667</ele><time>2026-04-10T15:42:54.999Z</time></trkpt><trkpt lat="41.807029349418585" lon="13.301984970056585"><ele>896.0</ele><time>2026-04-10T15:42:55.999Z</time></trkpt><trkpt lat="41.8070357439552" lon="13.302220584240303"><ele>895.6666666666667</ele><time>2026-04-10T15:42:56.999Z</time></trkpt><trkpt lat="41.80704663196007" lon="13.302486148165508"><ele>895.3333333333333</ele><time>2026-04-10T15:42:57.999Z</time></trkpt><trkpt lat="41.8070731965862" lon="13.30273911483326"><ele>895.0</ele><time>2026-04-10T15:42:58.999Z</time></trkpt><trkpt lat="41.80710465573292" lon="13.302985497990107"><ele>892.6666666666666</ele><time>2026-04-10T15:42:59.999Z</time></trkpt><trkpt lat="41.80713044679637" lon="13.303225074651007"><ele>890.3333333333333</ele><time>2026-04-10T15:43:00.999Z</time></trkpt><trkpt lat="41.80715981411134" lon="13.303470515420772"><ele>888.0</ele><time>2026-04-10T15:43:01.999Z</time></trkpt><trkpt lat="41.807194665373146" lon="13.303724242572914"><ele>885.0</ele><time>2026-04-10T15:43:02.999Z</time></trkpt><trkpt lat="41.80722527554985" lon="13.303972969830088"><ele>882.0</ele><time>2026-04-10T15:43:03.999Z</time></trkpt><trkpt lat="41.80726027694962" lon="13.304215845609516"><ele>879.0</ele><time>2026-04-10T15:43:04.999Z</time></trkpt><trkpt lat="41.807275667306314" lon="13.304461971916872"><ele>879.0</ele><time>2026-04-10T15:43:05.999Z</time></trkpt><trkpt lat="41.8072820915226" lon="13.304662398692379"><ele>879.0</ele><time>2026-04-10T15:43:06.999Z</time></trkpt><trkpt lat="41.807271897658715" lon="13.304846548138501"><ele>879.0</ele><time>2026-04-10T15:43:07.999Z</time></trkpt><trkpt lat="41.80723242070179" lon="13.305016416757764"><ele>879.0</ele><time>2026-04-10T15:43:08.999Z</time></trkpt><trkpt lat="41.807155033005074" lon="13.305144922803388"><ele>879.6666666666667</ele><time>2026-04-10T15:43:09.999Z</time></trkpt><trkpt lat="41.80701902942987" lon="13.30527218573079"><ele>880.3333333333334</ele><time>2026-04-10T15:43:10.999Z</time></trkpt><trkpt lat="41.806872491264926" lon="13.30539147631534"><ele>881.0</ele><time>2026-04-10T15:43:11.999Z</time></trkpt><trkpt lat="41.806685076325934" lon="13.305506093581316"><ele>875.6666666666667</ele><time>2026-04-10T15:43:12.999Z</time></trkpt><trkpt lat="41.80650970149386" lon="13.305602704206091"><ele>870.3333333333333</ele><time>2026-04-10T15:43:13.999Z</time></trkpt><trkpt lat="41.806358896371414" lon="13.305686708214564"><ele>865.0</ele><time>2026-04-10T15:43:14.999Z</time></trkpt><trkpt lat="41.80613447661989" lon="13.305794975878664"><ele>865.0</ele><time>2026-04-10T15:43:15.999Z</time></trkpt><trkpt lat="41.806015984358694" lon="13.305981127517372"><ele>865.0</ele><time>2026-04-10T15:43:16.999Z</time></trkpt><trkpt lat="41.80593296026536" lon="13.3062121287301"><ele>865.0</ele><time>2026-04-10T15:43:17.999Z</time></trkpt><trkpt lat="41.80585120610823" lon="13.30655714296232"><ele>854.0</ele><time>2026-04-10T15:43:18.999Z</time></trkpt><trkpt lat="41.805699299685365" lon="13.306884315941952"><ele>843.0</ele><time>2026-04-10T15:43:19.999Z</time></trkpt><trkpt lat="41.80556517198805" lon="13.307215124494261"><ele>847.5</ele><time>2026-04-10T15:43:20.999Z</time></trkpt><trkpt lat="41.80544747547504" lon="13.30752371044707"><ele>852.0</ele><time>2026-04-10T15:43:21.999Z</time></trkpt><trkpt lat="41.80532137726259" lon="13.307813182708486"><ele>852.0</ele><time>2026-04-10T15:43:22.999Z</time></trkpt><trkpt lat="41.805188078721805" lon="13.308061989452721"><ele>852.0</ele><time>2026-04-10T15:43:23.999Z</time></trkpt><trkpt lat="41.805054171846805" lon="13.308302404077569"><ele>843.0</ele><time>2026-04-10T15:43:24.999Z</time></trkpt><trkpt lat="41.80489200577773" lon="13.30852821610109"><ele>834.0</ele><time>2026-04-10T15:43:25.999Z</time></trkpt><trkpt lat="41.80475317231376" lon="13.308769785828272"><ele>839.5</ele><time>2026-04-10T15:43:26.999Z</time></trkpt><trkpt lat="41.80460808302727" lon="13.309016255422156"><ele>845.0</ele><time>2026-04-10T15:43:27.999Z</time></trkpt><trkpt lat="41.80447020408654" lon="13.309253436499327"><ele>845.0</ele><time>2026-04-10T15:43:28.999Z</time></trkpt><trkpt lat="41.804362452258935" lon="13.3094712551896"><ele>845.0</ele><time>2026-04-10T15:43:29.999Z</time></trkpt><trkpt lat="41.80423900266378" lon="13.309673902155462"><ele>845.0</ele><time>2026-04-10T15:43:30.999Z</time></trkpt><trkpt lat="41.80414790392833" lon="13.30983359678971"><ele>838.6666666666667</ele><time>2026-04-10T15:43:31.999Z</time></trkpt><trkpt lat="41.80406088587791" lon="13.31000386716849"><ele>832.3333333333333</ele><time>2026-04-10T15:43:32.999Z</time></trkpt><trkpt lat="41.80400834722588" lon="13.310187487689985"><ele>826.0</ele><time>2026-04-10T15:43:33.999Z</time></trkpt><trkpt lat="41.80400224864291" lon="13.310404481039878"><ele>827.75</ele><time>2026-04-10T15:43:34.999Z</time></trkpt><trkpt lat="41.80398414554455" lon="13.31060865948061"><ele>829.5</ele><time>2026-04-10T15:43:35.999Z</time></trkpt><trkpt lat="41.80396636060666" lon="13.310764716157125"><ele>831.25</ele><time>2026-04-10T15:43:36.999Z</time></trkpt><trkpt lat="41.80393722988049" lon="13.31087837201191"><ele>833.0</ele><time>2026-04-10T15:43:37.999Z</time></trkpt><trkpt lat="41.803880286448525" lon="13.31098898063774"><ele>833.0000000000001</ele><time>2026-04-10T15:43:38.999Z</time></trkpt><trkpt lat="41.80380125087399" lon="13.311030767881798"><ele>833.0</ele><time>2026-04-10T15:43:39.999Z</time></trkpt><trkpt lat="41.80372190140607" lon="13.311008982227097"><ele>833.0</ele><time>2026-04-10T15:43:40.999Z</time></trkpt><trkpt lat="41.803646313393855" lon="13.310965936650417"><ele>833.0</ele><time>2026-04-10T15:43:41.999Z</time></trkpt><trkpt lat="41.80358399267075" lon="13.310878818141084"><ele>833.0000000000001</ele><time>2026-04-10T15:43:43Z</time></trkpt><trkpt lat="41.803544187666795" lon="13.310760632824186"><ele>833.0</ele><time>2026-04-10T15:43:44Z</time></trkpt><trkpt lat="41.803584773935356" lon="13.310580551248608"><ele>830.6666666666667</ele><time>2026-04-10T15:43:45Z</time></trkpt><trkpt lat="41.80365150209031" lon="13.310373039468823"><ele>828.3333333333333</ele><time>2026-04-10T15:43:46Z</time></trkpt><trkpt lat="41.803759409114264" lon="13.310079057713242"><ele>826.0</ele><time>2026-04-10T15:43:47Z</time></trkpt><trkpt lat="41.803895445546395" lon="13.309778881555197"><ele>819.5</ele><time>2026-04-10T15:43:48Z</time></trkpt><trkpt lat="41.80404113700582" lon="13.309466330835251"><ele>813.0</ele><time>2026-04-10T15:43:49Z</time></trkpt><trkpt lat="41.80416143461163" lon="13.30917073513552"><ele>806.0</ele><time>2026-04-10T15:43:50Z</time></trkpt><trkpt lat="41.80425707949729" lon="13.3088841281072"><ele>799.0</ele><time>2026-04-10T15:43:51Z</time></trkpt><trkpt lat="41.80433371420015" lon="13.308589987291176"><ele>810.5</ele><time>2026-04-10T15:43:52Z</time></trkpt><trkpt lat="41.8043699736832" lon="13.308260254690884"><ele>822.0</ele><time>2026-04-10T15:43:53Z</time></trkpt><trkpt lat="41.80439466026034" lon="13.307806450174489"><ele>822.0</ele><time>2026-04-10T15:43:54Z</time></trkpt><trkpt lat="41.80443893034961" lon="13.307491176441427"><ele>822.0</ele><time>2026-04-10T15:43:55Z</time></trkpt><trkpt lat="41.80450327028776" lon="13.307222445904621"><ele>817.6666666666667</ele><time>2026-04-10T15:43:56Z</time></trkpt><trkpt lat="41.80458296426265" lon="13.30696951885019"><ele>813.3333333333334</ele><time>2026-04-10T15:43:57Z</time></trkpt><trkpt lat="41.8046708099753" lon="13.30674344453798"><ele>809.0</ele><time>2026-04-10T15:43:58Z</time></trkpt><trkpt lat="41.80479257762999" lon="13.30653485328202"><ele>803.6666666666667</ele><time>2026-04-10T15:43:59Z</time></trkpt><trkpt lat="41.80493482751723" lon="13.306313914087573"><ele>798.3333333333333</ele><time>2026-04-10T15:44:00Z</time></trkpt><trkpt lat="41.80503161634142" lon="13.30605449588665"><ele>793.0</ele><time>2026-04-10T15:44:01Z</time></trkpt><trkpt lat="41.80510645685963" lon="13.305754988380883"><ele>799.3333333333333</ele><time>2026-04-10T15:44:02Z</time></trkpt><trkpt lat="41.805163052832576" lon="13.305485552522224"><ele>805.6666666666667</ele><time>2026-04-10T15:44:03Z</time></trkpt><trkpt lat="41.80518885361957" lon="13.305290346439884"><ele>812.0</ele><time>2026-04-10T15:44:04Z</time></trkpt><trkpt lat="41.805240198481954" lon="13.305084027265186"><ele>812.0</ele><time>2026-04-10T15:44:05Z</time></trkpt><trkpt lat="41.80531770596941" lon="13.304929032380425"><ele>812.0</ele><time>2026-04-10T15:44:06Z</time></trkpt><trkpt lat="41.80543953489336" lon="13.304845448817401"><ele>812.0</ele><time>2026-04-10T15:44:07Z</time></trkpt><trkpt lat="41.80558993581769" lon="13.304770781313408"><ele>812.0</ele><time>2026-04-10T15:44:08Z</time></trkpt><trkpt lat="41.805751748880944" lon="13.304671091200442"><ele>816.25</ele><time>2026-04-10T15:44:09Z</time></trkpt><trkpt lat="41.8058902697749" lon="13.304602157684458"><ele>820.5</ele><time>2026-04-10T15:44:10Z</time></trkpt><trkpt lat="41.80599243022429" lon="13.304522597480869"><ele>824.75</ele><time>2026-04-10T15:44:11Z</time></trkpt><trkpt lat="41.80605314884394" lon="13.304387193802125"><ele>829.0</ele><time>2026-04-10T15:44:12Z</time></trkpt><trkpt lat="41.80609039911988" lon="13.30422688884679"><ele>829.0</ele><time>2026-04-10T15:44:13Z</time></trkpt><trkpt lat="41.806081463175495" lon="13.30402920946263"><ele>829.0</ele><time>2026-04-10T15:44:14Z</time></trkpt><trkpt lat="41.80601536739564" lon="13.303753630214366"><ele>829.0</ele><time>2026-04-10T15:44:15Z</time></trkpt><trkpt lat="41.80596248740043" lon="13.303510285342002"><ele>813.6666666666666</ele><time>2026-04-10T15:44:16Z</time></trkpt><trkpt lat="41.80590117646493" lon="13.303241499059864"><ele>798.3333333333333</ele><time>2026-04-10T15:44:17Z</time></trkpt><trkpt lat="41.80584691002766" lon="13.302993511354167"><ele>783.0</ele><time>2026-04-10T15:44:18Z</time></trkpt><trkpt lat="41.805789540554926" lon="13.302800102166568"><ele>783.0</ele><time>2026-04-10T15:44:19Z</time></trkpt><trkpt lat="41.80574786945728" lon="13.302592943806953"><ele>783.0</ele><time>2026-04-10T15:44:20Z</time></trkpt><trkpt lat="41.80572611458143" lon="13.302396843216343"><ele>783.0</ele><time>2026-04-10T15:44:21Z</time></trkpt><trkpt lat="41.805716028539386" lon="13.302232090966076"><ele>783.0</ele><time>2026-04-10T15:44:22Z</time></trkpt><trkpt lat="41.805708571000324" lon="13.302075192274181"><ele>782.5</ele><time>2026-04-10T15:44:23Z</time></trkpt><trkpt lat="41.805732983903724" lon="13.301970606758744"><ele>782.0</ele><time>2026-04-10T15:44:24Z</time></trkpt><trkpt lat="41.80574111794465" lon="13.301840879385816"><ele>781.5</ele><time>2026-04-10T15:44:25Z</time></trkpt><trkpt lat="41.80573128238651" lon="13.301742970919062"><ele>781.0</ele><time>2026-04-10T15:44:26Z</time></trkpt><trkpt lat="41.80567499916459" lon="13.30168360892921"><ele>780.5</ele><time>2026-04-10T15:44:27Z</time></trkpt><trkpt lat="41.805607299284084" lon="13.30166621344705"><ele>780.0</ele><time>2026-04-10T15:44:28Z</time></trkpt><trkpt lat="41.80554034285285" lon="13.301709772971403"><ele>780.0</ele><time>2026-04-10T15:44:29Z</time></trkpt><trkpt lat="41.80546482073815" lon="13.301795098546663"><ele>780.0</ele><time>2026-04-10T15:44:30Z</time></trkpt><trkpt lat="41.805466830687294" lon="13.301958299869776"><ele>780.0</ele><time>2026-04-10T15:44:31Z</time></trkpt><trkpt lat="41.80548316723431" lon="13.302132546941312"><ele>780.0</ele><time>2026-04-10T15:44:32Z</time></trkpt><trkpt lat="41.805498539437814" lon="13.302321379093458"><ele>781.0</ele><time>2026-04-10T15:44:33Z</time></trkpt><trkpt lat="41.80551539158058" lon="13.302551613247404"><ele>782.0</ele><time>2026-04-10T15:44:34.001Z</time></trkpt><trkpt lat="41.80553009994368" lon="13.302758443417709"><ele>783.0</ele><time>2026-04-10T15:44:35.001Z</time></trkpt><trkpt lat="41.805549182858776" lon="13.302967447754984"><ele>783.0</ele><time>2026-04-10T15:44:36.001Z</time></trkpt><trkpt lat="41.80556084980368" lon="13.303079960443759"><ele>783.0</ele><time>2026-04-10T15:44:37.001Z</time></trkpt><trkpt lat="41.805594890523366" lon="13.303264561153703"><ele>783.0</ele><time>2026-04-10T15:44:38.001Z</time></trkpt><trkpt lat="41.805621060207486" lon="13.303438880011583"><ele>783.0</ele><time>2026-04-10T15:44:39.001Z</time></trkpt><trkpt lat="41.80563014861791" lon="13.303607366525723"><ele>782.75</ele><time>2026-04-10T15:44:40.001Z</time></trkpt><trkpt lat="41.805625088517516" lon="13.303772213974824"><ele>782.5</ele><time>2026-04-10T15:44:41.001Z</time></trkpt><trkpt lat="41.80556937676642" lon="13.303918767363344"><ele>782.25</ele><time>2026-04-10T15:44:42.001Z</time></trkpt><trkpt lat="41.805500408769184" lon="13.304036322621409"><ele>782.0</ele><time>2026-04-10T15:44:43.001Z</time></trkpt><trkpt lat="41.80541111081965" lon="13.304111728119903"><ele>782.0</ele><time>2026-04-10T15:44:44.001Z</time></trkpt><trkpt lat="41.80532502706372" lon="13.30418695568934"><ele>782.0</ele><time>2026-04-10T15:44:45.001Z</time></trkpt><trkpt lat="41.805135087213976" lon="13.30407466083646"><ele>782.0</ele><time>2026-04-10T15:44:46.001Z</time></trkpt><trkpt lat="41.80493104638296" lon="13.30411221934531"><ele>770.3333333333334</ele><time>2026-04-10T15:44:47.001Z</time></trkpt><trkpt lat="41.804754472214874" lon="13.30420523753655"><ele>758.6666666666667</ele><time>2026-04-10T15:44:48.001Z</time></trkpt><trkpt lat="41.80460125579683" lon="13.304366507845799"><ele>747.0</ele><time>2026-04-10T15:44:49.001Z</time></trkpt><trkpt lat="41.80446065406103" lon="13.304525581225397"><ele>747.0</ele><time>2026-04-10T15:44:50.001Z</time></trkpt><trkpt lat="41.80433067814353" lon="13.304652593367365"><ele>747.0</ele><time>2026-04-10T15:44:51.001Z</time></trkpt><trkpt lat="41.804237868931324" lon="13.30476168119366"><ele>747.0</ele><time>2026-04-10T15:44:52Z</time></trkpt><trkpt lat="41.804133189640176" lon="13.304910238007094"><ele>747.0</ele><time>2026-04-10T15:44:53Z</time></trkpt><trkpt lat="41.804078267914" lon="13.30509065502353"><ele>748.3333333333334</ele><time>2026-04-10T15:44:54Z</time></trkpt><trkpt lat="41.804067377330426" lon="13.305319343203712"><ele>749.6666666666667</ele><time>2026-04-10T15:44:55Z</time></trkpt><trkpt lat="41.80404919101345" lon="13.305532552498596"><ele>751.0</ele><time>2026-04-10T15:44:56Z</time></trkpt><trkpt lat="41.80396608014911" lon="13.30565918693412"><ele>751.0</ele><time>2026-04-10T15:44:57Z</time></trkpt><trkpt lat="41.80382493798993" lon="13.305788366134035"><ele>751.0</ele><time>2026-04-10T15:44:58Z</time></trkpt><trkpt lat="41.803678503360835" lon="13.305942184897116"><ele>751.0</ele><time>2026-04-10T15:44:59Z</time></trkpt><trkpt lat="41.80356428349569" lon="13.306210016338413"><ele>736.0</ele><time>2026-04-10T15:45:00Z</time></trkpt><trkpt lat="41.803469887420555" lon="13.3065382381355"><ele>721.0</ele><time>2026-04-10T15:45:01Z</time></trkpt><trkpt lat="41.80333113099184" lon="13.306886048832462"><ele>721.0</ele><time>2026-04-10T15:45:02Z</time></trkpt><trkpt lat="41.80319256654641" lon="13.307134967625755"><ele>721.0</ele><time>2026-04-10T15:45:03Z</time></trkpt><trkpt lat="41.80307264386418" lon="13.307357619047565"><ele>721.0</ele><time>2026-04-10T15:45:04Z</time></trkpt><trkpt lat="41.80299205487301" lon="13.30757315874803"><ele>727.3333333333334</ele><time>2026-04-10T15:45:05Z</time></trkpt><trkpt lat="41.80292289203709" lon="13.307788991228904"><ele>733.6666666666666</ele><time>2026-04-10T15:45:06Z</time></trkpt><trkpt lat="41.80288497436113" lon="13.308000379438187"><ele>740.0</ele><time>2026-04-10T15:45:07Z</time></trkpt><trkpt lat="41.802846879270966" lon="13.308213030316583"><ele>743.3333333333333</ele><time>2026-04-10T15:45:08Z</time></trkpt><trkpt lat="41.80278847921314" lon="13.3084113929777"><ele>746.6666666666666</ele><time>2026-04-10T15:45:09Z</time></trkpt><trkpt lat="41.80269567500084" lon="13.308608505590106"><ele>750.0</ele><time>2026-04-10T15:45:10Z</time></trkpt><trkpt lat="41.80258622338838" lon="13.308808397579043"><ele>736.6666666666666</ele><time>2026-04-10T15:45:11Z</time></trkpt><trkpt lat="41.80245166915582" lon="13.308957219474433"><ele>723.3333333333333</ele><time>2026-04-10T15:45:12Z</time></trkpt><trkpt lat="41.8023369217234" lon="13.309123640658335"><ele>710.0</ele><time>2026-04-10T15:45:13Z</time></trkpt><trkpt lat="41.80223676975362" lon="13.309286376852993"><ele>710.0</ele><time>2026-04-10T15:45:14Z</time></trkpt><trkpt lat="41.80214855804786" lon="13.309465348401652"><ele>710.0</ele><time>2026-04-10T15:45:15Z</time></trkpt><trkpt lat="41.80207583343759" lon="13.309646818585465"><ele>710.0</ele><time>2026-04-10T15:45:16Z</time></trkpt><trkpt lat="41.80199184620101" lon="13.309826351414374"><ele>718.6666666666666</ele><time>2026-04-10T15:45:17Z</time></trkpt><trkpt lat="41.80190091330031" lon="13.309993386359736"><ele>727.3333333333334</ele><time>2026-04-10T15:45:18Z</time></trkpt><trkpt lat="41.80180364797102" lon="13.310154864334823"><ele>736.0</ele><time>2026-04-10T15:45:19Z</time></trkpt><trkpt lat="41.80171266892906" lon="13.310323907791947"><ele>727.0</ele><time>2026-04-10T15:45:20Z</time></trkpt><trkpt lat="41.80163452792236" lon="13.310478355327643"><ele>718.0</ele><time>2026-04-10T15:45:21Z</time></trkpt><trkpt lat="41.80156536414079" lon="13.310622768688312"><ele>709.0</ele><time>2026-04-10T15:45:22Z</time></trkpt><trkpt lat="41.80149114176714" lon="13.310771007733118"><ele>700.0</ele><time>2026-04-10T15:45:23Z</time></trkpt><trkpt lat="41.80141720676879" lon="13.310907183438403"><ele>700.0</ele><time>2026-04-10T15:45:24Z</time></trkpt><trkpt lat="41.801338296288044" lon="13.311023716652306"><ele>700.0</ele><time>2026-04-10T15:45:25Z</time></trkpt><trkpt lat="41.801273292307215" lon="13.311121793860249"><ele>700.0</ele><time>2026-04-10T15:45:26Z</time></trkpt><trkpt lat="41.80118186532702" lon="13.311248183400973"><ele>700.0</ele><time>2026-04-10T15:45:28Z</time></trkpt><trkpt lat="41.80114107369476" lon="13.311317385229652"><ele>700.0</ele><time>2026-04-10T15:45:29Z</time></trkpt><trkpt lat="41.801091602438994" lon="13.311381467353597"><ele>696.2</ele><time>2026-04-10T15:45:30Z</time></trkpt><trkpt lat="41.801034786764184" lon="13.311453451159867"><ele>692.4</ele><time>2026-04-10T15:45:31Z</time></trkpt><trkpt lat="41.80094008764728" lon="13.31156184855148"><ele>688.5999999999999</ele><time>2026-04-10T15:45:32Z</time></trkpt><trkpt lat="41.80086616596877" lon="13.311641537774202"><ele>684.8</ele><time>2026-04-10T15:45:33Z</time></trkpt><trkpt lat="41.80080325363928" lon="13.311730528684818"><ele>681.0</ele><time>2026-04-10T15:45:34Z</time></trkpt><trkpt lat="41.80074267676842" lon="13.311826062139263"><ele>681.0</ele><time>2026-04-10T15:45:35Z</time></trkpt><trkpt lat="41.80069972834214" lon="13.311935126203169"><ele>681.0</ele><time>2026-04-10T15:45:36Z</time></trkpt><trkpt lat="41.800680731752244" lon="13.312060341926076"><ele>681.0</ele><time>2026-04-10T15:45:37Z</time></trkpt><trkpt lat="41.800683581321735" lon="13.312190616453533"><ele>681.0</ele><time>2026-04-10T15:45:38Z</time></trkpt><trkpt lat="41.80069578152156" lon="13.312321386726294"><ele>681.0</ele><time>2026-04-10T15:45:39Z</time></trkpt><trkpt lat="41.800704183702905" lon="13.312448232425043"><ele>680.8</ele><time>2026-04-10T15:45:40Z</time></trkpt><trkpt lat="41.80070809833184" lon="13.312580721517195"><ele>680.5999999999999</ele><time>2026-04-10T15:45:41Z</time></trkpt><trkpt lat="41.800698103524844" lon="13.31270865307703"><ele>680.4</ele><time>2026-04-10T15:45:42Z</time></trkpt><trkpt lat="41.800682687961285" lon="13.31283925052318"><ele>680.2</ele><time>2026-04-10T15:45:43Z</time></trkpt><trkpt lat="41.80066705743067" lon="13.312965612671007"><ele>680.0</ele><time>2026-04-10T15:45:44Z</time></trkpt><trkpt lat="41.80064840026868" lon="13.313092091937955"><ele>680.0</ele><time>2026-04-10T15:45:45Z</time></trkpt><trkpt lat="41.8006337054351" lon="13.313221440893587"><ele>680.0</ele><time>2026-04-10T15:45:46Z</time></trkpt><trkpt lat="41.80063409715409" lon="13.313349039915762"><ele>680.0</ele><time>2026-04-10T15:45:47Z</time></trkpt><trkpt lat="41.80065812942578" lon="13.313481662427192"><ele>680.0</ele><time>2026-04-10T15:45:48Z</time></trkpt><trkpt lat="41.80069919318259" lon="13.313605891184888"><ele>680.0</ele><time>2026-04-10T15:45:49Z</time></trkpt><trkpt lat="41.80075256269253" lon="13.313719083003807"><ele>680.0</ele><time>2026-04-10T15:45:50Z</time></trkpt><trkpt lat="41.80081246504682" lon="13.313823193689801"><ele>680.0</ele><time>2026-04-10T15:45:51Z</time></trkpt><trkpt lat="41.80087126219702" lon="13.313921964609184"><ele>680.0</ele><time>2026-04-10T15:45:52Z</time></trkpt><trkpt lat="41.80090807152135" lon="13.314027314132206"><ele>680.0</ele><time>2026-04-10T15:45:53Z</time></trkpt><trkpt lat="41.80091972661145" lon="13.314133722076969"><ele>680.0</ele><time>2026-04-10T15:45:54Z</time></trkpt><trkpt lat="41.80091091987536" lon="13.314244839099901"><ele>680.0</ele><time>2026-04-10T15:45:55Z</time></trkpt><trkpt lat="41.80088009215398" lon="13.314359132762897"><ele>679.0</ele><time>2026-04-10T15:45:56Z</time></trkpt><trkpt lat="41.80084122293745" lon="13.314468033771165"><ele>678.0</ele><time>2026-04-10T15:45:57Z</time></trkpt><trkpt lat="41.800741970855164" lon="13.314549314299562"><ele>677.0</ele><time>2026-04-10T15:45:59Z</time></trkpt><trkpt lat="41.800681964065134" lon="13.314590925522133"><ele>676.0</ele><time>2026-04-10T15:46:00Z</time></trkpt><trkpt lat="41.80060749260721" lon="13.314586635217436"><ele>675.0</ele><time>2026-04-10T15:46:01Z</time></trkpt><trkpt lat="41.80053589755501" lon="13.314380231319129"><ele>675.0</ele><time>2026-04-10T15:46:02Z</time></trkpt><trkpt lat="41.80048660076448" lon="13.314256258179277"><ele>675.0</ele><time>2026-04-10T15:46:03Z</time></trkpt><trkpt lat="41.800456640165244" lon="13.314131713276385"><ele>675.0</ele><time>2026-04-10T15:46:04Z</time></trkpt><trkpt lat="41.80042619184149" lon="13.313998759321954"><ele>675.0</ele><time>2026-04-10T15:46:05Z</time></trkpt><trkpt lat="41.800393233642694" lon="13.3138683917524"><ele>675.0</ele><time>2026-04-10T15:46:06Z</time></trkpt><trkpt lat="41.800374088755525" lon="13.313749850375997"><ele>676.0</ele><time>2026-04-10T15:46:07Z</time></trkpt><trkpt lat="41.80033053499307" lon="13.313626241666489"><ele>677.0</ele><time>2026-04-10T15:46:08Z</time></trkpt><trkpt lat="41.80030014706336" lon="13.313522045181529"><ele>678.0</ele><time>2026-04-10T15:46:09Z</time></trkpt><trkpt lat="41.80026375645876" lon="13.313412696837856"><ele>679.0</ele><time>2026-04-10T15:46:10Z</time></trkpt><trkpt lat="41.80021968836625" lon="13.313304114501136"><ele>680.0</ele><time>2026-04-10T15:46:11Z</time></trkpt><trkpt lat="41.80018838455264" lon="13.313198609777787"><ele>676.5</ele><time>2026-04-10T15:46:12Z</time></trkpt><trkpt lat="41.80014355529739" lon="13.31309618043188"><ele>673.0</ele><time>2026-04-10T15:46:13Z</time></trkpt><trkpt lat="41.80011022772403" lon="13.313017202026227"><ele>669.5</ele><time>2026-04-10T15:46:14Z</time></trkpt><trkpt lat="41.80005772311219" lon="13.312952674280476"><ele>666.0</ele><time>2026-04-10T15:46:15Z</time></trkpt><trkpt lat="41.7999944545497" lon="13.312853267421888"><ele>662.5</ele><time>2026-04-10T15:46:17Z</time></trkpt><trkpt lat="41.79990697416863" lon="13.312785397898253"><ele>659.0</ele><time>2026-04-10T15:46:19Z</time></trkpt><trkpt lat="41.799858253860414" lon="13.312723500081534"><ele>659.0</ele><time>2026-04-10T15:46:26Z</time></trkpt><trkpt lat="41.79978353745152" lon="13.312781616824275"><ele>659.0</ele><time>2026-04-10T15:48:43Z</time></trkpt><trkpt lat="41.799718355162284" lon="13.312770694759047"><ele>659.0</ele><time>2026-04-10T15:51:44Z</time></trkpt><trkpt lat="41.79969027428935" lon="13.312691465948307"><ele>659.0</ele><time>2026-04-10T15:51:55Z</time></trkpt><trkpt lat="41.79975242273555" lon="13.312677948460195"><ele>659.0</ele><time>2026-04-10T15:52:52Z</time></trkpt><trkpt lat="41.799790794752646" lon="13.312757002709974"><ele>659.0</ele><time>2026-04-10T15:55:41Z</time></trkpt><trkpt lat="41.799724668671026" lon="13.31272058715615"><ele>659.0</ele><time>2026-04-10T15:57:55Z</time></trkpt><trkpt lat="41.7996617807486" lon="13.312687263318047"><ele>659.0</ele><time>2026-04-10T15:57:57Z</time></trkpt><trkpt lat="41.799603625566625" lon="13.312652182231227"><ele>659.0</ele><time>2026-04-10T15:57:59Z</time></trkpt><trkpt lat="41.799553527450286" lon="13.312558117962562"><ele>659.0</ele><time>2026-04-10T15:58:00Z</time></trkpt><trkpt lat="41.79947783774333" lon="13.312519879286816"><ele>659.0</ele><time>2026-04-10T15:58:03Z</time></trkpt><trkpt lat="41.799395553883315" lon="13.312528088633421"><ele>659.0</ele><time>2026-04-10T15:58:07Z</time></trkpt><trkpt lat="41.79934548973766" lon="13.312623511377554"><ele>659.0</ele><time>2026-04-10T15:58:09Z</time></trkpt><trkpt lat="41.79932951159913" lon="13.312769880076011"><ele>659.0</ele><time>2026-04-10T15:58:11Z</time></trkpt><trkpt lat="41.79939377830248" lon="13.312894032349549"><ele>659.0</ele><time>2026-04-10T15:58:13Z</time></trkpt><trkpt lat="41.79945108362455" lon="13.312937819355795"><ele>659.0</ele><time>2026-04-10T15:58:14Z</time></trkpt><trkpt lat="41.799506626972544" lon="13.31299093350455"><ele>659.0</ele><time>2026-04-10T15:58:15Z</time></trkpt><trkpt lat="41.79960071903699" lon="13.31307617018185"><ele>659.0</ele><time>2026-04-10T15:58:17Z</time></trkpt><trkpt lat="41.79969491513674" lon="13.31317989441"><ele>657.2</ele><time>2026-04-10T15:58:19Z</time></trkpt><trkpt lat="41.799778863472795" lon="13.313273006581477"><ele>655.4000000000001</ele><time>2026-04-10T15:58:20Z</time></trkpt><trkpt lat="41.79982391702087" lon="13.313333355364849"><ele>653.6</ele><time>2026-04-10T15:58:21Z</time></trkpt><trkpt lat="41.79986839871933" lon="13.313471965274887"><ele>651.8</ele><time>2026-04-10T15:58:23Z</time></trkpt><trkpt lat="41.79990712659656" lon="13.313641322207692"><ele>650.0</ele><time>2026-04-10T15:58:25Z</time></trkpt><trkpt lat="41.79993159768808" lon="13.313727860780038"><ele>650.0</ele><time>2026-04-10T15:58:26Z</time></trkpt><trkpt lat="41.7999580100192" lon="13.313818702244669"><ele>650.0</ele><time>2026-04-10T15:58:27Z</time></trkpt><trkpt lat="41.79999078421941" lon="13.313932294817539"><ele>650.0</ele><time>2026-04-10T15:58:28Z</time></trkpt><trkpt lat="41.80001254006954" lon="13.314021711242418"><ele>650.0</ele><time>2026-04-10T15:58:29Z</time></trkpt><trkpt lat="41.799951555822965" lon="13.314089589174326"><ele>650.0</ele><time>2026-04-10T15:58:31Z</time></trkpt><trkpt lat="41.79987478122878" lon="13.314014859739645"><ele>650.0</ele><time>2026-04-10T15:58:34Z</time></trkpt><trkpt lat="41.799862114686356" lon="13.31391500881426"><ele>650.0</ele><time>2026-04-10T15:58:35Z</time></trkpt><trkpt lat="41.799856365633254" lon="13.313806028617568"><ele>650.0</ele><time>2026-04-10T15:58:36Z</time></trkpt><trkpt lat="41.79984043847549" lon="13.31370461994889"><ele>650.0</ele><time>2026-04-10T15:58:37Z</time></trkpt><trkpt lat="41.799816928714556" lon="13.31361045079596"><ele>650.0</ele><time>2026-04-10T15:58:38Z</time></trkpt><trkpt lat="41.79979929405394" lon="13.313508108701122"><ele>650.0</ele><time>2026-04-10T15:58:39Z</time></trkpt><trkpt lat="41.799776716628024" lon="13.313414755347194"><ele>650.0</ele><time>2026-04-10T15:58:40Z</time></trkpt><trkpt lat="41.7996885444298" lon="13.313337146357174"><ele>650.0</ele><time>2026-04-10T15:58:42Z</time></trkpt><trkpt lat="41.799558994082446" lon="13.313315327583345"><ele>650.0</ele><time>2026-04-10T15:58:44Z</time></trkpt><trkpt lat="41.79949661314123" lon="13.31349788519512"><ele>650.0</ele><time>2026-04-10T15:58:45Z</time></trkpt><trkpt lat="41.79949822231469" lon="13.31359444940364"><ele>650.0</ele><time>2026-04-10T15:58:46Z</time></trkpt><trkpt lat="41.799484734517776" lon="13.313682506999342"><ele>650.0</ele><time>2026-04-10T15:58:47Z</time></trkpt><trkpt lat="41.799509824875216" lon="13.313845500998225"><ele>649.8333333333333</ele><time>2026-04-10T15:58:49Z</time></trkpt><trkpt lat="41.79951253907592" lon="13.314000189778017"><ele>649.6666666666666</ele><time>2026-04-10T15:58:51Z</time></trkpt><trkpt lat="41.79951877793367" lon="13.314148676452339"><ele>649.5</ele><time>2026-04-10T15:58:53Z</time></trkpt><trkpt lat="41.79952676767059" lon="13.314234657494278"><ele>649.3333333333334</ele><time>2026-04-10T15:58:54Z</time></trkpt><trkpt lat="41.79953085501211" lon="13.314335106167139"><ele>649.1666666666667</ele><time>2026-04-10T15:58:55Z</time></trkpt><trkpt lat="41.79953431575851" lon="13.31444041717683"><ele>649.0</ele><time>2026-04-10T15:58:56Z</time></trkpt><trkpt lat="41.79954110140528" lon="13.314542379951414"><ele>649.0</ele><time>2026-04-10T15:58:57Z</time></trkpt><trkpt lat="41.799558387521365" lon="13.31465539107033"><ele>649.0</ele><time>2026-04-10T15:58:58Z</time></trkpt><trkpt lat="41.79957839100187" lon="13.314768279154704"><ele>649.0</ele><time>2026-04-10T15:58:59Z</time></trkpt><trkpt lat="41.79960204643149" lon="13.314888847323866"><ele>649.0</ele><time>2026-04-10T15:59:00Z</time></trkpt><trkpt lat="41.79963083598117" lon="13.31500948577224"><ele>649.0</ele><time>2026-04-10T15:59:01Z</time></trkpt><trkpt lat="41.799662807133444" lon="13.315123349017142"><ele>648.0</ele><time>2026-04-10T15:59:02Z</time></trkpt><trkpt lat="41.79971535411684" lon="13.315245554646108"><ele>647.0</ele><time>2026-04-10T15:59:03Z</time></trkpt><trkpt lat="41.79977135746571" lon="13.315343180724614"><ele>646.0</ele><time>2026-04-10T15:59:04Z</time></trkpt><trkpt lat="41.79982508904255" lon="13.315444276975168"><ele>645.0</ele><time>2026-04-10T15:59:05Z</time></trkpt><trkpt lat="41.79987931012091" lon="13.315549563381008"><ele>644.0</ele><time>2026-04-10T15:59:06Z</time></trkpt><trkpt lat="41.79993004663096" lon="13.315648083484303"><ele>641.2</ele><time>2026-04-10T15:59:07Z</time></trkpt><trkpt lat="41.799981954994955" lon="13.31574887910652"><ele>638.4000000000001</ele><time>2026-04-10T15:59:08Z</time></trkpt><trkpt lat="41.80002902222939" lon="13.31584027419391"><ele>635.6</ele><time>2026-04-10T15:59:09Z</time></trkpt><trkpt lat="41.800077633350625" lon="13.31593579807492"><ele>632.8</ele><time>2026-04-10T15:59:10Z</time></trkpt><trkpt lat="41.80013270799066" lon="13.31604410546293"><ele>630.0</ele><time>2026-04-10T15:59:11Z</time></trkpt><trkpt lat="41.8001907597986" lon="13.316158267303473"><ele>632.6</ele><time>2026-04-10T15:59:12Z</time></trkpt><trkpt lat="41.800243160924985" lon="13.31626131700773"><ele>635.2</ele><time>2026-04-10T15:59:13Z</time></trkpt><trkpt lat="41.80029853350623" lon="13.316370210143742"><ele>637.8</ele><time>2026-04-10T15:59:14Z</time></trkpt><trkpt lat="41.80035451197126" lon="13.316483452996916"><ele>640.4</ele><time>2026-04-10T15:59:15Z</time></trkpt><trkpt lat="41.80040650407855" lon="13.316591845291073"><ele>643.0</ele><time>2026-04-10T15:59:16Z</time></trkpt><trkpt lat="41.80045502974019" lon="13.316696973677972"><ele>643.0</ele><time>2026-04-10T15:59:17Z</time></trkpt><trkpt lat="41.80050048920148" lon="13.316799537852665"><ele>643.0</ele><time>2026-04-10T15:59:18Z</time></trkpt><trkpt lat="41.80053632567127" lon="13.316887119021441"><ele>643.0</ele><time>2026-04-10T15:59:19Z</time></trkpt><trkpt lat="41.80055694508275" lon="13.317028408918892"><ele>643.0</ele><time>2026-04-10T15:59:21Z</time></trkpt><trkpt lat="41.8004747988364" lon="13.317055428953726"><ele>643.0</ele><time>2026-04-10T15:59:24Z</time></trkpt><trkpt lat="41.800417552953306" lon="13.316984924117053"><ele>643.0</ele><time>2026-04-10T15:59:25Z</time></trkpt><trkpt lat="41.8003306150044" lon="13.316880685736846"><ele>643.0</ele><time>2026-04-10T15:59:26Z</time></trkpt><trkpt lat="41.80027520234888" lon="13.31676856978054"><ele>643.0</ele><time>2026-04-10T15:59:27Z</time></trkpt><trkpt lat="41.80021926469195" lon="13.31667002074368"><ele>643.0</ele><time>2026-04-10T15:59:28Z</time></trkpt><trkpt lat="41.80016904157926" lon="13.316561599564599"><ele>643.0</ele><time>2026-04-10T15:59:29Z</time></trkpt><trkpt lat="41.80011312943335" lon="13.316462851954766"><ele>643.0</ele><time>2026-04-10T15:59:30Z</time></trkpt><trkpt lat="41.80006111453736" lon="13.316355951769017"><ele>640.4</ele><time>2026-04-10T15:59:31Z</time></trkpt><trkpt lat="41.800003568815896" lon="13.316255225293439"><ele>637.8</ele><time>2026-04-10T15:59:32Z</time></trkpt><trkpt lat="41.799948459294335" lon="13.316149616712305"><ele>635.2</ele><time>2026-04-10T15:59:33Z</time></trkpt><trkpt lat="41.799883712032305" lon="13.316052040310083"><ele>632.6</ele><time>2026-04-10T15:59:34Z</time></trkpt><trkpt lat="41.799813351650236" lon="13.31596196322135"><ele>630.0</ele><time>2026-04-10T15:59:35Z</time></trkpt><trkpt lat="41.7997283256299" lon="13.315884822849412"><ele>630.0</ele><time>2026-04-10T15:59:36Z</time></trkpt><trkpt lat="41.79962743733326" lon="13.315826838028826"><ele>630.0</ele><time>2026-04-10T15:59:37Z</time></trkpt><trkpt lat="41.79952809569613" lon="13.315772703654055"><ele>630.0</ele><time>2026-04-10T15:59:38Z</time></trkpt><trkpt lat="41.799436993039194" lon="13.315707605956726"><ele>630.0</ele><time>2026-04-10T15:59:39Z</time></trkpt><trkpt lat="41.799340257320566" lon="13.315651713938372"><ele>630.0</ele><time>2026-04-10T15:59:40Z</time></trkpt><trkpt lat="41.799243722428585" lon="13.315594012640705"><ele>627.8</ele><time>2026-04-10T15:59:41Z</time></trkpt><trkpt lat="41.799155181313814" lon="13.315524074307618"><ele>625.6</ele><time>2026-04-10T15:59:42Z</time></trkpt><trkpt lat="41.79907399162058" lon="13.315441191145444"><ele>623.4</ele><time>2026-04-10T15:59:43Z</time></trkpt><trkpt lat="41.799001138686876" lon="13.31534496760703"><ele>621.2</ele><time>2026-04-10T15:59:44Z</time></trkpt><trkpt lat="41.79893691917493" lon="13.315244518125832"><ele>619.0</ele><time>2026-04-10T15:59:45Z</time></trkpt><trkpt lat="41.79888030362925" lon="13.315145636202397"><ele>619.0</ele><time>2026-04-10T15:59:46Z</time></trkpt><trkpt lat="41.79883287191427" lon="13.315038740737164"><ele>619.0</ele><time>2026-04-10T15:59:47Z</time></trkpt><trkpt lat="41.798780498709654" lon="13.314939473590998"><ele>619.0</ele><time>2026-04-10T15:59:48Z</time></trkpt><trkpt lat="41.79873767252533" lon="13.314849154721278"><ele>619.0</ele><time>2026-04-10T15:59:49Z</time></trkpt><trkpt lat="41.798696506586865" lon="13.314776858148889"><ele>619.0</ele><time>2026-04-10T15:59:50Z</time></trkpt><trkpt lat="41.79865175802819" lon="13.31470615745496"><ele>619.0</ele><time>2026-04-10T15:59:51Z</time></trkpt><trkpt lat="41.79860177025109" lon="13.314650215006512"><ele>619.0</ele><time>2026-04-10T15:59:52Z</time></trkpt><trkpt lat="41.798487552334414" lon="13.314621737809322"><ele>619.0</ele><time>2026-04-10T15:59:54Z</time></trkpt><trkpt lat="41.79842145292844" lon="13.31462981151115"><ele>619.0</ele><time>2026-04-10T15:59:55Z</time></trkpt><trkpt lat="41.79836380195702" lon="13.31470455780032"><ele>619.0</ele><time>2026-04-10T15:59:56Z</time></trkpt><trkpt lat="41.79835024270015" lon="13.314824680946353"><ele>619.0</ele><time>2026-04-10T15:59:57Z</time></trkpt><trkpt lat="41.798439859335446" lon="13.314950775931987"><ele>619.0</ele><time>2026-04-10T15:59:58Z</time></trkpt><trkpt lat="41.79847238395495" lon="13.315085290271162"><ele>619.0</ele><time>2026-04-10T15:59:59Z</time></trkpt><trkpt lat="41.798526791571554" lon="13.315238626287531"><ele>619.0</ele><time>2026-04-10T16:00:00Z</time></trkpt><trkpt lat="41.79858595899713" lon="13.315403582047102"><ele>619.0</ele><time>2026-04-10T16:00:01Z</time></trkpt><trkpt lat="41.798654112824885" lon="13.315588449260495"><ele>615.5</ele><time>2026-04-10T16:00:02Z</time></trkpt><trkpt lat="41.79872352336398" lon="13.31577325134616"><ele>612.0</ele><time>2026-04-10T16:00:03Z</time></trkpt><trkpt lat="41.79878328579637" lon="13.315940108765663"><ele>608.5</ele><time>2026-04-10T16:00:04Z</time></trkpt><trkpt lat="41.79882367312516" lon="13.316069788117241"><ele>605.0</ele><time>2026-04-10T16:00:05Z</time></trkpt><trkpt lat="41.798843786110055" lon="13.316183658343391"><ele>605.0</ele><time>2026-04-10T16:00:06Z</time></trkpt><trkpt lat="41.798843657273856" lon="13.316279024988566"><ele>605.0</ele><time>2026-04-10T16:00:07Z</time></trkpt><trkpt lat="41.79875979985193" lon="13.316380092106295"><ele>605.0</ele><time>2026-04-10T16:00:09Z</time></trkpt><trkpt lat="41.79869494771994" lon="13.316418966437055"><ele>605.0</ele><time>2026-04-10T16:00:10Z</time></trkpt><trkpt lat="41.798610026753146" lon="13.316436460235668"><ele>605.0</ele><time>2026-04-10T16:00:11Z</time></trkpt><trkpt lat="41.79852867815799" lon="13.316372477943267"><ele>605.0</ele><time>2026-04-10T16:00:12Z</time></trkpt><trkpt lat="41.79846255993229" lon="13.316266288450603"><ele>601.75</ele><time>2026-04-10T16:00:13Z</time></trkpt><trkpt lat="41.79840609937492" lon="13.316119557949197"><ele>598.5</ele><time>2026-04-10T16:00:14Z</time></trkpt><trkpt lat="41.798331148348446" lon="13.315985341074034"><ele>595.25</ele><time>2026-04-10T16:00:15Z</time></trkpt><trkpt lat="41.798255326130295" lon="13.315861872412087"><ele>592.0</ele><time>2026-04-10T16:00:16Z</time></trkpt><trkpt lat="41.79818150784464" lon="13.31574554843804"><ele>592.0</ele><time>2026-04-10T16:00:17Z</time></trkpt><trkpt lat="41.79811445627073" lon="13.315632674831658"><ele>592.0</ele><time>2026-04-10T16:00:18Z</time></trkpt><trkpt lat="41.79804953480565" lon="13.31553052855043"><ele>592.0</ele><time>2026-04-10T16:00:19Z</time></trkpt><trkpt lat="41.79799448904866" lon="13.315420245786418"><ele>592.0</ele><time>2026-04-10T16:00:20Z</time></trkpt><trkpt lat="41.79793853520042" lon="13.315317352322934"><ele>592.0</ele><time>2026-04-10T16:00:21Z</time></trkpt><trkpt lat="41.79787768528086" lon="13.315253820646957"><ele>591.6</ele><time>2026-04-10T16:00:22Z</time></trkpt><trkpt lat="41.7978119889574" lon="13.315212956402723"><ele>591.2</ele><time>2026-04-10T16:00:23Z</time></trkpt><trkpt lat="41.79772528604238" lon="13.315200535703177"><ele>590.8</ele><time>2026-04-10T16:00:24Z</time></trkpt><trkpt lat="41.79762442032392" lon="13.315243535484845"><ele>590.4</ele><time>2026-04-10T16:00:25Z</time></trkpt><trkpt lat="41.7975415466052" lon="13.315313492021266"><ele>590.0</ele><time>2026-04-10T16:00:26Z</time></trkpt><trkpt lat="41.79745754277786" lon="13.315373986057576"><ele>590.0</ele><time>2026-04-10T16:00:27Z</time></trkpt><trkpt lat="41.79737203352622" lon="13.315435721542801"><ele>590.0</ele><time>2026-04-10T16:00:28Z</time></trkpt><trkpt lat="41.797286601329326" lon="13.315496400588184"><ele>590.0</ele><time>2026-04-10T16:00:29Z</time></trkpt><trkpt lat="41.797202591685505" lon="13.31555327321824"><ele>590.0</ele><time>2026-04-10T16:00:30Z</time></trkpt><trkpt lat="41.797116458648" lon="13.315608461346958"><ele>590.0</ele><time>2026-04-10T16:00:31Z</time></trkpt><trkpt lat="41.79702887788591" lon="13.315654211225198"><ele>588.6666666666666</ele><time>2026-04-10T16:00:32Z</time></trkpt><trkpt lat="41.79694401395445" lon="13.31568544436052"><ele>587.3333333333333</ele><time>2026-04-10T16:00:33Z</time></trkpt><trkpt lat="41.79685249023532" lon="13.31570265345318"><ele>586.0</ele><time>2026-04-10T16:00:34Z</time></trkpt><trkpt lat="41.79675957135396" lon="13.315712620766412"><ele>584.6666666666666</ele><time>2026-04-10T16:00:35Z</time></trkpt><trkpt lat="41.796679676679226" lon="13.315711942208408"><ele>583.3333333333334</ele><time>2026-04-10T16:00:36Z</time></trkpt><trkpt lat="41.7966200750403" lon="13.315675603305198"><ele>582.0</ele><time>2026-04-10T16:00:37Z</time></trkpt><trkpt lat="41.79654555044907" lon="13.315579692879306"><ele>581.5</ele><time>2026-04-10T16:00:38Z</time></trkpt><trkpt lat="41.79648281793742" lon="13.315426676789231"><ele>581.0</ele><time>2026-04-10T16:00:39Z</time></trkpt><trkpt lat="41.79642289177142" lon="13.31527023286847"><ele>580.5</ele><time>2026-04-10T16:00:40Z</time></trkpt><trkpt lat="41.79636187799775" lon="13.315102776124009"><ele>580.0</ele><time>2026-04-10T16:00:41Z</time></trkpt><trkpt lat="41.7963031669522" lon="13.31495245576373"><ele>580.0</ele><time>2026-04-10T16:00:42Z</time></trkpt><trkpt lat="41.79624439861523" lon="13.314801195546648"><ele>580.0</ele><time>2026-04-10T16:00:43Z</time></trkpt><trkpt lat="41.79619449434323" lon="13.314642503331365"><ele>580.0</ele><time>2026-04-10T16:00:44Z</time></trkpt><trkpt lat="41.79614016819368" lon="13.314492457324716"><ele>580.0</ele><time>2026-04-10T16:00:45Z</time></trkpt><trkpt lat="41.79609390155398" lon="13.314361844640933"><ele>580.0</ele><time>2026-04-10T16:00:46Z</time></trkpt><trkpt lat="41.7960487985923" lon="13.314246744763599"><ele>580.0</ele><time>2026-04-10T16:00:47Z</time></trkpt><trkpt lat="41.79599538424747" lon="13.314151378687251"><ele>580.0</ele><time>2026-04-10T16:00:48Z</time></trkpt><trkpt lat="41.795912937535114" lon="13.314096195291993"><ele>580.0</ele><time>2026-04-10T16:00:49Z</time></trkpt><trkpt lat="41.79581507586279" lon="13.314053830521535"><ele>580.0</ele><time>2026-04-10T16:00:50Z</time></trkpt><trkpt lat="41.79569831895995" lon="13.314085910748704"><ele>579.5</ele><time>2026-04-10T16:00:51Z</time></trkpt><trkpt lat="41.79558291507384" lon="13.3141627430386"><ele>579.0</ele><time>2026-04-10T16:00:52Z</time></trkpt><trkpt lat="41.79547269036852" lon="13.314252157076044"><ele>578.5</ele><time>2026-04-10T16:00:53Z</time></trkpt><trkpt lat="41.79536870368426" lon="13.314340954315263"><ele>578.0</ele><time>2026-04-10T16:00:54Z</time></trkpt><trkpt lat="41.7952628102982" lon="13.31443142300892"><ele>577.0</ele><time>2026-04-10T16:00:55Z</time></trkpt><trkpt lat="41.79515464291855" lon="13.314523834477999"><ele>576.0</ele><time>2026-04-10T16:00:56Z</time></trkpt><trkpt lat="41.795051211888456" lon="13.314612199603859"><ele>575.0</ele><time>2026-04-10T16:00:57Z</time></trkpt><trkpt lat="41.794950285198496" lon="13.314699172691336"><ele>574.0</ele><time>2026-04-10T16:00:58Z</time></trkpt><trkpt lat="41.794842261204415" lon="13.31479243675334"><ele>574.0</ele><time>2026-04-10T16:00:59Z</time></trkpt><trkpt lat="41.79472866312068" lon="13.314890513374003"><ele>574.0</ele><time>2026-04-10T16:01:00Z</time></trkpt><trkpt lat="41.794613370023036" lon="13.314990053400749"><ele>574.0</ele><time>2026-04-10T16:01:01Z</time></trkpt><trkpt lat="41.79449306841973" lon="13.315093917582324"><ele>574.0</ele><time>2026-04-10T16:01:02Z</time></trkpt><trkpt lat="41.79436666854581" lon="13.31520190864561"><ele>577.0</ele><time>2026-04-10T16:01:03Z</time></trkpt><trkpt lat="41.794234501697275" lon="13.315309984205582"><ele>580.0</ele><time>2026-04-10T16:01:04Z</time></trkpt><trkpt lat="41.794097510052424" lon="13.315415271629941"><ele>583.0</ele><time>2026-04-10T16:01:05Z</time></trkpt><trkpt lat="41.793961172011514" lon="13.315510894849501"><ele>575.6666666666667</ele><time>2026-04-10T16:01:06Z</time></trkpt><trkpt lat="41.7938226014784" lon="13.315607823308193"><ele>568.3333333333334</ele><time>2026-04-10T16:01:07Z</time></trkpt><trkpt lat="41.79367964903018" lon="13.315705836077829"><ele>561.0</ele><time>2026-04-10T16:01:08Z</time></trkpt><trkpt lat="41.793530863994434" lon="13.315804297920595"><ele>564.6666666666666</ele><time>2026-04-10T16:01:09Z</time></trkpt><trkpt lat="41.79337825196188" lon="13.315900196113581"><ele>568.3333333333333</ele><time>2026-04-10T16:01:10Z</time></trkpt><trkpt lat="41.793218320013565" lon="13.315994143799346"><ele>572.0</ele><time>2026-04-10T16:01:11Z</time></trkpt><trkpt lat="41.79305263117887" lon="13.316088251777655"><ele>572.0</ele><time>2026-04-10T16:01:12Z</time></trkpt><trkpt lat="41.792882523322476" lon="13.316178673109894"><ele>572.0</ele><time>2026-04-10T16:01:13Z</time></trkpt><trkpt lat="41.792718582765396" lon="13.316299711073146"><ele>572.0</ele><time>2026-04-10T16:01:14Z</time></trkpt><trkpt lat="41.79254425986688" lon="13.316385956533296"><ele>566.0</ele><time>2026-04-10T16:01:15Z</time></trkpt><trkpt lat="41.792371862970754" lon="13.316471907036258"><ele>560.0</ele><time>2026-04-10T16:01:16Z</time></trkpt><trkpt lat="41.79219580732207" lon="13.316556587286424"><ele>554.0</ele><time>2026-04-10T16:01:17Z</time></trkpt><trkpt lat="41.79201183592955" lon="13.316592479672126"><ele>552.6666666666666</ele><time>2026-04-10T16:01:18Z</time></trkpt><trkpt lat="41.791829713906964" lon="13.31661731796501"><ele>551.3333333333334</ele><time>2026-04-10T16:01:19Z</time></trkpt><trkpt lat="41.791643961399146" lon="13.316625658731619"><ele>550.0</ele><time>2026-04-10T16:01:20Z</time></trkpt><trkpt lat="41.79146493981153" lon="13.31657894202993"><ele>550.0</ele><time>2026-04-10T16:01:21Z</time></trkpt><trkpt lat="41.79128568033418" lon="13.316505725178148"><ele>550.0</ele><time>2026-04-10T16:01:22Z</time></trkpt><trkpt lat="41.79111508836532" lon="13.316413575633444"><ele>550.0</ele><time>2026-04-10T16:01:23Z</time></trkpt><trkpt lat="41.7909523407822" lon="13.316300079618598"><ele>550.6666666666667</ele><time>2026-04-10T16:01:24Z</time></trkpt><trkpt lat="41.79080736967202" lon="13.316178301417958"><ele>551.3333333333334</ele><time>2026-04-10T16:01:25Z</time></trkpt><trkpt lat="41.79067763028294" lon="13.316039843266925"><ele>552.0</ele><time>2026-04-10T16:01:26Z</time></trkpt><trkpt lat="41.79057354624315" lon="13.315868037998378"><ele>552.0</ele><time>2026-04-10T16:01:27Z</time></trkpt><trkpt lat="41.79049147916723" lon="13.315679998095622"><ele>552.0</ele><time>2026-04-10T16:01:28Z</time></trkpt><trkpt lat="41.79042429277226" lon="13.31547371690387"><ele>552.0</ele><time>2026-04-10T16:01:29Z</time></trkpt><trkpt lat="41.79035434374248" lon="13.315264423998581"><ele>554.6666666666666</ele><time>2026-04-10T16:01:30Z</time></trkpt><trkpt lat="41.790283366096894" lon="13.31504830790675"><ele>557.3333333333333</ele><time>2026-04-10T16:01:31Z</time></trkpt><trkpt lat="41.79020494146083" lon="13.314839772497134"><ele>560.0</ele><time>2026-04-10T16:01:32Z</time></trkpt><trkpt lat="41.79012448303035" lon="13.31463108259505"><ele>553.3333333333333</ele><time>2026-04-10T16:01:33Z</time></trkpt><trkpt lat="41.79005066167591" lon="13.314421926708345"><ele>546.6666666666666</ele><time>2026-04-10T16:01:34Z</time></trkpt><trkpt lat="41.7899937633305" lon="13.314208477319795"><ele>540.0</ele><time>2026-04-10T16:01:35Z</time></trkpt><trkpt lat="41.78997158208682" lon="13.313991298212567"><ele>540.3333333333334</ele><time>2026-04-10T16:01:36Z</time></trkpt><trkpt lat="41.789946768528715" lon="13.313772039758303"><ele>540.6666666666667</ele><time>2026-04-10T16:01:37Z</time></trkpt><trkpt lat="41.78992348934578" lon="13.313553479508512"><ele>541.0</ele><time>2026-04-10T16:01:38Z</time></trkpt><trkpt lat="41.78989887529244" lon="13.313344200779605"><ele>541.0</ele><time>2026-04-10T16:01:39Z</time></trkpt><trkpt lat="41.789874333671634" lon="13.313150116736153"><ele>541.0</ele><time>2026-04-10T16:01:40Z</time></trkpt><trkpt lat="41.7898488010168" lon="13.312965292231116"><ele>541.0</ele><time>2026-04-10T16:01:41Z</time></trkpt><trkpt lat="41.7898096419247" lon="13.312775300760315"><ele>541.0</ele><time>2026-04-10T16:01:42Z</time></trkpt><trkpt lat="41.78975405192141" lon="13.312593935205506"><ele>541.0</ele><time>2026-04-10T16:01:43Z</time></trkpt><trkpt lat="41.78967719690918" lon="13.312423611048168"><ele>541.0</ele><time>2026-04-10T16:01:44Z</time></trkpt><trkpt lat="41.78957672877124" lon="13.3122770279443"><ele>541.0</ele><time>2026-04-10T16:01:45Z</time></trkpt><trkpt lat="41.78946399477382" lon="13.312142662004094"><ele>541.0</ele><time>2026-04-10T16:01:46Z</time></trkpt><trkpt lat="41.789329630042594" lon="13.312033911396961"><ele>538.0</ele><time>2026-04-10T16:01:47Z</time></trkpt><trkpt lat="41.789186233230865" lon="13.311953471934233"><ele>535.0</ele><time>2026-04-10T16:01:48Z</time></trkpt><trkpt lat="41.78902927450556" lon="13.311905059222422"><ele>532.0</ele><time>2026-04-10T16:01:49Z</time></trkpt><trkpt lat="41.78886311616646" lon="13.31190063581556"><ele>532.0</ele><time>2026-04-10T16:01:50Z</time></trkpt><trkpt lat="41.78869977234497" lon="13.311931502381936"><ele>532.0</ele><time>2026-04-10T16:01:51Z</time></trkpt><trkpt lat="41.78853232676272" lon="13.311972942351456"><ele>532.0</ele><time>2026-04-10T16:01:52Z</time></trkpt><trkpt lat="41.788374396320584" lon="13.31207341234582"><ele>530.3333333333334</ele><time>2026-04-10T16:01:53Z</time></trkpt><trkpt lat="41.78822874388375" lon="13.312197701603703"><ele>528.6666666666666</ele><time>2026-04-10T16:01:54Z</time></trkpt><trkpt lat="41.788101549509996" lon="13.312322671944624"><ele>527.0</ele><time>2026-04-10T16:01:55Z</time></trkpt><trkpt lat="41.787970002932845" lon="13.312452149762212"><ele>526.3333333333333</ele><time>2026-04-10T16:01:56Z</time></trkpt><trkpt lat="41.78783863910737" lon="13.312581447777722"><ele>525.6666666666666</ele><time>2026-04-10T16:01:57Z</time></trkpt><trkpt lat="41.787705381297535" lon="13.312712609985551"><ele>525.0</ele><time>2026-04-10T16:01:58Z</time></trkpt><trkpt lat="41.78757012070831" lon="13.312845663398086"><ele>524.3333333333334</ele><time>2026-04-10T16:01:59Z</time></trkpt><trkpt lat="41.78743279861741" lon="13.31298036919193"><ele>523.6666666666667</ele><time>2026-04-10T16:02:00Z</time></trkpt><trkpt lat="41.787293001806134" lon="13.313117017331288"><ele>523.0</ele><time>2026-04-10T16:02:01Z</time></trkpt><trkpt lat="41.78715480774644" lon="13.313252098797815"><ele>522.3333333333334</ele><time>2026-04-10T16:02:02Z</time></trkpt><trkpt lat="41.78701910581477" lon="13.313384744275963"><ele>521.6666666666666</ele><time>2026-04-10T16:02:03Z</time></trkpt><trkpt lat="41.78688593545846" lon="13.313516164412523"><ele>521.0</ele><time>2026-04-10T16:02:04Z</time></trkpt><trkpt lat="41.786754685295755" lon="13.313647188272494"><ele>520.0</ele><time>2026-04-10T16:02:05Z</time></trkpt><trkpt lat="41.78662355959207" lon="13.31377808791306"><ele>519.0</ele><time>2026-04-10T16:02:06Z</time></trkpt><trkpt lat="41.78649068733802" lon="13.313909539643925"><ele>518.0</ele><time>2026-04-10T16:02:07Z</time></trkpt><trkpt lat="41.78635695555088" lon="13.314041555623623"><ele>517.6666666666666</ele><time>2026-04-10T16:02:08Z</time></trkpt><trkpt lat="41.786220665149884" lon="13.314174806321425"><ele>517.3333333333334</ele><time>2026-04-10T16:02:09Z</time></trkpt><trkpt lat="41.78608219520629" lon="13.314309908709333"><ele>517.0</ele><time>2026-04-10T16:02:10Z</time></trkpt><trkpt lat="41.78594242920494" lon="13.314446275738119"><ele>517.0</ele><time>2026-04-10T16:02:11Z</time></trkpt><trkpt lat="41.78580376169667" lon="13.314577953905268"><ele>517.0</ele><time>2026-04-10T16:02:12Z</time></trkpt><trkpt lat="41.78565423123642" lon="13.314689153969478"><ele>517.0</ele><time>2026-04-10T16:02:13Z</time></trkpt><trkpt lat="41.78549800631282" lon="13.314789433050931"><ele>515.3333333333334</ele><time>2026-04-10T16:02:14Z</time></trkpt><trkpt lat="41.7853332799947" lon="13.31485949876545"><ele>513.6666666666666</ele><time>2026-04-10T16:02:15Z</time></trkpt><trkpt lat="41.785166007585005" lon="13.314912106636754"><ele>512.0</ele><time>2026-04-10T16:02:16Z</time></trkpt><trkpt lat="41.7849908819852" lon="13.314931097552087"><ele>510.66666666666663</ele><time>2026-04-10T16:02:17Z</time></trkpt><trkpt lat="41.7848124171075" lon="13.314938636513665"><ele>509.33333333333337</ele><time>2026-04-10T16:02:18Z</time></trkpt><trkpt lat="41.784634915243274" lon="13.31495608170386"><ele>508.0</ele><time>2026-04-10T16:02:19Z</time></trkpt><trkpt lat="41.784459135000375" lon="13.314961747347791"><ele>506.33333333333337</ele><time>2026-04-10T16:02:20Z</time></trkpt><trkpt lat="41.78427797917676" lon="13.314960619963255"><ele>504.66666666666663</ele><time>2026-04-10T16:02:21Z</time></trkpt><trkpt lat="41.78409814405775" lon="13.314958276968202"><ele>503.0</ele><time>2026-04-10T16:02:22Z</time></trkpt><trkpt lat="41.783917579443525" lon="13.314960980849843"><ele>503.0</ele><time>2026-04-10T16:02:23Z</time></trkpt><trkpt lat="41.783736433941975" lon="13.314961615774092"><ele>503.0</ele><time>2026-04-10T16:02:24Z</time></trkpt><trkpt lat="41.78355391561455" lon="13.314960150484355"><ele>503.0</ele><time>2026-04-10T16:02:25Z</time></trkpt><trkpt lat="41.783371891577694" lon="13.314959121323897"><ele>502.3333333333333</ele><time>2026-04-10T16:02:26Z</time></trkpt><trkpt lat="41.78319006514371" lon="13.314961074949455"><ele>501.66666666666663</ele><time>2026-04-10T16:02:27Z</time></trkpt><trkpt lat="41.783005632881185" lon="13.314961431846484"><ele>501.0</ele><time>2026-04-10T16:02:28Z</time></trkpt><trkpt lat="41.78281981735947" lon="13.314960726285792"><ele>500.0</ele><time>2026-04-10T16:02:29Z</time></trkpt><trkpt lat="41.78263450889436" lon="13.314960960864457"><ele>499.0</ele><time>2026-04-10T16:02:30Z</time></trkpt><trkpt lat="41.78244750467086" lon="13.314959058309894"><ele>498.0</ele><time>2026-04-10T16:02:31Z</time></trkpt><trkpt lat="41.78226126745761" lon="13.314956194403631"><ele>498.0</ele><time>2026-04-10T16:02:32Z</time></trkpt><trkpt lat="41.782076763059756" lon="13.314953543923448"><ele>498.0</ele><time>2026-04-10T16:02:33Z</time></trkpt><trkpt lat="41.781894651300775" lon="13.31495474873292"><ele>498.0</ele><time>2026-04-10T16:02:34Z</time></trkpt><trkpt lat="41.78171277772465" lon="13.314966589273935"><ele>498.33333333333337</ele><time>2026-04-10T16:02:35Z</time></trkpt><trkpt lat="41.78153303346561" lon="13.314996284605892"><ele>498.6666666666667</ele><time>2026-04-10T16:02:36Z</time></trkpt><trkpt lat="41.78136021157823" lon="13.315052718768973"><ele>499.0</ele><time>2026-04-10T16:02:37Z</time></trkpt><trkpt lat="41.78119603998026" lon="13.315143671126386"><ele>499.0</ele><time>2026-04-10T16:02:38Z</time></trkpt><trkpt lat="41.78103063208365" lon="13.315237509637637"><ele>499.0</ele><time>2026-04-10T16:02:39Z</time></trkpt><trkpt lat="41.78088537292359" lon="13.315376870270853"><ele>499.0</ele><time>2026-04-10T16:02:40Z</time></trkpt><trkpt lat="41.78075557896124" lon="13.315546398467653"><ele>497.0</ele><time>2026-04-10T16:02:41Z</time></trkpt><trkpt lat="41.78063391205313" lon="13.315730250789478"><ele>495.0</ele><time>2026-04-10T16:02:42Z</time></trkpt><trkpt lat="41.780517342539255" lon="13.315912135485688"><ele>493.0</ele><time>2026-04-10T16:02:43Z</time></trkpt><trkpt lat="41.780405705275776" lon="13.31608764258576"><ele>493.0</ele><time>2026-04-10T16:02:44Z</time></trkpt><trkpt lat="41.7802978745641" lon="13.316258589168903"><ele>493.0</ele><time>2026-04-10T16:02:45Z</time></trkpt><trkpt lat="41.78019504447519" lon="13.316421608131272"><ele>493.0</ele><time>2026-04-10T16:02:46Z</time></trkpt><trkpt lat="41.7800948279309" lon="13.31658048379529"><ele>494.6666666666667</ele><time>2026-04-10T16:02:47Z</time></trkpt><trkpt lat="41.78001330663418" lon="13.316767962802286"><ele>496.33333333333337</ele><time>2026-04-10T16:02:48Z</time></trkpt><trkpt lat="41.779907183806884" lon="13.316935658918272"><ele>498.0</ele><time>2026-04-10T16:02:49Z</time></trkpt><trkpt lat="41.779802346996235" lon="13.317106924092698"><ele>496.33333333333337</ele><time>2026-04-10T16:02:50Z</time></trkpt><trkpt lat="41.779694648185256" lon="13.317276917645971"><ele>494.6666666666667</ele><time>2026-04-10T16:02:51Z</time></trkpt><trkpt lat="41.77959007020817" lon="13.317444784797553"><ele>493.0</ele><time>2026-04-10T16:02:52Z</time></trkpt><trkpt lat="41.779487011297334" lon="13.31760750382738"><ele>493.0</ele><time>2026-04-10T16:02:53Z</time></trkpt><trkpt lat="41.77936416494884" lon="13.317745938812589"><ele>493.0</ele><time>2026-04-10T16:02:54Z</time></trkpt><trkpt lat="41.779262678251484" lon="13.317907007975274"><ele>493.0</ele><time>2026-04-10T16:02:55Z</time></trkpt><trkpt lat="41.77915725182382" lon="13.318059687484647"><ele>493.33333333333337</ele><time>2026-04-10T16:02:56Z</time></trkpt><trkpt lat="41.77904768603232" lon="13.318200301155889"><ele>493.66666666666663</ele><time>2026-04-10T16:02:57Z</time></trkpt><trkpt lat="41.77893005522203" lon="13.318324176694341"><ele>494.0</ele><time>2026-04-10T16:02:58Z</time></trkpt><trkpt lat="41.778806453399575" lon="13.318436862093796"><ele>494.0</ele><time>2026-04-10T16:02:59Z</time></trkpt><trkpt lat="41.778676059998865" lon="13.318534154335538"><ele>494.0</ele><time>2026-04-10T16:03:00Z</time></trkpt><trkpt lat="41.77853927219141" lon="13.318611600250781"><ele>494.0</ele><time>2026-04-10T16:03:01Z</time></trkpt><trkpt lat="41.778395722424655" lon="13.318680693911729"><ele>494.66666666666663</ele><time>2026-04-10T16:03:02Z</time></trkpt><trkpt lat="41.77825214527668" lon="13.318747380062137"><ele>495.33333333333337</ele><time>2026-04-10T16:03:03Z</time></trkpt><trkpt lat="41.77810852091604" lon="13.318814088180018"><ele>496.0</ele><time>2026-04-10T16:03:04Z</time></trkpt><trkpt lat="41.77796525842847" lon="13.318880628223798"><ele>494.0</ele><time>2026-04-10T16:03:05Z</time></trkpt><trkpt lat="41.77782148785671" lon="13.318947404234631"><ele>492.0</ele><time>2026-04-10T16:03:06Z</time></trkpt><trkpt lat="41.77767728419303" lon="13.319014381430248"><ele>490.0</ele><time>2026-04-10T16:03:07Z</time></trkpt><trkpt lat="41.77753365243082" lon="13.31908109296813"><ele>490.0</ele><time>2026-04-10T16:03:08Z</time></trkpt><trkpt lat="41.777396236018724" lon="13.319144917728549"><ele>490.0</ele><time>2026-04-10T16:03:09Z</time></trkpt><trkpt lat="41.777266657892284" lon="13.319205101886716"><ele>490.0</ele><time>2026-04-10T16:03:10Z</time></trkpt><trkpt lat="41.77714554623212" lon="13.319261353716428"><ele>490.0</ele><time>2026-04-10T16:03:11Z</time></trkpt><trkpt lat="41.777030412573616" lon="13.319314828943682"><ele>490.0</ele><time>2026-04-10T16:03:12Z</time></trkpt><trkpt lat="41.7769222336365" lon="13.319364949723884"><ele>490.0</ele><time>2026-04-10T16:03:13Z</time></trkpt><trkpt lat="41.776819301888175" lon="13.319412434735899"><ele>490.0</ele><time>2026-04-10T16:03:14Z</time></trkpt><trkpt lat="41.77672135079574" lon="13.319457622058172"><ele>490.0</ele><time>2026-04-10T16:03:15Z</time></trkpt><trkpt lat="41.77662986904523" lon="13.319499824956667"><ele>490.0</ele><time>2026-04-10T16:03:16Z</time></trkpt><trkpt lat="41.77652712116337" lon="13.31954722519299"><ele>490.25</ele><time>2026-04-10T16:03:17Z</time></trkpt><trkpt lat="41.776417519862115" lon="13.31959759641394"><ele>490.5</ele><time>2026-04-10T16:03:18Z</time></trkpt><trkpt lat="41.776302509142404" lon="13.319650456717417"><ele>490.75</ele><time>2026-04-10T16:03:19Z</time></trkpt><trkpt lat="41.77618333834485" lon="13.31970523059432"><ele>491.0</ele><time>2026-04-10T16:03:20Z</time></trkpt><trkpt lat="41.77606838150983" lon="13.319780847056753"><ele>489.25</ele><time>2026-04-10T16:03:21Z</time></trkpt><trkpt lat="41.775948868515016" lon="13.319834212002503"><ele>487.5</ele><time>2026-04-10T16:03:22Z</time></trkpt><trkpt lat="41.7758342187939" lon="13.319885942744161"><ele>485.75</ele><time>2026-04-10T16:03:23Z</time></trkpt><trkpt lat="41.77572247929572" lon="13.319939382209661"><ele>484.0</ele><time>2026-04-10T16:03:24Z</time></trkpt><trkpt lat="41.77560700701991" lon="13.319970305029795"><ele>484.0</ele><time>2026-04-10T16:03:25Z</time></trkpt><trkpt lat="41.77549967136754" lon="13.320020619335885"><ele>484.0</ele><time>2026-04-10T16:03:26Z</time></trkpt><trkpt lat="41.7753951006654" lon="13.320069637533125"><ele>484.0</ele><time>2026-04-10T16:03:27Z</time></trkpt><trkpt lat="41.77529881861238" lon="13.32011477038807"><ele>484.0</ele><time>2026-04-10T16:03:28Z</time></trkpt><trkpt lat="41.775211878086026" lon="13.32015552433504"><ele>484.0</ele><time>2026-04-10T16:03:29Z</time></trkpt><trkpt lat="41.77514143378776" lon="13.320213708756265"><ele>483.79999999999995</ele><time>2026-04-10T16:03:30Z</time></trkpt><trkpt lat="41.77507334507789" lon="13.320245152672944"><ele>483.59999999999997</ele><time>2026-04-10T16:03:31Z</time></trkpt><trkpt lat="41.77496689224277" lon="13.32028710456293"><ele>483.4</ele><time>2026-04-10T16:03:33Z</time></trkpt><trkpt lat="41.77488814280598" lon="13.320276159427276"><ele>483.2</ele><time>2026-04-10T16:03:36Z</time></trkpt><trkpt lat="41.7748083252736" lon="13.320266092697835"><ele>483.0</ele><time>2026-04-10T16:03:38Z</time></trkpt><trkpt lat="41.774704392624955" lon="13.32033546400504"><ele>483.0</ele><time>2026-04-10T16:03:40Z</time></trkpt><trkpt lat="41.77459784529354" lon="13.320416447564249"><ele>483.0</ele><time>2026-04-10T16:03:42Z</time></trkpt><trkpt lat="41.774539682970016" lon="13.320450907155955"><ele>483.0</ele><time>2026-04-10T16:03:43Z</time></trkpt><trkpt lat="41.774476266112295" lon="13.320483528739214"><ele>483.0</ele><time>2026-04-10T16:03:44Z</time></trkpt><trkpt lat="41.77439275467063" lon="13.320519124755336"><ele>483.0</ele><time>2026-04-10T16:03:45Z</time></trkpt><trkpt lat="41.77429543937828" lon="13.320551999580122"><ele>483.0</ele><time>2026-04-10T16:03:46Z</time></trkpt><trkpt lat="41.774195176375635" lon="13.320565694746623"><ele>483.0</ele><time>2026-04-10T16:03:47Z</time></trkpt><trkpt lat="41.774091389374874" lon="13.320560073663346"><ele>483.0</ele><time>2026-04-10T16:03:48Z</time></trkpt><trkpt lat="41.77397404821476" lon="13.320531403881581"><ele>483.0</ele><time>2026-04-10T16:03:49Z</time></trkpt><trkpt lat="41.77384302535433" lon="13.320459381926717"><ele>483.0</ele><time>2026-04-10T16:03:50Z</time></trkpt><trkpt lat="41.77372206272145" lon="13.320344780081104"><ele>483.0</ele><time>2026-04-10T16:03:51Z</time></trkpt><trkpt lat="41.77360162766754" lon="13.320206318859574"><ele>483.0</ele><time>2026-04-10T16:03:52Z</time></trkpt><trkpt lat="41.773475075515954" lon="13.32004962074805"><ele>483.0</ele><time>2026-04-10T16:03:53Z</time></trkpt><trkpt lat="41.77333855310653" lon="13.319885681403452"><ele>482.33333333333337</ele><time>2026-04-10T16:03:54Z</time></trkpt><trkpt lat="41.773202813725526" lon="13.319721904945624"><ele>481.6666666666667</ele><time>2026-04-10T16:03:55Z</time></trkpt><trkpt lat="41.77306255809347" lon="13.319545757440817"><ele>481.0</ele><time>2026-04-10T16:03:56Z</time></trkpt><trkpt lat="41.772919971016925" lon="13.319366460509992"><ele>481.0</ele><time>2026-04-10T16:03:57Z</time></trkpt><trkpt lat="41.772790436415704" lon="13.31919918700063"><ele>481.0</ele><time>2026-04-10T16:03:58Z</time></trkpt><trkpt lat="41.772669203623124" lon="13.319044672524706"><ele>481.0</ele><time>2026-04-10T16:03:59Z</time></trkpt><trkpt lat="41.77254697095517" lon="13.318895144005179"><ele>480.0</ele><time>2026-04-10T16:04:00Z</time></trkpt><trkpt lat="41.77242050477174" lon="13.318746984816912"><ele>479.0</ele><time>2026-04-10T16:04:01Z</time></trkpt><trkpt lat="41.772294101765176" lon="13.318601707736484"><ele>478.0</ele><time>2026-04-10T16:04:02Z</time></trkpt><trkpt lat="41.77216126025674" lon="13.318470836884446"><ele>478.0</ele><time>2026-04-10T16:04:03Z</time></trkpt><trkpt lat="41.77202189041045" lon="13.318359842059277"><ele>478.0</ele><time>2026-04-10T16:04:04Z</time></trkpt><trkpt lat="41.77187183909301" lon="13.318287407627135"><ele>478.0</ele><time>2026-04-10T16:04:05Z</time></trkpt><trkpt lat="41.77171578743773" lon="13.318236431447017"><ele>476.6666666666667</ele><time>2026-04-10T16:04:06Z</time></trkpt><trkpt lat="41.771555962396164" lon="13.318208521867401"><ele>475.33333333333337</ele><time>2026-04-10T16:04:07Z</time></trkpt><trkpt lat="41.77139471912478" lon="13.318197674225642"><ele>474.0</ele><time>2026-04-10T16:04:08Z</time></trkpt><trkpt lat="41.77122699265002" lon="13.318208170263752"><ele>474.0</ele><time>2026-04-10T16:04:09Z</time></trkpt><trkpt lat="41.77105924079512" lon="13.31825215847147"><ele>474.0</ele><time>2026-04-10T16:04:10Z</time></trkpt><trkpt lat="41.77089112498509" lon="13.318323793479038"><ele>474.0</ele><time>2026-04-10T16:04:11Z</time></trkpt><trkpt lat="41.770719705220536" lon="13.31841713805258"><ele>472.66666666666663</ele><time>2026-04-10T16:04:12Z</time></trkpt><trkpt lat="41.77054735815728" lon="13.318521940114147"><ele>471.3333333333333</ele><time>2026-04-10T16:04:13Z</time></trkpt><trkpt lat="41.770373245421894" lon="13.318631099755738"><ele>470.0</ele><time>2026-04-10T16:04:14Z</time></trkpt><trkpt lat="41.77019549902904" lon="13.31874115747509"><ele>469.66666666666663</ele><time>2026-04-10T16:04:15Z</time></trkpt><trkpt lat="41.77002084288854" lon="13.318843261480819"><ele>469.33333333333337</ele><time>2026-04-10T16:04:16Z</time></trkpt><trkpt lat="41.769855192720186" lon="13.318947787009186"><ele>469.0</ele><time>2026-04-10T16:04:17Z</time></trkpt><trkpt lat="41.76969080458226" lon="13.319048728409117"><ele>467.33333333333337</ele><time>2026-04-10T16:04:18Z</time></trkpt><trkpt lat="41.76952850165604" lon="13.319144618587636"><ele>465.66666666666663</ele><time>2026-04-10T16:04:19Z</time></trkpt><trkpt lat="41.76936647660273" lon="13.319237627802712"><ele>464.0</ele><time>2026-04-10T16:04:20Z</time></trkpt><trkpt lat="41.76920747070487" lon="13.319331807442316"><ele>464.0</ele><time>2026-04-10T16:04:21Z</time></trkpt><trkpt lat="41.769051108883275" lon="13.319427683870817"><ele>464.0</ele><time>2026-04-10T16:04:22Z</time></trkpt><trkpt lat="41.768895510547175" lon="13.31951889282302"><ele>464.0</ele><time>2026-04-10T16:04:23Z</time></trkpt><trkpt lat="41.76874398442285" lon="13.319608080359016"><ele>464.0</ele><time>2026-04-10T16:04:24Z</time></trkpt><trkpt lat="41.76860086424351" lon="13.319689881431941"><ele>464.0</ele><time>2026-04-10T16:04:25Z</time></trkpt><trkpt lat="41.768457584311676" lon="13.319771084765266"><ele>464.0</ele><time>2026-04-10T16:04:26Z</time></trkpt><trkpt lat="41.76831486187175" lon="13.319857313409095"><ele>462.0</ele><time>2026-04-10T16:04:27Z</time></trkpt><trkpt lat="41.768168790332965" lon="13.319942550354561"><ele>460.0</ele><time>2026-04-10T16:04:28Z</time></trkpt><trkpt lat="41.76801720454304" lon="13.320030229146292"><ele>458.0</ele><time>2026-04-10T16:04:29Z</time></trkpt><trkpt lat="41.767863049326564" lon="13.320108832365044"><ele>458.0</ele><time>2026-04-10T16:04:30Z</time></trkpt><trkpt lat="41.767708283019026" lon="13.320171300239538"><ele>458.0</ele><time>2026-04-10T16:04:31Z</time></trkpt><trkpt lat="41.7675547017077" lon="13.320203517897541"><ele>458.0</ele><time>2026-04-10T16:04:32Z</time></trkpt><trkpt lat="41.76740281447416" lon="13.320212707323991"><ele>457.75</ele><time>2026-04-10T16:04:33Z</time></trkpt><trkpt lat="41.767252182936694" lon="13.320210184503157"><ele>457.5</ele><time>2026-04-10T16:04:34Z</time></trkpt><trkpt lat="41.76710154372796" lon="13.32018862762122"><ele>457.25</ele><time>2026-04-10T16:04:35Z</time></trkpt><trkpt lat="41.76696220534089" lon="13.320147949369133"><ele>457.0</ele><time>2026-04-10T16:04:36Z</time></trkpt><trkpt lat="41.76683401677028" lon="13.320095395082337"><ele>455.75</ele><time>2026-04-10T16:04:37Z</time></trkpt><trkpt lat="41.76671482839254" lon="13.320042971604448"><ele>454.5</ele><time>2026-04-10T16:04:38Z</time></trkpt><trkpt lat="41.76660458519781" lon="13.319995330531139"><ele>453.25</ele><time>2026-04-10T16:04:39Z</time></trkpt><trkpt lat="41.76649967013803" lon="13.319953120382168"><ele>452.0</ele><time>2026-04-10T16:04:40Z</time></trkpt><trkpt lat="41.76638703681178" lon="13.31990932773915"><ele>452.0</ele><time>2026-04-10T16:04:41Z</time></trkpt><trkpt lat="41.76626548078079" lon="13.319866330230091"><ele>452.0</ele><time>2026-04-10T16:04:42Z</time></trkpt><trkpt lat="41.76613892639474" lon="13.319827631114684"><ele>452.0</ele><time>2026-04-10T16:04:43Z</time></trkpt><trkpt lat="41.76601394352271" lon="13.319800918994607"><ele>452.0</ele><time>2026-04-10T16:04:44Z</time></trkpt><trkpt lat="41.76589586665577" lon="13.319783417715735"><ele>451.25</ele><time>2026-04-10T16:04:45Z</time></trkpt><trkpt lat="41.76578397479901" lon="13.319768415772748"><ele>450.5</ele><time>2026-04-10T16:04:46Z</time></trkpt><trkpt lat="41.76566495607787" lon="13.319752998372788"><ele>449.75</ele><time>2026-04-10T16:04:47Z</time></trkpt><trkpt lat="41.76553598764006" lon="13.319739868073897"><ele>449.0</ele><time>2026-04-10T16:04:48Z</time></trkpt><trkpt lat="41.765404804148375" lon="13.319737338760481"><ele>449.0</ele><time>2026-04-10T16:04:49Z</time></trkpt><trkpt lat="41.765283444982906" lon="13.31973802724559"><ele>449.0</ele><time>2026-04-10T16:04:50Z</time></trkpt><trkpt lat="41.76516332395008" lon="13.319740854238079"><ele>449.0</ele><time>2026-04-10T16:04:51Z</time></trkpt><trkpt lat="41.76503695081953" lon="13.319753698880973"><ele>449.0</ele><time>2026-04-10T16:04:52Z</time></trkpt><trkpt lat="41.764908183737845" lon="13.319776680314547"><ele>447.75</ele><time>2026-04-10T16:04:53Z</time></trkpt><trkpt lat="41.76477619480738" lon="13.319809757162778"><ele>446.5</ele><time>2026-04-10T16:04:54Z</time></trkpt><trkpt lat="41.76464425172244" lon="13.319846445412647"><ele>445.25</ele><time>2026-04-10T16:04:55Z</time></trkpt><trkpt lat="41.76451749111424" lon="13.31989446639729"><ele>444.0</ele><time>2026-04-10T16:04:56Z</time></trkpt><trkpt lat="41.76440001342301" lon="13.319943035796195"><ele>443.0</ele><time>2026-04-10T16:04:57Z</time></trkpt><trkpt lat="41.76428694647064" lon="13.319989143549709"><ele>442.0</ele><time>2026-04-10T16:04:58Z</time></trkpt><trkpt lat="41.76417432715496" lon="13.320036750586233"><ele>441.0</ele><time>2026-04-10T16:04:59Z</time></trkpt><trkpt lat="41.76405832580919" lon="13.320089817220188"><ele>440.0</ele><time>2026-04-10T16:05:00Z</time></trkpt><trkpt lat="41.76393411907022" lon="13.320152949506438"><ele>440.0</ele><time>2026-04-10T16:05:01Z</time></trkpt><trkpt lat="41.763810404656425" lon="13.3202185848896"><ele>440.0</ele><time>2026-04-10T16:05:02Z</time></trkpt><trkpt lat="41.76369006611852" lon="13.320286615608932"><ele>440.0</ele><time>2026-04-10T16:05:03Z</time></trkpt><trkpt lat="41.76357586077619" lon="13.320350172126734"><ele>440.0</ele><time>2026-04-10T16:05:04Z</time></trkpt><trkpt lat="41.76346775561501" lon="13.320412124555181"><ele>440.5</ele><time>2026-04-10T16:05:05Z</time></trkpt><trkpt lat="41.76336526436712" lon="13.320474373014218"><ele>441.0</ele><time>2026-04-10T16:05:06Z</time></trkpt><trkpt lat="41.76326048058444" lon="13.32053821759152"><ele>441.5</ele><time>2026-04-10T16:05:07Z</time></trkpt><trkpt lat="41.763147048195115" lon="13.320609070692102"><ele>442.0</ele><time>2026-04-10T16:05:08Z</time></trkpt><trkpt lat="41.76302848892913" lon="13.320672679662758"><ele>440.5</ele><time>2026-04-10T16:05:09Z</time></trkpt><trkpt lat="41.762911940316194" lon="13.320751179215565"><ele>439.0</ele><time>2026-04-10T16:05:10Z</time></trkpt><trkpt lat="41.76279298643252" lon="13.320813372524727"><ele>437.5</ele><time>2026-04-10T16:05:11Z</time></trkpt><trkpt lat="41.76268348476315" lon="13.320885581234357"><ele>436.0</ele><time>2026-04-10T16:05:12Z</time></trkpt><trkpt lat="41.76258014554332" lon="13.320946834841918"><ele>435.75</ele><time>2026-04-10T16:05:13Z</time></trkpt><trkpt lat="41.7624731866206" lon="13.321005808921175"><ele>435.5</ele><time>2026-04-10T16:05:14Z</time></trkpt><trkpt lat="41.76235964772357" lon="13.321059204912642"><ele>435.25</ele><time>2026-04-10T16:05:15Z</time></trkpt><trkpt lat="41.76224307424573" lon="13.32110643980992"><ele>435.0</ele><time>2026-04-10T16:05:16Z</time></trkpt><trkpt lat="41.762124788975306" lon="13.321151245360726"><ele>435.0</ele><time>2026-04-10T16:05:17Z</time></trkpt><trkpt lat="41.76200202835762" lon="13.321169536343627"><ele>435.0</ele><time>2026-04-10T16:05:18Z</time></trkpt><trkpt lat="41.76188750080702" lon="13.32120771753119"><ele>435.0</ele><time>2026-04-10T16:05:19Z</time></trkpt><trkpt lat="41.76177858103115" lon="13.321244029208042"><ele>435.0</ele><time>2026-04-10T16:05:20Z</time></trkpt><trkpt lat="41.761672085235475" lon="13.321279532760476"><ele>434.4</ele><time>2026-04-10T16:05:21Z</time></trkpt><trkpt lat="41.761570072894266" lon="13.321313541619405"><ele>433.8</ele><time>2026-04-10T16:05:22Z</time></trkpt><trkpt lat="41.76146931871354" lon="13.321347131034988"><ele>433.20000000000005</ele><time>2026-04-10T16:05:23Z</time></trkpt><trkpt lat="41.761366559806675" lon="13.321405806190322"><ele>432.6</ele><time>2026-04-10T16:05:24Z</time></trkpt><trkpt lat="41.76125162299261" lon="13.32144199781579"><ele>432.0</ele><time>2026-04-10T16:05:25Z</time></trkpt><trkpt lat="41.761131003009496" lon="13.321481266618338"><ele>431.25</ele><time>2026-04-10T16:05:26Z</time></trkpt><trkpt lat="41.76100805432732" lon="13.321519234839128"><ele>430.5</ele><time>2026-04-10T16:05:27Z</time></trkpt><trkpt lat="41.760882717012606" lon="13.32155997549619"><ele>429.75</ele><time>2026-04-10T16:05:28Z</time></trkpt><trkpt lat="41.76075571826378" lon="13.321604444170093"><ele>429.0</ele><time>2026-04-10T16:05:29Z</time></trkpt><trkpt lat="41.76062683545105" lon="13.321651117694486"><ele>429.0</ele><time>2026-04-10T16:05:30Z</time></trkpt><trkpt lat="41.76049316204159" lon="13.321699567952471"><ele>429.0</ele><time>2026-04-10T16:05:31Z</time></trkpt><trkpt lat="41.76035086273089" lon="13.321727131964185"><ele>429.0</ele><time>2026-04-10T16:05:32Z</time></trkpt><trkpt lat="41.76021649406955" lon="13.321771148525553"><ele>429.0</ele><time>2026-04-10T16:05:33Z</time></trkpt><trkpt lat="41.76008622503758" lon="13.321813822135606"><ele>430.0</ele><time>2026-04-10T16:05:34Z</time></trkpt><trkpt lat="41.75995668980027" lon="13.321876854846023"><ele>431.0</ele><time>2026-04-10T16:05:35Z</time></trkpt><trkpt lat="41.75982181681024" lon="13.321919024596138"><ele>432.0</ele><time>2026-04-10T16:05:36Z</time></trkpt><trkpt lat="41.75967787038914" lon="13.32194669359854"><ele>433.0</ele><time>2026-04-10T16:05:37Z</time></trkpt><trkpt lat="41.75954575201571" lon="13.321995247140253"><ele>433.0</ele><time>2026-04-10T16:05:38Z</time></trkpt><trkpt lat="41.759415742891235" lon="13.322069684673965"><ele>433.0</ele><time>2026-04-10T16:05:39Z</time></trkpt><trkpt lat="41.75926399219824" lon="13.322109922595715"><ele>433.0</ele><time>2026-04-10T16:05:40Z</time></trkpt><trkpt lat="41.75913082781749" lon="13.322189706214132"><ele>433.0</ele><time>2026-04-10T16:05:41Z</time></trkpt><trkpt lat="41.75899880806582" lon="13.322242640327314"><ele>431.5</ele><time>2026-04-10T16:05:42Z</time></trkpt><trkpt lat="41.758866271074936" lon="13.322297066643538"><ele>430.0</ele><time>2026-04-10T16:05:43Z</time></trkpt><trkpt lat="41.758735957519384" lon="13.322349699460206"><ele>428.5</ele><time>2026-04-10T16:05:44Z</time></trkpt><trkpt lat="41.75860000192458" lon="13.322406157257802"><ele>427.0</ele><time>2026-04-10T16:05:45Z</time></trkpt><trkpt lat="41.75845937928261" lon="13.322466802860463"><ele>426.75</ele><time>2026-04-10T16:05:46Z</time></trkpt><trkpt lat="41.75832057937233" lon="13.322530176270709"><ele>426.5</ele><time>2026-04-10T16:05:47Z</time></trkpt><trkpt lat="41.75817554897146" lon="13.322569710495795"><ele>426.25</ele><time>2026-04-10T16:05:48Z</time></trkpt><trkpt lat="41.75804193214226" lon="13.322639729645545"><ele>426.0</ele><time>2026-04-10T16:05:49Z</time></trkpt><trkpt lat="41.7579179756391" lon="13.322717494088657"><ele>426.0</ele><time>2026-04-10T16:05:50Z</time></trkpt><trkpt lat="41.75780367591273" lon="13.322798775567708"><ele>426.0</ele><time>2026-04-10T16:05:51Z</time></trkpt><trkpt lat="41.75769484275809" lon="13.322894531140268"><ele>426.0</ele><time>2026-04-10T16:05:52Z</time></trkpt><trkpt lat="41.75758963505801" lon="13.32300554177445"><ele>426.0</ele><time>2026-04-10T16:05:53Z</time></trkpt><trkpt lat="41.757485296288515" lon="13.32313273880661"><ele>425.5</ele><time>2026-04-10T16:05:54Z</time></trkpt><trkpt lat="41.75739209851026" lon="13.323267248921754"><ele>425.0</ele><time>2026-04-10T16:05:55Z</time></trkpt><trkpt lat="41.75730751204045" lon="13.323409485402065"><ele>424.5</ele><time>2026-04-10T16:05:56Z</time></trkpt><trkpt lat="41.757226076786154" lon="13.323559160257968"><ele>424.0</ele><time>2026-04-10T16:05:57Z</time></trkpt><trkpt lat="41.75715854525284" lon="13.32371642301008"><ele>424.0</ele><time>2026-04-10T16:05:58Z</time></trkpt><trkpt lat="41.7570813902695" lon="13.323858929672468"><ele>424.0</ele><time>2026-04-10T16:05:59Z</time></trkpt><trkpt lat="41.75700777813797" lon="13.324006374093534"><ele>424.0</ele><time>2026-04-10T16:06:00Z</time></trkpt><trkpt lat="41.75691677982567" lon="13.32414502581528"><ele>424.0</ele><time>2026-04-10T16:06:01Z</time></trkpt><trkpt lat="41.75685390919954" lon="13.32430649077244"><ele>423.75</ele><time>2026-04-10T16:06:02Z</time></trkpt><trkpt lat="41.75677642858807" lon="13.324459596189278"><ele>423.5</ele><time>2026-04-10T16:06:03Z</time></trkpt><trkpt lat="41.756680483570015" lon="13.324608782410541"><ele>423.25</ele><time>2026-04-10T16:06:04Z</time></trkpt><trkpt lat="41.756584387361656" lon="13.324787563823172"><ele>423.0</ele><time>2026-04-10T16:06:05Z</time></trkpt><trkpt lat="41.75647827099947" lon="13.324980036219037"><ele>423.0</ele><time>2026-04-10T16:06:06Z</time></trkpt><trkpt lat="41.75634124907697" lon="13.325228564646274"><ele>423.0</ele><time>2026-04-10T16:06:07Z</time></trkpt><trkpt lat="41.756193889986136" lon="13.325498878146623"><ele>424.5</ele><time>2026-04-10T16:06:08Z</time></trkpt><trkpt lat="41.756045946911385" lon="13.325801349058194"><ele>426.0</ele><time>2026-04-10T16:06:09Z</time></trkpt><trkpt lat="41.75588192070066" lon="13.326093297620227"><ele>426.0</ele><time>2026-04-10T16:06:10Z</time></trkpt><trkpt lat="41.755720092654016" lon="13.326385671163145"><ele>426.0</ele><time>2026-04-10T16:06:11Z</time></trkpt><trkpt lat="41.75555544823401" lon="13.326687119283527"><ele>422.5</ele><time>2026-04-10T16:06:12Z</time></trkpt><trkpt lat="41.755388970304175" lon="13.32699241738215"><ele>419.0</ele><time>2026-04-10T16:06:13Z</time></trkpt><trkpt lat="41.75522627519626" lon="13.327300824287965"><ele>423.0</ele><time>2026-04-10T16:06:14Z</time></trkpt><trkpt lat="41.755064345072526" lon="13.327608734426201"><ele>427.0</ele><time>2026-04-10T16:06:15Z</time></trkpt><trkpt lat="41.75491373483836" lon="13.327889420313731"><ele>422.0</ele><time>2026-04-10T16:06:16Z</time></trkpt><trkpt lat="41.75476954117677" lon="13.32815259937365"><ele>417.0</ele><time>2026-04-10T16:06:17Z</time></trkpt><trkpt lat="41.75463356424128" lon="13.328399904684838"><ele>417.0</ele><time>2026-04-10T16:06:18Z</time></trkpt><trkpt lat="41.75450050689566" lon="13.328639258615947"><ele>417.0</ele><time>2026-04-10T16:06:19Z</time></trkpt><trkpt lat="41.75437012296999" lon="13.32888184523513"><ele>417.0</ele><time>2026-04-10T16:06:20Z</time></trkpt><trkpt lat="41.754237251108194" lon="13.329125084424549"><ele>416.0</ele><time>2026-04-10T16:06:21Z</time></trkpt><trkpt lat="41.75410063524055" lon="13.32936280825967"><ele>415.0</ele><time>2026-04-10T16:06:22Z</time></trkpt><trkpt lat="41.75396674776685" lon="13.329574298434855"><ele>414.0</ele><time>2026-04-10T16:06:23Z</time></trkpt><trkpt lat="41.75384809170091" lon="13.329747333493552"><ele>414.0</ele><time>2026-04-10T16:06:24Z</time></trkpt><trkpt lat="41.75373705381434" lon="13.32989856908751"><ele>414.0</ele><time>2026-04-10T16:06:25Z</time></trkpt><trkpt lat="41.75362637801592" lon="13.330029409564267"><ele>414.0</ele><time>2026-04-10T16:06:26Z</time></trkpt><trkpt lat="41.75350695311365" lon="13.330134447795396"><ele>414.0</ele><time>2026-04-10T16:06:27Z</time></trkpt><trkpt lat="41.75337172305003" lon="13.330193981707216"><ele>416.33333333333337</ele><time>2026-04-10T16:06:28Z</time></trkpt><trkpt lat="41.75322251269745" lon="13.330174970344931"><ele>418.6666666666667</ele><time>2026-04-10T16:06:29Z</time></trkpt><trkpt lat="41.75306362295872" lon="13.330165147378395"><ele>421.0</ele><time>2026-04-10T16:06:30Z</time></trkpt><trkpt lat="41.752906502599494" lon="13.330132728542312"><ele>421.0</ele><time>2026-04-10T16:06:31Z</time></trkpt><trkpt lat="41.752750887244126" lon="13.330105362870126"><ele>421.0</ele><time>2026-04-10T16:06:32Z</time></trkpt><trkpt lat="41.75259889920081" lon="13.330096290105335"><ele>421.0</ele><time>2026-04-10T16:06:33Z</time></trkpt><trkpt lat="41.752449600698" lon="13.330109630872446"><ele>418.6666666666667</ele><time>2026-04-10T16:06:34Z</time></trkpt><trkpt lat="41.752299488527115" lon="13.330146280976791"><ele>416.33333333333337</ele><time>2026-04-10T16:06:35Z</time></trkpt><trkpt lat="41.75215086065866" lon="13.33020289675483"><ele>414.0</ele><time>2026-04-10T16:06:36Z</time></trkpt><trkpt lat="41.75200564558447" lon="13.330270790394536"><ele>415.25</ele><time>2026-04-10T16:06:37Z</time></trkpt><trkpt lat="41.75186552251602" lon="13.330352773674468"><ele>416.5</ele><time>2026-04-10T16:06:38Z</time></trkpt><trkpt lat="41.751739911578056" lon="13.330433626521785"><ele>417.75</ele><time>2026-04-10T16:06:39Z</time></trkpt><trkpt lat="41.75162040932615" lon="13.330514450289055"><ele>419.0</ele><time>2026-04-10T16:06:40Z</time></trkpt><trkpt lat="41.75149395141491" lon="13.330576038223327"><ele>418.75</ele><time>2026-04-10T16:06:41Z</time></trkpt><trkpt lat="41.75137465401988" lon="13.330655338028714"><ele>418.5</ele><time>2026-04-10T16:06:42Z</time></trkpt><trkpt lat="41.75125571926486" lon="13.330736237095904"><ele>418.25</ele><time>2026-04-10T16:06:43Z</time></trkpt><trkpt lat="41.75113435784567" lon="13.330818797145819"><ele>418.0</ele><time>2026-04-10T16:06:44Z</time></trkpt><trkpt lat="41.75101016253526" lon="13.330902984883577"><ele>418.0</ele><time>2026-04-10T16:06:45Z</time></trkpt><trkpt lat="41.750885276481135" lon="13.330987640837865"><ele>418.0</ele><time>2026-04-10T16:06:46Z</time></trkpt><trkpt lat="41.75075870525484" lon="13.331069602468634"><ele>418.0</ele><time>2026-04-10T16:06:47Z</time></trkpt><trkpt lat="41.75062731143495" lon="13.331141379723254"><ele>418.0</ele><time>2026-04-10T16:06:48Z</time></trkpt><trkpt lat="41.750487561189466" lon="13.331182332893556"><ele>418.0</ele><time>2026-04-10T16:06:49Z</time></trkpt><trkpt lat="41.75034165682829" lon="13.331211326370298"><ele>418.0</ele><time>2026-04-10T16:06:50Z</time></trkpt><trkpt lat="41.750195475640524" lon="13.331235875369547"><ele>418.0</ele><time>2026-04-10T16:06:51Z</time></trkpt><trkpt lat="41.75005339023272" lon="13.331266628668676"><ele>418.0</ele><time>2026-04-10T16:06:52Z</time></trkpt><trkpt lat="41.74989173459246" lon="13.331326551674929"><ele>413.75</ele><time>2026-04-10T16:06:53Z</time></trkpt><trkpt lat="41.749755642579856" lon="13.33139994784212"><ele>409.5</ele><time>2026-04-10T16:06:54Z</time></trkpt><trkpt lat="41.74970406567164" lon="13.331515222045956"><ele>405.25</ele><time>2026-04-10T16:06:55Z</time></trkpt><trkpt lat="41.749619778441506" lon="13.33164960985218"><ele>401.0</ele><time>2026-04-10T16:06:56Z</time></trkpt><trkpt lat="41.74956075081472" lon="13.331811779417572"><ele>401.0</ele><time>2026-04-10T16:06:57Z</time></trkpt><trkpt lat="41.74951422092685" lon="13.33198152108696"><ele>401.0</ele><time>2026-04-10T16:06:58Z</time></trkpt><trkpt lat="41.74947425338913" lon="13.332175712269654"><ele>401.0</ele><time>2026-04-10T16:06:59Z</time></trkpt><trkpt lat="41.74942490902268" lon="13.332396829697247"><ele>399.0</ele><time>2026-04-10T16:07:00Z</time></trkpt><trkpt lat="41.74937291713485" lon="13.332609348036685"><ele>397.0</ele><time>2026-04-10T16:07:01Z</time></trkpt><trkpt lat="41.74931568498773" lon="13.332821503840261"><ele>395.0</ele><time>2026-04-10T16:07:02Z</time></trkpt><trkpt lat="41.749257678687584" lon="13.33304060641188"><ele>394.0</ele><time>2026-04-10T16:07:03Z</time></trkpt><trkpt lat="41.74920136412514" lon="13.33325150059345"><ele>393.0</ele><time>2026-04-10T16:07:04Z</time></trkpt><trkpt lat="41.74914900326876" lon="13.333456955170641"><ele>392.0</ele><time>2026-04-10T16:07:05Z</time></trkpt><trkpt lat="41.74909480869863" lon="13.33366550388017"><ele>392.0</ele><time>2026-04-10T16:07:06Z</time></trkpt><trkpt lat="41.749032431196056" lon="13.33386809335774"><ele>392.0</ele><time>2026-04-10T16:07:07Z</time></trkpt><trkpt lat="41.748958704056975" lon="13.334061360913797"><ele>392.0</ele><time>2026-04-10T16:07:08Z</time></trkpt><trkpt lat="41.748883631779854" lon="13.33425162676626"><ele>391.66666666666663</ele><time>2026-04-10T16:07:09Z</time></trkpt><trkpt lat="41.74880286733122" lon="13.334437462771856"><ele>391.33333333333337</ele><time>2026-04-10T16:07:10Z</time></trkpt><trkpt lat="41.748723530142186" lon="13.33462404095843"><ele>391.0</ele><time>2026-04-10T16:07:11Z</time></trkpt><trkpt lat="41.7486260405179" lon="13.334788374128738"><ele>390.0</ele><time>2026-04-10T16:07:12Z</time></trkpt><trkpt lat="41.74854611278531" lon="13.334965621345019"><ele>389.0</ele><time>2026-04-10T16:07:13Z</time></trkpt><trkpt lat="41.74842581990096" lon="13.335131619872486"><ele>388.0</ele><time>2026-04-10T16:07:14Z</time></trkpt><trkpt lat="41.748329239655476" lon="13.335312465030107"><ele>387.0</ele><time>2026-04-10T16:07:15Z</time></trkpt><trkpt lat="41.74821314609853" lon="13.335480175782815"><ele>386.0</ele><time>2026-04-10T16:07:16Z</time></trkpt><trkpt lat="41.74810550582975" lon="13.335650132215097"><ele>385.0</ele><time>2026-04-10T16:07:17Z</time></trkpt><trkpt lat="41.74798844873965" lon="13.3357938589079"><ele>384.75</ele><time>2026-04-10T16:07:18Z</time></trkpt><trkpt lat="41.747897710075925" lon="13.335952842267668"><ele>384.5</ele><time>2026-04-10T16:07:19Z</time></trkpt><trkpt lat="41.74779908698944" lon="13.336089026425956"><ele>384.25</ele><time>2026-04-10T16:07:20Z</time></trkpt><trkpt lat="41.74770125246601" lon="13.33623003955872"><ele>384.0</ele><time>2026-04-10T16:07:21Z</time></trkpt><trkpt lat="41.747602415361534" lon="13.336376222222697"><ele>383.25</ele><time>2026-04-10T16:07:22Z</time></trkpt><trkpt lat="41.74749907659696" lon="13.336519835786577"><ele>382.5</ele><time>2026-04-10T16:07:23Z</time></trkpt><trkpt lat="41.74739831201137" lon="13.336665245206115"><ele>381.75</ele><time>2026-04-10T16:07:24Z</time></trkpt><trkpt lat="41.74730083495014" lon="13.336813285787946"><ele>381.0</ele><time>2026-04-10T16:07:25Z</time></trkpt><trkpt lat="41.74720218038207" lon="13.336959376026488"><ele>381.0</ele><time>2026-04-10T16:07:26Z</time></trkpt><trkpt lat="41.74710321668779" lon="13.337100090324325"><ele>381.0</ele><time>2026-04-10T16:07:27Z</time></trkpt><trkpt lat="41.74700366486943" lon="13.337241356156797"><ele>381.0</ele><time>2026-04-10T16:07:28Z</time></trkpt><trkpt lat="41.74690492400659" lon="13.337385693941375"><ele>381.0</ele><time>2026-04-10T16:07:29Z</time></trkpt><trkpt lat="41.74680377039972" lon="13.337529573020035"><ele>379.5</ele><time>2026-04-10T16:07:30Z</time></trkpt><trkpt lat="41.74670269905681" lon="13.337672379472442"><ele>378.0</ele><time>2026-04-10T16:07:31Z</time></trkpt><trkpt lat="41.74660066372545" lon="13.337816849676354"><ele>376.5</ele><time>2026-04-10T16:07:32Z</time></trkpt><trkpt lat="41.74649533837171" lon="13.337959243633525"><ele>375.0</ele><time>2026-04-10T16:07:33Z</time></trkpt><trkpt lat="41.74636929833131" lon="13.33807466082286"><ele>375.0</ele><time>2026-04-10T16:07:34Z</time></trkpt><trkpt lat="41.746246656917435" lon="13.338208168358802"><ele>375.0</ele><time>2026-04-10T16:07:35Z</time></trkpt><trkpt lat="41.74609582948628" lon="13.338283258965486"><ele>375.0</ele><time>2026-04-10T16:07:36Z</time></trkpt><trkpt lat="41.74594820837906" lon="13.338372668759138"><ele>374.3333333333333</ele><time>2026-04-10T16:07:37Z</time></trkpt><trkpt lat="41.74579386333283" lon="13.338459150265964"><ele>373.66666666666663</ele><time>2026-04-10T16:07:38Z</time></trkpt><trkpt lat="41.74562438935664" lon="13.338523779300123"><ele>373.0</ele><time>2026-04-10T16:07:39Z</time></trkpt><trkpt lat="41.74544153543" lon="13.338562479318242"><ele>373.0</ele><time>2026-04-10T16:07:40Z</time></trkpt><trkpt lat="41.745264431682735" lon="13.33856563492209"><ele>373.0</ele><time>2026-04-10T16:07:41Z</time></trkpt><trkpt lat="41.74508982290254" lon="13.33853346997412"><ele>373.0</ele><time>2026-04-10T16:07:42Z</time></trkpt><trkpt lat="41.7449094812072" lon="13.338521998784405"><ele>374.5</ele><time>2026-04-10T16:07:43Z</time></trkpt><trkpt lat="41.7447497854141" lon="13.338471530987569"><ele>376.0</ele><time>2026-04-10T16:07:44Z</time></trkpt><trkpt lat="41.74461322086863" lon="13.338432282665712"><ele>377.5</ele><time>2026-04-10T16:07:45Z</time></trkpt><trkpt lat="41.74449391101116" lon="13.338401680804736"><ele>379.0</ele><time>2026-04-10T16:07:46Z</time></trkpt><trkpt lat="41.744386233817245" lon="13.338371877758243"><ele>380.0</ele><time>2026-04-10T16:07:47Z</time></trkpt><trkpt lat="41.74426208385318" lon="13.338336461633551"><ele>381.0</ele><time>2026-04-10T16:07:48Z</time></trkpt><trkpt lat="41.7441193524085" lon="13.33830093159975"><ele>382.0</ele><time>2026-04-10T16:07:49Z</time></trkpt><trkpt lat="41.74397632584824" lon="13.338264897666084"><ele>383.0</ele><time>2026-04-10T16:07:50Z</time></trkpt><trkpt lat="41.74383593124944" lon="13.338225142563914"><ele>383.0</ele><time>2026-04-10T16:07:51Z</time></trkpt><trkpt lat="41.743701362498896" lon="13.33818827858958"><ele>383.0</ele><time>2026-04-10T16:07:52Z</time></trkpt><trkpt lat="41.743570164312466" lon="13.338120252361014"><ele>383.0</ele><time>2026-04-10T16:07:53Z</time></trkpt><trkpt lat="41.74343095603208" lon="13.338089511287826"><ele>383.0</ele><time>2026-04-10T16:07:54Z</time></trkpt><trkpt lat="41.74329397836972" lon="13.338066626876445"><ele>384.0</ele><time>2026-04-10T16:07:55Z</time></trkpt><trkpt lat="41.74315457729177" lon="13.33805409043121"><ele>385.0</ele><time>2026-04-10T16:07:56Z</time></trkpt><trkpt lat="41.74301444026179" lon="13.338062323045792"><ele>386.0</ele><time>2026-04-10T16:07:57Z</time></trkpt><trkpt lat="41.74288094111006" lon="13.338115198216396"><ele>387.0</ele><time>2026-04-10T16:07:58Z</time></trkpt><trkpt lat="41.742755938265354" lon="13.338175131499632"><ele>387.0</ele><time>2026-04-10T16:07:59Z</time></trkpt><trkpt lat="41.74263654968925" lon="13.338246364188873"><ele>387.0</ele><time>2026-04-10T16:08:00Z</time></trkpt><trkpt lat="41.74254443863916" lon="13.338377372081043"><ele>387.0</ele><time>2026-04-10T16:08:01Z</time></trkpt><trkpt lat="41.74245461916458" lon="13.338507653970566"><ele>387.0</ele><time>2026-04-10T16:08:02Z</time></trkpt><trkpt lat="41.74237787638031" lon="13.338655588124062"><ele>387.0</ele><time>2026-04-10T16:08:03Z</time></trkpt><trkpt lat="41.74231059824908" lon="13.338818396696581"><ele>387.0</ele><time>2026-04-10T16:08:04Z</time></trkpt><trkpt lat="41.74223228940023" lon="13.33896774621272"><ele>387.0</ele><time>2026-04-10T16:08:05Z</time></trkpt><trkpt lat="41.74217045939314" lon="13.339118848216826"><ele>387.0</ele><time>2026-04-10T16:08:06Z</time></trkpt><trkpt lat="41.74211370740257" lon="13.339260607489576"><ele>388.0</ele><time>2026-04-10T16:08:07Z</time></trkpt><trkpt lat="41.74205703977023" lon="13.339402152936932"><ele>389.0</ele><time>2026-04-10T16:08:08Z</time></trkpt><trkpt lat="41.741999051458265" lon="13.339545515527401"><ele>390.0</ele><time>2026-04-10T16:08:09Z</time></trkpt><trkpt lat="41.741939787357055" lon="13.339692399731376"><ele>391.0</ele><time>2026-04-10T16:08:10Z</time></trkpt><trkpt lat="41.741893985642896" lon="13.339852185905512"><ele>390.75</ele><time>2026-04-10T16:08:11Z</time></trkpt><trkpt lat="41.741837141483295" lon="13.34000286858017"><ele>390.5</ele><time>2026-04-10T16:08:12Z</time></trkpt><trkpt lat="41.741770599892575" lon="13.340141266279144"><ele>390.25</ele><time>2026-04-10T16:08:13Z</time></trkpt><trkpt lat="41.74172757811722" lon="13.340293517573008"><ele>390.0</ele><time>2026-04-10T16:08:14Z</time></trkpt><trkpt lat="41.741714840144795" lon="13.340469268820422"><ele>390.33333333333337</ele><time>2026-04-10T16:08:15Z</time></trkpt><trkpt lat="41.74170025955448" lon="13.34066530791044"><ele>390.6666666666667</ele><time>2026-04-10T16:08:16Z</time></trkpt><trkpt lat="41.741698364202406" lon="13.34090665709051"><ele>391.0</ele><time>2026-04-10T16:08:17Z</time></trkpt><trkpt lat="41.74170374796492" lon="13.34116510435259"><ele>390.6666666666667</ele><time>2026-04-10T16:08:18Z</time></trkpt><trkpt lat="41.74171261214002" lon="13.341441127629926"><ele>390.33333333333337</ele><time>2026-04-10T16:08:19Z</time></trkpt><trkpt lat="41.741724614134384" lon="13.341716664023828"><ele>390.0</ele><time>2026-04-10T16:08:20Z</time></trkpt><trkpt lat="41.74173815512405" lon="13.341991445089246"><ele>391.33333333333337</ele><time>2026-04-10T16:08:21Z</time></trkpt><trkpt lat="41.741743482618645" lon="13.342241449856292"><ele>392.6666666666667</ele><time>2026-04-10T16:08:22Z</time></trkpt><trkpt lat="41.74170106225603" lon="13.342449706806779"><ele>394.0</ele><time>2026-04-10T16:08:23Z</time></trkpt><trkpt lat="41.74164922156369" lon="13.342643802842058"><ele>394.0</ele><time>2026-04-10T16:08:24Z</time></trkpt><trkpt lat="41.74156732354377" lon="13.342824458315345"><ele>394.0</ele><time>2026-04-10T16:08:25Z</time></trkpt><trkpt lat="41.741471485858646" lon="13.342963161402777"><ele>394.0</ele><time>2026-04-10T16:08:26Z</time></trkpt><trkpt lat="41.74134799916915" lon="13.343080272340396"><ele>395.0</ele><time>2026-04-10T16:08:27Z</time></trkpt><trkpt lat="41.74118942252537" lon="13.343176838991386"><ele>396.0</ele><time>2026-04-10T16:08:28Z</time></trkpt><trkpt lat="41.74101089577539" lon="13.343262609903787"><ele>397.0</ele><time>2026-04-10T16:08:29Z</time></trkpt><trkpt lat="41.740837734602444" lon="13.343330558643045"><ele>397.0</ele><time>2026-04-10T16:08:30Z</time></trkpt><trkpt lat="41.740660372047344" lon="13.34339834004062"><ele>397.0</ele><time>2026-04-10T16:08:31Z</time></trkpt><trkpt lat="41.74047591541455" lon="13.343465547883758"><ele>397.0</ele><time>2026-04-10T16:08:32Z</time></trkpt><trkpt lat="41.74028824042317" lon="13.343533928442222"><ele>397.0</ele><time>2026-04-10T16:08:33Z</time></trkpt><trkpt lat="41.74009657301898" lon="13.34360284241782"><ele>397.0</ele><time>2026-04-10T16:08:34Z</time></trkpt><trkpt lat="41.73990485722523" lon="13.34367161201907"><ele>397.0</ele><time>2026-04-10T16:08:35Z</time></trkpt><trkpt lat="41.73970640844892" lon="13.343742531015335"><ele>397.0</ele><time>2026-04-10T16:08:36Z</time></trkpt><trkpt lat="41.73949919573394" lon="13.34381658197032"><ele>397.0</ele><time>2026-04-10T16:08:37Z</time></trkpt><trkpt lat="41.739288706773706" lon="13.343892218791675"><ele>397.0</ele><time>2026-04-10T16:08:38Z</time></trkpt><trkpt lat="41.73907491448637" lon="13.343969110579208"><ele>399.6666666666667</ele><time>2026-04-10T16:08:39Z</time></trkpt><trkpt lat="41.7388601831648" lon="13.344046096132873"><ele>402.33333333333337</ele><time>2026-04-10T16:08:40Z</time></trkpt><trkpt lat="41.7386417339675" lon="13.344124260280324"><ele>405.0</ele><time>2026-04-10T16:08:41Z</time></trkpt><trkpt lat="41.738424928339775" lon="13.344201919628015"><ele>406.0</ele><time>2026-04-10T16:08:42Z</time></trkpt><trkpt lat="41.73820533602665" lon="13.344280408592828"><ele>407.0</ele><time>2026-04-10T16:08:43Z</time></trkpt><trkpt lat="41.73800461140999" lon="13.344352181736493"><ele>408.0</ele><time>2026-04-10T16:08:44Z</time></trkpt><trkpt lat="41.737813627154296" lon="13.344418195624595"><ele>409.0</ele><time>2026-04-10T16:08:45Z</time></trkpt><trkpt lat="41.737615560563704" lon="13.344475088173311"><ele>410.0</ele><time>2026-04-10T16:08:46Z</time></trkpt><trkpt lat="41.737416688212654" lon="13.344506953747278"><ele>411.0</ele><time>2026-04-10T16:08:47Z</time></trkpt><trkpt lat="41.73721112474688" lon="13.344521048816585"><ele>411.0</ele><time>2026-04-10T16:08:48Z</time></trkpt><trkpt lat="41.73701058525219" lon="13.34451906377306"><ele>411.0</ele><time>2026-04-10T16:08:49Z</time></trkpt><trkpt lat="41.7368290148768" lon="13.344500171103594"><ele>411.0</ele><time>2026-04-10T16:08:50Z</time></trkpt><trkpt lat="41.73667094013467" lon="13.344471270892019"><ele>412.33333333333337</ele><time>2026-04-10T16:08:51Z</time></trkpt><trkpt lat="41.73651255417829" lon="13.344430112187181"><ele>413.6666666666667</ele><time>2026-04-10T16:08:52Z</time></trkpt><trkpt lat="41.736360869539006" lon="13.34437711191042"><ele>415.0</ele><time>2026-04-10T16:08:53Z</time></trkpt><trkpt lat="41.736216250085775" lon="13.34431690897637"><ele>415.0</ele><time>2026-04-10T16:08:54Z</time></trkpt><trkpt lat="41.736075985386535" lon="13.34424370004923"><ele>415.0</ele><time>2026-04-10T16:08:55Z</time></trkpt><trkpt lat="41.73594260153278" lon="13.34416492820134"><ele>415.0</ele><time>2026-04-10T16:08:56Z</time></trkpt><trkpt lat="41.73582377548708" lon="13.344090234248066"><ele>415.0</ele><time>2026-04-10T16:08:57Z</time></trkpt><trkpt lat="41.735705477828304" lon="13.344015706529413"><ele>416.0</ele><time>2026-04-10T16:08:58Z</time></trkpt><trkpt lat="41.73558321246485" lon="13.343938679024422"><ele>417.0</ele><time>2026-04-10T16:08:59Z</time></trkpt><trkpt lat="41.7354661470397" lon="13.34386824176146"><ele>418.0</ele><time>2026-04-10T16:09:00Z</time></trkpt><trkpt lat="41.735349107469" lon="13.343804378637817"><ele>419.0</ele><time>2026-04-10T16:09:01Z</time></trkpt><trkpt lat="41.73524175689911" lon="13.343753083557969"><ele>417.25</ele><time>2026-04-10T16:09:02Z</time></trkpt><trkpt lat="41.73512822399924" lon="13.343705162446097"><ele>415.5</ele><time>2026-04-10T16:09:03Z</time></trkpt><trkpt lat="41.73500652830788" lon="13.343661329475792"><ele>413.75</ele><time>2026-04-10T16:09:04Z</time></trkpt><trkpt lat="41.73487557689731" lon="13.343626495730684"><ele>412.0</ele><time>2026-04-10T16:09:05Z</time></trkpt><trkpt lat="41.73474376303573" lon="13.343601801500622"><ele>412.0</ele><time>2026-04-10T16:09:06Z</time></trkpt><trkpt lat="41.734607208877726" lon="13.343583383664813"><ele>412.0</ele><time>2026-04-10T16:09:07Z</time></trkpt><trkpt lat="41.73446732433674" lon="13.343577269261015"><ele>412.0</ele><time>2026-04-10T16:09:08Z</time></trkpt><trkpt lat="41.734327099858284" lon="13.343581276060318"><ele>412.0</ele><time>2026-04-10T16:09:09Z</time></trkpt><trkpt lat="41.73418990941333" lon="13.343598151126738"><ele>412.5</ele><time>2026-04-10T16:09:10Z</time></trkpt><trkpt lat="41.73405590545229" lon="13.343615573950691"><ele>413.0</ele><time>2026-04-10T16:09:11Z</time></trkpt><trkpt lat="41.733912002977014" lon="13.343634949701851"><ele>413.5</ele><time>2026-04-10T16:09:12Z</time></trkpt><trkpt lat="41.733781784606435" lon="13.343654183425619"><ele>414.0</ele><time>2026-04-10T16:09:13Z</time></trkpt><trkpt lat="41.733647445273505" lon="13.343674295806645"><ele>414.5</ele><time>2026-04-10T16:09:14Z</time></trkpt><trkpt lat="41.7335169703399" lon="13.343695022517872"><ele>415.0</ele><time>2026-04-10T16:09:15Z</time></trkpt><trkpt lat="41.733384808277265" lon="13.343719809423446"><ele>415.5</ele><time>2026-04-10T16:09:16Z</time></trkpt><trkpt lat="41.73325164819221" lon="13.343750723475225"><ele>416.0</ele><time>2026-04-10T16:09:17Z</time></trkpt><trkpt lat="41.73311990408717" lon="13.343788359775797"><ele>416.0</ele><time>2026-04-10T16:09:18Z</time></trkpt><trkpt lat="41.73299135819098" lon="13.34383266592206"><ele>416.0</ele><time>2026-04-10T16:09:19Z</time></trkpt><trkpt lat="41.7328646197785" lon="13.343883242725783"><ele>416.0</ele><time>2026-04-10T16:09:20Z</time></trkpt><trkpt lat="41.732739346079924" lon="13.343936302372393"><ele>416.0</ele><time>2026-04-10T16:09:21Z</time></trkpt><trkpt lat="41.73261735484771" lon="13.343988202873186"><ele>421.0</ele><time>2026-04-10T16:09:22Z</time></trkpt><trkpt lat="41.73248678817465" lon="13.344043738545126"><ele>426.0</ele><time>2026-04-10T16:09:23Z</time></trkpt><trkpt lat="41.73235650567992" lon="13.344099153554795"><ele>431.0</ele><time>2026-04-10T16:09:24Z</time></trkpt><trkpt lat="41.73222693803001" lon="13.344154264200489"><ele>436.0</ele><time>2026-04-10T16:09:25Z</time></trkpt><trkpt lat="41.73209816865533" lon="13.344209035505518"><ele>436.0</ele><time>2026-04-10T16:09:26Z</time></trkpt><trkpt lat="41.731971996479956" lon="13.344262137496083"><ele>436.0</ele><time>2026-04-10T16:09:27Z</time></trkpt><trkpt lat="41.731846406868776" lon="13.344315190264394"><ele>436.0</ele><time>2026-04-10T16:09:28Z</time></trkpt><trkpt lat="41.73172142584089" lon="13.344366988639038"><ele>436.0</ele><time>2026-04-10T16:09:29Z</time></trkpt><trkpt lat="41.73160104959662" lon="13.344416878612032"><ele>434.0</ele><time>2026-04-10T16:09:30Z</time></trkpt><trkpt lat="41.731489725169965" lon="13.344466088320473"><ele>432.0</ele><time>2026-04-10T16:09:31Z</time></trkpt><trkpt lat="41.73138060856014" lon="13.344515057942852"><ele>430.0</ele><time>2026-04-10T16:09:32Z</time></trkpt><trkpt lat="41.73129252130701" lon="13.344559046054501"><ele>428.0</ele><time>2026-04-10T16:09:33Z</time></trkpt><trkpt lat="41.73122646247493" lon="13.344593720325669"><ele>426.0</ele><time>2026-04-10T16:09:34Z</time></trkpt><trkpt lat="41.731145401890736" lon="13.344643968319557"><ele>426.0</ele><time>2026-04-10T16:09:36Z</time></trkpt><trkpt lat="41.73108983341825" lon="13.344697066739064"><ele>426.0</ele><time>2026-04-10T16:09:40Z</time></trkpt><trkpt lat="41.731011678556406" lon="13.344731948509347"><ele>426.0</ele><time>2026-04-10T16:09:46Z</time></trkpt><trkpt lat="41.73089420372164" lon="13.34477888002233"><ele>426.0</ele><time>2026-04-10T16:09:48Z</time></trkpt><trkpt lat="41.73081513368354" lon="13.344830785544389"><ele>426.0</ele><time>2026-04-10T16:09:49Z</time></trkpt><trkpt lat="41.730710108517435" lon="13.344906561484294"><ele>430.0</ele><time>2026-04-10T16:09:50Z</time></trkpt><trkpt lat="41.730589382826814" lon="13.344977055248977"><ele>434.0</ele><time>2026-04-10T16:09:51Z</time></trkpt><trkpt lat="41.73044767563011" lon="13.345050892205307"><ele>438.0</ele><time>2026-04-10T16:09:52Z</time></trkpt><trkpt lat="41.73028313190157" lon="13.34513909610434"><ele>438.66666666666663</ele><time>2026-04-10T16:09:53Z</time></trkpt><trkpt lat="41.73008078662575" lon="13.345261588863771"><ele>439.3333333333333</ele><time>2026-04-10T16:09:54Z</time></trkpt><trkpt lat="41.729914507543185" lon="13.345366160674597"><ele>440.0</ele><time>2026-04-10T16:09:55Z</time></trkpt><trkpt lat="41.729756448957765" lon="13.345455245734074"><ele>436.3333333333333</ele><time>2026-04-10T16:09:56Z</time></trkpt><trkpt lat="41.72958680039459" lon="13.345550038894368"><ele>432.66666666666663</ele><time>2026-04-10T16:09:57Z</time></trkpt><trkpt lat="41.729404946019635" lon="13.34564365160056"><ele>429.0</ele><time>2026-04-10T16:09:58Z</time></trkpt><trkpt lat="41.72921814316808" lon="13.345744327083269"><ele>428.66666666666663</ele><time>2026-04-10T16:09:59Z</time></trkpt><trkpt lat="41.729033553404456" lon="13.345853927017247"><ele>428.3333333333333</ele><time>2026-04-10T16:10:00Z</time></trkpt><trkpt lat="41.72883977619719" lon="13.345962969566694"><ele>428.0</ele><time>2026-04-10T16:10:01Z</time></trkpt><trkpt lat="41.72864303305757" lon="13.346082936476432"><ele>433.5</ele><time>2026-04-10T16:10:02Z</time></trkpt><trkpt lat="41.728425374555684" lon="13.346215427483653"><ele>439.0</ele><time>2026-04-10T16:10:03Z</time></trkpt><trkpt lat="41.728213836359444" lon="13.34635258107617"><ele>435.33333333333337</ele><time>2026-04-10T16:10:04Z</time></trkpt><trkpt lat="41.72801910347945" lon="13.346477644650644"><ele>431.66666666666663</ele><time>2026-04-10T16:10:05Z</time></trkpt><trkpt lat="41.727821808687374" lon="13.346594481338188"><ele>428.0</ele><time>2026-04-10T16:10:06Z</time></trkpt><trkpt lat="41.72763357575483" lon="13.346709576907536"><ele>428.0</ele><time>2026-04-10T16:10:07Z</time></trkpt><trkpt lat="41.72743301374047" lon="13.346784245597826"><ele>428.0</ele><time>2026-04-10T16:10:08Z</time></trkpt><trkpt lat="41.72723198910327" lon="13.346854761866124"><ele>428.0</ele><time>2026-04-10T16:10:09Z</time></trkpt><trkpt lat="41.72702327749057" lon="13.346919342797197"><ele>431.0</ele><time>2026-04-10T16:10:10Z</time></trkpt><trkpt lat="41.726802020442264" lon="13.346982338016003"><ele>434.0</ele><time>2026-04-10T16:10:11Z</time></trkpt><trkpt lat="41.72656614078532" lon="13.347061442938225"><ele>434.0</ele><time>2026-04-10T16:10:12Z</time></trkpt><trkpt lat="41.72629987991619" lon="13.347125388930202"><ele>434.0</ele><time>2026-04-10T16:10:13Z</time></trkpt><trkpt lat="41.72605405974534" lon="13.347187578417843"><ele>425.0</ele><time>2026-04-10T16:10:14Z</time></trkpt><trkpt lat="41.725840075147495" lon="13.347253774789191"><ele>416.0</ele><time>2026-04-10T16:10:15Z</time></trkpt><trkpt lat="41.725647881864724" lon="13.347311454667786"><ele>407.0</ele><time>2026-04-10T16:10:16Z</time></trkpt><trkpt lat="41.72546057134448" lon="13.347361664341841"><ele>407.0</ele><time>2026-04-10T16:10:17Z</time></trkpt><trkpt lat="41.72530144548437" lon="13.347403150663254"><ele>407.0</ele><time>2026-04-10T16:10:18Z</time></trkpt><trkpt lat="41.72515083031798" lon="13.347457178182735"><ele>407.0</ele><time>2026-04-10T16:10:19Z</time></trkpt><trkpt lat="41.72500644735186" lon="13.34748413222574"><ele>406.6</ele><time>2026-04-10T16:10:20Z</time></trkpt><trkpt lat="41.724879579157545" lon="13.347519050560553"><ele>406.20000000000005</ele><time>2026-04-10T16:10:21Z</time></trkpt><trkpt lat="41.72481376799574" lon="13.347521269165442"><ele>405.8</ele><time>2026-04-10T16:10:22Z</time></trkpt><trkpt lat="41.7247228146827" lon="13.347541645772848"><ele>405.4</ele><time>2026-04-10T16:10:23Z</time></trkpt><trkpt lat="41.724640610416984" lon="13.347559386567381"><ele>405.0</ele><time>2026-04-10T16:10:24Z</time></trkpt><trkpt lat="41.72454678466866" lon="13.34757240379725"><ele>405.0</ele><time>2026-04-10T16:10:25Z</time></trkpt><trkpt lat="41.72441057372126" lon="13.347595343900803"><ele>405.0</ele><time>2026-04-10T16:10:26Z</time></trkpt><trkpt lat="41.7242107763203" lon="13.34762745032575"><ele>405.0</ele><time>2026-04-10T16:10:27Z</time></trkpt><trkpt lat="41.72398609382997" lon="13.347655800367678"><ele>404.0</ele><time>2026-04-10T16:10:28Z</time></trkpt><trkpt lat="41.72374850132807" lon="13.347689461396786"><ele>403.0</ele><time>2026-04-10T16:10:29Z</time></trkpt><trkpt lat="41.72350735385565" lon="13.347737388980445"><ele>402.33333333333337</ele><time>2026-04-10T16:10:30Z</time></trkpt><trkpt lat="41.72329156338986" lon="13.347789806604158"><ele>401.66666666666663</ele><time>2026-04-10T16:10:31Z</time></trkpt><trkpt lat="41.723095005780756" lon="13.34783626983345"><ele>401.0</ele><time>2026-04-10T16:10:32Z</time></trkpt><trkpt lat="41.722927676352896" lon="13.347875128128246"><ele>401.0</ele><time>2026-04-10T16:10:33Z</time></trkpt><trkpt lat="41.7227760688882" lon="13.34791135656944"><ele>401.0</ele><time>2026-04-10T16:10:34Z</time></trkpt><trkpt lat="41.72263761471841" lon="13.347944646448118"><ele>401.0</ele><time>2026-04-10T16:10:35Z</time></trkpt><trkpt lat="41.722510372030854" lon="13.347960171071113"><ele>401.0</ele><time>2026-04-10T16:10:36Z</time></trkpt><trkpt lat="41.72239073769722" lon="13.347950756007098"><ele>399.0</ele><time>2026-04-10T16:10:37Z</time></trkpt><trkpt lat="41.7222743024529" lon="13.347887930086394"><ele>397.0</ele><time>2026-04-10T16:10:38Z</time></trkpt><trkpt lat="41.72217370817275" lon="13.347769467839763"><ele>395.0</ele><time>2026-04-10T16:10:39Z</time></trkpt><trkpt lat="41.722093456858445" lon="13.347615103033645"><ele>393.0</ele><time>2026-04-10T16:10:40Z</time></trkpt><trkpt lat="41.72204312271957" lon="13.347399381923074"><ele>399.0</ele><time>2026-04-10T16:10:41Z</time></trkpt><trkpt lat="41.72201580612" lon="13.347117160393518"><ele>405.0</ele><time>2026-04-10T16:10:42Z</time></trkpt><trkpt lat="41.72197654114161" lon="13.346827328415467"><ele>411.0</ele><time>2026-04-10T16:10:43Z</time></trkpt><trkpt lat="41.72194527675614" lon="13.34655297079659"><ele>414.66666666666663</ele><time>2026-04-10T16:10:44Z</time></trkpt><trkpt lat="41.72191764812512" lon="13.34631991330883"><ele>418.3333333333333</ele><time>2026-04-10T16:10:45Z</time></trkpt><trkpt lat="41.72189002737039" lon="13.346101932992326"><ele>422.0</ele><time>2026-04-10T16:10:46Z</time></trkpt><trkpt lat="41.7218629177306" lon="13.34590102555881"><ele>412.25</ele><time>2026-04-10T16:10:47Z</time></trkpt><trkpt lat="41.72183863349161" lon="13.345714446915027"><ele>402.5</ele><time>2026-04-10T16:10:48Z</time></trkpt><trkpt lat="41.72181379640554" lon="13.345568012987806"><ele>392.75</ele><time>2026-04-10T16:10:49Z</time></trkpt><trkpt lat="41.72177963251105" lon="13.34544081521393"><ele>383.0</ele><time>2026-04-10T16:10:50Z</time></trkpt><trkpt lat="41.72171811445448" lon="13.345333481352878"><ele>383.0</ele><time>2026-04-10T16:10:51Z</time></trkpt><trkpt lat="41.72162842963381" lon="13.34525079983838"><ele>383.0</ele><time>2026-04-10T16:10:52Z</time></trkpt><trkpt lat="41.72151805219057" lon="13.345243302181553"><ele>383.0</ele><time>2026-04-10T16:10:53Z</time></trkpt><trkpt lat="41.721412560428924" lon="13.345286210421383"><ele>383.0</ele><time>2026-04-10T16:10:54Z</time></trkpt><trkpt lat="41.72132560413919" lon="13.34538770135808"><ele>383.0</ele><time>2026-04-10T16:10:55Z</time></trkpt><trkpt lat="41.721271525176334" lon="13.345553826484867"><ele>382.6666666666667</ele><time>2026-04-10T16:10:56Z</time></trkpt><trkpt lat="41.72125281028032" lon="13.345758199078281"><ele>382.3333333333333</ele><time>2026-04-10T16:10:57Z</time></trkpt><trkpt lat="41.72123462442903" lon="13.346022243623153"><ele>382.0</ele><time>2026-04-10T16:10:58Z</time></trkpt><trkpt lat="41.72122340041684" lon="13.34634430378147"><ele>381.5</ele><time>2026-04-10T16:10:59Z</time></trkpt><trkpt lat="41.721209327333376" lon="13.346647508814057"><ele>381.0</ele><time>2026-04-10T16:11:00Z</time></trkpt><trkpt lat="41.721193537358296" lon="13.346965119929662"><ele>380.3333333333333</ele><time>2026-04-10T16:11:01Z</time></trkpt><trkpt lat="41.721188117370616" lon="13.347248442489361"><ele>379.66666666666663</ele><time>2026-04-10T16:11:02Z</time></trkpt><trkpt lat="41.72117619075734" lon="13.34749849435424"><ele>379.0</ele><time>2026-04-10T16:11:03Z</time></trkpt><trkpt lat="41.72118260711542" lon="13.347709555393592"><ele>379.0</ele><time>2026-04-10T16:11:04Z</time></trkpt><trkpt lat="41.72117871582105" lon="13.347945302195665"><ele>379.0</ele><time>2026-04-10T16:11:05Z</time></trkpt><trkpt lat="41.72116963521143" lon="13.348160324094396"><ele>379.0</ele><time>2026-04-10T16:11:06Z</time></trkpt><trkpt lat="41.721177843171304" lon="13.348373151949085"><ele>377.66666666666663</ele><time>2026-04-10T16:11:07Z</time></trkpt><trkpt lat="41.7212068610448" lon="13.348583956232975"><ele>376.3333333333333</ele><time>2026-04-10T16:11:08Z</time></trkpt><trkpt lat="41.721295570321466" lon="13.348806650354572"><ele>375.0</ele><time>2026-04-10T16:11:09Z</time></trkpt><trkpt lat="41.7214040923497" lon="13.349034203011866"><ele>372.0</ele><time>2026-04-10T16:11:10Z</time></trkpt><trkpt lat="41.721534913489" lon="13.349246536914173"><ele>369.0</ele><time>2026-04-10T16:11:11Z</time></trkpt><trkpt lat="41.72166198191183" lon="13.349490679787404"><ele>366.0</ele><time>2026-04-10T16:11:12Z</time></trkpt><trkpt lat="41.721775902932144" lon="13.349705659735342"><ele>365.0</ele><time>2026-04-10T16:11:13Z</time></trkpt><trkpt lat="41.721874167629274" lon="13.349870056485008"><ele>364.0</ele><time>2026-04-10T16:11:14Z</time></trkpt><trkpt lat="41.7219658988438" lon="13.35005684160761"><ele>363.0</ele><time>2026-04-10T16:11:15Z</time></trkpt><trkpt lat="41.72204651150093" lon="13.350218865299638"><ele>363.0</ele><time>2026-04-10T16:11:16Z</time></trkpt><trkpt lat="41.72212486174509" lon="13.350365474071038"><ele>363.0</ele><time>2026-04-10T16:11:17Z</time></trkpt><trkpt lat="41.722200022399896" lon="13.350516253065507"><ele>363.0</ele><time>2026-04-10T16:11:18Z</time></trkpt><trkpt lat="41.72224814922268" lon="13.350723826480728"><ele>363.0</ele><time>2026-04-10T16:11:19Z</time></trkpt><trkpt lat="41.7223100632371" lon="13.35084228948866"><ele>361.2</ele><time>2026-04-10T16:11:20Z</time></trkpt><trkpt lat="41.722362588214665" lon="13.350953640653056"><ele>359.4</ele><time>2026-04-10T16:11:21Z</time></trkpt><trkpt lat="41.72239406661676" lon="13.351057262668098"><ele>357.59999999999997</ele><time>2026-04-10T16:11:22Z</time></trkpt><trkpt lat="41.722477851116494" lon="13.351136212819664"><ele>355.79999999999995</ele><time>2026-04-10T16:11:23Z</time></trkpt><trkpt lat="41.72237961883934" lon="13.351262270537099"><ele>354.0</ele><time>2026-04-10T16:11:24Z</time></trkpt><trkpt lat="41.72231909143587" lon="13.351320410536884"><ele>354.0</ele><time>2026-04-10T16:11:25Z</time></trkpt><trkpt lat="41.72223216490431" lon="13.351346089435248"><ele>354.0</ele><time>2026-04-10T16:11:26Z</time></trkpt><trkpt lat="41.722118489316074" lon="13.351316913716012"><ele>354.0</ele><time>2026-04-10T16:11:27Z</time></trkpt><trkpt lat="41.721998672096376" lon="13.351118912136407"><ele>354.0</ele><time>2026-04-10T16:11:28Z</time></trkpt><trkpt lat="41.72185630647068" lon="13.35097974154639"><ele>352.0</ele><time>2026-04-10T16:11:29Z</time></trkpt><trkpt lat="41.72172781713354" lon="13.350883322931175"><ele>350.0</ele><time>2026-04-10T16:11:30Z</time></trkpt><trkpt lat="41.72160339732458" lon="13.35077459908377"><ele>348.0</ele><time>2026-04-10T16:11:31Z</time></trkpt><trkpt lat="41.72145536957112" lon="13.350655944965267"><ele>347.0</ele><time>2026-04-10T16:11:32Z</time></trkpt><trkpt lat="41.7213183364045" lon="13.3505248748636"><ele>346.0</ele><time>2026-04-10T16:11:33Z</time></trkpt><trkpt lat="41.72118514185526" lon="13.350397171937741"><ele>345.0</ele><time>2026-04-10T16:11:34Z</time></trkpt><trkpt lat="41.721065411915205" lon="13.350283085420802"><ele>345.0</ele><time>2026-04-10T16:11:35Z</time></trkpt><trkpt lat="41.72094544085917" lon="13.350196025148726"><ele>345.0</ele><time>2026-04-10T16:11:36Z</time></trkpt><trkpt lat="41.72084534728617" lon="13.35009441695336"><ele>345.0</ele><time>2026-04-10T16:11:37Z</time></trkpt><trkpt lat="41.72075278321387" lon="13.349992820034522"><ele>345.0</ele><time>2026-04-10T16:11:38Z</time></trkpt><trkpt lat="41.72067228938352" lon="13.34987284570239"><ele>345.0</ele><time>2026-04-10T16:11:39Z</time></trkpt><trkpt lat="41.72058520168874" lon="13.349751550408826"><ele>345.0</ele><time>2026-04-10T16:11:40Z</time></trkpt><trkpt lat="41.720523283564596" lon="13.34956596643316"><ele>345.0</ele><time>2026-04-10T16:11:41Z</time></trkpt><trkpt lat="41.720469488935684" lon="13.349358224288562"><ele>345.0</ele><time>2026-04-10T16:11:42Z</time></trkpt><trkpt lat="41.72041731339626" lon="13.349154911768675"><ele>347.0</ele><time>2026-04-10T16:11:43Z</time></trkpt><trkpt lat="41.72036163193634" lon="13.348951691241577"><ele>349.0</ele><time>2026-04-10T16:11:44Z</time></trkpt><trkpt lat="41.72031257207385" lon="13.34875066202935"><ele>351.0</ele><time>2026-04-10T16:11:45Z</time></trkpt><trkpt lat="41.72024865962589" lon="13.348575749709735"><ele>346.75</ele><time>2026-04-10T16:11:46Z</time></trkpt><trkpt lat="41.72016133453908" lon="13.34843248315373"><ele>342.5</ele><time>2026-04-10T16:11:47Z</time></trkpt><trkpt lat="41.720039548127446" lon="13.34831221284005"><ele>338.25</ele><time>2026-04-10T16:11:48Z</time></trkpt><trkpt lat="41.719908626388246" lon="13.348191957654029"><ele>334.0</ele><time>2026-04-10T16:11:49Z</time></trkpt><trkpt lat="41.7197561795082" lon="13.348131606381923"><ele>334.0</ele><time>2026-04-10T16:11:50Z</time></trkpt><trkpt lat="41.71961536766202" lon="13.348064052334388"><ele>334.0</ele><time>2026-04-10T16:11:51Z</time></trkpt><trkpt lat="41.719491032991165" lon="13.348006811418331"><ele>334.0</ele><time>2026-04-10T16:11:52Z</time></trkpt><trkpt lat="41.71937922879391" lon="13.347950518041722"><ele>334.0</ele><time>2026-04-10T16:11:53Z</time></trkpt><trkpt lat="41.71928484702161" lon="13.347876220529598"><ele>334.6</ele><time>2026-04-10T16:11:54Z</time></trkpt><trkpt lat="41.71918694617641" lon="13.347850998100029"><ele>335.2</ele><time>2026-04-10T16:11:55Z</time></trkpt><trkpt lat="41.719093620003676" lon="13.347864844983171"><ele>335.8</ele><time>2026-04-10T16:11:56Z</time></trkpt><trkpt lat="41.7189995046072" lon="13.347927325995348"><ele>336.40000000000003</ele><time>2026-04-10T16:11:57Z</time></trkpt><trkpt lat="41.718932767430054" lon="13.348086805388125"><ele>337.0</ele><time>2026-04-10T16:11:58Z</time></trkpt><trkpt lat="41.718859428712236" lon="13.34824905652378"><ele>334.0</ele><time>2026-04-10T16:11:59Z</time></trkpt><trkpt lat="41.71876238674851" lon="13.348447511119906"><ele>331.0</ele><time>2026-04-10T16:12:00Z</time></trkpt><trkpt lat="41.7186792119863" lon="13.348640809728051"><ele>328.0</ele><time>2026-04-10T16:12:01Z</time></trkpt><trkpt lat="41.7186131672725" lon="13.348794298230617"><ele>328.4</ele><time>2026-04-10T16:12:02Z</time></trkpt><trkpt lat="41.71856249648668" lon="13.348912057284188"><ele>328.79999999999995</ele><time>2026-04-10T16:12:03Z</time></trkpt><trkpt lat="41.718516426633336" lon="13.349019124146068"><ele>329.2</ele><time>2026-04-10T16:12:04Z</time></trkpt><trkpt lat="41.718486483712795" lon="13.349153564567889"><ele>329.6</ele><time>2026-04-10T16:12:05Z</time></trkpt><trkpt lat="41.71842101807391" lon="13.349307068114914"><ele>330.0</ele><time>2026-04-10T16:12:06Z</time></trkpt><trkpt lat="41.71835091030014" lon="13.349473564611849"><ele>330.0</ele><time>2026-04-10T16:12:07Z</time></trkpt><trkpt lat="41.71828010438114" lon="13.349623022633605"><ele>330.0</ele><time>2026-04-10T16:12:08Z</time></trkpt><trkpt lat="41.718221987294555" lon="13.349746413976446"><ele>330.0</ele><time>2026-04-10T16:12:09Z</time></trkpt><trkpt lat="41.71817424702827" lon="13.349858437085567"><ele>330.0</ele><time>2026-04-10T16:12:10Z</time></trkpt><trkpt lat="41.71812342833951" lon="13.3499800218566"><ele>330.0</ele><time>2026-04-10T16:12:11Z</time></trkpt><trkpt lat="41.71804947850923" lon="13.350101422677753"><ele>328.5</ele><time>2026-04-10T16:12:12Z</time></trkpt><trkpt lat="41.71798684209399" lon="13.350246853290015"><ele>327.0</ele><time>2026-04-10T16:12:13Z</time></trkpt><trkpt lat="41.717928848701504" lon="13.35038150330762"><ele>325.5</ele><time>2026-04-10T16:12:14Z</time></trkpt><trkpt lat="41.717886847309096" lon="13.350514871027329"><ele>324.0</ele><time>2026-04-10T16:12:15Z</time></trkpt><trkpt lat="41.71782828060604" lon="13.350636238075266"><ele>324.0</ele><time>2026-04-10T16:12:16Z</time></trkpt><trkpt lat="41.71777796712401" lon="13.350744392191496"><ele>324.0</ele><time>2026-04-10T16:12:17Z</time></trkpt><trkpt lat="41.71773917645283" lon="13.350837752142057"><ele>324.0</ele><time>2026-04-10T16:12:18Z</time></trkpt><trkpt lat="41.71770083253104" lon="13.350920581054266"><ele>324.0</ele><time>2026-04-10T16:12:19Z</time></trkpt><trkpt lat="41.717650663831904" lon="13.351011998117876"><ele>324.0</ele><time>2026-04-10T16:12:20Z</time></trkpt><trkpt lat="41.7175908588836" lon="13.35112779202568"><ele>324.0</ele><time>2026-04-10T16:12:21Z</time></trkpt><trkpt lat="41.717488515344016" lon="13.351280072833527"><ele>324.25</ele><time>2026-04-10T16:12:22Z</time></trkpt><trkpt lat="41.717380571895944" lon="13.351412248667401"><ele>324.5</ele><time>2026-04-10T16:12:23Z</time></trkpt><trkpt lat="41.71728429189178" lon="13.351514039369025"><ele>324.75</ele><time>2026-04-10T16:12:24Z</time></trkpt><trkpt lat="41.717190424574426" lon="13.351623520780427"><ele>325.0</ele><time>2026-04-10T16:12:25Z</time></trkpt><trkpt lat="41.7170942403172" lon="13.35172576416017"><ele>325.0</ele><time>2026-04-10T16:12:26Z</time></trkpt><trkpt lat="41.71700463850821" lon="13.35180749961649"><ele>325.0</ele><time>2026-04-10T16:12:27Z</time></trkpt><trkpt lat="41.71691106800553" lon="13.35187455198245"><ele>325.0</ele><time>2026-04-10T16:12:28Z</time></trkpt><trkpt lat="41.71677973506487" lon="13.35193146857884"><ele>325.0</ele><time>2026-04-10T16:12:29Z</time></trkpt><trkpt lat="41.7166217776892" lon="13.352035024467652"><ele>325.3333333333333</ele><time>2026-04-10T16:12:30Z</time></trkpt><trkpt lat="41.7164074178699" lon="13.352068640847714"><ele>325.6666666666667</ele><time>2026-04-10T16:12:31Z</time></trkpt><trkpt lat="41.71618213515529" lon="13.352081537915156"><ele>326.0</ele><time>2026-04-10T16:12:32Z</time></trkpt><trkpt lat="41.71594732104359" lon="13.352101699169353"><ele>323.5</ele><time>2026-04-10T16:12:33Z</time></trkpt><trkpt lat="41.71571567646595" lon="13.352127768590757"><ele>321.0</ele><time>2026-04-10T16:12:34Z</time></trkpt><trkpt lat="41.715492281198806" lon="13.352152667030701"><ele>321.0</ele><time>2026-04-10T16:12:35Z</time></trkpt><trkpt lat="41.715281916656345" lon="13.352178467212154"><ele>321.0</ele><time>2026-04-10T16:12:36Z</time></trkpt><trkpt lat="41.71507900534143" lon="13.352200416950632"><ele>321.0</ele><time>2026-04-10T16:12:37Z</time></trkpt><trkpt lat="41.71489418268871" lon="13.352224486810325"><ele>320.3333333333333</ele><time>2026-04-10T16:12:38Z</time></trkpt><trkpt lat="41.71472109680058" lon="13.352259978027405"><ele>319.66666666666663</ele><time>2026-04-10T16:12:39Z</time></trkpt><trkpt lat="41.71455018160617" lon="13.352308473935716"><ele>319.0</ele><time>2026-04-10T16:12:40Z</time></trkpt><trkpt lat="41.71437546188994" lon="13.352376731302687"><ele>319.0</ele><time>2026-04-10T16:12:41Z</time></trkpt><trkpt lat="41.71420201462578" lon="13.352458758715928"><ele>319.0</ele><time>2026-04-10T16:12:42Z</time></trkpt><trkpt lat="41.71403381396333" lon="13.352545614691104"><ele>319.0</ele><time>2026-04-10T16:12:43Z</time></trkpt><trkpt lat="41.71386692707304" lon="13.352646695319928"><ele>319.0</ele><time>2026-04-10T16:12:44Z</time></trkpt><trkpt lat="41.713704605963834" lon="13.352761365679426"><ele>319.0</ele><time>2026-04-10T16:12:45Z</time></trkpt><trkpt lat="41.71354955155665" lon="13.35288808931908"><ele>319.0</ele><time>2026-04-10T16:12:46Z</time></trkpt><trkpt lat="41.71340308219988" lon="13.353018545492798"><ele>317.66666666666663</ele><time>2026-04-10T16:12:47Z</time></trkpt><trkpt lat="41.71326371337209" lon="13.353159038265364"><ele>316.3333333333333</ele><time>2026-04-10T16:12:48Z</time></trkpt><trkpt lat="41.71313757284876" lon="13.353307091706684"><ele>315.0</ele><time>2026-04-10T16:12:49Z</time></trkpt><trkpt lat="41.71302101521752" lon="13.353460321147072"><ele>315.0</ele><time>2026-04-10T16:12:50Z</time></trkpt><trkpt lat="41.71291499439926" lon="13.35361490853905"><ele>315.0</ele><time>2026-04-10T16:12:51Z</time></trkpt><trkpt lat="41.71281619834765" lon="13.353760321752247"><ele>315.0</ele><time>2026-04-10T16:12:52Z</time></trkpt><trkpt lat="41.71272322916852" lon="13.353895721580479"><ele>315.0</ele><time>2026-04-10T16:12:53Z</time></trkpt><trkpt lat="41.712631462805696" lon="13.354023884403512"><ele>313.6666666666667</ele><time>2026-04-10T16:12:54Z</time></trkpt><trkpt lat="41.712533025287236" lon="13.354158360550258"><ele>312.33333333333337</ele><time>2026-04-10T16:12:55Z</time></trkpt><trkpt lat="41.71242439866677" lon="13.35431457561328"><ele>311.0</ele><time>2026-04-10T16:12:56Z</time></trkpt><trkpt lat="41.712307509667035" lon="13.35448803508725"><ele>311.0</ele><time>2026-04-10T16:12:57Z</time></trkpt><trkpt lat="41.71216832379777" lon="13.354659016934567"><ele>311.0</ele><time>2026-04-10T16:12:58Z</time></trkpt><trkpt lat="41.712027836066774" lon="13.35485876927838"><ele>311.0</ele><time>2026-04-10T16:12:59Z</time></trkpt><trkpt lat="41.71186113512074" lon="13.35509823697333"><ele>309.33333333333337</ele><time>2026-04-10T16:13:00Z</time></trkpt><trkpt lat="41.71171790472506" lon="13.355328058582018"><ele>307.6666666666667</ele><time>2026-04-10T16:13:01Z</time></trkpt><trkpt lat="41.71158175638169" lon="13.355508239724983"><ele>306.0</ele><time>2026-04-10T16:13:02Z</time></trkpt><trkpt lat="41.711457805290976" lon="13.355679424866997"><ele>306.0</ele><time>2026-04-10T16:13:03Z</time></trkpt><trkpt lat="41.711345115208694" lon="13.355845229714632"><ele>306.0</ele><time>2026-04-10T16:13:04Z</time></trkpt><trkpt lat="41.7112363873555" lon="13.355998407490484"><ele>306.0</ele><time>2026-04-10T16:13:05Z</time></trkpt><trkpt lat="41.71113390941284" lon="13.356144358866281"><ele>305.25</ele><time>2026-04-10T16:13:06Z</time></trkpt><trkpt lat="41.71103117820867" lon="13.356290823173357"><ele>304.5</ele><time>2026-04-10T16:13:07Z</time></trkpt><trkpt lat="41.710935203946576" lon="13.356425913251456"><ele>303.75</ele><time>2026-04-10T16:13:08Z</time></trkpt><trkpt lat="41.71084227130833" lon="13.356552425520244"><ele>303.0</ele><time>2026-04-10T16:13:09Z</time></trkpt><trkpt lat="41.7107522969213" lon="13.356677266321524"><ele>303.0</ele><time>2026-04-10T16:13:10Z</time></trkpt><trkpt lat="41.71066531970541" lon="13.356802275461797"><ele>303.0</ele><time>2026-04-10T16:13:11Z</time></trkpt><trkpt lat="41.710584402152506" lon="13.356924117090225"><ele>303.0</ele><time>2026-04-10T16:13:12Z</time></trkpt><trkpt lat="41.71050102102622" lon="13.357046424173909"><ele>303.0</ele><time>2026-04-10T16:13:13Z</time></trkpt><trkpt lat="41.710417870453746" lon="13.357163049300752"><ele>302.6</ele><time>2026-04-10T16:13:14Z</time></trkpt><trkpt lat="41.71033628284986" lon="13.357275723891451"><ele>302.20000000000005</ele><time>2026-04-10T16:13:15Z</time></trkpt><trkpt lat="41.710258698853174" lon="13.357382964994875"><ele>301.8</ele><time>2026-04-10T16:13:16Z</time></trkpt><trkpt lat="41.710186665912886" lon="13.357486121861179"><ele>301.40000000000003</ele><time>2026-04-10T16:13:17Z</time></trkpt><trkpt lat="41.71012306414948" lon="13.35758145278959"><ele>301.0</ele><time>2026-04-10T16:13:18Z</time></trkpt><trkpt lat="41.7100627095332" lon="13.357664512866416"><ele>300.6</ele><time>2026-04-10T16:13:19Z</time></trkpt><trkpt lat="41.710001454876256" lon="13.357750061941367"><ele>300.20000000000005</ele><time>2026-04-10T16:13:20Z</time></trkpt><trkpt lat="41.709936460137904" lon="13.357842101192082"><ele>299.79999999999995</ele><time>2026-04-10T16:13:21Z</time></trkpt><trkpt lat="41.70987425673168" lon="13.357929229992676"><ele>299.4</ele><time>2026-04-10T16:13:22Z</time></trkpt><trkpt lat="41.70981013621781" lon="13.358015897486663"><ele>299.0</ele><time>2026-04-10T16:13:23Z</time></trkpt><trkpt lat="41.70975022923541" lon="13.358100652513818"><ele>299.0</ele><time>2026-04-10T16:13:24Z</time></trkpt><trkpt lat="41.70969031217751" lon="13.358182298083658"><ele>299.0</ele><time>2026-04-10T16:13:25Z</time></trkpt><trkpt lat="41.70963542737081" lon="13.35825918522032"><ele>299.0</ele><time>2026-04-10T16:13:26Z</time></trkpt><trkpt lat="41.70958175509551" lon="13.358334646860834"><ele>299.0</ele><time>2026-04-10T16:13:27Z</time></trkpt><trkpt lat="41.70953418805569" lon="13.358402073262479"><ele>299.0</ele><time>2026-04-10T16:13:28Z</time></trkpt><trkpt lat="41.7094352878723" lon="13.358508364922194"><ele>299.0</ele><time>2026-04-10T16:13:30Z</time></trkpt><trkpt lat="41.709364300181065" lon="13.358569797084252"><ele>298.2</ele><time>2026-04-10T16:13:31Z</time></trkpt><trkpt lat="41.709282526448746" lon="13.358647269357963"><ele>297.4</ele><time>2026-04-10T16:13:32Z</time></trkpt><trkpt lat="41.70918527609079" lon="13.358719754343369"><ele>296.6</ele><time>2026-04-10T16:13:33Z</time></trkpt><trkpt lat="41.70907483103999" lon="13.358786197783008"><ele>295.8</ele><time>2026-04-10T16:13:34Z</time></trkpt><trkpt lat="41.708963727409476" lon="13.358823701717396"><ele>295.0</ele><time>2026-04-10T16:13:35Z</time></trkpt><trkpt lat="41.708836220162205" lon="13.358833283563634"><ele>295.0</ele><time>2026-04-10T16:13:36Z</time></trkpt><trkpt lat="41.70870528721494" lon="13.358840699547905"><ele>295.0</ele><time>2026-04-10T16:13:37Z</time></trkpt><trkpt lat="41.708562613265876" lon="13.358832752411283"><ele>295.0</ele><time>2026-04-10T16:13:38Z</time></trkpt><trkpt lat="41.708417282954336" lon="13.35881752152211"><ele>295.0</ele><time>2026-04-10T16:13:39Z</time></trkpt><trkpt lat="41.7082422236016" lon="13.35878091680066"><ele>293.66666666666663</ele><time>2026-04-10T16:13:40Z</time></trkpt><trkpt lat="41.70804293811212" lon="13.358762068745342"><ele>292.3333333333333</ele><time>2026-04-10T16:13:41Z</time></trkpt><trkpt lat="41.70784255537341" lon="13.358762551600055"><ele>291.0</ele><time>2026-04-10T16:13:42Z</time></trkpt><trkpt lat="41.70764224730701" lon="13.358739740698628"><ele>289.6666666666667</ele><time>2026-04-10T16:13:43Z</time></trkpt><trkpt lat="41.70744016760184" lon="13.35872078065308"><ele>288.33333333333337</ele><time>2026-04-10T16:13:44Z</time></trkpt><trkpt lat="41.70723784639832" lon="13.35870475682418"><ele>287.0</ele><time>2026-04-10T16:13:45Z</time></trkpt><trkpt lat="41.70703390254625" lon="13.358689377750162"><ele>285.6666666666667</ele><time>2026-04-10T16:13:46Z</time></trkpt><trkpt lat="41.70682781138803" lon="13.35867588821259"><ele>284.3333333333333</ele><time>2026-04-10T16:13:47Z</time></trkpt><trkpt lat="41.70662164276414" lon="13.358661867551296"><ele>283.0</ele><time>2026-04-10T16:13:48Z</time></trkpt><trkpt lat="41.70643418797409" lon="13.358640662470808"><ele>283.0</ele><time>2026-04-10T16:13:49Z</time></trkpt><trkpt lat="41.70626140009733" lon="13.3586245515614"><ele>283.0</ele><time>2026-04-10T16:13:50Z</time></trkpt><trkpt lat="41.70610464980762" lon="13.358591425135408"><ele>283.0</ele><time>2026-04-10T16:13:51Z</time></trkpt><trkpt lat="41.705958386687556" lon="13.358548327610142"><ele>283.25</ele><time>2026-04-10T16:13:52Z</time></trkpt><trkpt lat="41.70582886182983" lon="13.358480345892639"><ele>283.5</ele><time>2026-04-10T16:13:53Z</time></trkpt><trkpt lat="41.70569013339283" lon="13.358423073131817"><ele>283.75</ele><time>2026-04-10T16:13:54Z</time></trkpt><trkpt lat="41.705543546134386" lon="13.358360119299668"><ele>284.0</ele><time>2026-04-10T16:13:55Z</time></trkpt><trkpt lat="41.70539525709787" lon="13.358298062574551"><ele>284.0</ele><time>2026-04-10T16:13:56Z</time></trkpt><trkpt lat="41.70523075578852" lon="13.358233386842356"><ele>284.0</ele><time>2026-04-10T16:13:57Z</time></trkpt><trkpt lat="41.70505612633164" lon="13.358168650551713"><ele>284.0</ele><time>2026-04-10T16:13:58Z</time></trkpt><trkpt lat="41.70489211492353" lon="13.358112405866013"><ele>284.0</ele><time>2026-04-10T16:13:59Z</time></trkpt><trkpt lat="41.70473463630093" lon="13.358065223333817"><ele>284.0</ele><time>2026-04-10T16:14:00Z</time></trkpt><trkpt lat="41.70459173735649" lon="13.358029779353792"><ele>284.0</ele><time>2026-04-10T16:14:01Z</time></trkpt><trkpt lat="41.70446042623938" lon="13.357995945228119"><ele>284.0</ele><time>2026-04-10T16:14:02Z</time></trkpt><trkpt lat="41.704312713036536" lon="13.35795342306392"><ele>283.33333333333337</ele><time>2026-04-10T16:14:03Z</time></trkpt><trkpt lat="41.70414965555981" lon="13.357907472002482"><ele>282.6666666666667</ele><time>2026-04-10T16:14:04Z</time></trkpt><trkpt lat="41.703982027589895" lon="13.35786471873248"><ele>282.0</ele><time>2026-04-10T16:14:05Z</time></trkpt><trkpt lat="41.70380701025684" lon="13.357848797821589"><ele>282.0</ele><time>2026-04-10T16:14:06Z</time></trkpt><trkpt lat="41.7036390292666" lon="13.357793164734646"><ele>282.0</ele><time>2026-04-10T16:14:07Z</time></trkpt><trkpt lat="41.70347259707207" lon="13.357760700179147"><ele>282.0</ele><time>2026-04-10T16:14:08Z</time></trkpt><trkpt lat="41.70330876617936" lon="13.3577302357031"><ele>281.75</ele><time>2026-04-10T16:14:09Z</time></trkpt><trkpt lat="41.70315140673367" lon="13.357700757679282"><ele>281.5</ele><time>2026-04-10T16:14:10Z</time></trkpt><trkpt lat="41.703012867261464" lon="13.357673916821344"><ele>281.25</ele><time>2026-04-10T16:14:11Z</time></trkpt><trkpt lat="41.7028827553152" lon="13.357647151521697"><ele>281.0</ele><time>2026-04-10T16:14:12Z</time></trkpt><trkpt lat="41.70275303137522" lon="13.357619782855082"><ele>280.25</ele><time>2026-04-10T16:14:13Z</time></trkpt><trkpt lat="41.70262644554539" lon="13.357591543922897"><ele>279.5</ele><time>2026-04-10T16:14:14Z</time></trkpt><trkpt lat="41.7025144928805" lon="13.3575660031838"><ele>278.75</ele><time>2026-04-10T16:14:15Z</time></trkpt><trkpt lat="41.70240979242979" lon="13.35754111493304"><ele>278.0</ele><time>2026-04-10T16:14:16Z</time></trkpt><trkpt lat="41.70229463444307" lon="13.357513170906378"><ele>278.0</ele><time>2026-04-10T16:14:17Z</time></trkpt><trkpt lat="41.70217702711339" lon="13.357483361901751"><ele>278.0</ele><time>2026-04-10T16:14:18Z</time></trkpt><trkpt lat="41.702071251536275" lon="13.357456551875577"><ele>278.0</ele><time>2026-04-10T16:14:19Z</time></trkpt><trkpt lat="41.701960583019925" lon="13.357426593288599"><ele>278.0</ele><time>2026-04-10T16:14:20Z</time></trkpt><trkpt lat="41.70182486043728" lon="13.357387484992815"><ele>277.6666666666667</ele><time>2026-04-10T16:14:21Z</time></trkpt><trkpt lat="41.701681288712024" lon="13.35734581042347"><ele>277.3333333333333</ele><time>2026-04-10T16:14:22Z</time></trkpt><trkpt lat="41.701499910025404" lon="13.357293482887886"><ele>277.0</ele><time>2026-04-10T16:14:23Z</time></trkpt><trkpt lat="41.701305713651486" lon="13.357240536073405"><ele>277.0</ele><time>2026-04-10T16:14:24Z</time></trkpt><trkpt lat="41.70111560323298" lon="13.357188703493428"><ele>277.0</ele><time>2026-04-10T16:14:25Z</time></trkpt><trkpt lat="41.70095137897834" lon="13.357144672270842"><ele>277.0</ele><time>2026-04-10T16:14:26Z</time></trkpt><trkpt lat="41.70079937160027" lon="13.357102856834832"><ele>276.75</ele><time>2026-04-10T16:14:27Z</time></trkpt><trkpt lat="41.70065943432147" lon="13.35705939389145"><ele>276.5</ele><time>2026-04-10T16:14:28Z</time></trkpt><trkpt lat="41.70054696879953" lon="13.357019117964553"><ele>276.25</ele><time>2026-04-10T16:14:29Z</time></trkpt><trkpt lat="41.70044856052415" lon="13.356980186405373"><ele>276.0</ele><time>2026-04-10T16:14:30Z</time></trkpt><trkpt lat="41.70035416909135" lon="13.35694239362018"><ele>275.5</ele><time>2026-04-10T16:14:31Z</time></trkpt><trkpt lat="41.70024535168586" lon="13.356898669920277"><ele>275.0</ele><time>2026-04-10T16:14:32Z</time></trkpt><trkpt lat="41.70013210233981" lon="13.356850744630563"><ele>274.5</ele><time>2026-04-10T16:14:33Z</time></trkpt><trkpt lat="41.70002155307921" lon="13.356803163658606"><ele>274.0</ele><time>2026-04-10T16:14:34Z</time></trkpt><trkpt lat="41.6999068027469" lon="13.356778417774704"><ele>274.0</ele><time>2026-04-10T16:14:35Z</time></trkpt><trkpt lat="41.69979585246124" lon="13.35673003288809"><ele>274.0</ele><time>2026-04-10T16:14:36Z</time></trkpt><trkpt lat="41.6996850016631" lon="13.356688002017705"><ele>274.0</ele><time>2026-04-10T16:14:37Z</time></trkpt><trkpt lat="41.699581128147216" lon="13.356650910992988"><ele>274.0</ele><time>2026-04-10T16:14:38Z</time></trkpt><trkpt lat="41.69948101177468" lon="13.35661776886471"><ele>274.0</ele><time>2026-04-10T16:14:39Z</time></trkpt><trkpt lat="41.69937674743294" lon="13.356583659969145"><ele>274.0</ele><time>2026-04-10T16:14:40Z</time></trkpt><trkpt lat="41.699264927600844" lon="13.35654544243422"><ele>274.0</ele><time>2026-04-10T16:14:41Z</time></trkpt><trkpt lat="41.69915531786333" lon="13.356503571117047"><ele>274.0</ele><time>2026-04-10T16:14:42Z</time></trkpt><trkpt lat="41.69905722881235" lon="13.356466257828265"><ele>274.0</ele><time>2026-04-10T16:14:43Z</time></trkpt><trkpt lat="41.69896463751469" lon="13.356429285209142"><ele>274.0</ele><time>2026-04-10T16:14:44Z</time></trkpt><trkpt lat="41.698871439439216" lon="13.356381508502205"><ele>273.8333333333333</ele><time>2026-04-10T16:14:45Z</time></trkpt><trkpt lat="41.69879227903448" lon="13.3563312535918"><ele>273.66666666666663</ele><time>2026-04-10T16:14:46Z</time></trkpt><trkpt lat="41.698723096297215" lon="13.356282094430778"><ele>273.5</ele><time>2026-04-10T16:14:47Z</time></trkpt><trkpt lat="41.69866510011587" lon="13.35624107498993"><ele>273.3333333333333</ele><time>2026-04-10T16:14:48Z</time></trkpt><trkpt lat="41.69857861644194" lon="13.35618410779395"><ele>273.1666666666667</ele><time>2026-04-10T16:14:50Z</time></trkpt><trkpt lat="41.6985212578639" lon="13.356144389882244"><ele>273.0</ele><time>2026-04-10T16:14:52Z</time></trkpt><trkpt lat="41.69847545280198" lon="13.356077920357256"><ele>272.5</ele><time>2026-04-10T16:14:58Z</time></trkpt><trkpt lat="41.69842366399548" lon="13.356024320117735"><ele>272.0</ele><time>2026-04-10T16:15:01Z</time></trkpt><trkpt lat="41.69827684633177" lon="13.355923188203542"><ele>271.5</ele><time>2026-04-10T16:15:03Z</time></trkpt><trkpt lat="41.69815541860231" lon="13.355837424184937"><ele>271.0</ele><time>2026-04-10T16:15:04Z</time></trkpt><trkpt lat="41.69802110601195" lon="13.355707915650173"><ele>271.0</ele><time>2026-04-10T16:15:05Z</time></trkpt><trkpt lat="41.69788617678874" lon="13.355542987994435"><ele>271.0</ele><time>2026-04-10T16:15:06Z</time></trkpt><trkpt lat="41.69776248378688" lon="13.355365915655291"><ele>271.0</ele><time>2026-04-10T16:15:07Z</time></trkpt><trkpt lat="41.69763568025275" lon="13.355187107346605"><ele>271.0</ele><time>2026-04-10T16:15:08Z</time></trkpt><trkpt lat="41.69751951519813" lon="13.354992553724474"><ele>271.0</ele><time>2026-04-10T16:15:09Z</time></trkpt><trkpt lat="41.697421717338386" lon="13.354790656908083"><ele>271.0</ele><time>2026-04-10T16:15:10Z</time></trkpt><trkpt lat="41.697329197842045" lon="13.354592886599477"><ele>271.0</ele><time>2026-04-10T16:15:11Z</time></trkpt><trkpt lat="41.69723202699027" lon="13.354405147707576"><ele>271.0</ele><time>2026-04-10T16:15:12Z</time></trkpt><trkpt lat="41.69712025970416" lon="13.354228543864041"><ele>271.0</ele><time>2026-04-10T16:15:13Z</time></trkpt><trkpt lat="41.69699181076112" lon="13.354076855885943"><ele>270.0</ele><time>2026-04-10T16:15:14Z</time></trkpt><trkpt lat="41.69684685397583" lon="13.353946346336615"><ele>269.0</ele><time>2026-04-10T16:15:15Z</time></trkpt><trkpt lat="41.6966829871953" lon="13.353817431660739"><ele>268.0</ele><time>2026-04-10T16:15:16Z</time></trkpt><trkpt lat="41.69651073709121" lon="13.353683339895484"><ele>268.0</ele><time>2026-04-10T16:15:17Z</time></trkpt><trkpt lat="41.69637018972074" lon="13.35356278640382"><ele>268.0</ele><time>2026-04-10T16:15:18Z</time></trkpt><trkpt lat="41.69623295721464" lon="13.353455571517694"><ele>268.0</ele><time>2026-04-10T16:15:19Z</time></trkpt><trkpt lat="41.69611630903348" lon="13.353360596508288"><ele>267.3333333333333</ele><time>2026-04-10T16:15:20Z</time></trkpt><trkpt lat="41.69599752440849" lon="13.353254257768151"><ele>266.6666666666667</ele><time>2026-04-10T16:15:21Z</time></trkpt><trkpt lat="41.69586158795842" lon="13.35313726451384"><ele>266.0</ele><time>2026-04-10T16:15:22Z</time></trkpt><trkpt lat="41.69571504912804" lon="13.353021641110033"><ele>265.75</ele><time>2026-04-10T16:15:23Z</time></trkpt><trkpt lat="41.695568301191564" lon="13.352920408206197"><ele>265.5</ele><time>2026-04-10T16:15:24Z</time></trkpt><trkpt lat="41.69544368749365" lon="13.35284016198745"><ele>265.25</ele><time>2026-04-10T16:15:25Z</time></trkpt><trkpt lat="41.695346910923995" lon="13.352800576784562"><ele>265.0</ele><time>2026-04-10T16:15:26Z</time></trkpt><trkpt lat="41.695275490595826" lon="13.352779189275218"><ele>264.8</ele><time>2026-04-10T16:15:27Z</time></trkpt><trkpt lat="41.69515401160714" lon="13.352726002805392"><ele>264.6</ele><time>2026-04-10T16:15:29Z</time></trkpt><trkpt lat="41.695077335296524" lon="13.352684769577145"><ele>264.4</ele><time>2026-04-10T16:15:30Z</time></trkpt><trkpt lat="41.69498592847514" lon="13.352639557179621"><ele>264.2</ele><time>2026-04-10T16:15:31Z</time></trkpt><trkpt lat="41.694872963463936" lon="13.35257745800791"><ele>264.0</ele><time>2026-04-10T16:15:32Z</time></trkpt><trkpt lat="41.69473579397158" lon="13.352524985200885"><ele>264.0</ele><time>2026-04-10T16:15:33Z</time></trkpt><trkpt lat="41.694572555429495" lon="13.352465214565443"><ele>264.0</ele><time>2026-04-10T16:15:34Z</time></trkpt><trkpt lat="41.694343198266886" lon="13.352435537174705"><ele>264.0</ele><time>2026-04-10T16:15:35Z</time></trkpt><trkpt lat="41.69412871554154" lon="13.35237200510384"><ele>263.3333333333333</ele><time>2026-04-10T16:15:36Z</time></trkpt><trkpt lat="41.69395219098255" lon="13.352318842898008"><ele>262.66666666666663</ele><time>2026-04-10T16:15:37Z</time></trkpt><trkpt lat="41.693786486393094" lon="13.35226483619894"><ele>262.0</ele><time>2026-04-10T16:15:38Z</time></trkpt><trkpt lat="41.693618976820005" lon="13.352213175797432"><ele>261.66666666666663</ele><time>2026-04-10T16:15:39Z</time></trkpt><trkpt lat="41.69345496099593" lon="13.352163568931376"><ele>261.3333333333333</ele><time>2026-04-10T16:15:40Z</time></trkpt><trkpt lat="41.693294133062324" lon="13.35212447072395"><ele>261.0</ele><time>2026-04-10T16:15:41Z</time></trkpt><trkpt lat="41.69313854099057" lon="13.352088821770808"><ele>261.0</ele><time>2026-04-10T16:15:42Z</time></trkpt><trkpt lat="41.692999316172006" lon="13.35206589688112"><ele>261.0</ele><time>2026-04-10T16:15:43Z</time></trkpt><trkpt lat="41.69287250076451" lon="13.352055603867067"><ele>261.0</ele><time>2026-04-10T16:15:44Z</time></trkpt><trkpt lat="41.692757028370096" lon="13.352057160577084"><ele>261.0</ele><time>2026-04-10T16:15:45Z</time></trkpt><trkpt lat="41.692650392858" lon="13.352060277592814"><ele>260.6666666666667</ele><time>2026-04-10T16:15:46Z</time></trkpt><trkpt lat="41.69255087727839" lon="13.352063627722814"><ele>260.3333333333333</ele><time>2026-04-10T16:15:47Z</time></trkpt><trkpt lat="41.692465075096756" lon="13.352044844960451"><ele>260.0</ele><time>2026-04-10T16:15:48Z</time></trkpt><trkpt lat="41.69239227299775" lon="13.352067908684296"><ele>259.66666666666663</ele><time>2026-04-10T16:15:49Z</time></trkpt><trkpt lat="41.69232750195276" lon="13.352047191436743"><ele>259.3333333333333</ele><time>2026-04-10T16:15:50Z</time></trkpt><trkpt lat="41.6922139325299" lon="13.35204993193926"><ele>259.0</ele><time>2026-04-10T16:15:52Z</time></trkpt><trkpt lat="41.69212508285027" lon="13.352078189697496"><ele>259.0</ele><time>2026-04-10T16:15:54Z</time></trkpt><trkpt lat="41.69202415976106" lon="13.352082972568477"><ele>259.0</ele><time>2026-04-10T16:15:56Z</time></trkpt><trkpt lat="41.69196037005925" lon="13.352086372867763"><ele>259.0</ele><time>2026-04-10T16:15:57Z</time></trkpt><trkpt lat="41.69188757424288" lon="13.352060447443028"><ele>259.0</ele><time>2026-04-10T16:15:58Z</time></trkpt><trkpt lat="41.691820337055965" lon="13.352063184269959"><ele>259.0</ele><time>2026-04-10T16:15:59Z</time></trkpt><trkpt lat="41.69170864409612" lon="13.352067730627912"><ele>259.0</ele><time>2026-04-10T16:16:01Z</time></trkpt><trkpt lat="41.691610459392926" lon="13.352090910207766"><ele>259.0</ele><time>2026-04-10T16:16:03Z</time></trkpt><trkpt lat="41.691518336958374" lon="13.352090622634185"><ele>259.0</ele><time>2026-04-10T16:16:06Z</time></trkpt><trkpt lat="41.69142882327341" lon="13.352092150766167"><ele>259.0</ele><time>2026-04-10T16:16:09Z</time></trkpt><trkpt lat="41.691354372315715" lon="13.352089883329468"><ele>259.0</ele><time>2026-04-10T16:16:13Z</time></trkpt><trkpt lat="41.69128541058265" lon="13.352223092871291"><ele>259.0</ele><time>2026-04-10T16:16:16Z</time></trkpt><trkpt lat="41.691277513420694" lon="13.352316906761752"><ele>259.0</ele><time>2026-04-10T16:16:17Z</time></trkpt><trkpt lat="41.691265415349044" lon="13.352414234750693"><ele>259.0</ele><time>2026-04-10T16:16:18Z</time></trkpt><trkpt lat="41.691237254361894" lon="13.35251161841025"><ele>259.0</ele><time>2026-04-10T16:16:19Z</time></trkpt><trkpt lat="41.69122000049271" lon="13.35262971374362"><ele>259.0</ele><time>2026-04-10T16:16:20Z</time></trkpt><trkpt lat="41.691184785400786" lon="13.352760186725087"><ele>259.0</ele><time>2026-04-10T16:16:21Z</time></trkpt><trkpt lat="41.691189390776685" lon="13.352932476560657"><ele>259.0</ele><time>2026-04-10T16:16:22Z</time></trkpt><trkpt lat="41.691197239447234" lon="13.35306257744977"><ele>259.16666666666663</ele><time>2026-04-10T16:16:23Z</time></trkpt><trkpt lat="41.69120374647502" lon="13.353177216668774"><ele>259.3333333333333</ele><time>2026-04-10T16:16:24Z</time></trkpt><trkpt lat="41.691197310407546" lon="13.35327053836174"><ele>259.5</ele><time>2026-04-10T16:16:25Z</time></trkpt><trkpt lat="41.69117976851873" lon="13.353363304033724"><ele>259.6666666666667</ele><time>2026-04-10T16:16:26Z</time></trkpt><trkpt lat="41.69112320352797" lon="13.353447783670282"><ele>259.83333333333337</ele><time>2026-04-10T16:16:27Z</time></trkpt><trkpt lat="41.69102830099851" lon="13.353478225919082"><ele>260.0</ele><time>2026-04-10T16:16:28Z</time></trkpt><trkpt lat="41.6909649788968" lon="13.353542924637338"><ele>259.6</ele><time>2026-04-10T16:16:29Z</time></trkpt><trkpt lat="41.69084832811503" lon="13.353600122695836"><ele>259.2</ele><time>2026-04-10T16:16:31Z</time></trkpt><trkpt lat="41.69079040512627" lon="13.353658570979297"><ele>258.8</ele><time>2026-04-10T16:16:32Z</time></trkpt><trkpt lat="41.690670711490974" lon="13.353730641426942"><ele>258.4</ele><time>2026-04-10T16:16:34Z</time></trkpt><trkpt lat="41.69059896270478" lon="13.353765377202425"><ele>258.0</ele><time>2026-04-10T16:16:35Z</time></trkpt><trkpt lat="41.690519923590124" lon="13.35375118068022"><ele>258.0</ele><time>2026-04-10T16:16:36Z</time></trkpt><trkpt lat="41.69043907878058" lon="13.353727777475537"><ele>258.0</ele><time>2026-04-10T16:16:37Z</time></trkpt><trkpt lat="41.69035898934902" lon="13.353693958165213"><ele>258.0</ele><time>2026-04-10T16:16:38Z</time></trkpt><trkpt lat="41.69027301677188" lon="13.353669730520975"><ele>258.0</ele><time>2026-04-10T16:16:39Z</time></trkpt><trkpt lat="41.69019066571322" lon="13.353646086165936"><ele>258.0</ele><time>2026-04-10T16:16:40Z</time></trkpt><trkpt lat="41.690111900585755" lon="13.353622364885222"><ele>258.0</ele><time>2026-04-10T16:16:41Z</time></trkpt><trkpt lat="41.69004350184878" lon="13.353600161962671"><ele>258.0</ele><time>2026-04-10T16:16:42Z</time></trkpt><trkpt lat="41.689948760227274" lon="13.353568581418585"><ele>258.0</ele><time>2026-04-10T16:16:44Z</time></trkpt><trkpt lat="41.68987501791905" lon="13.353544000653708"><ele>258.0</ele><time>2026-04-10T16:16:52Z</time></trkpt><trkpt lat="41.68979216640072" lon="13.353674824170048"><ele>258.0</ele><time>2026-04-10T16:16:53Z</time></trkpt><trkpt lat="41.68975423443482" lon="13.353797847964588"><ele>258.0</ele><time>2026-04-10T16:16:54Z</time></trkpt><trkpt lat="41.68968482998246" lon="13.353930211168386"><ele>258.0</ele><time>2026-04-10T16:16:55Z</time></trkpt><trkpt lat="41.689626354556616" lon="13.354060020316293"><ele>258.0</ele><time>2026-04-10T16:16:56Z</time></trkpt><trkpt lat="41.689557601134034" lon="13.354215278967123"><ele>258.0</ele><time>2026-04-10T16:16:57Z</time></trkpt><trkpt lat="41.689498700994605" lon="13.354352269440856"><ele>258.0</ele><time>2026-04-10T16:16:58Z</time></trkpt><trkpt lat="41.68944894733405" lon="13.354510985468377"><ele>257.3333333333333</ele><time>2026-04-10T16:16:59Z</time></trkpt><trkpt lat="41.68936512614" lon="13.354666818023206"><ele>256.66666666666663</ele><time>2026-04-10T16:17:00Z</time></trkpt><trkpt lat="41.689281591679325" lon="13.354856222064944"><ele>256.0</ele><time>2026-04-10T16:17:01Z</time></trkpt><trkpt lat="41.689171721018155" lon="13.355095088839741"><ele>255.5</ele><time>2026-04-10T16:17:02Z</time></trkpt><trkpt lat="41.68903190599094" lon="13.355386699197208"><ele>255.0</ele><time>2026-04-10T16:17:03Z</time></trkpt><trkpt lat="41.68889632723665" lon="13.355692951350047"><ele>255.0</ele><time>2026-04-10T16:17:04Z</time></trkpt><trkpt lat="41.688769012733275" lon="13.355934602314013"><ele>255.0</ele><time>2026-04-10T16:17:05Z</time></trkpt><trkpt lat="41.68867782105745" lon="13.356120477776763"><ele>255.0</ele><time>2026-04-10T16:17:06Z</time></trkpt><trkpt lat="41.688614782261325" lon="13.356267544638133"><ele>254.75</ele><time>2026-04-10T16:17:07Z</time></trkpt><trkpt lat="41.68852844793317" lon="13.356378724879779"><ele>254.5</ele><time>2026-04-10T16:17:08Z</time></trkpt><trkpt lat="41.68842455968373" lon="13.356441227204968"><ele>254.25</ele><time>2026-04-10T16:17:09Z</time></trkpt><trkpt lat="41.68829599042661" lon="13.356463945855353"><ele>254.0</ele><time>2026-04-10T16:17:10Z</time></trkpt><trkpt lat="41.688152710088175" lon="13.356432479441084"><ele>254.0</ele><time>2026-04-10T16:17:11Z</time></trkpt><trkpt lat="41.688014093034695" lon="13.35638998968832"><ele>254.0</ele><time>2026-04-10T16:17:12Z</time></trkpt><trkpt lat="41.68789701496262" lon="13.356393052240863"><ele>254.0</ele><time>2026-04-10T16:17:13Z</time></trkpt><trkpt lat="41.68778951125534" lon="13.35641649483411"><ele>254.0</ele><time>2026-04-10T16:17:14Z</time></trkpt><trkpt lat="41.687707052951886" lon="13.356579050559722"><ele>253.66666666666669</ele><time>2026-04-10T16:17:15Z</time></trkpt><trkpt lat="41.68763203841877" lon="13.356763520187014"><ele>253.33333333333331</ele><time>2026-04-10T16:17:16Z</time></trkpt><trkpt lat="41.6875703069329" lon="13.35701312970634"><ele>253.0</ele><time>2026-04-10T16:17:17Z</time></trkpt><trkpt lat="41.687508288624485" lon="13.35729480908455"><ele>253.0</ele><time>2026-04-10T16:17:18Z</time></trkpt><trkpt lat="41.68744652331603" lon="13.35758012206773"><ele>253.0</ele><time>2026-04-10T16:17:19Z</time></trkpt><trkpt lat="41.687383550025764" lon="13.357859306280808"><ele>253.0</ele><time>2026-04-10T16:17:20Z</time></trkpt><trkpt lat="41.687302721256614" lon="13.358125783253413"><ele>253.0</ele><time>2026-04-10T16:17:21Z</time></trkpt><trkpt lat="41.687227056134525" lon="13.358389027588522"><ele>253.0</ele><time>2026-04-10T16:17:22Z</time></trkpt><trkpt lat="41.68712788769199" lon="13.358665861502315"><ele>253.0</ele><time>2026-04-10T16:17:23Z</time></trkpt><trkpt lat="41.68699142692216" lon="13.358973356688423"><ele>253.0</ele><time>2026-04-10T16:17:24Z</time></trkpt><trkpt lat="41.686858075976055" lon="13.359304498093698"><ele>253.0</ele><time>2026-04-10T16:17:25Z</time></trkpt><trkpt lat="41.68674494679138" lon="13.359628442576595"><ele>253.0</ele><time>2026-04-10T16:17:26Z</time></trkpt><trkpt lat="41.6866391191157" lon="13.359899428144455"><ele>253.0</ele><time>2026-04-10T16:17:27Z</time></trkpt><trkpt lat="41.686536486352736" lon="13.360148880413988"><ele>253.0</ele><time>2026-04-10T16:17:28Z</time></trkpt><trkpt lat="41.6864349839736" lon="13.36038140850208"><ele>253.33333333333331</ele><time>2026-04-10T16:17:29Z</time></trkpt><trkpt lat="41.68634500988995" lon="13.360595975568037"><ele>253.66666666666669</ele><time>2026-04-10T16:17:30Z</time></trkpt><trkpt lat="41.6862582634148" lon="13.360790642242256"><ele>254.0</ele><time>2026-04-10T16:17:31Z</time></trkpt><trkpt lat="41.686188594751535" lon="13.360976147261315"><ele>254.0</ele><time>2026-04-10T16:17:32Z</time></trkpt><trkpt lat="41.68612575964418" lon="13.361146201668054"><ele>254.0</ele><time>2026-04-10T16:17:33Z</time></trkpt><trkpt lat="41.686074246803734" lon="13.361314747604972"><ele>254.0</ele><time>2026-04-10T16:17:34Z</time></trkpt><trkpt lat="41.68599362318135" lon="13.361432888720982"><ele>254.0</ele><time>2026-04-10T16:17:35Z</time></trkpt><trkpt lat="41.68590166025975" lon="13.361524999630626"><ele>254.0</ele><time>2026-04-10T16:17:36Z</time></trkpt><trkpt lat="41.68577500590529" lon="13.361558836572609"><ele>254.0</ele><time>2026-04-10T16:17:37Z</time></trkpt><trkpt lat="41.68566421624964" lon="13.361644238921754"><ele>254.0</ele><time>2026-04-10T16:17:38Z</time></trkpt><trkpt lat="41.6855788418239" lon="13.361751574437069"><ele>254.0</ele><time>2026-04-10T16:17:39Z</time></trkpt><trkpt lat="41.68549134678627" lon="13.361868013723504"><ele>254.0</ele><time>2026-04-10T16:17:40Z</time></trkpt><trkpt lat="41.68545924372311" lon="13.362130800049448"><ele>254.0</ele><time>2026-04-10T16:17:41Z</time></trkpt><trkpt lat="41.685418967126694" lon="13.362370006779393"><ele>254.0</ele><time>2026-04-10T16:17:42Z</time></trkpt><trkpt lat="41.68539707094276" lon="13.362567143550821"><ele>254.33333333333334</ele><time>2026-04-10T16:17:43Z</time></trkpt><trkpt lat="41.68537637627305" lon="13.362745790723714"><ele>254.66666666666669</ele><time>2026-04-10T16:17:44Z</time></trkpt><trkpt lat="41.68535477074379" lon="13.362965803157866"><ele>255.0</ele><time>2026-04-10T16:17:45Z</time></trkpt><trkpt lat="41.685316896980574" lon="13.363174345065925"><ele>255.0</ele><time>2026-04-10T16:17:46Z</time></trkpt><trkpt lat="41.6852855737738" lon="13.36340561070309"><ele>255.0</ele><time>2026-04-10T16:17:47Z</time></trkpt><trkpt lat="41.68524029310192" lon="13.363603123451737"><ele>255.0</ele><time>2026-04-10T16:17:48Z</time></trkpt><trkpt lat="41.685201319618905" lon="13.363788717225065"><ele>255.0</ele><time>2026-04-10T16:17:49Z</time></trkpt><trkpt lat="41.68516593084757" lon="13.36399100088483"><ele>255.0</ele><time>2026-04-10T16:17:50Z</time></trkpt><trkpt lat="41.68509603440411" lon="13.364193591303966"><ele>255.0</ele><time>2026-04-10T16:17:51Z</time></trkpt><trkpt lat="41.68501048975362" lon="13.364450626196513"><ele>255.0</ele><time>2026-04-10T16:17:52Z</time></trkpt><trkpt lat="41.68496081398156" lon="13.364692417534469"><ele>255.0</ele><time>2026-04-10T16:17:53Z</time></trkpt><trkpt lat="41.68493495511122" lon="13.364823768504829"><ele>255.0</ele><time>2026-04-10T16:17:54Z</time></trkpt><trkpt lat="41.684871679018435" lon="13.364980758519255"><ele>255.0</ele><time>2026-04-10T16:17:55Z</time></trkpt><trkpt lat="41.684780912213434" lon="13.365019399407732"><ele>254.75</ele><time>2026-04-10T16:17:56Z</time></trkpt><trkpt lat="41.68468235561241" lon="13.365009001236807"><ele>254.5</ele><time>2026-04-10T16:17:57Z</time></trkpt><trkpt lat="41.6845594376854" lon="13.365021675526028"><ele>254.25</ele><time>2026-04-10T16:17:58Z</time></trkpt><trkpt lat="41.68443481696293" lon="13.365050716658192"><ele>254.0</ele><time>2026-04-10T16:17:59Z</time></trkpt><trkpt lat="41.684331760711316" lon="13.365114254054244"><ele>253.66666666666669</ele><time>2026-04-10T16:18:00Z</time></trkpt><trkpt lat="41.684263004725786" lon="13.365261794458423"><ele>253.33333333333331</ele><time>2026-04-10T16:18:01Z</time></trkpt><trkpt lat="41.68418868322067" lon="13.365455373588063"><ele>253.0</ele><time>2026-04-10T16:18:02Z</time></trkpt><trkpt lat="41.684087273856754" lon="13.365734001912012"><ele>253.0</ele><time>2026-04-10T16:18:03Z</time></trkpt><trkpt lat="41.684001068815505" lon="13.366057125971343"><ele>253.0</ele><time>2026-04-10T16:18:04Z</time></trkpt><trkpt lat="41.683952090517195" lon="13.366390780603156"><ele>253.0</ele><time>2026-04-10T16:18:05Z</time></trkpt><trkpt lat="41.683925389994904" lon="13.366668671231144"><ele>253.0</ele><time>2026-04-10T16:18:06Z</time></trkpt><trkpt lat="41.683901505439714" lon="13.366932673525005"><ele>253.0</ele><time>2026-04-10T16:18:07Z</time></trkpt><trkpt lat="41.68388540124718" lon="13.36716194567992"><ele>252.66666666666666</ele><time>2026-04-10T16:18:08Z</time></trkpt><trkpt lat="41.683850603716586" lon="13.367452838034657"><ele>252.33333333333331</ele><time>2026-04-10T16:18:09Z</time></trkpt><trkpt lat="41.683813428403376" lon="13.36774339283504"><ele>252.0</ele><time>2026-04-10T16:18:10Z</time></trkpt><trkpt lat="41.68377196275558" lon="13.368020383647675"><ele>252.0</ele><time>2026-04-10T16:18:11Z</time></trkpt><trkpt lat="41.68374444276413" lon="13.368266946145116"><ele>252.0</ele><time>2026-04-10T16:18:12Z</time></trkpt><trkpt lat="41.68372377723055" lon="13.368471982378589"><ele>252.0</ele><time>2026-04-10T16:18:13Z</time></trkpt><trkpt lat="41.68369633448091" lon="13.368728613678202"><ele>252.0</ele><time>2026-04-10T16:18:14Z</time></trkpt><trkpt lat="41.683669167789084" lon="13.368987091312716"><ele>252.0</ele><time>2026-04-10T16:18:15Z</time></trkpt><trkpt lat="41.68365138353553" lon="13.369285036807488"><ele>252.0</ele><time>2026-04-10T16:18:16Z</time></trkpt><trkpt lat="41.6836496003915" lon="13.369655812373562"><ele>251.66666666666669</ele><time>2026-04-10T16:18:17Z</time></trkpt><trkpt lat="41.68366519446603" lon="13.369951124903919"><ele>251.33333333333334</ele><time>2026-04-10T16:18:18Z</time></trkpt><trkpt lat="41.683668455484316" lon="13.370208483959772"><ele>251.0</ele><time>2026-04-10T16:18:19Z</time></trkpt><trkpt lat="41.683669315019095" lon="13.370432135750018"><ele>250.66666666666669</ele><time>2026-04-10T16:18:20Z</time></trkpt><trkpt lat="41.68368744823048" lon="13.370629019203845"><ele>250.33333333333331</ele><time>2026-04-10T16:18:21Z</time></trkpt><trkpt lat="41.683756303521285" lon="13.370804815805208"><ele>250.0</ele><time>2026-04-10T16:18:22Z</time></trkpt><trkpt lat="41.68384155564324" lon="13.370990289921398"><ele>250.0</ele><time>2026-04-10T16:18:23Z</time></trkpt><trkpt lat="41.68392147967924" lon="13.371146908324734"><ele>250.0</ele><time>2026-04-10T16:18:24Z</time></trkpt><trkpt lat="41.683967534534794" lon="13.371282774864902"><ele>250.0</ele><time>2026-04-10T16:18:25Z</time></trkpt><trkpt lat="41.68397770627487" lon="13.371460025332947"><ele>250.0</ele><time>2026-04-10T16:18:26Z</time></trkpt><trkpt lat="41.683957985116805" lon="13.371581534721852"><ele>249.75</ele><time>2026-04-10T16:18:27Z</time></trkpt><trkpt lat="41.68391101068078" lon="13.371723392745045"><ele>249.5</ele><time>2026-04-10T16:18:28Z</time></trkpt><trkpt lat="41.68381576080303" lon="13.37183234238963"><ele>249.25</ele><time>2026-04-10T16:18:29Z</time></trkpt><trkpt lat="41.68369879852479" lon="13.371955503120088"><ele>249.0</ele><time>2026-04-10T16:18:30Z</time></trkpt><trkpt lat="41.683511526979224" lon="13.372095519024118"><ele>249.66666666666669</ele><time>2026-04-10T16:18:31Z</time></trkpt><trkpt lat="41.6833507671299" lon="13.372268514695541"><ele>250.33333333333334</ele><time>2026-04-10T16:18:32Z</time></trkpt><trkpt lat="41.68326039023364" lon="13.372476857326594"><ele>251.0</ele><time>2026-04-10T16:18:33Z</time></trkpt><trkpt lat="41.68318112235847" lon="13.372687379066383"><ele>251.0</ele><time>2026-04-10T16:18:34Z</time></trkpt><trkpt lat="41.68312104901536" lon="13.372933959700003"><ele>251.0</ele><time>2026-04-10T16:18:35Z</time></trkpt><trkpt lat="41.68307496285345" lon="13.373187915840921"><ele>251.0</ele><time>2026-04-10T16:18:36Z</time></trkpt><trkpt lat="41.68306092967807" lon="13.373396875414539"><ele>252.0</ele><time>2026-04-10T16:18:37Z</time></trkpt><trkpt lat="41.68308797961852" lon="13.373634093835877"><ele>253.0</ele><time>2026-04-10T16:18:38Z</time></trkpt><trkpt lat="41.683149396262046" lon="13.373858916661806"><ele>254.0</ele><time>2026-04-10T16:18:39Z</time></trkpt><trkpt lat="41.68323084955387" lon="13.374090216763692"><ele>254.33333333333334</ele><time>2026-04-10T16:18:40Z</time></trkpt><trkpt lat="41.68333090910799" lon="13.37429769789073"><ele>254.66666666666669</ele><time>2026-04-10T16:18:41Z</time></trkpt><trkpt lat="41.6834488358593" lon="13.374540994944217"><ele>255.0</ele><time>2026-04-10T16:18:42Z</time></trkpt><trkpt lat="41.68356134003413" lon="13.374767733341548"><ele>255.75</ele><time>2026-04-10T16:18:43Z</time></trkpt><trkpt lat="41.68363116889806" lon="13.374932312720517"><ele>256.5</ele><time>2026-04-10T16:18:44Z</time></trkpt><trkpt lat="41.68369069027916" lon="13.375078407885631"><ele>257.25</ele><time>2026-04-10T16:18:45Z</time></trkpt><trkpt lat="41.68373048849557" lon="13.37518176811284"><ele>258.0</ele><time>2026-04-10T16:18:46Z</time></trkpt><trkpt lat="41.683775354855634" lon="13.375326539560021"><ele>258.0</ele><time>2026-04-10T16:18:48Z</time></trkpt><trkpt lat="41.68380397655216" lon="13.375453579759368"><ele>258.0</ele><time>2026-04-10T16:18:50Z</time></trkpt><trkpt lat="41.68382111875721" lon="13.375609414886785"><ele>258.0</ele><time>2026-04-10T16:18:51Z</time></trkpt><trkpt lat="41.68383689922145" lon="13.375726819201466"><ele>258.0</ele><time>2026-04-10T16:18:52Z</time></trkpt><trkpt lat="41.68385283985546" lon="13.375867588720965"><ele>258.0</ele><time>2026-04-10T16:18:53Z</time></trkpt><trkpt lat="41.68386870952411" lon="13.376045099863502"><ele>257.8</ele><time>2026-04-10T16:18:54Z</time></trkpt><trkpt lat="41.68388315358923" lon="13.376198866128002"><ele>257.6</ele><time>2026-04-10T16:18:55Z</time></trkpt><trkpt lat="41.683887812354854" lon="13.376337302200799"><ele>257.4</ele><time>2026-04-10T16:18:56Z</time></trkpt><trkpt lat="41.683900876901696" lon="13.376464441963854"><ele>257.2</ele><time>2026-04-10T16:18:57Z</time></trkpt><trkpt lat="41.68390406300391" lon="13.376595292034867"><ele>257.0</ele><time>2026-04-10T16:18:58Z</time></trkpt><trkpt lat="41.683915789884416" lon="13.37676939310214"><ele>256.6666666666667</ele><time>2026-04-10T16:18:59Z</time></trkpt><trkpt lat="41.68395721441996" lon="13.376982849190494"><ele>256.3333333333333</ele><time>2026-04-10T16:19:00Z</time></trkpt><trkpt lat="41.68399794903528" lon="13.377340575267743"><ele>256.0</ele><time>2026-04-10T16:19:01Z</time></trkpt><trkpt lat="41.68403042315136" lon="13.377758110563361"><ele>254.5</ele><time>2026-04-10T16:19:02Z</time></trkpt><trkpt lat="41.68406100937989" lon="13.378102986373124"><ele>253.0</ele><time>2026-04-10T16:19:03Z</time></trkpt><trkpt lat="41.68408465388123" lon="13.37841442038079"><ele>253.0</ele><time>2026-04-10T16:19:04Z</time></trkpt><trkpt lat="41.68410269593379" lon="13.378683106130447"><ele>253.0</ele><time>2026-04-10T16:19:05Z</time></trkpt><trkpt lat="41.68412927634835" lon="13.378907405556328"><ele>253.0</ele><time>2026-04-10T16:19:06Z</time></trkpt><trkpt lat="41.68416214325695" lon="13.379091709444477"><ele>252.0</ele><time>2026-04-10T16:19:07Z</time></trkpt><trkpt lat="41.68422159156976" lon="13.379303480388305"><ele>251.0</ele><time>2026-04-10T16:19:08Z</time></trkpt><trkpt lat="41.684275369183325" lon="13.379492768207221"><ele>250.0</ele><time>2026-04-10T16:19:09Z</time></trkpt><trkpt lat="41.68433452271151" lon="13.37964329633739"><ele>249.0</ele><time>2026-04-10T16:19:10Z</time></trkpt><trkpt lat="41.684441671048965" lon="13.379759581510811"><ele>246.66666666666669</ele><time>2026-04-10T16:19:11Z</time></trkpt><trkpt lat="41.684582876690634" lon="13.379898031250727"><ele>244.33333333333334</ele><time>2026-04-10T16:19:12Z</time></trkpt><trkpt lat="41.68469430619501" lon="13.380038838332881"><ele>242.0</ele><time>2026-04-10T16:19:13Z</time></trkpt><trkpt lat="41.68474276421155" lon="13.380203080682968"><ele>242.0</ele><time>2026-04-10T16:19:14Z</time></trkpt><trkpt lat="41.68477934003406" lon="13.380364156531767"><ele>242.0</ele><time>2026-04-10T16:19:15Z</time></trkpt><trkpt lat="41.684818717301816" lon="13.380545580984728"><ele>242.0</ele><time>2026-04-10T16:19:16Z</time></trkpt><trkpt lat="41.68484834327157" lon="13.380752344409347"><ele>242.0</ele><time>2026-04-10T16:19:17Z</time></trkpt><trkpt lat="41.68487767423559" lon="13.380970156559048"><ele>241.33333333333334</ele><time>2026-04-10T16:19:18Z</time></trkpt><trkpt lat="41.68491007836267" lon="13.381192765658662"><ele>240.66666666666669</ele><time>2026-04-10T16:19:19Z</time></trkpt><trkpt lat="41.68493842183563" lon="13.381442453305166"><ele>240.0</ele><time>2026-04-10T16:19:20Z</time></trkpt><trkpt lat="41.68498812466757" lon="13.38166434110781"><ele>241.33333333333331</ele><time>2026-04-10T16:19:21Z</time></trkpt><trkpt lat="41.68508272641591" lon="13.381937837208003"><ele>242.66666666666666</ele><time>2026-04-10T16:19:22Z</time></trkpt><trkpt lat="41.68517309507484" lon="13.382177046053231"><ele>244.0</ele><time>2026-04-10T16:19:23Z</time></trkpt><trkpt lat="41.68525010088123" lon="13.382374337751072"><ele>246.0</ele><time>2026-04-10T16:19:24Z</time></trkpt><trkpt lat="41.685317654110285" lon="13.382576571662858"><ele>248.0</ele><time>2026-04-10T16:19:25Z</time></trkpt><trkpt lat="41.68539110677456" lon="13.382804103908425"><ele>250.0</ele><time>2026-04-10T16:19:26Z</time></trkpt><trkpt lat="41.68545394045731" lon="13.38301622962618"><ele>250.0</ele><time>2026-04-10T16:19:27Z</time></trkpt><trkpt lat="41.68552520699196" lon="13.383207540327872"><ele>250.0</ele><time>2026-04-10T16:19:28Z</time></trkpt><trkpt lat="41.685595544699126" lon="13.383375414373388"><ele>250.0</ele><time>2026-04-10T16:19:29Z</time></trkpt><trkpt lat="41.68564334591043" lon="13.383548358330382"><ele>250.0</ele><time>2026-04-10T16:19:30Z</time></trkpt><trkpt lat="41.68564985366185" lon="13.38373428179446"><ele>248.33333333333331</ele><time>2026-04-10T16:19:31Z</time></trkpt><trkpt lat="41.685646477717555" lon="13.383970324316534"><ele>246.66666666666669</ele><time>2026-04-10T16:19:32Z</time></trkpt><trkpt lat="41.685622190436966" lon="13.384227708270608"><ele>245.0</ele><time>2026-04-10T16:19:33Z</time></trkpt><trkpt lat="41.68561028977588" lon="13.384471368687"><ele>244.33333333333334</ele><time>2026-04-10T16:19:34Z</time></trkpt><trkpt lat="41.685598153011334" lon="13.384731455917274"><ele>243.66666666666669</ele><time>2026-04-10T16:19:35Z</time></trkpt><trkpt lat="41.68563061860512" lon="13.384993563705097"><ele>243.0</ele><time>2026-04-10T16:19:36Z</time></trkpt><trkpt lat="41.68564210669355" lon="13.385180906424091"><ele>243.0</ele><time>2026-04-10T16:19:37Z</time></trkpt><trkpt lat="41.685676147238084" lon="13.385382706124565"><ele>243.0</ele><time>2026-04-10T16:19:38Z</time></trkpt><trkpt lat="41.68568839756074" lon="13.385535661062354"><ele>243.0</ele><time>2026-04-10T16:19:39Z</time></trkpt><trkpt lat="41.685705251084165" lon="13.385663586690258"><ele>243.0</ele><time>2026-04-10T16:19:40Z</time></trkpt><trkpt lat="41.68570018660102" lon="13.38583065634746"><ele>243.25</ele><time>2026-04-10T16:19:42Z</time></trkpt><trkpt lat="41.68584588691171" lon="13.385830459275216"><ele>243.5</ele><time>2026-04-10T16:19:44Z</time></trkpt><trkpt lat="41.685947787966384" lon="13.385868804545291"><ele>243.75</ele><time>2026-04-10T16:19:45Z</time></trkpt><trkpt lat="41.6861025744522" lon="13.385930577159371"><ele>244.0</ele><time>2026-04-10T16:19:46Z</time></trkpt><trkpt lat="41.68630081441878" lon="13.386003840495228"><ele>243.99999999999997</ele><time>2026-04-10T16:19:47Z</time></trkpt><trkpt lat="41.68642490852388" lon="13.386067320811913"><ele>244.0</ele><time>2026-04-10T16:19:48Z</time></trkpt><trkpt lat="41.68651949962935" lon="13.386115425604993"><ele>244.0</ele><time>2026-04-10T16:19:49Z</time></trkpt><trkpt lat="41.686576384234634" lon="13.386163082726686"><ele>244.0</ele><time>2026-04-10T16:19:50Z</time></trkpt><trkpt lat="41.68663647480478" lon="13.386203191357893"><ele>243.99999999999997</ele><time>2026-04-10T16:20:10Z</time></trkpt><trkpt lat="41.68670402575066" lon="13.386235064816507"><ele>244.0</ele><time>2026-04-10T16:20:12Z</time></trkpt><trkpt lat="41.68676747484727" lon="13.38627093360326"><ele>244.0</ele><time>2026-04-10T16:20:14Z</time></trkpt><trkpt lat="41.68683475775485" lon="13.38631038967685"><ele>243.99999999999997</ele><time>2026-04-10T16:20:16Z</time></trkpt><trkpt lat="41.686797999806785" lon="13.386534142725129"><ele>243.99999999999997</ele><time>2026-04-10T16:20:31Z</time></trkpt><trkpt lat="41.686792138540376" lon="13.386440534633941"><ele>244.0</ele><time>2026-04-10T16:22:04Z</time></trkpt><trkpt lat="41.686811499835976" lon="13.386344613194282"><ele>244.0</ele><time>2026-04-10T16:22:09Z</time></trkpt><trkpt lat="41.68677943812499" lon="13.386417305439123"><ele>243.99999999999997</ele><time>2026-04-10T16:22:49Z</time></trkpt><trkpt lat="41.68676017934649" lon="13.386510266643212"><ele>244.0</ele><time>2026-04-10T16:22:56Z</time></trkpt><trkpt lat="41.686820734829695" lon="13.38647983765673"><ele>243.99999999999997</ele><time>2026-04-10T16:30:48Z</time></trkpt><trkpt lat="41.686796069034436" lon="13.386351478561858"><ele>243.99999999999997</ele><time>2026-04-10T16:30:57.078Z</time></trkpt><trkpt lat="41.686866425809725" lon="13.386379513787533"><ele>244.0</ele><time>2026-04-10T16:31:02.073Z</time></trkpt><trkpt lat="41.68692310213806" lon="13.386341274970885"><ele>243.99999999999997</ele><time>2026-04-10T16:31:05.075Z</time></trkpt><trkpt lat="41.686915639536714" lon="13.38625651743866"><ele>243.99999999999997</ele><time>2026-04-10T16:31:10Z</time></trkpt><trkpt lat="41.68688220672464" lon="13.386182417810673"><ele>244.0</ele><time>2026-04-10T16:31:31Z</time></trkpt><trkpt lat="41.68671839814663" lon="13.386211390521199"><ele>243.99999999999997</ele><time>2026-04-10T16:31:53.071Z</time></trkpt><trkpt lat="41.6867945446213" lon="13.386245017331284"><ele>243.99999999999997</ele><time>2026-04-10T16:32:10Z</time></trkpt><trkpt lat="41.686864295281296" lon="13.386250397232882"><ele>244.0</ele><time>2026-04-10T16:32:13Z</time></trkpt><trkpt lat="41.68680257614311" lon="13.386231345153512"><ele>244.0</ele><time>2026-04-10T16:32:52.062Z</time></trkpt><trkpt lat="41.686767520780954" lon="13.38634015127738"><ele>244.33333333333331</ele><time>2026-04-10T16:33:01.064Z</time></trkpt><trkpt lat="41.686803164107964" lon="13.386466337915895"><ele>244.66666666666666</ele><time>2026-04-10T16:33:15.046Z</time></trkpt><trkpt lat="41.686751405110655" lon="13.386392835798791"><ele>245.0</ele><time>2026-04-10T16:33:23Z</time></trkpt><trkpt lat="41.686740314969946" lon="13.386512979925698"><ele>245.33333333333331</ele><time>2026-04-10T16:33:32Z</time></trkpt><trkpt lat="41.68680002483047" lon="13.386547219479652"><ele>245.66666666666666</ele><time>2026-04-10T16:33:36Z</time></trkpt><trkpt lat="41.686735681083825" lon="13.386523878650706"><ele>246.0</ele><time>2026-04-10T16:34:54Z</time></trkpt><trkpt lat="41.686666943859734" lon="13.386515797632663"><ele>246.0</ele><time>2026-04-10T16:35:02Z</time></trkpt><trkpt lat="41.686735688150975" lon="13.386521136938969"><ele>246.0</ele><time>2026-04-10T16:35:20Z</time></trkpt><trkpt lat="41.68669662398063" lon="13.38643898315695"><ele>246.0</ele><time>2026-04-10T16:36:28Z</time></trkpt><trkpt lat="41.6866435094849" lon="13.386389288868614"><ele>246.0</ele><time>2026-04-10T16:36:29Z</time></trkpt><trkpt lat="41.686585677500595" lon="13.386261033986665"><ele>246.0</ele><time>2026-04-10T16:36:31Z</time></trkpt><trkpt lat="41.68659771444698" lon="13.38615664604021"><ele>246.0</ele><time>2026-04-10T16:36:36Z</time></trkpt><trkpt lat="41.68650892665762" lon="13.386083419608934"><ele>245.60000000000002</ele><time>2026-04-10T16:36:38Z</time></trkpt><trkpt lat="41.68639990413223" lon="13.386026122634052"><ele>245.20000000000002</ele><time>2026-04-10T16:36:40Z</time></trkpt><trkpt lat="41.68629772108258" lon="13.385949665002807"><ele>244.79999999999998</ele><time>2026-04-10T16:36:42Z</time></trkpt><trkpt lat="41.68620157608862" lon="13.385904717882578"><ele>244.39999999999998</ele><time>2026-04-10T16:36:44Z</time></trkpt><trkpt lat="41.68611291414289" lon="13.385865050871315"><ele>244.0</ele><time>2026-04-10T16:36:46Z</time></trkpt><trkpt lat="41.686023953185725" lon="13.385828675538034"><ele>243.99999999999997</ele><time>2026-04-10T16:36:48Z</time></trkpt><trkpt lat="41.685934928076584" lon="13.38580800784513"><ele>244.0</ele><time>2026-04-10T16:36:50Z</time></trkpt><trkpt lat="41.68586002763532" lon="13.385778393200141"><ele>244.0</ele><time>2026-04-10T16:36:52Z</time></trkpt><trkpt lat="41.6857912793741" lon="13.385747620140698"><ele>244.0</ele><time>2026-04-10T16:36:54Z</time></trkpt><trkpt lat="41.68570622380593" lon="13.385699028693388"><ele>243.99999999999997</ele><time>2026-04-10T16:36:57Z</time></trkpt><trkpt lat="41.685700131606886" lon="13.385568870748518"><ele>244.0</ele><time>2026-04-10T16:36:58Z</time></trkpt><trkpt lat="41.68569490646996" lon="13.385470897116546"><ele>243.83333333333331</ele><time>2026-04-10T16:36:59Z</time></trkpt><trkpt lat="41.68568727545584" lon="13.385370063514008"><ele>243.66666666666666</ele><time>2026-04-10T16:37:00Z</time></trkpt><trkpt lat="41.68567880323658" lon="13.385265732200319"><ele>243.5</ele><time>2026-04-10T16:37:01Z</time></trkpt><trkpt lat="41.68567277837176" lon="13.385164224553419"><ele>243.33333333333331</ele><time>2026-04-10T16:37:02Z</time></trkpt><trkpt lat="41.68565882354589" lon="13.385053416202815"><ele>243.16666666666666</ele><time>2026-04-10T16:37:03Z</time></trkpt><trkpt lat="41.68564955898924" lon="13.38494128805185"><ele>243.0</ele><time>2026-04-10T16:37:04Z</time></trkpt><trkpt lat="41.68564435386272" lon="13.384831831711471"><ele>243.0</ele><time>2026-04-10T16:37:05Z</time></trkpt><trkpt lat="41.6856397028191" lon="13.384715461525143"><ele>243.0</ele><time>2026-04-10T16:37:06Z</time></trkpt><trkpt lat="41.68563390823602" lon="13.38458866538087"><ele>243.0</ele><time>2026-04-10T16:37:07Z</time></trkpt><trkpt lat="41.685635966503675" lon="13.384455770031387"><ele>243.0</ele><time>2026-04-10T16:37:08Z</time></trkpt><trkpt lat="41.68564413323273" lon="13.384323203511938"><ele>243.0</ele><time>2026-04-10T16:37:09Z</time></trkpt><trkpt lat="41.685657875513854" lon="13.384195371672782"><ele>243.4</ele><time>2026-04-10T16:37:10Z</time></trkpt><trkpt lat="41.68566842007733" lon="13.384060472942606"><ele>243.8</ele><time>2026-04-10T16:37:11Z</time></trkpt><trkpt lat="41.68568423933778" lon="13.383923752350142"><ele>244.2</ele><time>2026-04-10T16:37:12Z</time></trkpt><trkpt lat="41.685686616108754" lon="13.383797086289894"><ele>244.6</ele><time>2026-04-10T16:37:13Z</time></trkpt><trkpt lat="41.685680214977" lon="13.38365639621923"><ele>245.0</ele><time>2026-04-10T16:37:14Z</time></trkpt><trkpt lat="41.68565901874205" lon="13.383512649707928"><ele>246.25</ele><time>2026-04-10T16:37:15Z</time></trkpt><trkpt lat="41.68562721464181" lon="13.383370799477492"><ele>247.5</ele><time>2026-04-10T16:37:16Z</time></trkpt><trkpt lat="41.685580741645516" lon="13.383233516955167"><ele>248.75</ele><time>2026-04-10T16:37:17Z</time></trkpt><trkpt lat="41.685527055805046" lon="13.383097402735817"><ele>250.0</ele><time>2026-04-10T16:37:18Z</time></trkpt><trkpt lat="41.68547013235523" lon="13.38295762767429"><ele>250.75</ele><time>2026-04-10T16:37:19Z</time></trkpt><trkpt lat="41.68541205283535" lon="13.382810406647975"><ele>251.5</ele><time>2026-04-10T16:37:20Z</time></trkpt><trkpt lat="41.68535630067132" lon="13.382654851326942"><ele>252.25</ele><time>2026-04-10T16:37:21Z</time></trkpt><trkpt lat="41.685304138863174" lon="13.382493057939811"><ele>253.0</ele><time>2026-04-10T16:37:22Z</time></trkpt><trkpt lat="41.68525599004552" lon="13.382330641321584"><ele>250.75</ele><time>2026-04-10T16:37:23Z</time></trkpt><trkpt lat="41.68519991485381" lon="13.382169278114517"><ele>248.5</ele><time>2026-04-10T16:37:24Z</time></trkpt><trkpt lat="41.68514260136003" lon="13.382007179056318"><ele>246.25</ele><time>2026-04-10T16:37:25Z</time></trkpt><trkpt lat="41.685083399416826" lon="13.381843565763822"><ele>244.0</ele><time>2026-04-10T16:37:26Z</time></trkpt><trkpt lat="41.685030758097696" lon="13.381680820777545"><ele>244.0</ele><time>2026-04-10T16:37:27Z</time></trkpt><trkpt lat="41.68499000425197" lon="13.381530398408312"><ele>243.99999999999997</ele><time>2026-04-10T16:37:28Z</time></trkpt><trkpt lat="41.68496318771192" lon="13.381393028824471"><ele>243.99999999999997</ele><time>2026-04-10T16:37:29Z</time></trkpt><trkpt lat="41.68494455031805" lon="13.38126089982071"><ele>244.0</ele><time>2026-04-10T16:37:30Z</time></trkpt><trkpt lat="41.684918001868276" lon="13.381125736772283"><ele>244.0</ele><time>2026-04-10T16:37:31Z</time></trkpt><trkpt lat="41.68489683029496" lon="13.380983853466214"><ele>243.6</ele><time>2026-04-10T16:37:32Z</time></trkpt><trkpt lat="41.684877978772775" lon="13.380835556899585"><ele>243.2</ele><time>2026-04-10T16:37:33Z</time></trkpt><trkpt lat="41.684854973419995" lon="13.380688527626605"><ele>242.79999999999998</ele><time>2026-04-10T16:37:34Z</time></trkpt><trkpt lat="41.684830643446624" lon="13.380542371959132"><ele>242.39999999999998</ele><time>2026-04-10T16:37:35Z</time></trkpt><trkpt lat="41.68480859286572" lon="13.380393962847213"><ele>242.0</ele><time>2026-04-10T16:37:36Z</time></trkpt><trkpt lat="41.68478314420956" lon="13.38024690437249"><ele>242.0</ele><time>2026-04-10T16:37:37Z</time></trkpt><trkpt lat="41.68473786565862" lon="13.380101730810672"><ele>242.0</ele><time>2026-04-10T16:37:38Z</time></trkpt><trkpt lat="41.68467204421496" lon="13.379965510663645"><ele>242.0</ele><time>2026-04-10T16:37:39Z</time></trkpt><trkpt lat="41.684580959455914" lon="13.379841745232904"><ele>242.0</ele><time>2026-04-10T16:37:40Z</time></trkpt><trkpt lat="41.68448026401662" lon="13.379723522695421"><ele>243.75</ele><time>2026-04-10T16:37:41Z</time></trkpt><trkpt lat="41.68438070266947" lon="13.379601190841965"><ele>245.5</ele><time>2026-04-10T16:37:42Z</time></trkpt><trkpt lat="41.68430715276965" lon="13.379452698361806"><ele>247.25</ele><time>2026-04-10T16:37:43Z</time></trkpt><trkpt lat="41.6842494018435" lon="13.37929495008507"><ele>249.0</ele><time>2026-04-10T16:37:44Z</time></trkpt><trkpt lat="41.684208700162245" lon="13.379127666710145"><ele>249.0</ele><time>2026-04-10T16:37:45Z</time></trkpt><trkpt lat="41.68417626286473" lon="13.378956289010837"><ele>249.0</ele><time>2026-04-10T16:37:46Z</time></trkpt><trkpt lat="41.68414699041684" lon="13.378783036653434"><ele>249.0</ele><time>2026-04-10T16:37:47Z</time></trkpt><trkpt lat="41.68412518423225" lon="13.378605088209873"><ele>249.0</ele><time>2026-04-10T16:37:48Z</time></trkpt><trkpt lat="41.684110162177454" lon="13.378425941404226"><ele>250.0</ele><time>2026-04-10T16:37:49Z</time></trkpt><trkpt lat="41.68409509444248" lon="13.37824734710671"><ele>251.0</ele><time>2026-04-10T16:37:50Z</time></trkpt><trkpt lat="41.68408230707995" lon="13.378065475513132"><ele>252.0</ele><time>2026-04-10T16:37:51Z</time></trkpt><trkpt lat="41.68406777084071" lon="13.377882751703769"><ele>253.0</ele><time>2026-04-10T16:37:52Z</time></trkpt><trkpt lat="41.684052354138984" lon="13.377699869908204"><ele>253.25</ele><time>2026-04-10T16:37:53Z</time></trkpt><trkpt lat="41.68403787133616" lon="13.377521905070415"><ele>253.5</ele><time>2026-04-10T16:37:54Z</time></trkpt><trkpt lat="41.68402561737547" lon="13.377369748380392"><ele>253.75</ele><time>2026-04-10T16:37:55Z</time></trkpt><trkpt lat="41.684011872662694" lon="13.377225386190828"><ele>254.0</ele><time>2026-04-10T16:37:56Z</time></trkpt><trkpt lat="41.68399691803028" lon="13.377090603657674"><ele>254.33333333333334</ele><time>2026-04-10T16:37:57Z</time></trkpt><trkpt lat="41.68398810037196" lon="13.376970579165606"><ele>254.66666666666669</ele><time>2026-04-10T16:37:58Z</time></trkpt><trkpt lat="41.68397950871341" lon="13.3768740178616"><ele>255.0</ele><time>2026-04-10T16:37:59Z</time></trkpt><trkpt lat="41.683965706345674" lon="13.376731849139613"><ele>255.33333333333331</ele><time>2026-04-10T16:38:01Z</time></trkpt><trkpt lat="41.68395091815909" lon="13.376615884047736"><ele>255.66666666666666</ele><time>2026-04-10T16:38:03Z</time></trkpt><trkpt lat="41.683931315140455" lon="13.37653007322832"><ele>256.0</ele><time>2026-04-10T16:38:05Z</time></trkpt><trkpt lat="41.68379678408939" lon="13.376561818707398"><ele>256.0</ele><time>2026-04-10T16:38:07Z</time></trkpt><trkpt lat="41.683691443973814" lon="13.376598833254551"><ele>256.0</ele><time>2026-04-10T16:38:09Z</time></trkpt><trkpt lat="41.68358472186387" lon="13.376619284573032"><ele>256.0</ele><time>2026-04-10T16:38:11Z</time></trkpt><trkpt lat="41.68347668572093" lon="13.376643133777858"><ele>256.0</ele><time>2026-04-10T16:38:13Z</time></trkpt><trkpt lat="41.68335782863114" lon="13.376659121471985"><ele>256.0</ele><time>2026-04-10T16:38:15Z</time></trkpt><trkpt lat="41.68328286334246" lon="13.37667202568721"><ele>255.60000000000002</ele><time>2026-04-10T16:38:16Z</time></trkpt><trkpt lat="41.68319584762382" lon="13.37667512192922"><ele>255.20000000000002</ele><time>2026-04-10T16:38:17Z</time></trkpt><trkpt lat="41.68310359769941" lon="13.376680604924124"><ele>254.79999999999998</ele><time>2026-04-10T16:38:18Z</time></trkpt><trkpt lat="41.68300605380795" lon="13.376687667005388"><ele>254.39999999999998</ele><time>2026-04-10T16:38:19Z</time></trkpt><trkpt lat="41.68290191569231" lon="13.376695801367445"><ele>254.0</ele><time>2026-04-10T16:38:20Z</time></trkpt><trkpt lat="41.68280229361477" lon="13.376695550830894"><ele>253.6</ele><time>2026-04-10T16:38:21Z</time></trkpt><trkpt lat="41.68270600270479" lon="13.376716880389832"><ele>253.2</ele><time>2026-04-10T16:38:22Z</time></trkpt><trkpt lat="41.682597018012125" lon="13.37671965344788"><ele>252.79999999999998</ele><time>2026-04-10T16:38:23Z</time></trkpt><trkpt lat="41.682493174089444" lon="13.37672390207943"><ele>252.39999999999998</ele><time>2026-04-10T16:38:24Z</time></trkpt><trkpt lat="41.682387352063984" lon="13.376733982480767"><ele>252.0</ele><time>2026-04-10T16:38:25Z</time></trkpt><trkpt lat="41.68227626096573" lon="13.376743324095791"><ele>252.0</ele><time>2026-04-10T16:38:26Z</time></trkpt><trkpt lat="41.682158746805015" lon="13.376742805759829"><ele>252.0</ele><time>2026-04-10T16:38:27Z</time></trkpt><trkpt lat="41.68203643267904" lon="13.376748432803106"><ele>252.0</ele><time>2026-04-10T16:38:28Z</time></trkpt><trkpt lat="41.68191138797771" lon="13.37674908080195"><ele>252.0</ele><time>2026-04-10T16:38:29Z</time></trkpt><trkpt lat="41.68178624419569" lon="13.376746736966508"><ele>251.0</ele><time>2026-04-10T16:38:30Z</time></trkpt><trkpt lat="41.68165959895991" lon="13.376749933023806"><ele>250.0</ele><time>2026-04-10T16:38:31Z</time></trkpt><trkpt lat="41.681530068957905" lon="13.376755156258357"><ele>249.0</ele><time>2026-04-10T16:38:32Z</time></trkpt><trkpt lat="41.681399623427005" lon="13.376759329017055"><ele>248.0</ele><time>2026-04-10T16:38:33Z</time></trkpt><trkpt lat="41.68126923296237" lon="13.376759921383869"><ele>248.0</ele><time>2026-04-10T16:38:34Z</time></trkpt><trkpt lat="41.68114214912908" lon="13.376759361370947"><ele>248.0</ele><time>2026-04-10T16:38:35Z</time></trkpt><trkpt lat="41.681015785451805" lon="13.376761490161167"><ele>248.0</ele><time>2026-04-10T16:38:36Z</time></trkpt><trkpt lat="41.68089503223697" lon="13.376763693876965"><ele>248.0</ele><time>2026-04-10T16:38:37Z</time></trkpt><trkpt lat="41.680778388658254" lon="13.376765775058335"><ele>248.0</ele><time>2026-04-10T16:38:38Z</time></trkpt><trkpt lat="41.680669558077824" lon="13.376767911002506"><ele>248.0</ele><time>2026-04-10T16:38:39Z</time></trkpt><trkpt lat="41.68056273325047" lon="13.376765753089034"><ele>248.0</ele><time>2026-04-10T16:38:40Z</time></trkpt><trkpt lat="41.680460624154655" lon="13.376765918599816"><ele>248.0</ele><time>2026-04-10T16:38:41Z</time></trkpt><trkpt lat="41.68036440944683" lon="13.376762779020915"><ele>248.0</ele><time>2026-04-10T16:38:42Z</time></trkpt><trkpt lat="41.68028322937864" lon="13.376751559679189"><ele>247.60000000000002</ele><time>2026-04-10T16:38:43Z</time></trkpt><trkpt lat="41.68021252870003" lon="13.376757249284141"><ele>247.20000000000002</ele><time>2026-04-10T16:38:44Z</time></trkpt><trkpt lat="41.68009680852748" lon="13.37676544874805"><ele>246.8</ele><time>2026-04-10T16:38:46Z</time></trkpt><trkpt lat="41.68005116007405" lon="13.376602931316201"><ele>246.4</ele><time>2026-04-10T16:38:48Z</time></trkpt><trkpt lat="41.680025659327406" lon="13.376507033912656"><ele>246.0</ele><time>2026-04-10T16:38:49Z</time></trkpt><trkpt lat="41.67998450583922" lon="13.3764070318994"><ele>245.75</ele><time>2026-04-10T16:38:50Z</time></trkpt><trkpt lat="41.67995698595604" lon="13.376270531327096"><ele>245.5</ele><time>2026-04-10T16:38:51Z</time></trkpt><trkpt lat="41.679908270444656" lon="13.376098604787758"><ele>245.25</ele><time>2026-04-10T16:38:52Z</time></trkpt><trkpt lat="41.679862121303096" lon="13.375917276587264"><ele>245.0</ele><time>2026-04-10T16:38:53Z</time></trkpt><trkpt lat="41.67981726300143" lon="13.375736733045908"><ele>245.0</ele><time>2026-04-10T16:38:54Z</time></trkpt><trkpt lat="41.67976989520647" lon="13.375561650506057"><ele>245.0</ele><time>2026-04-10T16:38:55Z</time></trkpt><trkpt lat="41.67972542995907" lon="13.375387145598099"><ele>245.0</ele><time>2026-04-10T16:38:56Z</time></trkpt><trkpt lat="41.67968227395364" lon="13.375212150016765"><ele>245.0</ele><time>2026-04-10T16:38:57Z</time></trkpt><trkpt lat="41.67964045078091" lon="13.375041235749487"><ele>245.25</ele><time>2026-04-10T16:38:58Z</time></trkpt><trkpt lat="41.67960176182637" lon="13.374873913597792"><ele>245.5</ele><time>2026-04-10T16:38:59Z</time></trkpt><trkpt lat="41.679564124895855" lon="13.374713990501746"><ele>245.75</ele><time>2026-04-10T16:39:00Z</time></trkpt><trkpt lat="41.679529091621234" lon="13.374560229388932"><ele>246.0</ele><time>2026-04-10T16:39:01Z</time></trkpt><trkpt lat="41.679496558062496" lon="13.374414247194466"><ele>246.20000000000002</ele><time>2026-04-10T16:39:02Z</time></trkpt><trkpt lat="41.679462425276164" lon="13.374277633708962"><ele>246.40000000000003</ele><time>2026-04-10T16:39:03Z</time></trkpt><trkpt lat="41.67942878078693" lon="13.374148674117999"><ele>246.6</ele><time>2026-04-10T16:39:04Z</time></trkpt><trkpt lat="41.67939620853799" lon="13.374025577150906"><ele>246.8</ele><time>2026-04-10T16:39:05Z</time></trkpt><trkpt lat="41.67936611747611" lon="13.37390896729588"><ele>247.0</ele><time>2026-04-10T16:39:06Z</time></trkpt><trkpt lat="41.67933627930261" lon="13.373796688327706"><ele>246.49999999999997</ele><time>2026-04-10T16:39:07Z</time></trkpt><trkpt lat="41.67930908807422" lon="13.37369765622379"><ele>246.0</ele><time>2026-04-10T16:39:08Z</time></trkpt><trkpt lat="41.67928880277231" lon="13.37361623218182"><ele>245.5</ele><time>2026-04-10T16:39:09Z</time></trkpt><trkpt lat="41.67926830024599" lon="13.373524209760603"><ele>245.0</ele><time>2026-04-10T16:39:11Z</time></trkpt><trkpt lat="41.6792494944607" lon="13.373411935331058"><ele>244.49999999999997</ele><time>2026-04-10T16:39:14Z</time></trkpt><trkpt lat="41.67935987109333" lon="13.373371070710489"><ele>244.0</ele><time>2026-04-10T16:39:17Z</time></trkpt><trkpt lat="41.679461077535606" lon="13.373353784513249"><ele>244.0</ele><time>2026-04-10T16:39:18Z</time></trkpt><trkpt lat="41.679601765327305" lon="13.373321370627155"><ele>244.0</ele><time>2026-04-10T16:39:19Z</time></trkpt><trkpt lat="41.67976254988842" lon="13.373285371671813"><ele>244.0</ele><time>2026-04-10T16:39:20Z</time></trkpt><trkpt lat="41.6798805918217" lon="13.373255812155296"><ele>244.0</ele><time>2026-04-10T16:39:21Z</time></trkpt><trkpt lat="41.67997129086333" lon="13.373224484435102"><ele>244.0</ele><time>2026-04-10T16:39:22Z</time></trkpt><trkpt lat="41.68004720410904" lon="13.37320883175702"><ele>243.99999999999997</ele><time>2026-04-10T16:39:23Z</time></trkpt><trkpt lat="41.68011464762288" lon="13.373216532805868"><ele>243.99999999999997</ele><time>2026-04-10T16:39:24Z</time></trkpt><trkpt lat="41.68021582332893" lon="13.373190277382943"><ele>244.0</ele><time>2026-04-10T16:39:26Z</time></trkpt><trkpt lat="41.68029381233885" lon="13.37317687352898"><ele>244.0</ele><time>2026-04-10T16:39:28Z</time></trkpt><trkpt lat="41.68038399680881" lon="13.373469946363882"><ele>244.28571428571425</ele><time>2026-04-10T16:39:57Z</time></trkpt><trkpt lat="41.680409047462845" lon="13.37355972057191"><ele>244.57142857142856</ele><time>2026-04-10T16:39:59Z</time></trkpt><trkpt lat="41.68042741613771" lon="13.37364815947349"><ele>244.85714285714286</ele><time>2026-04-10T16:40:01Z</time></trkpt><trkpt lat="41.680489859527256" lon="13.37371712015318"><ele>245.14285714285714</ele><time>2026-04-10T16:40:04Z</time></trkpt><trkpt lat="41.680548273111775" lon="13.373678401650315"><ele>245.42857142857144</ele><time>2026-04-10T16:40:08Z</time></trkpt><trkpt lat="41.680543480062454" lon="13.373582139935966"><ele>245.71428571428575</ele><time>2026-04-10T16:41:00Z</time></trkpt><trkpt lat="41.680558287385466" lon="13.373493688514932"><ele>246.00000000000003</ele><time>2026-04-10T16:41:07Z</time></trkpt><trkpt lat="41.68046162848414" lon="13.373468298284724"><ele>246.00000000000003</ele><time>2026-04-10T16:47:14Z</time></trkpt><trkpt lat="41.68042529744719" lon="13.373399419610141"><ele>246.0</ele><time>2026-04-10T17:12:02Z</time></trkpt><trkpt lat="41.68042942379349" lon="13.373315196974508"><ele>246.00000000000003</ele><time>2026-04-10T17:12:28.999Z</time></trkpt><trkpt lat="41.680421158458806" lon="13.37322656805265"><ele>246.00000000000003</ele><time>2026-04-10T17:12:39.999Z</time></trkpt><trkpt lat="41.68040906945369" lon="13.37313924124188"><ele>246.0</ele><time>2026-04-10T17:12:49.999Z</time></trkpt><trkpt lat="41.68040114171424" lon="13.37304976747892"><ele>246.00000000000003</ele><time>2026-04-10T17:13:00.999Z</time></trkpt><trkpt lat="41.680410414093224" lon="13.373139604379388"><ele>246.00000000000003</ele><time>2026-04-10T17:16:20.999Z</time></trkpt><trkpt lat="41.680421961631204" lon="13.373228403855538"><ele>246.0</ele><time>2026-04-10T17:16:30.999Z</time></trkpt><trkpt lat="41.68043528640361" lon="13.373312148083167"><ele>246.0</ele><time>2026-04-10T17:16:40.999Z</time></trkpt><trkpt lat="41.68045345208272" lon="13.373402555398863"><ele>246.0</ele><time>2026-04-10T17:16:56.999Z</time></trkpt><trkpt lat="41.680500610577916" lon="13.37352457994588"><ele>246.0</ele><time>2026-04-10T17:20:28.999Z</time></trkpt><trkpt lat="41.68047546950182" lon="13.373435903330725"><ele>246.0</ele><time>2026-04-10T17:21:10.999Z</time></trkpt><trkpt lat="41.680415955484335" lon="13.373333419943497"><ele>246.0</ele><time>2026-04-10T17:21:22.999Z</time></trkpt><trkpt lat="41.68047522338049" lon="13.373373066088051"><ele>246.00000000000003</ele><time>2026-04-10T17:22:07Z</time></trkpt><trkpt lat="41.68052968840882" lon="13.373436438639594"><ele>246.0</ele><time>2026-04-10T17:22:15Z</time></trkpt><trkpt lat="41.6805678050181" lon="13.373510400856018"><ele>246.00000000000003</ele><time>2026-04-10T17:22:24.999Z</time></trkpt><trkpt lat="41.680563190862685" lon="13.373606558762043"><ele>246.00000000000003</ele><time>2026-04-10T17:22:34.999Z</time></trkpt><trkpt lat="41.68061022238669" lon="13.373674420445338"><ele>246.0</ele><time>2026-04-10T17:22:43.999Z</time></trkpt><trkpt lat="41.68062412893759" lon="13.373794061945366"><ele>246.00000000000003</ele><time>2026-04-10T17:23:09.999Z</time></trkpt><trkpt lat="41.68063240154841" lon="13.373892339803271"><ele>246.00000000000003</ele><time>2026-04-10T17:23:12.999Z</time></trkpt><trkpt lat="41.68064526848865" lon="13.373801781725504"><ele>246.00000000000003</ele><time>2026-04-10T17:23:26.999Z</time></trkpt><trkpt lat="41.68063680591939" lon="13.373716754748559"><ele>246.0</ele><time>2026-04-10T17:23:29.999Z</time></trkpt><trkpt lat="41.680593776368084" lon="13.373640411843338"><ele>246.00000000000003</ele><time>2026-04-10T17:23:32.999Z</time></trkpt><trkpt lat="41.680575371111274" lon="13.373509161920007"><ele>246.00000000000003</ele><time>2026-04-10T17:24:08Z</time></trkpt><trkpt lat="41.680545268300484" lon="13.373417976849758"><ele>246.0</ele><time>2026-04-10T17:24:20Z</time></trkpt><trkpt lat="41.68048188110846" lon="13.373399086038498"><ele>246.00000000000003</ele><time>2026-04-10T17:24:27.999Z</time></trkpt><trkpt lat="41.68042788675945" lon="13.37332965748463"><ele>246.00000000000003</ele><time>2026-04-10T17:24:33.999Z</time></trkpt><trkpt lat="41.68043473572392" lon="13.373245510420759"><ele>246.00000000000003</ele><time>2026-04-10T17:24:43.999Z</time></trkpt><trkpt lat="41.68041943000081" lon="13.3731523686472"><ele>246.0</ele><time>2026-04-10T17:24:50.999Z</time></trkpt><trkpt lat="41.68040893444102" lon="13.373059593879006"><ele>246.00000000000003</ele><time>2026-04-10T17:25:00.999Z</time></trkpt><trkpt lat="41.68038634223648" lon="13.372951289255806"><ele>246.00000000000003</ele><time>2026-04-10T17:25:18.999Z</time></trkpt><trkpt lat="41.680357750258636" lon="13.372873309330972"><ele>246.0</ele><time>2026-04-10T17:25:30.999Z</time></trkpt><trkpt lat="41.680339393708046" lon="13.3727811805895"><ele>246.00000000000003</ele><time>2026-04-10T17:25:37.999Z</time></trkpt><trkpt lat="41.68037579375244" lon="13.372864068599792"><ele>246.00000000000003</ele><time>2026-04-10T17:25:50Z</time></trkpt><trkpt lat="41.680409639689806" lon="13.372936939659056"><ele>246.00000000000003</ele><time>2026-04-10T17:26:16.999Z</time></trkpt><trkpt lat="41.68041939213107" lon="13.373057015292842"><ele>246.0</ele><time>2026-04-10T17:27:54Z</time></trkpt><trkpt lat="41.6804379727329" lon="13.373149235086265"><ele>246.00000000000003</ele><time>2026-04-10T17:28:00Z</time></trkpt><trkpt lat="41.68044744048141" lon="13.373238308832923"><ele>246.00000000000003</ele><time>2026-04-10T17:28:07Z</time></trkpt><trkpt lat="41.68044085826134" lon="13.373329188392285"><ele>246.0</ele><time>2026-04-10T17:28:14Z</time></trkpt><trkpt lat="41.6804727887065" lon="13.373426631668089"><ele>246.00000000000003</ele><time>2026-04-10T17:28:42.999Z</time></trkpt><trkpt lat="41.68053413726991" lon="13.373458757794591"><ele>246.00000000000003</ele><time>2026-04-10T17:29:30.999Z</time></trkpt><trkpt lat="41.680471848304705" lon="13.37343698697849"><ele>246.00000000000003</ele><time>2026-04-10T17:30:41.999Z</time></trkpt><trkpt lat="41.68053658965236" lon="13.37341184729229"><ele>246.0</ele><time>2026-04-10T17:30:53.999Z</time></trkpt><trkpt lat="41.680578110778576" lon="13.373480086166557"><ele>246.00000000000003</ele><time>2026-04-10T17:31:22.999Z</time></trkpt><trkpt lat="41.68059089244704" lon="13.37356477811941"><ele>246.00000000000003</ele><time>2026-04-10T17:31:30.999Z</time></trkpt><trkpt lat="41.68052748837953" lon="13.373605610077895"><ele>246.0</ele><time>2026-04-10T17:32:08Z</time></trkpt><trkpt lat="41.68055528456461" lon="13.373508773476033"><ele>246.00000000000003</ele><time>2026-04-10T17:32:36Z</time></trkpt><trkpt lat="41.6805374323238" lon="13.373425110234303"><ele>246.00000000000003</ele><time>2026-04-10T17:33:43.999Z</time></trkpt><trkpt lat="41.68047436039847" lon="13.373406112073217"><ele>246.00000000000003</ele><time>2026-04-10T17:33:54.999Z</time></trkpt><trkpt lat="41.68053696717369" lon="13.373422906995954"><ele>246.0</ele><time>2026-04-10T17:35:11.999Z</time></trkpt><trkpt lat="41.68056153785018" lon="13.373501223954039"><ele>246.00000000000003</ele><time>2026-04-10T17:35:19.999Z</time></trkpt><trkpt lat="41.68056295145236" lon="13.373593160502082"><ele>246.00000000000003</ele><time>2026-04-10T17:35:51.999Z</time></trkpt><trkpt lat="41.68060918272145" lon="13.37365292201038"><ele>246.0</ele><time>2026-04-10T17:35:59.999Z</time></trkpt><trkpt lat="41.68056327548344" lon="13.373588966385745"><ele>246.00000000000003</ele><time>2026-04-10T17:36:30Z</time></trkpt><trkpt lat="41.680546806522806" lon="13.373500894545547"><ele>246.00000000000003</ele><time>2026-04-10T17:36:39Z</time></trkpt><trkpt lat="41.68053982180392" lon="13.373400702618161"><ele>246.00000000000003</ele><time>2026-04-10T17:36:46.999Z</time></trkpt><trkpt lat="41.680474043129834" lon="13.373387849159412"><ele>246.0</ele><time>2026-04-10T17:36:52.999Z</time></trkpt><trkpt lat="41.68042452551627" lon="13.373330542497154"><ele>246.00000000000003</ele><time>2026-04-10T17:36:58.999Z</time></trkpt><trkpt lat="41.68038617908984" lon="13.373258617254535"><ele>246.00000000000003</ele><time>2026-04-10T17:37:04.999Z</time></trkpt><trkpt lat="41.680345676080194" lon="13.373192900488446"><ele>246.0</ele><time>2026-04-10T17:38:00.999Z</time></trkpt><trkpt lat="41.680272734719225" lon="13.373187284389978"><ele>246.00000000000003</ele><time>2026-04-10T17:38:04.999Z</time></trkpt><trkpt lat="41.68017914721918" lon="13.373193856765326"><ele>246.00000000000003</ele><time>2026-04-10T17:38:07.999Z</time></trkpt><trkpt lat="41.68009923011381" lon="13.37319650416793"><ele>245.66666666666666</ele><time>2026-04-10T17:38:09.999Z</time></trkpt><trkpt lat="41.68002808966233" lon="13.37320158114049"><ele>245.33333333333331</ele><time>2026-04-10T17:38:11.999Z</time></trkpt><trkpt lat="41.67996019269224" lon="13.373210141732734"><ele>245.0</ele><time>2026-04-10T17:38:13.999Z</time></trkpt><trkpt lat="41.67987590260775" lon="13.373229955724685"><ele>244.66666666666666</ele><time>2026-04-10T17:38:15.999Z</time></trkpt><trkpt lat="41.67979654057088" lon="13.373249620544561"><ele>244.33333333333331</ele><time>2026-04-10T17:38:17.999Z</time></trkpt><trkpt lat="41.67969562804012" lon="13.373264999392193"><ele>244.0</ele><time>2026-04-10T17:38:19.999Z</time></trkpt><trkpt lat="41.67959517136245" lon="13.3732856854175"><ele>243.99999999999997</ele><time>2026-04-10T17:38:22Z</time></trkpt><trkpt lat="41.67950019074737" lon="13.373302231496128"><ele>244.0</ele><time>2026-04-10T17:38:24Z</time></trkpt><trkpt lat="41.6794228586691" lon="13.37331439897362"><ele>244.0</ele><time>2026-04-10T17:38:26Z</time></trkpt><trkpt lat="41.67934380476448" lon="13.37332695263418"><ele>244.0</ele><time>2026-04-10T17:38:28Z</time></trkpt><trkpt lat="41.67928075948294" lon="13.373350877994678"><ele>243.99999999999997</ele><time>2026-04-10T17:38:32Z</time></trkpt><trkpt lat="41.67921811934235" lon="13.37328522627815"><ele>244.0</ele><time>2026-04-10T17:38:38Z</time></trkpt><trkpt lat="41.67917197532324" lon="13.37315003096825"><ele>243.39999999999998</ele><time>2026-04-10T17:38:40Z</time></trkpt><trkpt lat="41.67909660874971" lon="13.373026075796647"><ele>242.79999999999998</ele><time>2026-04-10T17:38:42Z</time></trkpt><trkpt lat="41.67897212928387" lon="13.372961933012142"><ele>242.20000000000002</ele><time>2026-04-10T17:38:44Z</time></trkpt><trkpt lat="41.67890033128922" lon="13.37294469479196"><ele>241.60000000000002</ele><time>2026-04-10T17:38:45Z</time></trkpt><trkpt lat="41.67881637690181" lon="13.3729258053144"><ele>241.0</ele><time>2026-04-10T17:38:46Z</time></trkpt><trkpt lat="41.67873328400293" lon="13.372909674356583"><ele>240.4</ele><time>2026-04-10T17:38:47Z</time></trkpt><trkpt lat="41.67864676860143" lon="13.37288914542538"><ele>239.8</ele><time>2026-04-10T17:38:47.999Z</time></trkpt><trkpt lat="41.67855852895964" lon="13.372857727452732"><ele>239.20000000000002</ele><time>2026-04-10T17:38:48.999Z</time></trkpt><trkpt lat="41.678468919102954" lon="13.37280643119959"><ele>238.60000000000002</ele><time>2026-04-10T17:38:49.999Z</time></trkpt><trkpt lat="41.67838799020987" lon="13.372726847433311"><ele>238.0</ele><time>2026-04-10T17:38:50.999Z</time></trkpt><trkpt lat="41.67831845843501" lon="13.372628274735423"><ele>237.60000000000002</ele><time>2026-04-10T17:38:51.999Z</time></trkpt><trkpt lat="41.67826462460119" lon="13.372510347800414"><ele>237.20000000000002</ele><time>2026-04-10T17:38:52.999Z</time></trkpt><trkpt lat="41.67821797884882" lon="13.372383080735858"><ele>236.8</ele><time>2026-04-10T17:38:53.999Z</time></trkpt><trkpt lat="41.67816584096872" lon="13.372254684294676"><ele>236.4</ele><time>2026-04-10T17:38:54.999Z</time></trkpt><trkpt lat="41.67811942057453" lon="13.372125895341656"><ele>236.0</ele><time>2026-04-10T17:38:55.999Z</time></trkpt><trkpt lat="41.67807509410435" lon="13.372004397803675"><ele>235.8</ele><time>2026-04-10T17:38:56.999Z</time></trkpt><trkpt lat="41.67800043631905" lon="13.371911103822876"><ele>235.60000000000002</ele><time>2026-04-10T17:38:57.999Z</time></trkpt><trkpt lat="41.67794567399578" lon="13.371804650612157"><ele>235.4</ele><time>2026-04-10T17:38:58.999Z</time></trkpt><trkpt lat="41.677857490756054" lon="13.371740785914724"><ele>235.2</ele><time>2026-04-10T17:38:59.999Z</time></trkpt><trkpt lat="41.677773860199224" lon="13.371674934363043"><ele>235.0</ele><time>2026-04-10T17:39:00.999Z</time></trkpt><trkpt lat="41.677686836443826" lon="13.371611135923724"><ele>235.2</ele><time>2026-04-10T17:39:01.999Z</time></trkpt><trkpt lat="41.677593459054535" lon="13.37154828780524"><ele>235.4</ele><time>2026-04-10T17:39:02.999Z</time></trkpt><trkpt lat="41.67750219713216" lon="13.371479928068318"><ele>235.60000000000002</ele><time>2026-04-10T17:39:03.999Z</time></trkpt><trkpt lat="41.67741168897309" lon="13.371409961044654"><ele>235.8</ele><time>2026-04-10T17:39:04.999Z</time></trkpt><trkpt lat="41.67731585495695" lon="13.371345062963515"><ele>236.0</ele><time>2026-04-10T17:39:05.999Z</time></trkpt><trkpt lat="41.677218709416096" lon="13.371280919983208"><ele>236.0</ele><time>2026-04-10T17:39:06.999Z</time></trkpt><trkpt lat="41.677121769748396" lon="13.371219309029337"><ele>236.00000000000003</ele><time>2026-04-10T17:39:07.999Z</time></trkpt><trkpt lat="41.67702246559796" lon="13.371161231844"><ele>236.00000000000003</ele><time>2026-04-10T17:39:08.999Z</time></trkpt><trkpt lat="41.67692142185854" lon="13.371108760667436"><ele>236.0</ele><time>2026-04-10T17:39:09.999Z</time></trkpt><trkpt lat="41.67682021424122" lon="13.371059314338579"><ele>236.0</ele><time>2026-04-10T17:39:10.999Z</time></trkpt><trkpt lat="41.67671684500691" lon="13.371007068942145"><ele>235.60000000000002</ele><time>2026-04-10T17:39:11.999Z</time></trkpt><trkpt lat="41.67661600969188" lon="13.370948684419403"><ele>235.20000000000002</ele><time>2026-04-10T17:39:12.999Z</time></trkpt><trkpt lat="41.67652029877142" lon="13.370880681691055"><ele>234.79999999999998</ele><time>2026-04-10T17:39:13.999Z</time></trkpt><trkpt lat="41.67643093080981" lon="13.370797514080015"><ele>234.39999999999998</ele><time>2026-04-10T17:39:14.999Z</time></trkpt><trkpt lat="41.676353355485865" lon="13.370705348157259"><ele>234.0</ele><time>2026-04-10T17:39:15.999Z</time></trkpt><trkpt lat="41.67628566062772" lon="13.37061347238467"><ele>234.0</ele><time>2026-04-10T17:39:16.999Z</time></trkpt><trkpt lat="41.67622580807832" lon="13.37052818833072"><ele>234.0</ele><time>2026-04-10T17:39:17.999Z</time></trkpt><trkpt lat="41.676171214018254" lon="13.370449887845133"><ele>234.0</ele><time>2026-04-10T17:39:18.999Z</time></trkpt><trkpt lat="41.676124966465714" lon="13.370384529197892"><ele>234.0</ele><time>2026-04-10T17:39:19.999Z</time></trkpt><trkpt lat="41.676055693550154" lon="13.370290761544748"><ele>234.0</ele><time>2026-04-10T17:39:21.999Z</time></trkpt><trkpt lat="41.67605789476301" lon="13.370190869235042"><ele>234.0</ele><time>2026-04-10T17:39:24.999Z</time></trkpt><trkpt lat="41.67618601563208" lon="13.37016834552988"><ele>234.33333333333334</ele><time>2026-04-10T17:39:28.999Z</time></trkpt><trkpt lat="41.67626541340694" lon="13.370154742286616"><ele>234.66666666666669</ele><time>2026-04-10T17:39:30.999Z</time></trkpt><trkpt lat="41.67636124217719" lon="13.370138323902758"><ele>235.0</ele><time>2026-04-10T17:39:32.999Z</time></trkpt><trkpt lat="41.67642527719667" lon="13.370127352755759"><ele>235.33333333333334</ele><time>2026-04-10T17:39:33.999Z</time></trkpt><trkpt lat="41.67650022295491" lon="13.370114512259956"><ele>235.66666666666669</ele><time>2026-04-10T17:39:34.999Z</time></trkpt><trkpt lat="41.67658267707597" lon="13.370100385371048"><ele>236.0</ele><time>2026-04-10T17:39:35.999Z</time></trkpt><trkpt lat="41.67666465354982" lon="13.370083492567588"><ele>236.0</ele><time>2026-04-10T17:39:36.999Z</time></trkpt><trkpt lat="41.67673947222657" lon="13.370046587871764"><ele>236.00000000000003</ele><time>2026-04-10T17:39:37.999Z</time></trkpt><trkpt lat="41.676825736108306" lon="13.37003497168899"><ele>236.00000000000003</ele><time>2026-04-10T17:39:38.999Z</time></trkpt><trkpt lat="41.67691589930831" lon="13.370017273975055"><ele>236.0</ele><time>2026-04-10T17:39:39.999Z</time></trkpt><trkpt lat="41.67701105218766" lon="13.369998584249108"><ele>236.0</ele><time>2026-04-10T17:39:40.999Z</time></trkpt><trkpt lat="41.67711211456174" lon="13.36998001742655"><ele>236.4</ele><time>2026-04-10T17:39:41.999Z</time></trkpt><trkpt lat="41.677217034345" lon="13.369960153486991"><ele>236.8</ele><time>2026-04-10T17:39:42.999Z</time></trkpt><trkpt lat="41.677320332874736" lon="13.369941394930052"><ele>237.20000000000002</ele><time>2026-04-10T17:39:43.999Z</time></trkpt><trkpt lat="41.67742410531808" lon="13.36991888967055"><ele>237.60000000000002</ele><time>2026-04-10T17:39:44.999Z</time></trkpt><trkpt lat="41.67752966507697" lon="13.369895228432126"><ele>238.0</ele><time>2026-04-10T17:39:45.999Z</time></trkpt><trkpt lat="41.677636916769266" lon="13.36987337522373"><ele>238.0</ele><time>2026-04-10T17:39:46.999Z</time></trkpt><trkpt lat="41.67774480745266" lon="13.369847333607993"><ele>238.0</ele><time>2026-04-10T17:39:47.999Z</time></trkpt><trkpt lat="41.677857303169795" lon="13.369842865633153"><ele>238.0</ele><time>2026-04-10T17:39:48.999Z</time></trkpt><trkpt lat="41.677968258886395" lon="13.369818910377578"><ele>238.0</ele><time>2026-04-10T17:39:49.999Z</time></trkpt><trkpt lat="41.678083797324184" lon="13.369795080720284"><ele>238.75</ele><time>2026-04-10T17:39:50.999Z</time></trkpt><trkpt lat="41.67820135129257" lon="13.369775062493595"><ele>239.5</ele><time>2026-04-10T17:39:51.999Z</time></trkpt><trkpt lat="41.678319111502844" lon="13.36975561922763"><ele>240.25</ele><time>2026-04-10T17:39:52.999Z</time></trkpt><trkpt lat="41.67843345342531" lon="13.369742103139147"><ele>241.0</ele><time>2026-04-10T17:39:53.999Z</time></trkpt><trkpt lat="41.678549829935974" lon="13.369724638964437"><ele>241.0</ele><time>2026-04-10T17:39:54.999Z</time></trkpt><trkpt lat="41.678666044591544" lon="13.369692248573571"><ele>241.0</ele><time>2026-04-10T17:39:55.999Z</time></trkpt><trkpt lat="41.678779973591205" lon="13.369639878970245"><ele>241.0</ele><time>2026-04-10T17:39:56.999Z</time></trkpt><trkpt lat="41.67889120411065" lon="13.369568848462285"><ele>241.0</ele><time>2026-04-10T17:39:57.999Z</time></trkpt><trkpt lat="41.67899469168759" lon="13.369483662771184"><ele>241.0</ele><time>2026-04-10T17:39:58.999Z</time></trkpt><trkpt lat="41.67910098118844" lon="13.369396483720738"><ele>241.0</ele><time>2026-04-10T17:39:59.999Z</time></trkpt><trkpt lat="41.67920741633618" lon="13.369310002696633"><ele>241.0</ele><time>2026-04-10T17:40:00.999Z</time></trkpt><trkpt lat="41.679312330673774" lon="13.369221632992819"><ele>241.0</ele><time>2026-04-10T17:40:01.999Z</time></trkpt><trkpt lat="41.67941630912261" lon="13.369131817280534"><ele>241.25</ele><time>2026-04-10T17:40:02.999Z</time></trkpt><trkpt lat="41.679520359461876" lon="13.369036168240603"><ele>241.5</ele><time>2026-04-10T17:40:03.999Z</time></trkpt><trkpt lat="41.679623934491325" lon="13.368943794244329"><ele>241.75</ele><time>2026-04-10T17:40:04.999Z</time></trkpt><trkpt lat="41.67972998146547" lon="13.368857140211555"><ele>242.0</ele><time>2026-04-10T17:40:05.999Z</time></trkpt><trkpt lat="41.67984261255841" lon="13.36878930346743"><ele>242.0</ele><time>2026-04-10T17:40:06.999Z</time></trkpt><trkpt lat="41.67995979716567" lon="13.368753767098463"><ele>242.0</ele><time>2026-04-10T17:40:07.999Z</time></trkpt><trkpt lat="41.6800726787675" lon="13.368732149688789"><ele>242.0</ele><time>2026-04-10T17:40:08.999Z</time></trkpt><trkpt lat="41.68018751189194" lon="13.368711697057218"><ele>242.0</ele><time>2026-04-10T17:40:09.999Z</time></trkpt><trkpt lat="41.68030031016751" lon="13.368702617488287"><ele>242.8</ele><time>2026-04-10T17:40:10.999Z</time></trkpt><trkpt lat="41.680412586266165" lon="13.36870431533864"><ele>243.6</ele><time>2026-04-10T17:40:11.999Z</time></trkpt><trkpt lat="41.6805263717229" lon="13.368702949876601"><ele>244.40000000000003</ele><time>2026-04-10T17:40:12.999Z</time></trkpt><trkpt lat="41.68063713072191" lon="13.368702435802765"><ele>245.20000000000002</ele><time>2026-04-10T17:40:13.999Z</time></trkpt><trkpt lat="41.680747482615665" lon="13.368697344222078"><ele>246.0</ele><time>2026-04-10T17:40:14.999Z</time></trkpt><trkpt lat="41.6808571579513" lon="13.368689710589114"><ele>246.0</ele><time>2026-04-10T17:40:15.999Z</time></trkpt><trkpt lat="41.68096246468022" lon="13.368681495821411"><ele>246.00000000000003</ele><time>2026-04-10T17:40:16.999Z</time></trkpt><trkpt lat="41.68106839065579" lon="13.368669607928084"><ele>246.00000000000003</ele><time>2026-04-10T17:40:17.999Z</time></trkpt><trkpt lat="41.68117656870839" lon="13.368661483415533"><ele>246.0</ele><time>2026-04-10T17:40:18.999Z</time></trkpt><trkpt lat="41.68128430846967" lon="13.36865968901375"><ele>246.0</ele><time>2026-04-10T17:40:19.999Z</time></trkpt><trkpt lat="41.6813952813082" lon="13.368671961764418"><ele>246.25</ele><time>2026-04-10T17:40:20.999Z</time></trkpt><trkpt lat="41.68150669855006" lon="13.368670330719622"><ele>246.5</ele><time>2026-04-10T17:40:21.999Z</time></trkpt><trkpt lat="41.68162048588228" lon="13.368663873796017"><ele>246.75</ele><time>2026-04-10T17:40:22.999Z</time></trkpt><trkpt lat="41.68173420797156" lon="13.368651806953121"><ele>247.0</ele><time>2026-04-10T17:40:23.999Z</time></trkpt><trkpt lat="41.68184826459088" lon="13.368638646725167"><ele>247.25</ele><time>2026-04-10T17:40:24.999Z</time></trkpt><trkpt lat="41.68195884506241" lon="13.368626697577648"><ele>247.5</ele><time>2026-04-10T17:40:25.999Z</time></trkpt><trkpt lat="41.68207525804464" lon="13.368609677658743"><ele>247.75</ele><time>2026-04-10T17:40:26.999Z</time></trkpt><trkpt lat="41.68218273774343" lon="13.368598279817967"><ele>248.0</ele><time>2026-04-10T17:40:27.999Z</time></trkpt><trkpt lat="41.68229967948015" lon="13.368582221221155"><ele>248.0</ele><time>2026-04-10T17:40:28.999Z</time></trkpt><trkpt lat="41.68241462758932" lon="13.368568610003258"><ele>248.0</ele><time>2026-04-10T17:40:29.999Z</time></trkpt><trkpt lat="41.68252893580422" lon="13.368557582914548"><ele>248.0</ele><time>2026-04-10T17:40:30.999Z</time></trkpt><trkpt lat="41.68263809691911" lon="13.368549598118335"><ele>248.0</ele><time>2026-04-10T17:40:31.999Z</time></trkpt><trkpt lat="41.6827528812436" lon="13.368543902704417"><ele>248.2</ele><time>2026-04-10T17:40:32.999Z</time></trkpt><trkpt lat="41.68286505093485" lon="13.368540451462259"><ele>248.4</ele><time>2026-04-10T17:40:33.999Z</time></trkpt><trkpt lat="41.68296955658213" lon="13.368536366847179"><ele>248.59999999999997</ele><time>2026-04-10T17:40:34.999Z</time></trkpt><trkpt lat="41.68306649482573" lon="13.368531819647409"><ele>248.79999999999998</ele><time>2026-04-10T17:40:35.999Z</time></trkpt><trkpt lat="41.683161722005345" lon="13.368529426354769"><ele>249.0</ele><time>2026-04-10T17:40:36.999Z</time></trkpt><trkpt lat="41.68325355817622" lon="13.368527994563683"><ele>249.0</ele><time>2026-04-10T17:40:37.999Z</time></trkpt><trkpt lat="41.68334228572325" lon="13.368525402653008"><ele>249.0</ele><time>2026-04-10T17:40:38.999Z</time></trkpt><trkpt lat="41.6834213758436" lon="13.368523330215655"><ele>249.0</ele><time>2026-04-10T17:40:39.999Z</time></trkpt><trkpt lat="41.68349201522949" lon="13.368519904186137"><ele>249.0</ele><time>2026-04-10T17:40:40.999Z</time></trkpt><trkpt lat="41.683610293338155" lon="13.368521071162492"><ele>249.0</ele><time>2026-04-10T17:40:42.999Z</time></trkpt><trkpt lat="41.68368983804973" lon="13.368533340758711"><ele>249.0</ele><time>2026-04-10T17:40:44.999Z</time></trkpt><trkpt lat="41.683724045087516" lon="13.368461726033791"><ele>249.6</ele><time>2026-04-10T17:40:55.999Z</time></trkpt><trkpt lat="41.683766891111325" lon="13.368353270986805"><ele>250.2</ele><time>2026-04-10T17:40:57.999Z</time></trkpt><trkpt lat="41.68378560462522" lon="13.368230808816334"><ele>250.79999999999998</ele><time>2026-04-10T17:40:59.999Z</time></trkpt><trkpt lat="41.68381816863339" lon="13.368042031434667"><ele>251.39999999999998</ele><time>2026-04-10T17:41:01.999Z</time></trkpt><trkpt lat="41.68383455264621" lon="13.36791658589295"><ele>252.0</ele><time>2026-04-10T17:41:02.999Z</time></trkpt><trkpt lat="41.6838475926247" lon="13.367811802219672"><ele>252.0</ele><time>2026-04-10T17:41:03.999Z</time></trkpt><trkpt lat="41.68386164297642" lon="13.367694830099103"><ele>252.0</ele><time>2026-04-10T17:41:04.999Z</time></trkpt><trkpt lat="41.68388051907995" lon="13.367566807136711"><ele>252.0</ele><time>2026-04-10T17:41:05.999Z</time></trkpt><trkpt lat="41.683898529131724" lon="13.36744038125093"><ele>252.0</ele><time>2026-04-10T17:41:06.999Z</time></trkpt><trkpt lat="41.68391067823301" lon="13.367309215158656"><ele>252.0</ele><time>2026-04-10T17:41:07.999Z</time></trkpt><trkpt lat="41.68392424169383" lon="13.367178028964592"><ele>252.2</ele><time>2026-04-10T17:41:08.999Z</time></trkpt><trkpt lat="41.683936655562135" lon="13.367042998104502"><ele>252.39999999999998</ele><time>2026-04-10T17:41:09.999Z</time></trkpt><trkpt lat="41.68395264401743" lon="13.366901760661738"><ele>252.60000000000002</ele><time>2026-04-10T17:41:10.999Z</time></trkpt><trkpt lat="41.68396856620605" lon="13.36675386690992"><ele>252.8</ele><time>2026-04-10T17:41:11.999Z</time></trkpt><trkpt lat="41.68398789670765" lon="13.366603925124519"><ele>253.0</ele><time>2026-04-10T17:41:12.999Z</time></trkpt><trkpt lat="41.68400683468553" lon="13.366448561236146"><ele>252.75</ele><time>2026-04-10T17:41:13.999Z</time></trkpt><trkpt lat="41.68402385436693" lon="13.366292802296112"><ele>252.5</ele><time>2026-04-10T17:41:14.999Z</time></trkpt><trkpt lat="41.68404407907068" lon="13.366135703236099"><ele>252.25</ele><time>2026-04-10T17:41:15.999Z</time></trkpt><trkpt lat="41.68406915410606" lon="13.36597890652898"><ele>252.0</ele><time>2026-04-10T17:41:16.999Z</time></trkpt><trkpt lat="41.684101806556626" lon="13.365823057716316"><ele>252.0</ele><time>2026-04-10T17:41:17.999Z</time></trkpt><trkpt lat="41.684142302482435" lon="13.365678262788565"><ele>252.0</ele><time>2026-04-10T17:41:18.999Z</time></trkpt><trkpt lat="41.68418982851129" lon="13.36554571318794"><ele>252.0</ele><time>2026-04-10T17:41:19.999Z</time></trkpt><trkpt lat="41.68423947782826" lon="13.365423087811786"><ele>252.0</ele><time>2026-04-10T17:41:20.999Z</time></trkpt><trkpt lat="41.68428827605456" lon="13.365308325619806"><ele>252.0</ele><time>2026-04-10T17:41:21.999Z</time></trkpt><trkpt lat="41.68433784576988" lon="13.365204297872097"><ele>252.16666666666666</ele><time>2026-04-10T17:41:22.999Z</time></trkpt><trkpt lat="41.684401850419036" lon="13.365127980889582"><ele>252.33333333333331</ele><time>2026-04-10T17:41:23.999Z</time></trkpt><trkpt lat="41.68447893399785" lon="13.365074988024054"><ele>252.5</ele><time>2026-04-10T17:41:24.999Z</time></trkpt><trkpt lat="41.684560678097135" lon="13.365050325575222"><ele>252.66666666666666</ele><time>2026-04-10T17:41:25.999Z</time></trkpt><trkpt lat="41.68464744609225" lon="13.365046683675876"><ele>252.83333333333331</ele><time>2026-04-10T17:41:26.999Z</time></trkpt><trkpt lat="41.6847325062179" lon="13.365042187808791"><ele>253.0</ele><time>2026-04-10T17:41:27.999Z</time></trkpt><trkpt lat="41.684816122345005" lon="13.36501360341826"><ele>253.2</ele><time>2026-04-10T17:41:28.999Z</time></trkpt><trkpt lat="41.684909154891315" lon="13.364958578616971"><ele>253.4</ele><time>2026-04-10T17:41:29.999Z</time></trkpt><trkpt lat="41.68495067819895" lon="13.364838168038096"><ele>253.59999999999997</ele><time>2026-04-10T17:41:30.999Z</time></trkpt><trkpt lat="41.68497747507614" lon="13.36472667845224"><ele>253.79999999999998</ele><time>2026-04-10T17:41:31.999Z</time></trkpt><trkpt lat="41.685002154755075" lon="13.364602472854054"><ele>254.0</ele><time>2026-04-10T17:41:32.999Z</time></trkpt><trkpt lat="41.685034275878195" lon="13.364491295521743"><ele>254.16666666666669</ele><time>2026-04-10T17:41:33.999Z</time></trkpt><trkpt lat="41.68507366692244" lon="13.364377357157565"><ele>254.33333333333334</ele><time>2026-04-10T17:41:34.999Z</time></trkpt><trkpt lat="41.68511000846258" lon="13.364275738118078"><ele>254.5</ele><time>2026-04-10T17:41:35.999Z</time></trkpt><trkpt lat="41.68513959572707" lon="13.364175696032113"><ele>254.66666666666669</ele><time>2026-04-10T17:41:36.999Z</time></trkpt><trkpt lat="41.68516239623001" lon="13.36409006799295"><ele>254.83333333333334</ele><time>2026-04-10T17:41:37.999Z</time></trkpt><trkpt lat="41.68519224211694" lon="13.363985624994003"><ele>255.0</ele><time>2026-04-10T17:41:39.999Z</time></trkpt><trkpt lat="41.685211962627704" lon="13.36389594701278"><ele>255.0</ele><time>2026-04-10T17:41:43.999Z</time></trkpt><trkpt lat="41.68523363264091" lon="13.363806851965847"><ele>255.0</ele><time>2026-04-10T17:41:47.999Z</time></trkpt><trkpt lat="41.68524983688455" lon="13.36372453933932"><ele>255.0</ele><time>2026-04-10T17:41:49.999Z</time></trkpt><trkpt lat="41.68526907794291" lon="13.363614354562088"><ele>255.0</ele><time>2026-04-10T17:41:51.999Z</time></trkpt><trkpt lat="41.685292825105286" lon="13.363488865263134"><ele>255.0</ele><time>2026-04-10T17:41:53.999Z</time></trkpt><trkpt lat="41.68531935980166" lon="13.36331125895807"><ele>255.0</ele><time>2026-04-10T17:41:55.999Z</time></trkpt><trkpt lat="41.68533614685821" lon="13.363205619343583"><ele>255.0</ele><time>2026-04-10T17:41:56.999Z</time></trkpt><trkpt lat="41.68535229752705" lon="13.363086748782115"><ele>255.0</ele><time>2026-04-10T17:41:57.999Z</time></trkpt><trkpt lat="41.68536707162597" lon="13.36297506432976"><ele>255.0</ele><time>2026-04-10T17:41:58.999Z</time></trkpt><trkpt lat="41.685382305000566" lon="13.362862050294934"><ele>255.0</ele><time>2026-04-10T17:41:59.999Z</time></trkpt><trkpt lat="41.68540033880802" lon="13.362743253548151"><ele>255.0</ele><time>2026-04-10T17:42:00.999Z</time></trkpt><trkpt lat="41.68542100423871" lon="13.362618679162928"><ele>255.2</ele><time>2026-04-10T17:42:01.999Z</time></trkpt><trkpt lat="41.685440441379676" lon="13.362489686591237"><ele>255.4</ele><time>2026-04-10T17:42:02.999Z</time></trkpt><trkpt lat="41.68546080689492" lon="13.362357089592457"><ele>255.60000000000002</ele><time>2026-04-10T17:42:03.999Z</time></trkpt><trkpt lat="41.68548123766019" lon="13.362223100767206"><ele>255.8</ele><time>2026-04-10T17:42:04.999Z</time></trkpt><trkpt lat="41.68550551425477" lon="13.362087451016787"><ele>256.0</ele><time>2026-04-10T17:42:05.999Z</time></trkpt><trkpt lat="41.685536973250166" lon="13.361959754472814"><ele>255.60000000000002</ele><time>2026-04-10T17:42:06.999Z</time></trkpt><trkpt lat="41.68557292402045" lon="13.36184105664489"><ele>255.20000000000002</ele><time>2026-04-10T17:42:07.999Z</time></trkpt><trkpt lat="41.68562224418459" lon="13.361739882266638"><ele>254.79999999999998</ele><time>2026-04-10T17:42:08.999Z</time></trkpt><trkpt lat="41.68568860299484" lon="13.36166402440948"><ele>254.39999999999998</ele><time>2026-04-10T17:42:09.999Z</time></trkpt><trkpt lat="41.68576601961663" lon="13.36160194674249"><ele>254.0</ele><time>2026-04-10T17:42:10.999Z</time></trkpt><trkpt lat="41.685849529380164" lon="13.361551721468517"><ele>254.0</ele><time>2026-04-10T17:42:11.999Z</time></trkpt><trkpt lat="41.68594190485116" lon="13.361528769902643"><ele>253.99999999999997</ele><time>2026-04-10T17:42:12.999Z</time></trkpt><trkpt lat="41.686024449977225" lon="13.361451816965054"><ele>253.99999999999997</ele><time>2026-04-10T17:42:13.999Z</time></trkpt><trkpt lat="41.686071611138715" lon="13.36133537156399"><ele>254.0</ele><time>2026-04-10T17:42:14.999Z</time></trkpt><trkpt lat="41.686120141421206" lon="13.361233764749118"><ele>254.0</ele><time>2026-04-10T17:42:15.999Z</time></trkpt><trkpt lat="41.68616082266647" lon="13.361114359138458"><ele>254.0</ele><time>2026-04-10T17:42:16.999Z</time></trkpt><trkpt lat="41.68620104460741" lon="13.36099400050132"><ele>253.99999999999997</ele><time>2026-04-10T17:42:17.999Z</time></trkpt><trkpt lat="41.6862470180783" lon="13.36088012392538"><ele>253.99999999999997</ele><time>2026-04-10T17:42:18.999Z</time></trkpt><trkpt lat="41.68629798967349" lon="13.360772166681878"><ele>254.0</ele><time>2026-04-10T17:42:19.999Z</time></trkpt><trkpt lat="41.68635416527518" lon="13.360638807514977"><ele>254.0</ele><time>2026-04-10T17:42:20.999Z</time></trkpt><trkpt lat="41.68640777414911" lon="13.360510148469467"><ele>253.79999999999998</ele><time>2026-04-10T17:42:21.999Z</time></trkpt><trkpt lat="41.68646251517729" lon="13.360387058958597"><ele>253.59999999999997</ele><time>2026-04-10T17:42:22.999Z</time></trkpt><trkpt lat="41.68651617589539" lon="13.360262882124989"><ele>253.4</ele><time>2026-04-10T17:42:23.999Z</time></trkpt><trkpt lat="41.68656940730732" lon="13.360126405744905"><ele>253.2</ele><time>2026-04-10T17:42:24.999Z</time></trkpt><trkpt lat="41.68662221176476" lon="13.359992976656487"><ele>253.0</ele><time>2026-04-10T17:42:25.999Z</time></trkpt><trkpt lat="41.686676097449826" lon="13.35985740217758"><ele>253.0</ele><time>2026-04-10T17:42:26.999Z</time></trkpt><trkpt lat="41.6867311201094" lon="13.35972239817797"><ele>253.0</ele><time>2026-04-10T17:42:27.999Z</time></trkpt><trkpt lat="41.68678798685829" lon="13.359584533348759"><ele>253.0</ele><time>2026-04-10T17:42:28.999Z</time></trkpt><trkpt lat="41.686832165405804" lon="13.359441559658217"><ele>253.0</ele><time>2026-04-10T17:42:29.999Z</time></trkpt><trkpt lat="41.68688807128136" lon="13.359302488173551"><ele>253.0</ele><time>2026-04-10T17:42:30.999Z</time></trkpt><trkpt lat="41.686946686877306" lon="13.35916364644988"><ele>253.0</ele><time>2026-04-10T17:42:31.999Z</time></trkpt><trkpt lat="41.68700879274287" lon="13.359017950128946"><ele>253.0</ele><time>2026-04-10T17:42:32.999Z</time></trkpt><trkpt lat="41.68707283491321" lon="13.358876972885255"><ele>253.0</ele><time>2026-04-10T17:42:33.999Z</time></trkpt><trkpt lat="41.6871331960528" lon="13.358734156775562"><ele>253.0</ele><time>2026-04-10T17:42:34.999Z</time></trkpt><trkpt lat="41.687191505144305" lon="13.358590421858173"><ele>253.0</ele><time>2026-04-10T17:42:35.999Z</time></trkpt><trkpt lat="41.687245443611694" lon="13.358440444526508"><ele>253.0</ele><time>2026-04-10T17:42:36.999Z</time></trkpt><trkpt lat="41.687289291102104" lon="13.358288914781333"><ele>253.0</ele><time>2026-04-10T17:42:37.999Z</time></trkpt><trkpt lat="41.68732897058283" lon="13.358132371687843"><ele>252.75</ele><time>2026-04-10T17:42:38.999Z</time></trkpt><trkpt lat="41.687364482824805" lon="13.357978305807404"><ele>252.5</ele><time>2026-04-10T17:42:39.999Z</time></trkpt><trkpt lat="41.687400937852814" lon="13.357823453988832"><ele>252.25</ele><time>2026-04-10T17:42:40.999Z</time></trkpt><trkpt lat="41.68743619365414" lon="13.357670858507914"><ele>252.0</ele><time>2026-04-10T17:42:41.999Z</time></trkpt><trkpt lat="41.68747140083832" lon="13.357521373646247"><ele>252.0</ele><time>2026-04-10T17:42:42.999Z</time></trkpt><trkpt lat="41.687506359282864" lon="13.357378475752558"><ele>252.0</ele><time>2026-04-10T17:42:43.999Z</time></trkpt><trkpt lat="41.68754070481389" lon="13.357239934709174"><ele>252.0</ele><time>2026-04-10T17:42:44.999Z</time></trkpt><trkpt lat="41.687575133139084" lon="13.357104072985578"><ele>252.0</ele><time>2026-04-10T17:42:45.999Z</time></trkpt><trkpt lat="41.687607440169714" lon="13.356972781148542"><ele>252.0</ele><time>2026-04-10T17:42:46.999Z</time></trkpt><trkpt lat="41.687639796840045" lon="13.35684534564179"><ele>252.2</ele><time>2026-04-10T17:42:47.999Z</time></trkpt><trkpt lat="41.68767716187995" lon="13.356719776171357"><ele>252.39999999999998</ele><time>2026-04-10T17:42:48.999Z</time></trkpt><trkpt lat="41.68772718306472" lon="13.356604840062415"><ele>252.60000000000002</ele><time>2026-04-10T17:42:49.999Z</time></trkpt><trkpt lat="41.68779822472509" lon="13.35650907355144"><ele>252.8</ele><time>2026-04-10T17:42:50.999Z</time></trkpt><trkpt lat="41.68789147322207" lon="13.356444922954136"><ele>253.0</ele><time>2026-04-10T17:42:51.999Z</time></trkpt><trkpt lat="41.687991584539894" lon="13.35642166647342"><ele>253.2</ele><time>2026-04-10T17:42:52.999Z</time></trkpt><trkpt lat="41.68809871616328" lon="13.356434013927037"><ele>253.4</ele><time>2026-04-10T17:42:53.999Z</time></trkpt><trkpt lat="41.6882024703728" lon="13.356459913492369"><ele>253.59999999999997</ele><time>2026-04-10T17:42:54.999Z</time></trkpt><trkpt lat="41.6883073066041" lon="13.356483703735996"><ele>253.79999999999998</ele><time>2026-04-10T17:42:55.999Z</time></trkpt><trkpt lat="41.688411732968575" lon="13.356471342219576"><ele>254.0</ele><time>2026-04-10T17:42:56.999Z</time></trkpt><trkpt lat="41.6885135153179" lon="13.356414364325364"><ele>254.2</ele><time>2026-04-10T17:42:57.999Z</time></trkpt><trkpt lat="41.68860314250695" lon="13.356337071076283"><ele>254.39999999999998</ele><time>2026-04-10T17:42:58.999Z</time></trkpt><trkpt lat="41.68867368618505" lon="13.356226074309157"><ele>254.6</ele><time>2026-04-10T17:42:59.999Z</time></trkpt><trkpt lat="41.68873888470322" lon="13.356101381315941"><ele>254.8</ele><time>2026-04-10T17:43:00.999Z</time></trkpt><trkpt lat="41.688799681774626" lon="13.355973128473915"><ele>255.0</ele><time>2026-04-10T17:43:01.999Z</time></trkpt><trkpt lat="41.68886359434261" lon="13.355841522144466"><ele>255.0</ele><time>2026-04-10T17:43:02.999Z</time></trkpt><trkpt lat="41.68892984054351" lon="13.355714286891548"><ele>255.0</ele><time>2026-04-10T17:43:03.999Z</time></trkpt><trkpt lat="41.68899706679415" lon="13.355585554610808"><ele>255.0</ele><time>2026-04-10T17:43:04.999Z</time></trkpt><trkpt lat="41.68905855925565" lon="13.355444714243314"><ele>255.0</ele><time>2026-04-10T17:43:05.999Z</time></trkpt><trkpt lat="41.689118213116174" lon="13.355302798120162"><ele>255.0</ele><time>2026-04-10T17:43:06.999Z</time></trkpt><trkpt lat="41.6891813773623" lon="13.355162815052855"><ele>255.0</ele><time>2026-04-10T17:43:07.999Z</time></trkpt><trkpt lat="41.68924551718452" lon="13.355021895162016"><ele>255.0</ele><time>2026-04-10T17:43:08.999Z</time></trkpt><trkpt lat="41.68930701092447" lon="13.35487830712385"><ele>255.0</ele><time>2026-04-10T17:43:09.999Z</time></trkpt><trkpt lat="41.68936728775215" lon="13.354731871298268"><ele>255.75</ele><time>2026-04-10T17:43:10.999Z</time></trkpt><trkpt lat="41.689432890275164" lon="13.354587315891175"><ele>256.5</ele><time>2026-04-10T17:43:11.999Z</time></trkpt><trkpt lat="41.68949896234688" lon="13.354445314022401"><ele>257.25</ele><time>2026-04-10T17:43:12.999Z</time></trkpt><trkpt lat="41.689563131173614" lon="13.354303904192758"><ele>258.0</ele><time>2026-04-10T17:43:13.999Z</time></trkpt><trkpt lat="41.6896257191278" lon="13.354163507316832"><ele>258.0</ele><time>2026-04-10T17:43:14.999Z</time></trkpt><trkpt lat="41.68968709823453" lon="13.354023070015069"><ele>258.0</ele><time>2026-04-10T17:43:16Z</time></trkpt><trkpt lat="41.689744038619814" lon="13.353883323640805"><ele>258.0</ele><time>2026-04-10T17:43:17Z</time></trkpt><trkpt lat="41.68980654063975" lon="13.353758419175836"><ele>258.0</ele><time>2026-04-10T17:43:18Z</time></trkpt><trkpt lat="41.68986362238807" lon="13.353629784751591"><ele>258.0</ele><time>2026-04-10T17:43:19Z</time></trkpt><trkpt lat="41.6899134310537" lon="13.35350138634753"><ele>258.0</ele><time>2026-04-10T17:43:20Z</time></trkpt><trkpt lat="41.689956187473015" lon="13.3533672298737"><ele>258.0</ele><time>2026-04-10T17:43:21Z</time></trkpt><trkpt lat="41.68999219998021" lon="13.353230868721873"><ele>258.0</ele><time>2026-04-10T17:43:22Z</time></trkpt><trkpt lat="41.690021545339015" lon="13.353091616609097"><ele>258.0</ele><time>2026-04-10T17:43:23Z</time></trkpt><trkpt lat="41.69003749839523" lon="13.352954594378074"><ele>258.0</ele><time>2026-04-10T17:43:24Z</time></trkpt><trkpt lat="41.69005140999138" lon="13.352820630913882"><ele>258.0</ele><time>2026-04-10T17:43:25Z</time></trkpt><trkpt lat="41.6900608122589" lon="13.35269329394781"><ele>258.0</ele><time>2026-04-10T17:43:26Z</time></trkpt><trkpt lat="41.69007048194717" lon="13.35257074372989"><ele>258.0</ele><time>2026-04-10T17:43:27Z</time></trkpt><trkpt lat="41.690078754668676" lon="13.352463073183607"><ele>258.0</ele><time>2026-04-10T17:43:28Z</time></trkpt><trkpt lat="41.690088732823966" lon="13.35236778540853"><ele>258.0</ele><time>2026-04-10T17:43:29Z</time></trkpt><trkpt lat="41.69009999242848" lon="13.35228470421217"><ele>257.8333333333333</ele><time>2026-04-10T17:43:30Z</time></trkpt><trkpt lat="41.69010321345171" lon="13.352136138186198"><ele>257.6666666666667</ele><time>2026-04-10T17:43:32Z</time></trkpt><trkpt lat="41.69012809223578" lon="13.352053612248442"><ele>257.5</ele><time>2026-04-10T17:43:34Z</time></trkpt><trkpt lat="41.690138275296256" lon="13.351942552749088"><ele>257.33333333333337</ele><time>2026-04-10T17:44:33Z</time></trkpt><trkpt lat="41.690164590097254" lon="13.35185159077985"><ele>257.1666666666667</ele><time>2026-04-10T17:44:35Z</time></trkpt><trkpt lat="41.69018974667077" lon="13.351718385101853"><ele>257.0</ele><time>2026-04-10T17:44:37Z</time></trkpt><trkpt lat="41.69020219116977" lon="13.351551247413154"><ele>257.0</ele><time>2026-04-10T17:44:39Z</time></trkpt><trkpt lat="41.69021758810668" lon="13.351449661926454"><ele>257.0</ele><time>2026-04-10T17:44:40Z</time></trkpt><trkpt lat="41.69024377298103" lon="13.35135434579044"><ele>257.0</ele><time>2026-04-10T17:44:41Z</time></trkpt><trkpt lat="41.69027237616014" lon="13.351254886146371"><ele>257.0</ele><time>2026-04-10T17:44:42Z</time></trkpt><trkpt lat="41.69030432764615" lon="13.351145755850165"><ele>257.0</ele><time>2026-04-10T17:44:43Z</time></trkpt><trkpt lat="41.69033836022433" lon="13.351041409070556"><ele>257.0</ele><time>2026-04-10T17:44:44Z</time></trkpt><trkpt lat="41.69037335892817" lon="13.35093546547442"><ele>257.8</ele><time>2026-04-10T17:44:45Z</time></trkpt><trkpt lat="41.69040999781591" lon="13.350822748877015"><ele>258.6</ele><time>2026-04-10T17:44:46Z</time></trkpt><trkpt lat="41.69044251887602" lon="13.350705574478104"><ele>259.40000000000003</ele><time>2026-04-10T17:44:47Z</time></trkpt><trkpt lat="41.69047064005437" lon="13.350578831632856"><ele>260.2</ele><time>2026-04-10T17:44:48Z</time></trkpt><trkpt lat="41.690496481082484" lon="13.350446864976782"><ele>261.0</ele><time>2026-04-10T17:44:49Z</time></trkpt><trkpt lat="41.690522554488844" lon="13.350304738283684"><ele>261.0</ele><time>2026-04-10T17:44:50Z</time></trkpt><trkpt lat="41.6905521564448" lon="13.350152739868923"><ele>261.0</ele><time>2026-04-10T17:44:51Z</time></trkpt><trkpt lat="41.690585199037834" lon="13.349989421801096"><ele>261.0</ele><time>2026-04-10T17:44:52Z</time></trkpt><trkpt lat="41.69062214787798" lon="13.34981695194175"><ele>261.0</ele><time>2026-04-10T17:44:53Z</time></trkpt><trkpt lat="41.69066405813995" lon="13.349629387857405"><ele>260.75</ele><time>2026-04-10T17:44:54Z</time></trkpt><trkpt lat="41.6907023959866" lon="13.34944712411194"><ele>260.5</ele><time>2026-04-10T17:44:55Z</time></trkpt><trkpt lat="41.690742003540116" lon="13.349270643459723"><ele>260.25</ele><time>2026-04-10T17:44:56Z</time></trkpt><trkpt lat="41.69078537912698" lon="13.349095897031903"><ele>260.0</ele><time>2026-04-10T17:44:57Z</time></trkpt><trkpt lat="41.69083570069003" lon="13.34891702476722"><ele>259.5</ele><time>2026-04-10T17:44:58Z</time></trkpt><trkpt lat="41.69089067414689" lon="13.348744074842433"><ele>259.0</ele><time>2026-04-10T17:44:59Z</time></trkpt><trkpt lat="41.690949785282264" lon="13.348578615401921"><ele>258.5</ele><time>2026-04-10T17:45:00Z</time></trkpt><trkpt lat="41.69100934206966" lon="13.348417476985047"><ele>258.0</ele><time>2026-04-10T17:45:01Z</time></trkpt><trkpt lat="41.69106634862062" lon="13.348258273817173"><ele>258.5</ele><time>2026-04-10T17:45:02Z</time></trkpt><trkpt lat="41.69112313125414" lon="13.348103291130748"><ele>259.0</ele><time>2026-04-10T17:45:03Z</time></trkpt><trkpt lat="41.6911777868013" lon="13.347953944293211"><ele>259.5</ele><time>2026-04-10T17:45:04Z</time></trkpt><trkpt lat="41.69123062410402" lon="13.347807383970668"><ele>260.0</ele><time>2026-04-10T17:45:05Z</time></trkpt><trkpt lat="41.69128141699252" lon="13.347662825378789"><ele>260.0</ele><time>2026-04-10T17:45:06Z</time></trkpt><trkpt lat="41.69133010330891" lon="13.347522600224789"><ele>260.0</ele><time>2026-04-10T17:45:07Z</time></trkpt><trkpt lat="41.691377620289046" lon="13.347384802962907"><ele>260.0</ele><time>2026-04-10T17:45:08Z</time></trkpt><trkpt lat="41.691423249146396" lon="13.347252156015525"><ele>260.0</ele><time>2026-04-10T17:45:09Z</time></trkpt><trkpt lat="41.69147113000884" lon="13.347123744735345"><ele>260.0</ele><time>2026-04-10T17:45:10Z</time></trkpt><trkpt lat="41.691515886298575" lon="13.346996978563094"><ele>259.6</ele><time>2026-04-10T17:45:11Z</time></trkpt><trkpt lat="41.69155792700834" lon="13.346871126230669"><ele>259.2</ele><time>2026-04-10T17:45:12Z</time></trkpt><trkpt lat="41.69159525709927" lon="13.346747054390656"><ele>258.8</ele><time>2026-04-10T17:45:13Z</time></trkpt><trkpt lat="41.69162802341598" lon="13.346625331700594"><ele>258.4</ele><time>2026-04-10T17:45:14Z</time></trkpt><trkpt lat="41.691658525525696" lon="13.346499985418399"><ele>258.0</ele><time>2026-04-10T17:45:15Z</time></trkpt><trkpt lat="41.69168839235806" lon="13.346367180566146"><ele>257.6</ele><time>2026-04-10T17:45:16Z</time></trkpt><trkpt lat="41.6917163930299" lon="13.34623005134264"><ele>257.20000000000005</ele><time>2026-04-10T17:45:17Z</time></trkpt><trkpt lat="41.691740084601406" lon="13.346084812004838"><ele>256.8</ele><time>2026-04-10T17:45:18Z</time></trkpt><trkpt lat="41.69176011777854" lon="13.345933526134175"><ele>256.40000000000003</ele><time>2026-04-10T17:45:19Z</time></trkpt><trkpt lat="41.6917708092015" lon="13.345779765370246"><ele>256.0</ele><time>2026-04-10T17:45:20Z</time></trkpt><trkpt lat="41.691771351808335" lon="13.345626357071897"><ele>254.75</ele><time>2026-04-10T17:45:21Z</time></trkpt><trkpt lat="41.6917608843049" lon="13.34546699948753"><ele>253.5</ele><time>2026-04-10T17:45:22Z</time></trkpt><trkpt lat="41.69174455715463" lon="13.345300278716998"><ele>252.25</ele><time>2026-04-10T17:45:23Z</time></trkpt><trkpt lat="41.69172958971924" lon="13.345130318868117"><ele>251.0</ele><time>2026-04-10T17:45:24Z</time></trkpt><trkpt lat="41.691714271492245" lon="13.344960334237413"><ele>251.0</ele><time>2026-04-10T17:45:25Z</time></trkpt><trkpt lat="41.6916992640572" lon="13.34478867408378"><ele>251.0</ele><time>2026-04-10T17:45:26Z</time></trkpt><trkpt lat="41.69168492483301" lon="13.344619207793839"><ele>251.0</ele><time>2026-04-10T17:45:27Z</time></trkpt><trkpt lat="41.6916721318727" lon="13.344452989941663"><ele>251.0</ele><time>2026-04-10T17:45:28Z</time></trkpt><trkpt lat="41.69166161134833" lon="13.34428886391688"><ele>251.0</ele><time>2026-04-10T17:45:29Z</time></trkpt><trkpt lat="41.69165199904092" lon="13.344129798384124"><ele>251.0</ele><time>2026-04-10T17:45:30Z</time></trkpt><trkpt lat="41.691645726406726" lon="13.343969354644829"><ele>251.0</ele><time>2026-04-10T17:45:31Z</time></trkpt><trkpt lat="41.69164220428413" lon="13.343808149771746"><ele>251.0</ele><time>2026-04-10T17:45:32Z</time></trkpt><trkpt lat="41.69164129247618" lon="13.343645815175078"><ele>251.0</ele><time>2026-04-10T17:45:33Z</time></trkpt><trkpt lat="41.6916414490003" lon="13.343484648674643"><ele>251.0</ele><time>2026-04-10T17:45:34Z</time></trkpt><trkpt lat="41.69164377359945" lon="13.34332172650934"><ele>251.0</ele><time>2026-04-10T17:45:35Z</time></trkpt><trkpt lat="41.69164477803459" lon="13.343157889928902"><ele>251.0</ele><time>2026-04-10T17:45:36Z</time></trkpt><trkpt lat="41.691644413714094" lon="13.342997455432208"><ele>252.0</ele><time>2026-04-10T17:45:37Z</time></trkpt><trkpt lat="41.69164440939415" lon="13.342837483068523"><ele>253.0</ele><time>2026-04-10T17:45:38Z</time></trkpt><trkpt lat="41.69164272623385" lon="13.342678044393768"><ele>254.0</ele><time>2026-04-10T17:45:39Z</time></trkpt><trkpt lat="41.69163936721967" lon="13.342521302343252"><ele>255.0</ele><time>2026-04-10T17:45:40Z</time></trkpt><trkpt lat="41.69163385237688" lon="13.342367345552407"><ele>256.25</ele><time>2026-04-10T17:45:41Z</time></trkpt><trkpt lat="41.69162849364281" lon="13.342213025428693"><ele>257.5</ele><time>2026-04-10T17:45:42Z</time></trkpt><trkpt lat="41.69162047706736" lon="13.342062140597209"><ele>258.75</ele><time>2026-04-10T17:45:43Z</time></trkpt><trkpt lat="41.691612554829646" lon="13.341911344865961"><ele>260.0</ele><time>2026-04-10T17:45:44Z</time></trkpt><trkpt lat="41.69160453527863" lon="13.341763422067809"><ele>260.0</ele><time>2026-04-10T17:45:45Z</time></trkpt><trkpt lat="41.69159435869246" lon="13.341615582034784"><ele>260.0</ele><time>2026-04-10T17:45:46Z</time></trkpt><trkpt lat="41.691584248583595" lon="13.341470077174025"><ele>260.0</ele><time>2026-04-10T17:45:47Z</time></trkpt><trkpt lat="41.69157324433422" lon="13.34132478744411"><ele>260.0</ele><time>2026-04-10T17:45:48Z</time></trkpt><trkpt lat="41.69156086969112" lon="13.34118102956511"><ele>260.0</ele><time>2026-04-10T17:45:49Z</time></trkpt><trkpt lat="41.69154513111669" lon="13.341040740778041"><ele>260.6</ele><time>2026-04-10T17:45:50Z</time></trkpt><trkpt lat="41.691523208329286" lon="13.340906183210471"><ele>261.2</ele><time>2026-04-10T17:45:51Z</time></trkpt><trkpt lat="41.691499629112855" lon="13.340774895905188"><ele>261.8</ele><time>2026-04-10T17:45:52Z</time></trkpt><trkpt lat="41.69146990028091" lon="13.340657792745281"><ele>262.4</ele><time>2026-04-10T17:45:53Z</time></trkpt><trkpt lat="41.691438841309086" lon="13.340541491526528"><ele>263.0</ele><time>2026-04-10T17:45:54Z</time></trkpt><trkpt lat="41.691403709579745" lon="13.340426036143347"><ele>263.0</ele><time>2026-04-10T17:45:55Z</time></trkpt><trkpt lat="41.69136049918716" lon="13.340312503850924"><ele>263.0</ele><time>2026-04-10T17:45:56Z</time></trkpt><trkpt lat="41.69131058610207" lon="13.340195534682659"><ele>263.0</ele><time>2026-04-10T17:45:57Z</time></trkpt><trkpt lat="41.691260499305706" lon="13.340078079762105"><ele>263.0</ele><time>2026-04-10T17:45:58Z</time></trkpt><trkpt lat="41.69120676902496" lon="13.339955322076817"><ele>263.0</ele><time>2026-04-10T17:45:59Z</time></trkpt><trkpt lat="41.69115570465292" lon="13.339831682562275"><ele>263.2</ele><time>2026-04-10T17:46:00Z</time></trkpt><trkpt lat="41.691100273758614" lon="13.33970676488864"><ele>263.4</ele><time>2026-04-10T17:46:01Z</time></trkpt><trkpt lat="41.6910428194447" lon="13.339582956711695"><ele>263.59999999999997</ele><time>2026-04-10T17:46:02Z</time></trkpt><trkpt lat="41.69098172153163" lon="13.339460812156478"><ele>263.8</ele><time>2026-04-10T17:46:03Z</time></trkpt><trkpt lat="41.69091706321038" lon="13.339346192696915"><ele>264.0</ele><time>2026-04-10T17:46:04Z</time></trkpt><trkpt lat="41.690848662918135" lon="13.33923759053055"><ele>263.59999999999997</ele><time>2026-04-10T17:46:05Z</time></trkpt><trkpt lat="41.69078200040866" lon="13.339130164207678"><ele>263.2</ele><time>2026-04-10T17:46:06Z</time></trkpt><trkpt lat="41.69071483200006" lon="13.339024730833867"><ele>262.79999999999995</ele><time>2026-04-10T17:46:07Z</time></trkpt><trkpt lat="41.69065152679239" lon="13.338920980010121"><ele>262.4</ele><time>2026-04-10T17:46:08Z</time></trkpt><trkpt lat="41.6905861885816" lon="13.338819554962502"><ele>262.0</ele><time>2026-04-10T17:46:09Z</time></trkpt><trkpt lat="41.69052363744597" lon="13.338716894829844"><ele>262.0</ele><time>2026-04-10T17:46:10Z</time></trkpt><trkpt lat="41.69046334910938" lon="13.338611402085627"><ele>262.0</ele><time>2026-04-10T17:46:11Z</time></trkpt><trkpt lat="41.690405014173706" lon="13.338504211757684"><ele>262.0</ele><time>2026-04-10T17:46:12Z</time></trkpt><trkpt lat="41.6903473950222" lon="13.33839156272549"><ele>262.0</ele><time>2026-04-10T17:46:13Z</time></trkpt><trkpt lat="41.690290467589485" lon="13.338278323259688"><ele>262.0</ele><time>2026-04-10T17:46:14Z</time></trkpt><trkpt lat="41.69023472490567" lon="13.338157129276732"><ele>261.25</ele><time>2026-04-10T17:46:15Z</time></trkpt><trkpt lat="41.690178883736245" lon="13.33802995120485"><ele>260.5</ele><time>2026-04-10T17:46:16Z</time></trkpt><trkpt lat="41.69012611419704" lon="13.337895759916854"><ele>259.75</ele><time>2026-04-10T17:46:17Z</time></trkpt><trkpt lat="41.69007516529605" lon="13.337758029524975"><ele>259.0</ele><time>2026-04-10T17:46:18Z</time></trkpt><trkpt lat="41.690027098585325" lon="13.3376140969383"><ele>259.0</ele><time>2026-04-10T17:46:19Z</time></trkpt><trkpt lat="41.68998217520202" lon="13.337466341285936"><ele>259.0</ele><time>2026-04-10T17:46:20Z</time></trkpt><trkpt lat="41.68993952053311" lon="13.337313886247717"><ele>259.0</ele><time>2026-04-10T17:46:21Z</time></trkpt><trkpt lat="41.689897704955285" lon="13.337157243596844"><ele>259.0</ele><time>2026-04-10T17:46:22Z</time></trkpt><trkpt lat="41.68986195374364" lon="13.337001200012482"><ele>259.0</ele><time>2026-04-10T17:46:23Z</time></trkpt><trkpt lat="41.689827791178544" lon="13.336847950305636"><ele>259.0</ele><time>2026-04-10T17:46:24Z</time></trkpt><trkpt lat="41.6897943619803" lon="13.336698158532814"><ele>259.0</ele><time>2026-04-10T17:46:25Z</time></trkpt><trkpt lat="41.689759812103745" lon="13.336546177562616"><ele>259.0</ele><time>2026-04-10T17:46:26Z</time></trkpt><trkpt lat="41.689725320944596" lon="13.336393914163695"><ele>259.0</ele><time>2026-04-10T17:46:27Z</time></trkpt><trkpt lat="41.68969151772554" lon="13.336245809235242"><ele>259.0</ele><time>2026-04-10T17:46:28Z</time></trkpt><trkpt lat="41.68966488796075" lon="13.336098029280878"><ele>259.0</ele><time>2026-04-10T17:46:29Z</time></trkpt><trkpt lat="41.68964156538361" lon="13.335948338124552"><ele>259.0</ele><time>2026-04-10T17:46:30Z</time></trkpt><trkpt lat="41.68962403555844" lon="13.335796356703579"><ele>259.0</ele><time>2026-04-10T17:46:31Z</time></trkpt><trkpt lat="41.689611259539134" lon="13.335642863765784"><ele>259.0</ele><time>2026-04-10T17:46:32Z</time></trkpt><trkpt lat="41.68959893116215" lon="13.335486995321407"><ele>259.0</ele><time>2026-04-10T17:46:33Z</time></trkpt><trkpt lat="41.689587427045545" lon="13.335329095133924"><ele>259.0</ele><time>2026-04-10T17:46:34Z</time></trkpt><trkpt lat="41.68957739330339" lon="13.335171668262216"><ele>259.0</ele><time>2026-04-10T17:46:35Z</time></trkpt><trkpt lat="41.68956837725282" lon="13.33501431986898"><ele>259.0</ele><time>2026-04-10T17:46:36Z</time></trkpt><trkpt lat="41.6895599030913" lon="13.33485572259"><ele>259.0</ele><time>2026-04-10T17:46:37Z</time></trkpt><trkpt lat="41.68955325359245" lon="13.33469297191775"><ele>259.0</ele><time>2026-04-10T17:46:38Z</time></trkpt><trkpt lat="41.68954689774008" lon="13.334527768271169"><ele>259.0</ele><time>2026-04-10T17:46:39Z</time></trkpt><trkpt lat="41.68953795210584" lon="13.334362343220866"><ele>259.0</ele><time>2026-04-10T17:46:40Z</time></trkpt><trkpt lat="41.689527847202704" lon="13.334192250648885"><ele>259.0</ele><time>2026-04-10T17:46:41Z</time></trkpt><trkpt lat="41.68952051901643" lon="13.33402044692427"><ele>259.0</ele><time>2026-04-10T17:46:42Z</time></trkpt><trkpt lat="41.689512837428595" lon="13.33384708410025"><ele>259.0</ele><time>2026-04-10T17:46:43Z</time></trkpt><trkpt lat="41.68950587458677" lon="13.333674014944451"><ele>259.0</ele><time>2026-04-10T17:46:44Z</time></trkpt><trkpt lat="41.689496901727246" lon="13.333504652623695"><ele>259.0</ele><time>2026-04-10T17:46:45Z</time></trkpt><trkpt lat="41.68948931179579" lon="13.333330025351039"><ele>259.0</ele><time>2026-04-10T17:46:46Z</time></trkpt><trkpt lat="41.68947862211305" lon="13.333157237450123"><ele>258.75</ele><time>2026-04-10T17:46:47Z</time></trkpt><trkpt lat="41.68946980818193" lon="13.332982411037417"><ele>258.5</ele><time>2026-04-10T17:46:48Z</time></trkpt><trkpt lat="41.68946085311553" lon="13.332805666288312"><ele>258.25</ele><time>2026-04-10T17:46:49Z</time></trkpt><trkpt lat="41.689452451299736" lon="13.33262729852361"><ele>258.0</ele><time>2026-04-10T17:46:50Z</time></trkpt><trkpt lat="41.689443949248854" lon="13.332450324286517"><ele>258.0</ele><time>2026-04-10T17:46:51Z</time></trkpt><trkpt lat="41.68943420862766" lon="13.332268563414626"><ele>258.0</ele><time>2026-04-10T17:46:52Z</time></trkpt><trkpt lat="41.689425765146225" lon="13.332088636376504"><ele>258.0</ele><time>2026-04-10T17:46:53Z</time></trkpt><trkpt lat="41.68941540671193" lon="13.331906685382645"><ele>258.0</ele><time>2026-04-10T17:46:54Z</time></trkpt><trkpt lat="41.6894010654134" lon="13.33173876657585"><ele>257.0</ele><time>2026-04-10T17:46:55Z</time></trkpt><trkpt lat="41.68938559495405" lon="13.33154861164963"><ele>256.0</ele><time>2026-04-10T17:46:56Z</time></trkpt><trkpt lat="41.68937687898654" lon="13.331363925743261"><ele>255.0</ele><time>2026-04-10T17:46:57Z</time></trkpt><trkpt lat="41.68936030688433" lon="13.331184518978334"><ele>254.0</ele><time>2026-04-10T17:46:58Z</time></trkpt><trkpt lat="41.68934721713867" lon="13.331006332632487"><ele>254.0</ele><time>2026-04-10T17:46:59Z</time></trkpt><trkpt lat="41.68934033543625" lon="13.330825088667085"><ele>254.0</ele><time>2026-04-10T17:47:00Z</time></trkpt><trkpt lat="41.689323100909164" lon="13.330650529664828"><ele>254.0</ele><time>2026-04-10T17:47:01Z</time></trkpt><trkpt lat="41.68931389327889" lon="13.33047585594316"><ele>254.0</ele><time>2026-04-10T17:47:02Z</time></trkpt><trkpt lat="41.68929679916783" lon="13.330300197214074"><ele>254.0</ele><time>2026-04-10T17:47:03Z</time></trkpt><trkpt lat="41.68928579470552" lon="13.330127016387827"><ele>254.0</ele><time>2026-04-10T17:47:04Z</time></trkpt><trkpt lat="41.68926936917583" lon="13.329957254480469"><ele>254.0</ele><time>2026-04-10T17:47:05Z</time></trkpt><trkpt lat="41.68924870665349" lon="13.329789805958214"><ele>254.0</ele><time>2026-04-10T17:47:06Z</time></trkpt><trkpt lat="41.68922318317315" lon="13.329624372004686"><ele>253.75</ele><time>2026-04-10T17:47:07Z</time></trkpt><trkpt lat="41.68919671095936" lon="13.329458157872752"><ele>253.5</ele><time>2026-04-10T17:47:08Z</time></trkpt><trkpt lat="41.68916978138969" lon="13.32929232938169"><ele>253.25</ele><time>2026-04-10T17:47:09Z</time></trkpt><trkpt lat="41.689141309886075" lon="13.329131022892664"><ele>253.0</ele><time>2026-04-10T17:47:10Z</time></trkpt><trkpt lat="41.68911134390061" lon="13.328973972466425"><ele>253.0</ele><time>2026-04-10T17:47:11Z</time></trkpt><trkpt lat="41.68908334230206" lon="13.32881911889629"><ele>253.0</ele><time>2026-04-10T17:47:12Z</time></trkpt><trkpt lat="41.689057134542935" lon="13.328674452588514"><ele>253.0</ele><time>2026-04-10T17:47:13Z</time></trkpt><trkpt lat="41.68903307886391" lon="13.328538141675834"><ele>253.0</ele><time>2026-04-10T17:47:14Z</time></trkpt><trkpt lat="41.68900930782488" lon="13.328404451556107"><ele>253.0</ele><time>2026-04-10T17:47:15Z</time></trkpt><trkpt lat="41.688987213737015" lon="13.328276920362672"><ele>252.99999999999997</ele><time>2026-04-10T17:47:16Z</time></trkpt><trkpt lat="41.688966701826836" lon="13.328149462681125"><ele>253.0</ele><time>2026-04-10T17:47:17Z</time></trkpt><trkpt lat="41.68894876122893" lon="13.328031220852589"><ele>253.0</ele><time>2026-04-10T17:47:18Z</time></trkpt><trkpt lat="41.68893247937008" lon="13.327917013048003"><ele>253.0</ele><time>2026-04-10T17:47:19Z</time></trkpt><trkpt lat="41.68891707010146" lon="13.3278069898088"><ele>252.99999999999997</ele><time>2026-04-10T17:47:20Z</time></trkpt><trkpt lat="41.68890200033343" lon="13.327701174150446"><ele>253.0</ele><time>2026-04-10T17:47:21Z</time></trkpt><trkpt lat="41.688887835411" lon="13.327597721092317"><ele>252.99999999999997</ele><time>2026-04-10T17:47:22Z</time></trkpt><trkpt lat="41.68887542516159" lon="13.327500572305656"><ele>253.0</ele><time>2026-04-10T17:47:23Z</time></trkpt><trkpt lat="41.688864397120426" lon="13.327416554847494"><ele>253.0</ele><time>2026-04-10T17:47:24Z</time></trkpt><trkpt lat="41.68884461806779" lon="13.327269675743445"><ele>253.0</ele><time>2026-04-10T17:47:26Z</time></trkpt><trkpt lat="41.68883743623179" lon="13.327174184171264"><ele>252.99999999999997</ele><time>2026-04-10T17:47:27Z</time></trkpt><trkpt lat="41.68883062160361" lon="13.32706366473676"><ele>253.0</ele><time>2026-04-10T17:47:28Z</time></trkpt><trkpt lat="41.68882876127523" lon="13.32693552554042"><ele>253.2</ele><time>2026-04-10T17:47:29Z</time></trkpt><trkpt lat="41.68882776328155" lon="13.326791495867228"><ele>253.4</ele><time>2026-04-10T17:47:30Z</time></trkpt><trkpt lat="41.68882347127028" lon="13.326655082652637"><ele>253.59999999999997</ele><time>2026-04-10T17:47:31Z</time></trkpt><trkpt lat="41.68882094761995" lon="13.326523369177137"><ele>253.79999999999998</ele><time>2026-04-10T17:47:32Z</time></trkpt><trkpt lat="41.68882148432457" lon="13.326398426608922"><ele>254.0</ele><time>2026-04-10T17:47:33Z</time></trkpt><trkpt lat="41.688821890870756" lon="13.326280461335896"><ele>254.33333333333334</ele><time>2026-04-10T17:47:34Z</time></trkpt><trkpt lat="41.688821164197286" lon="13.326169784375299"><ele>254.66666666666669</ele><time>2026-04-10T17:47:35Z</time></trkpt><trkpt lat="41.68882101240481" lon="13.326060581158888"><ele>255.0</ele><time>2026-04-10T17:47:36Z</time></trkpt><trkpt lat="41.68882049211296" lon="13.325961194659804"><ele>255.33333333333331</ele><time>2026-04-10T17:47:37Z</time></trkpt><trkpt lat="41.68881891432611" lon="13.3258110258658"><ele>255.66666666666666</ele><time>2026-04-10T17:47:39Z</time></trkpt><trkpt lat="41.688815803908625" lon="13.325707388672356"><ele>256.0</ele><time>2026-04-10T17:47:41Z</time></trkpt><trkpt lat="41.68880776726781" lon="13.325574321599639"><ele>256.3333333333333</ele><time>2026-04-10T17:47:43Z</time></trkpt><trkpt lat="41.688801791998856" lon="13.325489591878656"><ele>256.66666666666663</ele><time>2026-04-10T17:47:44Z</time></trkpt><trkpt lat="41.688793094585904" lon="13.325391831678663"><ele>257.0</ele><time>2026-04-10T17:47:45Z</time></trkpt><trkpt lat="41.688782121254626" lon="13.32527932642022"><ele>257.3333333333333</ele><time>2026-04-10T17:47:46Z</time></trkpt><trkpt lat="41.688767708841006" lon="13.325154247302521"><ele>257.6666666666667</ele><time>2026-04-10T17:47:47Z</time></trkpt><trkpt lat="41.68875048827142" lon="13.325021340201806"><ele>258.0</ele><time>2026-04-10T17:47:48Z</time></trkpt><trkpt lat="41.68873208196362" lon="13.324893950272843"><ele>258.0</ele><time>2026-04-10T17:47:49Z</time></trkpt><trkpt lat="41.68871043107779" lon="13.324762147952843"><ele>258.0</ele><time>2026-04-10T17:47:50Z</time></trkpt><trkpt lat="41.688690414346105" lon="13.324624925975026"><ele>258.0</ele><time>2026-04-10T17:47:51Z</time></trkpt><trkpt lat="41.688674286053164" lon="13.32448461224476"><ele>258.0</ele><time>2026-04-10T17:47:52Z</time></trkpt><trkpt lat="41.6886621912269" lon="13.324339396294956"><ele>258.0</ele><time>2026-04-10T17:47:53Z</time></trkpt><trkpt lat="41.68863311322142" lon="13.324200125891386"><ele>258.5</ele><time>2026-04-10T17:47:54Z</time></trkpt><trkpt lat="41.688643111271894" lon="13.324038476900025"><ele>259.0</ele><time>2026-04-10T17:47:55Z</time></trkpt><trkpt lat="41.688633948867576" lon="13.323883473045523"><ele>259.5</ele><time>2026-04-10T17:47:56Z</time></trkpt><trkpt lat="41.68862398718071" lon="13.323725117717368"><ele>260.0</ele><time>2026-04-10T17:47:57Z</time></trkpt><trkpt lat="41.68861961822181" lon="13.323564080316316"><ele>260.75</ele><time>2026-04-10T17:47:58Z</time></trkpt><trkpt lat="41.6886184594909" lon="13.323396955238106"><ele>261.5</ele><time>2026-04-10T17:47:59Z</time></trkpt><trkpt lat="41.688620146412866" lon="13.32321815970245"><ele>262.25</ele><time>2026-04-10T17:48:00Z</time></trkpt><trkpt lat="41.68862309084737" lon="13.323018113974122"><ele>263.0</ele><time>2026-04-10T17:48:01Z</time></trkpt><trkpt lat="41.68862560759328" lon="13.322826104603275"><ele>263.25</ele><time>2026-04-10T17:48:02Z</time></trkpt><trkpt lat="41.688629192222116" lon="13.322632081178075"><ele>263.5</ele><time>2026-04-10T17:48:03Z</time></trkpt><trkpt lat="41.68863534653198" lon="13.32243541170842"><ele>263.75</ele><time>2026-04-10T17:48:04Z</time></trkpt><trkpt lat="41.68864244839309" lon="13.322237148434976"><ele>264.0</ele><time>2026-04-10T17:48:05Z</time></trkpt><trkpt lat="41.68865219541058" lon="13.32203596527591"><ele>264.6666666666667</ele><time>2026-04-10T17:48:06Z</time></trkpt><trkpt lat="41.688663289750934" lon="13.321832107491074"><ele>265.33333333333337</ele><time>2026-04-10T17:48:07Z</time></trkpt><trkpt lat="41.688673950621556" lon="13.321627303578234"><ele>266.0</ele><time>2026-04-10T17:48:08Z</time></trkpt><trkpt lat="41.68868492310638" lon="13.32141887165055"><ele>266.33333333333337</ele><time>2026-04-10T17:48:09Z</time></trkpt><trkpt lat="41.6886970152366" lon="13.321210556716352"><ele>266.6666666666667</ele><time>2026-04-10T17:48:10Z</time></trkpt><trkpt lat="41.688708404982265" lon="13.321001501735706"><ele>267.0</ele><time>2026-04-10T17:48:11Z</time></trkpt><trkpt lat="41.68872058186111" lon="13.320792517803111"><ele>267.0</ele><time>2026-04-10T17:48:12Z</time></trkpt><trkpt lat="41.68873342221529" lon="13.320583545630047"><ele>267.0</ele><time>2026-04-10T17:48:13Z</time></trkpt><trkpt lat="41.688746003682155" lon="13.32037518786238"><ele>267.0</ele><time>2026-04-10T17:48:14Z</time></trkpt><trkpt lat="41.68876233626094" lon="13.320168146987937"><ele>267.6666666666667</ele><time>2026-04-10T17:48:15Z</time></trkpt><trkpt lat="41.68878037715142" lon="13.319965274759713"><ele>268.33333333333337</ele><time>2026-04-10T17:48:16Z</time></trkpt><trkpt lat="41.688796607622955" lon="13.319765369048666"><ele>269.0</ele><time>2026-04-10T17:48:17Z</time></trkpt><trkpt lat="41.68881094065833" lon="13.319569345253093"><ele>269.75</ele><time>2026-04-10T17:48:18Z</time></trkpt><trkpt lat="41.68882066679547" lon="13.319375760065851"><ele>270.5</ele><time>2026-04-10T17:48:19Z</time></trkpt><trkpt lat="41.68882790939659" lon="13.319187800801355"><ele>271.25</ele><time>2026-04-10T17:48:20Z</time></trkpt><trkpt lat="41.68883500067569" lon="13.319002861616081"><ele>272.0</ele><time>2026-04-10T17:48:21Z</time></trkpt><trkpt lat="41.68884349441811" lon="13.318828020555605"><ele>272.8</ele><time>2026-04-10T17:48:22Z</time></trkpt><trkpt lat="41.688865785859676" lon="13.318669136810692"><ele>273.6</ele><time>2026-04-10T17:48:23Z</time></trkpt><trkpt lat="41.688901204023054" lon="13.318528635723164"><ele>274.40000000000003</ele><time>2026-04-10T17:48:24Z</time></trkpt><trkpt lat="41.68893834077231" lon="13.318395582319003"><ele>275.2</ele><time>2026-04-10T17:48:25Z</time></trkpt><trkpt lat="41.68895562450905" lon="13.31826045624331"><ele>276.0</ele><time>2026-04-10T17:48:26Z</time></trkpt><trkpt lat="41.68895091145204" lon="13.318124313952831"><ele>275.6</ele><time>2026-04-10T17:48:27Z</time></trkpt><trkpt lat="41.688921245249176" lon="13.317991994216175"><ele>275.20000000000005</ele><time>2026-04-10T17:48:28Z</time></trkpt><trkpt lat="41.68889094365379" lon="13.317853765891387"><ele>274.79999999999995</ele><time>2026-04-10T17:48:29Z</time></trkpt><trkpt lat="41.68886889772783" lon="13.317703268830517"><ele>274.4</ele><time>2026-04-10T17:48:30Z</time></trkpt><trkpt lat="41.68886188126895" lon="13.31754117794511"><ele>274.0</ele><time>2026-04-10T17:48:31Z</time></trkpt><trkpt lat="41.688862452233856" lon="13.317372484677637"><ele>273.75</ele><time>2026-04-10T17:48:32Z</time></trkpt><trkpt lat="41.68886692193845" lon="13.317201818559255"><ele>273.5</ele><time>2026-04-10T17:48:33Z</time></trkpt><trkpt lat="41.68886862079126" lon="13.317033854599611"><ele>273.25</ele><time>2026-04-10T17:48:34Z</time></trkpt><trkpt lat="41.688864508151774" lon="13.316869106982752"><ele>273.0</ele><time>2026-04-10T17:48:35Z</time></trkpt><trkpt lat="41.68885082011899" lon="13.316710324524692"><ele>273.0</ele><time>2026-04-10T17:48:36Z</time></trkpt><trkpt lat="41.68883450734137" lon="13.316548688509194"><ele>273.0</ele><time>2026-04-10T17:48:37Z</time></trkpt><trkpt lat="41.68882843381161" lon="13.316378617868676"><ele>273.0</ele><time>2026-04-10T17:48:38Z</time></trkpt><trkpt lat="41.688822179044294" lon="13.316202815697167"><ele>273.0</ele><time>2026-04-10T17:48:39Z</time></trkpt><trkpt lat="41.68881111036608" lon="13.316027535147482"><ele>273.5</ele><time>2026-04-10T17:48:40Z</time></trkpt><trkpt lat="41.68879565764161" lon="13.315850500583206"><ele>274.0</ele><time>2026-04-10T17:48:41Z</time></trkpt><trkpt lat="41.688775375965434" lon="13.315679536803016"><ele>274.5</ele><time>2026-04-10T17:48:42Z</time></trkpt><trkpt lat="41.688747188731554" lon="13.315510968460453"><ele>275.0</ele><time>2026-04-10T17:48:43Z</time></trkpt><trkpt lat="41.68872092131125" lon="13.315341120416097"><ele>275.5</ele><time>2026-04-10T17:48:44Z</time></trkpt><trkpt lat="41.68869612106281" lon="13.315166306608145"><ele>276.0</ele><time>2026-04-10T17:48:45Z</time></trkpt><trkpt lat="41.68867435256364" lon="13.314990096595606"><ele>276.5</ele><time>2026-04-10T17:48:46Z</time></trkpt><trkpt lat="41.68865381091084" lon="13.314814089279473"><ele>277.0</ele><time>2026-04-10T17:48:47Z</time></trkpt><trkpt lat="41.68863580429876" lon="13.314638984344347"><ele>277.5</ele><time>2026-04-10T17:48:48Z</time></trkpt><trkpt lat="41.68862287156706" lon="13.314464074804823"><ele>278.0</ele><time>2026-04-10T17:48:49Z</time></trkpt><trkpt lat="41.688616861265054" lon="13.314289835184725"><ele>278.5</ele><time>2026-04-10T17:48:50Z</time></trkpt><trkpt lat="41.68860943572826" lon="13.314111642727262"><ele>279.0</ele><time>2026-04-10T17:48:51Z</time></trkpt><trkpt lat="41.6886065762225" lon="13.313936145539827"><ele>278.5</ele><time>2026-04-10T17:48:52Z</time></trkpt><trkpt lat="41.6886067774092" lon="13.313763167699875"><ele>278.0</ele><time>2026-04-10T17:48:53Z</time></trkpt><trkpt lat="41.688615763149365" lon="13.31359000442101"><ele>277.5</ele><time>2026-04-10T17:48:54Z</time></trkpt><trkpt lat="41.68862526250239" lon="13.31341189295841"><ele>277.0</ele><time>2026-04-10T17:48:55Z</time></trkpt><trkpt lat="41.688638254851064" lon="13.313230091370267"><ele>276.5</ele><time>2026-04-10T17:48:56Z</time></trkpt><trkpt lat="41.68865251010834" lon="13.313043217706259"><ele>276.0</ele><time>2026-04-10T17:48:57Z</time></trkpt><trkpt lat="41.68866784246546" lon="13.312854488058903"><ele>275.5</ele><time>2026-04-10T17:48:58Z</time></trkpt><trkpt lat="41.68868412289896" lon="13.312661253012815"><ele>275.0</ele><time>2026-04-10T17:48:59Z</time></trkpt><trkpt lat="41.68870090788442" lon="13.31246681211583"><ele>275.0</ele><time>2026-04-10T17:49:00Z</time></trkpt><trkpt lat="41.68871719837593" lon="13.312268909359787"><ele>275.0</ele><time>2026-04-10T17:49:01Z</time></trkpt><trkpt lat="41.688730007859235" lon="13.312070061098103"><ele>275.0</ele><time>2026-04-10T17:49:02Z</time></trkpt><trkpt lat="41.68874347343046" lon="13.311872503705713"><ele>275.0</ele><time>2026-04-10T17:49:03Z</time></trkpt><trkpt lat="41.68876296936055" lon="13.31167873999811"><ele>274.25</ele><time>2026-04-10T17:49:04Z</time></trkpt><trkpt lat="41.68878866548383" lon="13.311486158771533"><ele>273.5</ele><time>2026-04-10T17:49:05Z</time></trkpt><trkpt lat="41.688820544247385" lon="13.311297705730091"><ele>272.75</ele><time>2026-04-10T17:49:06Z</time></trkpt><trkpt lat="41.68884947472688" lon="13.311109696267351"><ele>272.0</ele><time>2026-04-10T17:49:07Z</time></trkpt><trkpt lat="41.68887247756237" lon="13.310923188922825"><ele>271.0</ele><time>2026-04-10T17:49:08Z</time></trkpt><trkpt lat="41.68889865939336" lon="13.310744296417145"><ele>270.0</ele><time>2026-04-10T17:49:09Z</time></trkpt><trkpt lat="41.688920965373654" lon="13.310587502749433"><ele>269.0</ele><time>2026-04-10T17:49:10Z</time></trkpt><trkpt lat="41.68894099320677" lon="13.310454214622938"><ele>268.0</ele><time>2026-04-10T17:49:11Z</time></trkpt><trkpt lat="41.68895156490821" lon="13.31035922354799"><ele>267.0</ele><time>2026-04-10T17:49:12Z</time></trkpt><trkpt lat="41.688962459239605" lon="13.310248318609698"><ele>266.3333333333333</ele><time>2026-04-10T17:49:14Z</time></trkpt><trkpt lat="41.688967175942715" lon="13.310144434899888"><ele>265.6666666666667</ele><time>2026-04-10T17:49:17Z</time></trkpt><trkpt lat="41.68897775948574" lon="13.310021892493694"><ele>265.0</ele><time>2026-04-10T17:49:19Z</time></trkpt><trkpt lat="41.688985737633864" lon="13.30993634446257"><ele>264.33333333333337</ele><time>2026-04-10T17:49:20Z</time></trkpt><trkpt lat="41.68900219009" lon="13.309840404972899"><ele>263.6666666666667</ele><time>2026-04-10T17:49:21Z</time></trkpt><trkpt lat="41.68902096152356" lon="13.309744482552661"><ele>263.0</ele><time>2026-04-10T17:49:22Z</time></trkpt><trkpt lat="41.6890388364782" lon="13.30965131460935"><ele>262.1666666666667</ele><time>2026-04-10T17:49:23Z</time></trkpt><trkpt lat="41.68905554665247" lon="13.309565918578539"><ele>261.33333333333337</ele><time>2026-04-10T17:49:24Z</time></trkpt><trkpt lat="41.68907965987714" lon="13.309406994375111"><ele>260.5</ele><time>2026-04-10T17:49:26Z</time></trkpt><trkpt lat="41.689090013718676" lon="13.30932088110474"><ele>259.6666666666667</ele><time>2026-04-10T17:49:27Z</time></trkpt><trkpt lat="41.689106708138326" lon="13.309221107394068"><ele>258.8333333333333</ele><time>2026-04-10T17:49:28Z</time></trkpt><trkpt lat="41.68912704961708" lon="13.309104951929811"><ele>258.0</ele><time>2026-04-10T17:49:29Z</time></trkpt><trkpt lat="41.6891538043059" lon="13.308974593881375"><ele>257.0</ele><time>2026-04-10T17:49:30Z</time></trkpt><trkpt lat="41.68918027353386" lon="13.308840619841572"><ele>256.0</ele><time>2026-04-10T17:49:31Z</time></trkpt><trkpt lat="41.689214086704645" lon="13.308690425820396"><ele>255.0</ele><time>2026-04-10T17:49:32Z</time></trkpt><trkpt lat="41.68925690046255" lon="13.308524758951243"><ele>254.0</ele><time>2026-04-10T17:49:33Z</time></trkpt><trkpt lat="41.68930168628905" lon="13.308359787496151"><ele>254.0</ele><time>2026-04-10T17:49:34Z</time></trkpt><trkpt lat="41.68934922897618" lon="13.308187573483158"><ele>254.0</ele><time>2026-04-10T17:49:35Z</time></trkpt><trkpt lat="41.689409265185354" lon="13.308019284245258"><ele>254.0</ele><time>2026-04-10T17:49:36Z</time></trkpt><trkpt lat="41.68948591686604" lon="13.307862409835682"><ele>254.0</ele><time>2026-04-10T17:49:37Z</time></trkpt><trkpt lat="41.68957477685578" lon="13.30772317515613"><ele>254.5</ele><time>2026-04-10T17:49:38Z</time></trkpt><trkpt lat="41.68967132532093" lon="13.307597315173966"><ele>255.0</ele><time>2026-04-10T17:49:39Z</time></trkpt><trkpt lat="41.68976503832875" lon="13.307474607199074"><ele>255.5</ele><time>2026-04-10T17:49:40Z</time></trkpt><trkpt lat="41.689852331637965" lon="13.30735060784606"><ele>256.0</ele><time>2026-04-10T17:49:41Z</time></trkpt><trkpt lat="41.689931417644985" lon="13.307219824110968"><ele>256.0</ele><time>2026-04-10T17:49:42Z</time></trkpt><trkpt lat="41.68999433043628" lon="13.30707919323755"><ele>256.0</ele><time>2026-04-10T17:49:43Z</time></trkpt><trkpt lat="41.690041925961346" lon="13.306922439600958"><ele>256.0</ele><time>2026-04-10T17:49:44Z</time></trkpt><trkpt lat="41.6900923393367" lon="13.306765475036693"><ele>256.0</ele><time>2026-04-10T17:49:45Z</time></trkpt><trkpt lat="41.69015102289014" lon="13.30661313952418"><ele>256.0</ele><time>2026-04-10T17:49:46Z</time></trkpt><trkpt lat="41.690216398090804" lon="13.306454276761526"><ele>256.0</ele><time>2026-04-10T17:49:47Z</time></trkpt><trkpt lat="41.690278352285496" lon="13.306278335692545"><ele>256.0</ele><time>2026-04-10T17:49:48Z</time></trkpt><trkpt lat="41.69033531994575" lon="13.306094917855601"><ele>256.0</ele><time>2026-04-10T17:49:49Z</time></trkpt><trkpt lat="41.69038946230108" lon="13.30591189557629"><ele>258.5</ele><time>2026-04-10T17:49:50Z</time></trkpt><trkpt lat="41.69044968066597" lon="13.305729995795074"><ele>261.0</ele><time>2026-04-10T17:49:51Z</time></trkpt><trkpt lat="41.69051086965933" lon="13.30555148262173"><ele>263.5</ele><time>2026-04-10T17:49:52Z</time></trkpt><trkpt lat="41.69057328604871" lon="13.305377634027336"><ele>266.0</ele><time>2026-04-10T17:49:53Z</time></trkpt><trkpt lat="41.69063156777145" lon="13.305201164364986"><ele>266.0</ele><time>2026-04-10T17:49:54Z</time></trkpt><trkpt lat="41.690685598853555" lon="13.305028137443044"><ele>266.0</ele><time>2026-04-10T17:49:55Z</time></trkpt><trkpt lat="41.69073628074591" lon="13.304863798282138"><ele>266.0</ele><time>2026-04-10T17:49:56Z</time></trkpt><trkpt lat="41.69078265330745" lon="13.30470884084302"><ele>266.0</ele><time>2026-04-10T17:49:57Z</time></trkpt><trkpt lat="41.690829166941114" lon="13.304559033481649"><ele>264.25</ele><time>2026-04-10T17:49:58Z</time></trkpt><trkpt lat="41.69087383374443" lon="13.304409091173518"><ele>262.5</ele><time>2026-04-10T17:49:59Z</time></trkpt><trkpt lat="41.6909178113729" lon="13.304260680522434"><ele>260.75</ele><time>2026-04-10T17:50:00Z</time></trkpt><trkpt lat="41.69096187608981" lon="13.304108428137512"><ele>259.0</ele><time>2026-04-10T17:50:01Z</time></trkpt><trkpt lat="41.69100637762354" lon="13.303955830033903"><ele>258.75</ele><time>2026-04-10T17:50:02Z</time></trkpt><trkpt lat="41.691045861068815" lon="13.303808202929996"><ele>258.5</ele><time>2026-04-10T17:50:03Z</time></trkpt><trkpt lat="41.69107898208923" lon="13.303661750175511"><ele>258.25</ele><time>2026-04-10T17:50:04Z</time></trkpt><trkpt lat="41.691102246734744" lon="13.303511047730577"><ele>258.0</ele><time>2026-04-10T17:50:05Z</time></trkpt><trkpt lat="41.69111407130222" lon="13.303352855771077"><ele>258.0</ele><time>2026-04-10T17:50:06Z</time></trkpt><trkpt lat="41.691116524605604" lon="13.303193679142488"><ele>258.0</ele><time>2026-04-10T17:50:07Z</time></trkpt><trkpt lat="41.69111512313837" lon="13.303034370619718"><ele>258.0</ele><time>2026-04-10T17:50:08Z</time></trkpt><trkpt lat="41.691104736863544" lon="13.302873801109524"><ele>258.0</ele><time>2026-04-10T17:50:09Z</time></trkpt><trkpt lat="41.691090059693785" lon="13.302720973133363"><ele>258.0</ele><time>2026-04-10T17:50:10Z</time></trkpt><trkpt lat="41.69107532324975" lon="13.302567342086066"><ele>258.0</ele><time>2026-04-10T17:50:11Z</time></trkpt><trkpt lat="41.69105213369116" lon="13.302413738449117"><ele>258.0</ele><time>2026-04-10T17:50:12Z</time></trkpt><trkpt lat="41.69102115522361" lon="13.30226724208863"><ele>258.0</ele><time>2026-04-10T17:50:13Z</time></trkpt><trkpt lat="41.69098711757594" lon="13.302124958305601"><ele>258.0</ele><time>2026-04-10T17:50:14Z</time></trkpt><trkpt lat="41.690950041862294" lon="13.301981201937554"><ele>258.0</ele><time>2026-04-10T17:50:15Z</time></trkpt><trkpt lat="41.69092032884474" lon="13.301829487622687"><ele>258.0</ele><time>2026-04-10T17:50:16Z</time></trkpt><trkpt lat="41.69090428211903" lon="13.301667897861877"><ele>258.0</ele><time>2026-04-10T17:50:17Z</time></trkpt><trkpt lat="41.69090022763165" lon="13.301495625550466"><ele>257.5</ele><time>2026-04-10T17:50:18Z</time></trkpt><trkpt lat="41.69091098990158" lon="13.301317740587303"><ele>257.0</ele><time>2026-04-10T17:50:19Z</time></trkpt><trkpt lat="41.690925811044025" lon="13.30113010305524"><ele>256.5</ele><time>2026-04-10T17:50:20Z</time></trkpt><trkpt lat="41.69093702041891" lon="13.300931050225094"><ele>256.0</ele><time>2026-04-10T17:50:21Z</time></trkpt><trkpt lat="41.69094357862244" lon="13.300724033663743"><ele>256.0</ele><time>2026-04-10T17:50:22Z</time></trkpt><trkpt lat="41.690942711676264" lon="13.300526498974694"><ele>256.0</ele><time>2026-04-10T17:50:23Z</time></trkpt><trkpt lat="41.69094035144946" lon="13.300326355013418"><ele>256.0</ele><time>2026-04-10T17:50:24Z</time></trkpt><trkpt lat="41.690948919994376" lon="13.300127646471529"><ele>256.0</ele><time>2026-04-10T17:50:25Z</time></trkpt><trkpt lat="41.69096226189995" lon="13.299929446908855"><ele>256.0</ele><time>2026-04-10T17:50:26Z</time></trkpt><trkpt lat="41.69097735188932" lon="13.29973131499057"><ele>256.0</ele><time>2026-04-10T17:50:27Z</time></trkpt><trkpt lat="41.69098986826599" lon="13.299533756734332"><ele>256.0</ele><time>2026-04-10T17:50:28Z</time></trkpt><trkpt lat="41.69099473625812" lon="13.29933558245"><ele>256.0</ele><time>2026-04-10T17:50:29Z</time></trkpt><trkpt lat="41.69098974628115" lon="13.299137694763196"><ele>256.0</ele><time>2026-04-10T17:50:30Z</time></trkpt><trkpt lat="41.69097673160792" lon="13.29894023367158"><ele>256.0</ele><time>2026-04-10T17:50:31Z</time></trkpt><trkpt lat="41.69096288901781" lon="13.29873966058145"><ele>256.0</ele><time>2026-04-10T17:50:32Z</time></trkpt><trkpt lat="41.69095444274509" lon="13.298539145152342"><ele>256.0</ele><time>2026-04-10T17:50:33Z</time></trkpt><trkpt lat="41.69094868144838" lon="13.298341389044966"><ele>256.25</ele><time>2026-04-10T17:50:34Z</time></trkpt><trkpt lat="41.690944791726416" lon="13.298151685766788"><ele>256.5</ele><time>2026-04-10T17:50:35Z</time></trkpt><trkpt lat="41.69094230034817" lon="13.29796999504768"><ele>256.75</ele><time>2026-04-10T17:50:36Z</time></trkpt><trkpt lat="41.69093523924042" lon="13.297793028588437"><ele>257.0</ele><time>2026-04-10T17:50:37Z</time></trkpt><trkpt lat="41.69092635233001" lon="13.297618871049691"><ele>257.75</ele><time>2026-04-10T17:50:38Z</time></trkpt><trkpt lat="41.6909171179197" lon="13.297448346269439"><ele>258.5</ele><time>2026-04-10T17:50:39Z</time></trkpt><trkpt lat="41.69090968598971" lon="13.297278679482819"><ele>259.25</ele><time>2026-04-10T17:50:40Z</time></trkpt><trkpt lat="41.6909162493587" lon="13.297121475200901"><ele>260.0</ele><time>2026-04-10T17:50:41Z</time></trkpt><trkpt lat="41.690934123875174" lon="13.296974428289165"><ele>260.2</ele><time>2026-04-10T17:50:42Z</time></trkpt><trkpt lat="41.690964389145094" lon="13.296836552732211"><ele>260.4</ele><time>2026-04-10T17:50:43Z</time></trkpt><trkpt lat="41.691000654083005" lon="13.296708901120777"><ele>260.6</ele><time>2026-04-10T17:50:44Z</time></trkpt><trkpt lat="41.691043600220304" lon="13.296588360249244"><ele>260.8</ele><time>2026-04-10T17:50:45Z</time></trkpt><trkpt lat="41.691090181049816" lon="13.29647352844137"><ele>261.0</ele><time>2026-04-10T17:50:46Z</time></trkpt><trkpt lat="41.69113115218959" lon="13.29637917344919"><ele>261.5</ele><time>2026-04-10T17:50:47Z</time></trkpt><trkpt lat="41.6911680671534" lon="13.296297492889057"><ele>262.0</ele><time>2026-04-10T17:50:48Z</time></trkpt><trkpt lat="41.69121766255588" lon="13.296192021397038"><ele>262.5</ele><time>2026-04-10T17:50:50Z</time></trkpt><trkpt lat="41.6912478937957" lon="13.296117092384508"><ele>263.0</ele><time>2026-04-10T17:50:52Z</time></trkpt><trkpt lat="41.69128515198663" lon="13.296006597510436"><ele>263.5</ele><time>2026-04-10T17:50:54Z</time></trkpt><trkpt lat="41.691356344926454" lon="13.295870937980279"><ele>264.0</ele><time>2026-04-10T17:50:56Z</time></trkpt><trkpt lat="41.69140046995806" lon="13.29579256983146"><ele>264.0</ele><time>2026-04-10T17:50:57Z</time></trkpt><trkpt lat="41.691458051664384" lon="13.295692947900411"><ele>264.0</ele><time>2026-04-10T17:50:58Z</time></trkpt><trkpt lat="41.69151064978962" lon="13.295596113879132"><ele>264.0</ele><time>2026-04-10T17:50:59Z</time></trkpt><trkpt lat="41.69156553532086" lon="13.295493156320441"><ele>264.0</ele><time>2026-04-10T17:51:00Z</time></trkpt><trkpt lat="41.6916217434904" lon="13.295383573249406"><ele>264.0</ele><time>2026-04-10T17:51:01Z</time></trkpt><trkpt lat="41.6916777938512" lon="13.295279793969717"><ele>263.8333333333333</ele><time>2026-04-10T17:51:02Z</time></trkpt><trkpt lat="41.691730461108385" lon="13.295180186866222"><ele>263.6666666666667</ele><time>2026-04-10T17:51:03Z</time></trkpt><trkpt lat="41.69178443865446" lon="13.295085320154383"><ele>263.5</ele><time>2026-04-10T17:51:04Z</time></trkpt><trkpt lat="41.69183315074171" lon="13.294989590787774"><ele>263.33333333333337</ele><time>2026-04-10T17:51:05Z</time></trkpt><trkpt lat="41.69186937255" lon="13.294887031536073"><ele>263.1666666666667</ele><time>2026-04-10T17:51:06Z</time></trkpt><trkpt lat="41.69189472550549" lon="13.29477482719928"><ele>263.0</ele><time>2026-04-10T17:51:07Z</time></trkpt><trkpt lat="41.6919114563746" lon="13.294656858953282"><ele>262.6</ele><time>2026-04-10T17:51:08Z</time></trkpt><trkpt lat="41.69192014492992" lon="13.294533491821975"><ele>262.20000000000005</ele><time>2026-04-10T17:51:09Z</time></trkpt><trkpt lat="41.69192589830689" lon="13.29440694804027"><ele>261.8</ele><time>2026-04-10T17:51:10Z</time></trkpt><trkpt lat="41.69193090798479" lon="13.29427770642263"><ele>261.40000000000003</ele><time>2026-04-10T17:51:11Z</time></trkpt><trkpt lat="41.691934398739875" lon="13.294147829529816"><ele>261.0</ele><time>2026-04-10T17:51:12Z</time></trkpt><trkpt lat="41.69193672232329" lon="13.294021665689279"><ele>262.6666666666667</ele><time>2026-04-10T17:51:13Z</time></trkpt><trkpt lat="41.69194133860662" lon="13.293901685550543"><ele>264.3333333333333</ele><time>2026-04-10T17:51:14Z</time></trkpt><trkpt lat="41.691947964014915" lon="13.293786252532648"><ele>266.0</ele><time>2026-04-10T17:51:15Z</time></trkpt><trkpt lat="41.69195299602716" lon="13.293670428670774"><ele>267.66666666666663</ele><time>2026-04-10T17:51:16Z</time></trkpt><trkpt lat="41.69195573294101" lon="13.293555192053326"><ele>269.3333333333333</ele><time>2026-04-10T17:51:17Z</time></trkpt><trkpt lat="41.69195894642718" lon="13.29344297427444"><ele>271.0</ele><time>2026-04-10T17:51:18Z</time></trkpt><trkpt lat="41.691972613394235" lon="13.293334733709365"><ele>271.0</ele><time>2026-04-10T17:51:19Z</time></trkpt><trkpt lat="41.69199669569186" lon="13.293234344071365"><ele>271.0</ele><time>2026-04-10T17:51:20Z</time></trkpt><trkpt lat="41.6920274347807" lon="13.29314235958245"><ele>271.0</ele><time>2026-04-10T17:51:21Z</time></trkpt><trkpt lat="41.692061588045064" lon="13.293053686634359"><ele>271.0</ele><time>2026-04-10T17:51:22Z</time></trkpt><trkpt lat="41.692098583981455" lon="13.292969599811492"><ele>271.0</ele><time>2026-04-10T17:51:23Z</time></trkpt><trkpt lat="41.69213367283193" lon="13.292890226854118"><ele>271.0</ele><time>2026-04-10T17:51:24Z</time></trkpt><trkpt lat="41.69216828694966" lon="13.292805978393107"><ele>271.0</ele><time>2026-04-10T17:51:25Z</time></trkpt><trkpt lat="41.692206324122076" lon="13.292721703343732"><ele>271.0</ele><time>2026-04-10T17:51:26Z</time></trkpt><trkpt lat="41.69224917639169" lon="13.292637049999707"><ele>271.0</ele><time>2026-04-10T17:51:27Z</time></trkpt><trkpt lat="41.69229988733401" lon="13.292559365775572"><ele>271.0</ele><time>2026-04-10T17:51:28Z</time></trkpt><trkpt lat="41.69235309254964" lon="13.292487192819593"><ele>271.0</ele><time>2026-04-10T17:51:29Z</time></trkpt><trkpt lat="41.69240475184548" lon="13.292415260009692"><ele>271.0</ele><time>2026-04-10T17:51:30Z</time></trkpt><trkpt lat="41.69245278727969" lon="13.292343539090249"><ele>271.0</ele><time>2026-04-10T17:51:31Z</time></trkpt><trkpt lat="41.692498573692056" lon="13.292271500165809"><ele>271.0</ele><time>2026-04-10T17:51:32Z</time></trkpt><trkpt lat="41.692535941351835" lon="13.29219649223682"><ele>270.66666666666663</ele><time>2026-04-10T17:51:33Z</time></trkpt><trkpt lat="41.69256740721536" lon="13.292116764148702"><ele>270.3333333333333</ele><time>2026-04-10T17:51:34Z</time></trkpt><trkpt lat="41.69262284952334" lon="13.291955838084425"><ele>270.0</ele><time>2026-04-10T17:51:36Z</time></trkpt><trkpt lat="41.692643982836394" lon="13.291857772983454"><ele>269.6666666666667</ele><time>2026-04-10T17:51:37Z</time></trkpt><trkpt lat="41.69266337027374" lon="13.291762898557707"><ele>269.33333333333337</ele><time>2026-04-10T17:51:38Z</time></trkpt><trkpt lat="41.69268324326826" lon="13.291672412025699"><ele>269.0</ele><time>2026-04-10T17:51:39Z</time></trkpt><trkpt lat="41.69270256622638" lon="13.291575921314505"><ele>269.0</ele><time>2026-04-10T17:51:40Z</time></trkpt><trkpt lat="41.69272991215273" lon="13.29147875187467"><ele>269.0</ele><time>2026-04-10T17:51:41Z</time></trkpt><trkpt lat="41.692764501073974" lon="13.291377551407399"><ele>269.0</ele><time>2026-04-10T17:51:42Z</time></trkpt><trkpt lat="41.69280077626307" lon="13.291273040457842"><ele>269.0</ele><time>2026-04-10T17:51:43Z</time></trkpt><trkpt lat="41.69284098568481" lon="13.29116702445129"><ele>269.0</ele><time>2026-04-10T17:51:44Z</time></trkpt><trkpt lat="41.69288205372174" lon="13.291057073456377"><ele>269.0</ele><time>2026-04-10T17:51:45Z</time></trkpt><trkpt lat="41.69292424208733" lon="13.2909426994656"><ele>268.8</ele><time>2026-04-10T17:51:46Z</time></trkpt><trkpt lat="41.692969831191114" lon="13.290823211111158"><ele>268.59999999999997</ele><time>2026-04-10T17:51:47Z</time></trkpt><trkpt lat="41.69301429347821" lon="13.290706066469854"><ele>268.4</ele><time>2026-04-10T17:51:48Z</time></trkpt><trkpt lat="41.693064019239415" lon="13.290581763897176"><ele>268.2</ele><time>2026-04-10T17:51:49Z</time></trkpt><trkpt lat="41.69311798324471" lon="13.290453138868445"><ele>268.0</ele><time>2026-04-10T17:51:50Z</time></trkpt><trkpt lat="41.69316907957146" lon="13.290321722933067"><ele>268.0</ele><time>2026-04-10T17:51:51Z</time></trkpt><trkpt lat="41.69321314614807" lon="13.290188840004552"><ele>268.0</ele><time>2026-04-10T17:51:52Z</time></trkpt><trkpt lat="41.69324113465148" lon="13.290048953458385"><ele>268.0</ele><time>2026-04-10T17:51:53Z</time></trkpt><trkpt lat="41.69327398036607" lon="13.289913495603892"><ele>268.0</ele><time>2026-04-10T17:51:54Z</time></trkpt><trkpt lat="41.69325921499417" lon="13.289767813177475"><ele>268.0</ele><time>2026-04-10T17:51:55Z</time></trkpt><trkpt lat="41.69326718178741" lon="13.289628611609414"><ele>267.2</ele><time>2026-04-10T17:51:56Z</time></trkpt><trkpt lat="41.69327690426238" lon="13.289492592577213"><ele>266.4</ele><time>2026-04-10T17:51:57Z</time></trkpt><trkpt lat="41.69330021088582" lon="13.289362283823086"><ele>265.59999999999997</ele><time>2026-04-10T17:51:58Z</time></trkpt><trkpt lat="41.69332640460671" lon="13.289239861208207"><ele>264.8</ele><time>2026-04-10T17:51:59Z</time></trkpt><trkpt lat="41.69335000528107" lon="13.289114699396832"><ele>264.0</ele><time>2026-04-10T17:52:00Z</time></trkpt><trkpt lat="41.69336481069788" lon="13.288986683286645"><ele>263.59999999999997</ele><time>2026-04-10T17:52:01Z</time></trkpt><trkpt lat="41.69337756925647" lon="13.288861710554713"><ele>263.2</ele><time>2026-04-10T17:52:02Z</time></trkpt><trkpt lat="41.69338982033153" lon="13.288736994307117"><ele>262.79999999999995</ele><time>2026-04-10T17:52:03Z</time></trkpt><trkpt lat="41.69340128824106" lon="13.28861196894313"><ele>262.4</ele><time>2026-04-10T17:52:04Z</time></trkpt><trkpt lat="41.693407552206565" lon="13.288484830231889"><ele>262.0</ele><time>2026-04-10T17:52:05Z</time></trkpt><trkpt lat="41.693413318196505" lon="13.28835640521909"><ele>262.0</ele><time>2026-04-10T17:52:06Z</time></trkpt><trkpt lat="41.69342226053264" lon="13.288225463956508"><ele>262.0</ele><time>2026-04-10T17:52:07Z</time></trkpt><trkpt lat="41.693434349708994" lon="13.288088929675697"><ele>262.0</ele><time>2026-04-10T17:52:08Z</time></trkpt><trkpt lat="41.69345402054825" lon="13.287951673751621"><ele>262.0</ele><time>2026-04-10T17:52:09Z</time></trkpt><trkpt lat="41.69347870258014" lon="13.287817803689437"><ele>262.0</ele><time>2026-04-10T17:52:10Z</time></trkpt><trkpt lat="41.69350719817439" lon="13.287688014102413"><ele>262.0</ele><time>2026-04-10T17:52:11Z</time></trkpt><trkpt lat="41.69353229875727" lon="13.287560344733974"><ele>262.0</ele><time>2026-04-10T17:52:12Z</time></trkpt><trkpt lat="41.693560819182416" lon="13.287438678783301"><ele>262.0</ele><time>2026-04-10T17:52:13Z</time></trkpt><trkpt lat="41.693591026233165" lon="13.287328361892758"><ele>262.0</ele><time>2026-04-10T17:52:14Z</time></trkpt><trkpt lat="41.69361227680956" lon="13.287238759731167"><ele>262.0</ele><time>2026-04-10T17:52:15Z</time></trkpt><trkpt lat="41.69363348531548" lon="13.287116442390735"><ele>262.0</ele><time>2026-04-10T17:52:17Z</time></trkpt><trkpt lat="41.69365020656279" lon="13.287020990578695"><ele>262.8333333333333</ele><time>2026-04-10T17:52:19Z</time></trkpt><trkpt lat="41.693661519172345" lon="13.286889000479334"><ele>263.66666666666663</ele><time>2026-04-10T17:52:21Z</time></trkpt><trkpt lat="41.69366508181393" lon="13.28679582212657"><ele>264.5</ele><time>2026-04-10T17:52:22Z</time></trkpt><trkpt lat="41.69366968630683" lon="13.286687307308354"><ele>265.3333333333333</ele><time>2026-04-10T17:52:23Z</time></trkpt><trkpt lat="41.693678001602876" lon="13.286566430844307"><ele>266.1666666666667</ele><time>2026-04-10T17:52:24Z</time></trkpt><trkpt lat="41.693688772722986" lon="13.286450200993626"><ele>267.0</ele><time>2026-04-10T17:52:25Z</time></trkpt><trkpt lat="41.6937003941935" lon="13.286331899793415"><ele>267.0</ele><time>2026-04-10T17:52:26Z</time></trkpt><trkpt lat="41.69372868935618" lon="13.286213320522016"><ele>267.0</ele><time>2026-04-10T17:52:27Z</time></trkpt><trkpt lat="41.693758240959475" lon="13.2860869397088"><ele>267.0</ele><time>2026-04-10T17:52:28Z</time></trkpt><trkpt lat="41.69377757453266" lon="13.285951232009397"><ele>267.0</ele><time>2026-04-10T17:52:29Z</time></trkpt><trkpt lat="41.69378729937785" lon="13.285811453570322"><ele>267.0</ele><time>2026-04-10T17:52:30Z</time></trkpt><trkpt lat="41.693786476695294" lon="13.285667723712013"><ele>266.8</ele><time>2026-04-10T17:52:31Z</time></trkpt><trkpt lat="41.69377337497368" lon="13.285524526687675"><ele>266.6</ele><time>2026-04-10T17:52:32Z</time></trkpt><trkpt lat="41.693755244329544" lon="13.285386226335575"><ele>266.40000000000003</ele><time>2026-04-10T17:52:33Z</time></trkpt><trkpt lat="41.693736304260696" lon="13.285256993750187"><ele>266.2</ele><time>2026-04-10T17:52:34Z</time></trkpt><trkpt lat="41.693730351722195" lon="13.28512948410415"><ele>266.0</ele><time>2026-04-10T17:52:35Z</time></trkpt><trkpt lat="41.693748193114295" lon="13.285002634034914"><ele>266.0</ele><time>2026-04-10T17:52:36Z</time></trkpt><trkpt lat="41.69378595731568" lon="13.284877710389186"><ele>266.0</ele><time>2026-04-10T17:52:37Z</time></trkpt><trkpt lat="41.69383012901317" lon="13.284747451601977"><ele>266.0</ele><time>2026-04-10T17:52:38Z</time></trkpt><trkpt lat="41.6938793255089" lon="13.28461932201699"><ele>266.0</ele><time>2026-04-10T17:52:39Z</time></trkpt><trkpt lat="41.69393514489817" lon="13.28448826195825"><ele>266.0</ele><time>2026-04-10T17:52:40Z</time></trkpt><trkpt lat="41.693991465682856" lon="13.284354544348373"><ele>266.75</ele><time>2026-04-10T17:52:41Z</time></trkpt><trkpt lat="41.69404518224087" lon="13.284217239541164"><ele>267.5</ele><time>2026-04-10T17:52:42Z</time></trkpt><trkpt lat="41.69410007013851" lon="13.284084391858734"><ele>268.25</ele><time>2026-04-10T17:52:43Z</time></trkpt><trkpt lat="41.69414860785857" lon="13.283945886694472"><ele>269.0</ele><time>2026-04-10T17:52:44Z</time></trkpt><trkpt lat="41.694190716899136" lon="13.283805014961569"><ele>269.5</ele><time>2026-04-10T17:52:45Z</time></trkpt><trkpt lat="41.6942371112709" lon="13.283665534474926"><ele>270.0</ele><time>2026-04-10T17:52:46Z</time></trkpt><trkpt lat="41.69427863851118" lon="13.283522742912044"><ele>270.5</ele><time>2026-04-10T17:52:47Z</time></trkpt><trkpt lat="41.69431436975" lon="13.283375363056313"><ele>271.0</ele><time>2026-04-10T17:52:48Z</time></trkpt><trkpt lat="41.694341968777586" lon="13.283224325713102"><ele>271.0</ele><time>2026-04-10T17:52:49Z</time></trkpt><trkpt lat="41.69436285862743" lon="13.283070723384691"><ele>271.0</ele><time>2026-04-10T17:52:50Z</time></trkpt><trkpt lat="41.69437213195322" lon="13.282915337955536"><ele>271.0</ele><time>2026-04-10T17:52:51Z</time></trkpt><trkpt lat="41.69437702374613" lon="13.282758930211413"><ele>271.0</ele><time>2026-04-10T17:52:52Z</time></trkpt><trkpt lat="41.694382739397824" lon="13.282600787108946"><ele>271.0</ele><time>2026-04-10T17:52:53Z</time></trkpt><trkpt lat="41.694388850635065" lon="13.282448538355071"><ele>271.0</ele><time>2026-04-10T17:52:54Z</time></trkpt><trkpt lat="41.69439754342854" lon="13.282291664907872"><ele>271.0</ele><time>2026-04-10T17:52:55Z</time></trkpt><trkpt lat="41.69440485404072" lon="13.282131055975595"><ele>271.0</ele><time>2026-04-10T17:52:56Z</time></trkpt><trkpt lat="41.69441513184835" lon="13.28196645739916"><ele>271.5</ele><time>2026-04-10T17:52:57Z</time></trkpt><trkpt lat="41.69443100653302" lon="13.28178825717343"><ele>272.0</ele><time>2026-04-10T17:52:58Z</time></trkpt><trkpt lat="41.69444523904281" lon="13.281622799197534"><ele>272.5</ele><time>2026-04-10T17:52:59Z</time></trkpt><trkpt lat="41.69446891853387" lon="13.281450581345926"><ele>273.0</ele><time>2026-04-10T17:53:00Z</time></trkpt><trkpt lat="41.694487508164414" lon="13.281270712699433"><ele>273.0</ele><time>2026-04-10T17:53:01Z</time></trkpt><trkpt lat="41.694508450760175" lon="13.281099758126109"><ele>273.0</ele><time>2026-04-10T17:53:02Z</time></trkpt><trkpt lat="41.69452748606529" lon="13.280930694158117"><ele>273.0</ele><time>2026-04-10T17:53:03Z</time></trkpt><trkpt lat="41.694549128035234" lon="13.280750183627315"><ele>273.0</ele><time>2026-04-10T17:53:04Z</time></trkpt><trkpt lat="41.694572958000485" lon="13.280580526546753"><ele>272.75</ele><time>2026-04-10T17:53:05Z</time></trkpt><trkpt lat="41.694592433830785" lon="13.280418797118896"><ele>272.5</ele><time>2026-04-10T17:53:06Z</time></trkpt><trkpt lat="41.694607823462945" lon="13.280251355157985"><ele>272.25</ele><time>2026-04-10T17:53:07Z</time></trkpt><trkpt lat="41.6946246631272" lon="13.280090626444197"><ele>272.0</ele><time>2026-04-10T17:53:08Z</time></trkpt><trkpt lat="41.69464806841122" lon="13.27993230802936"><ele>272.0</ele><time>2026-04-10T17:53:09Z</time></trkpt><trkpt lat="41.69466507338765" lon="13.279775133001447"><ele>272.0</ele><time>2026-04-10T17:53:10Z</time></trkpt><trkpt lat="41.6946812265606" lon="13.279616412153707"><ele>272.0</ele><time>2026-04-10T17:53:11Z</time></trkpt><trkpt lat="41.6946930966117" lon="13.279463440348906"><ele>272.0</ele><time>2026-04-10T17:53:12Z</time></trkpt><trkpt lat="41.69470459012546" lon="13.279314517408897"><ele>271.8</ele><time>2026-04-10T17:53:13Z</time></trkpt><trkpt lat="41.694718012933706" lon="13.279170935829377"><ele>271.6</ele><time>2026-04-10T17:53:14Z</time></trkpt><trkpt lat="41.69473172447772" lon="13.279030914066407"><ele>271.40000000000003</ele><time>2026-04-10T17:53:15Z</time></trkpt><trkpt lat="41.69474863682621" lon="13.278888801065186"><ele>271.2</ele><time>2026-04-10T17:53:16Z</time></trkpt><trkpt lat="41.69476468947429" lon="13.278754327912138"><ele>271.0</ele><time>2026-04-10T17:53:17Z</time></trkpt><trkpt lat="41.69476848393657" lon="13.278607480652349"><ele>270.8</ele><time>2026-04-10T17:53:18Z</time></trkpt><trkpt lat="41.694781962843756" lon="13.278460386121102"><ele>270.6</ele><time>2026-04-10T17:53:19Z</time></trkpt><trkpt lat="41.69479624454918" lon="13.2783202315055"><ele>270.4</ele><time>2026-04-10T17:53:20Z</time></trkpt><trkpt lat="41.694829392624214" lon="13.278177702305985"><ele>270.2</ele><time>2026-04-10T17:53:21Z</time></trkpt><trkpt lat="41.69486792827787" lon="13.278039433817655"><ele>270.0</ele><time>2026-04-10T17:53:22Z</time></trkpt><trkpt lat="41.694913130612264" lon="13.277908254678517"><ele>269.8</ele><time>2026-04-10T17:53:23Z</time></trkpt><trkpt lat="41.694956248750586" lon="13.277774677749392"><ele>269.6</ele><time>2026-04-10T17:53:24Z</time></trkpt><trkpt lat="41.69500137946064" lon="13.277642333313512"><ele>269.4</ele><time>2026-04-10T17:53:25Z</time></trkpt><trkpt lat="41.69504793723426" lon="13.27751828556061"><ele>269.2</ele><time>2026-04-10T17:53:26Z</time></trkpt><trkpt lat="41.695102814280006" lon="13.277400966791285"><ele>269.0</ele><time>2026-04-10T17:53:27Z</time></trkpt><trkpt lat="41.695165078881764" lon="13.277288309939893"><ele>268.8</ele><time>2026-04-10T17:53:28Z</time></trkpt><trkpt lat="41.69522822839124" lon="13.277183887842448"><ele>268.59999999999997</ele><time>2026-04-10T17:53:29Z</time></trkpt><trkpt lat="41.69529391452132" lon="13.277083882972342"><ele>268.4</ele><time>2026-04-10T17:53:30Z</time></trkpt><trkpt lat="41.6953653577007" lon="13.276994313597282"><ele>268.2</ele><time>2026-04-10T17:53:31Z</time></trkpt><trkpt lat="41.69544068533943" lon="13.27691675426815"><ele>268.0</ele><time>2026-04-10T17:53:32Z</time></trkpt><trkpt lat="41.69552871859521" lon="13.276875397732663"><ele>268.0</ele><time>2026-04-10T17:53:33Z</time></trkpt><trkpt lat="41.695605557704155" lon="13.276808275521594"><ele>268.0</ele><time>2026-04-10T17:53:34Z</time></trkpt><trkpt lat="41.69569442288304" lon="13.276771891593617"><ele>268.0</ele><time>2026-04-10T17:53:35Z</time></trkpt><trkpt lat="41.69577433109853" lon="13.276732743001338"><ele>268.0</ele><time>2026-04-10T17:53:36Z</time></trkpt><trkpt lat="41.69584406780196" lon="13.276681471877032"><ele>268.0</ele><time>2026-04-10T17:53:37Z</time></trkpt><trkpt lat="41.69589111170022" lon="13.276622091208555"><ele>268.0</ele><time>2026-04-10T17:53:38Z</time></trkpt><trkpt lat="41.69593295208597" lon="13.27649929088692"><ele>268.0</ele><time>2026-04-10T17:53:40Z</time></trkpt><trkpt lat="41.69598584159562" lon="13.276433099788846"><ele>268.0</ele><time>2026-04-10T17:53:43Z</time></trkpt><trkpt lat="41.69606401141628" lon="13.276512544655693"><ele>268.0</ele><time>2026-04-10T17:53:44Z</time></trkpt><trkpt lat="41.696143796064476" lon="13.276566829776199"><ele>268.0</ele><time>2026-04-10T17:53:46Z</time></trkpt><trkpt lat="41.696233883139975" lon="13.276628166261732"><ele>268.0</ele><time>2026-04-10T17:53:48Z</time></trkpt><trkpt lat="41.696327929519846" lon="13.276693027418762"><ele>269.16666666666663</ele><time>2026-04-10T17:53:50Z</time></trkpt><trkpt lat="41.696414170714206" lon="13.276752505564906"><ele>270.3333333333333</ele><time>2026-04-10T17:53:52Z</time></trkpt><trkpt lat="41.69649658171695" lon="13.276807713063377"><ele>271.5</ele><time>2026-04-10T17:53:54Z</time></trkpt><trkpt lat="41.69657105538182" lon="13.276857144167238"><ele>272.6666666666667</ele><time>2026-04-10T17:53:56Z</time></trkpt><trkpt lat="41.69663556825093" lon="13.276915124753568"><ele>273.83333333333337</ele><time>2026-04-10T17:53:58Z</time></trkpt><trkpt lat="41.696691285066535" lon="13.27699283794946"><ele>275.0</ele><time>2026-04-10T17:54:00Z</time></trkpt><trkpt lat="41.696732075932196" lon="13.277071177497627"><ele>275.0</ele><time>2026-04-10T17:54:02Z</time></trkpt><trkpt lat="41.696768561889606" lon="13.277145497321323"><ele>275.0</ele><time>2026-04-10T17:54:05Z</time></trkpt><trkpt lat="41.696800050339476" lon="13.277231207823052"><ele>275.0</ele><time>2026-04-10T17:54:08Z</time></trkpt><trkpt lat="41.69690977798455" lon="13.277335528947994"><ele>275.0</ele><time>2026-04-10T17:54:13Z</time></trkpt><trkpt lat="41.69681810450668" lon="13.277371542506444"><ele>275.0</ele><time>2026-04-10T17:54:15Z</time></trkpt><trkpt lat="41.696954724708654" lon="13.277374216699233"><ele>276.6666666666667</ele><time>2026-04-10T17:54:16Z</time></trkpt><trkpt lat="41.69702032214751" lon="13.277433624135117"><ele>278.33333333333337</ele><time>2026-04-10T17:54:20Z</time></trkpt><trkpt lat="41.697087662234715" lon="13.277498309548102"><ele>280.0</ele><time>2026-04-10T17:54:24Z</time></trkpt><trkpt lat="41.697161131267485" lon="13.277544694650205"><ele>281.6666666666667</ele><time>2026-04-10T17:54:28Z</time></trkpt><trkpt lat="41.69709578776577" lon="13.277506114756365"><ele>283.3333333333333</ele><time>2026-04-10T17:56:05Z</time></trkpt><trkpt lat="41.697039219474554" lon="13.277451776474237"><ele>285.0</ele><time>2026-04-10T17:56:10Z</time></trkpt><trkpt lat="41.69698237580931" lon="13.277398743724284"><ele>285.0</ele><time>2026-04-10T17:56:15Z</time></trkpt><trkpt lat="41.69692630600483" lon="13.277349008795468"><ele>285.0</ele><time>2026-04-10T17:56:21Z</time></trkpt><trkpt lat="41.69685603207303" lon="13.277301274265579"><ele>285.0</ele><time>2026-04-10T17:56:28Z</time></trkpt><trkpt lat="41.69677770288373" lon="13.277266338181905"><ele>285.0</ele><time>2026-04-10T17:56:31Z</time></trkpt><trkpt lat="41.696713549700576" lon="13.277236185802584"><ele>285.0</ele><time>2026-04-10T17:56:33Z</time></trkpt><trkpt lat="41.69671830874296" lon="13.277004508350407"><ele>283.3333333333333</ele><time>2026-04-10T17:56:34Z</time></trkpt><trkpt lat="41.69665837515497" lon="13.27693332311834"><ele>281.6666666666667</ele><time>2026-04-10T17:56:36Z</time></trkpt><trkpt lat="41.696612030288186" lon="13.276846301235851"><ele>280.0</ele><time>2026-04-10T17:56:38Z</time></trkpt><trkpt lat="41.696531900769116" lon="13.276788924602776"><ele>278.33333333333337</ele><time>2026-04-10T17:56:40Z</time></trkpt><trkpt lat="41.69644500844504" lon="13.276760084159124"><ele>276.6666666666667</ele><time>2026-04-10T17:56:42Z</time></trkpt><trkpt lat="41.69637335131021" lon="13.276725919340548"><ele>275.0</ele><time>2026-04-10T17:56:44Z</time></trkpt><trkpt lat="41.69630267564521" lon="13.276675609553205"><ele>275.0</ele><time>2026-04-10T17:56:46Z</time></trkpt><trkpt lat="41.69623375109866" lon="13.276628074048991"><ele>275.0</ele><time>2026-04-10T17:56:48Z</time></trkpt><trkpt lat="41.69615799429718" lon="13.276575826599533"><ele>275.0</ele><time>2026-04-10T17:56:50Z</time></trkpt><trkpt lat="41.69608689764913" lon="13.276528115244924"><ele>275.0</ele><time>2026-04-10T17:56:52Z</time></trkpt><trkpt lat="41.69602726256147" lon="13.276487539991782"><ele>275.0</ele><time>2026-04-10T17:56:54Z</time></trkpt><trkpt lat="41.69595523782281" lon="13.276474047718423"><ele>275.0</ele><time>2026-04-10T17:56:59Z</time></trkpt><trkpt lat="41.695871398971036" lon="13.276406436963756"><ele>271.5</ele><time>2026-04-10T17:57:06Z</time></trkpt><trkpt lat="41.69591040963973" lon="13.276793467841225"><ele>268.0</ele><time>2026-04-10T17:57:08Z</time></trkpt><trkpt lat="41.69552169368944" lon="13.276838753210322"><ele>268.0</ele><time>2026-04-10T17:57:09Z</time></trkpt><trkpt lat="41.695450546053635" lon="13.276889195329407"><ele>268.0</ele><time>2026-04-10T17:57:10Z</time></trkpt><trkpt lat="41.69538374088037" lon="13.276950784822922"><ele>268.0</ele><time>2026-04-10T17:57:11Z</time></trkpt><trkpt lat="41.69531993600012" lon="13.277023490449118"><ele>268.0</ele><time>2026-04-10T17:57:12Z</time></trkpt><trkpt lat="41.695261681281956" lon="13.277102727316109"><ele>268.0</ele><time>2026-04-10T17:57:13Z</time></trkpt><trkpt lat="41.695205813706174" lon="13.27718518548848"><ele>268.0</ele><time>2026-04-10T17:57:14Z</time></trkpt><trkpt lat="41.695142687639134" lon="13.27727161839896"><ele>268.2</ele><time>2026-04-10T17:57:15Z</time></trkpt><trkpt lat="41.69509207236928" lon="13.277363394473712"><ele>268.4</ele><time>2026-04-10T17:57:16Z</time></trkpt><trkpt lat="41.69504382999325" lon="13.277475382238494"><ele>268.59999999999997</ele><time>2026-04-10T17:57:17Z</time></trkpt><trkpt lat="41.69499832928105" lon="13.277586278853706"><ele>268.8</ele><time>2026-04-10T17:57:18Z</time></trkpt><trkpt lat="41.69495928632861" lon="13.277716311406014"><ele>269.0</ele><time>2026-04-10T17:57:19Z</time></trkpt><trkpt lat="41.694896531672754" lon="13.277838453548844"><ele>269.0</ele><time>2026-04-10T17:57:20Z</time></trkpt><trkpt lat="41.69485140172472" lon="13.277978660884374"><ele>269.0</ele><time>2026-04-10T17:57:21Z</time></trkpt><trkpt lat="41.69480943425808" lon="13.27811713676672"><ele>269.0</ele><time>2026-04-10T17:57:22Z</time></trkpt><trkpt lat="41.69477009089206" lon="13.27825913404705"><ele>269.0</ele><time>2026-04-10T17:57:23Z</time></trkpt><trkpt lat="41.69474322436562" lon="13.278410664461095"><ele>269.25</ele><time>2026-04-10T17:57:24Z</time></trkpt><trkpt lat="41.69473006332442" lon="13.278564922099097"><ele>269.5</ele><time>2026-04-10T17:57:25Z</time></trkpt><trkpt lat="41.694717990455885" lon="13.278717308519786"><ele>269.75</ele><time>2026-04-10T17:57:26Z</time></trkpt><trkpt lat="41.69470507572356" lon="13.278868489185157"><ele>270.0</ele><time>2026-04-10T17:57:27Z</time></trkpt><trkpt lat="41.69469196423895" lon="13.279022326780485"><ele>270.25</ele><time>2026-04-10T17:57:28Z</time></trkpt><trkpt lat="41.69468083832423" lon="13.279175570525451"><ele>270.5</ele><time>2026-04-10T17:57:29Z</time></trkpt><trkpt lat="41.69466981372693" lon="13.279327418759777"><ele>270.75</ele><time>2026-04-10T17:57:30Z</time></trkpt><trkpt lat="41.69465859971268" lon="13.279481875947438"><ele>271.0</ele><time>2026-04-10T17:57:31Z</time></trkpt><trkpt lat="41.69464764031555" lon="13.279632827385917"><ele>271.25</ele><time>2026-04-10T17:57:32Z</time></trkpt><trkpt lat="41.694633452846226" lon="13.279782307092526"><ele>271.5</ele><time>2026-04-10T17:57:33Z</time></trkpt><trkpt lat="41.69461746066375" lon="13.2799315973829"><ele>271.75</ele><time>2026-04-10T17:57:34Z</time></trkpt><trkpt lat="41.69460045271809" lon="13.280081633540764"><ele>272.0</ele><time>2026-04-10T17:57:35Z</time></trkpt><trkpt lat="41.69458228567023" lon="13.280231781915305"><ele>272.0</ele><time>2026-04-10T17:57:36Z</time></trkpt><trkpt lat="41.6945640011986" lon="13.280382900808197"><ele>272.0</ele><time>2026-04-10T17:57:37Z</time></trkpt><trkpt lat="41.694544843931325" lon="13.280533925461478"><ele>272.0</ele><time>2026-04-10T17:57:38Z</time></trkpt><trkpt lat="41.69452504152037" lon="13.28068470479699"><ele>272.0</ele><time>2026-04-10T17:57:39Z</time></trkpt><trkpt lat="41.69450493307087" lon="13.280834849195463"><ele>272.25</ele><time>2026-04-10T17:57:40Z</time></trkpt><trkpt lat="41.69448377833793" lon="13.280985605271821"><ele>272.5</ele><time>2026-04-10T17:57:41Z</time></trkpt><trkpt lat="41.69447835099248" lon="13.281139381160463"><ele>272.75</ele><time>2026-04-10T17:57:42Z</time></trkpt><trkpt lat="41.69446017897541" lon="13.281287977079636"><ele>273.0</ele><time>2026-04-10T17:57:43Z</time></trkpt><trkpt lat="41.69444399184057" lon="13.281436595063797"><ele>272.2</ele><time>2026-04-10T17:57:44Z</time></trkpt><trkpt lat="41.69441150799671" lon="13.281580588500592"><ele>271.4</ele><time>2026-04-10T17:57:45Z</time></trkpt><trkpt lat="41.69439714483388" lon="13.281726220192404"><ele>270.59999999999997</ele><time>2026-04-10T17:57:46Z</time></trkpt><trkpt lat="41.69438533947763" lon="13.28186977344177"><ele>269.8</ele><time>2026-04-10T17:57:47Z</time></trkpt><trkpt lat="41.694376202283564" lon="13.282008044830029"><ele>269.0</ele><time>2026-04-10T17:57:48Z</time></trkpt><trkpt lat="41.69436757485483" lon="13.282137826836976"><ele>269.0</ele><time>2026-04-10T17:57:49Z</time></trkpt><trkpt lat="41.694360544546214" lon="13.282259781503223"><ele>269.0</ele><time>2026-04-10T17:57:50Z</time></trkpt><trkpt lat="41.69435469501843" lon="13.282378192663403"><ele>269.0</ele><time>2026-04-10T17:57:51Z</time></trkpt><trkpt lat="41.69434967398458" lon="13.282491985952815"><ele>269.0</ele><time>2026-04-10T17:57:52Z</time></trkpt><trkpt lat="41.694345290403355" lon="13.282602185024492"><ele>269.0</ele><time>2026-04-10T17:57:53Z</time></trkpt><trkpt lat="41.69434099542481" lon="13.28271015680463"><ele>269.0</ele><time>2026-04-10T17:57:54Z</time></trkpt><trkpt lat="41.694336695416766" lon="13.282818254969865"><ele>269.33333333333337</ele><time>2026-04-10T17:57:55Z</time></trkpt><trkpt lat="41.69433155852382" lon="13.282922463949095"><ele>269.6666666666667</ele><time>2026-04-10T17:57:56Z</time></trkpt><trkpt lat="41.69432218794135" lon="13.28302587546372"><ele>270.0</ele><time>2026-04-10T17:57:57Z</time></trkpt><trkpt lat="41.69430995539764" lon="13.283132740060106"><ele>270.3333333333333</ele><time>2026-04-10T17:57:58Z</time></trkpt><trkpt lat="41.69429362612597" lon="13.283237905015348"><ele>270.66666666666663</ele><time>2026-04-10T17:57:59Z</time></trkpt><trkpt lat="41.69427148531701" lon="13.28334710780471"><ele>271.0</ele><time>2026-04-10T17:58:00Z</time></trkpt><trkpt lat="41.69424623093983" lon="13.28345617062769"><ele>271.0</ele><time>2026-04-10T17:58:01Z</time></trkpt><trkpt lat="41.6942170195579" lon="13.283567534370142"><ele>271.0</ele><time>2026-04-10T17:58:02Z</time></trkpt><trkpt lat="41.69418634149995" lon="13.283681278558612"><ele>271.0</ele><time>2026-04-10T17:58:03Z</time></trkpt><trkpt lat="41.694155605614334" lon="13.283795236986267"><ele>271.0</ele><time>2026-04-10T17:58:04Z</time></trkpt><trkpt lat="41.694136676025195" lon="13.283919021418217"><ele>271.0</ele><time>2026-04-10T17:58:05Z</time></trkpt><trkpt lat="41.69409770187705" lon="13.284033809602843"><ele>270.66666666666663</ele><time>2026-04-10T17:58:06Z</time></trkpt><trkpt lat="41.694055191368186" lon="13.284142538463469"><ele>270.3333333333333</ele><time>2026-04-10T17:58:07Z</time></trkpt><trkpt lat="41.694012092860106" lon="13.284247192323305"><ele>270.0</ele><time>2026-04-10T17:58:08Z</time></trkpt><trkpt lat="41.69396927866125" lon="13.284347861634432"><ele>269.6666666666667</ele><time>2026-04-10T17:58:09Z</time></trkpt><trkpt lat="41.69392887073186" lon="13.284445674295252"><ele>269.33333333333337</ele><time>2026-04-10T17:58:10Z</time></trkpt><trkpt lat="41.69389056043223" lon="13.284542153735718"><ele>269.0</ele><time>2026-04-10T17:58:11Z</time></trkpt><trkpt lat="41.693852610191016" lon="13.284636718752136"><ele>269.0</ele><time>2026-04-10T17:58:12Z</time></trkpt><trkpt lat="41.69381445265622" lon="13.284728180750221"><ele>269.0</ele><time>2026-04-10T17:58:13Z</time></trkpt><trkpt lat="41.693776850153384" lon="13.284818941221385"><ele>269.0</ele><time>2026-04-10T17:58:14Z</time></trkpt><trkpt lat="41.69373950685413" lon="13.284911436381183"><ele>269.0</ele><time>2026-04-10T17:58:15Z</time></trkpt><trkpt lat="41.69371339163043" lon="13.285012213877913"><ele>269.0</ele><time>2026-04-10T17:58:16Z</time></trkpt><trkpt lat="41.69368447980653" lon="13.285119536418229"><ele>269.0</ele><time>2026-04-10T17:58:17Z</time></trkpt><trkpt lat="41.69369048535341" lon="13.28523754052827"><ele>268.6666666666667</ele><time>2026-04-10T17:58:18Z</time></trkpt><trkpt lat="41.693723948911945" lon="13.28534846369507"><ele>268.33333333333337</ele><time>2026-04-10T17:58:19Z</time></trkpt><trkpt lat="41.693739621370874" lon="13.285462443418963"><ele>268.0</ele><time>2026-04-10T17:58:20Z</time></trkpt><trkpt lat="41.6937552014275" lon="13.285573260257944"><ele>267.6666666666667</ele><time>2026-04-10T17:58:21Z</time></trkpt><trkpt lat="41.69374154413424" lon="13.285684118329605"><ele>267.3333333333333</ele><time>2026-04-10T17:58:22Z</time></trkpt><trkpt lat="41.69373845156963" lon="13.285793617294496"><ele>267.0</ele><time>2026-04-10T17:58:23Z</time></trkpt><trkpt lat="41.69373098731622" lon="13.285900684223407"><ele>267.0</ele><time>2026-04-10T17:58:24Z</time></trkpt><trkpt lat="41.69373066417398" lon="13.286012785717423"><ele>267.0</ele><time>2026-04-10T17:58:25Z</time></trkpt><trkpt lat="41.69371493421913" lon="13.286116458349701"><ele>267.0</ele><time>2026-04-10T17:58:26Z</time></trkpt><trkpt lat="41.69369273301541" lon="13.286213591298804"><ele>267.0</ele><time>2026-04-10T17:58:27Z</time></trkpt><trkpt lat="41.693657495617" lon="13.286304940863879"><ele>267.0</ele><time>2026-04-10T17:58:28Z</time></trkpt><trkpt lat="41.69364168219366" lon="13.28639998937573"><ele>267.0</ele><time>2026-04-10T17:58:29Z</time></trkpt><trkpt lat="41.69363125076283" lon="13.286498214565617"><ele>267.00000000000006</ele><time>2026-04-10T17:58:30Z</time></trkpt><trkpt lat="41.69362860684286" lon="13.286597683683924"><ele>267.0</ele><time>2026-04-10T17:58:31Z</time></trkpt><trkpt lat="41.6936390728695" lon="13.286690087356751"><ele>267.0</ele><time>2026-04-10T17:58:32Z</time></trkpt><trkpt lat="41.69362606100931" lon="13.28677613512067"><ele>267.0</ele><time>2026-04-10T17:58:33Z</time></trkpt><trkpt lat="41.693619093679544" lon="13.286906843046257"><ele>267.0</ele><time>2026-04-10T17:58:35Z</time></trkpt><trkpt lat="41.6936122925932" lon="13.286992347205821"><ele>267.00000000000006</ele><time>2026-04-10T17:58:37Z</time></trkpt><trkpt lat="41.69359928906156" lon="13.287076121340668"><ele>267.0</ele><time>2026-04-10T17:58:42Z</time></trkpt><trkpt lat="41.69358385041091" lon="13.2871734494493"><ele>266.0</ele><time>2026-04-10T17:58:46Z</time></trkpt><trkpt lat="41.69356818042882" lon="13.287275907937628"><ele>265.0</ele><time>2026-04-10T17:58:48Z</time></trkpt><trkpt lat="41.69354153758373" lon="13.287406496566344"><ele>264.0</ele><time>2026-04-10T17:58:50Z</time></trkpt><trkpt lat="41.69351236522699" lon="13.287536732838683"><ele>263.0</ele><time>2026-04-10T17:58:52Z</time></trkpt><trkpt lat="41.69348367086683" lon="13.287690792593944"><ele>262.0</ele><time>2026-04-10T17:58:54Z</time></trkpt><trkpt lat="41.693465550341934" lon="13.287779613932651"><ele>262.0</ele><time>2026-04-10T17:58:55Z</time></trkpt><trkpt lat="41.693446064218165" lon="13.287872529370235"><ele>262.0</ele><time>2026-04-10T17:58:56Z</time></trkpt><trkpt lat="41.693424628290316" lon="13.287968251830517"><ele>262.0</ele><time>2026-04-10T17:58:57Z</time></trkpt><trkpt lat="41.69340470508557" lon="13.288067656233613"><ele>262.0</ele><time>2026-04-10T17:58:58Z</time></trkpt><trkpt lat="41.69339120042686" lon="13.288169685932095"><ele>262.0</ele><time>2026-04-10T17:58:59Z</time></trkpt><trkpt lat="41.69338636702302" lon="13.288269151590857"><ele>262.0</ele><time>2026-04-10T17:59:00Z</time></trkpt><trkpt lat="41.693381591445544" lon="13.288367721985416"><ele>262.0</ele><time>2026-04-10T17:59:01Z</time></trkpt><trkpt lat="41.69337851372756" lon="13.288462078414444"><ele>262.0</ele><time>2026-04-10T17:59:02Z</time></trkpt><trkpt lat="41.6933788890449" lon="13.288557540341994"><ele>262.0</ele><time>2026-04-10T17:59:03Z</time></trkpt><trkpt lat="41.69337828542835" lon="13.288652214006795"><ele>262.0</ele><time>2026-04-10T17:59:04Z</time></trkpt><trkpt lat="41.69335866014804" lon="13.28874530531589"><ele>262.0</ele><time>2026-04-10T17:59:05Z</time></trkpt><trkpt lat="41.693365502306136" lon="13.288846042907986"><ele>262.0</ele><time>2026-04-10T17:59:06Z</time></trkpt><trkpt lat="41.6933532972081" lon="13.288946137511244"><ele>262.0</ele><time>2026-04-10T17:59:07Z</time></trkpt><trkpt lat="41.69334532769063" lon="13.28904836691484"><ele>262.0</ele><time>2026-04-10T17:59:08Z</time></trkpt><trkpt lat="41.69332735389969" lon="13.28914914961792"><ele>262.3333333333333</ele><time>2026-04-10T17:59:09Z</time></trkpt><trkpt lat="41.693308657316905" lon="13.289249790903982"><ele>262.66666666666663</ele><time>2026-04-10T17:59:10Z</time></trkpt><trkpt lat="41.69328718996301" lon="13.28935043185618"><ele>263.0</ele><time>2026-04-10T17:59:11Z</time></trkpt><trkpt lat="41.69326529696137" lon="13.289451411695866"><ele>263.3333333333333</ele><time>2026-04-10T17:59:12Z</time></trkpt><trkpt lat="41.693247565883475" lon="13.289550782396674"><ele>263.6666666666667</ele><time>2026-04-10T17:59:13Z</time></trkpt><trkpt lat="41.69323765840403" lon="13.289650227632519"><ele>264.0</ele><time>2026-04-10T17:59:14Z</time></trkpt><trkpt lat="41.693235680449476" lon="13.289749221443063"><ele>264.6666666666667</ele><time>2026-04-10T17:59:15Z</time></trkpt><trkpt lat="41.693234046774826" lon="13.289845695523967"><ele>265.3333333333333</ele><time>2026-04-10T17:59:16Z</time></trkpt><trkpt lat="41.69323086227202" lon="13.289941350662867"><ele>266.0</ele><time>2026-04-10T17:59:17Z</time></trkpt><trkpt lat="41.69322258721787" lon="13.290040313478375"><ele>266.66666666666663</ele><time>2026-04-10T17:59:18Z</time></trkpt><trkpt lat="41.69319923350925" lon="13.290141636431166"><ele>267.3333333333333</ele><time>2026-04-10T17:59:19Z</time></trkpt><trkpt lat="41.693168181249135" lon="13.29024202086695"><ele>268.0</ele><time>2026-04-10T17:59:20Z</time></trkpt><trkpt lat="41.693131928861895" lon="13.290345592099225"><ele>268.0</ele><time>2026-04-10T17:59:21Z</time></trkpt><trkpt lat="41.69309172690899" lon="13.290452894796728"><ele>268.0</ele><time>2026-04-10T17:59:22Z</time></trkpt><trkpt lat="41.69305244010353" lon="13.290555393850681"><ele>268.0</ele><time>2026-04-10T17:59:23Z</time></trkpt><trkpt lat="41.69301331936627" lon="13.290659877380161"><ele>268.0</ele><time>2026-04-10T17:59:24Z</time></trkpt><trkpt lat="41.692974676441125" lon="13.2907656930461"><ele>268.0</ele><time>2026-04-10T17:59:25Z</time></trkpt><trkpt lat="41.69293250794307" lon="13.290871053473376"><ele>268.0</ele><time>2026-04-10T17:59:26Z</time></trkpt><trkpt lat="41.6928906951277" lon="13.290979233396879"><ele>268.2</ele><time>2026-04-10T17:59:27Z</time></trkpt><trkpt lat="41.69284840812804" lon="13.291088474534464"><ele>268.4</ele><time>2026-04-10T17:59:28Z</time></trkpt><trkpt lat="41.69281013302104" lon="13.291198750286762"><ele>268.59999999999997</ele><time>2026-04-10T17:59:29Z</time></trkpt><trkpt lat="41.69277040851801" lon="13.291310028154456"><ele>268.8</ele><time>2026-04-10T17:59:30Z</time></trkpt><trkpt lat="41.69272930359415" lon="13.291421883744633"><ele>269.0</ele><time>2026-04-10T17:59:31Z</time></trkpt><trkpt lat="41.69269800392511" lon="13.291533603409441"><ele>269.0</ele><time>2026-04-10T17:59:32Z</time></trkpt><trkpt lat="41.69265453998517" lon="13.291637052507427"><ele>269.0</ele><time>2026-04-10T17:59:33Z</time></trkpt><trkpt lat="41.69262834436446" lon="13.291749230355807"><ele>269.0</ele><time>2026-04-10T17:59:34Z</time></trkpt><trkpt lat="41.69260528897194" lon="13.291856668464282"><ele>269.0</ele><time>2026-04-10T17:59:35Z</time></trkpt><trkpt lat="41.692580316790725" lon="13.291961322128387"><ele>269.0</ele><time>2026-04-10T17:59:36Z</time></trkpt><trkpt lat="41.692562114749975" lon="13.29206929864737"><ele>269.0</ele><time>2026-04-10T17:59:37Z</time></trkpt><trkpt lat="41.69252354698211" lon="13.292167711094658"><ele>269.33333333333337</ele><time>2026-04-10T17:59:38Z</time></trkpt><trkpt lat="41.69248229621058" lon="13.292261560298329"><ele>269.6666666666667</ele><time>2026-04-10T17:59:39Z</time></trkpt><trkpt lat="41.69243253969839" lon="13.292351066914012"><ele>270.0</ele><time>2026-04-10T17:59:40Z</time></trkpt><trkpt lat="41.69237991657287" lon="13.292434689117881"><ele>270.3333333333333</ele><time>2026-04-10T17:59:41Z</time></trkpt><trkpt lat="41.692311155550804" lon="13.292498525382458"><ele>270.66666666666663</ele><time>2026-04-10T17:59:42Z</time></trkpt><trkpt lat="41.69226615987961" lon="13.29259361194056"><ele>271.0</ele><time>2026-04-10T17:59:43Z</time></trkpt><trkpt lat="41.69221074605795" lon="13.292680792988696"><ele>271.0</ele><time>2026-04-10T17:59:44Z</time></trkpt><trkpt lat="41.69215805943928" lon="13.292762767175791"><ele>271.0</ele><time>2026-04-10T17:59:45Z</time></trkpt><trkpt lat="41.6921201229416" lon="13.292857190614315"><ele>271.0</ele><time>2026-04-10T17:59:46Z</time></trkpt><trkpt lat="41.69208817714998" lon="13.292945809500335"><ele>271.0</ele><time>2026-04-10T17:59:47Z</time></trkpt><trkpt lat="41.692039382772165" lon="13.29301334393214"><ele>271.0</ele><time>2026-04-10T17:59:48Z</time></trkpt><trkpt lat="41.692004434127576" lon="13.293097486285872"><ele>271.0</ele><time>2026-04-10T17:59:49Z</time></trkpt><trkpt lat="41.69197393633013" lon="13.293185706029984"><ele>271.0</ele><time>2026-04-10T17:59:50Z</time></trkpt><trkpt lat="41.69194939218218" lon="13.293284443171457"><ele>271.0</ele><time>2026-04-10T17:59:51Z</time></trkpt><trkpt lat="41.69195066480828" lon="13.293394543451951"><ele>271.0</ele><time>2026-04-10T17:59:52Z</time></trkpt><trkpt lat="41.69193860673529" lon="13.29350018765406"><ele>271.0</ele><time>2026-04-10T17:59:53Z</time></trkpt><trkpt lat="41.69193696884525" lon="13.293610064602674"><ele>271.0</ele><time>2026-04-10T17:59:54Z</time></trkpt><trkpt lat="41.69193593453587" lon="13.293721492276589"><ele>271.0</ele><time>2026-04-10T17:59:55Z</time></trkpt><trkpt lat="41.69192729600808" lon="13.293829032526299"><ele>271.0</ele><time>2026-04-10T17:59:56Z</time></trkpt><trkpt lat="41.691924742250784" lon="13.29393260165148"><ele>269.0</ele><time>2026-04-10T17:59:57Z</time></trkpt><trkpt lat="41.691920436322434" lon="13.294040329260286"><ele>267.0</ele><time>2026-04-10T17:59:58Z</time></trkpt><trkpt lat="41.69191536120444" lon="13.294157429073442"><ele>265.0</ele><time>2026-04-10T17:59:59Z</time></trkpt><trkpt lat="41.691905555629255" lon="13.29428694589566"><ele>263.0</ele><time>2026-04-10T18:00:00Z</time></trkpt><trkpt lat="41.691898546495935" lon="13.294427369399786"><ele>261.0</ele><time>2026-04-10T18:00:01Z</time></trkpt><trkpt lat="41.69188766868048" lon="13.294576000313192"><ele>261.0</ele><time>2026-04-10T18:00:02Z</time></trkpt><trkpt lat="41.691871594807864" lon="13.294716262488057"><ele>261.0</ele><time>2026-04-10T18:00:03Z</time></trkpt><trkpt lat="41.691844129339856" lon="13.29485218080042"><ele>261.0</ele><time>2026-04-10T18:00:04Z</time></trkpt><trkpt lat="41.691802926693725" lon="13.294980476295995"><ele>261.0</ele><time>2026-04-10T18:00:05Z</time></trkpt><trkpt lat="41.69174500427157" lon="13.295100529068106"><ele>261.0</ele><time>2026-04-10T18:00:06Z</time></trkpt><trkpt lat="41.69166285561154" lon="13.295207455017868"><ele>261.5</ele><time>2026-04-10T18:00:07Z</time></trkpt><trkpt lat="41.691599306222386" lon="13.295334089363816"><ele>262.0</ele><time>2026-04-10T18:00:08Z</time></trkpt><trkpt lat="41.69153633361572" lon="13.295462369093652"><ele>262.5</ele><time>2026-04-10T18:00:09Z</time></trkpt><trkpt lat="41.691486017578086" lon="13.295600864182001"><ele>263.0</ele><time>2026-04-10T18:00:10Z</time></trkpt><trkpt lat="41.69142214089667" lon="13.295719375982161"><ele>263.2</ele><time>2026-04-10T18:00:11Z</time></trkpt><trkpt lat="41.6913605315856" lon="13.2958338096151"><ele>263.4</ele><time>2026-04-10T18:00:12Z</time></trkpt><trkpt lat="41.69130141624908" lon="13.29594378028085"><ele>263.59999999999997</ele><time>2026-04-10T18:00:13Z</time></trkpt><trkpt lat="41.69124572737514" lon="13.296053933678207"><ele>263.8</ele><time>2026-04-10T18:00:14Z</time></trkpt><trkpt lat="41.69119473804315" lon="13.29616230127556"><ele>264.0</ele><time>2026-04-10T18:00:15Z</time></trkpt><trkpt lat="41.69113425442298" lon="13.296258180865692"><ele>264.0</ele><time>2026-04-10T18:00:16Z</time></trkpt><trkpt lat="41.69109109101163" lon="13.296365000453378"><ele>264.0</ele><time>2026-04-10T18:00:17Z</time></trkpt><trkpt lat="41.69104612613237" lon="13.296470336721587"><ele>264.0</ele><time>2026-04-10T18:00:18Z</time></trkpt><trkpt lat="41.690997471529506" lon="13.296584897623497"><ele>264.0</ele><time>2026-04-10T18:00:19Z</time></trkpt><trkpt lat="41.690955387960436" lon="13.296711925856263"><ele>264.0</ele><time>2026-04-10T18:00:20Z</time></trkpt><trkpt lat="41.69091649001862" lon="13.29684822971155"><ele>263.25</ele><time>2026-04-10T18:00:21Z</time></trkpt><trkpt lat="41.690883777313516" lon="13.296994458741946"><ele>262.5</ele><time>2026-04-10T18:00:22Z</time></trkpt><trkpt lat="41.690864764958924" lon="13.297150712002622"><ele>261.75</ele><time>2026-04-10T18:00:23Z</time></trkpt><trkpt lat="41.69086754446236" lon="13.297317132173053"><ele>261.0</ele><time>2026-04-10T18:00:24Z</time></trkpt><trkpt lat="41.6908775288889" lon="13.297489883874702"><ele>260.75</ele><time>2026-04-10T18:00:25Z</time></trkpt><trkpt lat="41.69088715139556" lon="13.29766537753062"><ele>260.5</ele><time>2026-04-10T18:00:26Z</time></trkpt><trkpt lat="41.69089330798215" lon="13.297845371718585"><ele>260.25</ele><time>2026-04-10T18:00:27Z</time></trkpt><trkpt lat="41.69089596045943" lon="13.298030521841007"><ele>260.0</ele><time>2026-04-10T18:00:28Z</time></trkpt><trkpt lat="41.690898952311564" lon="13.29821950774931"><ele>259.0</ele><time>2026-04-10T18:00:29Z</time></trkpt><trkpt lat="41.69090423518682" lon="13.29841852812168"><ele>258.0</ele><time>2026-04-10T18:00:30Z</time></trkpt><trkpt lat="41.69091625181131" lon="13.298627080379898"><ele>257.0</ele><time>2026-04-10T18:00:31Z</time></trkpt><trkpt lat="41.69092734341594" lon="13.298838095317503"><ele>256.6666666666667</ele><time>2026-04-10T18:00:32Z</time></trkpt><trkpt lat="41.690938509940786" lon="13.299050770013327"><ele>256.3333333333333</ele><time>2026-04-10T18:00:33Z</time></trkpt><trkpt lat="41.690945339019216" lon="13.299265178522683"><ele>256.0</ele><time>2026-04-10T18:00:34Z</time></trkpt><trkpt lat="41.690939015010535" lon="13.299479947747258"><ele>256.0</ele><time>2026-04-10T18:00:35Z</time></trkpt><trkpt lat="41.690925919493765" lon="13.299695474006842"><ele>256.0</ele><time>2026-04-10T18:00:36Z</time></trkpt><trkpt lat="41.69091446375164" lon="13.29990466241086"><ele>256.0</ele><time>2026-04-10T18:00:37Z</time></trkpt><trkpt lat="41.690900103199425" lon="13.300115644347256"><ele>256.0</ele><time>2026-04-10T18:00:38Z</time></trkpt><trkpt lat="41.69091135026281" lon="13.300320424098965"><ele>256.0</ele><time>2026-04-10T18:00:39Z</time></trkpt><trkpt lat="41.69091825548362" lon="13.300526429670896"><ele>256.0</ele><time>2026-04-10T18:00:40Z</time></trkpt><trkpt lat="41.690918302278774" lon="13.300727587495329"><ele>256.0</ele><time>2026-04-10T18:00:41Z</time></trkpt><trkpt lat="41.69090883980297" lon="13.300924602307859"><ele>256.0</ele><time>2026-04-10T18:00:42Z</time></trkpt><trkpt lat="41.69088985750021" lon="13.301116497245113"><ele>256.0</ele><time>2026-04-10T18:00:43Z</time></trkpt><trkpt lat="41.6908684100962" lon="13.301308898989825"><ele>256.0</ele><time>2026-04-10T18:00:44Z</time></trkpt><trkpt lat="41.690861493450825" lon="13.301500227466564"><ele>256.5</ele><time>2026-04-10T18:00:45Z</time></trkpt><trkpt lat="41.690873848708165" lon="13.301692871159917"><ele>257.0</ele><time>2026-04-10T18:00:46Z</time></trkpt><trkpt lat="41.690907231667026" lon="13.301885262563422"><ele>257.5</ele><time>2026-04-10T18:00:47Z</time></trkpt><trkpt lat="41.69093129589328" lon="13.30208282706769"><ele>258.0</ele><time>2026-04-10T18:00:48Z</time></trkpt><trkpt lat="41.69098265142332" lon="13.302272284019411"><ele>258.0</ele><time>2026-04-10T18:00:49Z</time></trkpt><trkpt lat="41.69103698802827" lon="13.302460216229122"><ele>258.0</ele><time>2026-04-10T18:00:50Z</time></trkpt><trkpt lat="41.69106258486365" lon="13.302657608671677"><ele>258.0</ele><time>2026-04-10T18:00:51Z</time></trkpt><trkpt lat="41.691062540661775" lon="13.302858512092248"><ele>258.0</ele><time>2026-04-10T18:00:52Z</time></trkpt><trkpt lat="41.69107639999258" lon="13.30305970082035"><ele>258.0</ele><time>2026-04-10T18:00:53Z</time></trkpt><trkpt lat="41.691077579622444" lon="13.30325859007871"><ele>258.0</ele><time>2026-04-10T18:00:54Z</time></trkpt><trkpt lat="41.691068286844015" lon="13.303454313461936"><ele>258.0</ele><time>2026-04-10T18:00:55Z</time></trkpt><trkpt lat="41.691040584340726" lon="13.303649323051214"><ele>258.0</ele><time>2026-04-10T18:00:56Z</time></trkpt><trkpt lat="41.691012762343995" lon="13.303847311278467"><ele>258.0</ele><time>2026-04-10T18:00:57Z</time></trkpt><trkpt lat="41.69094533526625" lon="13.304031014841566"><ele>258.0</ele><time>2026-04-10T18:00:58Z</time></trkpt><trkpt lat="41.69088947950796" lon="13.304222508942289"><ele>258.3333333333333</ele><time>2026-04-10T18:00:59Z</time></trkpt><trkpt lat="41.690831876138965" lon="13.304413166676731"><ele>258.66666666666663</ele><time>2026-04-10T18:01:00Z</time></trkpt><trkpt lat="41.69077501445244" lon="13.304603453916231"><ele>259.0</ele><time>2026-04-10T18:01:01Z</time></trkpt><trkpt lat="41.690718505483694" lon="13.304792834521372"><ele>261.3333333333333</ele><time>2026-04-10T18:01:02Z</time></trkpt><trkpt lat="41.69066150200946" lon="13.304983872385558"><ele>263.6666666666667</ele><time>2026-04-10T18:01:03Z</time></trkpt><trkpt lat="41.69061720013231" lon="13.305180626182562"><ele>266.0</ele><time>2026-04-10T18:01:04Z</time></trkpt><trkpt lat="41.690555373731975" lon="13.305364818234153"><ele>266.0</ele><time>2026-04-10T18:01:05Z</time></trkpt><trkpt lat="41.690490957172564" lon="13.305548168102158"><ele>266.0</ele><time>2026-04-10T18:01:06Z</time></trkpt><trkpt lat="41.69041199614945" lon="13.305723179711174"><ele>266.0</ele><time>2026-04-10T18:01:07Z</time></trkpt><trkpt lat="41.69035128096691" lon="13.305903983051008"><ele>267.75</ele><time>2026-04-10T18:01:08Z</time></trkpt><trkpt lat="41.690300615287946" lon="13.306092765116052"><ele>269.5</ele><time>2026-04-10T18:01:09Z</time></trkpt><trkpt lat="41.690258853762934" lon="13.306276868872137"><ele>271.25</ele><time>2026-04-10T18:01:10Z</time></trkpt><trkpt lat="41.69019401756548" lon="13.30644995588227"><ele>273.0</ele><time>2026-04-10T18:01:11Z</time></trkpt><trkpt lat="41.69011166854379" lon="13.30660828087163"><ele>270.75</ele><time>2026-04-10T18:01:12Z</time></trkpt><trkpt lat="41.69005033912727" lon="13.306775950377586"><ele>268.5</ele><time>2026-04-10T18:01:13Z</time></trkpt><trkpt lat="41.68999313159831" lon="13.30694553280161"><ele>266.25</ele><time>2026-04-10T18:01:14Z</time></trkpt><trkpt lat="41.68993722658745" lon="13.307108252870236"><ele>264.0</ele><time>2026-04-10T18:01:15Z</time></trkpt><trkpt lat="41.689878261432774" lon="13.307269186268618"><ele>264.0</ele><time>2026-04-10T18:01:16Z</time></trkpt><trkpt lat="41.68978618861749" lon="13.307406349811886"><ele>264.0</ele><time>2026-04-10T18:01:17Z</time></trkpt><trkpt lat="41.68969055397666" lon="13.307531268304714"><ele>264.0</ele><time>2026-04-10T18:01:18Z</time></trkpt><trkpt lat="41.68959592658037" lon="13.307656663177326"><ele>264.0</ele><time>2026-04-10T18:01:19Z</time></trkpt><trkpt lat="41.689492381225264" lon="13.307773120112875"><ele>261.5</ele><time>2026-04-10T18:01:20Z</time></trkpt><trkpt lat="41.68941156067275" lon="13.307916431001837"><ele>259.0</ele><time>2026-04-10T18:01:21Z</time></trkpt><trkpt lat="41.689359411693275" lon="13.308072479001783"><ele>256.5</ele><time>2026-04-10T18:01:22Z</time></trkpt><trkpt lat="41.689294115938324" lon="13.308225853191596"><ele>254.0</ele><time>2026-04-10T18:01:23Z</time></trkpt><trkpt lat="41.68922847834283" lon="13.308370761648051"><ele>254.0</ele><time>2026-04-10T18:01:24Z</time></trkpt><trkpt lat="41.68921228626381" lon="13.308525115617183"><ele>253.99999999999997</ele><time>2026-04-10T18:01:25Z</time></trkpt><trkpt lat="41.68917300501839" lon="13.308669717844507"><ele>253.99999999999997</ele><time>2026-04-10T18:01:26Z</time></trkpt><trkpt lat="41.689141631455456" lon="13.30880929518748"><ele>254.0</ele><time>2026-04-10T18:01:27Z</time></trkpt><trkpt lat="41.68911663386708" lon="13.308944435445902"><ele>254.0</ele><time>2026-04-10T18:01:28Z</time></trkpt><trkpt lat="41.68909304080874" lon="13.309071674425446"><ele>254.79999999999998</ele><time>2026-04-10T18:01:29Z</time></trkpt><trkpt lat="41.68907615570524" lon="13.30918487415582"><ele>255.59999999999997</ele><time>2026-04-10T18:01:30Z</time></trkpt><trkpt lat="41.689060544000554" lon="13.309300632672747"><ele>256.4</ele><time>2026-04-10T18:01:31Z</time></trkpt><trkpt lat="41.68903997422741" lon="13.309422646682757"><ele>257.2</ele><time>2026-04-10T18:01:32Z</time></trkpt><trkpt lat="41.689015582126515" lon="13.30954764801975"><ele>258.0</ele><time>2026-04-10T18:01:33Z</time></trkpt><trkpt lat="41.6889939225008" lon="13.309681217140175"><ele>259.25</ele><time>2026-04-10T18:01:34Z</time></trkpt><trkpt lat="41.68897278693004" lon="13.30982451022839"><ele>260.5</ele><time>2026-04-10T18:01:35Z</time></trkpt><trkpt lat="41.68895129404929" lon="13.309977352856283"><ele>261.75</ele><time>2026-04-10T18:01:36Z</time></trkpt><trkpt lat="41.68893228833028" lon="13.310137681156332"><ele>263.0</ele><time>2026-04-10T18:01:37Z</time></trkpt><trkpt lat="41.68891637492834" lon="13.31029223643309"><ele>263.0</ele><time>2026-04-10T18:01:38Z</time></trkpt><trkpt lat="41.68889862721552" lon="13.310448759953905"><ele>263.0</ele><time>2026-04-10T18:01:39Z</time></trkpt><trkpt lat="41.68888452652803" lon="13.31060892517358"><ele>263.0</ele><time>2026-04-10T18:01:40Z</time></trkpt><trkpt lat="41.68886182588752" lon="13.310761210793347"><ele>263.0</ele><time>2026-04-10T18:01:41Z</time></trkpt><trkpt lat="41.68883985430379" lon="13.310905536914238"><ele>263.8</ele><time>2026-04-10T18:01:42Z</time></trkpt><trkpt lat="41.688820968053285" lon="13.311043459212009"><ele>264.6</ele><time>2026-04-10T18:01:43Z</time></trkpt><trkpt lat="41.68880473918627" lon="13.311169301732054"><ele>265.4</ele><time>2026-04-10T18:01:44Z</time></trkpt><trkpt lat="41.68878491112523" lon="13.311284264905549"><ele>266.2</ele><time>2026-04-10T18:01:45Z</time></trkpt><trkpt lat="41.68876955123604" lon="13.31139433900689"><ele>267.0</ele><time>2026-04-10T18:01:46Z</time></trkpt><trkpt lat="41.68874833168822" lon="13.311500889931487"><ele>267.7142857142857</ele><time>2026-04-10T18:01:47Z</time></trkpt><trkpt lat="41.68873068758915" lon="13.311608904892283"><ele>268.42857142857144</ele><time>2026-04-10T18:01:48Z</time></trkpt><trkpt lat="41.68872115728528" lon="13.311694453441989"><ele>269.1428571428571</ele><time>2026-04-10T18:01:49Z</time></trkpt><trkpt lat="41.68871157151535" lon="13.311786185639717"><ele>269.8571428571429</ele><time>2026-04-10T18:01:50Z</time></trkpt><trkpt lat="41.68870542520244" lon="13.31187457558071"><ele>270.57142857142856</ele><time>2026-04-10T18:01:51Z</time></trkpt><trkpt lat="41.68870049634735" lon="13.311971296928883"><ele>271.2857142857143</ele><time>2026-04-10T18:01:52Z</time></trkpt><trkpt lat="41.68869717332089" lon="13.312080130853083"><ele>272.0</ele><time>2026-04-10T18:01:53Z</time></trkpt><trkpt lat="41.68869210318014" lon="13.31219095532253"><ele>272.6</ele><time>2026-04-10T18:01:54Z</time></trkpt><trkpt lat="41.68868541203097" lon="13.312309596793781"><ele>273.2</ele><time>2026-04-10T18:01:55Z</time></trkpt><trkpt lat="41.68867647815051" lon="13.312435037991214"><ele>273.8</ele><time>2026-04-10T18:01:56Z</time></trkpt><trkpt lat="41.688666123499445" lon="13.31256949010115"><ele>274.4</ele><time>2026-04-10T18:01:57Z</time></trkpt><trkpt lat="41.68865321824376" lon="13.312707416917114"><ele>275.0</ele><time>2026-04-10T18:01:58Z</time></trkpt><trkpt lat="41.68864044319906" lon="13.312846656820126"><ele>275.0</ele><time>2026-04-10T18:01:59Z</time></trkpt><trkpt lat="41.68862672111001" lon="13.31298733698601"><ele>275.0</ele><time>2026-04-10T18:02:00Z</time></trkpt><trkpt lat="41.68861291052541" lon="13.31312069320642"><ele>275.0</ele><time>2026-04-10T18:02:01Z</time></trkpt><trkpt lat="41.688598867632045" lon="13.313243904088303"><ele>275.0</ele><time>2026-04-10T18:02:02Z</time></trkpt><trkpt lat="41.68859053169275" lon="13.313366763827325"><ele>275.0</ele><time>2026-04-10T18:02:03Z</time></trkpt><trkpt lat="41.68858048618437" lon="13.313470353058243"><ele>273.42857142857144</ele><time>2026-04-10T18:02:04Z</time></trkpt><trkpt lat="41.68857511223718" lon="13.313560062298386"><ele>271.85714285714283</ele><time>2026-04-10T18:02:05Z</time></trkpt><trkpt lat="41.68857231247113" lon="13.313647434037023"><ele>270.2857142857143</ele><time>2026-04-10T18:02:06Z</time></trkpt><trkpt lat="41.68856947350038" lon="13.313740251876617"><ele>268.7142857142857</ele><time>2026-04-10T18:02:07Z</time></trkpt><trkpt lat="41.68857052138241" lon="13.313838773721656"><ele>267.14285714285717</ele><time>2026-04-10T18:02:08Z</time></trkpt><trkpt lat="41.688572983877954" lon="13.31394205930242"><ele>265.57142857142856</ele><time>2026-04-10T18:02:09Z</time></trkpt><trkpt lat="41.688576563026196" lon="13.314051823470564"><ele>264.0</ele><time>2026-04-10T18:02:10Z</time></trkpt><trkpt lat="41.68857843021554" lon="13.314165589095692"><ele>264.0</ele><time>2026-04-10T18:02:11Z</time></trkpt><trkpt lat="41.688582920680986" lon="13.314284140333523"><ele>264.0</ele><time>2026-04-10T18:02:12Z</time></trkpt><trkpt lat="41.68858848128996" lon="13.314409786100258"><ele>264.0</ele><time>2026-04-10T18:02:13Z</time></trkpt><trkpt lat="41.68859751032119" lon="13.314540820824933"><ele>264.0</ele><time>2026-04-10T18:02:14Z</time></trkpt><trkpt lat="41.68860710574652" lon="13.314676021923203"><ele>264.0</ele><time>2026-04-10T18:02:15Z</time></trkpt><trkpt lat="41.68862365758853" lon="13.314814228266167"><ele>266.59999999999997</ele><time>2026-04-10T18:02:16Z</time></trkpt><trkpt lat="41.688640623188505" lon="13.314954164267448"><ele>269.2</ele><time>2026-04-10T18:02:17Z</time></trkpt><trkpt lat="41.68865339212773" lon="13.315097329930305"><ele>271.79999999999995</ele><time>2026-04-10T18:02:18Z</time></trkpt><trkpt lat="41.688673691697375" lon="13.315244368797433"><ele>274.4</ele><time>2026-04-10T18:02:19Z</time></trkpt><trkpt lat="41.68869912505424" lon="13.315387143947138"><ele>277.0</ele><time>2026-04-10T18:02:20Z</time></trkpt><trkpt lat="41.68870713041815" lon="13.315536252163126"><ele>276.6</ele><time>2026-04-10T18:02:21Z</time></trkpt><trkpt lat="41.68872867985532" lon="13.315681490417846"><ele>276.2</ele><time>2026-04-10T18:02:22Z</time></trkpt><trkpt lat="41.688750449272504" lon="13.315828211316687"><ele>275.8</ele><time>2026-04-10T18:02:23Z</time></trkpt><trkpt lat="41.68878012198108" lon="13.315972841150417"><ele>275.4</ele><time>2026-04-10T18:02:24Z</time></trkpt><trkpt lat="41.68878957187558" lon="13.316120481215068"><ele>275.0</ele><time>2026-04-10T18:02:25Z</time></trkpt><trkpt lat="41.68879964844906" lon="13.316265611272367"><ele>274.6</ele><time>2026-04-10T18:02:26Z</time></trkpt><trkpt lat="41.688807367705195" lon="13.316404862555173"><ele>274.2</ele><time>2026-04-10T18:02:27Z</time></trkpt><trkpt lat="41.688811779114744" lon="13.31653667185985"><ele>273.8</ele><time>2026-04-10T18:02:28Z</time></trkpt><trkpt lat="41.68881771782886" lon="13.316657318105003"><ele>273.4</ele><time>2026-04-10T18:02:29Z</time></trkpt><trkpt lat="41.68883146639185" lon="13.316771898129648"><ele>273.0</ele><time>2026-04-10T18:02:30Z</time></trkpt><trkpt lat="41.68884007847183" lon="13.316888152364694"><ele>273.0</ele><time>2026-04-10T18:02:31Z</time></trkpt><trkpt lat="41.68884159275739" lon="13.317008890378764"><ele>273.0</ele><time>2026-04-10T18:02:32Z</time></trkpt><trkpt lat="41.68884028562593" lon="13.31713334369884"><ele>273.0</ele><time>2026-04-10T18:02:33Z</time></trkpt><trkpt lat="41.688836263682475" lon="13.317258384717249"><ele>273.0</ele><time>2026-04-10T18:02:34Z</time></trkpt><trkpt lat="41.688831636307086" lon="13.317384933140438"><ele>273.0</ele><time>2026-04-10T18:02:35Z</time></trkpt><trkpt lat="41.688829238203056" lon="13.317513212686372"><ele>273.2</ele><time>2026-04-10T18:02:36Z</time></trkpt><trkpt lat="41.688833467536085" lon="13.317639099364904"><ele>273.4</ele><time>2026-04-10T18:02:37Z</time></trkpt><trkpt lat="41.68884917688446" lon="13.31776311200764"><ele>273.59999999999997</ele><time>2026-04-10T18:02:38Z</time></trkpt><trkpt lat="41.688857063346646" lon="13.317892235948358"><ele>273.8</ele><time>2026-04-10T18:02:39Z</time></trkpt><trkpt lat="41.68888783758507" lon="13.318010133980168"><ele>274.0</ele><time>2026-04-10T18:02:40Z</time></trkpt><trkpt lat="41.68891128684366" lon="13.318133486351275"><ele>274.4</ele><time>2026-04-10T18:02:41Z</time></trkpt><trkpt lat="41.6889280857139" lon="13.31825601220552"><ele>274.79999999999995</ele><time>2026-04-10T18:02:42Z</time></trkpt><trkpt lat="41.688906314854165" lon="13.318387832336658"><ele>275.20000000000005</ele><time>2026-04-10T18:02:43Z</time></trkpt><trkpt lat="41.68887169298459" lon="13.318516859845735"><ele>275.6</ele><time>2026-04-10T18:02:44Z</time></trkpt><trkpt lat="41.688827510675154" lon="13.318651763676588"><ele>276.0</ele><time>2026-04-10T18:02:45Z</time></trkpt><trkpt lat="41.68881183914005" lon="13.318810168150629"><ele>275.0</ele><time>2026-04-10T18:02:46Z</time></trkpt><trkpt lat="41.68881954675878" lon="13.318959352632925"><ele>274.0</ele><time>2026-04-10T18:02:47Z</time></trkpt><trkpt lat="41.68879594231768" lon="13.319113300881954"><ele>273.0</ele><time>2026-04-10T18:02:48Z</time></trkpt><trkpt lat="41.68879060548375" lon="13.319250416428556"><ele>272.0</ele><time>2026-04-10T18:02:49Z</time></trkpt><trkpt lat="41.688783817956455" lon="13.319468564280541"><ele>272.0</ele><time>2026-04-10T18:02:50Z</time></trkpt><trkpt lat="41.6887745200986" lon="13.319648701298314"><ele>272.0</ele><time>2026-04-10T18:02:51Z</time></trkpt><trkpt lat="41.68875276743394" lon="13.319839087885551"><ele>272.0</ele><time>2026-04-10T18:02:52Z</time></trkpt><trkpt lat="41.688736584435" lon="13.32002738329532"><ele>272.0</ele><time>2026-04-10T18:02:53Z</time></trkpt><trkpt lat="41.688723203042635" lon="13.320215961742127"><ele>271.25</ele><time>2026-04-10T18:02:54Z</time></trkpt><trkpt lat="41.68871124142165" lon="13.320405452362623"><ele>270.5</ele><time>2026-04-10T18:02:55Z</time></trkpt><trkpt lat="41.68870015440296" lon="13.32059103940048"><ele>269.75</ele><time>2026-04-10T18:02:56Z</time></trkpt><trkpt lat="41.68868961520711" lon="13.320774850014804"><ele>269.0</ele><time>2026-04-10T18:02:57Z</time></trkpt><trkpt lat="41.688679737439834" lon="13.320958111161527"><ele>268.5</ele><time>2026-04-10T18:02:58Z</time></trkpt><trkpt lat="41.68867000063267" lon="13.32113875710388"><ele>268.0</ele><time>2026-04-10T18:02:59Z</time></trkpt><trkpt lat="41.68866041008333" lon="13.32131668952513"><ele>267.5</ele><time>2026-04-10T18:03:00Z</time></trkpt><trkpt lat="41.68865091845787" lon="13.321492786624777"><ele>267.0</ele><time>2026-04-10T18:03:01Z</time></trkpt><trkpt lat="41.688641659806024" lon="13.321664561935341"><ele>266.75</ele><time>2026-04-10T18:03:02Z</time></trkpt><trkpt lat="41.688649334746444" lon="13.321836313654185"><ele>266.5</ele><time>2026-04-10T18:03:03Z</time></trkpt><trkpt lat="41.68862391925531" lon="13.322003377911273"><ele>266.25</ele><time>2026-04-10T18:03:04Z</time></trkpt><trkpt lat="41.68861604771449" lon="13.322169381937618"><ele>266.0</ele><time>2026-04-10T18:03:05Z</time></trkpt><trkpt lat="41.68860825644685" lon="13.322334408715603"><ele>265.5</ele><time>2026-04-10T18:03:06Z</time></trkpt><trkpt lat="41.68860076066647" lon="13.32249539019121"><ele>265.0</ele><time>2026-04-10T18:03:07Z</time></trkpt><trkpt lat="41.68859412388285" lon="13.322656590240586"><ele>264.5</ele><time>2026-04-10T18:03:08Z</time></trkpt><trkpt lat="41.68858940588313" lon="13.322815805875726"><ele>264.0</ele><time>2026-04-10T18:03:09Z</time></trkpt><trkpt lat="41.688587819797924" lon="13.322973264507358"><ele>263.8</ele><time>2026-04-10T18:03:10Z</time></trkpt><trkpt lat="41.68860201382189" lon="13.323122968491553"><ele>263.59999999999997</ele><time>2026-04-10T18:03:11Z</time></trkpt><trkpt lat="41.688596726536964" lon="13.323254659038449"><ele>263.4</ele><time>2026-04-10T18:03:12Z</time></trkpt><trkpt lat="41.688593994760595" lon="13.323374244147528"><ele>263.2</ele><time>2026-04-10T18:03:13Z</time></trkpt><trkpt lat="41.68860787857493" lon="13.323485912192039"><ele>263.0</ele><time>2026-04-10T18:03:14Z</time></trkpt><trkpt lat="41.68860939557895" lon="13.323589722071844"><ele>263.0</ele><time>2026-04-10T18:03:15Z</time></trkpt><trkpt lat="41.688610882972725" lon="13.323685030545628"><ele>263.0</ele><time>2026-04-10T18:03:16Z</time></trkpt><trkpt lat="41.688614094431585" lon="13.323773538878928"><ele>263.0</ele><time>2026-04-10T18:03:17Z</time></trkpt><trkpt lat="41.68861291754428" lon="13.323924732949843"><ele>263.0</ele><time>2026-04-10T18:03:19Z</time></trkpt><trkpt lat="41.688593118346716" lon="13.324032920017164"><ele>263.0</ele><time>2026-04-10T18:03:21Z</time></trkpt><trkpt lat="41.68857405083727" lon="13.324138643162819"><ele>263.0</ele><time>2026-04-10T18:03:23Z</time></trkpt><trkpt lat="41.68852430560875" lon="13.3242582418077"><ele>262.4</ele><time>2026-04-10T18:03:25Z</time></trkpt><trkpt lat="41.68859556947782" lon="13.32440960187299"><ele>261.8</ele><time>2026-04-10T18:03:26Z</time></trkpt><trkpt lat="41.688621017419045" lon="13.324511910456804"><ele>261.2</ele><time>2026-04-10T18:03:27Z</time></trkpt><trkpt lat="41.68864523027151" lon="13.324622572227371"><ele>260.6</ele><time>2026-04-10T18:03:28Z</time></trkpt><trkpt lat="41.688666771508515" lon="13.324741088985322"><ele>260.0</ele><time>2026-04-10T18:03:29Z</time></trkpt><trkpt lat="41.68868595295675" lon="13.324863286163273"><ele>259.6666666666667</ele><time>2026-04-10T18:03:30Z</time></trkpt><trkpt lat="41.68870268007417" lon="13.324984009011626"><ele>259.33333333333337</ele><time>2026-04-10T18:03:31Z</time></trkpt><trkpt lat="41.68873170825343" lon="13.325096338761796"><ele>259.0</ele><time>2026-04-10T18:03:32Z</time></trkpt><trkpt lat="41.688739310225124" lon="13.325204377845463"><ele>258.6666666666667</ele><time>2026-04-10T18:03:33Z</time></trkpt><trkpt lat="41.68874703690275" lon="13.3253054871955"><ele>258.3333333333333</ele><time>2026-04-10T18:03:34Z</time></trkpt><trkpt lat="41.6887544111109" lon="13.325406587135964"><ele>258.0</ele><time>2026-04-10T18:03:35Z</time></trkpt><trkpt lat="41.68876265114461" lon="13.325501898357102"><ele>257.6666666666667</ele><time>2026-04-10T18:03:36Z</time></trkpt><trkpt lat="41.68876985458901" lon="13.325592485258454"><ele>257.3333333333333</ele><time>2026-04-10T18:03:37Z</time></trkpt><trkpt lat="41.688778513221436" lon="13.32574751857322"><ele>257.0</ele><time>2026-04-10T18:03:39Z</time></trkpt><trkpt lat="41.688782225553325" lon="13.325851937895575"><ele>256.66666666666663</ele><time>2026-04-10T18:03:41Z</time></trkpt><trkpt lat="41.68878639764117" lon="13.325999296663227"><ele>256.3333333333333</ele><time>2026-04-10T18:03:43Z</time></trkpt><trkpt lat="41.68878757093316" lon="13.326085908833262"><ele>256.0</ele><time>2026-04-10T18:03:44Z</time></trkpt><trkpt lat="41.68878775546224" lon="13.326181704360556"><ele>255.99999999999997</ele><time>2026-04-10T18:03:45Z</time></trkpt><trkpt lat="41.688788367652585" lon="13.32628555729104"><ele>256.0</ele><time>2026-04-10T18:03:46Z</time></trkpt><trkpt lat="41.6887872249181" lon="13.326393922997113"><ele>256.0</ele><time>2026-04-10T18:03:47Z</time></trkpt><trkpt lat="41.68878730079883" lon="13.326508618729841"><ele>256.0</ele><time>2026-04-10T18:03:48Z</time></trkpt><trkpt lat="41.68879190270025" lon="13.326626159428361"><ele>255.99999999999997</ele><time>2026-04-10T18:03:49Z</time></trkpt><trkpt lat="41.688789809289396" lon="13.326752822127611"><ele>256.0</ele><time>2026-04-10T18:03:50Z</time></trkpt><trkpt lat="41.68879737214162" lon="13.326883700165837"><ele>255.60000000000002</ele><time>2026-04-10T18:03:51Z</time></trkpt><trkpt lat="41.688804123075265" lon="13.327014996227309"><ele>255.20000000000002</ele><time>2026-04-10T18:03:52Z</time></trkpt><trkpt lat="41.68881147590294" lon="13.32714381216556"><ele>254.79999999999998</ele><time>2026-04-10T18:03:53Z</time></trkpt><trkpt lat="41.68882344221163" lon="13.327269676905361"><ele>254.39999999999998</ele><time>2026-04-10T18:03:54Z</time></trkpt><trkpt lat="41.68883665736948" lon="13.327403615557415"><ele>254.0</ele><time>2026-04-10T18:03:55Z</time></trkpt><trkpt lat="41.68884966827414" lon="13.327534289665598"><ele>253.79999999999998</ele><time>2026-04-10T18:03:56Z</time></trkpt><trkpt lat="41.688870078549364" lon="13.327677175880142"><ele>253.59999999999997</ele><time>2026-04-10T18:03:57Z</time></trkpt><trkpt lat="41.68889173771882" lon="13.32781778312245"><ele>253.4</ele><time>2026-04-10T18:03:58Z</time></trkpt><trkpt lat="41.68891312307711" lon="13.327966081061577"><ele>253.2</ele><time>2026-04-10T18:03:59Z</time></trkpt><trkpt lat="41.68893460320004" lon="13.328120949608023"><ele>253.0</ele><time>2026-04-10T18:04:00Z</time></trkpt><trkpt lat="41.68896001750654" lon="13.328277093416643"><ele>253.0</ele><time>2026-04-10T18:04:01Z</time></trkpt><trkpt lat="41.688984596350565" lon="13.328439626934989"><ele>253.0</ele><time>2026-04-10T18:04:02Z</time></trkpt><trkpt lat="41.68901762865012" lon="13.328606715653757"><ele>253.0</ele><time>2026-04-10T18:04:03Z</time></trkpt><trkpt lat="41.68904831432248" lon="13.328778300028098"><ele>253.0</ele><time>2026-04-10T18:04:04Z</time></trkpt><trkpt lat="41.68907756000842" lon="13.328944618863378"><ele>253.0</ele><time>2026-04-10T18:04:05Z</time></trkpt><trkpt lat="41.68910342159289" lon="13.329111011759881"><ele>253.0</ele><time>2026-04-10T18:04:06Z</time></trkpt><trkpt lat="41.68912852139504" lon="13.329275921119235"><ele>253.0</ele><time>2026-04-10T18:04:07Z</time></trkpt><trkpt lat="41.6891654955014" lon="13.329437119694301"><ele>253.0</ele><time>2026-04-10T18:04:08Z</time></trkpt><trkpt lat="41.68918895088796" lon="13.329607877144138"><ele>253.25</ele><time>2026-04-10T18:04:09Z</time></trkpt><trkpt lat="41.68921300991106" lon="13.329767856065095"><ele>253.5</ele><time>2026-04-10T18:04:10Z</time></trkpt><trkpt lat="41.689234444976634" lon="13.329932717109042"><ele>253.75</ele><time>2026-04-10T18:04:11Z</time></trkpt><trkpt lat="41.689253197285005" lon="13.330100391698208"><ele>254.0</ele><time>2026-04-10T18:04:12Z</time></trkpt><trkpt lat="41.689269999835325" lon="13.330271478168335"><ele>254.0</ele><time>2026-04-10T18:04:13Z</time></trkpt><trkpt lat="41.68928675163368" lon="13.33044354707966"><ele>254.0</ele><time>2026-04-10T18:04:14Z</time></trkpt><trkpt lat="41.68930237906065" lon="13.330618934520464"><ele>254.0</ele><time>2026-04-10T18:04:15Z</time></trkpt><trkpt lat="41.689318523969774" lon="13.330797833888733"><ele>254.0</ele><time>2026-04-10T18:04:16Z</time></trkpt><trkpt lat="41.68931294100714" lon="13.330976171835648"><ele>254.0</ele><time>2026-04-10T18:04:17Z</time></trkpt><trkpt lat="41.689323005826594" lon="13.33115507181898"><ele>254.0</ele><time>2026-04-10T18:04:18Z</time></trkpt><trkpt lat="41.68933298770588" lon="13.331335391917593"><ele>254.0</ele><time>2026-04-10T18:04:19Z</time></trkpt><trkpt lat="41.68934289170154" lon="13.331511987603093"><ele>254.0</ele><time>2026-04-10T18:04:20Z</time></trkpt><trkpt lat="41.68936918269038" lon="13.331691169791304"><ele>254.0</ele><time>2026-04-10T18:04:21Z</time></trkpt><trkpt lat="41.68937918690589" lon="13.331872372411581"><ele>254.0</ele><time>2026-04-10T18:04:22Z</time></trkpt><trkpt lat="41.689389564356794" lon="13.33205174226335"><ele>254.0</ele><time>2026-04-10T18:04:23Z</time></trkpt><trkpt lat="41.68940015234103" lon="13.332229762299116"><ele>254.0</ele><time>2026-04-10T18:04:24Z</time></trkpt><trkpt lat="41.689389796300034" lon="13.332411528072667"><ele>253.5</ele><time>2026-04-10T18:04:25Z</time></trkpt><trkpt lat="41.68939875850039" lon="13.332587799565037"><ele>253.0</ele><time>2026-04-10T18:04:26Z</time></trkpt><trkpt lat="41.68940736611116" lon="13.332765575586222"><ele>252.5</ele><time>2026-04-10T18:04:27Z</time></trkpt><trkpt lat="41.68941576479719" lon="13.332941575692278"><ele>252.0</ele><time>2026-04-10T18:04:28Z</time></trkpt><trkpt lat="41.68942420853822" lon="13.333118520051634"><ele>253.75</ele><time>2026-04-10T18:04:29Z</time></trkpt><trkpt lat="41.689432423451905" lon="13.333290669105281"><ele>255.5</ele><time>2026-04-10T18:04:30Z</time></trkpt><trkpt lat="41.68944059881605" lon="13.333463973984427"><ele>257.25</ele><time>2026-04-10T18:04:31Z</time></trkpt><trkpt lat="41.68944883495777" lon="13.333640959498869"><ele>259.0</ele><time>2026-04-10T18:04:32Z</time></trkpt><trkpt lat="41.689456632490376" lon="13.33380851975737"><ele>259.0</ele><time>2026-04-10T18:04:33Z</time></trkpt><trkpt lat="41.689479573266986" lon="13.333974794585847"><ele>259.0</ele><time>2026-04-10T18:04:34Z</time></trkpt><trkpt lat="41.68948651578239" lon="13.334146056833488"><ele>259.0</ele><time>2026-04-10T18:04:35Z</time></trkpt><trkpt lat="41.68949500329533" lon="13.334314545636866"><ele>259.0</ele><time>2026-04-10T18:04:36Z</time></trkpt><trkpt lat="41.68950475790772" lon="13.334481212911717"><ele>259.0</ele><time>2026-04-10T18:04:37Z</time></trkpt><trkpt lat="41.689511186202175" lon="13.334640145826967"><ele>259.0</ele><time>2026-04-10T18:04:38Z</time></trkpt><trkpt lat="41.689513884110575" lon="13.334798176052667"><ele>259.0</ele><time>2026-04-10T18:04:39Z</time></trkpt><trkpt lat="41.689521439622986" lon="13.334949573571905"><ele>259.0</ele><time>2026-04-10T18:04:40Z</time></trkpt><trkpt lat="41.68952861392559" lon="13.335094452656696"><ele>259.0</ele><time>2026-04-10T18:04:41Z</time></trkpt><trkpt lat="41.689536279709785" lon="13.335235076056687"><ele>259.0</ele><time>2026-04-10T18:04:42Z</time></trkpt><trkpt lat="41.68954644496259" lon="13.33537537622276"><ele>259.0</ele><time>2026-04-10T18:04:43Z</time></trkpt><trkpt lat="41.68955411136527" lon="13.335497988532602"><ele>259.0</ele><time>2026-04-10T18:04:44Z</time></trkpt><trkpt lat="41.68956331319014" lon="13.335623628836048"><ele>259.0</ele><time>2026-04-10T18:04:45Z</time></trkpt><trkpt lat="41.6895761053116" lon="13.335735411969292"><ele>259.0</ele><time>2026-04-10T18:04:46Z</time></trkpt><trkpt lat="41.689587645598436" lon="13.335859140711186"><ele>259.0</ele><time>2026-04-10T18:04:47Z</time></trkpt><trkpt lat="41.68959979172379" lon="13.335973280660715"><ele>259.0</ele><time>2026-04-10T18:04:48Z</time></trkpt><trkpt lat="41.689617951954766" lon="13.336085845140941"><ele>259.0</ele><time>2026-04-10T18:04:49Z</time></trkpt><trkpt lat="41.68963326452197" lon="13.336183411844683"><ele>259.0</ele><time>2026-04-10T18:04:50Z</time></trkpt><trkpt lat="41.68965253072922" lon="13.336271822958285"><ele>259.0</ele><time>2026-04-10T18:04:51Z</time></trkpt><trkpt lat="41.68968459352431" lon="13.336425712364365"><ele>259.0</ele><time>2026-04-10T18:04:53Z</time></trkpt><trkpt lat="41.68970372961723" lon="13.336521490084358"><ele>259.0</ele><time>2026-04-10T18:04:55Z</time></trkpt><trkpt lat="41.689721851657914" lon="13.336611683532247"><ele>259.0</ele><time>2026-04-10T18:04:58Z</time></trkpt><trkpt lat="41.68974455666415" lon="13.336717686907148"><ele>259.0</ele><time>2026-04-10T18:05:01Z</time></trkpt><trkpt lat="41.68976897612774" lon="13.336826544041433"><ele>259.0</ele><time>2026-04-10T18:05:03Z</time></trkpt><trkpt lat="41.689796143872364" lon="13.336950013537562"><ele>259.0</ele><time>2026-04-10T18:05:05Z</time></trkpt><trkpt lat="41.689831612140125" lon="13.337101296046994"><ele>259.0</ele><time>2026-04-10T18:05:07Z</time></trkpt><trkpt lat="41.689851505062094" lon="13.33718604138397"><ele>259.0</ele><time>2026-04-10T18:05:08Z</time></trkpt><trkpt lat="41.68987341337147" lon="13.337277169975128"><ele>259.0</ele><time>2026-04-10T18:05:09Z</time></trkpt><trkpt lat="41.68989817854915" lon="13.337368228001237"><ele>259.0</ele><time>2026-04-10T18:05:10Z</time></trkpt><trkpt lat="41.68992500215833" lon="13.337455771938053"><ele>259.0</ele><time>2026-04-10T18:05:11Z</time></trkpt><trkpt lat="41.6899532102034" lon="13.33754026613946"><ele>259.0</ele><time>2026-04-10T18:05:12Z</time></trkpt><trkpt lat="41.68998013263743" lon="13.337620757847267"><ele>259.0</ele><time>2026-04-10T18:05:13Z</time></trkpt><trkpt lat="41.69002719505127" lon="13.337757011506032"><ele>259.0</ele><time>2026-04-10T18:05:15Z</time></trkpt><trkpt lat="41.690024900342834" lon="13.337841487830438"><ele>259.0</ele><time>2026-04-10T18:05:17Z</time></trkpt><trkpt lat="41.6899248387244" lon="13.33781355184921"><ele>259.0</ele><time>2026-04-10T18:05:20Z</time></trkpt><trkpt lat="41.68980424238362" lon="13.337758997669296"><ele>259.0</ele><time>2026-04-10T18:05:22Z</time></trkpt><trkpt lat="41.68973096020429" lon="13.33771093448986"><ele>259.0</ele><time>2026-04-10T18:05:23Z</time></trkpt><trkpt lat="41.68964472308062" lon="13.337655890066353"><ele>259.0</ele><time>2026-04-10T18:05:24Z</time></trkpt><trkpt lat="41.68956068562585" lon="13.337599745230673"><ele>259.0</ele><time>2026-04-10T18:05:25Z</time></trkpt><trkpt lat="41.689470840855165" lon="13.337538323253872"><ele>259.0</ele><time>2026-04-10T18:05:26Z</time></trkpt><trkpt lat="41.68937697020103" lon="13.337472125453552"><ele>259.0</ele><time>2026-04-10T18:05:27Z</time></trkpt><trkpt lat="41.68927641811362" lon="13.337404860517124"><ele>259.0</ele><time>2026-04-10T18:05:28Z</time></trkpt><trkpt lat="41.689171470834935" lon="13.337333919719985"><ele>258.5</ele><time>2026-04-10T18:05:29Z</time></trkpt><trkpt lat="41.689063726581345" lon="13.33726162393608"><ele>258.0</ele><time>2026-04-10T18:05:30Z</time></trkpt><trkpt lat="41.688956182650514" lon="13.337185134410289"><ele>257.5</ele><time>2026-04-10T18:05:31Z</time></trkpt><trkpt lat="41.68884571233191" lon="13.337111052478965"><ele>257.0</ele><time>2026-04-10T18:05:32Z</time></trkpt><trkpt lat="41.68873307944885" lon="13.337033437858112"><ele>256.75</ele><time>2026-04-10T18:05:33Z</time></trkpt><trkpt lat="41.688623443309936" lon="13.336958082131668"><ele>256.5</ele><time>2026-04-10T18:05:34Z</time></trkpt><trkpt lat="41.68851733796339" lon="13.336881310904293"><ele>256.25</ele><time>2026-04-10T18:05:35Z</time></trkpt><trkpt lat="41.688415926097434" lon="13.3368046099075"><ele>256.0</ele><time>2026-04-10T18:05:36Z</time></trkpt><trkpt lat="41.68831368992868" lon="13.336727597649775"><ele>255.5</ele><time>2026-04-10T18:05:37Z</time></trkpt><trkpt lat="41.688215655017885" lon="13.336646346787463"><ele>255.0</ele><time>2026-04-10T18:05:38Z</time></trkpt><trkpt lat="41.688119166569194" lon="13.336556421028996"><ele>254.5</ele><time>2026-04-10T18:05:39Z</time></trkpt><trkpt lat="41.68802057867194" lon="13.336466545129342"><ele>254.0</ele><time>2026-04-10T18:05:40Z</time></trkpt><trkpt lat="41.68791940789535" lon="13.33637177804039"><ele>254.0</ele><time>2026-04-10T18:05:41Z</time></trkpt><trkpt lat="41.68781669724883" lon="13.33627469195868"><ele>254.0</ele><time>2026-04-10T18:05:42Z</time></trkpt><trkpt lat="41.68771204214937" lon="13.336174648112346"><ele>254.0</ele><time>2026-04-10T18:05:43Z</time></trkpt><trkpt lat="41.6876042681311" lon="13.336069070415485"><ele>254.0</ele><time>2026-04-10T18:05:44Z</time></trkpt><trkpt lat="41.687496891756" lon="13.335962292780392"><ele>253.0</ele><time>2026-04-10T18:05:45Z</time></trkpt><trkpt lat="41.68738972590649" lon="13.335857369676129"><ele>252.0</ele><time>2026-04-10T18:05:46Z</time></trkpt><trkpt lat="41.68728597795994" lon="13.33576074849577"><ele>251.0</ele><time>2026-04-10T18:05:47Z</time></trkpt><trkpt lat="41.687183536730934" lon="13.335669235383023"><ele>250.0</ele><time>2026-04-10T18:05:48Z</time></trkpt><trkpt lat="41.68708641688542" lon="13.335571792588647"><ele>249.75</ele><time>2026-04-10T18:05:49Z</time></trkpt><trkpt lat="41.68699338407253" lon="13.33547583294438"><ele>249.5</ele><time>2026-04-10T18:05:50Z</time></trkpt><trkpt lat="41.68689937318035" lon="13.335379866318066"><ele>249.25</ele><time>2026-04-10T18:05:51Z</time></trkpt><trkpt lat="41.68680500058215" lon="13.335282305089308"><ele>249.0</ele><time>2026-04-10T18:05:52Z</time></trkpt><trkpt lat="41.68671890608659" lon="13.33518284727184"><ele>249.0</ele><time>2026-04-10T18:05:53Z</time></trkpt><trkpt lat="41.6866267635558" lon="13.335088444030395"><ele>249.0</ele><time>2026-04-10T18:05:54Z</time></trkpt><trkpt lat="41.68652347257287" lon="13.335016845924988"><ele>249.0</ele><time>2026-04-10T18:05:55Z</time></trkpt><trkpt lat="41.68640244798579" lon="13.334962798926325"><ele>249.0</ele><time>2026-04-10T18:05:56Z</time></trkpt><trkpt lat="41.68628630933211" lon="13.334915639232348"><ele>249.0</ele><time>2026-04-10T18:05:57Z</time></trkpt><trkpt lat="41.6861692523271" lon="13.334862661613366"><ele>249.0</ele><time>2026-04-10T18:05:58Z</time></trkpt><trkpt lat="41.68605149546781" lon="13.334815878424644"><ele>249.0</ele><time>2026-04-10T18:05:59Z</time></trkpt><trkpt lat="41.68593591621836" lon="13.334768066598112"><ele>249.0</ele><time>2026-04-10T18:06:00Z</time></trkpt><trkpt lat="41.685822714601" lon="13.334728877311642"><ele>248.6</ele><time>2026-04-10T18:06:01Z</time></trkpt><trkpt lat="41.68570876726855" lon="13.334695417781981"><ele>248.2</ele><time>2026-04-10T18:06:02Z</time></trkpt><trkpt lat="41.68559910006664" lon="13.33466569090531"><ele>247.79999999999998</ele><time>2026-04-10T18:06:03Z</time></trkpt><trkpt lat="41.685491456915564" lon="13.334640517223031"><ele>247.39999999999998</ele><time>2026-04-10T18:06:04Z</time></trkpt><trkpt lat="41.68538883403096" lon="13.334617694622466"><ele>247.0</ele><time>2026-04-10T18:06:05Z</time></trkpt><trkpt lat="41.68529156283513" lon="13.334595555338616"><ele>247.39999999999998</ele><time>2026-04-10T18:06:06Z</time></trkpt><trkpt lat="41.68520572678547" lon="13.334577164419535"><ele>247.79999999999998</ele><time>2026-04-10T18:06:07Z</time></trkpt><trkpt lat="41.68513708735008" lon="13.33456098153896"><ele>248.2</ele><time>2026-04-10T18:06:08Z</time></trkpt><trkpt lat="41.685073882137615" lon="13.334528285474345"><ele>248.6</ele><time>2026-04-10T18:06:09Z</time></trkpt><trkpt lat="41.68498776501972" lon="13.334511221110754"><ele>249.0</ele><time>2026-04-10T18:06:11Z</time></trkpt><trkpt lat="41.685021619346784" lon="13.334291117284153"><ele>249.0</ele><time>2026-04-10T18:06:14Z</time></trkpt><trkpt lat="41.685061278680614" lon="13.334121983490883"><ele>248.99999999999997</ele><time>2026-04-10T18:06:16Z</time></trkpt><trkpt lat="41.68511071077736" lon="13.334024495716582"><ele>248.99999999999997</ele><time>2026-04-10T18:06:17Z</time></trkpt><trkpt lat="41.68515383643361" lon="13.333899368508947"><ele>249.0</ele><time>2026-04-10T18:06:18Z</time></trkpt><trkpt lat="41.685204283587694" lon="13.333753656752156"><ele>249.0</ele><time>2026-04-10T18:06:19Z</time></trkpt><trkpt lat="41.68524029104812" lon="13.333598019811749"><ele>248.25</ele><time>2026-04-10T18:06:20Z</time></trkpt><trkpt lat="41.68530004548347" lon="13.333436367055596"><ele>247.5</ele><time>2026-04-10T18:06:21Z</time></trkpt><trkpt lat="41.68536080201222" lon="13.333282212536078"><ele>246.75</ele><time>2026-04-10T18:06:22Z</time></trkpt><trkpt lat="41.68542071753605" lon="13.333136028963848"><ele>246.0</ele><time>2026-04-10T18:06:23Z</time></trkpt><trkpt lat="41.68547645939715" lon="13.333005845142146"><ele>246.0</ele><time>2026-04-10T18:06:24Z</time></trkpt><trkpt lat="41.68553154699938" lon="13.332880871336844"><ele>246.00000000000003</ele><time>2026-04-10T18:06:25Z</time></trkpt><trkpt lat="41.68558593141511" lon="13.332755358199014"><ele>246.00000000000003</ele><time>2026-04-10T18:06:26Z</time></trkpt><trkpt lat="41.68563846310472" lon="13.332633934119063"><ele>246.0</ele><time>2026-04-10T18:06:27Z</time></trkpt><trkpt lat="41.68568362242706" lon="13.332504128609976"><ele>246.0</ele><time>2026-04-10T18:06:28Z</time></trkpt><trkpt lat="41.685722111777054" lon="13.332361562564245"><ele>245.5</ele><time>2026-04-10T18:06:29Z</time></trkpt><trkpt lat="41.685747527857835" lon="13.332206796372489"><ele>245.0</ele><time>2026-04-10T18:06:30Z</time></trkpt><trkpt lat="41.68576642214317" lon="13.332050222217585"><ele>244.5</ele><time>2026-04-10T18:06:31Z</time></trkpt><trkpt lat="41.68578423003104" lon="13.331895206129353"><ele>244.0</ele><time>2026-04-10T18:06:32Z</time></trkpt><trkpt lat="41.685804093129526" lon="13.331739277624337"><ele>244.0</ele><time>2026-04-10T18:06:33Z</time></trkpt><trkpt lat="41.68582413211553" lon="13.331578447643423"><ele>244.0</ele><time>2026-04-10T18:06:34Z</time></trkpt><trkpt lat="41.685850746692665" lon="13.331410904076165"><ele>244.0</ele><time>2026-04-10T18:06:35Z</time></trkpt><trkpt lat="41.68587904002621" lon="13.331239720073183"><ele>244.0</ele><time>2026-04-10T18:06:36Z</time></trkpt><trkpt lat="41.68590720714765" lon="13.331066085325306"><ele>243.25</ele><time>2026-04-10T18:06:37Z</time></trkpt><trkpt lat="41.68593300034454" lon="13.330895165442449"><ele>242.5</ele><time>2026-04-10T18:06:38Z</time></trkpt><trkpt lat="41.68595353628829" lon="13.330727441235545"><ele>241.75</ele><time>2026-04-10T18:06:39Z</time></trkpt><trkpt lat="41.68596037313428" lon="13.330561282622138"><ele>241.0</ele><time>2026-04-10T18:06:40Z</time></trkpt><trkpt lat="41.685955727479815" lon="13.330402133483439"><ele>241.0</ele><time>2026-04-10T18:06:41Z</time></trkpt><trkpt lat="41.685938232370084" lon="13.330250115974005"><ele>241.00000000000003</ele><time>2026-04-10T18:06:42Z</time></trkpt><trkpt lat="41.685906013578276" lon="13.330101263472182"><ele>241.00000000000003</ele><time>2026-04-10T18:06:43Z</time></trkpt><trkpt lat="41.68586940808516" lon="13.329962942275355"><ele>241.0</ele><time>2026-04-10T18:06:44Z</time></trkpt><trkpt lat="41.68583597832846" lon="13.329833722077568"><ele>241.0</ele><time>2026-04-10T18:06:45Z</time></trkpt><trkpt lat="41.68580270746649" lon="13.329712999946995"><ele>241.4</ele><time>2026-04-10T18:06:46Z</time></trkpt><trkpt lat="41.68576647463492" lon="13.329589891772232"><ele>241.8</ele><time>2026-04-10T18:06:47Z</time></trkpt><trkpt lat="41.68572340753434" lon="13.329461865234192"><ele>242.20000000000002</ele><time>2026-04-10T18:06:48Z</time></trkpt><trkpt lat="41.68567419388334" lon="13.329325772014144"><ele>242.60000000000002</ele><time>2026-04-10T18:06:49Z</time></trkpt><trkpt lat="41.685621101218146" lon="13.32918336811443"><ele>243.0</ele><time>2026-04-10T18:06:50Z</time></trkpt><trkpt lat="41.68556801503529" lon="13.329040938247855"><ele>243.0</ele><time>2026-04-10T18:06:51Z</time></trkpt><trkpt lat="41.68551650936427" lon="13.328899796972982"><ele>243.0</ele><time>2026-04-10T18:06:52Z</time></trkpt><trkpt lat="41.68545807773968" lon="13.32876373343534"><ele>243.0</ele><time>2026-04-10T18:06:53Z</time></trkpt><trkpt lat="41.68538268558263" lon="13.328644242831675"><ele>243.0</ele><time>2026-04-10T18:06:54Z</time></trkpt><trkpt lat="41.68529155558186" lon="13.328547552699035"><ele>242.25</ele><time>2026-04-10T18:06:55Z</time></trkpt><trkpt lat="41.685202197521484" lon="13.32845692036506"><ele>241.5</ele><time>2026-04-10T18:06:56Z</time></trkpt><trkpt lat="41.685124639713436" lon="13.328342583745364"><ele>240.75</ele><time>2026-04-10T18:06:57Z</time></trkpt><trkpt lat="41.685067755099" lon="13.328208401459875"><ele>240.0</ele><time>2026-04-10T18:06:58Z</time></trkpt><trkpt lat="41.68502985406461" lon="13.328061194219597"><ele>240.75</ele><time>2026-04-10T18:06:59Z</time></trkpt><trkpt lat="41.684997328953315" lon="13.327906987489499"><ele>241.5</ele><time>2026-04-10T18:07:00Z</time></trkpt><trkpt lat="41.68498005731213" lon="13.32774386807836"><ele>242.25</ele><time>2026-04-10T18:07:01Z</time></trkpt><trkpt lat="41.68497150832021" lon="13.327571864106913"><ele>243.0</ele><time>2026-04-10T18:07:02Z</time></trkpt><trkpt lat="41.68496715281701" lon="13.327394623875389"><ele>243.5</ele><time>2026-04-10T18:07:03Z</time></trkpt><trkpt lat="41.684964274189035" lon="13.327208830156957"><ele>244.0</ele><time>2026-04-10T18:07:04Z</time></trkpt><trkpt lat="41.68496195270421" lon="13.327007152036966"><ele>244.5</ele><time>2026-04-10T18:07:05Z</time></trkpt><trkpt lat="41.684960573874136" lon="13.326811453901291"><ele>245.0</ele><time>2026-04-10T18:07:06Z</time></trkpt><trkpt lat="41.68496086117978" lon="13.326617373797305"><ele>245.0</ele><time>2026-04-10T18:07:07Z</time></trkpt><trkpt lat="41.684965017981725" lon="13.326431391136477"><ele>245.0</ele><time>2026-04-10T18:07:08Z</time></trkpt><trkpt lat="41.68497023483375" lon="13.326252337731715"><ele>245.0</ele><time>2026-04-10T18:07:09Z</time></trkpt><trkpt lat="41.68497532294045" lon="13.326078833862734"><ele>245.0</ele><time>2026-04-10T18:07:10Z</time></trkpt><trkpt lat="41.68497976084317" lon="13.325908690648706"><ele>245.25</ele><time>2026-04-10T18:07:11Z</time></trkpt><trkpt lat="41.684983985053755" lon="13.325739457741996"><ele>245.5</ele><time>2026-04-10T18:07:12Z</time></trkpt><trkpt lat="41.684989380589556" lon="13.325572923769704"><ele>245.75</ele><time>2026-04-10T18:07:13Z</time></trkpt><trkpt lat="41.684997634468324" lon="13.325406388294583"><ele>246.0</ele><time>2026-04-10T18:07:14Z</time></trkpt><trkpt lat="41.685006125362584" lon="13.325239960826023"><ele>246.75</ele><time>2026-04-10T18:07:15Z</time></trkpt><trkpt lat="41.68501392618156" lon="13.325075437301667"><ele>247.5</ele><time>2026-04-10T18:07:16Z</time></trkpt><trkpt lat="41.6850223648672" lon="13.324911630590798"><ele>248.25</ele><time>2026-04-10T18:07:17Z</time></trkpt><trkpt lat="41.68503101024167" lon="13.324749597670555"><ele>249.0</ele><time>2026-04-10T18:07:18Z</time></trkpt><trkpt lat="41.68503967956265" lon="13.324590689000155"><ele>249.39999999999998</ele><time>2026-04-10T18:07:19Z</time></trkpt><trkpt lat="41.685048080388555" lon="13.324439351948909"><ele>249.79999999999998</ele><time>2026-04-10T18:07:20Z</time></trkpt><trkpt lat="41.68505992672615" lon="13.324294282640738"><ele>250.20000000000002</ele><time>2026-04-10T18:07:21Z</time></trkpt><trkpt lat="41.685080005505576" lon="13.324155205246354"><ele>250.60000000000002</ele><time>2026-04-10T18:07:22Z</time></trkpt><trkpt lat="41.685111381532174" lon="13.32401980452457"><ele>251.0</ele><time>2026-04-10T18:07:23Z</time></trkpt><trkpt lat="41.68515617750245" lon="13.323890341278696"><ele>251.20000000000002</ele><time>2026-04-10T18:07:24Z</time></trkpt><trkpt lat="41.685204489880086" lon="13.323762425464201"><ele>251.40000000000003</ele><time>2026-04-10T18:07:25Z</time></trkpt><trkpt lat="41.6852531666318" lon="13.32362767496112"><ele>251.6</ele><time>2026-04-10T18:07:26Z</time></trkpt><trkpt lat="41.68530718662606" lon="13.323493721560324"><ele>251.8</ele><time>2026-04-10T18:07:27Z</time></trkpt><trkpt lat="41.68535046664054" lon="13.323372391756166"><ele>252.0</ele><time>2026-04-10T18:07:28Z</time></trkpt><trkpt lat="41.685395822657426" lon="13.323256847501549"><ele>252.0</ele><time>2026-04-10T18:07:29Z</time></trkpt><trkpt lat="41.68543638596711" lon="13.32315402662161"><ele>252.0</ele><time>2026-04-10T18:07:30Z</time></trkpt><trkpt lat="41.68547687718301" lon="13.323047837079862"><ele>252.0</ele><time>2026-04-10T18:07:32Z</time></trkpt><trkpt lat="41.685511487513736" lon="13.322953511284478"><ele>252.0</ele><time>2026-04-10T18:07:38Z</time></trkpt><trkpt lat="41.685542408825626" lon="13.322869291145372"><ele>252.0</ele><time>2026-04-10T18:07:40Z</time></trkpt><trkpt lat="41.685586566543314" lon="13.322734485107556"><ele>252.0</ele><time>2026-04-10T18:07:42Z</time></trkpt><trkpt lat="41.68563606763095" lon="13.322596139104023"><ele>252.0</ele><time>2026-04-10T18:07:44Z</time></trkpt><trkpt lat="41.685671878568265" lon="13.32248458513665"><ele>252.0</ele><time>2026-04-10T18:07:46Z</time></trkpt><trkpt lat="41.68571789638131" lon="13.322380025284847"><ele>252.0</ele><time>2026-04-10T18:07:50Z</time></trkpt><trkpt lat="41.68578223925324" lon="13.322435631440738"><ele>252.0</ele><time>2026-04-10T18:07:52Z</time></trkpt><trkpt lat="41.685874171056625" lon="13.32247743935628"><ele>252.0</ele><time>2026-04-10T18:07:54Z</time></trkpt><trkpt lat="41.68598549218618" lon="13.32252806497734"><ele>252.0</ele><time>2026-04-10T18:07:56Z</time></trkpt><trkpt lat="41.6860523987679" lon="13.322558532318036"><ele>252.0</ele><time>2026-04-10T18:07:57Z</time></trkpt><trkpt lat="41.68613074983678" lon="13.322594965581526"><ele>252.0</ele><time>2026-04-10T18:07:58Z</time></trkpt><trkpt lat="41.686222489472" lon="13.322637624508367"><ele>252.0</ele><time>2026-04-10T18:07:59Z</time></trkpt><trkpt lat="41.68632266598909" lon="13.322684206612381"><ele>252.0</ele><time>2026-04-10T18:08:00Z</time></trkpt><trkpt lat="41.68642194926981" lon="13.322730373310927"><ele>252.0</ele><time>2026-04-10T18:08:01Z</time></trkpt><trkpt lat="41.68652879097587" lon="13.322780054700333"><ele>252.0</ele><time>2026-04-10T18:08:02Z</time></trkpt><trkpt lat="41.68664196306836" lon="13.322832679744218"><ele>252.0</ele><time>2026-04-10T18:08:03Z</time></trkpt><trkpt lat="41.68676239457272" lon="13.322889598676234"><ele>252.0</ele><time>2026-04-10T18:08:04Z</time></trkpt><trkpt lat="41.686889355003224" lon="13.322950936805624"><ele>252.25</ele><time>2026-04-10T18:08:05Z</time></trkpt><trkpt lat="41.68701946880477" lon="13.323014320547696"><ele>252.5</ele><time>2026-04-10T18:08:06Z</time></trkpt><trkpt lat="41.68714789577453" lon="13.323078277466797"><ele>252.75</ele><time>2026-04-10T18:08:07Z</time></trkpt><trkpt lat="41.68727985928094" lon="13.323144725528973"><ele>253.0</ele><time>2026-04-10T18:08:08Z</time></trkpt><trkpt lat="41.687413971104526" lon="13.323213619003393"><ele>253.0</ele><time>2026-04-10T18:08:09Z</time></trkpt><trkpt lat="41.68754976333645" lon="13.32328637617583"><ele>253.0</ele><time>2026-04-10T18:08:10Z</time></trkpt><trkpt lat="41.68768464072095" lon="13.323364093378073"><ele>253.0</ele><time>2026-04-10T18:08:11Z</time></trkpt><trkpt lat="41.68781345597749" lon="13.323446207078335"><ele>253.0</ele><time>2026-04-10T18:08:12Z</time></trkpt><trkpt lat="41.68793689655791" lon="13.323529473403186"><ele>254.5</ele><time>2026-04-10T18:08:13Z</time></trkpt><trkpt lat="41.68805368484106" lon="13.323615295386169"><ele>256.0</ele><time>2026-04-10T18:08:14Z</time></trkpt><trkpt lat="41.68816024892427" lon="13.3237077495751"><ele>257.5</ele><time>2026-04-10T18:08:15Z</time></trkpt><trkpt lat="41.68826016785936" lon="13.323805381215777"><ele>259.0</ele><time>2026-04-10T18:08:16Z</time></trkpt><trkpt lat="41.68833735112551" lon="13.323894678750616"><ele>259.25</ele><time>2026-04-10T18:08:17Z</time></trkpt><trkpt lat="41.68839716598948" lon="13.323977780335975"><ele>259.5</ele><time>2026-04-10T18:08:18Z</time></trkpt><trkpt lat="41.68844613859835" lon="13.324052078639914"><ele>259.75</ele><time>2026-04-10T18:08:19Z</time></trkpt><trkpt lat="41.68851591982575" lon="13.324175631730506"><ele>260.0</ele><time>2026-04-10T18:08:21Z</time></trkpt><trkpt lat="41.688658484711844" lon="13.32398718296194"><ele>260.75</ele><time>2026-04-10T18:08:25Z</time></trkpt><trkpt lat="41.6886438246247" lon="13.323864065562699"><ele>261.5</ele><time>2026-04-10T18:08:26Z</time></trkpt><trkpt lat="41.68863254066075" lon="13.323725353689845"><ele>262.25</ele><time>2026-04-10T18:08:27Z</time></trkpt><trkpt lat="41.68862153096267" lon="13.323562738780169"><ele>263.0</ele><time>2026-04-10T18:08:28Z</time></trkpt><trkpt lat="41.68861899433179" lon="13.323367106884675"><ele>263.0</ele><time>2026-04-10T18:08:29Z</time></trkpt><trkpt lat="41.688618928382176" lon="13.323137060699008"><ele>263.0</ele><time>2026-04-10T18:08:30Z</time></trkpt><trkpt lat="41.68861947240838" lon="13.322908656811007"><ele>263.0</ele><time>2026-04-10T18:08:31Z</time></trkpt><trkpt lat="41.68862504892293" lon="13.322643145826405"><ele>263.33333333333337</ele><time>2026-04-10T18:08:32Z</time></trkpt><trkpt lat="41.68863729445907" lon="13.322385354586478"><ele>263.6666666666667</ele><time>2026-04-10T18:08:33Z</time></trkpt><trkpt lat="41.68864980211049" lon="13.322118252278525"><ele>264.0</ele><time>2026-04-10T18:08:34Z</time></trkpt><trkpt lat="41.688661111029504" lon="13.32183326731591"><ele>264.6666666666667</ele><time>2026-04-10T18:08:35Z</time></trkpt><trkpt lat="41.688677131005804" lon="13.321564693277873"><ele>265.33333333333337</ele><time>2026-04-10T18:08:36Z</time></trkpt><trkpt lat="41.688688596765516" lon="13.321303550118028"><ele>266.0</ele><time>2026-04-10T18:08:37Z</time></trkpt><trkpt lat="41.68870679818871" lon="13.321046249573742"><ele>266.33333333333337</ele><time>2026-04-10T18:08:38Z</time></trkpt><trkpt lat="41.68872258366343" lon="13.320794784531273"><ele>266.6666666666667</ele><time>2026-04-10T18:08:39Z</time></trkpt><trkpt lat="41.68873725390975" lon="13.320546475242367"><ele>267.0</ele><time>2026-04-10T18:08:40Z</time></trkpt><trkpt lat="41.68875388245894" lon="13.320303880423827"><ele>267.6666666666667</ele><time>2026-04-10T18:08:41Z</time></trkpt><trkpt lat="41.68877214060752" lon="13.320065572554997"><ele>268.33333333333337</ele><time>2026-04-10T18:08:42Z</time></trkpt><trkpt lat="41.688791559408656" lon="13.319831571804773"><ele>269.0</ele><time>2026-04-10T18:08:43Z</time></trkpt><trkpt lat="41.68880851177535" lon="13.3196041303758"><ele>270.0</ele><time>2026-04-10T18:08:44Z</time></trkpt><trkpt lat="41.68881930568668" lon="13.319384694750953"><ele>271.0</ele><time>2026-04-10T18:08:45Z</time></trkpt><trkpt lat="41.68882567184454" lon="13.319177859756559"><ele>272.0</ele><time>2026-04-10T18:08:46Z</time></trkpt><trkpt lat="41.68883160802899" lon="13.318979160938282"><ele>273.0</ele><time>2026-04-10T18:08:47Z</time></trkpt><trkpt lat="41.68884460991091" lon="13.318791941212755"><ele>274.0</ele><time>2026-04-10T18:08:48Z</time></trkpt><trkpt lat="41.688873817897004" lon="13.31862084183433"><ele>275.0</ele><time>2026-04-10T18:08:49Z</time></trkpt><trkpt lat="41.68891760658099" lon="13.318466627418607"><ele>276.0</ele><time>2026-04-10T18:08:50Z</time></trkpt><trkpt lat="41.688950444262986" lon="13.318323234411707"><ele>276.0</ele><time>2026-04-10T18:08:51Z</time></trkpt><trkpt lat="41.68895551699437" lon="13.318176403083307"><ele>276.0</ele><time>2026-04-10T18:08:52Z</time></trkpt><trkpt lat="41.68893302838831" lon="13.318025899268024"><ele>276.0</ele><time>2026-04-10T18:08:53Z</time></trkpt><trkpt lat="41.68889374393273" lon="13.317867567074456"><ele>276.0</ele><time>2026-04-10T18:08:54Z</time></trkpt><trkpt lat="41.68886830419584" lon="13.317691320008155"><ele>275.5</ele><time>2026-04-10T18:08:55Z</time></trkpt><trkpt lat="41.688862873724005" lon="13.317503863913418"><ele>275.0</ele><time>2026-04-10T18:08:56Z</time></trkpt><trkpt lat="41.68886449572668" lon="13.31731121735973"><ele>274.5</ele><time>2026-04-10T18:08:57Z</time></trkpt><trkpt lat="41.688866475274" lon="13.317120558395299"><ele>274.0</ele><time>2026-04-10T18:08:58Z</time></trkpt><trkpt lat="41.68886648415522" lon="13.316935296180858"><ele>273.75</ele><time>2026-04-10T18:08:59Z</time></trkpt><trkpt lat="41.688854546069905" lon="13.316753632227785"><ele>273.5</ele><time>2026-04-10T18:09:00Z</time></trkpt><trkpt lat="41.688834724962696" lon="13.316564512448881"><ele>273.25</ele><time>2026-04-10T18:09:01Z</time></trkpt><trkpt lat="41.688823445188625" lon="13.316378788833436"><ele>273.0</ele><time>2026-04-10T18:09:02Z</time></trkpt><trkpt lat="41.68881752932048" lon="13.316190933997603"><ele>273.5</ele><time>2026-04-10T18:09:03Z</time></trkpt><trkpt lat="41.68880699336411" lon="13.316009533948897"><ele>274.0</ele><time>2026-04-10T18:09:04Z</time></trkpt><trkpt lat="41.68879092612578" lon="13.315831471066494"><ele>274.5</ele><time>2026-04-10T18:09:05Z</time></trkpt><trkpt lat="41.688768540940934" lon="13.315657763319956"><ele>275.0</ele><time>2026-04-10T18:09:06Z</time></trkpt><trkpt lat="41.68873909835064" lon="13.315493065903036"><ele>275.5</ele><time>2026-04-10T18:09:07Z</time></trkpt><trkpt lat="41.68871213426537" lon="13.315329478093057"><ele>276.0</ele><time>2026-04-10T18:09:08Z</time></trkpt><trkpt lat="41.688688777283836" lon="13.315168784191876"><ele>276.5</ele><time>2026-04-10T18:09:09Z</time></trkpt><trkpt lat="41.68866849317278" lon="13.315005451138987"><ele>277.0</ele><time>2026-04-10T18:09:10Z</time></trkpt><trkpt lat="41.68865112405411" lon="13.314840600717975"><ele>277.5</ele><time>2026-04-10T18:09:11Z</time></trkpt><trkpt lat="41.68863425408373" lon="13.314676585541775"><ele>278.0</ele><time>2026-04-10T18:09:12Z</time></trkpt><trkpt lat="41.688618735493115" lon="13.31451536747114"><ele>278.5</ele><time>2026-04-10T18:09:13Z</time></trkpt><trkpt lat="41.688608404281425" lon="13.31435050050282"><ele>279.0</ele><time>2026-04-10T18:09:14Z</time></trkpt><trkpt lat="41.68860041172331" lon="13.314184277317063"><ele>279.0</ele><time>2026-04-10T18:09:15Z</time></trkpt><trkpt lat="41.688595240655616" lon="13.31401775426055"><ele>279.0</ele><time>2026-04-10T18:09:16Z</time></trkpt><trkpt lat="41.688593152196205" lon="13.313860981502787"><ele>279.0</ele><time>2026-04-10T18:09:17Z</time></trkpt><trkpt lat="41.68859614598957" lon="13.313723400857825"><ele>279.0</ele><time>2026-04-10T18:09:18Z</time></trkpt><trkpt lat="41.68860288200466" lon="13.313590570798667"><ele>279.0</ele><time>2026-04-10T18:09:19Z</time></trkpt><trkpt lat="41.68861402936047" lon="13.313457935971217"><ele>278.5</ele><time>2026-04-10T18:09:20Z</time></trkpt><trkpt lat="41.688619087502126" lon="13.313309956533226"><ele>278.0</ele><time>2026-04-10T18:09:21Z</time></trkpt><trkpt lat="41.68863454471398" lon="13.313149329750278"><ele>277.5</ele><time>2026-04-10T18:09:22Z</time></trkpt><trkpt lat="41.688650649137564" lon="13.312978382771028"><ele>277.0</ele><time>2026-04-10T18:09:23Z</time></trkpt><trkpt lat="41.68866666509757" lon="13.312797141704987"><ele>276.5</ele><time>2026-04-10T18:09:24Z</time></trkpt><trkpt lat="41.68868209725567" lon="13.312607367479993"><ele>276.0</ele><time>2026-04-10T18:09:25Z</time></trkpt><trkpt lat="41.688696672308545" lon="13.31241385785703"><ele>275.5</ele><time>2026-04-10T18:09:26Z</time></trkpt><trkpt lat="41.68870994599034" lon="13.312222749873973"><ele>275.0</ele><time>2026-04-10T18:09:27Z</time></trkpt><trkpt lat="41.68872231972642" lon="13.312034163328041"><ele>274.25</ele><time>2026-04-10T18:09:28Z</time></trkpt><trkpt lat="41.68873700247311" lon="13.311842166224254"><ele>273.5</ele><time>2026-04-10T18:09:29Z</time></trkpt><trkpt lat="41.68875805779875" lon="13.311646556263996"><ele>272.75</ele><time>2026-04-10T18:09:30Z</time></trkpt><trkpt lat="41.68878583621687" lon="13.311452478099993"><ele>272.0</ele><time>2026-04-10T18:09:31Z</time></trkpt><trkpt lat="41.68881545826303" lon="13.311256605059407"><ele>270.75</ele><time>2026-04-10T18:09:32Z</time></trkpt><trkpt lat="41.68884270601035" lon="13.311058885986643"><ele>269.5</ele><time>2026-04-10T18:09:33Z</time></trkpt><trkpt lat="41.688868797184824" lon="13.3108618587443"><ele>268.25</ele><time>2026-04-10T18:09:34Z</time></trkpt><trkpt lat="41.68889635228266" lon="13.310666724289533"><ele>267.0</ele><time>2026-04-10T18:09:35Z</time></trkpt><trkpt lat="41.68892100853294" lon="13.310469506051268"><ele>266.0</ele><time>2026-04-10T18:09:36Z</time></trkpt><trkpt lat="41.68894302690758" lon="13.310276453149807"><ele>265.0</ele><time>2026-04-10T18:09:37Z</time></trkpt><trkpt lat="41.68896303127135" lon="13.310088677549631"><ele>264.0</ele><time>2026-04-10T18:09:38Z</time></trkpt><trkpt lat="41.68898693564828" lon="13.309906920331715"><ele>263.0</ele><time>2026-04-10T18:09:39Z</time></trkpt><trkpt lat="41.689011125470344" lon="13.309745503292405"><ele>262.0</ele><time>2026-04-10T18:09:40Z</time></trkpt><trkpt lat="41.6890355033969" lon="13.309595761551376"><ele>261.0</ele><time>2026-04-10T18:09:41Z</time></trkpt><trkpt lat="41.68905814933548" lon="13.309455428320566"><ele>260.0</ele><time>2026-04-10T18:09:42Z</time></trkpt><trkpt lat="41.6890772079201" lon="13.309320902781048"><ele>259.0</ele><time>2026-04-10T18:09:43Z</time></trkpt><trkpt lat="41.689101099903986" lon="13.309175304145818"><ele>258.0</ele><time>2026-04-10T18:09:44Z</time></trkpt><trkpt lat="41.689131439128275" lon="13.309016083346336"><ele>257.0</ele><time>2026-04-10T18:09:45Z</time></trkpt><trkpt lat="41.6891723991294" lon="13.308834783689942"><ele>256.0</ele><time>2026-04-10T18:09:46Z</time></trkpt><trkpt lat="41.68921363003959" lon="13.308646570196249"><ele>255.0</ele><time>2026-04-10T18:09:47Z</time></trkpt><trkpt lat="41.68926176722889" lon="13.308455185430136"><ele>254.0</ele><time>2026-04-10T18:09:48Z</time></trkpt><trkpt lat="41.68931621118484" lon="13.308260746137158"><ele>254.0</ele><time>2026-04-10T18:09:49Z</time></trkpt><trkpt lat="41.68937969251861" lon="13.30806919215278"><ele>254.0</ele><time>2026-04-10T18:09:50Z</time></trkpt><trkpt lat="41.689461139537734" lon="13.307889782474716"><ele>254.0</ele><time>2026-04-10T18:09:51Z</time></trkpt><trkpt lat="41.689562554372046" lon="13.307729121124249"><ele>257.33333333333337</ele><time>2026-04-10T18:09:52Z</time></trkpt><trkpt lat="41.689674519267314" lon="13.307582670995192"><ele>260.6666666666667</ele><time>2026-04-10T18:09:53Z</time></trkpt><trkpt lat="41.68978772843608" lon="13.307437354569663"><ele>264.0</ele><time>2026-04-10T18:09:54Z</time></trkpt><trkpt lat="41.68988943584109" lon="13.307278003215679"><ele>261.3333333333333</ele><time>2026-04-10T18:09:55Z</time></trkpt><trkpt lat="41.689972164176" lon="13.307094609557444"><ele>258.66666666666663</ele><time>2026-04-10T18:09:56Z</time></trkpt><trkpt lat="41.69004105101909" lon="13.306896809870585"><ele>256.0</ele><time>2026-04-10T18:09:57Z</time></trkpt><trkpt lat="41.69011050999802" lon="13.306694871732915"><ele>256.0</ele><time>2026-04-10T18:09:58Z</time></trkpt><trkpt lat="41.69018910616393" lon="13.306501045000706"><ele>256.0</ele><time>2026-04-10T18:09:59Z</time></trkpt><trkpt lat="41.69026302342726" lon="13.30630324759986"><ele>256.0</ele><time>2026-04-10T18:10:00Z</time></trkpt><trkpt lat="41.69032561006368" lon="13.306096240491915"><ele>259.3333333333333</ele><time>2026-04-10T18:10:01Z</time></trkpt><trkpt lat="41.690390288832226" lon="13.305885336139603"><ele>262.6666666666667</ele><time>2026-04-10T18:10:02Z</time></trkpt><trkpt lat="41.69046252203137" lon="13.305672580505746"><ele>266.0</ele><time>2026-04-10T18:10:03Z</time></trkpt><trkpt lat="41.69053774601694" lon="13.30545814116208"><ele>266.0</ele><time>2026-04-10T18:10:04Z</time></trkpt><trkpt lat="41.69061098688268" lon="13.305240763873282"><ele>266.0</ele><time>2026-04-10T18:10:05Z</time></trkpt><trkpt lat="41.6906809258564" lon="13.305019612428158"><ele>266.0</ele><time>2026-04-10T18:10:06Z</time></trkpt><trkpt lat="41.690747316647304" lon="13.304803229591457"><ele>263.6666666666667</ele><time>2026-04-10T18:10:07Z</time></trkpt><trkpt lat="41.69081153757862" lon="13.304590288897376"><ele>261.3333333333333</ele><time>2026-04-10T18:10:08Z</time></trkpt><trkpt lat="41.69087340874765" lon="13.3043830759163"><ele>259.0</ele><time>2026-04-10T18:10:09Z</time></trkpt><trkpt lat="41.690931575759336" lon="13.304178238572431"><ele>259.0</ele><time>2026-04-10T18:10:10Z</time></trkpt><trkpt lat="41.69099049210446" lon="13.30397743957292"><ele>259.0</ele><time>2026-04-10T18:10:11Z</time></trkpt><trkpt lat="41.69104189589247" lon="13.303780112861226"><ele>259.0</ele><time>2026-04-10T18:10:12Z</time></trkpt><trkpt lat="41.69108106990377" lon="13.303583060725773"><ele>267.0</ele><time>2026-04-10T18:10:13Z</time></trkpt><trkpt lat="41.69110106935882" lon="13.30338261909829"><ele>275.0</ele><time>2026-04-10T18:10:14Z</time></trkpt><trkpt lat="41.69110505783871" lon="13.303181877010642"><ele>283.0</ele><time>2026-04-10T18:10:15Z</time></trkpt><trkpt lat="41.69109890711256" lon="13.302976547518996"><ele>274.66666666666663</ele><time>2026-04-10T18:10:16Z</time></trkpt><trkpt lat="41.69108447929887" lon="13.302770344073934"><ele>266.3333333333333</ele><time>2026-04-10T18:10:17Z</time></trkpt><trkpt lat="41.69105886021794" lon="13.302562418566831"><ele>258.0</ele><time>2026-04-10T18:10:18Z</time></trkpt><trkpt lat="41.69103930768533" lon="13.302355859332623"><ele>258.0</ele><time>2026-04-10T18:10:19Z</time></trkpt><trkpt lat="41.690972543043294" lon="13.302163384578115"><ele>258.0</ele><time>2026-04-10T18:10:20Z</time></trkpt><trkpt lat="41.690926800474784" lon="13.301965053806311"><ele>258.0</ele><time>2026-04-10T18:10:21Z</time></trkpt><trkpt lat="41.69089829201888" lon="13.301762367809676"><ele>258.0</ele><time>2026-04-10T18:10:22Z</time></trkpt><trkpt lat="41.69088698998346" lon="13.301559015383942"><ele>258.0</ele><time>2026-04-10T18:10:23Z</time></trkpt><trkpt lat="41.6908938207026" lon="13.301362096527104"><ele>258.0</ele><time>2026-04-10T18:10:24Z</time></trkpt><trkpt lat="41.690910709236675" lon="13.30117378254278"><ele>258.0</ele><time>2026-04-10T18:10:25Z</time></trkpt><trkpt lat="41.69092722830575" lon="13.300998648540357"><ele>257.5</ele><time>2026-04-10T18:10:26Z</time></trkpt><trkpt lat="41.69093830561268" lon="13.300837712949566"><ele>257.0</ele><time>2026-04-10T18:10:27Z</time></trkpt><trkpt lat="41.69094156069011" lon="13.300686298625157"><ele>256.5</ele><time>2026-04-10T18:10:28Z</time></trkpt><trkpt lat="41.69094021667231" lon="13.300542620944292"><ele>256.0</ele><time>2026-04-10T18:10:29Z</time></trkpt><trkpt lat="41.69093525761468" lon="13.300394881759253"><ele>256.0</ele><time>2026-04-10T18:10:30Z</time></trkpt><trkpt lat="41.6909336983166" lon="13.300237408740301"><ele>256.0</ele><time>2026-04-10T18:10:31Z</time></trkpt><trkpt lat="41.69094083999025" lon="13.30006895212268"><ele>256.0</ele><time>2026-04-10T18:10:32Z</time></trkpt><trkpt lat="41.69095258676995" lon="13.299888160723802"><ele>256.0</ele><time>2026-04-10T18:10:33Z</time></trkpt><trkpt lat="41.69096915207211" lon="13.29969849287307"><ele>256.0</ele><time>2026-04-10T18:10:34Z</time></trkpt><trkpt lat="41.69098268955847" lon="13.299501727363516"><ele>256.0</ele><time>2026-04-10T18:10:35Z</time></trkpt><trkpt lat="41.690984572912086" lon="13.299297590321304"><ele>256.0</ele><time>2026-04-10T18:10:36Z</time></trkpt><trkpt lat="41.690974728679045" lon="13.299090574363136"><ele>256.3333333333333</ele><time>2026-04-10T18:10:37Z</time></trkpt><trkpt lat="41.69095897191067" lon="13.298876704596237"><ele>256.6666666666667</ele><time>2026-04-10T18:10:38Z</time></trkpt><trkpt lat="41.69094536293271" lon="13.298662544340395"><ele>257.0</ele><time>2026-04-10T18:10:39Z</time></trkpt><trkpt lat="41.690936082156114" lon="13.298450768885667"><ele>257.0</ele><time>2026-04-10T18:10:40Z</time></trkpt><trkpt lat="41.69093100612953" lon="13.29824885405715"><ele>257.0</ele><time>2026-04-10T18:10:41Z</time></trkpt><trkpt lat="41.69092987766381" lon="13.298060417519963"><ele>257.0</ele><time>2026-04-10T18:10:42Z</time></trkpt><trkpt lat="41.69092878043619" lon="13.297881009415114"><ele>257.0</ele><time>2026-04-10T18:10:43Z</time></trkpt><trkpt lat="41.690920549855484" lon="13.297704289884555"><ele>257.75</ele><time>2026-04-10T18:10:44Z</time></trkpt><trkpt lat="41.69090841853341" lon="13.297530635390276"><ele>258.5</ele><time>2026-04-10T18:10:45Z</time></trkpt><trkpt lat="41.690896672728314" lon="13.297357189422755"><ele>259.25</ele><time>2026-04-10T18:10:46Z</time></trkpt><trkpt lat="41.69089862706586" lon="13.297185060794524"><ele>260.0</ele><time>2026-04-10T18:10:47Z</time></trkpt><trkpt lat="41.69091562734025" lon="13.297017152824168"><ele>260.25</ele><time>2026-04-10T18:10:48Z</time></trkpt><trkpt lat="41.69094732253836" lon="13.296856737375228"><ele>260.5</ele><time>2026-04-10T18:10:49Z</time></trkpt><trkpt lat="41.69098617305521" lon="13.296700918995514"><ele>260.75</ele><time>2026-04-10T18:10:50Z</time></trkpt><trkpt lat="41.69103855960946" lon="13.2965722932448"><ele>261.0</ele><time>2026-04-10T18:10:51Z</time></trkpt><trkpt lat="41.691088530890376" lon="13.296450001713438"><ele>261.6</ele><time>2026-04-10T18:10:52Z</time></trkpt><trkpt lat="41.69113593147321" lon="13.296352133975851"><ele>262.20000000000005</ele><time>2026-04-10T18:10:53Z</time></trkpt><trkpt lat="41.6911782728941" lon="13.296257334786691"><ele>262.79999999999995</ele><time>2026-04-10T18:10:54Z</time></trkpt><trkpt lat="41.691217438059674" lon="13.29615729676914"><ele>263.4</ele><time>2026-04-10T18:10:55Z</time></trkpt><trkpt lat="41.69125991285719" lon="13.296042426998323"><ele>264.0</ele><time>2026-04-10T18:10:56Z</time></trkpt><trkpt lat="41.691336792565416" lon="13.295936878002438"><ele>264.0</ele><time>2026-04-10T18:10:57Z</time></trkpt><trkpt lat="41.69139157129589" lon="13.295792124620764"><ele>264.0</ele><time>2026-04-10T18:10:58Z</time></trkpt><trkpt lat="41.69146789834768" lon="13.295654871286711"><ele>264.0</ele><time>2026-04-10T18:10:59Z</time></trkpt><trkpt lat="41.691546070024444" lon="13.295510741193752"><ele>264.0</ele><time>2026-04-10T18:11:00Z</time></trkpt><trkpt lat="41.69162268129684" lon="13.295364707821845"><ele>263.75</ele><time>2026-04-10T18:11:01Z</time></trkpt><trkpt lat="41.691697382226174" lon="13.295229030269805"><ele>263.5</ele><time>2026-04-10T18:11:02Z</time></trkpt><trkpt lat="41.69177271384543" lon="13.295098236724694"><ele>263.25</ele><time>2026-04-10T18:11:03Z</time></trkpt><trkpt lat="41.69183676026261" lon="13.294965756834378"><ele>263.0</ele><time>2026-04-10T18:11:04Z</time></trkpt><trkpt lat="41.691877344466114" lon="13.294825122527165"><ele>262.6</ele><time>2026-04-10T18:11:05Z</time></trkpt><trkpt lat="41.691902894934465" lon="13.294679042692387"><ele>262.20000000000005</ele><time>2026-04-10T18:11:06Z</time></trkpt><trkpt lat="41.691910494317966" lon="13.294527161741067"><ele>261.8</ele><time>2026-04-10T18:11:07Z</time></trkpt><trkpt lat="41.69191413526738" lon="13.294376833302824"><ele>261.40000000000003</ele><time>2026-04-10T18:11:08Z</time></trkpt><trkpt lat="41.69191968236048" lon="13.294227758626581"><ele>261.0</ele><time>2026-04-10T18:11:09Z</time></trkpt><trkpt lat="41.69192632868421" lon="13.29408244818273"><ele>262.2</ele><time>2026-04-10T18:11:10Z</time></trkpt><trkpt lat="41.69193300363439" lon="13.29394171644715"><ele>263.40000000000003</ele><time>2026-04-10T18:11:11Z</time></trkpt><trkpt lat="41.69193942574335" lon="13.293806667649323"><ele>264.6</ele><time>2026-04-10T18:11:12Z</time></trkpt><trkpt lat="41.691946061878994" lon="13.293678097262982"><ele>265.8</ele><time>2026-04-10T18:11:13Z</time></trkpt><trkpt lat="41.691946468167146" lon="13.29355242374922"><ele>267.0</ele><time>2026-04-10T18:11:14Z</time></trkpt><trkpt lat="41.69195234515603" lon="13.293432668040104"><ele>267.6666666666667</ele><time>2026-04-10T18:11:15Z</time></trkpt><trkpt lat="41.69197269239545" lon="13.293317877736232"><ele>268.3333333333333</ele><time>2026-04-10T18:11:16Z</time></trkpt><trkpt lat="41.69200192435922" lon="13.293207296783518"><ele>269.0</ele><time>2026-04-10T18:11:17Z</time></trkpt><trkpt lat="41.692040058722554" lon="13.293105785525208"><ele>269.66666666666663</ele><time>2026-04-10T18:11:18Z</time></trkpt><trkpt lat="41.69208143464615" lon="13.293006451680231"><ele>270.3333333333333</ele><time>2026-04-10T18:11:19Z</time></trkpt><trkpt lat="41.692124024493786" lon="13.292910093951697"><ele>271.0</ele><time>2026-04-10T18:11:20Z</time></trkpt><trkpt lat="41.692166670407" lon="13.29281321626916"><ele>271.0</ele><time>2026-04-10T18:11:21Z</time></trkpt><trkpt lat="41.69220922799983" lon="13.292713087030398"><ele>271.0</ele><time>2026-04-10T18:11:22Z</time></trkpt><trkpt lat="41.69226095763606" lon="13.292613883780612"><ele>271.0</ele><time>2026-04-10T18:11:23Z</time></trkpt><trkpt lat="41.692327989791686" lon="13.292526759923001"><ele>271.0</ele><time>2026-04-10T18:11:24Z</time></trkpt><trkpt lat="41.69239334458066" lon="13.292439479117947"><ele>271.0</ele><time>2026-04-10T18:11:25Z</time></trkpt><trkpt lat="41.69245592554829" lon="13.292352465452858"><ele>270.6</ele><time>2026-04-10T18:11:26Z</time></trkpt><trkpt lat="41.69251042666721" lon="13.29225557041161"><ele>270.20000000000005</ele><time>2026-04-10T18:11:27Z</time></trkpt><trkpt lat="41.69255786545498" lon="13.292144783372835"><ele>269.79999999999995</ele><time>2026-04-10T18:11:28Z</time></trkpt><trkpt lat="41.692597435145686" lon="13.292017682652153"><ele>269.4</ele><time>2026-04-10T18:11:29Z</time></trkpt><trkpt lat="41.69263182573595" lon="13.291882270693964"><ele>269.0</ele><time>2026-04-10T18:11:30Z</time></trkpt><trkpt lat="41.692663237674026" lon="13.291746736030742"><ele>269.0</ele><time>2026-04-10T18:11:31Z</time></trkpt><trkpt lat="41.69269390476142" lon="13.291612849457547"><ele>269.0</ele><time>2026-04-10T18:11:32Z</time></trkpt><trkpt lat="41.69273014989445" lon="13.29148025300291"><ele>269.0</ele><time>2026-04-10T18:11:33Z</time></trkpt><trkpt lat="41.69277279122968" lon="13.291347556166095"><ele>269.0</ele><time>2026-04-10T18:11:34Z</time></trkpt><trkpt lat="41.69282151334046" lon="13.291207020950752"><ele>269.0</ele><time>2026-04-10T18:11:35Z</time></trkpt><trkpt lat="41.69287373572263" lon="13.291065285176916"><ele>268.75</ele><time>2026-04-10T18:11:36Z</time></trkpt><trkpt lat="41.69292492361673" lon="13.290929284224713"><ele>268.5</ele><time>2026-04-10T18:11:37Z</time></trkpt><trkpt lat="41.69297610778098" lon="13.290793645882765"><ele>268.25</ele><time>2026-04-10T18:11:38Z</time></trkpt><trkpt lat="41.69302859971097" lon="13.290660024757594"><ele>268.0</ele><time>2026-04-10T18:11:39Z</time></trkpt><trkpt lat="41.69308374072841" lon="13.290526560793705"><ele>268.0</ele><time>2026-04-10T18:11:40Z</time></trkpt><trkpt lat="41.69314042460795" lon="13.29039062853435"><ele>268.0</ele><time>2026-04-10T18:11:41Z</time></trkpt><trkpt lat="41.693192584098604" lon="13.290251756183544"><ele>268.0</ele><time>2026-04-10T18:11:42Z</time></trkpt><trkpt lat="41.69323059242505" lon="13.290107977714321"><ele>268.0</ele><time>2026-04-10T18:11:43Z</time></trkpt><trkpt lat="41.69326750030628" lon="13.289956913112574"><ele>268.0</ele><time>2026-04-10T18:11:44Z</time></trkpt><trkpt lat="41.69325854786686" lon="13.289790556095658"><ele>268.0</ele><time>2026-04-10T18:11:45Z</time></trkpt><trkpt lat="41.69326810362636" lon="13.289631423088213"><ele>268.0</ele><time>2026-04-10T18:11:46Z</time></trkpt><trkpt lat="41.693282082598756" lon="13.289473635707377"><ele>268.0</ele><time>2026-04-10T18:11:47Z</time></trkpt><trkpt lat="41.69330659232973" lon="13.289321425387788"><ele>267.0</ele><time>2026-04-10T18:11:48Z</time></trkpt><trkpt lat="41.69333722117556" lon="13.289172526066684"><ele>266.0</ele><time>2026-04-10T18:11:49Z</time></trkpt><trkpt lat="41.69336025329546" lon="13.289022243359772"><ele>265.0</ele><time>2026-04-10T18:11:50Z</time></trkpt><trkpt lat="41.69337491042691" lon="13.288870227939386"><ele>264.0</ele><time>2026-04-10T18:11:51Z</time></trkpt><trkpt lat="41.69338816289652" lon="13.288718711416742"><ele>263.5</ele><time>2026-04-10T18:11:52Z</time></trkpt><trkpt lat="41.69340207590509" lon="13.288564774962152"><ele>263.0</ele><time>2026-04-10T18:11:53Z</time></trkpt><trkpt lat="41.693409179256214" lon="13.288405106886215"><ele>262.5</ele><time>2026-04-10T18:11:54Z</time></trkpt><trkpt lat="41.693420156535815" lon="13.288243521719698"><ele>262.0</ele><time>2026-04-10T18:11:55Z</time></trkpt><trkpt lat="41.69343436598139" lon="13.288081099827354"><ele>262.0</ele><time>2026-04-10T18:11:56Z</time></trkpt><trkpt lat="41.69345771915372" lon="13.287920236204034"><ele>262.0</ele><time>2026-04-10T18:11:57Z</time></trkpt><trkpt lat="41.69348745563202" lon="13.287762022139754"><ele>262.0</ele><time>2026-04-10T18:11:58Z</time></trkpt><trkpt lat="41.69352050819845" lon="13.287611000101705"><ele>262.0</ele><time>2026-04-10T18:11:59Z</time></trkpt><trkpt lat="41.69355176983269" lon="13.287472967585426"><ele>262.0</ele><time>2026-04-10T18:12:00Z</time></trkpt><trkpt lat="41.69358023917379" lon="13.287360116134069"><ele>262.0</ele><time>2026-04-10T18:12:01Z</time></trkpt><trkpt lat="41.69360330784221" lon="13.287260063242101"><ele>262.0</ele><time>2026-04-10T18:12:02Z</time></trkpt><trkpt lat="41.693625443339634" lon="13.287131637625963"><ele>262.0</ele><time>2026-04-10T18:12:04Z</time></trkpt><trkpt lat="41.693639637994146" lon="13.287048911895003"><ele>262.0</ele><time>2026-04-10T18:12:06Z</time></trkpt><trkpt lat="41.69365308952585" lon="13.286947116643972"><ele>262.0</ele><time>2026-04-10T18:12:08Z</time></trkpt><trkpt lat="41.69365971350965" lon="13.286780116027673"><ele>263.0</ele><time>2026-04-10T18:12:10Z</time></trkpt><trkpt lat="41.69366457542399" lon="13.286657349227003"><ele>264.0</ele><time>2026-04-10T18:12:11Z</time></trkpt><trkpt lat="41.69367365294448" lon="13.28651293997748"><ele>265.0</ele><time>2026-04-10T18:12:12Z</time></trkpt><trkpt lat="41.693690671805605" lon="13.286372312456967"><ele>266.0</ele><time>2026-04-10T18:12:13Z</time></trkpt><trkpt lat="41.693713430824886" lon="13.28623354577012"><ele>267.0</ele><time>2026-04-10T18:12:14Z</time></trkpt><trkpt lat="41.69374181671644" lon="13.286097310251103"><ele>267.0</ele><time>2026-04-10T18:12:15Z</time></trkpt><trkpt lat="41.69376561413451" lon="13.285962281094363"><ele>267.0</ele><time>2026-04-10T18:12:16Z</time></trkpt><trkpt lat="41.6937783369545" lon="13.285822740103463"><ele>267.0</ele><time>2026-04-10T18:12:17Z</time></trkpt><trkpt lat="41.69377896292136" lon="13.285681289511741"><ele>267.0</ele><time>2026-04-10T18:12:18Z</time></trkpt><trkpt lat="41.69376354841567" lon="13.285543660787974"><ele>267.0</ele><time>2026-04-10T18:12:19Z</time></trkpt><trkpt lat="41.69374346931739" lon="13.285399831236365"><ele>266.8</ele><time>2026-04-10T18:12:20Z</time></trkpt><trkpt lat="41.69372354143891" lon="13.285260310938984"><ele>266.6</ele><time>2026-04-10T18:12:21Z</time></trkpt><trkpt lat="41.69372054120466" lon="13.285117394468045"><ele>266.40000000000003</ele><time>2026-04-10T18:12:22Z</time></trkpt><trkpt lat="41.69374959075289" lon="13.284978834561933"><ele>266.2</ele><time>2026-04-10T18:12:23Z</time></trkpt><trkpt lat="41.69379189271277" lon="13.284848911895544"><ele>266.0</ele><time>2026-04-10T18:12:24Z</time></trkpt><trkpt lat="41.69383494877793" lon="13.284714429273473"><ele>266.75</ele><time>2026-04-10T18:12:25Z</time></trkpt><trkpt lat="41.69388682791988" lon="13.284580038884343"><ele>267.5</ele><time>2026-04-10T18:12:26Z</time></trkpt><trkpt lat="41.69394056289885" lon="13.284445870912341"><ele>268.25</ele><time>2026-04-10T18:12:27Z</time></trkpt><trkpt lat="41.69400230809934" lon="13.284314235382151"><ele>269.0</ele><time>2026-04-10T18:12:28Z</time></trkpt><trkpt lat="41.69406272584308" lon="13.284179170794914"><ele>269.0</ele><time>2026-04-10T18:12:29Z</time></trkpt><trkpt lat="41.69411462344526" lon="13.284037128295829"><ele>269.0</ele><time>2026-04-10T18:12:30Z</time></trkpt><trkpt lat="41.69416096846259" lon="13.283886617927406"><ele>269.0</ele><time>2026-04-10T18:12:31Z</time></trkpt><trkpt lat="41.69420733825468" lon="13.283735760129623"><ele>269.0</ele><time>2026-04-10T18:12:32Z</time></trkpt><trkpt lat="41.69425450842965" lon="13.28358402017261"><ele>269.5</ele><time>2026-04-10T18:12:33Z</time></trkpt><trkpt lat="41.694295193446045" lon="13.2834280801809"><ele>270.0</ele><time>2026-04-10T18:12:34Z</time></trkpt><trkpt lat="41.694330436968286" lon="13.283269593677334"><ele>270.5</ele><time>2026-04-10T18:12:35Z</time></trkpt><trkpt lat="41.694353882722616" lon="13.28310771530864"><ele>271.0</ele><time>2026-04-10T18:12:36Z</time></trkpt><trkpt lat="41.69436902406428" lon="13.282940064233488"><ele>271.0</ele><time>2026-04-10T18:12:37Z</time></trkpt><trkpt lat="41.69437829435678" lon="13.282767789230128"><ele>271.0</ele><time>2026-04-10T18:12:38Z</time></trkpt><trkpt lat="41.694379649952154" lon="13.282598311132151"><ele>271.0</ele><time>2026-04-10T18:12:39Z</time></trkpt><trkpt lat="41.69438470232962" lon="13.282428114212896"><ele>271.0</ele><time>2026-04-10T18:12:40Z</time></trkpt><trkpt lat="41.69439238626214" lon="13.282256841725607"><ele>270.5</ele><time>2026-04-10T18:12:41Z</time></trkpt><trkpt lat="41.69440357859945" lon="13.282084390533715"><ele>270.0</ele><time>2026-04-10T18:12:42Z</time></trkpt><trkpt lat="41.69441593045351" lon="13.28190842865516"><ele>269.5</ele><time>2026-04-10T18:12:43Z</time></trkpt><trkpt lat="41.694433038304616" lon="13.281736568874887"><ele>269.0</ele><time>2026-04-10T18:12:44Z</time></trkpt><trkpt lat="41.694453014153176" lon="13.281563962980984"><ele>270.0</ele><time>2026-04-10T18:12:45Z</time></trkpt><trkpt lat="41.694475340527376" lon="13.28139148168672"><ele>271.0</ele><time>2026-04-10T18:12:46Z</time></trkpt><trkpt lat="41.69449612450103" lon="13.281222393748642"><ele>272.0</ele><time>2026-04-10T18:12:47Z</time></trkpt><trkpt lat="41.69451693081207" lon="13.281055772858995"><ele>273.0</ele><time>2026-04-10T18:12:48Z</time></trkpt><trkpt lat="41.69453793565839" lon="13.28089182120775"><ele>273.0</ele><time>2026-04-10T18:12:49Z</time></trkpt><trkpt lat="41.694557862724906" lon="13.28073049376744"><ele>273.0</ele><time>2026-04-10T18:12:50Z</time></trkpt><trkpt lat="41.694577201996395" lon="13.28057169820311"><ele>273.0</ele><time>2026-04-10T18:12:51Z</time></trkpt><trkpt lat="41.694598404442225" lon="13.280415424661188"><ele>273.0</ele><time>2026-04-10T18:12:52Z</time></trkpt><trkpt lat="41.69461671551495" lon="13.280263074385164"><ele>272.8</ele><time>2026-04-10T18:12:53Z</time></trkpt><trkpt lat="41.69463397833782" lon="13.280113643717716"><ele>272.6</ele><time>2026-04-10T18:12:54Z</time></trkpt><trkpt lat="41.69465067832073" lon="13.279974951158199"><ele>272.4</ele><time>2026-04-10T18:12:55Z</time></trkpt><trkpt lat="41.6946644734632" lon="13.279853321823646"><ele>272.2</ele><time>2026-04-10T18:12:56Z</time></trkpt><trkpt lat="41.69467704941719" lon="13.279743092697293"><ele>272.0</ele><time>2026-04-10T18:12:57Z</time></trkpt><trkpt lat="41.69468431604717" lon="13.279630727640106"><ele>271.83333333333337</ele><time>2026-04-10T18:12:58Z</time></trkpt><trkpt lat="41.694690399150964" lon="13.279523519773262"><ele>271.6666666666667</ele><time>2026-04-10T18:12:59Z</time></trkpt><trkpt lat="41.69469726300509" lon="13.279418981070435"><ele>271.5</ele><time>2026-04-10T18:13:00Z</time></trkpt><trkpt lat="41.694704147941614" lon="13.279318235078518"><ele>271.3333333333333</ele><time>2026-04-10T18:13:01Z</time></trkpt><trkpt lat="41.69471125392304" lon="13.279223311633515"><ele>271.16666666666663</ele><time>2026-04-10T18:13:02Z</time></trkpt><trkpt lat="41.694718303719036" lon="13.279135410804232"><ele>271.0</ele><time>2026-04-10T18:13:03Z</time></trkpt><trkpt lat="41.69473063214415" lon="13.278967599710102"><ele>270.8</ele><time>2026-04-10T18:13:05Z</time></trkpt><trkpt lat="41.694735739774494" lon="13.27888325291143"><ele>270.6</ele><time>2026-04-10T18:13:06Z</time></trkpt><trkpt lat="41.69474717381034" lon="13.278725021780335"><ele>270.4</ele><time>2026-04-10T18:13:08Z</time></trkpt><trkpt lat="41.69475980790473" lon="13.278550363589698"><ele>270.2</ele><time>2026-04-10T18:13:10Z</time></trkpt><trkpt lat="41.69476717031614" lon="13.27846480133555"><ele>270.0</ele><time>2026-04-10T18:13:11Z</time></trkpt><trkpt lat="41.694787840898265" lon="13.278304803171993"><ele>270.0</ele><time>2026-04-10T18:13:13Z</time></trkpt><trkpt lat="41.69480500228686" lon="13.27822037020451"><ele>270.0</ele><time>2026-04-10T18:13:14Z</time></trkpt><trkpt lat="41.694829595872285" lon="13.278132031463755"><ele>270.0</ele><time>2026-04-10T18:13:15Z</time></trkpt><trkpt lat="41.69486087715064" lon="13.27803825691209"><ele>270.0</ele><time>2026-04-10T18:13:16Z</time></trkpt><trkpt lat="41.69489319990977" lon="13.27794034269753"><ele>270.0</ele><time>2026-04-10T18:13:17Z</time></trkpt><trkpt lat="41.69493486568124" lon="13.277821776928826"><ele>270.0</ele><time>2026-04-10T18:13:18Z</time></trkpt><trkpt lat="41.694979121466126" lon="13.277702061087998"><ele>269.8</ele><time>2026-04-10T18:13:19Z</time></trkpt><trkpt lat="41.69502141369405" lon="13.277586093933891"><ele>269.6</ele><time>2026-04-10T18:13:20Z</time></trkpt><trkpt lat="41.695075099611756" lon="13.277470631210937"><ele>269.4</ele><time>2026-04-10T18:13:21Z</time></trkpt><trkpt lat="41.69513673910375" lon="13.277357602474332"><ele>269.2</ele><time>2026-04-10T18:13:22Z</time></trkpt><trkpt lat="41.695204473956174" lon="13.277243573564258"><ele>269.0</ele><time>2026-04-10T18:13:23Z</time></trkpt><trkpt lat="41.6952778848958" lon="13.277130277640273"><ele>268.8</ele><time>2026-04-10T18:13:24Z</time></trkpt><trkpt lat="41.695359184631265" lon="13.27702602101054"><ele>268.59999999999997</ele><time>2026-04-10T18:13:25Z</time></trkpt><trkpt lat="41.69544569254111" lon="13.276936911054424"><ele>268.4</ele><time>2026-04-10T18:13:26Z</time></trkpt><trkpt lat="41.695536404686706" lon="13.276867948827393"><ele>268.2</ele><time>2026-04-10T18:13:27Z</time></trkpt><trkpt lat="41.695628975960396" lon="13.276813445378982"><ele>268.0</ele><time>2026-04-10T18:13:28Z</time></trkpt><trkpt lat="41.69571949131283" lon="13.276767687961499"><ele>268.0</ele><time>2026-04-10T18:13:29Z</time></trkpt><trkpt lat="41.69580108512927" lon="13.276725915246578"><ele>268.0</ele><time>2026-04-10T18:13:30Z</time></trkpt><trkpt lat="41.69586705398634" lon="13.276671035557744"><ele>268.0</ele><time>2026-04-10T18:13:31Z</time></trkpt><trkpt lat="41.69591447547638" lon="13.276595645705344"><ele>268.0</ele><time>2026-04-10T18:13:32Z</time></trkpt><trkpt lat="41.69596361956601" lon="13.276474039533177"><ele>268.0</ele><time>2026-04-10T18:13:34Z</time></trkpt><trkpt lat="41.69604437467395" lon="13.276499183675181"><ele>268.0</ele><time>2026-04-10T18:13:37Z</time></trkpt><trkpt lat="41.69610573305601" lon="13.27654093163718"><ele>269.4</ele><time>2026-04-10T18:13:39Z</time></trkpt><trkpt lat="41.69618814771029" lon="13.276597006185836"><ele>270.8</ele><time>2026-04-10T18:13:41Z</time></trkpt><trkpt lat="41.69628853294461" lon="13.276665856461785"><ele>272.2</ele><time>2026-04-10T18:13:43Z</time></trkpt><trkpt lat="41.696402101821846" lon="13.276744181739609"><ele>273.6</ele><time>2026-04-10T18:13:45Z</time></trkpt><trkpt lat="41.69646660841036" lon="13.276763701639169"><ele>275.0</ele><time>2026-04-10T18:13:46Z</time></trkpt><trkpt lat="41.69652602701569" lon="13.276803637357856"><ele>275.0</ele><time>2026-04-10T18:13:47Z</time></trkpt><trkpt lat="41.69658337668699" lon="13.276849974010455"><ele>275.0</ele><time>2026-04-10T18:13:48Z</time></trkpt><trkpt lat="41.696637603896725" lon="13.276896082432833"><ele>275.0</ele><time>2026-04-10T18:13:49Z</time></trkpt><trkpt lat="41.69671846198109" lon="13.277010871189347"><ele>275.0</ele><time>2026-04-10T18:13:51Z</time></trkpt><trkpt lat="41.69677622775197" lon="13.277132603786782"><ele>275.0</ele><time>2026-04-10T18:13:53Z</time></trkpt><trkpt lat="41.69680729390336" lon="13.277235010942308"><ele>275.0</ele><time>2026-04-10T18:13:55Z</time></trkpt><trkpt lat="41.69686042093136" lon="13.277296865737322"><ele>276.6666666666667</ele><time>2026-04-10T18:13:57Z</time></trkpt><trkpt lat="41.69691961760862" lon="13.277343075832034"><ele>278.33333333333337</ele><time>2026-04-10T18:14:00Z</time></trkpt><trkpt lat="41.69698513041051" lon="13.277401186941029"><ele>280.0</ele><time>2026-04-10T18:14:04Z</time></trkpt><trkpt lat="41.697049620656536" lon="13.277461767414591"><ele>281.6666666666667</ele><time>2026-04-10T18:14:07Z</time></trkpt><trkpt lat="41.69711924667622" lon="13.277503212237745"><ele>283.3333333333333</ele><time>2026-04-10T18:14:10Z</time></trkpt><trkpt lat="41.69717720414136" lon="13.277584321265747"><ele>285.0</ele><time>2026-04-10T18:14:14Z</time></trkpt><trkpt lat="41.697200921673115" lon="13.277458575064497"><ele>285.0</ele><time>2026-04-10T18:14:31Z</time></trkpt><trkpt lat="41.69721941210611" lon="13.277357681400012"><ele>285.0</ele><time>2026-04-10T18:14:34Z</time></trkpt><trkpt lat="41.69725414790413" lon="13.27724322619561"><ele>285.0</ele><time>2026-04-10T18:14:37Z</time></trkpt><trkpt lat="41.69729190380457" lon="13.277134220254705"><ele>285.0</ele><time>2026-04-10T18:14:40Z</time></trkpt><trkpt lat="41.69730979316782" lon="13.277050912436007"><ele>285.0</ele><time>2026-04-10T18:15:21Z</time></trkpt><trkpt lat="41.697260861870745" lon="13.277172318535353"><ele>285.0</ele><time>2026-04-10T18:18:55Z</time></trkpt><trkpt lat="41.69723396637006" lon="13.277258079229556"><ele>285.0</ele><time>2026-04-10T18:18:59Z</time></trkpt><trkpt lat="41.6972120692711" lon="13.277342501991209"><ele>285.0</ele><time>2026-04-10T18:19:03Z</time></trkpt><trkpt lat="41.69720103494015" lon="13.27743466067297"><ele>285.0</ele><time>2026-04-10T18:19:08Z</time></trkpt><trkpt lat="41.69718030009403" lon="13.277527397925207"><ele>285.0</ele><time>2026-04-10T18:19:14Z</time></trkpt><trkpt lat="41.69711130889274" lon="13.277478640600753"><ele>285.0</ele><time>2026-04-10T18:19:25Z</time></trkpt><trkpt lat="41.69705887364693" lon="13.277426268760406"><ele>285.0</ele><time>2026-04-10T18:19:28Z</time></trkpt><trkpt lat="41.69699764285616" lon="13.277375960012552"><ele>285.0</ele><time>2026-04-10T18:19:33Z</time></trkpt><trkpt lat="41.696937937479326" lon="13.277315944449521"><ele>283.3333333333333</ele><time>2026-04-10T18:19:38Z</time></trkpt><trkpt lat="41.69688458437613" lon="13.277260529928864"><ele>281.6666666666667</ele><time>2026-04-10T18:19:41Z</time></trkpt><trkpt lat="41.69682733527213" lon="13.277189628119999"><ele>280.0</ele><time>2026-04-10T18:19:43Z</time></trkpt><trkpt lat="41.696763920420544" lon="13.277080489493956"><ele>278.33333333333337</ele><time>2026-04-10T18:19:45Z</time></trkpt><trkpt lat="41.69671163552627" lon="13.27696935840453"><ele>276.6666666666667</ele><time>2026-04-10T18:19:46Z</time></trkpt><trkpt lat="41.6966673984751" lon="13.276902289672455"><ele>275.0</ele><time>2026-04-10T18:19:47Z</time></trkpt><trkpt lat="41.69661264445049" lon="13.27684562313013"><ele>275.0</ele><time>2026-04-10T18:19:48Z</time></trkpt><trkpt lat="41.69655278446761" lon="13.276800614207753"><ele>275.0</ele><time>2026-04-10T18:19:49Z</time></trkpt><trkpt lat="41.696491132572525" lon="13.276760440231445"><ele>275.0</ele><time>2026-04-10T18:19:50Z</time></trkpt><trkpt lat="41.69643158377156" lon="13.276719341600447"><ele>275.0</ele><time>2026-04-10T18:19:51Z</time></trkpt><trkpt lat="41.69637527693276" lon="13.276681020750523"><ele>275.0</ele><time>2026-04-10T18:19:52Z</time></trkpt><trkpt lat="41.696266687531484" lon="13.27661233141121"><ele>275.0</ele><time>2026-04-10T18:19:54Z</time></trkpt><trkpt lat="41.69616664635179" lon="13.276547966391012"><ele>273.25</ele><time>2026-04-10T18:19:56Z</time></trkpt><trkpt lat="41.696077676380895" lon="13.276487242718655"><ele>271.5</ele><time>2026-04-10T18:19:58Z</time></trkpt><trkpt lat="41.696014754221" lon="13.276448350037914"><ele>269.75</ele><time>2026-04-10T18:20:00Z</time></trkpt><trkpt lat="41.69589373935846" lon="13.276609009484956"><ele>268.0</ele><time>2026-04-10T18:20:06Z</time></trkpt><trkpt lat="41.695792710351824" lon="13.276682704168065"><ele>268.0</ele><time>2026-04-10T18:20:08Z</time></trkpt><trkpt lat="41.69573005601047" lon="13.276742061387818"><ele>268.0</ele><time>2026-04-10T18:20:09Z</time></trkpt><trkpt lat="41.69564774294199" lon="13.276778170368923"><ele>268.0</ele><time>2026-04-10T18:20:10Z</time></trkpt><trkpt lat="41.6955511927384" lon="13.276827313087244"><ele>268.0</ele><time>2026-04-10T18:20:11Z</time></trkpt><trkpt lat="41.69545458225577" lon="13.276874656107685"><ele>268.0</ele><time>2026-04-10T18:20:12Z</time></trkpt><trkpt lat="41.69537055886337" lon="13.276946750798666"><ele>268.0</ele><time>2026-04-10T18:20:13Z</time></trkpt><trkpt lat="41.69528386512121" lon="13.277034939046095"><ele>268.0</ele><time>2026-04-10T18:20:14Z</time></trkpt><trkpt lat="41.69522059876988" lon="13.27717101128681"><ele>268.0</ele><time>2026-04-10T18:20:15Z</time></trkpt><trkpt lat="41.69514525072357" lon="13.277287709779774"><ele>268.0</ele><time>2026-04-10T18:20:16Z</time></trkpt><trkpt lat="41.69506565075152" lon="13.27740034657069"><ele>268.25</ele><time>2026-04-10T18:20:17Z</time></trkpt><trkpt lat="41.69500640483504" lon="13.277530993488305"><ele>268.5</ele><time>2026-04-10T18:20:18Z</time></trkpt><trkpt lat="41.69496771152027" lon="13.27768299102019"><ele>268.75</ele><time>2026-04-10T18:20:19Z</time></trkpt><trkpt lat="41.69491885264015" lon="13.277817944991916"><ele>269.0</ele><time>2026-04-10T18:20:20Z</time></trkpt><trkpt lat="41.694861876632224" lon="13.27793749844402"><ele>269.0</ele><time>2026-04-10T18:20:21Z</time></trkpt><trkpt lat="41.69482322601197" lon="13.278082882383183"><ele>269.0</ele><time>2026-04-10T18:20:22Z</time></trkpt><trkpt lat="41.694792250291904" lon="13.278221691616288"><ele>269.0</ele><time>2026-04-10T18:20:23Z</time></trkpt><trkpt lat="41.69476315622647" lon="13.278361122849752"><ele>269.0</ele><time>2026-04-10T18:20:24Z</time></trkpt><trkpt lat="41.69474565326826" lon="13.278495041576075"><ele>269.0</ele><time>2026-04-10T18:20:25Z</time></trkpt><trkpt lat="41.69473545747062" lon="13.278636999559652"><ele>269.2</ele><time>2026-04-10T18:20:26Z</time></trkpt><trkpt lat="41.69472592855877" lon="13.278780538105867"><ele>269.4</ele><time>2026-04-10T18:20:27Z</time></trkpt><trkpt lat="41.694714518361884" lon="13.278927602458486"><ele>269.6</ele><time>2026-04-10T18:20:28Z</time></trkpt><trkpt lat="41.69468909544287" lon="13.279061840320194"><ele>269.8</ele><time>2026-04-10T18:20:29Z</time></trkpt><trkpt lat="41.69467885721513" lon="13.279202857416603"><ele>270.0</ele><time>2026-04-10T18:20:30Z</time></trkpt><trkpt lat="41.69466881595321" lon="13.279341161610814"><ele>270.2</ele><time>2026-04-10T18:20:31Z</time></trkpt><trkpt lat="41.69467207679763" lon="13.279489375415983"><ele>270.4</ele><time>2026-04-10T18:20:32Z</time></trkpt><trkpt lat="41.6946487345554" lon="13.279617754298553"><ele>270.6</ele><time>2026-04-10T18:20:33Z</time></trkpt><trkpt lat="41.69463686660912" lon="13.279742552237659"><ele>270.8</ele><time>2026-04-10T18:20:34Z</time></trkpt><trkpt lat="41.694624344918815" lon="13.279867711468777"><ele>271.0</ele><time>2026-04-10T18:20:35Z</time></trkpt><trkpt lat="41.694610716341295" lon="13.279994184662906"><ele>271.2</ele><time>2026-04-10T18:20:36Z</time></trkpt><trkpt lat="41.694595691169575" lon="13.280120987118575"><ele>271.40000000000003</ele><time>2026-04-10T18:20:37Z</time></trkpt><trkpt lat="41.694579571693666" lon="13.280254212577566"><ele>271.6</ele><time>2026-04-10T18:20:38Z</time></trkpt><trkpt lat="41.69457578558673" lon="13.28039095984671"><ele>271.8</ele><time>2026-04-10T18:20:39Z</time></trkpt><trkpt lat="41.69455031734276" lon="13.280531934803772"><ele>272.0</ele><time>2026-04-10T18:20:40Z</time></trkpt><trkpt lat="41.694543785986696" lon="13.28066683930286"><ele>272.25</ele><time>2026-04-10T18:20:41Z</time></trkpt><trkpt lat="41.694522830896354" lon="13.280810358886844"><ele>272.5</ele><time>2026-04-10T18:20:42Z</time></trkpt><trkpt lat="41.69450444786714" lon="13.280957316903857"><ele>272.75</ele><time>2026-04-10T18:20:43Z</time></trkpt><trkpt lat="41.694484516427124" lon="13.281108447580307"><ele>273.0</ele><time>2026-04-10T18:20:44Z</time></trkpt><trkpt lat="41.69446425675813" lon="13.281261383288033"><ele>273.0</ele><time>2026-04-10T18:20:45Z</time></trkpt><trkpt lat="41.69444657206456" lon="13.281418765917438"><ele>273.0</ele><time>2026-04-10T18:20:46Z</time></trkpt><trkpt lat="41.694428315969745" lon="13.281574468687769"><ele>273.0</ele><time>2026-04-10T18:20:47Z</time></trkpt><trkpt lat="41.69440872777789" lon="13.281729120454983"><ele>273.0</ele><time>2026-04-10T18:20:48Z</time></trkpt><trkpt lat="41.69439437823143" lon="13.281884670523944"><ele>272.6</ele><time>2026-04-10T18:20:49Z</time></trkpt><trkpt lat="41.6943807031471" lon="13.282038562324288"><ele>272.20000000000005</ele><time>2026-04-10T18:20:50Z</time></trkpt><trkpt lat="41.69436607609638" lon="13.282201805462835"><ele>271.8</ele><time>2026-04-10T18:20:51Z</time></trkpt><trkpt lat="41.69436923345848" lon="13.282331820825496"><ele>271.40000000000003</ele><time>2026-04-10T18:20:52Z</time></trkpt><trkpt lat="41.69435080928215" lon="13.282464164451415"><ele>271.0</ele><time>2026-04-10T18:20:53Z</time></trkpt><trkpt lat="41.69434550235479" lon="13.28259685667411"><ele>271.0</ele><time>2026-04-10T18:20:54Z</time></trkpt><trkpt lat="41.694340345583264" lon="13.282726493118739"><ele>271.0</ele><time>2026-04-10T18:20:55Z</time></trkpt><trkpt lat="41.694335256829234" lon="13.282853028282254"><ele>271.0</ele><time>2026-04-10T18:20:56Z</time></trkpt><trkpt lat="41.694326795296725" lon="13.282975194558821"><ele>271.0</ele><time>2026-04-10T18:20:57Z</time></trkpt><trkpt lat="41.69431456602322" lon="13.283092989877865"><ele>271.0</ele><time>2026-04-10T18:20:58Z</time></trkpt><trkpt lat="41.69429548995141" lon="13.283230807171998"><ele>271.0</ele><time>2026-04-10T18:20:59Z</time></trkpt><trkpt lat="41.694267158270485" lon="13.283366453202126"><ele>271.0</ele><time>2026-04-10T18:21:00Z</time></trkpt><trkpt lat="41.694234422137995" lon="13.283501294579763"><ele>271.0</ele><time>2026-04-10T18:21:01Z</time></trkpt><trkpt lat="41.69419665049043" lon="13.283643056230899"><ele>271.0</ele><time>2026-04-10T18:21:02Z</time></trkpt><trkpt lat="41.69417187062437" lon="13.283782617969166"><ele>271.0</ele><time>2026-04-10T18:21:03Z</time></trkpt><trkpt lat="41.69413252739816" lon="13.283921443269726"><ele>270.6</ele><time>2026-04-10T18:21:04Z</time></trkpt><trkpt lat="41.69408645097711" lon="13.284050167622485"><ele>270.20000000000005</ele><time>2026-04-10T18:21:05Z</time></trkpt><trkpt lat="41.694039663630534" lon="13.284175085659712"><ele>269.79999999999995</ele><time>2026-04-10T18:21:06Z</time></trkpt><trkpt lat="41.693978551992984" lon="13.28428965120762"><ele>269.4</ele><time>2026-04-10T18:21:07Z</time></trkpt><trkpt lat="41.69393086761838" lon="13.284405542733571"><ele>269.0</ele><time>2026-04-10T18:21:08Z</time></trkpt><trkpt lat="41.693884143260156" lon="13.284519150065579"><ele>269.0</ele><time>2026-04-10T18:21:09Z</time></trkpt><trkpt lat="41.69383656035222" lon="13.28463867674098"><ele>269.0</ele><time>2026-04-10T18:21:10Z</time></trkpt><trkpt lat="41.69379568082069" lon="13.284768834854106"><ele>269.0</ele><time>2026-04-10T18:21:11Z</time></trkpt><trkpt lat="41.69375003840419" lon="13.284887289193511"><ele>269.0</ele><time>2026-04-10T18:21:12Z</time></trkpt><trkpt lat="41.693714301833914" lon="13.285013080702829"><ele>269.0</ele><time>2026-04-10T18:21:13Z</time></trkpt><trkpt lat="41.693683294261525" lon="13.2851409946802"><ele>268.59999999999997</ele><time>2026-04-10T18:21:14Z</time></trkpt><trkpt lat="41.69370872574697" lon="13.285271505239313"><ele>268.2</ele><time>2026-04-10T18:21:15Z</time></trkpt><trkpt lat="41.693729159127344" lon="13.285398000001953"><ele>267.79999999999995</ele><time>2026-04-10T18:21:16Z</time></trkpt><trkpt lat="41.69374989376343" lon="13.28552339542149"><ele>267.4</ele><time>2026-04-10T18:21:17Z</time></trkpt><trkpt lat="41.693742804159065" lon="13.285647704309174"><ele>267.0</ele><time>2026-04-10T18:21:18Z</time></trkpt><trkpt lat="41.69373923082318" lon="13.285767999205085"><ele>267.0</ele><time>2026-04-10T18:21:19Z</time></trkpt><trkpt lat="41.69373207395044" lon="13.28588775326254"><ele>267.0</ele><time>2026-04-10T18:21:20Z</time></trkpt><trkpt lat="41.69373217247839" lon="13.286011910005804"><ele>267.0</ele><time>2026-04-10T18:21:21Z</time></trkpt><trkpt lat="41.69371047104896" lon="13.286131708920614"><ele>267.0</ele><time>2026-04-10T18:21:22Z</time></trkpt><trkpt lat="41.69367168343724" lon="13.28623524795623"><ele>267.0</ele><time>2026-04-10T18:21:23Z</time></trkpt><trkpt lat="41.69364996599426" lon="13.286347023158509"><ele>267.0</ele><time>2026-04-10T18:21:24Z</time></trkpt><trkpt lat="41.69363436922" lon="13.286461572547859"><ele>267.0</ele><time>2026-04-10T18:21:25Z</time></trkpt><trkpt lat="41.693629009725505" lon="13.286577579609549"><ele>267.0</ele><time>2026-04-10T18:21:26Z</time></trkpt><trkpt lat="41.69362662727803" lon="13.286696463654744"><ele>267.0</ele><time>2026-04-10T18:21:27Z</time></trkpt><trkpt lat="41.69362514455259" lon="13.286792826221852"><ele>267.0</ele><time>2026-04-10T18:21:28Z</time></trkpt><trkpt lat="41.69361931497383" lon="13.286892789104645"><ele>267.0</ele><time>2026-04-10T18:21:29Z</time></trkpt><trkpt lat="41.69362811677771" lon="13.286987851897905"><ele>267.0</ele><time>2026-04-10T18:21:30Z</time></trkpt><trkpt lat="41.69360389147265" lon="13.287070065526468"><ele>266.1666666666667</ele><time>2026-04-10T18:21:31Z</time></trkpt><trkpt lat="41.69358329874676" lon="13.287152961349369"><ele>265.3333333333333</ele><time>2026-04-10T18:21:32Z</time></trkpt><trkpt lat="41.693562739555425" lon="13.287270233852285"><ele>264.5</ele><time>2026-04-10T18:21:34Z</time></trkpt><trkpt lat="41.69354633328525" lon="13.287351736828063"><ele>263.66666666666663</ele><time>2026-04-10T18:21:35Z</time></trkpt><trkpt lat="41.693526848784586" lon="13.287507896558896"><ele>262.8333333333333</ele><time>2026-04-10T18:21:38Z</time></trkpt><trkpt lat="41.693506475392944" lon="13.287620834524342"><ele>262.0</ele><time>2026-04-10T18:21:39Z</time></trkpt><trkpt lat="41.693471598178405" lon="13.287711049950847"><ele>262.0</ele><time>2026-04-10T18:21:40Z</time></trkpt><trkpt lat="41.69345271606035" lon="13.287800838466158"><ele>262.0</ele><time>2026-04-10T18:21:41Z</time></trkpt><trkpt lat="41.69343030873561" lon="13.287911524508756"><ele>262.0</ele><time>2026-04-10T18:21:42Z</time></trkpt><trkpt lat="41.69342602923792" lon="13.288028313022874"><ele>262.0</ele><time>2026-04-10T18:21:43Z</time></trkpt><trkpt lat="41.693413009953545" lon="13.288144339078281"><ele>262.0</ele><time>2026-04-10T18:21:44Z</time></trkpt><trkpt lat="41.69340228978248" lon="13.288268250110194"><ele>262.0</ele><time>2026-04-10T18:21:45Z</time></trkpt><trkpt lat="41.69339087927197" lon="13.28839927419896"><ele>262.0</ele><time>2026-04-10T18:21:46Z</time></trkpt><trkpt lat="41.693381141466816" lon="13.28853565613303"><ele>262.0</ele><time>2026-04-10T18:21:47Z</time></trkpt><trkpt lat="41.693377403364366" lon="13.288672808677779"><ele>262.0</ele><time>2026-04-10T18:21:48Z</time></trkpt><trkpt lat="41.69335319420918" lon="13.288806623177363"><ele>262.0</ele><time>2026-04-10T18:21:49Z</time></trkpt><trkpt lat="41.69335364229172" lon="13.28894826197023"><ele>262.0</ele><time>2026-04-10T18:21:50Z</time></trkpt><trkpt lat="41.6933357397175" lon="13.289086451214274"><ele>262.4</ele><time>2026-04-10T18:21:51Z</time></trkpt><trkpt lat="41.69331561652545" lon="13.289227187468274"><ele>262.79999999999995</ele><time>2026-04-10T18:21:52Z</time></trkpt><trkpt lat="41.69328737873094" lon="13.289365198136748"><ele>263.2</ele><time>2026-04-10T18:21:53Z</time></trkpt><trkpt lat="41.69326368870952" lon="13.289509580975977"><ele>263.59999999999997</ele><time>2026-04-10T18:21:54Z</time></trkpt><trkpt lat="41.69325257693213" lon="13.28964667619128"><ele>264.0</ele><time>2026-04-10T18:21:55Z</time></trkpt><trkpt lat="41.69324908588151" lon="13.289793812653443"><ele>264.8</ele><time>2026-04-10T18:21:56Z</time></trkpt><trkpt lat="41.693244540952726" lon="13.289941088296393"><ele>265.59999999999997</ele><time>2026-04-10T18:21:57Z</time></trkpt><trkpt lat="41.693222364969294" lon="13.290069777992285"><ele>266.4</ele><time>2026-04-10T18:21:58Z</time></trkpt><trkpt lat="41.69319359213577" lon="13.290201906176456"><ele>267.2</ele><time>2026-04-10T18:21:59Z</time></trkpt><trkpt lat="41.69313450887533" lon="13.290317925018012"><ele>268.0</ele><time>2026-04-10T18:22:00Z</time></trkpt><trkpt lat="41.69310147029587" lon="13.290447469625052"><ele>268.0</ele><time>2026-04-10T18:22:01Z</time></trkpt><trkpt lat="41.69305133319456" lon="13.290568764469874"><ele>268.0</ele><time>2026-04-10T18:22:02Z</time></trkpt><trkpt lat="41.693002034795114" lon="13.290693053331191"><ele>268.0</ele><time>2026-04-10T18:22:03Z</time></trkpt><trkpt lat="41.692952274429835" lon="13.290819056086958"><ele>268.0</ele><time>2026-04-10T18:22:04Z</time></trkpt><trkpt lat="41.692907221162024" lon="13.290947232588115"><ele>268.0</ele><time>2026-04-10T18:22:05Z</time></trkpt><trkpt lat="41.692856559345934" lon="13.291070481792607"><ele>268.2</ele><time>2026-04-10T18:22:06Z</time></trkpt><trkpt lat="41.69281234276576" lon="13.291190363930532"><ele>268.4</ele><time>2026-04-10T18:22:07Z</time></trkpt><trkpt lat="41.69276698565334" lon="13.291321332067922"><ele>268.59999999999997</ele><time>2026-04-10T18:22:08Z</time></trkpt><trkpt lat="41.692715272826774" lon="13.291427525949787"><ele>268.8</ele><time>2026-04-10T18:22:09Z</time></trkpt><trkpt lat="41.692677786505925" lon="13.29154585975609"><ele>269.0</ele><time>2026-04-10T18:22:10Z</time></trkpt><trkpt lat="41.692647509680036" lon="13.291665640210976"><ele>269.0</ele><time>2026-04-10T18:22:11Z</time></trkpt><trkpt lat="41.69262088027402" lon="13.29178401304565"><ele>269.0</ele><time>2026-04-10T18:22:12Z</time></trkpt><trkpt lat="41.69259612720186" lon="13.291899362350895"><ele>269.0</ele><time>2026-04-10T18:22:13Z</time></trkpt><trkpt lat="41.69256805963714" lon="13.292003883032137"><ele>269.0</ele><time>2026-04-10T18:22:14Z</time></trkpt><trkpt lat="41.69253401496437" lon="13.292108700934907"><ele>269.0</ele><time>2026-04-10T18:22:15Z</time></trkpt><trkpt lat="41.69250180261995" lon="13.292212295232384"><ele>269.0</ele><time>2026-04-10T18:22:16Z</time></trkpt><trkpt lat="41.69246423781614" lon="13.292308326163415"><ele>269.33333333333337</ele><time>2026-04-10T18:22:17Z</time></trkpt><trkpt lat="41.69239926471171" lon="13.29237782527281"><ele>269.6666666666667</ele><time>2026-04-10T18:22:18Z</time></trkpt><trkpt lat="41.69234259061874" lon="13.292456412708864"><ele>270.0</ele><time>2026-04-10T18:22:19Z</time></trkpt><trkpt lat="41.692283332224065" lon="13.292535517325351"><ele>270.3333333333333</ele><time>2026-04-10T18:22:20Z</time></trkpt><trkpt lat="41.6922283088514" lon="13.292624660894134"><ele>270.66666666666663</ele><time>2026-04-10T18:22:21Z</time></trkpt><trkpt lat="41.69217862258544" lon="13.292719708535248"><ele>271.0</ele><time>2026-04-10T18:22:22Z</time></trkpt><trkpt lat="41.69213145433594" lon="13.292816916236507"><ele>271.0</ele><time>2026-04-10T18:22:23Z</time></trkpt><trkpt lat="41.69208811898344" lon="13.29290663082407"><ele>271.0</ele><time>2026-04-10T18:22:24Z</time></trkpt><trkpt lat="41.69205428328867" lon="13.29297872519885"><ele>271.0</ele><time>2026-04-10T18:22:25Z</time></trkpt><trkpt lat="41.692031879975836" lon="13.293072772196382"><ele>271.0</ele><time>2026-04-10T18:22:27Z</time></trkpt><trkpt lat="41.69199140636078" lon="13.293174175385959"><ele>271.0</ele><time>2026-04-10T18:22:29Z</time></trkpt><trkpt lat="41.69196072649006" lon="13.29329943842036"><ele>271.0</ele><time>2026-04-10T18:22:31Z</time></trkpt><trkpt lat="41.69194571940086" lon="13.293463266517968"><ele>271.0</ele><time>2026-04-10T18:22:33Z</time></trkpt><trkpt lat="41.69194241736956" lon="13.29356171041452"><ele>271.0</ele><time>2026-04-10T18:22:34Z</time></trkpt><trkpt lat="41.69194063379325" lon="13.293667693739604"><ele>271.0</ele><time>2026-04-10T18:22:35Z</time></trkpt><trkpt lat="41.69193086529034" lon="13.29375790928186"><ele>271.0</ele><time>2026-04-10T18:22:36Z</time></trkpt><trkpt lat="41.69193081207915" lon="13.293856254044334"><ele>271.0</ele><time>2026-04-10T18:22:37Z</time></trkpt><trkpt lat="41.69192207780307" lon="13.293952875724399"><ele>271.0</ele><time>2026-04-10T18:22:38Z</time></trkpt><trkpt lat="41.69191591771606" lon="13.294052092827188"><ele>271.0</ele><time>2026-04-10T18:22:39Z</time></trkpt><trkpt lat="41.691910960031066" lon="13.29415570305618"><ele>269.40000000000003</ele><time>2026-04-10T18:22:40Z</time></trkpt><trkpt lat="41.69190702599836" lon="13.294266413026653"><ele>267.8</ele><time>2026-04-10T18:22:41Z</time></trkpt><trkpt lat="41.69190161936764" lon="13.294383459337787"><ele>266.20000000000005</ele><time>2026-04-10T18:22:42Z</time></trkpt><trkpt lat="41.691897480788604" lon="13.294509493001973"><ele>264.6</ele><time>2026-04-10T18:22:43Z</time></trkpt><trkpt lat="41.69189272014048" lon="13.29463178311111"><ele>263.0</ele><time>2026-04-10T18:22:44Z</time></trkpt><trkpt lat="41.69187214432895" lon="13.294767483590455"><ele>263.0</ele><time>2026-04-10T18:22:45Z</time></trkpt><trkpt lat="41.691849049389354" lon="13.294889203247891"><ele>263.0</ele><time>2026-04-10T18:22:46Z</time></trkpt><trkpt lat="41.69180564950649" lon="13.295011797652542"><ele>263.0</ele><time>2026-04-10T18:22:47Z</time></trkpt><trkpt lat="41.69174734358193" lon="13.295122509053012"><ele>263.0</ele><time>2026-04-10T18:22:48Z</time></trkpt><trkpt lat="41.691675438622056" lon="13.295230833123673"><ele>263.0</ele><time>2026-04-10T18:22:49Z</time></trkpt><trkpt lat="41.69161282303465" lon="13.295350876781491"><ele>263.0</ele><time>2026-04-10T18:22:50Z</time></trkpt><trkpt lat="41.69154960433182" lon="13.295473358253982"><ele>263.0</ele><time>2026-04-10T18:22:51Z</time></trkpt><trkpt lat="41.69149895668645" lon="13.295595729872819"><ele>263.0</ele><time>2026-04-10T18:22:52Z</time></trkpt><trkpt lat="41.6914273260956" lon="13.29572420783626"><ele>263.0</ele><time>2026-04-10T18:22:53Z</time></trkpt><trkpt lat="41.691357973425184" lon="13.295844449854528"><ele>263.0</ele><time>2026-04-10T18:22:54Z</time></trkpt><trkpt lat="41.69129876348624" lon="13.295964276047576"><ele>263.2</ele><time>2026-04-10T18:22:55Z</time></trkpt><trkpt lat="41.69124210082257" lon="13.296085108673406"><ele>263.4</ele><time>2026-04-10T18:22:56Z</time></trkpt><trkpt lat="41.69118731964471" lon="13.296199890141292"><ele>263.59999999999997</ele><time>2026-04-10T18:22:57Z</time></trkpt><trkpt lat="41.6911375474032" lon="13.296316765785054"><ele>263.8</ele><time>2026-04-10T18:22:58Z</time></trkpt><trkpt lat="41.69108715904414" lon="13.29643294976831"><ele>264.0</ele><time>2026-04-10T18:22:59Z</time></trkpt><trkpt lat="41.69103531602235" lon="13.296552404351491"><ele>263.25</ele><time>2026-04-10T18:23:00Z</time></trkpt><trkpt lat="41.69098233726096" lon="13.296683459682402"><ele>262.5</ele><time>2026-04-10T18:23:01Z</time></trkpt><trkpt lat="41.69093473957227" lon="13.29682669033213"><ele>261.75</ele><time>2026-04-10T18:23:02Z</time></trkpt><trkpt lat="41.6908990066454" lon="13.296980031407681"><ele>261.0</ele><time>2026-04-10T18:23:03Z</time></trkpt><trkpt lat="41.69087356794952" lon="13.297148780390279"><ele>260.75</ele><time>2026-04-10T18:23:04Z</time></trkpt><trkpt lat="41.6908712826981" lon="13.297329657347575"><ele>260.5</ele><time>2026-04-10T18:23:05Z</time></trkpt><trkpt lat="41.69088493552992" lon="13.29751480120423"><ele>260.25</ele><time>2026-04-10T18:23:06Z</time></trkpt><trkpt lat="41.69090734319482" lon="13.29773081899603"><ele>260.0</ele><time>2026-04-10T18:23:07Z</time></trkpt><trkpt lat="41.690915784692855" lon="13.297956430777115"><ele>259.0</ele><time>2026-04-10T18:23:08Z</time></trkpt><trkpt lat="41.690918244158276" lon="13.298183514449926"><ele>258.0</ele><time>2026-04-10T18:23:09Z</time></trkpt><trkpt lat="41.69092521830324" lon="13.298409211930714"><ele>257.0</ele><time>2026-04-10T18:23:10Z</time></trkpt><trkpt lat="41.6909339507764" lon="13.298647579051336"><ele>257.0</ele><time>2026-04-10T18:23:11Z</time></trkpt><trkpt lat="41.69095256315791" lon="13.298886263032463"><ele>257.0</ele><time>2026-04-10T18:23:12Z</time></trkpt><trkpt lat="41.69096367398944" lon="13.299116737948248"><ele>257.0</ele><time>2026-04-10T18:23:13Z</time></trkpt><trkpt lat="41.69097099484447" lon="13.299344884227423"><ele>256.6666666666667</ele><time>2026-04-10T18:23:14Z</time></trkpt><trkpt lat="41.69096491825808" lon="13.29956594861833"><ele>256.3333333333333</ele><time>2026-04-10T18:23:15Z</time></trkpt><trkpt lat="41.69094688990557" lon="13.299788331955693"><ele>256.0</ele><time>2026-04-10T18:23:16Z</time></trkpt><trkpt lat="41.69092522887936" lon="13.300006425363451"><ele>256.0</ele><time>2026-04-10T18:23:17Z</time></trkpt><trkpt lat="41.69091370132932" lon="13.300219850449958"><ele>256.0</ele><time>2026-04-10T18:23:18Z</time></trkpt><trkpt lat="41.69091601223061" lon="13.300428838450147"><ele>256.0</ele><time>2026-04-10T18:23:19Z</time></trkpt><trkpt lat="41.69092248565841" lon="13.3006390591012"><ele>256.0</ele><time>2026-04-10T18:23:20Z</time></trkpt><trkpt lat="41.69092092950963" lon="13.30084833419023"><ele>256.0</ele><time>2026-04-10T18:23:21Z</time></trkpt><trkpt lat="41.69090237463876" lon="13.301059272970857"><ele>256.0</ele><time>2026-04-10T18:23:22Z</time></trkpt><trkpt lat="41.69088098483415" lon="13.301267700738663"><ele>256.66666666666663</ele><time>2026-04-10T18:23:23Z</time></trkpt><trkpt lat="41.690866621091395" lon="13.301472826078893"><ele>257.3333333333333</ele><time>2026-04-10T18:23:24Z</time></trkpt><trkpt lat="41.690870025467504" lon="13.301677469469075"><ele>258.0</ele><time>2026-04-10T18:23:25Z</time></trkpt><trkpt lat="41.690899680123024" lon="13.301881083561515"><ele>258.0</ele><time>2026-04-10T18:23:26Z</time></trkpt><trkpt lat="41.69093212385894" lon="13.302088944941637"><ele>258.0</ele><time>2026-04-10T18:23:27Z</time></trkpt><trkpt lat="41.69098824736631" lon="13.302291460043568"><ele>258.0</ele><time>2026-04-10T18:23:28Z</time></trkpt><trkpt lat="41.69103011793371" lon="13.302495537801663"><ele>258.0</ele><time>2026-04-10T18:23:29Z</time></trkpt><trkpt lat="41.69104973176427" lon="13.302703334875597"><ele>258.0</ele><time>2026-04-10T18:23:30Z</time></trkpt><trkpt lat="41.691067431671364" lon="13.302917765772266"><ele>258.0</ele><time>2026-04-10T18:23:31Z</time></trkpt><trkpt lat="41.6910786697704" lon="13.303126659451584"><ele>258.0</ele><time>2026-04-10T18:23:32Z</time></trkpt><trkpt lat="41.69107510509568" lon="13.303335309479115"><ele>258.0</ele><time>2026-04-10T18:23:33Z</time></trkpt><trkpt lat="41.691059659456556" lon="13.303544555802995"><ele>258.0</ele><time>2026-04-10T18:23:34Z</time></trkpt><trkpt lat="41.691022156540726" lon="13.303748218960939"><ele>258.3333333333333</ele><time>2026-04-10T18:23:35Z</time></trkpt><trkpt lat="41.69096927761197" lon="13.303946177690456"><ele>258.66666666666663</ele><time>2026-04-10T18:23:36Z</time></trkpt><trkpt lat="41.690911508949654" lon="13.304147440184817"><ele>259.0</ele><time>2026-04-10T18:23:37Z</time></trkpt><trkpt lat="41.6908510622881" lon="13.30434966375522"><ele>259.0</ele><time>2026-04-10T18:23:38Z</time></trkpt><trkpt lat="41.69078997391256" lon="13.30455331983022"><ele>259.0</ele><time>2026-04-10T18:23:39Z</time></trkpt><trkpt lat="41.69073108439842" lon="13.304750678419538"><ele>259.0</ele><time>2026-04-10T18:23:40Z</time></trkpt><trkpt lat="41.690671995705124" lon="13.304948704527247"><ele>261.3333333333333</ele><time>2026-04-10T18:23:41Z</time></trkpt><trkpt lat="41.69061108599071" lon="13.305149678770114"><ele>263.6666666666667</ele><time>2026-04-10T18:23:42Z</time></trkpt><trkpt lat="41.69056205183031" lon="13.305356946759739"><ele>266.0</ele><time>2026-04-10T18:23:43Z</time></trkpt><trkpt lat="41.6904786141966" lon="13.305538767652065"><ele>268.33333333333337</ele><time>2026-04-10T18:23:44Z</time></trkpt><trkpt lat="41.690409300228026" lon="13.305730739891276"><ele>270.6666666666667</ele><time>2026-04-10T18:23:45Z</time></trkpt><trkpt lat="41.69034445167467" lon="13.305926653535021"><ele>273.0</ele><time>2026-04-10T18:23:46Z</time></trkpt><trkpt lat="41.69029279495649" lon="13.306124820628666"><ele>267.3333333333333</ele><time>2026-04-10T18:23:47Z</time></trkpt><trkpt lat="41.690230846365026" lon="13.306313511889558"><ele>261.66666666666663</ele><time>2026-04-10T18:23:48Z</time></trkpt><trkpt lat="41.69015750887388" lon="13.30649521222971"><ele>256.0</ele><time>2026-04-10T18:23:49Z</time></trkpt><trkpt lat="41.690084737972654" lon="13.306679067329718"><ele>256.0</ele><time>2026-04-10T18:23:50Z</time></trkpt><trkpt lat="41.6900205355407" lon="13.306859890026898"><ele>256.0</ele><time>2026-04-10T18:23:51Z</time></trkpt><trkpt lat="41.6899619572008" lon="13.307040479765114"><ele>256.0</ele><time>2026-04-10T18:23:52Z</time></trkpt><trkpt lat="41.68989443957399" lon="13.307204799128838"><ele>256.0</ele><time>2026-04-10T18:23:53Z</time></trkpt><trkpt lat="41.6898063785974" lon="13.307347269704985"><ele>258.0</ele><time>2026-04-10T18:23:54Z</time></trkpt><trkpt lat="41.68970528867266" lon="13.307483460415355"><ele>260.0</ele><time>2026-04-10T18:23:55Z</time></trkpt><trkpt lat="41.6896160944991" lon="13.307626692183016"><ele>262.0</ele><time>2026-04-10T18:23:56Z</time></trkpt><trkpt lat="41.68952091101826" lon="13.3077519621118"><ele>264.0</ele><time>2026-04-10T18:23:57Z</time></trkpt><trkpt lat="41.68943915052722" lon="13.307886818220782"><ele>261.5</ele><time>2026-04-10T18:23:58Z</time></trkpt><trkpt lat="41.6893659041314" lon="13.308020537305863"><ele>259.0</ele><time>2026-04-10T18:23:59Z</time></trkpt><trkpt lat="41.689325453113064" lon="13.30818120901117"><ele>256.5</ele><time>2026-04-10T18:24:00Z</time></trkpt><trkpt lat="41.6892810601174" lon="13.308332181494485"><ele>254.0</ele><time>2026-04-10T18:24:01Z</time></trkpt><trkpt lat="41.68922863880443" lon="13.308471090900145"><ele>254.0</ele><time>2026-04-10T18:24:02Z</time></trkpt><trkpt lat="41.68919041004544" lon="13.308613039443516"><ele>254.0</ele><time>2026-04-10T18:24:03Z</time></trkpt><trkpt lat="41.689152005532186" lon="13.308755173046855"><ele>254.0</ele><time>2026-04-10T18:24:04Z</time></trkpt><trkpt lat="41.68911957178369" lon="13.308901265233478"><ele>254.0</ele><time>2026-04-10T18:24:05Z</time></trkpt><trkpt lat="41.68909492106487" lon="13.309046519083553"><ele>255.0</ele><time>2026-04-10T18:24:06Z</time></trkpt><trkpt lat="41.68907265315495" lon="13.309183386015405"><ele>256.0</ele><time>2026-04-10T18:24:07Z</time></trkpt><trkpt lat="41.68905018664907" lon="13.309321473599123"><ele>257.0</ele><time>2026-04-10T18:24:08Z</time></trkpt><trkpt lat="41.68902444741015" lon="13.309479676545534"><ele>258.0</ele><time>2026-04-10T18:24:09Z</time></trkpt><trkpt lat="41.68899837424179" lon="13.309643253007664"><ele>259.6666666666667</ele><time>2026-04-10T18:24:10Z</time></trkpt><trkpt lat="41.68896961290921" lon="13.309829288737362"><ele>261.33333333333337</ele><time>2026-04-10T18:24:11Z</time></trkpt><trkpt lat="41.68894142048208" lon="13.31004068654297"><ele>263.0</ele><time>2026-04-10T18:24:12Z</time></trkpt><trkpt lat="41.6889186218559" lon="13.31027671164304"><ele>263.0</ele><time>2026-04-10T18:24:13Z</time></trkpt><trkpt lat="41.6888900214242" lon="13.310522314054442"><ele>263.0</ele><time>2026-04-10T18:24:14Z</time></trkpt><trkpt lat="41.68885817902838" lon="13.31076196940999"><ele>263.0</ele><time>2026-04-10T18:24:15Z</time></trkpt><trkpt lat="41.6888243633987" lon="13.310995479450364"><ele>264.33333333333337</ele><time>2026-04-10T18:24:16Z</time></trkpt><trkpt lat="41.688788809552086" lon="13.311230562758723"><ele>265.6666666666667</ele><time>2026-04-10T18:24:17Z</time></trkpt><trkpt lat="41.68875390321931" lon="13.311463549750224"><ele>267.0</ele><time>2026-04-10T18:24:18Z</time></trkpt><trkpt lat="41.68872536363659" lon="13.311688068816725"><ele>268.6666666666667</ele><time>2026-04-10T18:24:19Z</time></trkpt><trkpt lat="41.688700727851305" lon="13.311928772241345"><ele>270.33333333333337</ele><time>2026-04-10T18:24:20Z</time></trkpt><trkpt lat="41.68868287743532" lon="13.312162123117202"><ele>272.0</ele><time>2026-04-10T18:24:21Z</time></trkpt><trkpt lat="41.6886672154645" lon="13.312388584062258"><ele>273.0</ele><time>2026-04-10T18:24:22Z</time></trkpt><trkpt lat="41.68864852733253" lon="13.312612281331873"><ele>274.0</ele><time>2026-04-10T18:24:23Z</time></trkpt><trkpt lat="41.688629305489584" lon="13.312828012520184"><ele>275.0</ele><time>2026-04-10T18:24:24Z</time></trkpt><trkpt lat="41.688610813510685" lon="13.313035552273172"><ele>275.5</ele><time>2026-04-10T18:24:25Z</time></trkpt><trkpt lat="41.68859436159725" lon="13.313235879142685"><ele>276.0</ele><time>2026-04-10T18:24:26Z</time></trkpt><trkpt lat="41.68858031525181" lon="13.31342479536473"><ele>276.5</ele><time>2026-04-10T18:24:27Z</time></trkpt><trkpt lat="41.68856818795386" lon="13.313608079280257"><ele>277.0</ele><time>2026-04-10T18:24:28Z</time></trkpt><trkpt lat="41.688559516781474" lon="13.313785159064887"><ele>273.75</ele><time>2026-04-10T18:24:29Z</time></trkpt><trkpt lat="41.6885592276266" lon="13.313960558921055"><ele>270.5</ele><time>2026-04-10T18:24:30Z</time></trkpt><trkpt lat="41.68856397893002" lon="13.314139305382646"><ele>267.25</ele><time>2026-04-10T18:24:31Z</time></trkpt><trkpt lat="41.688572011420675" lon="13.314319501395095"><ele>264.0</ele><time>2026-04-10T18:24:32Z</time></trkpt><trkpt lat="41.68858268514486" lon="13.314502477264353"><ele>267.25</ele><time>2026-04-10T18:24:33Z</time></trkpt><trkpt lat="41.6885975795874" lon="13.314685015442144"><ele>270.5</ele><time>2026-04-10T18:24:34Z</time></trkpt><trkpt lat="41.68861641361135" lon="13.314865147390927"><ele>273.75</ele><time>2026-04-10T18:24:35Z</time></trkpt><trkpt lat="41.68863589377282" lon="13.315032976448743"><ele>277.0</ele><time>2026-04-10T18:24:36Z</time></trkpt><trkpt lat="41.68865785298261" lon="13.315200576529095"><ele>277.0</ele><time>2026-04-10T18:24:37Z</time></trkpt><trkpt lat="41.688682359938376" lon="13.315368299040541"><ele>277.0</ele><time>2026-04-10T18:24:38Z</time></trkpt><trkpt lat="41.688707061736906" lon="13.315535789251728"><ele>277.0</ele><time>2026-04-10T18:24:39Z</time></trkpt><trkpt lat="41.68873212054632" lon="13.315704679889462"><ele>277.0</ele><time>2026-04-10T18:24:40Z</time></trkpt><trkpt lat="41.688756353294615" lon="13.31587190925533"><ele>276.5</ele><time>2026-04-10T18:24:41Z</time></trkpt><trkpt lat="41.68877321307129" lon="13.31603821024838"><ele>276.0</ele><time>2026-04-10T18:24:42Z</time></trkpt><trkpt lat="41.68878386503966" lon="13.31620532551873"><ele>275.5</ele><time>2026-04-10T18:24:43Z</time></trkpt><trkpt lat="41.68879176099477" lon="13.316370784010426"><ele>275.0</ele><time>2026-04-10T18:24:44Z</time></trkpt><trkpt lat="41.68879891835617" lon="13.316529881898106"><ele>274.6</ele><time>2026-04-10T18:24:45Z</time></trkpt><trkpt lat="41.68880896288696" lon="13.316672289784977"><ele>274.2</ele><time>2026-04-10T18:24:46Z</time></trkpt><trkpt lat="41.68882017723595" lon="13.316800353295424"><ele>273.8</ele><time>2026-04-10T18:24:47Z</time></trkpt><trkpt lat="41.68882754130654" lon="13.316926360274795"><ele>273.4</ele><time>2026-04-10T18:24:48Z</time></trkpt><trkpt lat="41.688828870314865" lon="13.317065467425879"><ele>273.0</ele><time>2026-04-10T18:24:49Z</time></trkpt><trkpt lat="41.68882760813023" lon="13.317215288724947"><ele>273.25</ele><time>2026-04-10T18:24:50Z</time></trkpt><trkpt lat="41.68884198778948" lon="13.31736797378217"><ele>273.5</ele><time>2026-04-10T18:24:51Z</time></trkpt><trkpt lat="41.688839668224055" lon="13.317522588267215"><ele>273.75</ele><time>2026-04-10T18:24:52Z</time></trkpt><trkpt lat="41.6888410416576" lon="13.317675773123865"><ele>274.0</ele><time>2026-04-10T18:24:53Z</time></trkpt><trkpt lat="41.68884237204086" lon="13.317829175841975"><ele>274.0</ele><time>2026-04-10T18:24:54Z</time></trkpt><trkpt lat="41.6888782084933" lon="13.317971490590695"><ele>274.0</ele><time>2026-04-10T18:24:55Z</time></trkpt><trkpt lat="41.68890625437102" lon="13.318103081784937"><ele>274.0</ele><time>2026-04-10T18:24:56Z</time></trkpt><trkpt lat="41.68892059006861" lon="13.318237757112712"><ele>274.0</ele><time>2026-04-10T18:24:57Z</time></trkpt><trkpt lat="41.68889393047441" lon="13.318375972107766"><ele>274.0</ele><time>2026-04-10T18:24:58Z</time></trkpt><trkpt lat="41.688852168229424" lon="13.318530139184256"><ele>274.5</ele><time>2026-04-10T18:24:59Z</time></trkpt><trkpt lat="41.68882029313806" lon="13.318702200557333"><ele>275.0</ele><time>2026-04-10T18:25:00Z</time></trkpt><trkpt lat="41.688806530009245" lon="13.318893379960267"><ele>275.5</ele><time>2026-04-10T18:25:01Z</time></trkpt><trkpt lat="41.6887966061175" lon="13.319096246152474"><ele>276.0</ele><time>2026-04-10T18:25:02Z</time></trkpt><trkpt lat="41.6887885330065" lon="13.319303662948828"><ele>274.6666666666667</ele><time>2026-04-10T18:25:03Z</time></trkpt><trkpt lat="41.68878240046747" lon="13.319520999193333"><ele>273.33333333333337</ele><time>2026-04-10T18:25:04Z</time></trkpt><trkpt lat="41.68876529747136" lon="13.319739326597702"><ele>272.0</ele><time>2026-04-10T18:25:05Z</time></trkpt><trkpt lat="41.6887426588404" lon="13.319956705374004"><ele>271.0</ele><time>2026-04-10T18:25:06Z</time></trkpt><trkpt lat="41.68872596561143" lon="13.32017428141132"><ele>270.0</ele><time>2026-04-10T18:25:07Z</time></trkpt><trkpt lat="41.68871216834769" lon="13.320389936337117"><ele>269.0</ele><time>2026-04-10T18:25:08Z</time></trkpt><trkpt lat="41.6886991724955" lon="13.320607475572485"><ele>268.33333333333337</ele><time>2026-04-10T18:25:09Z</time></trkpt><trkpt lat="41.6886873134448" lon="13.320817554284988"><ele>267.6666666666667</ele><time>2026-04-10T18:25:10Z</time></trkpt><trkpt lat="41.68867590750198" lon="13.321029167525165"><ele>267.0</ele><time>2026-04-10T18:25:11Z</time></trkpt><trkpt lat="41.68866482554307" lon="13.321234769931927"><ele>266.6666666666667</ele><time>2026-04-10T18:25:12Z</time></trkpt><trkpt lat="41.68865385988638" lon="13.321438214583885"><ele>266.33333333333337</ele><time>2026-04-10T18:25:13Z</time></trkpt><trkpt lat="41.688642926239744" lon="13.32164106534503"><ele>266.0</ele><time>2026-04-10T18:25:14Z</time></trkpt><trkpt lat="41.68863246549418" lon="13.321840614853295"><ele>266.0</ele><time>2026-04-10T18:25:15Z</time></trkpt><trkpt lat="41.68862208045626" lon="13.322041602434528"><ele>266.0</ele><time>2026-04-10T18:25:16Z</time></trkpt><trkpt lat="41.6886130340784" lon="13.322233213709232"><ele>266.0</ele><time>2026-04-10T18:25:17Z</time></trkpt><trkpt lat="41.68860410902235" lon="13.32242225526598"><ele>266.0</ele><time>2026-04-10T18:25:18Z</time></trkpt><trkpt lat="41.68859617659822" lon="13.322606732016624"><ele>265.25</ele><time>2026-04-10T18:25:19Z</time></trkpt><trkpt lat="41.68859018474744" lon="13.322785507907716"><ele>264.5</ele><time>2026-04-10T18:25:20Z</time></trkpt><trkpt lat="41.68858789272959" lon="13.322959275464614"><ele>263.75</ele><time>2026-04-10T18:25:21Z</time></trkpt><trkpt lat="41.688598311773305" lon="13.323110068127312"><ele>263.0</ele><time>2026-04-10T18:25:22Z</time></trkpt><trkpt lat="41.688596725942794" lon="13.323256579555446"><ele>263.0</ele><time>2026-04-10T18:25:23Z</time></trkpt><trkpt lat="41.688597157334534" lon="13.323389911194154"><ele>263.0</ele><time>2026-04-10T18:25:24Z</time></trkpt><trkpt lat="41.6885993504234" lon="13.323510159557927"><ele>263.0</ele><time>2026-04-10T18:25:25Z</time></trkpt><trkpt lat="41.68860224148114" lon="13.323618714793449"><ele>263.0</ele><time>2026-04-10T18:25:26Z</time></trkpt><trkpt lat="41.68860632757199" lon="13.323726236952709"><ele>263.0</ele><time>2026-04-10T18:25:27Z</time></trkpt><trkpt lat="41.68860994466994" lon="13.323822078933793"><ele>263.0</ele><time>2026-04-10T18:25:28Z</time></trkpt><trkpt lat="41.68860304244636" lon="13.323969773270798"><ele>262.4</ele><time>2026-04-10T18:25:30Z</time></trkpt><trkpt lat="41.68858255932956" lon="13.32406590918511"><ele>261.8</ele><time>2026-04-10T18:25:32Z</time></trkpt><trkpt lat="41.6885617744669" lon="13.324159970327042"><ele>261.2</ele><time>2026-04-10T18:25:34Z</time></trkpt><trkpt lat="41.68857377261739" lon="13.32429942051333"><ele>260.6</ele><time>2026-04-10T18:25:36Z</time></trkpt><trkpt lat="41.6885783051666" lon="13.324389332679985"><ele>260.0</ele><time>2026-04-10T18:25:37Z</time></trkpt><trkpt lat="41.688632631450055" lon="13.324585238333793"><ele>260.0</ele><time>2026-04-10T18:25:39Z</time></trkpt><trkpt lat="41.688655696669365" lon="13.324713711150293"><ele>260.0</ele><time>2026-04-10T18:25:40Z</time></trkpt><trkpt lat="41.688678193694216" lon="13.324819536373244"><ele>260.0</ele><time>2026-04-10T18:25:41Z</time></trkpt><trkpt lat="41.688704333416965" lon="13.324925166170589"><ele>260.0</ele><time>2026-04-10T18:25:42Z</time></trkpt><trkpt lat="41.68871662692915" lon="13.325033096241096"><ele>260.0</ele><time>2026-04-10T18:25:43Z</time></trkpt><trkpt lat="41.68872621154227" lon="13.325131414653804"><ele>260.0</ele><time>2026-04-10T18:25:44Z</time></trkpt><trkpt lat="41.68873287672104" lon="13.325226770132351"><ele>259.6666666666667</ele><time>2026-04-10T18:25:45Z</time></trkpt><trkpt lat="41.688740059978" lon="13.325315129459634"><ele>259.33333333333337</ele><time>2026-04-10T18:25:46Z</time></trkpt><trkpt lat="41.688749115357254" lon="13.325398776207777"><ele>259.0</ele><time>2026-04-10T18:25:47Z</time></trkpt><trkpt lat="41.688763188348794" lon="13.325556450994762"><ele>258.6666666666667</ele><time>2026-04-10T18:25:49Z</time></trkpt><trkpt lat="41.68877269498795" lon="13.32569567163582"><ele>258.3333333333333</ele><time>2026-04-10T18:25:51Z</time></trkpt><trkpt lat="41.68878092480458" lon="13.325794361910951"><ele>258.0</ele><time>2026-04-10T18:25:53Z</time></trkpt><trkpt lat="41.68878215360565" lon="13.325895526395657"><ele>257.6</ele><time>2026-04-10T18:25:55Z</time></trkpt><trkpt lat="41.68878889956393" lon="13.326067602754424"><ele>257.20000000000005</ele><time>2026-04-10T18:25:57Z</time></trkpt><trkpt lat="41.68878967117089" lon="13.32617589339562"><ele>256.8</ele><time>2026-04-10T18:25:58Z</time></trkpt><trkpt lat="41.688790664136285" lon="13.32630832019162"><ele>256.40000000000003</ele><time>2026-04-10T18:25:59Z</time></trkpt><trkpt lat="41.68878941751478" lon="13.326455959329381"><ele>256.0</ele><time>2026-04-10T18:26:00Z</time></trkpt><trkpt lat="41.68879040991212" lon="13.326598778496136"><ele>255.5</ele><time>2026-04-10T18:26:01Z</time></trkpt><trkpt lat="41.688789807896114" lon="13.326747539089197"><ele>255.0</ele><time>2026-04-10T18:26:02Z</time></trkpt><trkpt lat="41.688794350326376" lon="13.32691423492835"><ele>254.5</ele><time>2026-04-10T18:26:03Z</time></trkpt><trkpt lat="41.688808680431464" lon="13.327090623547102"><ele>254.0</ele><time>2026-04-10T18:26:04Z</time></trkpt><trkpt lat="41.68882249007802" lon="13.327306466421994"><ele>253.66666666666669</ele><time>2026-04-10T18:26:05Z</time></trkpt><trkpt lat="41.68885150797803" lon="13.327520491038857"><ele>253.33333333333331</ele><time>2026-04-10T18:26:06Z</time></trkpt><trkpt lat="41.6888794556039" lon="13.327732697291511"><ele>253.0</ele><time>2026-04-10T18:26:07Z</time></trkpt><trkpt lat="41.68890899686129" lon="13.327955233762944"><ele>253.0</ele><time>2026-04-10T18:26:08Z</time></trkpt><trkpt lat="41.68894480503345" lon="13.328184532124022"><ele>253.0</ele><time>2026-04-10T18:26:09Z</time></trkpt><trkpt lat="41.68898854633535" lon="13.32842084465625"><ele>253.0</ele><time>2026-04-10T18:26:10Z</time></trkpt><trkpt lat="41.68902801582079" lon="13.328639892678"><ele>253.0</ele><time>2026-04-10T18:26:11Z</time></trkpt><trkpt lat="41.68906567245384" lon="13.328874713786727"><ele>253.0</ele><time>2026-04-10T18:26:12Z</time></trkpt><trkpt lat="41.68910901768274" lon="13.329091817899855"><ele>253.0</ele><time>2026-04-10T18:26:13Z</time></trkpt><trkpt lat="41.689148801581986" lon="13.329318027354907"><ele>253.0</ele><time>2026-04-10T18:26:14Z</time></trkpt><trkpt lat="41.689186263448725" lon="13.329544983055833"><ele>253.0</ele><time>2026-04-10T18:26:15Z</time></trkpt><trkpt lat="41.68922142882035" lon="13.329773578782858"><ele>253.0</ele><time>2026-04-10T18:26:16Z</time></trkpt><trkpt lat="41.68925115613987" lon="13.330001447012213"><ele>253.33333333333331</ele><time>2026-04-10T18:26:17Z</time></trkpt><trkpt lat="41.68927043701625" lon="13.330235319152116"><ele>253.66666666666669</ele><time>2026-04-10T18:26:18Z</time></trkpt><trkpt lat="41.68930480564403" lon="13.330465860704587"><ele>254.0</ele><time>2026-04-10T18:26:19Z</time></trkpt><trkpt lat="41.689338953881105" lon="13.330706429348387"><ele>254.0</ele><time>2026-04-10T18:26:20Z</time></trkpt><trkpt lat="41.68937774287872" lon="13.33094290796872"><ele>254.0</ele><time>2026-04-10T18:26:21Z</time></trkpt><trkpt lat="41.689378719505896" lon="13.331184981451955"><ele>254.0</ele><time>2026-04-10T18:26:22Z</time></trkpt><trkpt lat="41.68937250288853" lon="13.331416778859824"><ele>254.0</ele><time>2026-04-10T18:26:23Z</time></trkpt><trkpt lat="41.689396499705246" lon="13.331657182879082"><ele>254.0</ele><time>2026-04-10T18:26:24Z</time></trkpt><trkpt lat="41.68940533303359" lon="13.331903713691913"><ele>254.0</ele><time>2026-04-10T18:26:25Z</time></trkpt><trkpt lat="41.68942235318092" lon="13.332149833992169"><ele>255.33333333333334</ele><time>2026-04-10T18:26:26Z</time></trkpt><trkpt lat="41.68943368054442" lon="13.33238497849741"><ele>256.6666666666667</ele><time>2026-04-10T18:26:27Z</time></trkpt><trkpt lat="41.68944314315703" lon="13.332627760869403"><ele>258.0</ele><time>2026-04-10T18:26:28Z</time></trkpt><trkpt lat="41.68945730398289" lon="13.332867316498142"><ele>258.3333333333333</ele><time>2026-04-10T18:26:29Z</time></trkpt><trkpt lat="41.689461998747134" lon="13.333101975456705"><ele>258.66666666666663</ele><time>2026-04-10T18:26:30Z</time></trkpt><trkpt lat="41.6894619487582" lon="13.333337037916989"><ele>259.0</ele><time>2026-04-10T18:26:31Z</time></trkpt><trkpt lat="41.68944626494405" lon="13.333585732758271"><ele>259.0</ele><time>2026-04-10T18:26:32Z</time></trkpt><trkpt lat="41.68945747851183" lon="13.333826699892711"><ele>259.0</ele><time>2026-04-10T18:26:33Z</time></trkpt><trkpt lat="41.68946856636619" lon="13.334064965555887"><ele>259.0</ele><time>2026-04-10T18:26:34Z</time></trkpt><trkpt lat="41.689479752891636" lon="13.334305351567469"><ele>259.0</ele><time>2026-04-10T18:26:35Z</time></trkpt><trkpt lat="41.68949171554555" lon="13.33453527193617"><ele>259.0</ele><time>2026-04-10T18:26:36Z</time></trkpt><trkpt lat="41.68950399375174" lon="13.334765229187498"><ele>259.0</ele><time>2026-04-10T18:26:37Z</time></trkpt><trkpt lat="41.689515314303904" lon="13.334977250683233"><ele>259.0</ele><time>2026-04-10T18:26:38Z</time></trkpt><trkpt lat="41.689547988663364" lon="13.335184157717997"><ele>259.0</ele><time>2026-04-10T18:26:39Z</time></trkpt><trkpt lat="41.689559496718154" lon="13.33539965944702"><ele>259.0</ele><time>2026-04-10T18:26:40Z</time></trkpt><trkpt lat="41.68957229102058" lon="13.335610262681282"><ele>259.0</ele><time>2026-04-10T18:26:41Z</time></trkpt><trkpt lat="41.689587622572645" lon="13.335826434088291"><ele>259.0</ele><time>2026-04-10T18:26:42Z</time></trkpt><trkpt lat="41.68961285405236" lon="13.336043348173535"><ele>259.0</ele><time>2026-04-10T18:26:43Z</time></trkpt><trkpt lat="41.68965013706499" lon="13.336255926822655"><ele>259.0</ele><time>2026-04-10T18:26:44Z</time></trkpt><trkpt lat="41.68967939978548" lon="13.3364639788925"><ele>259.0</ele><time>2026-04-10T18:26:45Z</time></trkpt><trkpt lat="41.68972227029928" lon="13.336666501226347"><ele>259.0</ele><time>2026-04-10T18:26:46Z</time></trkpt><trkpt lat="41.689783001772085" lon="13.336860283919552"><ele>259.0</ele><time>2026-04-10T18:26:47Z</time></trkpt><trkpt lat="41.689815058894546" lon="13.337067249959606"><ele>259.0</ele><time>2026-04-10T18:26:48Z</time></trkpt><trkpt lat="41.68987930476938" lon="13.337259662621495"><ele>259.0</ele><time>2026-04-10T18:26:49Z</time></trkpt><trkpt lat="41.68993024659444" lon="13.337455092233535"><ele>259.0</ele><time>2026-04-10T18:26:50Z</time></trkpt><trkpt lat="41.68999294941868" lon="13.337647610236441"><ele>259.0</ele><time>2026-04-10T18:26:51Z</time></trkpt><trkpt lat="41.690061105599064" lon="13.337839427826067"><ele>259.0</ele><time>2026-04-10T18:26:52Z</time></trkpt><trkpt lat="41.69013284936625" lon="13.33802871440192"><ele>259.0</ele><time>2026-04-10T18:26:53Z</time></trkpt><trkpt lat="41.69020504373988" lon="13.33821801407408"><ele>259.0</ele><time>2026-04-10T18:26:54Z</time></trkpt><trkpt lat="41.69027181395763" lon="13.338410457652339"><ele>259.0</ele><time>2026-04-10T18:26:55Z</time></trkpt><trkpt lat="41.690375315870966" lon="13.33857723804513"><ele>260.0</ele><time>2026-04-10T18:26:56Z</time></trkpt><trkpt lat="41.69047135295411" lon="13.338744300654636"><ele>261.0</ele><time>2026-04-10T18:26:57Z</time></trkpt><trkpt lat="41.69057618692751" lon="13.33890043687624"><ele>262.0</ele><time>2026-04-10T18:26:58Z</time></trkpt><trkpt lat="41.69068027115304" lon="13.339056924212672"><ele>262.0</ele><time>2026-04-10T18:26:59Z</time></trkpt><trkpt lat="41.690782534876874" lon="13.339213013469282"><ele>262.0</ele><time>2026-04-10T18:27:00Z</time></trkpt><trkpt lat="41.690875303786754" lon="13.339378909444603"><ele>262.0</ele><time>2026-04-10T18:27:01Z</time></trkpt><trkpt lat="41.69097210741045" lon="13.33954191394928"><ele>262.0</ele><time>2026-04-10T18:27:02Z</time></trkpt><trkpt lat="41.69105905054536" lon="13.339714657800368"><ele>262.0</ele><time>2026-04-10T18:27:03Z</time></trkpt><trkpt lat="41.691140930889794" lon="13.339891616258186"><ele>262.0</ele><time>2026-04-10T18:27:04Z</time></trkpt><trkpt lat="41.69122138862652" lon="13.340071198510612"><ele>262.3333333333333</ele><time>2026-04-10T18:27:05Z</time></trkpt><trkpt lat="41.69129806908892" lon="13.34025598057348"><ele>262.6666666666667</ele><time>2026-04-10T18:27:06Z</time></trkpt><trkpt lat="41.691372986239365" lon="13.340443779670888"><ele>263.0</ele><time>2026-04-10T18:27:07Z</time></trkpt><trkpt lat="41.69143493210446" lon="13.340645693044145"><ele>263.0</ele><time>2026-04-10T18:27:08Z</time></trkpt><trkpt lat="41.69148231734423" lon="13.340859382489825"><ele>263.0</ele><time>2026-04-10T18:27:09Z</time></trkpt><trkpt lat="41.691516949173966" lon="13.341081737638554"><ele>263.0</ele><time>2026-04-10T18:27:10Z</time></trkpt><trkpt lat="41.69153725059599" lon="13.341315132936503"><ele>262.0</ele><time>2026-04-10T18:27:11Z</time></trkpt><trkpt lat="41.691555218524144" lon="13.341553350299488"><ele>261.0</ele><time>2026-04-10T18:27:12Z</time></trkpt><trkpt lat="41.69157090425631" lon="13.341798087215697"><ele>260.0</ele><time>2026-04-10T18:27:13Z</time></trkpt><trkpt lat="41.69158322601278" lon="13.342042921254121"><ele>258.33333333333337</ele><time>2026-04-10T18:27:14Z</time></trkpt><trkpt lat="41.69159367192477" lon="13.342293120688868"><ele>256.6666666666667</ele><time>2026-04-10T18:27:15Z</time></trkpt><trkpt lat="41.691602201239384" lon="13.342537081126094"><ele>255.0</ele><time>2026-04-10T18:27:16Z</time></trkpt><trkpt lat="41.69161163809263" lon="13.342788529825599"><ele>255.0</ele><time>2026-04-10T18:27:17Z</time></trkpt><trkpt lat="41.69161388303497" lon="13.343039271082684"><ele>255.0</ele><time>2026-04-10T18:27:18Z</time></trkpt><trkpt lat="41.69161444649719" lon="13.343287337931285"><ele>255.0</ele><time>2026-04-10T18:27:19Z</time></trkpt><trkpt lat="41.69161258384573" lon="13.34353415093903"><ele>253.66666666666669</ele><time>2026-04-10T18:27:20Z</time></trkpt><trkpt lat="41.691615295886194" lon="13.343780535902487"><ele>252.33333333333334</ele><time>2026-04-10T18:27:21Z</time></trkpt><trkpt lat="41.691620011352114" lon="13.344025395879964"><ele>251.0</ele><time>2026-04-10T18:27:22Z</time></trkpt><trkpt lat="41.69163090150761" lon="13.344269220093727"><ele>251.0</ele><time>2026-04-10T18:27:23Z</time></trkpt><trkpt lat="41.691647099967426" lon="13.344504413215535"><ele>251.0</ele><time>2026-04-10T18:27:24Z</time></trkpt><trkpt lat="41.69164678761399" lon="13.344737533448571"><ele>251.0</ele><time>2026-04-10T18:27:25Z</time></trkpt><trkpt lat="41.691667074988885" lon="13.344962071957122"><ele>251.0</ele><time>2026-04-10T18:27:26Z</time></trkpt><trkpt lat="41.69168758463675" lon="13.345174626483669"><ele>251.0</ele><time>2026-04-10T18:27:27Z</time></trkpt><trkpt lat="41.69170347593541" lon="13.345381545507133"><ele>251.0</ele><time>2026-04-10T18:27:28Z</time></trkpt><trkpt lat="41.69173190164462" lon="13.345570557621727"><ele>252.25</ele><time>2026-04-10T18:27:29Z</time></trkpt><trkpt lat="41.69173589302015" lon="13.34575229877781"><ele>253.5</ele><time>2026-04-10T18:27:30Z</time></trkpt><trkpt lat="41.691731726554934" lon="13.345921237394725"><ele>254.75</ele><time>2026-04-10T18:27:31Z</time></trkpt><trkpt lat="41.69171686706139" lon="13.346068734794713"><ele>256.0</ele><time>2026-04-10T18:27:32Z</time></trkpt><trkpt lat="41.691696746105684" lon="13.346196186305221"><ele>256.0</ele><time>2026-04-10T18:27:33Z</time></trkpt><trkpt lat="41.6916741154992" lon="13.346314526999477"><ele>256.0</ele><time>2026-04-10T18:27:34Z</time></trkpt><trkpt lat="41.69164529135292" lon="13.346431307615278"><ele>256.0</ele><time>2026-04-10T18:27:35Z</time></trkpt><trkpt lat="41.69161982450928" lon="13.346548206167569"><ele>256.0</ele><time>2026-04-10T18:27:36Z</time></trkpt><trkpt lat="41.69158759878619" lon="13.346666640331135"><ele>256.0</ele><time>2026-04-10T18:27:37Z</time></trkpt><trkpt lat="41.691538426098326" lon="13.346782249548204"><ele>256.40000000000003</ele><time>2026-04-10T18:27:38Z</time></trkpt><trkpt lat="41.691501163705084" lon="13.34690808780298"><ele>256.8</ele><time>2026-04-10T18:27:39Z</time></trkpt><trkpt lat="41.691474526797066" lon="13.347044761659294"><ele>257.20000000000005</ele><time>2026-04-10T18:27:40Z</time></trkpt><trkpt lat="41.6914278147264" lon="13.347172148370284"><ele>257.6</ele><time>2026-04-10T18:27:41Z</time></trkpt><trkpt lat="41.69137989782217" lon="13.347302872858851"><ele>258.0</ele><time>2026-04-10T18:27:42Z</time></trkpt><trkpt lat="41.69133330122525" lon="13.347434516986414"><ele>258.4</ele><time>2026-04-10T18:27:43Z</time></trkpt><trkpt lat="41.69128954353946" lon="13.347560693172817"><ele>258.8</ele><time>2026-04-10T18:27:44Z</time></trkpt><trkpt lat="41.69124400391782" lon="13.347686688520136"><ele>259.2</ele><time>2026-04-10T18:27:45Z</time></trkpt><trkpt lat="41.6911984750544" lon="13.347812005650022"><ele>259.6</ele><time>2026-04-10T18:27:46Z</time></trkpt><trkpt lat="41.69115263021763" lon="13.347938333815115"><ele>260.0</ele><time>2026-04-10T18:27:47Z</time></trkpt><trkpt lat="41.691107280507275" lon="13.348063780073312"><ele>259.6</ele><time>2026-04-10T18:27:48Z</time></trkpt><trkpt lat="41.691061342229254" lon="13.348188534883283"><ele>259.2</ele><time>2026-04-10T18:27:49Z</time></trkpt><trkpt lat="41.69101600500284" lon="13.348314242613242"><ele>258.8</ele><time>2026-04-10T18:27:50Z</time></trkpt><trkpt lat="41.69097004990951" lon="13.348438571703591"><ele>258.4</ele><time>2026-04-10T18:27:51Z</time></trkpt><trkpt lat="41.690925946401066" lon="13.348563687110735"><ele>258.0</ele><time>2026-04-10T18:27:52Z</time></trkpt><trkpt lat="41.690882549857356" lon="13.34868920302783"><ele>258.0</ele><time>2026-04-10T18:27:53Z</time></trkpt><trkpt lat="41.69084279031797" lon="13.348814131112341"><ele>258.0</ele><time>2026-04-10T18:27:54Z</time></trkpt><trkpt lat="41.69080452032381" lon="13.348942049987969"><ele>258.0</ele><time>2026-04-10T18:27:55Z</time></trkpt><trkpt lat="41.690768274968036" lon="13.34906668422217"><ele>258.0</ele><time>2026-04-10T18:27:56Z</time></trkpt><trkpt lat="41.69073694044687" lon="13.349191788724449"><ele>258.0</ele><time>2026-04-10T18:27:57Z</time></trkpt><trkpt lat="41.69069071703414" lon="13.349308248714221"><ele>258.3333333333333</ele><time>2026-04-10T18:27:58Z</time></trkpt><trkpt lat="41.690661561025856" lon="13.349425381016198"><ele>258.6666666666667</ele><time>2026-04-10T18:27:59Z</time></trkpt><trkpt lat="41.690634707598086" lon="13.349537336729888"><ele>259.0</ele><time>2026-04-10T18:28:00Z</time></trkpt><trkpt lat="41.690609670893096" lon="13.34964587147867"><ele>259.33333333333337</ele><time>2026-04-10T18:28:01Z</time></trkpt><trkpt lat="41.690585653986496" lon="13.349750632136686"><ele>259.6666666666667</ele><time>2026-04-10T18:28:02Z</time></trkpt><trkpt lat="41.690563508263146" lon="13.349851957806878"><ele>260.0</ele><time>2026-04-10T18:28:03Z</time></trkpt><trkpt lat="41.69055625059305" lon="13.349956288112537"><ele>260.1666666666667</ele><time>2026-04-10T18:28:04Z</time></trkpt><trkpt lat="41.69053382452471" lon="13.350052121603673"><ele>260.33333333333337</ele><time>2026-04-10T18:28:05Z</time></trkpt><trkpt lat="41.69051373617316" lon="13.350147263370712"><ele>260.5</ele><time>2026-04-10T18:28:06Z</time></trkpt><trkpt lat="41.6904946870026" lon="13.350236537951092"><ele>260.6666666666667</ele><time>2026-04-10T18:28:07Z</time></trkpt><trkpt lat="41.69047708899333" lon="13.350318808407478"><ele>260.8333333333333</ele><time>2026-04-10T18:28:08Z</time></trkpt><trkpt lat="41.69045758163535" lon="13.350399765415064"><ele>261.0</ele><time>2026-04-10T18:28:09Z</time></trkpt><trkpt lat="41.69042775802158" lon="13.350542866687517"><ele>261.1666666666667</ele><time>2026-04-10T18:28:11Z</time></trkpt><trkpt lat="41.690403779046605" lon="13.35065737638709"><ele>261.3333333333333</ele><time>2026-04-10T18:28:13Z</time></trkpt><trkpt lat="41.69037996522949" lon="13.350754742898774"><ele>261.5</ele><time>2026-04-10T18:28:16Z</time></trkpt><trkpt lat="41.690357785964764" lon="13.350843065861687"><ele>261.66666666666663</ele><time>2026-04-10T18:28:28Z</time></trkpt><trkpt lat="41.690330341010096" lon="13.350963530732942"><ele>261.8333333333333</ele><time>2026-04-10T18:28:31Z</time></trkpt><trkpt lat="41.69029666682165" lon="13.351078168405516"><ele>262.0</ele><time>2026-04-10T18:28:33Z</time></trkpt><trkpt lat="41.690258645011646" lon="13.351207359422418"><ele>261.0</ele><time>2026-04-10T18:28:35Z</time></trkpt><trkpt lat="41.69021504600026" lon="13.351348427872434"><ele>260.0</ele><time>2026-04-10T18:28:37Z</time></trkpt><trkpt lat="41.6901712247326" lon="13.351508707024244"><ele>259.0</ele><time>2026-04-10T18:28:39Z</time></trkpt><trkpt lat="41.6901533242614" lon="13.351592355062099"><ele>258.0</ele><time>2026-04-10T18:28:40Z</time></trkpt><trkpt lat="41.69012841308728" lon="13.351742899674848"><ele>257.0</ele><time>2026-04-10T18:28:42Z</time></trkpt><trkpt lat="41.69010423641806" lon="13.35186665463968"><ele>257.0</ele><time>2026-04-10T18:28:44Z</time></trkpt><trkpt lat="41.69002086234809" lon="13.351872569974375"><ele>257.0</ele><time>2026-04-10T18:28:46Z</time></trkpt><trkpt lat="41.68997128944652" lon="13.352170068840458"><ele>257.0</ele><time>2026-04-10T18:28:49Z</time></trkpt><trkpt lat="41.68999750334949" lon="13.35226125900504"><ele>257.0</ele><time>2026-04-10T18:28:50Z</time></trkpt><trkpt lat="41.6900223180562" lon="13.352362435191948"><ele>257.2</ele><time>2026-04-10T18:28:51Z</time></trkpt><trkpt lat="41.690038259330564" lon="13.352486295094435"><ele>257.4</ele><time>2026-04-10T18:28:52Z</time></trkpt><trkpt lat="41.69003806345369" lon="13.352608374052773"><ele>257.6</ele><time>2026-04-10T18:28:53Z</time></trkpt><trkpt lat="41.690030879750616" lon="13.352735658862013"><ele>257.8</ele><time>2026-04-10T18:28:54Z</time></trkpt><trkpt lat="41.69000455727242" lon="13.352863356788234"><ele>258.0</ele><time>2026-04-10T18:28:55Z</time></trkpt><trkpt lat="41.68998754904071" lon="13.353000085017952"><ele>257.75</ele><time>2026-04-10T18:28:56Z</time></trkpt><trkpt lat="41.68997664389109" lon="13.353143852407467"><ele>257.5</ele><time>2026-04-10T18:28:57Z</time></trkpt><trkpt lat="41.68993812477011" lon="13.353286196049789"><ele>257.25</ele><time>2026-04-10T18:28:58Z</time></trkpt><trkpt lat="41.68989466328496" lon="13.353429144419286"><ele>257.0</ele><time>2026-04-10T18:28:59Z</time></trkpt><trkpt lat="41.68984779792045" lon="13.353570682010877"><ele>257.0</ele><time>2026-04-10T18:29:00Z</time></trkpt><trkpt lat="41.68979519439214" lon="13.353711067779503"><ele>257.0</ele><time>2026-04-10T18:29:01Z</time></trkpt><trkpt lat="41.68973484057021" lon="13.353851623057153"><ele>257.0</ele><time>2026-04-10T18:29:02Z</time></trkpt><trkpt lat="41.68967357700358" lon="13.353994316820135"><ele>257.0</ele><time>2026-04-10T18:29:03Z</time></trkpt><trkpt lat="41.68959588781578" lon="13.354127799509577"><ele>257.25</ele><time>2026-04-10T18:29:04Z</time></trkpt><trkpt lat="41.689546915284055" lon="13.35428228358278"><ele>257.5</ele><time>2026-04-10T18:29:05Z</time></trkpt><trkpt lat="41.68948372340086" lon="13.354426670600022"><ele>257.75</ele><time>2026-04-10T18:29:06Z</time></trkpt><trkpt lat="41.68941919808144" lon="13.354571570287774"><ele>258.0</ele><time>2026-04-10T18:29:07Z</time></trkpt><trkpt lat="41.6893547394834" lon="13.354721290316611"><ele>257.25</ele><time>2026-04-10T18:29:08Z</time></trkpt><trkpt lat="41.6892896827927" lon="13.354872202369544"><ele>256.5</ele><time>2026-04-10T18:29:09Z</time></trkpt><trkpt lat="41.689224743048236" lon="13.355017487914278"><ele>255.75</ele><time>2026-04-10T18:29:10Z</time></trkpt><trkpt lat="41.689160851720565" lon="13.355158482075902"><ele>255.0</ele><time>2026-04-10T18:29:11Z</time></trkpt><trkpt lat="41.689083120813784" lon="13.355279960965934"><ele>255.0</ele><time>2026-04-10T18:29:12Z</time></trkpt><trkpt lat="41.689019775581265" lon="13.355411980521783"><ele>255.0</ele><time>2026-04-10T18:29:13Z</time></trkpt><trkpt lat="41.688959023955604" lon="13.355538594669225"><ele>255.0</ele><time>2026-04-10T18:29:14Z</time></trkpt><trkpt lat="41.688898757145616" lon="13.355664198397125"><ele>255.0</ele><time>2026-04-10T18:29:15Z</time></trkpt><trkpt lat="41.68883906602021" lon="13.355788602324441"><ele>255.0</ele><time>2026-04-10T18:29:16Z</time></trkpt><trkpt lat="41.68878970688023" lon="13.355919166581174"><ele>255.0</ele><time>2026-04-10T18:29:17Z</time></trkpt><trkpt lat="41.68873020385375" lon="13.35603745943067"><ele>255.0</ele><time>2026-04-10T18:29:18Z</time></trkpt><trkpt lat="41.68867175210853" lon="13.356154629499501"><ele>255.0</ele><time>2026-04-10T18:29:19Z</time></trkpt><trkpt lat="41.68861032546203" lon="13.356267104535988"><ele>255.0</ele><time>2026-04-10T18:29:20Z</time></trkpt><trkpt lat="41.688536382087946" lon="13.356359910172502"><ele>254.8</ele><time>2026-04-10T18:29:21Z</time></trkpt><trkpt lat="41.68844776124475" lon="13.356425650595762"><ele>254.6</ele><time>2026-04-10T18:29:22Z</time></trkpt><trkpt lat="41.68835144326312" lon="13.356445823211645"><ele>254.39999999999998</ele><time>2026-04-10T18:29:23Z</time></trkpt><trkpt lat="41.68824611647546" lon="13.356432407282862"><ele>254.2</ele><time>2026-04-10T18:29:24Z</time></trkpt><trkpt lat="41.68814716829323" lon="13.356400147817986"><ele>254.0</ele><time>2026-04-10T18:29:25Z</time></trkpt><trkpt lat="41.68805163610706" lon="13.356383565984299"><ele>254.0</ele><time>2026-04-10T18:29:26Z</time></trkpt><trkpt lat="41.687956916239955" lon="13.356377850791013"><ele>253.99999999999997</ele><time>2026-04-10T18:29:27Z</time></trkpt><trkpt lat="41.68786648483473" lon="13.35641115057546"><ele>253.99999999999997</ele><time>2026-04-10T18:29:28Z</time></trkpt><trkpt lat="41.68777362563442" lon="13.356444819021858"><ele>254.0</ele><time>2026-04-10T18:29:29Z</time></trkpt><trkpt lat="41.687710048501025" lon="13.356569070752837"><ele>254.0</ele><time>2026-04-10T18:29:30Z</time></trkpt><trkpt lat="41.68765879176806" lon="13.356691876877857"><ele>253.75</ele><time>2026-04-10T18:29:31Z</time></trkpt><trkpt lat="41.68761768374233" lon="13.356832998710244"><ele>253.5</ele><time>2026-04-10T18:29:32Z</time></trkpt><trkpt lat="41.687593524759585" lon="13.356985811492576"><ele>253.25</ele><time>2026-04-10T18:29:33Z</time></trkpt><trkpt lat="41.687551391864545" lon="13.357135477586423"><ele>253.0</ele><time>2026-04-10T18:29:34Z</time></trkpt><trkpt lat="41.68751193094324" lon="13.357294004054658"><ele>252.75</ele><time>2026-04-10T18:29:35Z</time></trkpt><trkpt lat="41.68747430673308" lon="13.35745542346111"><ele>252.5</ele><time>2026-04-10T18:29:36Z</time></trkpt><trkpt lat="41.68743810795495" lon="13.357618905632888"><ele>252.25</ele><time>2026-04-10T18:29:37Z</time></trkpt><trkpt lat="41.687402838643926" lon="13.35778455758806"><ele>252.0</ele><time>2026-04-10T18:29:38Z</time></trkpt><trkpt lat="41.687348394826486" lon="13.357943648594382"><ele>252.25</ele><time>2026-04-10T18:29:39Z</time></trkpt><trkpt lat="41.68730699706766" lon="13.358109373006116"><ele>252.5</ele><time>2026-04-10T18:29:40Z</time></trkpt><trkpt lat="41.68726207211238" lon="13.358274007496494"><ele>252.75</ele><time>2026-04-10T18:29:41Z</time></trkpt><trkpt lat="41.68721201059991" lon="13.35843792561302"><ele>253.0</ele><time>2026-04-10T18:29:42Z</time></trkpt><trkpt lat="41.68715545598985" lon="13.358598080298133"><ele>253.0</ele><time>2026-04-10T18:29:43Z</time></trkpt><trkpt lat="41.68709091369362" lon="13.358750623515313"><ele>253.0</ele><time>2026-04-10T18:29:44Z</time></trkpt><trkpt lat="41.68702109246321" lon="13.358905465138095"><ele>253.0</ele><time>2026-04-10T18:29:45Z</time></trkpt><trkpt lat="41.68695356072161" lon="13.359063708450291"><ele>253.0</ele><time>2026-04-10T18:29:46Z</time></trkpt><trkpt lat="41.686889462594365" lon="13.359224549775336"><ele>253.0</ele><time>2026-04-10T18:29:47Z</time></trkpt><trkpt lat="41.686828581923805" lon="13.35937960647621"><ele>253.0</ele><time>2026-04-10T18:29:48Z</time></trkpt><trkpt lat="41.68676735057028" lon="13.359535375422164"><ele>253.0</ele><time>2026-04-10T18:29:49Z</time></trkpt><trkpt lat="41.68672165426522" lon="13.359698488547009"><ele>253.0</ele><time>2026-04-10T18:29:50Z</time></trkpt><trkpt lat="41.686646738149925" lon="13.359838706876046"><ele>253.0</ele><time>2026-04-10T18:29:51Z</time></trkpt><trkpt lat="41.686596310721185" lon="13.359993015452563"><ele>253.0</ele><time>2026-04-10T18:29:52Z</time></trkpt><trkpt lat="41.68653757393863" lon="13.360135452275033"><ele>253.0</ele><time>2026-04-10T18:29:53Z</time></trkpt><trkpt lat="41.68647982670127" lon="13.360271915816998"><ele>253.0</ele><time>2026-04-10T18:29:54Z</time></trkpt><trkpt lat="41.6864243955858" lon="13.360405005513046"><ele>253.0</ele><time>2026-04-10T18:29:55Z</time></trkpt><trkpt lat="41.68636819753349" lon="13.36053231912068"><ele>253.0</ele><time>2026-04-10T18:29:56Z</time></trkpt><trkpt lat="41.68631288861117" lon="13.360655031004407"><ele>253.0</ele><time>2026-04-10T18:29:57Z</time></trkpt><trkpt lat="41.686260969248266" lon="13.360773897122066"><ele>253.0</ele><time>2026-04-10T18:29:58Z</time></trkpt><trkpt lat="41.68621547083117" lon="13.360898063505005"><ele>253.0</ele><time>2026-04-10T18:29:59Z</time></trkpt><trkpt lat="41.68617257124565" lon="13.361022879319751"><ele>253.0</ele><time>2026-04-10T18:30:00Z</time></trkpt><trkpt lat="41.686131439868085" lon="13.361148243072915"><ele>253.0</ele><time>2026-04-10T18:30:01Z</time></trkpt><trkpt lat="41.68608781456082" lon="13.361270719625674"><ele>253.0</ele><time>2026-04-10T18:30:02Z</time></trkpt><trkpt lat="41.686033053025106" lon="13.36138137646831"><ele>253.0</ele><time>2026-04-10T18:30:03Z</time></trkpt><trkpt lat="41.685962211465444" lon="13.36146821056903"><ele>253.0</ele><time>2026-04-10T18:30:04Z</time></trkpt><trkpt lat="41.68587514960235" lon="13.361516014952734"><ele>253.2</ele><time>2026-04-10T18:30:05Z</time></trkpt><trkpt lat="41.68578863715601" lon="13.3615511828623"><ele>253.4</ele><time>2026-04-10T18:30:06.001Z</time></trkpt><trkpt lat="41.685707940878565" lon="13.361607400448907"><ele>253.59999999999997</ele><time>2026-04-10T18:30:07.001Z</time></trkpt><trkpt lat="41.6856374288102" lon="13.36169001102116"><ele>253.79999999999998</ele><time>2026-04-10T18:30:08.001Z</time></trkpt><trkpt lat="41.68557502882017" lon="13.361785988090565"><ele>254.0</ele><time>2026-04-10T18:30:09.001Z</time></trkpt><trkpt lat="41.68553206934063" lon="13.36188973870279"><ele>254.0</ele><time>2026-04-10T18:30:10.001Z</time></trkpt><trkpt lat="41.68549856965387" lon="13.362009594032687"><ele>253.99999999999997</ele><time>2026-04-10T18:30:11.001Z</time></trkpt><trkpt lat="41.685472768556075" lon="13.362138166456972"><ele>253.99999999999997</ele><time>2026-04-10T18:30:12.001Z</time></trkpt><trkpt lat="41.68545359139747" lon="13.362272526114065"><ele>254.0</ele><time>2026-04-10T18:30:13.001Z</time></trkpt><trkpt lat="41.68541978719541" lon="13.362403935665041"><ele>254.0</ele><time>2026-04-10T18:30:14.001Z</time></trkpt><trkpt lat="41.685399684539156" lon="13.362542316970236"><ele>254.2</ele><time>2026-04-10T18:30:15.001Z</time></trkpt><trkpt lat="41.68537842021487" lon="13.362682412900023"><ele>254.39999999999998</ele><time>2026-04-10T18:30:16.001Z</time></trkpt><trkpt lat="41.685358202458424" lon="13.362822817917122"><ele>254.6</ele><time>2026-04-10T18:30:17.001Z</time></trkpt><trkpt lat="41.68533941723611" lon="13.362963428216313"><ele>254.8</ele><time>2026-04-10T18:30:18.001Z</time></trkpt><trkpt lat="41.68531996039944" lon="13.36310325120675"><ele>255.0</ele><time>2026-04-10T18:30:19.001Z</time></trkpt><trkpt lat="41.68529922057466" lon="13.36324242380835"><ele>255.0</ele><time>2026-04-10T18:30:20.001Z</time></trkpt><trkpt lat="41.685277419884294" lon="13.363379049104218"><ele>255.0</ele><time>2026-04-10T18:30:21.001Z</time></trkpt><trkpt lat="41.68525674027904" lon="13.363516958991664"><ele>255.0</ele><time>2026-04-10T18:30:22.001Z</time></trkpt><trkpt lat="41.68523151960221" lon="13.36365449942409"><ele>255.0</ele><time>2026-04-10T18:30:23.001Z</time></trkpt><trkpt lat="41.6852024173682" lon="13.363789394526778"><ele>255.0</ele><time>2026-04-10T18:30:24.001Z</time></trkpt><trkpt lat="41.68516941250792" lon="13.363924699708415"><ele>255.0</ele><time>2026-04-10T18:30:25.001Z</time></trkpt><trkpt lat="41.68513051870592" lon="13.364054545172424"><ele>255.0</ele><time>2026-04-10T18:30:26.001Z</time></trkpt><trkpt lat="41.68509076392544" lon="13.364185852365914"><ele>255.0</ele><time>2026-04-10T18:30:27.001Z</time></trkpt><trkpt lat="41.68505091561979" lon="13.364310259796126"><ele>255.0</ele><time>2026-04-10T18:30:28.001Z</time></trkpt><trkpt lat="41.68501613924697" lon="13.364434725568644"><ele>255.0</ele><time>2026-04-10T18:30:29.001Z</time></trkpt><trkpt lat="41.68498797422627" lon="13.364563542900198"><ele>255.0</ele><time>2026-04-10T18:30:30.001Z</time></trkpt><trkpt lat="41.68496309271616" lon="13.364688343869473"><ele>255.0</ele><time>2026-04-10T18:30:31.001Z</time></trkpt><trkpt lat="41.68493118908754" lon="13.364803794802413"><ele>255.0</ele><time>2026-04-10T18:30:32.001Z</time></trkpt><trkpt lat="41.68488081206211" lon="13.36490016257783"><ele>255.0</ele><time>2026-04-10T18:30:33.001Z</time></trkpt><trkpt lat="41.684819558916594" lon="13.364988223437875"><ele>255.0</ele><time>2026-04-10T18:30:34.001Z</time></trkpt><trkpt lat="41.68473454807336" lon="13.36501880098995"><ele>254.8</ele><time>2026-04-10T18:30:35.001Z</time></trkpt><trkpt lat="41.68463638146758" lon="13.365017235697813"><ele>254.6</ele><time>2026-04-10T18:30:36.001Z</time></trkpt><trkpt lat="41.684543451456626" lon="13.365014318685802"><ele>254.39999999999998</ele><time>2026-04-10T18:30:37.001Z</time></trkpt><trkpt lat="41.68444988343342" lon="13.365041318952265"><ele>254.2</ele><time>2026-04-10T18:30:38.001Z</time></trkpt><trkpt lat="41.68436271667346" lon="13.36510997170157"><ele>254.0</ele><time>2026-04-10T18:30:39.001Z</time></trkpt><trkpt lat="41.684289957661136" lon="13.365210696956787"><ele>253.75</ele><time>2026-04-10T18:30:40.001Z</time></trkpt><trkpt lat="41.68423260444627" lon="13.365337496000521"><ele>253.5</ele><time>2026-04-10T18:30:41.001Z</time></trkpt><trkpt lat="41.68417926045779" lon="13.365474242873148"><ele>253.25</ele><time>2026-04-10T18:30:42.001Z</time></trkpt><trkpt lat="41.68412351152342" lon="13.365617967576755"><ele>253.0</ele><time>2026-04-10T18:30:43.001Z</time></trkpt><trkpt lat="41.684083249379135" lon="13.365773510581278"><ele>253.0</ele><time>2026-04-10T18:30:44.001Z</time></trkpt><trkpt lat="41.684043150178134" lon="13.365935579757988"><ele>253.0</ele><time>2026-04-10T18:30:45.001Z</time></trkpt><trkpt lat="41.684016986365975" lon="13.366102614595349"><ele>253.0</ele><time>2026-04-10T18:30:46.001Z</time></trkpt><trkpt lat="41.683991246907695" lon="13.366270306008875"><ele>253.0</ele><time>2026-04-10T18:30:47.001Z</time></trkpt><trkpt lat="41.68396802837503" lon="13.366444486567907"><ele>253.0</ele><time>2026-04-10T18:30:48.001Z</time></trkpt><trkpt lat="41.68394412028753" lon="13.366615142952329"><ele>253.0</ele><time>2026-04-10T18:30:49.001Z</time></trkpt><trkpt lat="41.683923144054944" lon="13.366783901787414"><ele>253.0</ele><time>2026-04-10T18:30:50.001Z</time></trkpt><trkpt lat="41.68390514495571" lon="13.366942973828142"><ele>253.0</ele><time>2026-04-10T18:30:51.001Z</time></trkpt><trkpt lat="41.68388876387999" lon="13.367102281084728"><ele>252.75</ele><time>2026-04-10T18:30:52.001Z</time></trkpt><trkpt lat="41.683872308066626" lon="13.367257634537"><ele>252.5</ele><time>2026-04-10T18:30:53.001Z</time></trkpt><trkpt lat="41.6838538060876" lon="13.367413452207689"><ele>252.25</ele><time>2026-04-10T18:30:54.001Z</time></trkpt><trkpt lat="41.68383592939488" lon="13.367567348239081"><ele>252.0</ele><time>2026-04-10T18:30:55.001Z</time></trkpt><trkpt lat="41.68381429647761" lon="13.367719941695283"><ele>252.0</ele><time>2026-04-10T18:30:56.001Z</time></trkpt><trkpt lat="41.683795944339025" lon="13.367867496338318"><ele>252.0</ele><time>2026-04-10T18:30:57.001Z</time></trkpt><trkpt lat="41.68378768841146" lon="13.368003380566753"><ele>252.0</ele><time>2026-04-10T18:30:58.001Z</time></trkpt><trkpt lat="41.68376005537942" lon="13.368125171639948"><ele>252.0</ele><time>2026-04-10T18:30:59.001Z</time></trkpt><trkpt lat="41.6837478651991" lon="13.368235867840493"><ele>252.0</ele><time>2026-04-10T18:31:00.001Z</time></trkpt><trkpt lat="41.683737916034815" lon="13.368326214112916"><ele>252.0</ele><time>2026-04-10T18:31:01.001Z</time></trkpt><trkpt lat="41.68369780730093" lon="13.368435322977763"><ele>252.0</ele><time>2026-04-10T18:31:03.001Z</time></trkpt><trkpt lat="41.683598172705246" lon="13.368456875627343"><ele>252.0</ele><time>2026-04-10T18:31:05.001Z</time></trkpt><trkpt lat="41.683528909400295" lon="13.368457996237275"><ele>252.0</ele><time>2026-04-10T18:31:06.001Z</time></trkpt><trkpt lat="41.68344665156758" lon="13.368459327086775"><ele>252.0</ele><time>2026-04-10T18:31:07.001Z</time></trkpt><trkpt lat="41.68334274679675" lon="13.368461008162615"><ele>252.0</ele><time>2026-04-10T18:31:08.001Z</time></trkpt><trkpt lat="41.6832064710517" lon="13.368463212969727"><ele>251.0</ele><time>2026-04-10T18:31:09.001Z</time></trkpt><trkpt lat="41.68304194900405" lon="13.36848863854412"><ele>250.0</ele><time>2026-04-10T18:31:10.001Z</time></trkpt><trkpt lat="41.68288327612354" lon="13.368492502558766"><ele>249.0</ele><time>2026-04-10T18:31:11.001Z</time></trkpt><trkpt lat="41.68269473138302" lon="13.368479676343883"><ele>248.66666666666669</ele><time>2026-04-10T18:31:12.001Z</time></trkpt><trkpt lat="41.682501827088196" lon="13.368493261437205"><ele>248.33333333333334</ele><time>2026-04-10T18:31:13.001Z</time></trkpt><trkpt lat="41.682321944585105" lon="13.36853182925088"><ele>248.0</ele><time>2026-04-10T18:31:14.001Z</time></trkpt><trkpt lat="41.68214685974661" lon="13.368551394526166"><ele>248.0</ele><time>2026-04-10T18:31:15.001Z</time></trkpt><trkpt lat="41.68197689598301" lon="13.368572362283759"><ele>248.0</ele><time>2026-04-10T18:31:16.001Z</time></trkpt><trkpt lat="41.68181145634354" lon="13.368596692378649"><ele>248.0</ele><time>2026-04-10T18:31:17.001Z</time></trkpt><trkpt lat="41.68165051220241" lon="13.368620189906153"><ele>247.75</ele><time>2026-04-10T18:31:18.001Z</time></trkpt><trkpt lat="41.68149796892441" lon="13.368638075379351"><ele>247.5</ele><time>2026-04-10T18:31:19.001Z</time></trkpt><trkpt lat="41.681352990045774" lon="13.368647023703604"><ele>247.25</ele><time>2026-04-10T18:31:20.001Z</time></trkpt><trkpt lat="41.68120884701458" lon="13.368651856860302"><ele>247.0</ele><time>2026-04-10T18:31:21.001Z</time></trkpt><trkpt lat="41.681070933238374" lon="13.368653317565578"><ele>246.75</ele><time>2026-04-10T18:31:22.001Z</time></trkpt><trkpt lat="41.68093454172815" lon="13.368657079201569"><ele>246.5</ele><time>2026-04-10T18:31:23.001Z</time></trkpt><trkpt lat="41.68079922392545" lon="13.368663841127159"><ele>246.25</ele><time>2026-04-10T18:31:24.001Z</time></trkpt><trkpt lat="41.680666265105636" lon="13.368661316084706"><ele>246.0</ele><time>2026-04-10T18:31:25.001Z</time></trkpt><trkpt lat="41.68053460162903" lon="13.368647958613025"><ele>246.0</ele><time>2026-04-10T18:31:26.001Z</time></trkpt><trkpt lat="41.680403585065015" lon="13.368643884958201"><ele>246.0</ele><time>2026-04-10T18:31:27.001Z</time></trkpt><trkpt lat="41.68027753868043" lon="13.368646929041098"><ele>246.0</ele><time>2026-04-10T18:31:28.001Z</time></trkpt><trkpt lat="41.68015588830383" lon="13.368654326105041"><ele>246.0</ele><time>2026-04-10T18:31:29.001Z</time></trkpt><trkpt lat="41.680034389903454" lon="13.368671989848742"><ele>245.5</ele><time>2026-04-10T18:31:30.001Z</time></trkpt><trkpt lat="41.679915660321356" lon="13.368703190402202"><ele>245.0</ele><time>2026-04-10T18:31:31.001Z</time></trkpt><trkpt lat="41.6797983941114" lon="13.368756348072706"><ele>244.5</ele><time>2026-04-10T18:31:32.001Z</time></trkpt><trkpt lat="41.67969086446217" lon="13.368833084341299"><ele>244.0</ele><time>2026-04-10T18:31:33.001Z</time></trkpt><trkpt lat="41.67958947452136" lon="13.368916573364674"><ele>244.0</ele><time>2026-04-10T18:31:34.001Z</time></trkpt><trkpt lat="41.67949153197901" lon="13.369002180988907"><ele>244.0</ele><time>2026-04-10T18:31:35.001Z</time></trkpt><trkpt lat="41.67939524163393" lon="13.369087516745887"><ele>244.0</ele><time>2026-04-10T18:31:36.001Z</time></trkpt><trkpt lat="41.679302078110865" lon="13.369166661144297"><ele>244.0</ele><time>2026-04-10T18:31:37.001Z</time></trkpt><trkpt lat="41.679211214649094" lon="13.369246559792657"><ele>243.39999999999998</ele><time>2026-04-10T18:31:38.001Z</time></trkpt><trkpt lat="41.67912430282564" lon="13.369327480063939"><ele>242.79999999999998</ele><time>2026-04-10T18:31:39.001Z</time></trkpt><trkpt lat="41.67903899574915" lon="13.369406512271196"><ele>242.20000000000002</ele><time>2026-04-10T18:31:40.001Z</time></trkpt><trkpt lat="41.678952560369495" lon="13.369481026572593"><ele>241.60000000000002</ele><time>2026-04-10T18:31:41.001Z</time></trkpt><trkpt lat="41.67885571333699" lon="13.36954924065007"><ele>241.0</ele><time>2026-04-10T18:31:42.001Z</time></trkpt><trkpt lat="41.678758534415266" lon="13.369608100830932"><ele>241.0</ele><time>2026-04-10T18:31:43.001Z</time></trkpt><trkpt lat="41.67865503969675" lon="13.369649567281296"><ele>241.00000000000003</ele><time>2026-04-10T18:31:44.001Z</time></trkpt><trkpt lat="41.678547551400534" lon="13.369681153550207"><ele>241.00000000000003</ele><time>2026-04-10T18:31:45.001Z</time></trkpt><trkpt lat="41.678438563936766" lon="13.369701431669503"><ele>241.0</ele><time>2026-04-10T18:31:46.001Z</time></trkpt><trkpt lat="41.67833441233217" lon="13.3697141484002"><ele>241.0</ele><time>2026-04-10T18:31:47.001Z</time></trkpt><trkpt lat="41.67822495232021" lon="13.36973369275533"><ele>241.0</ele><time>2026-04-10T18:31:48.001Z</time></trkpt><trkpt lat="41.678115462641145" lon="13.369754134900562"><ele>241.0</ele><time>2026-04-10T18:31:49.001Z</time></trkpt><trkpt lat="41.67800757298912" lon="13.36977502753266"><ele>241.0</ele><time>2026-04-10T18:31:50.001Z</time></trkpt><trkpt lat="41.6778926272859" lon="13.369803063341843"><ele>241.0</ele><time>2026-04-10T18:31:51.001Z</time></trkpt><trkpt lat="41.677773454770964" lon="13.369826900800547"><ele>240.25</ele><time>2026-04-10T18:31:52.001Z</time></trkpt><trkpt lat="41.67765811630545" lon="13.36984765544006"><ele>239.5</ele><time>2026-04-10T18:31:53.001Z</time></trkpt><trkpt lat="41.67754430827505" lon="13.369870932623467"><ele>238.75</ele><time>2026-04-10T18:31:54.001Z</time></trkpt><trkpt lat="41.67743121697097" lon="13.369894362641636"><ele>238.0</ele><time>2026-04-10T18:31:55.001Z</time></trkpt><trkpt lat="41.677321621896056" lon="13.369916720637503"><ele>238.0</ele><time>2026-04-10T18:31:56.001Z</time></trkpt><trkpt lat="41.67721304948785" lon="13.369937414161148"><ele>238.0</ele><time>2026-04-10T18:31:57.001Z</time></trkpt><trkpt lat="41.677103903661504" lon="13.369957870847879"><ele>238.0</ele><time>2026-04-10T18:31:58.001Z</time></trkpt><trkpt lat="41.676995622495525" lon="13.36997699570077"><ele>238.0</ele><time>2026-04-10T18:31:59.001Z</time></trkpt><trkpt lat="41.676888723195795" lon="13.369997673635945"><ele>238.0</ele><time>2026-04-10T18:32:00.001Z</time></trkpt><trkpt lat="41.67678319511035" lon="13.37001864817583"><ele>237.60000000000002</ele><time>2026-04-10T18:32:01.001Z</time></trkpt><trkpt lat="41.676678389280696" lon="13.370041879786514"><ele>237.20000000000002</ele><time>2026-04-10T18:32:02.001Z</time></trkpt><trkpt lat="41.67658059111389" lon="13.370062917352907"><ele>236.8</ele><time>2026-04-10T18:32:03.001Z</time></trkpt><trkpt lat="41.67648498085237" lon="13.370081703853293"><ele>236.4</ele><time>2026-04-10T18:32:04.001Z</time></trkpt><trkpt lat="41.6763960972733" lon="13.370097772022127"><ele>236.0</ele><time>2026-04-10T18:32:05.001Z</time></trkpt><trkpt lat="41.6763108784792" lon="13.370113727278497"><ele>236.0</ele><time>2026-04-10T18:32:06.001Z</time></trkpt><trkpt lat="41.67623356160069" lon="13.37012558641419"><ele>236.00000000000003</ele><time>2026-04-10T18:32:07.001Z</time></trkpt><trkpt lat="41.67616370012093" lon="13.370134900971678"><ele>236.00000000000003</ele><time>2026-04-10T18:32:08.001Z</time></trkpt><trkpt lat="41.67606166953397" lon="13.370159842669635"><ele>236.0</ele><time>2026-04-10T18:32:10.001Z</time></trkpt><trkpt lat="41.676073625630316" lon="13.370380862756033"><ele>236.0</ele><time>2026-04-10T18:32:14.001Z</time></trkpt><trkpt lat="41.676120503657415" lon="13.370454337851326"><ele>235.60000000000002</ele><time>2026-04-10T18:32:15.001Z</time></trkpt><trkpt lat="41.676178215321414" lon="13.37054088770555"><ele>235.20000000000002</ele><time>2026-04-10T18:32:16.001Z</time></trkpt><trkpt lat="41.67624150588794" lon="13.370634325966885"><ele>234.79999999999998</ele><time>2026-04-10T18:32:17.001Z</time></trkpt><trkpt lat="41.67631392160509" lon="13.37073330999896"><ele>234.39999999999998</ele><time>2026-04-10T18:32:18.001Z</time></trkpt><trkpt lat="41.676394585285045" lon="13.370821729209073"><ele>234.0</ele><time>2026-04-10T18:32:19.001Z</time></trkpt><trkpt lat="41.67648145456312" lon="13.370907349051055"><ele>234.0</ele><time>2026-04-10T18:32:20.001Z</time></trkpt><trkpt lat="41.67658124782379" lon="13.370985014320091"><ele>234.0</ele><time>2026-04-10T18:32:21.001Z</time></trkpt><trkpt lat="41.67669280640736" lon="13.371042272823354"><ele>234.0</ele><time>2026-04-10T18:32:22.001Z</time></trkpt><trkpt lat="41.67680426452479" lon="13.371095998778685"><ele>234.0</ele><time>2026-04-10T18:32:23.001Z</time></trkpt><trkpt lat="41.67691731781608" lon="13.371150493664812"><ele>233.75</ele><time>2026-04-10T18:32:24.001Z</time></trkpt><trkpt lat="41.67702925699777" lon="13.371209098776887"><ele>233.5</ele><time>2026-04-10T18:32:25.001Z</time></trkpt><trkpt lat="41.67714448391856" lon="13.371257137138313"><ele>233.25</ele><time>2026-04-10T18:32:26.001Z</time></trkpt><trkpt lat="41.677252504379375" lon="13.371329012330268"><ele>233.0</ele><time>2026-04-10T18:32:27.001Z</time></trkpt><trkpt lat="41.67735827878014" lon="13.371400993516357"><ele>233.0</ele><time>2026-04-10T18:32:28.001Z</time></trkpt><trkpt lat="41.67745941116544" lon="13.371473249857328"><ele>233.0</ele><time>2026-04-10T18:32:29.001Z</time></trkpt><trkpt lat="41.6775590425484" lon="13.371542232463787"><ele>233.0</ele><time>2026-04-10T18:32:30.001Z</time></trkpt><trkpt lat="41.67765570232589" lon="13.371612913878126"><ele>233.0</ele><time>2026-04-10T18:32:31.001Z</time></trkpt><trkpt lat="41.67775127181039" lon="13.371678316730401"><ele>233.0</ele><time>2026-04-10T18:32:32.001Z</time></trkpt><trkpt lat="41.677842409105374" lon="13.371747348164423"><ele>233.4</ele><time>2026-04-10T18:32:33.001Z</time></trkpt><trkpt lat="41.677924959586456" lon="13.371828941363551"><ele>233.8</ele><time>2026-04-10T18:32:34.001Z</time></trkpt><trkpt lat="41.67799841731243" lon="13.371925723201254"><ele>234.2</ele><time>2026-04-10T18:32:35.001Z</time></trkpt><trkpt lat="41.678059435140945" lon="13.37203256396891"><ele>234.6</ele><time>2026-04-10T18:32:36.001Z</time></trkpt><trkpt lat="41.67810953586668" lon="13.372146441647644"><ele>235.0</ele><time>2026-04-10T18:32:37.001Z</time></trkpt><trkpt lat="41.67815132657646" lon="13.37226218444016"><ele>235.2</ele><time>2026-04-10T18:32:38.001Z</time></trkpt><trkpt lat="41.67819020691205" lon="13.37237839109893"><ele>235.4</ele><time>2026-04-10T18:32:39.001Z</time></trkpt><trkpt lat="41.678226605069014" lon="13.372493407311888"><ele>235.60000000000002</ele><time>2026-04-10T18:32:40.001Z</time></trkpt><trkpt lat="41.678276796686326" lon="13.372598422205781"><ele>235.8</ele><time>2026-04-10T18:32:41.001Z</time></trkpt><trkpt lat="41.67832689370882" lon="13.372692461926189"><ele>236.0</ele><time>2026-04-10T18:32:42.001Z</time></trkpt><trkpt lat="41.678380181716975" lon="13.372785018412376"><ele>236.00000000000003</ele><time>2026-04-10T18:32:43.001Z</time></trkpt><trkpt lat="41.6784557727846" lon="13.372845988608004"><ele>236.0</ele><time>2026-04-10T18:32:44.001Z</time></trkpt><trkpt lat="41.67854002693642" lon="13.37288790410741"><ele>236.0</ele><time>2026-04-10T18:32:45.001Z</time></trkpt><trkpt lat="41.67862962840401" lon="13.372891927793912"><ele>236.0</ele><time>2026-04-10T18:32:46.001Z</time></trkpt><trkpt lat="41.67870860354104" lon="13.372935633570833"><ele>236.00000000000003</ele><time>2026-04-10T18:32:47.001Z</time></trkpt><trkpt lat="41.67879034696495" lon="13.372954000853515"><ele>236.0</ele><time>2026-04-10T18:32:48.001Z</time></trkpt><trkpt lat="41.67886500440778" lon="13.372968855435156"><ele>236.4</ele><time>2026-04-10T18:32:49.001Z</time></trkpt><trkpt lat="41.67893172068903" lon="13.37298283721031"><ele>236.8</ele><time>2026-04-10T18:32:50.001Z</time></trkpt><trkpt lat="41.67905115369503" lon="13.373014607965255"><ele>237.20000000000002</ele><time>2026-04-10T18:32:52.001Z</time></trkpt><trkpt lat="41.6791116268791" lon="13.373130937538601"><ele>237.60000000000002</ele><time>2026-04-10T18:32:54.001Z</time></trkpt><trkpt lat="41.679166705463814" lon="13.373222950273517"><ele>238.0</ele><time>2026-04-10T18:32:56.001Z</time></trkpt><trkpt lat="41.67919201728926" lon="13.373316265114696"><ele>238.60000000000002</ele><time>2026-04-10T18:32:59.001Z</time></trkpt><trkpt lat="41.679204323354" lon="13.373402869565053"><ele>239.20000000000002</ele><time>2026-04-10T18:33:04.001Z</time></trkpt><trkpt lat="41.67938220913559" lon="13.373348271341541"><ele>239.8</ele><time>2026-04-10T18:33:09.001Z</time></trkpt><trkpt lat="41.67947094193614" lon="13.373329427441286"><ele>240.4</ele><time>2026-04-10T18:33:11.001Z</time></trkpt><trkpt lat="41.679560975954324" lon="13.373309539519278"><ele>241.0</ele><time>2026-04-10T18:33:13.001Z</time></trkpt><trkpt lat="41.67966093520643" lon="13.373279045679926"><ele>241.60000000000002</ele><time>2026-04-10T18:33:15.001Z</time></trkpt><trkpt lat="41.67976790551123" lon="13.373262464432855"><ele>242.20000000000002</ele><time>2026-04-10T18:33:17.001Z</time></trkpt><trkpt lat="41.679876746208045" lon="13.373238266071013"><ele>242.79999999999998</ele><time>2026-04-10T18:33:19.001Z</time></trkpt><trkpt lat="41.6799789709251" lon="13.37321950176035"><ele>243.39999999999998</ele><time>2026-04-10T18:33:21.001Z</time></trkpt><trkpt lat="41.68006904839994" lon="13.373204321087941"><ele>244.0</ele><time>2026-04-10T18:33:23.001Z</time></trkpt><trkpt lat="41.68015052337192" lon="13.373193731207236"><ele>243.99999999999997</ele><time>2026-04-10T18:33:25.001Z</time></trkpt><trkpt lat="41.680227224415866" lon="13.373184718027082"><ele>244.0</ele><time>2026-04-10T18:33:27.001Z</time></trkpt><trkpt lat="41.68029472012168" lon="13.373173765084658"><ele>244.0</ele><time>2026-04-10T18:33:29.001Z</time></trkpt><trkpt lat="41.6803527965517" lon="13.373213293646558"><ele>244.0</ele><time>2026-04-10T18:33:48.001Z</time></trkpt><trkpt lat="41.680417604995476" lon="13.373192656293437"><ele>243.99999999999997</ele><time>2026-04-10T18:33:56.001Z</time></trkpt><trkpt lat="41.68045493164747" lon="13.373364204066903"><ele>244.0</ele><time>2026-04-10T18:34:33.001Z</time></trkpt><trkpt lat="41.68047044642246" lon="13.373446200221505"><ele>246.0</ele><time>2026-04-10T18:36:51.001Z</time></trkpt><trkpt lat="41.68053451439096" lon="13.373510278709851"><ele>246.0</ele><time>2026-04-10T18:37:25.001Z</time></trkpt><trkpt lat="41.68048210342205" lon="13.373443993870207"><ele>246.0</ele><time>2026-04-10T18:45:07Z</time></trkpt><trkpt lat="41.68047089100169" lon="13.373357788733799"><ele>246.0</ele><time>2026-04-10T19:33:30.999Z</time></trkpt><trkpt lat="41.680427888431545" lon="13.373268591166234"><ele>246.0</ele><time>2026-04-10T19:33:36.999Z</time></trkpt></trkseg></trk></gpx>